<?xml version="1.0" encoding="UTF-8" standalone="no" ?>
<gpx xmlns="http://www.topografix.com/GPX/1/1" xmlns:xsi="http://www.w3.org/2001/XMLSchema-instance" xsi:schemaLocation="http://www.topografix.com/GPX/1/1 http://www.topografix.com/GPX/1/1/gpx.xsd" version="1.1" creator="VisuGPX - https://www.visugpx.com">
  <metadata>
    <name>Pyrénées Pic de Piau GEMSA J2</name>
  </metadata>
  <trk>
    <name><![CDATA[Pyrénées Pic de Piau GEMSA J2]]></name>
    <trkseg>
      <trkpt lat="42.78305" lon="0.16287">
        <ele>1783.2</ele>
        <time>2021-01-29T12:18:27Z</time>
      </trkpt>
      <trkpt lat="42.78305" lon="0.16287">
        <ele>1783.2</ele>
        <time>2021-01-29T12:18:28Z</time>
      </trkpt>
      <trkpt lat="42.78305" lon="0.16287">
        <ele>1783.2</ele>
        <time>2021-01-29T12:18:29Z</time>
      </trkpt>
      <trkpt lat="42.78305" lon="0.16287">
        <ele>1783.2</ele>
        <time>2021-01-29T12:18:30Z</time>
      </trkpt>
      <trkpt lat="42.78305" lon="0.16287">
        <ele>1783.2</ele>
        <time>2021-01-29T12:18:31Z</time>
      </trkpt>
      <trkpt lat="42.78305" lon="0.16287">
        <ele>1783.2</ele>
        <time>2021-01-29T12:18:32Z</time>
      </trkpt>
      <trkpt lat="42.78305" lon="0.16287">
        <ele>1783.2</ele>
        <time>2021-01-29T12:18:33Z</time>
      </trkpt>
      <trkpt lat="42.78305" lon="0.16287">
        <ele>1783.2</ele>
        <time>2021-01-29T12:18:34Z</time>
      </trkpt>
      <trkpt lat="42.78305" lon="0.16287">
        <ele>1783.2</ele>
        <time>2021-01-29T12:18:35Z</time>
      </trkpt>
      <trkpt lat="42.78305" lon="0.16287">
        <ele>1783.2</ele>
        <time>2021-01-29T12:18:36Z</time>
      </trkpt>
      <trkpt lat="42.78305" lon="0.16287">
        <ele>1783.2</ele>
        <time>2021-01-29T12:18:37Z</time>
      </trkpt>
      <trkpt lat="42.78305" lon="0.16287">
        <ele>1783.2</ele>
        <time>2021-01-29T12:18:38Z</time>
      </trkpt>
      <trkpt lat="42.78305" lon="0.16287">
        <ele>1783.2</ele>
        <time>2021-01-29T12:18:39Z</time>
      </trkpt>
      <trkpt lat="42.78305" lon="0.16287">
        <ele>1783.2</ele>
        <time>2021-01-29T12:18:40Z</time>
      </trkpt>
      <trkpt lat="42.78305" lon="0.16287">
        <ele>1783.2</ele>
        <time>2021-01-29T12:18:41Z</time>
      </trkpt>
      <trkpt lat="42.78305" lon="0.16287">
        <ele>1783.2</ele>
        <time>2021-01-29T12:18:42Z</time>
      </trkpt>
      <trkpt lat="42.78305" lon="0.16287">
        <ele>1783.2</ele>
        <time>2021-01-29T12:18:43Z</time>
      </trkpt>
      <trkpt lat="42.78305" lon="0.16287">
        <ele>1783.2</ele>
        <time>2021-01-29T12:18:44Z</time>
      </trkpt>
      <trkpt lat="42.78305" lon="0.16287">
        <ele>1783.2</ele>
        <time>2021-01-29T12:18:45Z</time>
      </trkpt>
      <trkpt lat="42.78305" lon="0.16287">
        <ele>1783.2</ele>
        <time>2021-01-29T12:18:46Z</time>
      </trkpt>
      <trkpt lat="42.78305" lon="0.16287">
        <ele>1783.2</ele>
        <time>2021-01-29T12:18:47Z</time>
      </trkpt>
      <trkpt lat="42.78305" lon="0.16287">
        <ele>1783.2</ele>
        <time>2021-01-29T12:18:48Z</time>
      </trkpt>
      <trkpt lat="42.78305" lon="0.16287">
        <ele>1783.2</ele>
        <time>2021-01-29T12:18:49Z</time>
      </trkpt>
      <trkpt lat="42.78305" lon="0.16287">
        <ele>1783.2</ele>
        <time>2021-01-29T12:18:50Z</time>
      </trkpt>
      <trkpt lat="42.78305" lon="0.16287">
        <ele>1783.2</ele>
        <time>2021-01-29T12:18:51Z</time>
      </trkpt>
      <trkpt lat="42.78305" lon="0.16287">
        <ele>1783.2</ele>
        <time>2021-01-29T12:18:52Z</time>
      </trkpt>
      <trkpt lat="42.78305" lon="0.16287">
        <ele>1783.2</ele>
        <time>2021-01-29T12:18:53Z</time>
      </trkpt>
      <trkpt lat="42.78305" lon="0.16287">
        <ele>1783.2</ele>
        <time>2021-01-29T12:18:54Z</time>
      </trkpt>
      <trkpt lat="42.78305" lon="0.16287">
        <ele>1783.2</ele>
        <time>2021-01-29T12:18:55Z</time>
      </trkpt>
      <trkpt lat="42.78305" lon="0.16287">
        <ele>1783.2</ele>
        <time>2021-01-29T12:18:56Z</time>
      </trkpt>
      <trkpt lat="42.78305" lon="0.16287">
        <ele>1783.2</ele>
        <time>2021-01-29T12:18:57Z</time>
      </trkpt>
      <trkpt lat="42.78305" lon="0.16287">
        <ele>1783.2</ele>
        <time>2021-01-29T12:18:58Z</time>
      </trkpt>
      <trkpt lat="42.78305" lon="0.16287">
        <ele>1783.2</ele>
        <time>2021-01-29T12:18:59Z</time>
      </trkpt>
      <trkpt lat="42.78305" lon="0.16287">
        <ele>1783.2</ele>
        <time>2021-01-29T12:19:00Z</time>
      </trkpt>
      <trkpt lat="42.78305" lon="0.16287">
        <ele>1783.2</ele>
        <time>2021-01-29T12:19:01Z</time>
      </trkpt>
      <trkpt lat="42.78305" lon="0.16287">
        <ele>1783.2</ele>
        <time>2021-01-29T12:19:02Z</time>
      </trkpt>
      <trkpt lat="42.78305" lon="0.16287">
        <ele>1783.2</ele>
        <time>2021-01-29T12:19:03Z</time>
      </trkpt>
      <trkpt lat="42.78305" lon="0.16287">
        <ele>1783</ele>
        <time>2021-01-29T12:19:04Z</time>
      </trkpt>
      <trkpt lat="42.78305" lon="0.16287">
        <ele>1783</ele>
        <time>2021-01-29T12:19:05Z</time>
      </trkpt>
      <trkpt lat="42.78305" lon="0.16287">
        <ele>1783</ele>
        <time>2021-01-29T12:19:06Z</time>
      </trkpt>
      <trkpt lat="42.78305" lon="0.16287">
        <ele>1783</ele>
        <time>2021-01-29T12:19:07Z</time>
      </trkpt>
      <trkpt lat="42.78305" lon="0.16287">
        <ele>1783.2</ele>
        <time>2021-01-29T12:19:08Z</time>
      </trkpt>
      <trkpt lat="42.78305" lon="0.16287">
        <ele>1783.2</ele>
        <time>2021-01-29T12:19:09Z</time>
      </trkpt>
      <trkpt lat="42.78305" lon="0.16287">
        <ele>1783.2</ele>
        <time>2021-01-29T12:19:10Z</time>
      </trkpt>
      <trkpt lat="42.78305" lon="0.16287">
        <ele>1783.2</ele>
        <time>2021-01-29T12:19:11Z</time>
      </trkpt>
      <trkpt lat="42.78305" lon="0.16287">
        <ele>1783.2</ele>
        <time>2021-01-29T12:19:12Z</time>
      </trkpt>
      <trkpt lat="42.78305" lon="0.16287">
        <ele>1783.2</ele>
        <time>2021-01-29T12:19:13Z</time>
      </trkpt>
      <trkpt lat="42.78305" lon="0.16287">
        <ele>1783.2</ele>
        <time>2021-01-29T12:19:14Z</time>
      </trkpt>
      <trkpt lat="42.78305" lon="0.16287">
        <ele>1783.2</ele>
        <time>2021-01-29T12:19:15Z</time>
      </trkpt>
      <trkpt lat="42.78305" lon="0.16287">
        <ele>1783.2</ele>
        <time>2021-01-29T12:19:16Z</time>
      </trkpt>
      <trkpt lat="42.78305" lon="0.16287">
        <ele>1783.2</ele>
        <time>2021-01-29T12:19:17Z</time>
      </trkpt>
      <trkpt lat="42.78305" lon="0.16287">
        <ele>1783.2</ele>
        <time>2021-01-29T12:19:18Z</time>
      </trkpt>
      <trkpt lat="42.78305" lon="0.16287">
        <ele>1783.2</ele>
        <time>2021-01-29T12:19:19Z</time>
      </trkpt>
      <trkpt lat="42.78305" lon="0.16287">
        <ele>1783.2</ele>
        <time>2021-01-29T12:19:20Z</time>
      </trkpt>
      <trkpt lat="42.78305" lon="0.16287">
        <ele>1783.2</ele>
        <time>2021-01-29T12:19:21Z</time>
      </trkpt>
      <trkpt lat="42.78305" lon="0.16287">
        <ele>1783.2</ele>
        <time>2021-01-29T12:19:22Z</time>
      </trkpt>
      <trkpt lat="42.78305" lon="0.16287">
        <ele>1783.2</ele>
        <time>2021-01-29T12:19:23Z</time>
      </trkpt>
      <trkpt lat="42.78305" lon="0.16287">
        <ele>1783.2</ele>
        <time>2021-01-29T12:19:24Z</time>
      </trkpt>
      <trkpt lat="42.78305" lon="0.16287">
        <ele>1783.2</ele>
        <time>2021-01-29T12:19:25Z</time>
      </trkpt>
      <trkpt lat="42.78305" lon="0.16287">
        <ele>1783.2</ele>
        <time>2021-01-29T12:19:26Z</time>
      </trkpt>
      <trkpt lat="42.78305" lon="0.16287">
        <ele>1783.2</ele>
        <time>2021-01-29T12:19:27Z</time>
      </trkpt>
      <trkpt lat="42.78305" lon="0.16287">
        <ele>1783.2</ele>
        <time>2021-01-29T12:19:28Z</time>
      </trkpt>
      <trkpt lat="42.78305" lon="0.16287">
        <ele>1783.2</ele>
        <time>2021-01-29T12:19:29Z</time>
      </trkpt>
      <trkpt lat="42.78305" lon="0.16287">
        <ele>1783.2</ele>
        <time>2021-01-29T12:19:30Z</time>
      </trkpt>
      <trkpt lat="42.78305" lon="0.16287">
        <ele>1783.2</ele>
        <time>2021-01-29T12:19:31Z</time>
      </trkpt>
      <trkpt lat="42.78305" lon="0.16287">
        <ele>1783.4</ele>
        <time>2021-01-29T12:19:32Z</time>
      </trkpt>
      <trkpt lat="42.78305" lon="0.16287">
        <ele>1783.4</ele>
        <time>2021-01-29T12:19:33Z</time>
      </trkpt>
      <trkpt lat="42.78305" lon="0.16287">
        <ele>1783.4</ele>
        <time>2021-01-29T12:19:34Z</time>
      </trkpt>
      <trkpt lat="42.78305" lon="0.16287">
        <ele>1783.4</ele>
        <time>2021-01-29T12:19:35Z</time>
      </trkpt>
      <trkpt lat="42.78305" lon="0.16287">
        <ele>1783.4</ele>
        <time>2021-01-29T12:19:36Z</time>
      </trkpt>
      <trkpt lat="42.78305" lon="0.16287">
        <ele>1783.4</ele>
        <time>2021-01-29T12:19:37Z</time>
      </trkpt>
      <trkpt lat="42.78305" lon="0.16287">
        <ele>1783.4</ele>
        <time>2021-01-29T12:19:38Z</time>
      </trkpt>
      <trkpt lat="42.78305" lon="0.16287">
        <ele>1783.4</ele>
        <time>2021-01-29T12:19:39Z</time>
      </trkpt>
      <trkpt lat="42.78305" lon="0.16287">
        <ele>1783.4</ele>
        <time>2021-01-29T12:19:40Z</time>
      </trkpt>
      <trkpt lat="42.78305" lon="0.16287">
        <ele>1783.4</ele>
        <time>2021-01-29T12:19:41Z</time>
      </trkpt>
      <trkpt lat="42.78305" lon="0.16287">
        <ele>1783.2</ele>
        <time>2021-01-29T12:19:42Z</time>
      </trkpt>
      <trkpt lat="42.78305" lon="0.16287">
        <ele>1783.2</ele>
        <time>2021-01-29T12:19:43Z</time>
      </trkpt>
      <trkpt lat="42.78305" lon="0.16287">
        <ele>1783.4</ele>
        <time>2021-01-29T12:19:44Z</time>
      </trkpt>
      <trkpt lat="42.78305" lon="0.16287">
        <ele>1783.6</ele>
        <time>2021-01-29T12:19:45Z</time>
      </trkpt>
      <trkpt lat="42.78305" lon="0.16287">
        <ele>1783.6</ele>
        <time>2021-01-29T12:19:46Z</time>
      </trkpt>
      <trkpt lat="42.78305" lon="0.16287">
        <ele>1783.6</ele>
        <time>2021-01-29T12:19:47Z</time>
      </trkpt>
      <trkpt lat="42.78305" lon="0.16287">
        <ele>1783.6</ele>
        <time>2021-01-29T12:19:48Z</time>
      </trkpt>
      <trkpt lat="42.78305" lon="0.16287">
        <ele>1783.4</ele>
        <time>2021-01-29T12:19:49Z</time>
      </trkpt>
      <trkpt lat="42.78305" lon="0.16287">
        <ele>1783.4</ele>
        <time>2021-01-29T12:19:50Z</time>
      </trkpt>
      <trkpt lat="42.78305" lon="0.16287">
        <ele>1783.4</ele>
        <time>2021-01-29T12:19:51Z</time>
      </trkpt>
      <trkpt lat="42.78305" lon="0.16287">
        <ele>1783.6</ele>
        <time>2021-01-29T12:19:52Z</time>
      </trkpt>
      <trkpt lat="42.78305" lon="0.16287">
        <ele>1783.6</ele>
        <time>2021-01-29T12:19:53Z</time>
      </trkpt>
      <trkpt lat="42.78305" lon="0.16287">
        <ele>1783.6</ele>
        <time>2021-01-29T12:19:54Z</time>
      </trkpt>
      <trkpt lat="42.78305" lon="0.16287">
        <ele>1783.6</ele>
        <time>2021-01-29T12:19:55Z</time>
      </trkpt>
      <trkpt lat="42.78305" lon="0.16287">
        <ele>1783.6</ele>
        <time>2021-01-29T12:19:56Z</time>
      </trkpt>
      <trkpt lat="42.78305" lon="0.16287">
        <ele>1783.6</ele>
        <time>2021-01-29T12:19:57Z</time>
      </trkpt>
      <trkpt lat="42.78305" lon="0.16287">
        <ele>1783.6</ele>
        <time>2021-01-29T12:19:58Z</time>
      </trkpt>
      <trkpt lat="42.78305" lon="0.16287">
        <ele>1783.4</ele>
        <time>2021-01-29T12:19:59Z</time>
      </trkpt>
      <trkpt lat="42.78305" lon="0.16287">
        <ele>1783.4</ele>
        <time>2021-01-29T12:20:00Z</time>
      </trkpt>
      <trkpt lat="42.78305" lon="0.16287">
        <ele>1783.4</ele>
        <time>2021-01-29T12:20:01Z</time>
      </trkpt>
      <trkpt lat="42.78305" lon="0.16287">
        <ele>1783.6</ele>
        <time>2021-01-29T12:20:02Z</time>
      </trkpt>
      <trkpt lat="42.78305" lon="0.16287">
        <ele>1783.6</ele>
        <time>2021-01-29T12:20:03Z</time>
      </trkpt>
      <trkpt lat="42.78305" lon="0.16287">
        <ele>1783.6</ele>
        <time>2021-01-29T12:20:04Z</time>
      </trkpt>
      <trkpt lat="42.78305" lon="0.16287">
        <ele>1783.6</ele>
        <time>2021-01-29T12:20:05Z</time>
      </trkpt>
      <trkpt lat="42.78305" lon="0.16287">
        <ele>1783.6</ele>
        <time>2021-01-29T12:20:06Z</time>
      </trkpt>
      <trkpt lat="42.78305" lon="0.16287">
        <ele>1783.6</ele>
        <time>2021-01-29T12:20:07Z</time>
      </trkpt>
      <trkpt lat="42.78305" lon="0.16287">
        <ele>1783.6</ele>
        <time>2021-01-29T12:20:08Z</time>
      </trkpt>
      <trkpt lat="42.78305" lon="0.16287">
        <ele>1783.6</ele>
        <time>2021-01-29T12:20:09Z</time>
      </trkpt>
      <trkpt lat="42.78305" lon="0.16287">
        <ele>1783.6</ele>
        <time>2021-01-29T12:20:10Z</time>
      </trkpt>
      <trkpt lat="42.78305" lon="0.16287">
        <ele>1783.6</ele>
        <time>2021-01-29T12:20:11Z</time>
      </trkpt>
      <trkpt lat="42.78305" lon="0.16287">
        <ele>1783.6</ele>
        <time>2021-01-29T12:20:12Z</time>
      </trkpt>
      <trkpt lat="42.78305" lon="0.16287">
        <ele>1783.6</ele>
        <time>2021-01-29T12:20:13Z</time>
      </trkpt>
      <trkpt lat="42.78305" lon="0.16287">
        <ele>1783.6</ele>
        <time>2021-01-29T12:20:14Z</time>
      </trkpt>
      <trkpt lat="42.78305" lon="0.16287">
        <ele>1783.6</ele>
        <time>2021-01-29T12:20:15Z</time>
      </trkpt>
      <trkpt lat="42.78305" lon="0.16287">
        <ele>1783.6</ele>
        <time>2021-01-29T12:20:16Z</time>
      </trkpt>
      <trkpt lat="42.78305" lon="0.16287">
        <ele>1783.6</ele>
        <time>2021-01-29T12:20:17Z</time>
      </trkpt>
      <trkpt lat="42.78305" lon="0.16287">
        <ele>1783.6</ele>
        <time>2021-01-29T12:20:18Z</time>
      </trkpt>
      <trkpt lat="42.78305" lon="0.16287">
        <ele>1783.6</ele>
        <time>2021-01-29T12:20:19Z</time>
      </trkpt>
      <trkpt lat="42.78305" lon="0.16287">
        <ele>1783.8</ele>
        <time>2021-01-29T12:20:20Z</time>
      </trkpt>
      <trkpt lat="42.78305" lon="0.16287">
        <ele>1783.8</ele>
        <time>2021-01-29T12:20:21Z</time>
      </trkpt>
      <trkpt lat="42.78305" lon="0.16287">
        <ele>1783.8</ele>
        <time>2021-01-29T12:20:22Z</time>
      </trkpt>
      <trkpt lat="42.78305" lon="0.16287">
        <ele>1783.8</ele>
        <time>2021-01-29T12:20:23Z</time>
      </trkpt>
      <trkpt lat="42.78305" lon="0.16287">
        <ele>1783.8</ele>
        <time>2021-01-29T12:20:24Z</time>
      </trkpt>
      <trkpt lat="42.78305" lon="0.16287">
        <ele>1783.8</ele>
        <time>2021-01-29T12:20:25Z</time>
      </trkpt>
      <trkpt lat="42.78305" lon="0.16287">
        <ele>1783.8</ele>
        <time>2021-01-29T12:20:26Z</time>
      </trkpt>
      <trkpt lat="42.78305" lon="0.16287">
        <ele>1783.8</ele>
        <time>2021-01-29T12:20:27Z</time>
      </trkpt>
      <trkpt lat="42.78305" lon="0.16287">
        <ele>1783.8</ele>
        <time>2021-01-29T12:20:28Z</time>
      </trkpt>
      <trkpt lat="42.78305" lon="0.16287">
        <ele>1783.8</ele>
        <time>2021-01-29T12:20:29Z</time>
      </trkpt>
      <trkpt lat="42.78305" lon="0.16287">
        <ele>1783.8</ele>
        <time>2021-01-29T12:20:30Z</time>
      </trkpt>
      <trkpt lat="42.78305" lon="0.16287">
        <ele>1783.6</ele>
        <time>2021-01-29T12:20:31Z</time>
      </trkpt>
      <trkpt lat="42.78305" lon="0.16287">
        <ele>1783.6</ele>
        <time>2021-01-29T12:20:32Z</time>
      </trkpt>
      <trkpt lat="42.78305" lon="0.16287">
        <ele>1783.6</ele>
        <time>2021-01-29T12:20:33Z</time>
      </trkpt>
      <trkpt lat="42.78305" lon="0.16287">
        <ele>1783.6</ele>
        <time>2021-01-29T12:20:34Z</time>
      </trkpt>
      <trkpt lat="42.78305" lon="0.16287">
        <ele>1783.6</ele>
        <time>2021-01-29T12:20:35Z</time>
      </trkpt>
      <trkpt lat="42.78305" lon="0.16287">
        <ele>1783.6</ele>
        <time>2021-01-29T12:20:36Z</time>
      </trkpt>
      <trkpt lat="42.78305" lon="0.16287">
        <ele>1783.6</ele>
        <time>2021-01-29T12:20:37Z</time>
      </trkpt>
      <trkpt lat="42.78305" lon="0.16287">
        <ele>1783.8</ele>
        <time>2021-01-29T12:20:38Z</time>
      </trkpt>
      <trkpt lat="42.78305" lon="0.16287">
        <ele>1783.8</ele>
        <time>2021-01-29T12:20:39Z</time>
      </trkpt>
      <trkpt lat="42.78305" lon="0.16287">
        <ele>1783.8</ele>
        <time>2021-01-29T12:20:40Z</time>
      </trkpt>
      <trkpt lat="42.78305" lon="0.16287">
        <ele>1783.8</ele>
        <time>2021-01-29T12:20:41Z</time>
      </trkpt>
      <trkpt lat="42.78305" lon="0.16287">
        <ele>1783.8</ele>
        <time>2021-01-29T12:20:42Z</time>
      </trkpt>
      <trkpt lat="42.78305" lon="0.16287">
        <ele>1783.8</ele>
        <time>2021-01-29T12:20:43Z</time>
      </trkpt>
      <trkpt lat="42.78305" lon="0.16287">
        <ele>1783.8</ele>
        <time>2021-01-29T12:20:44Z</time>
      </trkpt>
      <trkpt lat="42.78305" lon="0.16287">
        <ele>1783.8</ele>
        <time>2021-01-29T12:20:45Z</time>
      </trkpt>
      <trkpt lat="42.78305" lon="0.16287">
        <ele>1783.8</ele>
        <time>2021-01-29T12:20:46Z</time>
      </trkpt>
      <trkpt lat="42.78305" lon="0.16287">
        <ele>1783.8</ele>
        <time>2021-01-29T12:20:47Z</time>
      </trkpt>
      <trkpt lat="42.78305" lon="0.16287">
        <ele>1783.8</ele>
        <time>2021-01-29T12:20:48Z</time>
      </trkpt>
      <trkpt lat="42.78305" lon="0.16287">
        <ele>1783.8</ele>
        <time>2021-01-29T12:20:49Z</time>
      </trkpt>
      <trkpt lat="42.78305" lon="0.16287">
        <ele>1784</ele>
        <time>2021-01-29T12:20:50Z</time>
      </trkpt>
      <trkpt lat="42.78306" lon="0.16287">
        <ele>1784</ele>
        <time>2021-01-29T12:20:51Z</time>
      </trkpt>
      <trkpt lat="42.78307" lon="0.16288">
        <ele>1784</ele>
        <time>2021-01-29T12:20:52Z</time>
      </trkpt>
      <trkpt lat="42.78307" lon="0.16288">
        <ele>1783.8</ele>
        <time>2021-01-29T12:20:53Z</time>
      </trkpt>
      <trkpt lat="42.78307" lon="0.16289">
        <ele>1783.8</ele>
        <time>2021-01-29T12:20:54Z</time>
      </trkpt>
      <trkpt lat="42.78307" lon="0.16289">
        <ele>1784</ele>
        <time>2021-01-29T12:20:55Z</time>
      </trkpt>
      <trkpt lat="42.78306" lon="0.16289">
        <ele>1784.2</ele>
        <time>2021-01-29T12:20:56Z</time>
      </trkpt>
      <trkpt lat="42.78306" lon="0.1629">
        <ele>1784.4</ele>
        <time>2021-01-29T12:20:57Z</time>
      </trkpt>
      <trkpt lat="42.78306" lon="0.16292">
        <ele>1784.4</ele>
        <time>2021-01-29T12:20:58Z</time>
      </trkpt>
      <trkpt lat="42.78305" lon="0.16293">
        <ele>1784.4</ele>
        <time>2021-01-29T12:20:59Z</time>
      </trkpt>
      <trkpt lat="42.78305" lon="0.16295">
        <ele>1784.4</ele>
        <time>2021-01-29T12:21:00Z</time>
      </trkpt>
      <trkpt lat="42.78304" lon="0.16297">
        <ele>1784.6</ele>
        <time>2021-01-29T12:21:01Z</time>
      </trkpt>
      <trkpt lat="42.78304" lon="0.16298">
        <ele>1784.4</ele>
        <time>2021-01-29T12:21:02Z</time>
      </trkpt>
      <trkpt lat="42.78304" lon="0.16299">
        <ele>1784.4</ele>
        <time>2021-01-29T12:21:03Z</time>
      </trkpt>
      <trkpt lat="42.78304" lon="0.16299">
        <ele>1784.4</ele>
        <time>2021-01-29T12:21:04Z</time>
      </trkpt>
      <trkpt lat="42.78304" lon="0.16299">
        <ele>1784.4</ele>
        <time>2021-01-29T12:21:05Z</time>
      </trkpt>
      <trkpt lat="42.78304" lon="0.16299">
        <ele>1784.4</ele>
        <time>2021-01-29T12:21:06Z</time>
      </trkpt>
      <trkpt lat="42.78304" lon="0.16299">
        <ele>1784.4</ele>
        <time>2021-01-29T12:21:07Z</time>
      </trkpt>
      <trkpt lat="42.78304" lon="0.16299">
        <ele>1784.6</ele>
        <time>2021-01-29T12:21:08Z</time>
      </trkpt>
      <trkpt lat="42.78304" lon="0.16299">
        <ele>1784.6</ele>
        <time>2021-01-29T12:21:09Z</time>
      </trkpt>
      <trkpt lat="42.78303" lon="0.163">
        <ele>1784.6</ele>
        <time>2021-01-29T12:21:10Z</time>
      </trkpt>
      <trkpt lat="42.78303" lon="0.163">
        <ele>1784.4</ele>
        <time>2021-01-29T12:21:11Z</time>
      </trkpt>
      <trkpt lat="42.78303" lon="0.163">
        <ele>1784.4</ele>
        <time>2021-01-29T12:21:12Z</time>
      </trkpt>
      <trkpt lat="42.78303" lon="0.163">
        <ele>1784.6</ele>
        <time>2021-01-29T12:21:13Z</time>
      </trkpt>
      <trkpt lat="42.78303" lon="0.163">
        <ele>1784.6</ele>
        <time>2021-01-29T12:21:14Z</time>
      </trkpt>
      <trkpt lat="42.78303" lon="0.16301">
        <ele>1784.8</ele>
        <time>2021-01-29T12:21:15Z</time>
      </trkpt>
      <trkpt lat="42.78303" lon="0.16303">
        <ele>1784.6</ele>
        <time>2021-01-29T12:21:16Z</time>
      </trkpt>
      <trkpt lat="42.78302" lon="0.16304">
        <ele>1784.8</ele>
        <time>2021-01-29T12:21:17Z</time>
      </trkpt>
      <trkpt lat="42.78302" lon="0.16306">
        <ele>1784.8</ele>
        <time>2021-01-29T12:21:18Z</time>
      </trkpt>
      <trkpt lat="42.78302" lon="0.16308">
        <ele>1784.6</ele>
        <time>2021-01-29T12:21:19Z</time>
      </trkpt>
      <trkpt lat="42.78302" lon="0.16309">
        <ele>1784.6</ele>
        <time>2021-01-29T12:21:20Z</time>
      </trkpt>
      <trkpt lat="42.78301" lon="0.16311">
        <ele>1784.8</ele>
        <time>2021-01-29T12:21:21Z</time>
      </trkpt>
      <trkpt lat="42.78301" lon="0.16313">
        <ele>1784.8</ele>
        <time>2021-01-29T12:21:22Z</time>
      </trkpt>
      <trkpt lat="42.78301" lon="0.16315">
        <ele>1784.6</ele>
        <time>2021-01-29T12:21:23Z</time>
      </trkpt>
      <trkpt lat="42.78301" lon="0.16317">
        <ele>1784.6</ele>
        <time>2021-01-29T12:21:24Z</time>
      </trkpt>
      <trkpt lat="42.78301" lon="0.16318">
        <ele>1784.8</ele>
        <time>2021-01-29T12:21:25Z</time>
      </trkpt>
      <trkpt lat="42.783" lon="0.1632">
        <ele>1784.8</ele>
        <time>2021-01-29T12:21:26Z</time>
      </trkpt>
      <trkpt lat="42.783" lon="0.16322">
        <ele>1784.8</ele>
        <time>2021-01-29T12:21:27Z</time>
      </trkpt>
      <trkpt lat="42.783" lon="0.16324">
        <ele>1784.8</ele>
        <time>2021-01-29T12:21:28Z</time>
      </trkpt>
      <trkpt lat="42.78299" lon="0.16326">
        <ele>1784.8</ele>
        <time>2021-01-29T12:21:29Z</time>
      </trkpt>
      <trkpt lat="42.78299" lon="0.16328">
        <ele>1785</ele>
        <time>2021-01-29T12:21:30Z</time>
      </trkpt>
      <trkpt lat="42.78298" lon="0.16329">
        <ele>1784.8</ele>
        <time>2021-01-29T12:21:31Z</time>
      </trkpt>
      <trkpt lat="42.78298" lon="0.16331">
        <ele>1784.6</ele>
        <time>2021-01-29T12:21:32Z</time>
      </trkpt>
      <trkpt lat="42.78298" lon="0.16332">
        <ele>1784.6</ele>
        <time>2021-01-29T12:21:33Z</time>
      </trkpt>
      <trkpt lat="42.78297" lon="0.16333">
        <ele>1785</ele>
        <time>2021-01-29T12:21:34Z</time>
      </trkpt>
      <trkpt lat="42.78297" lon="0.16335">
        <ele>1785</ele>
        <time>2021-01-29T12:21:35Z</time>
      </trkpt>
      <trkpt lat="42.78297" lon="0.16336">
        <ele>1784.8</ele>
        <time>2021-01-29T12:21:36Z</time>
      </trkpt>
      <trkpt lat="42.78297" lon="0.16337">
        <ele>1785.4</ele>
        <time>2021-01-29T12:21:37Z</time>
      </trkpt>
      <trkpt lat="42.78297" lon="0.16338">
        <ele>1785.4</ele>
        <time>2021-01-29T12:21:38Z</time>
      </trkpt>
      <trkpt lat="42.78297" lon="0.16339">
        <ele>1785.4</ele>
        <time>2021-01-29T12:21:39Z</time>
      </trkpt>
      <trkpt lat="42.78296" lon="0.16341">
        <ele>1785.8</ele>
        <time>2021-01-29T12:21:40Z</time>
      </trkpt>
      <trkpt lat="42.78296" lon="0.16342">
        <ele>1786</ele>
        <time>2021-01-29T12:21:41Z</time>
      </trkpt>
      <trkpt lat="42.78296" lon="0.16343">
        <ele>1786</ele>
        <time>2021-01-29T12:21:42Z</time>
      </trkpt>
      <trkpt lat="42.78295" lon="0.16344">
        <ele>1786.2</ele>
        <time>2021-01-29T12:21:43Z</time>
      </trkpt>
      <trkpt lat="42.78295" lon="0.16344">
        <ele>1786.6</ele>
        <time>2021-01-29T12:21:44Z</time>
      </trkpt>
      <trkpt lat="42.78294" lon="0.16345">
        <ele>1786.8</ele>
        <time>2021-01-29T12:21:45Z</time>
      </trkpt>
      <trkpt lat="42.78294" lon="0.16346">
        <ele>1787</ele>
        <time>2021-01-29T12:21:46Z</time>
      </trkpt>
      <trkpt lat="42.78293" lon="0.16346">
        <ele>1787.2</ele>
        <time>2021-01-29T12:21:47Z</time>
      </trkpt>
      <trkpt lat="42.78293" lon="0.16347">
        <ele>1787.2</ele>
        <time>2021-01-29T12:21:48Z</time>
      </trkpt>
      <trkpt lat="42.78292" lon="0.16347">
        <ele>1787.4</ele>
        <time>2021-01-29T12:21:49Z</time>
      </trkpt>
      <trkpt lat="42.78291" lon="0.16347">
        <ele>1787.6</ele>
        <time>2021-01-29T12:21:50Z</time>
      </trkpt>
      <trkpt lat="42.7829" lon="0.16347">
        <ele>1787.6</ele>
        <time>2021-01-29T12:21:51Z</time>
      </trkpt>
      <trkpt lat="42.7829" lon="0.16346">
        <ele>1787.8</ele>
        <time>2021-01-29T12:21:52Z</time>
      </trkpt>
      <trkpt lat="42.78289" lon="0.16345">
        <ele>1788</ele>
        <time>2021-01-29T12:21:53Z</time>
      </trkpt>
      <trkpt lat="42.78288" lon="0.16345">
        <ele>1788</ele>
        <time>2021-01-29T12:21:54Z</time>
      </trkpt>
      <trkpt lat="42.78288" lon="0.16343">
        <ele>1788</ele>
        <time>2021-01-29T12:21:55Z</time>
      </trkpt>
      <trkpt lat="42.78287" lon="0.16342">
        <ele>1788.2</ele>
        <time>2021-01-29T12:21:56Z</time>
      </trkpt>
      <trkpt lat="42.78287" lon="0.16341">
        <ele>1788.2</ele>
        <time>2021-01-29T12:21:57Z</time>
      </trkpt>
      <trkpt lat="42.78287" lon="0.1634">
        <ele>1788.4</ele>
        <time>2021-01-29T12:21:58Z</time>
      </trkpt>
      <trkpt lat="42.78287" lon="0.16339">
        <ele>1788.6</ele>
        <time>2021-01-29T12:21:59Z</time>
      </trkpt>
      <trkpt lat="42.78287" lon="0.16338">
        <ele>1788.6</ele>
        <time>2021-01-29T12:22:00Z</time>
      </trkpt>
      <trkpt lat="42.78286" lon="0.16337">
        <ele>1788.8</ele>
        <time>2021-01-29T12:22:01Z</time>
      </trkpt>
      <trkpt lat="42.78286" lon="0.16336">
        <ele>1789</ele>
        <time>2021-01-29T12:22:02Z</time>
      </trkpt>
      <trkpt lat="42.78286" lon="0.16335">
        <ele>1789</ele>
        <time>2021-01-29T12:22:03Z</time>
      </trkpt>
      <trkpt lat="42.78286" lon="0.16333">
        <ele>1789</ele>
        <time>2021-01-29T12:22:04Z</time>
      </trkpt>
      <trkpt lat="42.78285" lon="0.16332">
        <ele>1789.2</ele>
        <time>2021-01-29T12:22:05Z</time>
      </trkpt>
      <trkpt lat="42.78285" lon="0.1633">
        <ele>1789.6</ele>
        <time>2021-01-29T12:22:06Z</time>
      </trkpt>
      <trkpt lat="42.78285" lon="0.16329">
        <ele>1789.8</ele>
        <time>2021-01-29T12:22:07Z</time>
      </trkpt>
      <trkpt lat="42.78285" lon="0.16328">
        <ele>1789.8</ele>
        <time>2021-01-29T12:22:08Z</time>
      </trkpt>
      <trkpt lat="42.78284" lon="0.16326">
        <ele>1789.8</ele>
        <time>2021-01-29T12:22:09Z</time>
      </trkpt>
      <trkpt lat="42.78284" lon="0.16324">
        <ele>1790</ele>
        <time>2021-01-29T12:22:10Z</time>
      </trkpt>
      <trkpt lat="42.78284" lon="0.16323">
        <ele>1790.2</ele>
        <time>2021-01-29T12:22:11Z</time>
      </trkpt>
      <trkpt lat="42.78284" lon="0.16321">
        <ele>1790.6</ele>
        <time>2021-01-29T12:22:12Z</time>
      </trkpt>
      <trkpt lat="42.78283" lon="0.16319">
        <ele>1790.6</ele>
        <time>2021-01-29T12:22:13Z</time>
      </trkpt>
      <trkpt lat="42.78283" lon="0.16318">
        <ele>1790.8</ele>
        <time>2021-01-29T12:22:14Z</time>
      </trkpt>
      <trkpt lat="42.78283" lon="0.16316">
        <ele>1791</ele>
        <time>2021-01-29T12:22:15Z</time>
      </trkpt>
      <trkpt lat="42.78283" lon="0.16314">
        <ele>1791.2</ele>
        <time>2021-01-29T12:22:16Z</time>
      </trkpt>
      <trkpt lat="42.78283" lon="0.16313">
        <ele>1791.2</ele>
        <time>2021-01-29T12:22:17Z</time>
      </trkpt>
      <trkpt lat="42.78282" lon="0.16311">
        <ele>1791.4</ele>
        <time>2021-01-29T12:22:18Z</time>
      </trkpt>
      <trkpt lat="42.78282" lon="0.16309">
        <ele>1791.6</ele>
        <time>2021-01-29T12:22:19Z</time>
      </trkpt>
      <trkpt lat="42.78282" lon="0.16307">
        <ele>1791.8</ele>
        <time>2021-01-29T12:22:20Z</time>
      </trkpt>
      <trkpt lat="42.78282" lon="0.16306">
        <ele>1792.2</ele>
        <time>2021-01-29T12:22:21Z</time>
      </trkpt>
      <trkpt lat="42.78282" lon="0.16304">
        <ele>1792.4</ele>
        <time>2021-01-29T12:22:22Z</time>
      </trkpt>
      <trkpt lat="42.78281" lon="0.16302">
        <ele>1792.6</ele>
        <time>2021-01-29T12:22:23Z</time>
      </trkpt>
      <trkpt lat="42.78281" lon="0.16301">
        <ele>1792.6</ele>
        <time>2021-01-29T12:22:24Z</time>
      </trkpt>
      <trkpt lat="42.78281" lon="0.163">
        <ele>1792.6</ele>
        <time>2021-01-29T12:22:25Z</time>
      </trkpt>
      <trkpt lat="42.78281" lon="0.16298">
        <ele>1793</ele>
        <time>2021-01-29T12:22:26Z</time>
      </trkpt>
      <trkpt lat="42.78281" lon="0.16296">
        <ele>1793.2</ele>
        <time>2021-01-29T12:22:27Z</time>
      </trkpt>
      <trkpt lat="42.7828" lon="0.16294">
        <ele>1793.4</ele>
        <time>2021-01-29T12:22:28Z</time>
      </trkpt>
      <trkpt lat="42.7828" lon="0.16293">
        <ele>1793.6</ele>
        <time>2021-01-29T12:22:29Z</time>
      </trkpt>
      <trkpt lat="42.78279" lon="0.16291">
        <ele>1793.8</ele>
        <time>2021-01-29T12:22:30Z</time>
      </trkpt>
      <trkpt lat="42.78279" lon="0.1629">
        <ele>1794</ele>
        <time>2021-01-29T12:22:31Z</time>
      </trkpt>
      <trkpt lat="42.78279" lon="0.16288">
        <ele>1794</ele>
        <time>2021-01-29T12:22:32Z</time>
      </trkpt>
      <trkpt lat="42.78278" lon="0.16286">
        <ele>1794.2</ele>
        <time>2021-01-29T12:22:33Z</time>
      </trkpt>
      <trkpt lat="42.78278" lon="0.16285">
        <ele>1794.2</ele>
        <time>2021-01-29T12:22:34Z</time>
      </trkpt>
      <trkpt lat="42.78277" lon="0.16283">
        <ele>1794.4</ele>
        <time>2021-01-29T12:22:35Z</time>
      </trkpt>
      <trkpt lat="42.78277" lon="0.16282">
        <ele>1794.8</ele>
        <time>2021-01-29T12:22:36Z</time>
      </trkpt>
      <trkpt lat="42.78277" lon="0.1628">
        <ele>1795.2</ele>
        <time>2021-01-29T12:22:37Z</time>
      </trkpt>
      <trkpt lat="42.78277" lon="0.16278">
        <ele>1795.4</ele>
        <time>2021-01-29T12:22:38Z</time>
      </trkpt>
      <trkpt lat="42.78277" lon="0.16277">
        <ele>1795.6</ele>
        <time>2021-01-29T12:22:39Z</time>
      </trkpt>
      <trkpt lat="42.78276" lon="0.16275">
        <ele>1795.8</ele>
        <time>2021-01-29T12:22:40Z</time>
      </trkpt>
      <trkpt lat="42.78276" lon="0.16273">
        <ele>1796.2</ele>
        <time>2021-01-29T12:22:41Z</time>
      </trkpt>
      <trkpt lat="42.78276" lon="0.16272">
        <ele>1796.4</ele>
        <time>2021-01-29T12:22:42Z</time>
      </trkpt>
      <trkpt lat="42.78276" lon="0.16271">
        <ele>1796.6</ele>
        <time>2021-01-29T12:22:43Z</time>
      </trkpt>
      <trkpt lat="42.78276" lon="0.16269">
        <ele>1796.8</ele>
        <time>2021-01-29T12:22:44Z</time>
      </trkpt>
      <trkpt lat="42.78275" lon="0.16268">
        <ele>1797</ele>
        <time>2021-01-29T12:22:45Z</time>
      </trkpt>
      <trkpt lat="42.78275" lon="0.16268">
        <ele>1797</ele>
        <time>2021-01-29T12:22:46Z</time>
      </trkpt>
      <trkpt lat="42.78275" lon="0.16268">
        <ele>1797</ele>
        <time>2021-01-29T12:22:47Z</time>
      </trkpt>
      <trkpt lat="42.78275" lon="0.16268">
        <ele>1797.2</ele>
        <time>2021-01-29T12:22:48Z</time>
      </trkpt>
      <trkpt lat="42.78275" lon="0.16268">
        <ele>1797.2</ele>
        <time>2021-01-29T12:22:49Z</time>
      </trkpt>
      <trkpt lat="42.78275" lon="0.16268">
        <ele>1797.4</ele>
        <time>2021-01-29T12:22:50Z</time>
      </trkpt>
      <trkpt lat="42.78275" lon="0.16267">
        <ele>1797.2</ele>
        <time>2021-01-29T12:22:51Z</time>
      </trkpt>
      <trkpt lat="42.78275" lon="0.16266">
        <ele>1797.6</ele>
        <time>2021-01-29T12:22:52Z</time>
      </trkpt>
      <trkpt lat="42.78275" lon="0.16265">
        <ele>1797.6</ele>
        <time>2021-01-29T12:22:53Z</time>
      </trkpt>
      <trkpt lat="42.78274" lon="0.16264">
        <ele>1797.8</ele>
        <time>2021-01-29T12:22:54Z</time>
      </trkpt>
      <trkpt lat="42.78274" lon="0.16263">
        <ele>1797.8</ele>
        <time>2021-01-29T12:22:55Z</time>
      </trkpt>
      <trkpt lat="42.78274" lon="0.16262">
        <ele>1798</ele>
        <time>2021-01-29T12:22:56Z</time>
      </trkpt>
      <trkpt lat="42.78274" lon="0.16261">
        <ele>1798</ele>
        <time>2021-01-29T12:22:57Z</time>
      </trkpt>
      <trkpt lat="42.78274" lon="0.1626">
        <ele>1798.2</ele>
        <time>2021-01-29T12:22:58Z</time>
      </trkpt>
      <trkpt lat="42.78274" lon="0.16259">
        <ele>1798.4</ele>
        <time>2021-01-29T12:22:59Z</time>
      </trkpt>
      <trkpt lat="42.78274" lon="0.16258">
        <ele>1798.4</ele>
        <time>2021-01-29T12:23:00Z</time>
      </trkpt>
      <trkpt lat="42.78274" lon="0.16257">
        <ele>1798.6</ele>
        <time>2021-01-29T12:23:01Z</time>
      </trkpt>
      <trkpt lat="42.78274" lon="0.16257">
        <ele>1798.8</ele>
        <time>2021-01-29T12:23:02Z</time>
      </trkpt>
      <trkpt lat="42.78274" lon="0.16256">
        <ele>1798.8</ele>
        <time>2021-01-29T12:23:03Z</time>
      </trkpt>
      <trkpt lat="42.78274" lon="0.16255">
        <ele>1799.2</ele>
        <time>2021-01-29T12:23:04Z</time>
      </trkpt>
      <trkpt lat="42.78274" lon="0.16254">
        <ele>1799.2</ele>
        <time>2021-01-29T12:23:05Z</time>
      </trkpt>
      <trkpt lat="42.78274" lon="0.16253">
        <ele>1799.4</ele>
        <time>2021-01-29T12:23:06Z</time>
      </trkpt>
      <trkpt lat="42.78273" lon="0.16252">
        <ele>1799.6</ele>
        <time>2021-01-29T12:23:07Z</time>
      </trkpt>
      <trkpt lat="42.78273" lon="0.16251">
        <ele>1799.6</ele>
        <time>2021-01-29T12:23:08Z</time>
      </trkpt>
      <trkpt lat="42.78273" lon="0.1625">
        <ele>1799.8</ele>
        <time>2021-01-29T12:23:09Z</time>
      </trkpt>
      <trkpt lat="42.78273" lon="0.16248">
        <ele>1800</ele>
        <time>2021-01-29T12:23:10Z</time>
      </trkpt>
      <trkpt lat="42.78273" lon="0.16247">
        <ele>1800</ele>
        <time>2021-01-29T12:23:11Z</time>
      </trkpt>
      <trkpt lat="42.78272" lon="0.16246">
        <ele>1800.2</ele>
        <time>2021-01-29T12:23:12Z</time>
      </trkpt>
      <trkpt lat="42.78272" lon="0.16245">
        <ele>1800.4</ele>
        <time>2021-01-29T12:23:13Z</time>
      </trkpt>
      <trkpt lat="42.78272" lon="0.16244">
        <ele>1800.6</ele>
        <time>2021-01-29T12:23:14Z</time>
      </trkpt>
      <trkpt lat="42.78272" lon="0.16243">
        <ele>1800.6</ele>
        <time>2021-01-29T12:23:15Z</time>
      </trkpt>
      <trkpt lat="42.78272" lon="0.16242">
        <ele>1800.8</ele>
        <time>2021-01-29T12:23:16Z</time>
      </trkpt>
      <trkpt lat="42.78272" lon="0.16241">
        <ele>1800.8</ele>
        <time>2021-01-29T12:23:17Z</time>
      </trkpt>
      <trkpt lat="42.78272" lon="0.16241">
        <ele>1801</ele>
        <time>2021-01-29T12:23:18Z</time>
      </trkpt>
      <trkpt lat="42.78272" lon="0.1624">
        <ele>1801.2</ele>
        <time>2021-01-29T12:23:19Z</time>
      </trkpt>
      <trkpt lat="42.78272" lon="0.1624">
        <ele>1801.2</ele>
        <time>2021-01-29T12:23:20Z</time>
      </trkpt>
      <trkpt lat="42.78272" lon="0.16238">
        <ele>1801.4</ele>
        <time>2021-01-29T12:23:21Z</time>
      </trkpt>
      <trkpt lat="42.78271" lon="0.16237">
        <ele>1801.6</ele>
        <time>2021-01-29T12:23:22Z</time>
      </trkpt>
      <trkpt lat="42.78271" lon="0.16236">
        <ele>1801.6</ele>
        <time>2021-01-29T12:23:23Z</time>
      </trkpt>
      <trkpt lat="42.78271" lon="0.16235">
        <ele>1801.8</ele>
        <time>2021-01-29T12:23:24Z</time>
      </trkpt>
      <trkpt lat="42.78271" lon="0.16234">
        <ele>1802</ele>
        <time>2021-01-29T12:23:25Z</time>
      </trkpt>
      <trkpt lat="42.7827" lon="0.16233">
        <ele>1802</ele>
        <time>2021-01-29T12:23:26Z</time>
      </trkpt>
      <trkpt lat="42.7827" lon="0.16232">
        <ele>1802.2</ele>
        <time>2021-01-29T12:23:27Z</time>
      </trkpt>
      <trkpt lat="42.7827" lon="0.16231">
        <ele>1802.4</ele>
        <time>2021-01-29T12:23:28Z</time>
      </trkpt>
      <trkpt lat="42.7827" lon="0.1623">
        <ele>1802.4</ele>
        <time>2021-01-29T12:23:29Z</time>
      </trkpt>
      <trkpt lat="42.7827" lon="0.16229">
        <ele>1802.6</ele>
        <time>2021-01-29T12:23:30Z</time>
      </trkpt>
      <trkpt lat="42.7827" lon="0.16228">
        <ele>1802.8</ele>
        <time>2021-01-29T12:23:31Z</time>
      </trkpt>
      <trkpt lat="42.7827" lon="0.16227">
        <ele>1802.8</ele>
        <time>2021-01-29T12:23:32Z</time>
      </trkpt>
      <trkpt lat="42.7827" lon="0.16226">
        <ele>1803</ele>
        <time>2021-01-29T12:23:33Z</time>
      </trkpt>
      <trkpt lat="42.78269" lon="0.16225">
        <ele>1803.2</ele>
        <time>2021-01-29T12:23:34Z</time>
      </trkpt>
      <trkpt lat="42.78269" lon="0.16224">
        <ele>1803.4</ele>
        <time>2021-01-29T12:23:35Z</time>
      </trkpt>
      <trkpt lat="42.78269" lon="0.16223">
        <ele>1803.6</ele>
        <time>2021-01-29T12:23:36Z</time>
      </trkpt>
      <trkpt lat="42.78269" lon="0.16222">
        <ele>1803.8</ele>
        <time>2021-01-29T12:23:37Z</time>
      </trkpt>
      <trkpt lat="42.78269" lon="0.16221">
        <ele>1803.6</ele>
        <time>2021-01-29T12:23:38Z</time>
      </trkpt>
      <trkpt lat="42.78268" lon="0.1622">
        <ele>1804</ele>
        <time>2021-01-29T12:23:39Z</time>
      </trkpt>
      <trkpt lat="42.78268" lon="0.16219">
        <ele>1804.2</ele>
        <time>2021-01-29T12:23:40Z</time>
      </trkpt>
      <trkpt lat="42.78268" lon="0.16218">
        <ele>1804.2</ele>
        <time>2021-01-29T12:23:41Z</time>
      </trkpt>
      <trkpt lat="42.78268" lon="0.16217">
        <ele>1804.4</ele>
        <time>2021-01-29T12:23:42Z</time>
      </trkpt>
      <trkpt lat="42.78268" lon="0.16216">
        <ele>1804.6</ele>
        <time>2021-01-29T12:23:43Z</time>
      </trkpt>
      <trkpt lat="42.78267" lon="0.16215">
        <ele>1804.6</ele>
        <time>2021-01-29T12:23:44Z</time>
      </trkpt>
      <trkpt lat="42.78267" lon="0.16214">
        <ele>1804.8</ele>
        <time>2021-01-29T12:23:45Z</time>
      </trkpt>
      <trkpt lat="42.78267" lon="0.16213">
        <ele>1805</ele>
        <time>2021-01-29T12:23:46Z</time>
      </trkpt>
      <trkpt lat="42.78267" lon="0.16212">
        <ele>1805.2</ele>
        <time>2021-01-29T12:23:47Z</time>
      </trkpt>
      <trkpt lat="42.78267" lon="0.16211">
        <ele>1805.2</ele>
        <time>2021-01-29T12:23:48Z</time>
      </trkpt>
      <trkpt lat="42.78267" lon="0.1621">
        <ele>1805.6</ele>
        <time>2021-01-29T12:23:49Z</time>
      </trkpt>
      <trkpt lat="42.78267" lon="0.16209">
        <ele>1805.6</ele>
        <time>2021-01-29T12:23:50Z</time>
      </trkpt>
      <trkpt lat="42.78267" lon="0.16208">
        <ele>1805.8</ele>
        <time>2021-01-29T12:23:51Z</time>
      </trkpt>
      <trkpt lat="42.78266" lon="0.16207">
        <ele>1806.2</ele>
        <time>2021-01-29T12:23:52Z</time>
      </trkpt>
      <trkpt lat="42.78266" lon="0.16206">
        <ele>1806.2</ele>
        <time>2021-01-29T12:23:53Z</time>
      </trkpt>
      <trkpt lat="42.78266" lon="0.16206">
        <ele>1806.4</ele>
        <time>2021-01-29T12:23:54Z</time>
      </trkpt>
      <trkpt lat="42.78266" lon="0.16204">
        <ele>1806.6</ele>
        <time>2021-01-29T12:23:55Z</time>
      </trkpt>
      <trkpt lat="42.78266" lon="0.16204">
        <ele>1806.8</ele>
        <time>2021-01-29T12:23:56Z</time>
      </trkpt>
      <trkpt lat="42.78265" lon="0.16202">
        <ele>1806.8</ele>
        <time>2021-01-29T12:23:57Z</time>
      </trkpt>
      <trkpt lat="42.78265" lon="0.16201">
        <ele>1807.2</ele>
        <time>2021-01-29T12:23:58Z</time>
      </trkpt>
      <trkpt lat="42.78265" lon="0.16201">
        <ele>1807.2</ele>
        <time>2021-01-29T12:23:59Z</time>
      </trkpt>
      <trkpt lat="42.78265" lon="0.16199">
        <ele>1807.4</ele>
        <time>2021-01-29T12:24:00Z</time>
      </trkpt>
      <trkpt lat="42.78265" lon="0.16199">
        <ele>1807.6</ele>
        <time>2021-01-29T12:24:01Z</time>
      </trkpt>
      <trkpt lat="42.78264" lon="0.16198">
        <ele>1807.8</ele>
        <time>2021-01-29T12:24:02Z</time>
      </trkpt>
      <trkpt lat="42.78264" lon="0.16197">
        <ele>1807.8</ele>
        <time>2021-01-29T12:24:03Z</time>
      </trkpt>
      <trkpt lat="42.78264" lon="0.16196">
        <ele>1808.2</ele>
        <time>2021-01-29T12:24:04Z</time>
      </trkpt>
      <trkpt lat="42.78264" lon="0.16195">
        <ele>1808.4</ele>
        <time>2021-01-29T12:24:05Z</time>
      </trkpt>
      <trkpt lat="42.78264" lon="0.16194">
        <ele>1808.4</ele>
        <time>2021-01-29T12:24:06Z</time>
      </trkpt>
      <trkpt lat="42.78264" lon="0.16193">
        <ele>1808.8</ele>
        <time>2021-01-29T12:24:07Z</time>
      </trkpt>
      <trkpt lat="42.78264" lon="0.16192">
        <ele>1809</ele>
        <time>2021-01-29T12:24:08Z</time>
      </trkpt>
      <trkpt lat="42.78264" lon="0.16191">
        <ele>1809.2</ele>
        <time>2021-01-29T12:24:09Z</time>
      </trkpt>
      <trkpt lat="42.78264" lon="0.1619">
        <ele>1809.4</ele>
        <time>2021-01-29T12:24:10Z</time>
      </trkpt>
      <trkpt lat="42.78264" lon="0.16189">
        <ele>1809.6</ele>
        <time>2021-01-29T12:24:11Z</time>
      </trkpt>
      <trkpt lat="42.78263" lon="0.16189">
        <ele>1809.8</ele>
        <time>2021-01-29T12:24:12Z</time>
      </trkpt>
      <trkpt lat="42.78263" lon="0.16188">
        <ele>1810</ele>
        <time>2021-01-29T12:24:13Z</time>
      </trkpt>
      <trkpt lat="42.78263" lon="0.16187">
        <ele>1810.4</ele>
        <time>2021-01-29T12:24:14Z</time>
      </trkpt>
      <trkpt lat="42.78263" lon="0.16186">
        <ele>1810.4</ele>
        <time>2021-01-29T12:24:15Z</time>
      </trkpt>
      <trkpt lat="42.78263" lon="0.16185">
        <ele>1810.6</ele>
        <time>2021-01-29T12:24:16Z</time>
      </trkpt>
      <trkpt lat="42.78263" lon="0.16184">
        <ele>1811</ele>
        <time>2021-01-29T12:24:17Z</time>
      </trkpt>
      <trkpt lat="42.78262" lon="0.16183">
        <ele>1811</ele>
        <time>2021-01-29T12:24:18Z</time>
      </trkpt>
      <trkpt lat="42.78262" lon="0.16182">
        <ele>1811.2</ele>
        <time>2021-01-29T12:24:19Z</time>
      </trkpt>
      <trkpt lat="42.78262" lon="0.16181">
        <ele>1811.6</ele>
        <time>2021-01-29T12:24:20Z</time>
      </trkpt>
      <trkpt lat="42.78262" lon="0.1618">
        <ele>1811.6</ele>
        <time>2021-01-29T12:24:21Z</time>
      </trkpt>
      <trkpt lat="42.78262" lon="0.16179">
        <ele>1811.8</ele>
        <time>2021-01-29T12:24:22Z</time>
      </trkpt>
      <trkpt lat="42.78262" lon="0.16179">
        <ele>1812.2</ele>
        <time>2021-01-29T12:24:23Z</time>
      </trkpt>
      <trkpt lat="42.78262" lon="0.16178">
        <ele>1812.2</ele>
        <time>2021-01-29T12:24:24Z</time>
      </trkpt>
      <trkpt lat="42.78262" lon="0.16177">
        <ele>1812.4</ele>
        <time>2021-01-29T12:24:25Z</time>
      </trkpt>
      <trkpt lat="42.78262" lon="0.16176">
        <ele>1812.8</ele>
        <time>2021-01-29T12:24:26Z</time>
      </trkpt>
      <trkpt lat="42.78261" lon="0.16175">
        <ele>1812.8</ele>
        <time>2021-01-29T12:24:27Z</time>
      </trkpt>
      <trkpt lat="42.78261" lon="0.16174">
        <ele>1812.8</ele>
        <time>2021-01-29T12:24:28Z</time>
      </trkpt>
      <trkpt lat="42.78261" lon="0.16173">
        <ele>1813.2</ele>
        <time>2021-01-29T12:24:29Z</time>
      </trkpt>
      <trkpt lat="42.78261" lon="0.16172">
        <ele>1813.4</ele>
        <time>2021-01-29T12:24:30Z</time>
      </trkpt>
      <trkpt lat="42.78261" lon="0.16172">
        <ele>1813.6</ele>
        <time>2021-01-29T12:24:31Z</time>
      </trkpt>
      <trkpt lat="42.78261" lon="0.16171">
        <ele>1814</ele>
        <time>2021-01-29T12:24:32Z</time>
      </trkpt>
      <trkpt lat="42.7826" lon="0.1617">
        <ele>1814.2</ele>
        <time>2021-01-29T12:24:33Z</time>
      </trkpt>
      <trkpt lat="42.7826" lon="0.16169">
        <ele>1814.4</ele>
        <time>2021-01-29T12:24:34Z</time>
      </trkpt>
      <trkpt lat="42.7826" lon="0.16168">
        <ele>1814.6</ele>
        <time>2021-01-29T12:24:35Z</time>
      </trkpt>
      <trkpt lat="42.7826" lon="0.16167">
        <ele>1814.8</ele>
        <time>2021-01-29T12:24:36Z</time>
      </trkpt>
      <trkpt lat="42.7826" lon="0.16166">
        <ele>1815</ele>
        <time>2021-01-29T12:24:37Z</time>
      </trkpt>
      <trkpt lat="42.78259" lon="0.16165">
        <ele>1815.4</ele>
        <time>2021-01-29T12:24:38Z</time>
      </trkpt>
      <trkpt lat="42.78259" lon="0.16164">
        <ele>1815.6</ele>
        <time>2021-01-29T12:24:39Z</time>
      </trkpt>
      <trkpt lat="42.78259" lon="0.16163">
        <ele>1815.8</ele>
        <time>2021-01-29T12:24:40Z</time>
      </trkpt>
      <trkpt lat="42.78259" lon="0.16162">
        <ele>1816</ele>
        <time>2021-01-29T12:24:41Z</time>
      </trkpt>
      <trkpt lat="42.78259" lon="0.16161">
        <ele>1816.4</ele>
        <time>2021-01-29T12:24:42Z</time>
      </trkpt>
      <trkpt lat="42.78259" lon="0.16161">
        <ele>1816.6</ele>
        <time>2021-01-29T12:24:43Z</time>
      </trkpt>
      <trkpt lat="42.7826" lon="0.1616">
        <ele>1816.8</ele>
        <time>2021-01-29T12:24:44Z</time>
      </trkpt>
      <trkpt lat="42.7826" lon="0.16159">
        <ele>1817</ele>
        <time>2021-01-29T12:24:45Z</time>
      </trkpt>
      <trkpt lat="42.78259" lon="0.16158">
        <ele>1817.2</ele>
        <time>2021-01-29T12:24:46Z</time>
      </trkpt>
      <trkpt lat="42.78259" lon="0.16157">
        <ele>1817.2</ele>
        <time>2021-01-29T12:24:47Z</time>
      </trkpt>
      <trkpt lat="42.7826" lon="0.16156">
        <ele>1817.6</ele>
        <time>2021-01-29T12:24:48Z</time>
      </trkpt>
      <trkpt lat="42.7826" lon="0.16155">
        <ele>1817.8</ele>
        <time>2021-01-29T12:24:49Z</time>
      </trkpt>
      <trkpt lat="42.7826" lon="0.16154">
        <ele>1817.8</ele>
        <time>2021-01-29T12:24:50Z</time>
      </trkpt>
      <trkpt lat="42.7826" lon="0.16153">
        <ele>1818.2</ele>
        <time>2021-01-29T12:24:51Z</time>
      </trkpt>
      <trkpt lat="42.7826" lon="0.16152">
        <ele>1818.4</ele>
        <time>2021-01-29T12:24:52Z</time>
      </trkpt>
      <trkpt lat="42.7826" lon="0.16152">
        <ele>1818.6</ele>
        <time>2021-01-29T12:24:53Z</time>
      </trkpt>
      <trkpt lat="42.78259" lon="0.16151">
        <ele>1818.8</ele>
        <time>2021-01-29T12:24:54Z</time>
      </trkpt>
      <trkpt lat="42.78259" lon="0.1615">
        <ele>1819.2</ele>
        <time>2021-01-29T12:24:55Z</time>
      </trkpt>
      <trkpt lat="42.78259" lon="0.16149">
        <ele>1819.2</ele>
        <time>2021-01-29T12:24:56Z</time>
      </trkpt>
      <trkpt lat="42.78259" lon="0.16148">
        <ele>1819.6</ele>
        <time>2021-01-29T12:24:57Z</time>
      </trkpt>
      <trkpt lat="42.78258" lon="0.16147">
        <ele>1819.8</ele>
        <time>2021-01-29T12:24:58Z</time>
      </trkpt>
      <trkpt lat="42.78258" lon="0.16146">
        <ele>1820</ele>
        <time>2021-01-29T12:24:59Z</time>
      </trkpt>
      <trkpt lat="42.78258" lon="0.16145">
        <ele>1820.2</ele>
        <time>2021-01-29T12:25:00Z</time>
      </trkpt>
      <trkpt lat="42.78258" lon="0.16144">
        <ele>1820.4</ele>
        <time>2021-01-29T12:25:01Z</time>
      </trkpt>
      <trkpt lat="42.78258" lon="0.16143">
        <ele>1820.6</ele>
        <time>2021-01-29T12:25:02Z</time>
      </trkpt>
      <trkpt lat="42.78258" lon="0.16142">
        <ele>1820.8</ele>
        <time>2021-01-29T12:25:03Z</time>
      </trkpt>
      <trkpt lat="42.78258" lon="0.16141">
        <ele>1821.2</ele>
        <time>2021-01-29T12:25:04Z</time>
      </trkpt>
      <trkpt lat="42.78257" lon="0.1614">
        <ele>1821.4</ele>
        <time>2021-01-29T12:25:05Z</time>
      </trkpt>
      <trkpt lat="42.78257" lon="0.16139">
        <ele>1821.4</ele>
        <time>2021-01-29T12:25:06Z</time>
      </trkpt>
      <trkpt lat="42.78257" lon="0.16138">
        <ele>1821.6</ele>
        <time>2021-01-29T12:25:07Z</time>
      </trkpt>
      <trkpt lat="42.78257" lon="0.16137">
        <ele>1822</ele>
        <time>2021-01-29T12:25:08Z</time>
      </trkpt>
      <trkpt lat="42.78257" lon="0.16136">
        <ele>1822</ele>
        <time>2021-01-29T12:25:09Z</time>
      </trkpt>
      <trkpt lat="42.78257" lon="0.16135">
        <ele>1822.2</ele>
        <time>2021-01-29T12:25:10Z</time>
      </trkpt>
      <trkpt lat="42.78257" lon="0.16134">
        <ele>1822.6</ele>
        <time>2021-01-29T12:25:11Z</time>
      </trkpt>
      <trkpt lat="42.78256" lon="0.16133">
        <ele>1822.6</ele>
        <time>2021-01-29T12:25:12Z</time>
      </trkpt>
      <trkpt lat="42.78256" lon="0.16132">
        <ele>1822.8</ele>
        <time>2021-01-29T12:25:13Z</time>
      </trkpt>
      <trkpt lat="42.78256" lon="0.16131">
        <ele>1823</ele>
        <time>2021-01-29T12:25:14Z</time>
      </trkpt>
      <trkpt lat="42.78256" lon="0.1613">
        <ele>1823.2</ele>
        <time>2021-01-29T12:25:15Z</time>
      </trkpt>
      <trkpt lat="42.78256" lon="0.16129">
        <ele>1823.2</ele>
        <time>2021-01-29T12:25:16Z</time>
      </trkpt>
      <trkpt lat="42.78256" lon="0.16128">
        <ele>1823.6</ele>
        <time>2021-01-29T12:25:17Z</time>
      </trkpt>
      <trkpt lat="42.78256" lon="0.16127">
        <ele>1823.6</ele>
        <time>2021-01-29T12:25:18Z</time>
      </trkpt>
      <trkpt lat="42.78256" lon="0.16126">
        <ele>1823.8</ele>
        <time>2021-01-29T12:25:19Z</time>
      </trkpt>
      <trkpt lat="42.78256" lon="0.16125">
        <ele>1824</ele>
        <time>2021-01-29T12:25:20Z</time>
      </trkpt>
      <trkpt lat="42.78256" lon="0.16124">
        <ele>1824.2</ele>
        <time>2021-01-29T12:25:21Z</time>
      </trkpt>
      <trkpt lat="42.78256" lon="0.16123">
        <ele>1824.2</ele>
        <time>2021-01-29T12:25:22Z</time>
      </trkpt>
      <trkpt lat="42.78256" lon="0.16122">
        <ele>1824.4</ele>
        <time>2021-01-29T12:25:23Z</time>
      </trkpt>
      <trkpt lat="42.78256" lon="0.16121">
        <ele>1824.8</ele>
        <time>2021-01-29T12:25:24Z</time>
      </trkpt>
      <trkpt lat="42.78256" lon="0.1612">
        <ele>1824.8</ele>
        <time>2021-01-29T12:25:25Z</time>
      </trkpt>
      <trkpt lat="42.78256" lon="0.16119">
        <ele>1825</ele>
        <time>2021-01-29T12:25:26Z</time>
      </trkpt>
      <trkpt lat="42.78256" lon="0.16118">
        <ele>1825.2</ele>
        <time>2021-01-29T12:25:27Z</time>
      </trkpt>
      <trkpt lat="42.78256" lon="0.16117">
        <ele>1825.4</ele>
        <time>2021-01-29T12:25:28Z</time>
      </trkpt>
      <trkpt lat="42.78256" lon="0.16116">
        <ele>1825.4</ele>
        <time>2021-01-29T12:25:29Z</time>
      </trkpt>
      <trkpt lat="42.78256" lon="0.16115">
        <ele>1825.8</ele>
        <time>2021-01-29T12:25:30Z</time>
      </trkpt>
      <trkpt lat="42.78256" lon="0.16114">
        <ele>1826</ele>
        <time>2021-01-29T12:25:31Z</time>
      </trkpt>
      <trkpt lat="42.78256" lon="0.16113">
        <ele>1826</ele>
        <time>2021-01-29T12:25:32Z</time>
      </trkpt>
      <trkpt lat="42.78256" lon="0.16112">
        <ele>1826.2</ele>
        <time>2021-01-29T12:25:33Z</time>
      </trkpt>
      <trkpt lat="42.78256" lon="0.16111">
        <ele>1826.4</ele>
        <time>2021-01-29T12:25:34Z</time>
      </trkpt>
      <trkpt lat="42.78256" lon="0.1611">
        <ele>1826.4</ele>
        <time>2021-01-29T12:25:35Z</time>
      </trkpt>
      <trkpt lat="42.78256" lon="0.1611">
        <ele>1826.6</ele>
        <time>2021-01-29T12:25:36Z</time>
      </trkpt>
      <trkpt lat="42.78256" lon="0.16109">
        <ele>1827</ele>
        <time>2021-01-29T12:25:37Z</time>
      </trkpt>
      <trkpt lat="42.78256" lon="0.16108">
        <ele>1827</ele>
        <time>2021-01-29T12:25:38Z</time>
      </trkpt>
      <trkpt lat="42.78256" lon="0.16107">
        <ele>1827.2</ele>
        <time>2021-01-29T12:25:39Z</time>
      </trkpt>
      <trkpt lat="42.78256" lon="0.16106">
        <ele>1827.4</ele>
        <time>2021-01-29T12:25:40Z</time>
      </trkpt>
      <trkpt lat="42.78256" lon="0.16105">
        <ele>1827.6</ele>
        <time>2021-01-29T12:25:41Z</time>
      </trkpt>
      <trkpt lat="42.78256" lon="0.16104">
        <ele>1827.8</ele>
        <time>2021-01-29T12:25:42Z</time>
      </trkpt>
      <trkpt lat="42.78256" lon="0.16103">
        <ele>1827.8</ele>
        <time>2021-01-29T12:25:43Z</time>
      </trkpt>
      <trkpt lat="42.78256" lon="0.16102">
        <ele>1828</ele>
        <time>2021-01-29T12:25:44Z</time>
      </trkpt>
      <trkpt lat="42.78256" lon="0.16102">
        <ele>1828.2</ele>
        <time>2021-01-29T12:25:45Z</time>
      </trkpt>
      <trkpt lat="42.78256" lon="0.16101">
        <ele>1828.4</ele>
        <time>2021-01-29T12:25:46Z</time>
      </trkpt>
      <trkpt lat="42.78256" lon="0.16101">
        <ele>1828.4</ele>
        <time>2021-01-29T12:25:47Z</time>
      </trkpt>
      <trkpt lat="42.78256" lon="0.16101">
        <ele>1828.6</ele>
        <time>2021-01-29T12:25:48Z</time>
      </trkpt>
      <trkpt lat="42.78256" lon="0.16101">
        <ele>1828.6</ele>
        <time>2021-01-29T12:25:49Z</time>
      </trkpt>
      <trkpt lat="42.78256" lon="0.16101">
        <ele>1828.6</ele>
        <time>2021-01-29T12:25:50Z</time>
      </trkpt>
      <trkpt lat="42.78256" lon="0.16101">
        <ele>1828.6</ele>
        <time>2021-01-29T12:25:51Z</time>
      </trkpt>
      <trkpt lat="42.78256" lon="0.16101">
        <ele>1828.6</ele>
        <time>2021-01-29T12:25:52Z</time>
      </trkpt>
      <trkpt lat="42.78256" lon="0.16101">
        <ele>1828.6</ele>
        <time>2021-01-29T12:25:53Z</time>
      </trkpt>
      <trkpt lat="42.78256" lon="0.16101">
        <ele>1828.6</ele>
        <time>2021-01-29T12:25:54Z</time>
      </trkpt>
      <trkpt lat="42.78256" lon="0.16101">
        <ele>1828.8</ele>
        <time>2021-01-29T12:25:55Z</time>
      </trkpt>
      <trkpt lat="42.78256" lon="0.16101">
        <ele>1828.8</ele>
        <time>2021-01-29T12:25:56Z</time>
      </trkpt>
      <trkpt lat="42.78256" lon="0.16101">
        <ele>1828.8</ele>
        <time>2021-01-29T12:25:57Z</time>
      </trkpt>
      <trkpt lat="42.78256" lon="0.16101">
        <ele>1828.8</ele>
        <time>2021-01-29T12:25:58Z</time>
      </trkpt>
      <trkpt lat="42.78256" lon="0.16101">
        <ele>1828.8</ele>
        <time>2021-01-29T12:25:59Z</time>
      </trkpt>
      <trkpt lat="42.78256" lon="0.16101">
        <ele>1828.8</ele>
        <time>2021-01-29T12:26:00Z</time>
      </trkpt>
      <trkpt lat="42.78256" lon="0.16101">
        <ele>1828.8</ele>
        <time>2021-01-29T12:26:01Z</time>
      </trkpt>
      <trkpt lat="42.78256" lon="0.16101">
        <ele>1828.8</ele>
        <time>2021-01-29T12:26:02Z</time>
      </trkpt>
      <trkpt lat="42.78256" lon="0.16101">
        <ele>1828.8</ele>
        <time>2021-01-29T12:26:03Z</time>
      </trkpt>
      <trkpt lat="42.78256" lon="0.16101">
        <ele>1828.8</ele>
        <time>2021-01-29T12:26:04Z</time>
      </trkpt>
      <trkpt lat="42.78256" lon="0.16101">
        <ele>1828.8</ele>
        <time>2021-01-29T12:26:05Z</time>
      </trkpt>
      <trkpt lat="42.78256" lon="0.16101">
        <ele>1828.6</ele>
        <time>2021-01-29T12:26:06Z</time>
      </trkpt>
      <trkpt lat="42.78256" lon="0.16101">
        <ele>1828.8</ele>
        <time>2021-01-29T12:26:07Z</time>
      </trkpt>
      <trkpt lat="42.78256" lon="0.16101">
        <ele>1828.8</ele>
        <time>2021-01-29T12:26:08Z</time>
      </trkpt>
      <trkpt lat="42.78256" lon="0.16101">
        <ele>1828.6</ele>
        <time>2021-01-29T12:26:09Z</time>
      </trkpt>
      <trkpt lat="42.78256" lon="0.161">
        <ele>1828.8</ele>
        <time>2021-01-29T12:26:10Z</time>
      </trkpt>
      <trkpt lat="42.78256" lon="0.16099">
        <ele>1828.8</ele>
        <time>2021-01-29T12:26:11Z</time>
      </trkpt>
      <trkpt lat="42.78256" lon="0.16098">
        <ele>1829</ele>
        <time>2021-01-29T12:26:12Z</time>
      </trkpt>
      <trkpt lat="42.78256" lon="0.16097">
        <ele>1829</ele>
        <time>2021-01-29T12:26:13Z</time>
      </trkpt>
      <trkpt lat="42.78256" lon="0.16096">
        <ele>1829.4</ele>
        <time>2021-01-29T12:26:14Z</time>
      </trkpt>
      <trkpt lat="42.78256" lon="0.16095">
        <ele>1829.4</ele>
        <time>2021-01-29T12:26:15Z</time>
      </trkpt>
      <trkpt lat="42.78256" lon="0.16094">
        <ele>1829.4</ele>
        <time>2021-01-29T12:26:16Z</time>
      </trkpt>
      <trkpt lat="42.78256" lon="0.16093">
        <ele>1829.8</ele>
        <time>2021-01-29T12:26:17Z</time>
      </trkpt>
      <trkpt lat="42.78256" lon="0.16092">
        <ele>1830</ele>
        <time>2021-01-29T12:26:18Z</time>
      </trkpt>
      <trkpt lat="42.78257" lon="0.16091">
        <ele>1830</ele>
        <time>2021-01-29T12:26:19Z</time>
      </trkpt>
      <trkpt lat="42.78257" lon="0.1609">
        <ele>1830.4</ele>
        <time>2021-01-29T12:26:20Z</time>
      </trkpt>
      <trkpt lat="42.78257" lon="0.16089">
        <ele>1830.6</ele>
        <time>2021-01-29T12:26:21Z</time>
      </trkpt>
      <trkpt lat="42.78258" lon="0.16088">
        <ele>1830.6</ele>
        <time>2021-01-29T12:26:22Z</time>
      </trkpt>
      <trkpt lat="42.78258" lon="0.16087">
        <ele>1830.8</ele>
        <time>2021-01-29T12:26:23Z</time>
      </trkpt>
      <trkpt lat="42.78258" lon="0.16086">
        <ele>1831</ele>
        <time>2021-01-29T12:26:24Z</time>
      </trkpt>
      <trkpt lat="42.78258" lon="0.16085">
        <ele>1831</ele>
        <time>2021-01-29T12:26:25Z</time>
      </trkpt>
      <trkpt lat="42.78259" lon="0.16083">
        <ele>1831.2</ele>
        <time>2021-01-29T12:26:26Z</time>
      </trkpt>
      <trkpt lat="42.78259" lon="0.16082">
        <ele>1831.6</ele>
        <time>2021-01-29T12:26:27Z</time>
      </trkpt>
      <trkpt lat="42.78259" lon="0.16081">
        <ele>1831.8</ele>
        <time>2021-01-29T12:26:28Z</time>
      </trkpt>
      <trkpt lat="42.7826" lon="0.16081">
        <ele>1831.8</ele>
        <time>2021-01-29T12:26:29Z</time>
      </trkpt>
      <trkpt lat="42.7826" lon="0.1608">
        <ele>1832</ele>
        <time>2021-01-29T12:26:30Z</time>
      </trkpt>
      <trkpt lat="42.7826" lon="0.16079">
        <ele>1832.2</ele>
        <time>2021-01-29T12:26:31Z</time>
      </trkpt>
      <trkpt lat="42.7826" lon="0.16078">
        <ele>1832.2</ele>
        <time>2021-01-29T12:26:32Z</time>
      </trkpt>
      <trkpt lat="42.7826" lon="0.16076">
        <ele>1832.6</ele>
        <time>2021-01-29T12:26:33Z</time>
      </trkpt>
      <trkpt lat="42.7826" lon="0.16076">
        <ele>1832.8</ele>
        <time>2021-01-29T12:26:34Z</time>
      </trkpt>
      <trkpt lat="42.7826" lon="0.16075">
        <ele>1833</ele>
        <time>2021-01-29T12:26:35Z</time>
      </trkpt>
      <trkpt lat="42.7826" lon="0.16074">
        <ele>1833</ele>
        <time>2021-01-29T12:26:36Z</time>
      </trkpt>
      <trkpt lat="42.7826" lon="0.16073">
        <ele>1833.4</ele>
        <time>2021-01-29T12:26:37Z</time>
      </trkpt>
      <trkpt lat="42.7826" lon="0.16071">
        <ele>1833.6</ele>
        <time>2021-01-29T12:26:38Z</time>
      </trkpt>
      <trkpt lat="42.78261" lon="0.1607">
        <ele>1833.6</ele>
        <time>2021-01-29T12:26:39Z</time>
      </trkpt>
      <trkpt lat="42.78261" lon="0.16069">
        <ele>1834</ele>
        <time>2021-01-29T12:26:40Z</time>
      </trkpt>
      <trkpt lat="42.78261" lon="0.16068">
        <ele>1834.2</ele>
        <time>2021-01-29T12:26:41Z</time>
      </trkpt>
      <trkpt lat="42.78261" lon="0.16068">
        <ele>1834.2</ele>
        <time>2021-01-29T12:26:42Z</time>
      </trkpt>
      <trkpt lat="42.7826" lon="0.16066">
        <ele>1834.6</ele>
        <time>2021-01-29T12:26:43Z</time>
      </trkpt>
      <trkpt lat="42.7826" lon="0.16065">
        <ele>1834.8</ele>
        <time>2021-01-29T12:26:44Z</time>
      </trkpt>
      <trkpt lat="42.7826" lon="0.16064">
        <ele>1834.8</ele>
        <time>2021-01-29T12:26:45Z</time>
      </trkpt>
      <trkpt lat="42.7826" lon="0.16063">
        <ele>1835</ele>
        <time>2021-01-29T12:26:46Z</time>
      </trkpt>
      <trkpt lat="42.7826" lon="0.16062">
        <ele>1835.2</ele>
        <time>2021-01-29T12:26:47Z</time>
      </trkpt>
      <trkpt lat="42.7826" lon="0.16061">
        <ele>1835.4</ele>
        <time>2021-01-29T12:26:48Z</time>
      </trkpt>
      <trkpt lat="42.7826" lon="0.1606">
        <ele>1835.4</ele>
        <time>2021-01-29T12:26:49Z</time>
      </trkpt>
      <trkpt lat="42.7826" lon="0.16059">
        <ele>1835.8</ele>
        <time>2021-01-29T12:26:50Z</time>
      </trkpt>
      <trkpt lat="42.7826" lon="0.16058">
        <ele>1835.8</ele>
        <time>2021-01-29T12:26:51Z</time>
      </trkpt>
      <trkpt lat="42.78259" lon="0.16057">
        <ele>1835.8</ele>
        <time>2021-01-29T12:26:52Z</time>
      </trkpt>
      <trkpt lat="42.78259" lon="0.16056">
        <ele>1836.2</ele>
        <time>2021-01-29T12:26:53Z</time>
      </trkpt>
      <trkpt lat="42.78259" lon="0.16055">
        <ele>1836.4</ele>
        <time>2021-01-29T12:26:54Z</time>
      </trkpt>
      <trkpt lat="42.78259" lon="0.16054">
        <ele>1836.4</ele>
        <time>2021-01-29T12:26:55Z</time>
      </trkpt>
      <trkpt lat="42.78259" lon="0.16053">
        <ele>1836.6</ele>
        <time>2021-01-29T12:26:56Z</time>
      </trkpt>
      <trkpt lat="42.78259" lon="0.16052">
        <ele>1836.8</ele>
        <time>2021-01-29T12:26:57Z</time>
      </trkpt>
      <trkpt lat="42.78258" lon="0.1605">
        <ele>1836.8</ele>
        <time>2021-01-29T12:26:58Z</time>
      </trkpt>
      <trkpt lat="42.78258" lon="0.16049">
        <ele>1837</ele>
        <time>2021-01-29T12:26:59Z</time>
      </trkpt>
      <trkpt lat="42.78258" lon="0.16048">
        <ele>1837.2</ele>
        <time>2021-01-29T12:27:00Z</time>
      </trkpt>
      <trkpt lat="42.78257" lon="0.16047">
        <ele>1837.4</ele>
        <time>2021-01-29T12:27:01Z</time>
      </trkpt>
      <trkpt lat="42.78257" lon="0.16046">
        <ele>1837.4</ele>
        <time>2021-01-29T12:27:02Z</time>
      </trkpt>
      <trkpt lat="42.78257" lon="0.16045">
        <ele>1837.6</ele>
        <time>2021-01-29T12:27:03Z</time>
      </trkpt>
      <trkpt lat="42.78257" lon="0.16044">
        <ele>1837.8</ele>
        <time>2021-01-29T12:27:04Z</time>
      </trkpt>
      <trkpt lat="42.78257" lon="0.16043">
        <ele>1837.8</ele>
        <time>2021-01-29T12:27:05Z</time>
      </trkpt>
      <trkpt lat="42.78256" lon="0.16042">
        <ele>1838</ele>
        <time>2021-01-29T12:27:06Z</time>
      </trkpt>
      <trkpt lat="42.78256" lon="0.1604">
        <ele>1838.2</ele>
        <time>2021-01-29T12:27:07Z</time>
      </trkpt>
      <trkpt lat="42.78256" lon="0.16039">
        <ele>1838.4</ele>
        <time>2021-01-29T12:27:08Z</time>
      </trkpt>
      <trkpt lat="42.78256" lon="0.16038">
        <ele>1838.6</ele>
        <time>2021-01-29T12:27:09Z</time>
      </trkpt>
      <trkpt lat="42.78256" lon="0.16037">
        <ele>1838.8</ele>
        <time>2021-01-29T12:27:10Z</time>
      </trkpt>
      <trkpt lat="42.78256" lon="0.16036">
        <ele>1839</ele>
        <time>2021-01-29T12:27:11Z</time>
      </trkpt>
      <trkpt lat="42.78256" lon="0.16035">
        <ele>1839</ele>
        <time>2021-01-29T12:27:12Z</time>
      </trkpt>
      <trkpt lat="42.78256" lon="0.16034">
        <ele>1839.2</ele>
        <time>2021-01-29T12:27:13Z</time>
      </trkpt>
      <trkpt lat="42.78256" lon="0.16033">
        <ele>1839.6</ele>
        <time>2021-01-29T12:27:14Z</time>
      </trkpt>
      <trkpt lat="42.78256" lon="0.16032">
        <ele>1839.6</ele>
        <time>2021-01-29T12:27:15Z</time>
      </trkpt>
      <trkpt lat="42.78256" lon="0.16031">
        <ele>1839.8</ele>
        <time>2021-01-29T12:27:16Z</time>
      </trkpt>
      <trkpt lat="42.78256" lon="0.1603">
        <ele>1840.2</ele>
        <time>2021-01-29T12:27:17Z</time>
      </trkpt>
      <trkpt lat="42.78256" lon="0.16029">
        <ele>1840.2</ele>
        <time>2021-01-29T12:27:18Z</time>
      </trkpt>
      <trkpt lat="42.78256" lon="0.16028">
        <ele>1840.4</ele>
        <time>2021-01-29T12:27:19Z</time>
      </trkpt>
      <trkpt lat="42.78256" lon="0.16027">
        <ele>1840.6</ele>
        <time>2021-01-29T12:27:20Z</time>
      </trkpt>
      <trkpt lat="42.78255" lon="0.16026">
        <ele>1840.8</ele>
        <time>2021-01-29T12:27:21Z</time>
      </trkpt>
      <trkpt lat="42.78255" lon="0.16025">
        <ele>1841</ele>
        <time>2021-01-29T12:27:22Z</time>
      </trkpt>
      <trkpt lat="42.78255" lon="0.16024">
        <ele>1841.2</ele>
        <time>2021-01-29T12:27:23Z</time>
      </trkpt>
      <trkpt lat="42.78255" lon="0.16023">
        <ele>1841.4</ele>
        <time>2021-01-29T12:27:24Z</time>
      </trkpt>
      <trkpt lat="42.78255" lon="0.16022">
        <ele>1841.4</ele>
        <time>2021-01-29T12:27:25Z</time>
      </trkpt>
      <trkpt lat="42.78255" lon="0.16021">
        <ele>1841.8</ele>
        <time>2021-01-29T12:27:26Z</time>
      </trkpt>
      <trkpt lat="42.78255" lon="0.1602">
        <ele>1842</ele>
        <time>2021-01-29T12:27:27Z</time>
      </trkpt>
      <trkpt lat="42.78255" lon="0.16019">
        <ele>1841.8</ele>
        <time>2021-01-29T12:27:28Z</time>
      </trkpt>
      <trkpt lat="42.78255" lon="0.16018">
        <ele>1842.2</ele>
        <time>2021-01-29T12:27:29Z</time>
      </trkpt>
      <trkpt lat="42.78255" lon="0.16017">
        <ele>1842.4</ele>
        <time>2021-01-29T12:27:30Z</time>
      </trkpt>
      <trkpt lat="42.78255" lon="0.16016">
        <ele>1842.4</ele>
        <time>2021-01-29T12:27:31Z</time>
      </trkpt>
      <trkpt lat="42.78255" lon="0.16015">
        <ele>1842.8</ele>
        <time>2021-01-29T12:27:32Z</time>
      </trkpt>
      <trkpt lat="42.78254" lon="0.16014">
        <ele>1843</ele>
        <time>2021-01-29T12:27:33Z</time>
      </trkpt>
      <trkpt lat="42.78254" lon="0.16014">
        <ele>1843</ele>
        <time>2021-01-29T12:27:34Z</time>
      </trkpt>
      <trkpt lat="42.78254" lon="0.16013">
        <ele>1843.2</ele>
        <time>2021-01-29T12:27:35Z</time>
      </trkpt>
      <trkpt lat="42.78254" lon="0.16012">
        <ele>1843.6</ele>
        <time>2021-01-29T12:27:36Z</time>
      </trkpt>
      <trkpt lat="42.78254" lon="0.16011">
        <ele>1843.6</ele>
        <time>2021-01-29T12:27:37Z</time>
      </trkpt>
      <trkpt lat="42.78254" lon="0.1601">
        <ele>1843.8</ele>
        <time>2021-01-29T12:27:38Z</time>
      </trkpt>
      <trkpt lat="42.78253" lon="0.16009">
        <ele>1844.2</ele>
        <time>2021-01-29T12:27:39Z</time>
      </trkpt>
      <trkpt lat="42.78253" lon="0.16008">
        <ele>1844.2</ele>
        <time>2021-01-29T12:27:40Z</time>
      </trkpt>
      <trkpt lat="42.78253" lon="0.16007">
        <ele>1844.6</ele>
        <time>2021-01-29T12:27:41Z</time>
      </trkpt>
      <trkpt lat="42.78253" lon="0.16006">
        <ele>1844.8</ele>
        <time>2021-01-29T12:27:42Z</time>
      </trkpt>
      <trkpt lat="42.78253" lon="0.16005">
        <ele>1844.8</ele>
        <time>2021-01-29T12:27:43Z</time>
      </trkpt>
      <trkpt lat="42.78253" lon="0.16004">
        <ele>1845</ele>
        <time>2021-01-29T12:27:44Z</time>
      </trkpt>
      <trkpt lat="42.78253" lon="0.16003">
        <ele>1845.2</ele>
        <time>2021-01-29T12:27:45Z</time>
      </trkpt>
      <trkpt lat="42.78253" lon="0.16002">
        <ele>1845.4</ele>
        <time>2021-01-29T12:27:46Z</time>
      </trkpt>
      <trkpt lat="42.78253" lon="0.16002">
        <ele>1845.6</ele>
        <time>2021-01-29T12:27:47Z</time>
      </trkpt>
      <trkpt lat="42.78253" lon="0.16001">
        <ele>1846</ele>
        <time>2021-01-29T12:27:48Z</time>
      </trkpt>
      <trkpt lat="42.78252" lon="0.16">
        <ele>1846</ele>
        <time>2021-01-29T12:27:49Z</time>
      </trkpt>
      <trkpt lat="42.78252" lon="0.15999">
        <ele>1846.4</ele>
        <time>2021-01-29T12:27:50Z</time>
      </trkpt>
      <trkpt lat="42.78252" lon="0.15998">
        <ele>1846.4</ele>
        <time>2021-01-29T12:27:51Z</time>
      </trkpt>
      <trkpt lat="42.78252" lon="0.15997">
        <ele>1846.2</ele>
        <time>2021-01-29T12:27:52Z</time>
      </trkpt>
      <trkpt lat="42.78252" lon="0.15996">
        <ele>1846.6</ele>
        <time>2021-01-29T12:27:53Z</time>
      </trkpt>
      <trkpt lat="42.78252" lon="0.15995">
        <ele>1846.8</ele>
        <time>2021-01-29T12:27:54Z</time>
      </trkpt>
      <trkpt lat="42.78252" lon="0.15994">
        <ele>1847</ele>
        <time>2021-01-29T12:27:55Z</time>
      </trkpt>
      <trkpt lat="42.78252" lon="0.15993">
        <ele>1847.4</ele>
        <time>2021-01-29T12:27:56Z</time>
      </trkpt>
      <trkpt lat="42.78252" lon="0.15992">
        <ele>1847.4</ele>
        <time>2021-01-29T12:27:57Z</time>
      </trkpt>
      <trkpt lat="42.78252" lon="0.15991">
        <ele>1847.6</ele>
        <time>2021-01-29T12:27:58Z</time>
      </trkpt>
      <trkpt lat="42.78252" lon="0.1599">
        <ele>1848</ele>
        <time>2021-01-29T12:27:59Z</time>
      </trkpt>
      <trkpt lat="42.78252" lon="0.15989">
        <ele>1848</ele>
        <time>2021-01-29T12:28:00Z</time>
      </trkpt>
      <trkpt lat="42.78252" lon="0.15989">
        <ele>1848</ele>
        <time>2021-01-29T12:28:01Z</time>
      </trkpt>
      <trkpt lat="42.78252" lon="0.15988">
        <ele>1848.4</ele>
        <time>2021-01-29T12:28:02Z</time>
      </trkpt>
      <trkpt lat="42.78252" lon="0.15987">
        <ele>1848.4</ele>
        <time>2021-01-29T12:28:03Z</time>
      </trkpt>
      <trkpt lat="42.78252" lon="0.15987">
        <ele>1848.6</ele>
        <time>2021-01-29T12:28:04Z</time>
      </trkpt>
      <trkpt lat="42.78252" lon="0.15987">
        <ele>1848.6</ele>
        <time>2021-01-29T12:28:05Z</time>
      </trkpt>
      <trkpt lat="42.78251" lon="0.15987">
        <ele>1848.6</ele>
        <time>2021-01-29T12:28:06Z</time>
      </trkpt>
      <trkpt lat="42.78251" lon="0.15987">
        <ele>1848.6</ele>
        <time>2021-01-29T12:28:07Z</time>
      </trkpt>
      <trkpt lat="42.78251" lon="0.15987">
        <ele>1848.6</ele>
        <time>2021-01-29T12:28:08Z</time>
      </trkpt>
      <trkpt lat="42.78251" lon="0.15987">
        <ele>1848.4</ele>
        <time>2021-01-29T12:28:09Z</time>
      </trkpt>
      <trkpt lat="42.78251" lon="0.15987">
        <ele>1848.6</ele>
        <time>2021-01-29T12:28:10Z</time>
      </trkpt>
      <trkpt lat="42.78251" lon="0.15987">
        <ele>1849</ele>
        <time>2021-01-29T12:28:11Z</time>
      </trkpt>
      <trkpt lat="42.78251" lon="0.15987">
        <ele>1849</ele>
        <time>2021-01-29T12:28:12Z</time>
      </trkpt>
      <trkpt lat="42.78251" lon="0.15987">
        <ele>1849.2</ele>
        <time>2021-01-29T12:28:13Z</time>
      </trkpt>
      <trkpt lat="42.7825" lon="0.15988">
        <ele>1849.4</ele>
        <time>2021-01-29T12:28:14Z</time>
      </trkpt>
      <trkpt lat="42.78248" lon="0.1599">
        <ele>1849.2</ele>
        <time>2021-01-29T12:28:15Z</time>
      </trkpt>
      <trkpt lat="42.78248" lon="0.15991">
        <ele>1849.6</ele>
        <time>2021-01-29T12:28:16Z</time>
      </trkpt>
      <trkpt lat="42.78247" lon="0.15991">
        <ele>1849.6</ele>
        <time>2021-01-29T12:28:17Z</time>
      </trkpt>
      <trkpt lat="42.78246" lon="0.15992">
        <ele>1849.8</ele>
        <time>2021-01-29T12:28:18Z</time>
      </trkpt>
      <trkpt lat="42.78246" lon="0.15993">
        <ele>1850.2</ele>
        <time>2021-01-29T12:28:19Z</time>
      </trkpt>
      <trkpt lat="42.78245" lon="0.15993">
        <ele>1850.2</ele>
        <time>2021-01-29T12:28:20Z</time>
      </trkpt>
      <trkpt lat="42.78245" lon="0.15994">
        <ele>1850.4</ele>
        <time>2021-01-29T12:28:21Z</time>
      </trkpt>
      <trkpt lat="42.78245" lon="0.15995">
        <ele>1850.4</ele>
        <time>2021-01-29T12:28:22Z</time>
      </trkpt>
      <trkpt lat="42.78244" lon="0.15996">
        <ele>1850.4</ele>
        <time>2021-01-29T12:28:23Z</time>
      </trkpt>
      <trkpt lat="42.78244" lon="0.15996">
        <ele>1850.4</ele>
        <time>2021-01-29T12:28:24Z</time>
      </trkpt>
      <trkpt lat="42.78243" lon="0.15997">
        <ele>1850.6</ele>
        <time>2021-01-29T12:28:25Z</time>
      </trkpt>
      <trkpt lat="42.78243" lon="0.15998">
        <ele>1850.4</ele>
        <time>2021-01-29T12:28:26Z</time>
      </trkpt>
      <trkpt lat="42.78242" lon="0.15998">
        <ele>1851</ele>
        <time>2021-01-29T12:28:27Z</time>
      </trkpt>
      <trkpt lat="42.78242" lon="0.15999">
        <ele>1850.8</ele>
        <time>2021-01-29T12:28:28Z</time>
      </trkpt>
      <trkpt lat="42.78241" lon="0.15999">
        <ele>1851.4</ele>
        <time>2021-01-29T12:28:29Z</time>
      </trkpt>
      <trkpt lat="42.78241" lon="0.16">
        <ele>1851.2</ele>
        <time>2021-01-29T12:28:30Z</time>
      </trkpt>
      <trkpt lat="42.7824" lon="0.16">
        <ele>1851.6</ele>
        <time>2021-01-29T12:28:31Z</time>
      </trkpt>
      <trkpt lat="42.7824" lon="0.16001">
        <ele>1851.8</ele>
        <time>2021-01-29T12:28:32Z</time>
      </trkpt>
      <trkpt lat="42.7824" lon="0.16001">
        <ele>1851.8</ele>
        <time>2021-01-29T12:28:33Z</time>
      </trkpt>
      <trkpt lat="42.78239" lon="0.16002">
        <ele>1852.2</ele>
        <time>2021-01-29T12:28:34Z</time>
      </trkpt>
      <trkpt lat="42.78238" lon="0.16002">
        <ele>1852.4</ele>
        <time>2021-01-29T12:28:35Z</time>
      </trkpt>
      <trkpt lat="42.78238" lon="0.16002">
        <ele>1852.6</ele>
        <time>2021-01-29T12:28:36Z</time>
      </trkpt>
      <trkpt lat="42.78237" lon="0.16002">
        <ele>1853</ele>
        <time>2021-01-29T12:28:37Z</time>
      </trkpt>
      <trkpt lat="42.78236" lon="0.16002">
        <ele>1853</ele>
        <time>2021-01-29T12:28:38Z</time>
      </trkpt>
      <trkpt lat="42.78236" lon="0.16001">
        <ele>1853.2</ele>
        <time>2021-01-29T12:28:39Z</time>
      </trkpt>
      <trkpt lat="42.78235" lon="0.16001">
        <ele>1853.6</ele>
        <time>2021-01-29T12:28:40Z</time>
      </trkpt>
      <trkpt lat="42.78235" lon="0.16">
        <ele>1853.6</ele>
        <time>2021-01-29T12:28:41Z</time>
      </trkpt>
      <trkpt lat="42.78234" lon="0.16">
        <ele>1853.8</ele>
        <time>2021-01-29T12:28:42Z</time>
      </trkpt>
      <trkpt lat="42.78234" lon="0.15999">
        <ele>1854</ele>
        <time>2021-01-29T12:28:43Z</time>
      </trkpt>
      <trkpt lat="42.78234" lon="0.15998">
        <ele>1854</ele>
        <time>2021-01-29T12:28:44Z</time>
      </trkpt>
      <trkpt lat="42.78234" lon="0.15997">
        <ele>1854.2</ele>
        <time>2021-01-29T12:28:45Z</time>
      </trkpt>
      <trkpt lat="42.78233" lon="0.15996">
        <ele>1854.2</ele>
        <time>2021-01-29T12:28:46Z</time>
      </trkpt>
      <trkpt lat="42.78234" lon="0.15995">
        <ele>1854.2</ele>
        <time>2021-01-29T12:28:47Z</time>
      </trkpt>
      <trkpt lat="42.78234" lon="0.15993">
        <ele>1854.4</ele>
        <time>2021-01-29T12:28:48Z</time>
      </trkpt>
      <trkpt lat="42.78234" lon="0.15992">
        <ele>1854.6</ele>
        <time>2021-01-29T12:28:49Z</time>
      </trkpt>
      <trkpt lat="42.78234" lon="0.1599">
        <ele>1854.6</ele>
        <time>2021-01-29T12:28:50Z</time>
      </trkpt>
      <trkpt lat="42.78235" lon="0.15989">
        <ele>1854.6</ele>
        <time>2021-01-29T12:28:51Z</time>
      </trkpt>
      <trkpt lat="42.78235" lon="0.15988">
        <ele>1854.6</ele>
        <time>2021-01-29T12:28:52Z</time>
      </trkpt>
      <trkpt lat="42.78236" lon="0.15986">
        <ele>1854.8</ele>
        <time>2021-01-29T12:28:53Z</time>
      </trkpt>
      <trkpt lat="42.78237" lon="0.15985">
        <ele>1854.6</ele>
        <time>2021-01-29T12:28:54Z</time>
      </trkpt>
      <trkpt lat="42.78237" lon="0.15984">
        <ele>1854.8</ele>
        <time>2021-01-29T12:28:55Z</time>
      </trkpt>
      <trkpt lat="42.78238" lon="0.15983">
        <ele>1855</ele>
        <time>2021-01-29T12:28:56Z</time>
      </trkpt>
      <trkpt lat="42.78239" lon="0.15982">
        <ele>1855</ele>
        <time>2021-01-29T12:28:57Z</time>
      </trkpt>
      <trkpt lat="42.78239" lon="0.15981">
        <ele>1855.2</ele>
        <time>2021-01-29T12:28:58Z</time>
      </trkpt>
      <trkpt lat="42.78239" lon="0.15979">
        <ele>1855.2</ele>
        <time>2021-01-29T12:28:59Z</time>
      </trkpt>
      <trkpt lat="42.7824" lon="0.15978">
        <ele>1855.2</ele>
        <time>2021-01-29T12:29:00Z</time>
      </trkpt>
      <trkpt lat="42.7824" lon="0.15976">
        <ele>1855.2</ele>
        <time>2021-01-29T12:29:01Z</time>
      </trkpt>
      <trkpt lat="42.7824" lon="0.15975">
        <ele>1855.2</ele>
        <time>2021-01-29T12:29:02Z</time>
      </trkpt>
      <trkpt lat="42.7824" lon="0.15973">
        <ele>1855.2</ele>
        <time>2021-01-29T12:29:03Z</time>
      </trkpt>
      <trkpt lat="42.7824" lon="0.15971">
        <ele>1855.2</ele>
        <time>2021-01-29T12:29:04Z</time>
      </trkpt>
      <trkpt lat="42.7824" lon="0.1597">
        <ele>1855</ele>
        <time>2021-01-29T12:29:05Z</time>
      </trkpt>
      <trkpt lat="42.7824" lon="0.15969">
        <ele>1855.2</ele>
        <time>2021-01-29T12:29:06Z</time>
      </trkpt>
      <trkpt lat="42.78239" lon="0.15968">
        <ele>1855.2</ele>
        <time>2021-01-29T12:29:07Z</time>
      </trkpt>
      <trkpt lat="42.78239" lon="0.15967">
        <ele>1855.2</ele>
        <time>2021-01-29T12:29:08Z</time>
      </trkpt>
      <trkpt lat="42.78238" lon="0.15966">
        <ele>1855.4</ele>
        <time>2021-01-29T12:29:09Z</time>
      </trkpt>
      <trkpt lat="42.78238" lon="0.15965">
        <ele>1855.4</ele>
        <time>2021-01-29T12:29:10Z</time>
      </trkpt>
      <trkpt lat="42.78237" lon="0.15964">
        <ele>1855.4</ele>
        <time>2021-01-29T12:29:11Z</time>
      </trkpt>
      <trkpt lat="42.78237" lon="0.15963">
        <ele>1855.4</ele>
        <time>2021-01-29T12:29:12Z</time>
      </trkpt>
      <trkpt lat="42.78236" lon="0.15961">
        <ele>1855.6</ele>
        <time>2021-01-29T12:29:13Z</time>
      </trkpt>
      <trkpt lat="42.78236" lon="0.1596">
        <ele>1855.4</ele>
        <time>2021-01-29T12:29:14Z</time>
      </trkpt>
      <trkpt lat="42.78235" lon="0.15959">
        <ele>1855.4</ele>
        <time>2021-01-29T12:29:15Z</time>
      </trkpt>
      <trkpt lat="42.78235" lon="0.15957">
        <ele>1855.6</ele>
        <time>2021-01-29T12:29:16Z</time>
      </trkpt>
      <trkpt lat="42.78235" lon="0.15955">
        <ele>1855.6</ele>
        <time>2021-01-29T12:29:17Z</time>
      </trkpt>
      <trkpt lat="42.78234" lon="0.15954">
        <ele>1855.4</ele>
        <time>2021-01-29T12:29:18Z</time>
      </trkpt>
      <trkpt lat="42.78234" lon="0.15952">
        <ele>1855.6</ele>
        <time>2021-01-29T12:29:19Z</time>
      </trkpt>
      <trkpt lat="42.78233" lon="0.1595">
        <ele>1855.6</ele>
        <time>2021-01-29T12:29:20Z</time>
      </trkpt>
      <trkpt lat="42.78233" lon="0.15949">
        <ele>1855.6</ele>
        <time>2021-01-29T12:29:21Z</time>
      </trkpt>
      <trkpt lat="42.78233" lon="0.15947">
        <ele>1855.6</ele>
        <time>2021-01-29T12:29:22Z</time>
      </trkpt>
      <trkpt lat="42.78232" lon="0.15946">
        <ele>1855.8</ele>
        <time>2021-01-29T12:29:23Z</time>
      </trkpt>
      <trkpt lat="42.78232" lon="0.15944">
        <ele>1855.8</ele>
        <time>2021-01-29T12:29:24Z</time>
      </trkpt>
      <trkpt lat="42.78232" lon="0.15943">
        <ele>1855.8</ele>
        <time>2021-01-29T12:29:25Z</time>
      </trkpt>
      <trkpt lat="42.78232" lon="0.15941">
        <ele>1856</ele>
        <time>2021-01-29T12:29:26Z</time>
      </trkpt>
      <trkpt lat="42.78232" lon="0.1594">
        <ele>1856</ele>
        <time>2021-01-29T12:29:27Z</time>
      </trkpt>
      <trkpt lat="42.78232" lon="0.15939">
        <ele>1855.8</ele>
        <time>2021-01-29T12:29:28Z</time>
      </trkpt>
      <trkpt lat="42.78231" lon="0.15938">
        <ele>1856.2</ele>
        <time>2021-01-29T12:29:29Z</time>
      </trkpt>
      <trkpt lat="42.78231" lon="0.15937">
        <ele>1856.2</ele>
        <time>2021-01-29T12:29:30Z</time>
      </trkpt>
      <trkpt lat="42.78231" lon="0.15936">
        <ele>1856.2</ele>
        <time>2021-01-29T12:29:31Z</time>
      </trkpt>
      <trkpt lat="42.78231" lon="0.15935">
        <ele>1856.4</ele>
        <time>2021-01-29T12:29:32Z</time>
      </trkpt>
      <trkpt lat="42.78231" lon="0.15934">
        <ele>1856.4</ele>
        <time>2021-01-29T12:29:33Z</time>
      </trkpt>
      <trkpt lat="42.78231" lon="0.15932">
        <ele>1856.6</ele>
        <time>2021-01-29T12:29:34Z</time>
      </trkpt>
      <trkpt lat="42.7823" lon="0.15931">
        <ele>1856.6</ele>
        <time>2021-01-29T12:29:35Z</time>
      </trkpt>
      <trkpt lat="42.7823" lon="0.1593">
        <ele>1856.8</ele>
        <time>2021-01-29T12:29:36Z</time>
      </trkpt>
      <trkpt lat="42.78231" lon="0.15929">
        <ele>1856.8</ele>
        <time>2021-01-29T12:29:37Z</time>
      </trkpt>
      <trkpt lat="42.78231" lon="0.15928">
        <ele>1856.8</ele>
        <time>2021-01-29T12:29:38Z</time>
      </trkpt>
      <trkpt lat="42.78231" lon="0.15927">
        <ele>1857</ele>
        <time>2021-01-29T12:29:39Z</time>
      </trkpt>
      <trkpt lat="42.78231" lon="0.15926">
        <ele>1857</ele>
        <time>2021-01-29T12:29:40Z</time>
      </trkpt>
      <trkpt lat="42.78231" lon="0.15926">
        <ele>1857</ele>
        <time>2021-01-29T12:29:41Z</time>
      </trkpt>
      <trkpt lat="42.78231" lon="0.15926">
        <ele>1857</ele>
        <time>2021-01-29T12:29:42Z</time>
      </trkpt>
      <trkpt lat="42.78231" lon="0.15926">
        <ele>1857</ele>
        <time>2021-01-29T12:29:43Z</time>
      </trkpt>
      <trkpt lat="42.78231" lon="0.15926">
        <ele>1857</ele>
        <time>2021-01-29T12:29:44Z</time>
      </trkpt>
      <trkpt lat="42.78231" lon="0.15926">
        <ele>1857.2</ele>
        <time>2021-01-29T12:29:45Z</time>
      </trkpt>
      <trkpt lat="42.78231" lon="0.15926">
        <ele>1857.2</ele>
        <time>2021-01-29T12:29:46Z</time>
      </trkpt>
      <trkpt lat="42.78231" lon="0.15926">
        <ele>1857.2</ele>
        <time>2021-01-29T12:29:47Z</time>
      </trkpt>
      <trkpt lat="42.78231" lon="0.15926">
        <ele>1857.2</ele>
        <time>2021-01-29T12:29:48Z</time>
      </trkpt>
      <trkpt lat="42.78231" lon="0.15926">
        <ele>1857.2</ele>
        <time>2021-01-29T12:29:49Z</time>
      </trkpt>
      <trkpt lat="42.78231" lon="0.15926">
        <ele>1857.2</ele>
        <time>2021-01-29T12:29:50Z</time>
      </trkpt>
      <trkpt lat="42.78231" lon="0.15926">
        <ele>1857</ele>
        <time>2021-01-29T12:29:51Z</time>
      </trkpt>
      <trkpt lat="42.78231" lon="0.15926">
        <ele>1857</ele>
        <time>2021-01-29T12:29:52Z</time>
      </trkpt>
      <trkpt lat="42.78231" lon="0.15926">
        <ele>1857</ele>
        <time>2021-01-29T12:29:53Z</time>
      </trkpt>
      <trkpt lat="42.78231" lon="0.15926">
        <ele>1857</ele>
        <time>2021-01-29T12:29:54Z</time>
      </trkpt>
      <trkpt lat="42.78231" lon="0.15926">
        <ele>1857</ele>
        <time>2021-01-29T12:29:55Z</time>
      </trkpt>
      <trkpt lat="42.78231" lon="0.15926">
        <ele>1857</ele>
        <time>2021-01-29T12:29:56Z</time>
      </trkpt>
      <trkpt lat="42.78231" lon="0.15926">
        <ele>1857</ele>
        <time>2021-01-29T12:29:57Z</time>
      </trkpt>
      <trkpt lat="42.78231" lon="0.15926">
        <ele>1857</ele>
        <time>2021-01-29T12:29:58Z</time>
      </trkpt>
      <trkpt lat="42.78231" lon="0.15926">
        <ele>1857.2</ele>
        <time>2021-01-29T12:29:59Z</time>
      </trkpt>
      <trkpt lat="42.78231" lon="0.15926">
        <ele>1857.2</ele>
        <time>2021-01-29T12:30:00Z</time>
      </trkpt>
      <trkpt lat="42.78231" lon="0.15926">
        <ele>1857.2</ele>
        <time>2021-01-29T12:30:01Z</time>
      </trkpt>
      <trkpt lat="42.78231" lon="0.15926">
        <ele>1857.2</ele>
        <time>2021-01-29T12:30:02Z</time>
      </trkpt>
      <trkpt lat="42.78231" lon="0.15926">
        <ele>1857.2</ele>
        <time>2021-01-29T12:30:03Z</time>
      </trkpt>
      <trkpt lat="42.78231" lon="0.15926">
        <ele>1857.2</ele>
        <time>2021-01-29T12:30:04Z</time>
      </trkpt>
      <trkpt lat="42.78231" lon="0.15926">
        <ele>1857.2</ele>
        <time>2021-01-29T12:30:05Z</time>
      </trkpt>
      <trkpt lat="42.78231" lon="0.15926">
        <ele>1857</ele>
        <time>2021-01-29T12:30:06Z</time>
      </trkpt>
      <trkpt lat="42.78231" lon="0.15926">
        <ele>1857.2</ele>
        <time>2021-01-29T12:30:07Z</time>
      </trkpt>
      <trkpt lat="42.78231" lon="0.15926">
        <ele>1857</ele>
        <time>2021-01-29T12:30:08Z</time>
      </trkpt>
      <trkpt lat="42.78231" lon="0.15926">
        <ele>1857</ele>
        <time>2021-01-29T12:30:09Z</time>
      </trkpt>
      <trkpt lat="42.78231" lon="0.15926">
        <ele>1857</ele>
        <time>2021-01-29T12:30:10Z</time>
      </trkpt>
      <trkpt lat="42.78231" lon="0.15926">
        <ele>1857</ele>
        <time>2021-01-29T12:30:11Z</time>
      </trkpt>
      <trkpt lat="42.78231" lon="0.15926">
        <ele>1857</ele>
        <time>2021-01-29T12:30:12Z</time>
      </trkpt>
      <trkpt lat="42.78231" lon="0.15926">
        <ele>1857</ele>
        <time>2021-01-29T12:30:13Z</time>
      </trkpt>
      <trkpt lat="42.78231" lon="0.15926">
        <ele>1857</ele>
        <time>2021-01-29T12:30:14Z</time>
      </trkpt>
      <trkpt lat="42.78231" lon="0.15926">
        <ele>1857</ele>
        <time>2021-01-29T12:30:15Z</time>
      </trkpt>
      <trkpt lat="42.78231" lon="0.15926">
        <ele>1857</ele>
        <time>2021-01-29T12:30:16Z</time>
      </trkpt>
      <trkpt lat="42.78231" lon="0.15926">
        <ele>1857.2</ele>
        <time>2021-01-29T12:30:17Z</time>
      </trkpt>
      <trkpt lat="42.78231" lon="0.15926">
        <ele>1857.2</ele>
        <time>2021-01-29T12:30:18Z</time>
      </trkpt>
      <trkpt lat="42.78231" lon="0.15926">
        <ele>1857.2</ele>
        <time>2021-01-29T12:30:19Z</time>
      </trkpt>
      <trkpt lat="42.78231" lon="0.15926">
        <ele>1857.2</ele>
        <time>2021-01-29T12:30:20Z</time>
      </trkpt>
      <trkpt lat="42.78231" lon="0.15926">
        <ele>1857.2</ele>
        <time>2021-01-29T12:30:21Z</time>
      </trkpt>
      <trkpt lat="42.78231" lon="0.15926">
        <ele>1857.2</ele>
        <time>2021-01-29T12:30:22Z</time>
      </trkpt>
      <trkpt lat="42.78231" lon="0.15926">
        <ele>1857.2</ele>
        <time>2021-01-29T12:30:23Z</time>
      </trkpt>
      <trkpt lat="42.78231" lon="0.15926">
        <ele>1857.2</ele>
        <time>2021-01-29T12:30:24Z</time>
      </trkpt>
      <trkpt lat="42.78231" lon="0.15926">
        <ele>1857.2</ele>
        <time>2021-01-29T12:30:25Z</time>
      </trkpt>
      <trkpt lat="42.78231" lon="0.15926">
        <ele>1857.2</ele>
        <time>2021-01-29T12:30:26Z</time>
      </trkpt>
      <trkpt lat="42.78231" lon="0.15926">
        <ele>1857.2</ele>
        <time>2021-01-29T12:30:27Z</time>
      </trkpt>
      <trkpt lat="42.78231" lon="0.15926">
        <ele>1857.2</ele>
        <time>2021-01-29T12:30:28Z</time>
      </trkpt>
      <trkpt lat="42.78231" lon="0.15926">
        <ele>1857.2</ele>
        <time>2021-01-29T12:30:29Z</time>
      </trkpt>
      <trkpt lat="42.78231" lon="0.15926">
        <ele>1857.2</ele>
        <time>2021-01-29T12:30:30Z</time>
      </trkpt>
      <trkpt lat="42.78231" lon="0.15926">
        <ele>1857.2</ele>
        <time>2021-01-29T12:30:31Z</time>
      </trkpt>
      <trkpt lat="42.78231" lon="0.15926">
        <ele>1857</ele>
        <time>2021-01-29T12:30:32Z</time>
      </trkpt>
      <trkpt lat="42.78231" lon="0.15926">
        <ele>1857</ele>
        <time>2021-01-29T12:30:33Z</time>
      </trkpt>
      <trkpt lat="42.78231" lon="0.15926">
        <ele>1857</ele>
        <time>2021-01-29T12:30:34Z</time>
      </trkpt>
      <trkpt lat="42.78231" lon="0.15926">
        <ele>1857.2</ele>
        <time>2021-01-29T12:30:35Z</time>
      </trkpt>
      <trkpt lat="42.78231" lon="0.15926">
        <ele>1857.2</ele>
        <time>2021-01-29T12:30:36Z</time>
      </trkpt>
      <trkpt lat="42.78231" lon="0.15926">
        <ele>1857.2</ele>
        <time>2021-01-29T12:30:37Z</time>
      </trkpt>
      <trkpt lat="42.78231" lon="0.15926">
        <ele>1857.2</ele>
        <time>2021-01-29T12:30:38Z</time>
      </trkpt>
      <trkpt lat="42.78231" lon="0.15926">
        <ele>1857.2</ele>
        <time>2021-01-29T12:30:39Z</time>
      </trkpt>
      <trkpt lat="42.78231" lon="0.15926">
        <ele>1857.2</ele>
        <time>2021-01-29T12:30:40Z</time>
      </trkpt>
      <trkpt lat="42.78231" lon="0.15926">
        <ele>1857.2</ele>
        <time>2021-01-29T12:30:41Z</time>
      </trkpt>
      <trkpt lat="42.78231" lon="0.15926">
        <ele>1857.2</ele>
        <time>2021-01-29T12:30:42Z</time>
      </trkpt>
      <trkpt lat="42.78231" lon="0.15926">
        <ele>1857.2</ele>
        <time>2021-01-29T12:30:43Z</time>
      </trkpt>
      <trkpt lat="42.78231" lon="0.15926">
        <ele>1857</ele>
        <time>2021-01-29T12:30:44Z</time>
      </trkpt>
      <trkpt lat="42.78231" lon="0.15926">
        <ele>1857</ele>
        <time>2021-01-29T12:30:45Z</time>
      </trkpt>
      <trkpt lat="42.78231" lon="0.15926">
        <ele>1857.2</ele>
        <time>2021-01-29T12:30:46Z</time>
      </trkpt>
      <trkpt lat="42.78231" lon="0.15926">
        <ele>1857.2</ele>
        <time>2021-01-29T12:30:47Z</time>
      </trkpt>
      <trkpt lat="42.78231" lon="0.15925">
        <ele>1857.2</ele>
        <time>2021-01-29T12:30:48Z</time>
      </trkpt>
      <trkpt lat="42.78232" lon="0.15924">
        <ele>1857</ele>
        <time>2021-01-29T12:30:49Z</time>
      </trkpt>
      <trkpt lat="42.78232" lon="0.15924">
        <ele>1857</ele>
        <time>2021-01-29T12:30:50Z</time>
      </trkpt>
      <trkpt lat="42.78232" lon="0.15923">
        <ele>1857</ele>
        <time>2021-01-29T12:30:51Z</time>
      </trkpt>
      <trkpt lat="42.78233" lon="0.15923">
        <ele>1856.8</ele>
        <time>2021-01-29T12:30:52Z</time>
      </trkpt>
      <trkpt lat="42.78233" lon="0.15922">
        <ele>1857</ele>
        <time>2021-01-29T12:30:53Z</time>
      </trkpt>
      <trkpt lat="42.78233" lon="0.15922">
        <ele>1856.8</ele>
        <time>2021-01-29T12:30:54Z</time>
      </trkpt>
      <trkpt lat="42.78234" lon="0.15921">
        <ele>1856.6</ele>
        <time>2021-01-29T12:30:55Z</time>
      </trkpt>
      <trkpt lat="42.78235" lon="0.15921">
        <ele>1856.6</ele>
        <time>2021-01-29T12:30:56Z</time>
      </trkpt>
      <trkpt lat="42.78237" lon="0.1592">
        <ele>1856.6</ele>
        <time>2021-01-29T12:30:57Z</time>
      </trkpt>
      <trkpt lat="42.78238" lon="0.1592">
        <ele>1856.4</ele>
        <time>2021-01-29T12:30:58Z</time>
      </trkpt>
      <trkpt lat="42.7824" lon="0.15919">
        <ele>1856.2</ele>
        <time>2021-01-29T12:30:59Z</time>
      </trkpt>
      <trkpt lat="42.78242" lon="0.15918">
        <ele>1856</ele>
        <time>2021-01-29T12:31:00Z</time>
      </trkpt>
      <trkpt lat="42.78244" lon="0.15918">
        <ele>1856.2</ele>
        <time>2021-01-29T12:31:01Z</time>
      </trkpt>
      <trkpt lat="42.78245" lon="0.15918">
        <ele>1856.2</ele>
        <time>2021-01-29T12:31:02Z</time>
      </trkpt>
      <trkpt lat="42.78247" lon="0.15917">
        <ele>1856.2</ele>
        <time>2021-01-29T12:31:03Z</time>
      </trkpt>
      <trkpt lat="42.78248" lon="0.15917">
        <ele>1856.2</ele>
        <time>2021-01-29T12:31:04Z</time>
      </trkpt>
      <trkpt lat="42.7825" lon="0.15917">
        <ele>1856</ele>
        <time>2021-01-29T12:31:05Z</time>
      </trkpt>
      <trkpt lat="42.78251" lon="0.15916">
        <ele>1856</ele>
        <time>2021-01-29T12:31:06Z</time>
      </trkpt>
      <trkpt lat="42.78252" lon="0.15916">
        <ele>1856</ele>
        <time>2021-01-29T12:31:07Z</time>
      </trkpt>
      <trkpt lat="42.78253" lon="0.15915">
        <ele>1856</ele>
        <time>2021-01-29T12:31:08Z</time>
      </trkpt>
      <trkpt lat="42.78253" lon="0.15915">
        <ele>1856</ele>
        <time>2021-01-29T12:31:09Z</time>
      </trkpt>
      <trkpt lat="42.78253" lon="0.15915">
        <ele>1856</ele>
        <time>2021-01-29T12:31:10Z</time>
      </trkpt>
      <trkpt lat="42.78253" lon="0.15915">
        <ele>1856</ele>
        <time>2021-01-29T12:31:11Z</time>
      </trkpt>
      <trkpt lat="42.78253" lon="0.15915">
        <ele>1856</ele>
        <time>2021-01-29T12:31:12Z</time>
      </trkpt>
      <trkpt lat="42.78253" lon="0.15915">
        <ele>1856</ele>
        <time>2021-01-29T12:31:13Z</time>
      </trkpt>
      <trkpt lat="42.78253" lon="0.15915">
        <ele>1856</ele>
        <time>2021-01-29T12:31:14Z</time>
      </trkpt>
      <trkpt lat="42.78253" lon="0.15915">
        <ele>1855.8</ele>
        <time>2021-01-29T12:31:15Z</time>
      </trkpt>
      <trkpt lat="42.78253" lon="0.15915">
        <ele>1855.8</ele>
        <time>2021-01-29T12:31:16Z</time>
      </trkpt>
      <trkpt lat="42.78253" lon="0.15915">
        <ele>1855.8</ele>
        <time>2021-01-29T12:31:17Z</time>
      </trkpt>
      <trkpt lat="42.78253" lon="0.15915">
        <ele>1855.8</ele>
        <time>2021-01-29T12:31:18Z</time>
      </trkpt>
      <trkpt lat="42.78253" lon="0.15915">
        <ele>1855.8</ele>
        <time>2021-01-29T12:31:19Z</time>
      </trkpt>
      <trkpt lat="42.78253" lon="0.15915">
        <ele>1855.8</ele>
        <time>2021-01-29T12:31:20Z</time>
      </trkpt>
      <trkpt lat="42.78253" lon="0.15915">
        <ele>1855.8</ele>
        <time>2021-01-29T12:31:21Z</time>
      </trkpt>
      <trkpt lat="42.78253" lon="0.15915">
        <ele>1855.8</ele>
        <time>2021-01-29T12:31:22Z</time>
      </trkpt>
      <trkpt lat="42.78253" lon="0.15915">
        <ele>1855.8</ele>
        <time>2021-01-29T12:31:23Z</time>
      </trkpt>
      <trkpt lat="42.78253" lon="0.15915">
        <ele>1855.8</ele>
        <time>2021-01-29T12:31:24Z</time>
      </trkpt>
      <trkpt lat="42.78253" lon="0.15915">
        <ele>1855.8</ele>
        <time>2021-01-29T12:31:25Z</time>
      </trkpt>
      <trkpt lat="42.78253" lon="0.15915">
        <ele>1855.8</ele>
        <time>2021-01-29T12:31:26Z</time>
      </trkpt>
      <trkpt lat="42.78253" lon="0.15915">
        <ele>1855.8</ele>
        <time>2021-01-29T12:31:27Z</time>
      </trkpt>
      <trkpt lat="42.78253" lon="0.15915">
        <ele>1855.8</ele>
        <time>2021-01-29T12:31:28Z</time>
      </trkpt>
      <trkpt lat="42.78253" lon="0.15915">
        <ele>1855.8</ele>
        <time>2021-01-29T12:31:29Z</time>
      </trkpt>
      <trkpt lat="42.78253" lon="0.15915">
        <ele>1855.8</ele>
        <time>2021-01-29T12:31:30Z</time>
      </trkpt>
      <trkpt lat="42.78253" lon="0.15915">
        <ele>1855.8</ele>
        <time>2021-01-29T12:31:31Z</time>
      </trkpt>
      <trkpt lat="42.78253" lon="0.15915">
        <ele>1855.8</ele>
        <time>2021-01-29T12:31:32Z</time>
      </trkpt>
      <trkpt lat="42.78253" lon="0.15915">
        <ele>1855.8</ele>
        <time>2021-01-29T12:31:33Z</time>
      </trkpt>
      <trkpt lat="42.78253" lon="0.15915">
        <ele>1855.8</ele>
        <time>2021-01-29T12:31:34Z</time>
      </trkpt>
      <trkpt lat="42.78253" lon="0.15915">
        <ele>1855.8</ele>
        <time>2021-01-29T12:31:35Z</time>
      </trkpt>
      <trkpt lat="42.78253" lon="0.15915">
        <ele>1855.8</ele>
        <time>2021-01-29T12:31:36Z</time>
      </trkpt>
      <trkpt lat="42.78253" lon="0.15915">
        <ele>1855.8</ele>
        <time>2021-01-29T12:31:37Z</time>
      </trkpt>
      <trkpt lat="42.78253" lon="0.15915">
        <ele>1855.8</ele>
        <time>2021-01-29T12:31:38Z</time>
      </trkpt>
      <trkpt lat="42.78253" lon="0.15915">
        <ele>1855.8</ele>
        <time>2021-01-29T12:31:39Z</time>
      </trkpt>
      <trkpt lat="42.78253" lon="0.15915">
        <ele>1855.8</ele>
        <time>2021-01-29T12:31:40Z</time>
      </trkpt>
      <trkpt lat="42.78253" lon="0.15915">
        <ele>1855.8</ele>
        <time>2021-01-29T12:31:41Z</time>
      </trkpt>
      <trkpt lat="42.78253" lon="0.15915">
        <ele>1855.8</ele>
        <time>2021-01-29T12:31:42Z</time>
      </trkpt>
      <trkpt lat="42.78253" lon="0.15915">
        <ele>1855.8</ele>
        <time>2021-01-29T12:31:43Z</time>
      </trkpt>
      <trkpt lat="42.78253" lon="0.15915">
        <ele>1855.8</ele>
        <time>2021-01-29T12:31:44Z</time>
      </trkpt>
      <trkpt lat="42.78253" lon="0.15915">
        <ele>1855.8</ele>
        <time>2021-01-29T12:31:45Z</time>
      </trkpt>
      <trkpt lat="42.78253" lon="0.15915">
        <ele>1855.8</ele>
        <time>2021-01-29T12:31:46Z</time>
      </trkpt>
      <trkpt lat="42.78253" lon="0.15915">
        <ele>1855.8</ele>
        <time>2021-01-29T12:31:47Z</time>
      </trkpt>
      <trkpt lat="42.78253" lon="0.15915">
        <ele>1855.8</ele>
        <time>2021-01-29T12:31:48Z</time>
      </trkpt>
      <trkpt lat="42.78253" lon="0.15915">
        <ele>1855.8</ele>
        <time>2021-01-29T12:31:49Z</time>
      </trkpt>
      <trkpt lat="42.78253" lon="0.15915">
        <ele>1855.8</ele>
        <time>2021-01-29T12:31:50Z</time>
      </trkpt>
      <trkpt lat="42.78253" lon="0.15915">
        <ele>1855.8</ele>
        <time>2021-01-29T12:31:51Z</time>
      </trkpt>
      <trkpt lat="42.78253" lon="0.15915">
        <ele>1855.8</ele>
        <time>2021-01-29T12:31:52Z</time>
      </trkpt>
      <trkpt lat="42.78253" lon="0.15915">
        <ele>1855.8</ele>
        <time>2021-01-29T12:31:53Z</time>
      </trkpt>
      <trkpt lat="42.78253" lon="0.15915">
        <ele>1855.8</ele>
        <time>2021-01-29T12:31:54Z</time>
      </trkpt>
      <trkpt lat="42.78253" lon="0.15915">
        <ele>1855.8</ele>
        <time>2021-01-29T12:31:55Z</time>
      </trkpt>
      <trkpt lat="42.78253" lon="0.15915">
        <ele>1855.8</ele>
        <time>2021-01-29T12:31:56Z</time>
      </trkpt>
      <trkpt lat="42.78253" lon="0.15915">
        <ele>1855.8</ele>
        <time>2021-01-29T12:31:57Z</time>
      </trkpt>
      <trkpt lat="42.78253" lon="0.15915">
        <ele>1855.8</ele>
        <time>2021-01-29T12:31:58Z</time>
      </trkpt>
      <trkpt lat="42.78253" lon="0.15915">
        <ele>1855.8</ele>
        <time>2021-01-29T12:31:59Z</time>
      </trkpt>
      <trkpt lat="42.78253" lon="0.15915">
        <ele>1855.8</ele>
        <time>2021-01-29T12:32:00Z</time>
      </trkpt>
      <trkpt lat="42.78253" lon="0.15915">
        <ele>1855.8</ele>
        <time>2021-01-29T12:32:01Z</time>
      </trkpt>
      <trkpt lat="42.78253" lon="0.15915">
        <ele>1855.8</ele>
        <time>2021-01-29T12:32:02Z</time>
      </trkpt>
      <trkpt lat="42.78253" lon="0.15915">
        <ele>1855.8</ele>
        <time>2021-01-29T12:32:03Z</time>
      </trkpt>
      <trkpt lat="42.78253" lon="0.15915">
        <ele>1855.8</ele>
        <time>2021-01-29T12:32:04Z</time>
      </trkpt>
      <trkpt lat="42.78253" lon="0.15915">
        <ele>1855.8</ele>
        <time>2021-01-29T12:32:05Z</time>
      </trkpt>
      <trkpt lat="42.78253" lon="0.15915">
        <ele>1855.8</ele>
        <time>2021-01-29T12:32:06Z</time>
      </trkpt>
      <trkpt lat="42.78253" lon="0.15915">
        <ele>1855.8</ele>
        <time>2021-01-29T12:32:07Z</time>
      </trkpt>
      <trkpt lat="42.78253" lon="0.15915">
        <ele>1855.8</ele>
        <time>2021-01-29T12:32:08Z</time>
      </trkpt>
      <trkpt lat="42.78253" lon="0.15915">
        <ele>1855.8</ele>
        <time>2021-01-29T12:32:09Z</time>
      </trkpt>
      <trkpt lat="42.78253" lon="0.15915">
        <ele>1855.8</ele>
        <time>2021-01-29T12:32:10Z</time>
      </trkpt>
      <trkpt lat="42.78253" lon="0.15915">
        <ele>1855.8</ele>
        <time>2021-01-29T12:32:11Z</time>
      </trkpt>
      <trkpt lat="42.78253" lon="0.15915">
        <ele>1856</ele>
        <time>2021-01-29T12:32:12Z</time>
      </trkpt>
      <trkpt lat="42.78253" lon="0.15915">
        <ele>1856</ele>
        <time>2021-01-29T12:32:13Z</time>
      </trkpt>
      <trkpt lat="42.78253" lon="0.15915">
        <ele>1856</ele>
        <time>2021-01-29T12:32:14Z</time>
      </trkpt>
      <trkpt lat="42.78253" lon="0.15915">
        <ele>1856</ele>
        <time>2021-01-29T12:32:15Z</time>
      </trkpt>
      <trkpt lat="42.78253" lon="0.15915">
        <ele>1855.8</ele>
        <time>2021-01-29T12:32:16Z</time>
      </trkpt>
      <trkpt lat="42.78253" lon="0.15915">
        <ele>1855.8</ele>
        <time>2021-01-29T12:32:17Z</time>
      </trkpt>
      <trkpt lat="42.78253" lon="0.15915">
        <ele>1855.8</ele>
        <time>2021-01-29T12:32:18Z</time>
      </trkpt>
      <trkpt lat="42.78253" lon="0.15915">
        <ele>1855.8</ele>
        <time>2021-01-29T12:32:19Z</time>
      </trkpt>
      <trkpt lat="42.78253" lon="0.15915">
        <ele>1855.8</ele>
        <time>2021-01-29T12:32:20Z</time>
      </trkpt>
      <trkpt lat="42.78253" lon="0.15915">
        <ele>1855.8</ele>
        <time>2021-01-29T12:32:21Z</time>
      </trkpt>
      <trkpt lat="42.78253" lon="0.15915">
        <ele>1855.8</ele>
        <time>2021-01-29T12:32:22Z</time>
      </trkpt>
      <trkpt lat="42.78253" lon="0.15915">
        <ele>1855.8</ele>
        <time>2021-01-29T12:32:23Z</time>
      </trkpt>
      <trkpt lat="42.78253" lon="0.15915">
        <ele>1855.8</ele>
        <time>2021-01-29T12:32:24Z</time>
      </trkpt>
      <trkpt lat="42.78253" lon="0.15915">
        <ele>1855.8</ele>
        <time>2021-01-29T12:32:25Z</time>
      </trkpt>
      <trkpt lat="42.78253" lon="0.15915">
        <ele>1855.8</ele>
        <time>2021-01-29T12:32:26Z</time>
      </trkpt>
      <trkpt lat="42.78253" lon="0.15915">
        <ele>1855.8</ele>
        <time>2021-01-29T12:32:27Z</time>
      </trkpt>
      <trkpt lat="42.78253" lon="0.15915">
        <ele>1855.8</ele>
        <time>2021-01-29T12:32:28Z</time>
      </trkpt>
      <trkpt lat="42.78253" lon="0.15915">
        <ele>1855.8</ele>
        <time>2021-01-29T12:32:29Z</time>
      </trkpt>
      <trkpt lat="42.78253" lon="0.15915">
        <ele>1855.8</ele>
        <time>2021-01-29T12:32:30Z</time>
      </trkpt>
      <trkpt lat="42.78253" lon="0.15915">
        <ele>1855.8</ele>
        <time>2021-01-29T12:32:31Z</time>
      </trkpt>
      <trkpt lat="42.78253" lon="0.15915">
        <ele>1855.8</ele>
        <time>2021-01-29T12:32:32Z</time>
      </trkpt>
      <trkpt lat="42.78253" lon="0.15915">
        <ele>1855.8</ele>
        <time>2021-01-29T12:32:33Z</time>
      </trkpt>
      <trkpt lat="42.78253" lon="0.15915">
        <ele>1855.8</ele>
        <time>2021-01-29T12:32:34Z</time>
      </trkpt>
      <trkpt lat="42.78253" lon="0.15915">
        <ele>1855.8</ele>
        <time>2021-01-29T12:32:35Z</time>
      </trkpt>
      <trkpt lat="42.78253" lon="0.15915">
        <ele>1855.8</ele>
        <time>2021-01-29T12:32:36Z</time>
      </trkpt>
      <trkpt lat="42.78253" lon="0.15915">
        <ele>1855.8</ele>
        <time>2021-01-29T12:32:37Z</time>
      </trkpt>
      <trkpt lat="42.78253" lon="0.15915">
        <ele>1855.8</ele>
        <time>2021-01-29T12:32:38Z</time>
      </trkpt>
      <trkpt lat="42.78253" lon="0.15915">
        <ele>1855.8</ele>
        <time>2021-01-29T12:32:39Z</time>
      </trkpt>
      <trkpt lat="42.78253" lon="0.15915">
        <ele>1855.8</ele>
        <time>2021-01-29T12:32:40Z</time>
      </trkpt>
      <trkpt lat="42.78253" lon="0.15915">
        <ele>1855.8</ele>
        <time>2021-01-29T12:32:41Z</time>
      </trkpt>
      <trkpt lat="42.78253" lon="0.15915">
        <ele>1855.8</ele>
        <time>2021-01-29T12:32:42Z</time>
      </trkpt>
      <trkpt lat="42.78253" lon="0.15915">
        <ele>1855.8</ele>
        <time>2021-01-29T12:32:43Z</time>
      </trkpt>
      <trkpt lat="42.78253" lon="0.15915">
        <ele>1855.8</ele>
        <time>2021-01-29T12:32:44Z</time>
      </trkpt>
      <trkpt lat="42.78253" lon="0.15915">
        <ele>1855.8</ele>
        <time>2021-01-29T12:32:45Z</time>
      </trkpt>
      <trkpt lat="42.78253" lon="0.15915">
        <ele>1855.8</ele>
        <time>2021-01-29T12:32:46Z</time>
      </trkpt>
      <trkpt lat="42.78253" lon="0.15915">
        <ele>1855.8</ele>
        <time>2021-01-29T12:32:47Z</time>
      </trkpt>
      <trkpt lat="42.78253" lon="0.15915">
        <ele>1855.8</ele>
        <time>2021-01-29T12:32:48Z</time>
      </trkpt>
      <trkpt lat="42.78253" lon="0.15915">
        <ele>1855.8</ele>
        <time>2021-01-29T12:32:49Z</time>
      </trkpt>
      <trkpt lat="42.78253" lon="0.15915">
        <ele>1855.8</ele>
        <time>2021-01-29T12:32:50Z</time>
      </trkpt>
      <trkpt lat="42.78253" lon="0.15915">
        <ele>1855.8</ele>
        <time>2021-01-29T12:32:51Z</time>
      </trkpt>
      <trkpt lat="42.78253" lon="0.15915">
        <ele>1855.8</ele>
        <time>2021-01-29T12:32:52Z</time>
      </trkpt>
      <trkpt lat="42.78253" lon="0.15915">
        <ele>1855.8</ele>
        <time>2021-01-29T12:32:53Z</time>
      </trkpt>
      <trkpt lat="42.78253" lon="0.15915">
        <ele>1855.8</ele>
        <time>2021-01-29T12:32:54Z</time>
      </trkpt>
      <trkpt lat="42.78253" lon="0.15915">
        <ele>1856</ele>
        <time>2021-01-29T12:32:55Z</time>
      </trkpt>
      <trkpt lat="42.78253" lon="0.15915">
        <ele>1856</ele>
        <time>2021-01-29T12:32:56Z</time>
      </trkpt>
      <trkpt lat="42.78253" lon="0.15915">
        <ele>1856</ele>
        <time>2021-01-29T12:32:57Z</time>
      </trkpt>
      <trkpt lat="42.78253" lon="0.15915">
        <ele>1856</ele>
        <time>2021-01-29T12:32:58Z</time>
      </trkpt>
      <trkpt lat="42.78253" lon="0.15915">
        <ele>1856</ele>
        <time>2021-01-29T12:32:59Z</time>
      </trkpt>
      <trkpt lat="42.78253" lon="0.15915">
        <ele>1856</ele>
        <time>2021-01-29T12:33:00Z</time>
      </trkpt>
      <trkpt lat="42.78253" lon="0.15915">
        <ele>1856</ele>
        <time>2021-01-29T12:33:01Z</time>
      </trkpt>
      <trkpt lat="42.78253" lon="0.15915">
        <ele>1856</ele>
        <time>2021-01-29T12:33:02Z</time>
      </trkpt>
      <trkpt lat="42.78253" lon="0.15915">
        <ele>1856</ele>
        <time>2021-01-29T12:33:03Z</time>
      </trkpt>
      <trkpt lat="42.78253" lon="0.15915">
        <ele>1856</ele>
        <time>2021-01-29T12:33:04Z</time>
      </trkpt>
      <trkpt lat="42.78253" lon="0.15915">
        <ele>1856</ele>
        <time>2021-01-29T12:33:05Z</time>
      </trkpt>
      <trkpt lat="42.78253" lon="0.15915">
        <ele>1856</ele>
        <time>2021-01-29T12:33:06Z</time>
      </trkpt>
      <trkpt lat="42.78253" lon="0.15915">
        <ele>1856</ele>
        <time>2021-01-29T12:33:07Z</time>
      </trkpt>
      <trkpt lat="42.78253" lon="0.15915">
        <ele>1856</ele>
        <time>2021-01-29T12:33:08Z</time>
      </trkpt>
      <trkpt lat="42.78253" lon="0.15915">
        <ele>1856</ele>
        <time>2021-01-29T12:33:09Z</time>
      </trkpt>
      <trkpt lat="42.78253" lon="0.15915">
        <ele>1856</ele>
        <time>2021-01-29T12:33:10Z</time>
      </trkpt>
      <trkpt lat="42.78253" lon="0.15915">
        <ele>1856</ele>
        <time>2021-01-29T12:33:11Z</time>
      </trkpt>
      <trkpt lat="42.78253" lon="0.15915">
        <ele>1856</ele>
        <time>2021-01-29T12:33:12Z</time>
      </trkpt>
      <trkpt lat="42.78253" lon="0.15915">
        <ele>1856</ele>
        <time>2021-01-29T12:33:13Z</time>
      </trkpt>
      <trkpt lat="42.78253" lon="0.15915">
        <ele>1856</ele>
        <time>2021-01-29T12:33:14Z</time>
      </trkpt>
      <trkpt lat="42.78253" lon="0.15915">
        <ele>1856</ele>
        <time>2021-01-29T12:33:15Z</time>
      </trkpt>
      <trkpt lat="42.78253" lon="0.15915">
        <ele>1856</ele>
        <time>2021-01-29T12:33:16Z</time>
      </trkpt>
      <trkpt lat="42.78253" lon="0.15915">
        <ele>1856</ele>
        <time>2021-01-29T12:33:17Z</time>
      </trkpt>
      <trkpt lat="42.78253" lon="0.15915">
        <ele>1856</ele>
        <time>2021-01-29T12:33:18Z</time>
      </trkpt>
      <trkpt lat="42.78253" lon="0.15915">
        <ele>1856</ele>
        <time>2021-01-29T12:33:19Z</time>
      </trkpt>
      <trkpt lat="42.78253" lon="0.15915">
        <ele>1856</ele>
        <time>2021-01-29T12:33:20Z</time>
      </trkpt>
      <trkpt lat="42.78253" lon="0.15915">
        <ele>1856</ele>
        <time>2021-01-29T12:33:21Z</time>
      </trkpt>
      <trkpt lat="42.78253" lon="0.15915">
        <ele>1856</ele>
        <time>2021-01-29T12:33:22Z</time>
      </trkpt>
      <trkpt lat="42.78253" lon="0.15915">
        <ele>1856</ele>
        <time>2021-01-29T12:33:23Z</time>
      </trkpt>
      <trkpt lat="42.78253" lon="0.15915">
        <ele>1856</ele>
        <time>2021-01-29T12:33:24Z</time>
      </trkpt>
      <trkpt lat="42.78253" lon="0.15915">
        <ele>1856</ele>
        <time>2021-01-29T12:33:25Z</time>
      </trkpt>
      <trkpt lat="42.78253" lon="0.15915">
        <ele>1856</ele>
        <time>2021-01-29T12:33:26Z</time>
      </trkpt>
      <trkpt lat="42.78253" lon="0.15915">
        <ele>1856</ele>
        <time>2021-01-29T12:33:27Z</time>
      </trkpt>
      <trkpt lat="42.78253" lon="0.15915">
        <ele>1856</ele>
        <time>2021-01-29T12:33:28Z</time>
      </trkpt>
      <trkpt lat="42.78253" lon="0.15915">
        <ele>1856</ele>
        <time>2021-01-29T12:33:29Z</time>
      </trkpt>
      <trkpt lat="42.78253" lon="0.15915">
        <ele>1856</ele>
        <time>2021-01-29T12:33:30Z</time>
      </trkpt>
      <trkpt lat="42.78253" lon="0.15915">
        <ele>1856</ele>
        <time>2021-01-29T12:33:31Z</time>
      </trkpt>
      <trkpt lat="42.78253" lon="0.15915">
        <ele>1856</ele>
        <time>2021-01-29T12:33:32Z</time>
      </trkpt>
      <trkpt lat="42.78253" lon="0.15915">
        <ele>1856</ele>
        <time>2021-01-29T12:33:33Z</time>
      </trkpt>
      <trkpt lat="42.78253" lon="0.15915">
        <ele>1856</ele>
        <time>2021-01-29T12:33:34Z</time>
      </trkpt>
      <trkpt lat="42.78253" lon="0.15915">
        <ele>1856</ele>
        <time>2021-01-29T12:33:35Z</time>
      </trkpt>
      <trkpt lat="42.78253" lon="0.15915">
        <ele>1856</ele>
        <time>2021-01-29T12:33:36Z</time>
      </trkpt>
      <trkpt lat="42.78253" lon="0.15915">
        <ele>1856</ele>
        <time>2021-01-29T12:33:37Z</time>
      </trkpt>
      <trkpt lat="42.78253" lon="0.15915">
        <ele>1856</ele>
        <time>2021-01-29T12:33:38Z</time>
      </trkpt>
      <trkpt lat="42.78253" lon="0.15915">
        <ele>1856</ele>
        <time>2021-01-29T12:33:39Z</time>
      </trkpt>
      <trkpt lat="42.78253" lon="0.15915">
        <ele>1856</ele>
        <time>2021-01-29T12:33:40Z</time>
      </trkpt>
      <trkpt lat="42.78253" lon="0.15915">
        <ele>1856</ele>
        <time>2021-01-29T12:33:41Z</time>
      </trkpt>
      <trkpt lat="42.78253" lon="0.15915">
        <ele>1856</ele>
        <time>2021-01-29T12:33:42Z</time>
      </trkpt>
      <trkpt lat="42.78253" lon="0.15915">
        <ele>1856</ele>
        <time>2021-01-29T12:33:43Z</time>
      </trkpt>
      <trkpt lat="42.78253" lon="0.15915">
        <ele>1856</ele>
        <time>2021-01-29T12:33:44Z</time>
      </trkpt>
      <trkpt lat="42.78253" lon="0.15915">
        <ele>1856</ele>
        <time>2021-01-29T12:33:45Z</time>
      </trkpt>
      <trkpt lat="42.78253" lon="0.15915">
        <ele>1856</ele>
        <time>2021-01-29T12:33:46Z</time>
      </trkpt>
      <trkpt lat="42.78253" lon="0.15915">
        <ele>1856</ele>
        <time>2021-01-29T12:33:47Z</time>
      </trkpt>
      <trkpt lat="42.78253" lon="0.15915">
        <ele>1856</ele>
        <time>2021-01-29T12:33:48Z</time>
      </trkpt>
      <trkpt lat="42.78253" lon="0.15915">
        <ele>1856</ele>
        <time>2021-01-29T12:33:49Z</time>
      </trkpt>
      <trkpt lat="42.78253" lon="0.15915">
        <ele>1856</ele>
        <time>2021-01-29T12:33:50Z</time>
      </trkpt>
      <trkpt lat="42.78253" lon="0.15915">
        <ele>1856</ele>
        <time>2021-01-29T12:33:51Z</time>
      </trkpt>
      <trkpt lat="42.78253" lon="0.15915">
        <ele>1856</ele>
        <time>2021-01-29T12:33:52Z</time>
      </trkpt>
      <trkpt lat="42.78253" lon="0.15915">
        <ele>1856</ele>
        <time>2021-01-29T12:33:53Z</time>
      </trkpt>
      <trkpt lat="42.78253" lon="0.15915">
        <ele>1856</ele>
        <time>2021-01-29T12:33:54Z</time>
      </trkpt>
      <trkpt lat="42.78253" lon="0.15915">
        <ele>1856</ele>
        <time>2021-01-29T12:33:55Z</time>
      </trkpt>
      <trkpt lat="42.78253" lon="0.15915">
        <ele>1856.2</ele>
        <time>2021-01-29T12:33:56Z</time>
      </trkpt>
      <trkpt lat="42.78253" lon="0.15915">
        <ele>1856.2</ele>
        <time>2021-01-29T12:33:57Z</time>
      </trkpt>
      <trkpt lat="42.78253" lon="0.15915">
        <ele>1856.2</ele>
        <time>2021-01-29T12:33:58Z</time>
      </trkpt>
      <trkpt lat="42.78253" lon="0.15915">
        <ele>1856.2</ele>
        <time>2021-01-29T12:33:59Z</time>
      </trkpt>
      <trkpt lat="42.78253" lon="0.15915">
        <ele>1856.2</ele>
        <time>2021-01-29T12:34:00Z</time>
      </trkpt>
      <trkpt lat="42.78253" lon="0.15915">
        <ele>1856.2</ele>
        <time>2021-01-29T12:34:01Z</time>
      </trkpt>
      <trkpt lat="42.78253" lon="0.15915">
        <ele>1856.2</ele>
        <time>2021-01-29T12:34:02Z</time>
      </trkpt>
      <trkpt lat="42.78253" lon="0.15915">
        <ele>1856.2</ele>
        <time>2021-01-29T12:34:03Z</time>
      </trkpt>
      <trkpt lat="42.78253" lon="0.15915">
        <ele>1856.2</ele>
        <time>2021-01-29T12:34:04Z</time>
      </trkpt>
      <trkpt lat="42.78253" lon="0.15915">
        <ele>1856.2</ele>
        <time>2021-01-29T12:34:05Z</time>
      </trkpt>
      <trkpt lat="42.78253" lon="0.15915">
        <ele>1856.2</ele>
        <time>2021-01-29T12:34:06Z</time>
      </trkpt>
      <trkpt lat="42.78253" lon="0.15915">
        <ele>1856.2</ele>
        <time>2021-01-29T12:34:07Z</time>
      </trkpt>
      <trkpt lat="42.78253" lon="0.15915">
        <ele>1856.2</ele>
        <time>2021-01-29T12:34:08Z</time>
      </trkpt>
      <trkpt lat="42.78253" lon="0.15915">
        <ele>1856.2</ele>
        <time>2021-01-29T12:34:09Z</time>
      </trkpt>
      <trkpt lat="42.78253" lon="0.15915">
        <ele>1856.2</ele>
        <time>2021-01-29T12:34:10Z</time>
      </trkpt>
      <trkpt lat="42.78253" lon="0.15915">
        <ele>1856.2</ele>
        <time>2021-01-29T12:34:11Z</time>
      </trkpt>
      <trkpt lat="42.78253" lon="0.15915">
        <ele>1856.2</ele>
        <time>2021-01-29T12:34:12Z</time>
      </trkpt>
      <trkpt lat="42.78253" lon="0.15915">
        <ele>1856.2</ele>
        <time>2021-01-29T12:34:13Z</time>
      </trkpt>
      <trkpt lat="42.78253" lon="0.15915">
        <ele>1856.2</ele>
        <time>2021-01-29T12:34:14Z</time>
      </trkpt>
      <trkpt lat="42.78253" lon="0.15915">
        <ele>1856.2</ele>
        <time>2021-01-29T12:34:15Z</time>
      </trkpt>
      <trkpt lat="42.78253" lon="0.15915">
        <ele>1856.2</ele>
        <time>2021-01-29T12:34:16Z</time>
      </trkpt>
      <trkpt lat="42.78253" lon="0.15915">
        <ele>1856.2</ele>
        <time>2021-01-29T12:34:17Z</time>
      </trkpt>
      <trkpt lat="42.78253" lon="0.15915">
        <ele>1856.2</ele>
        <time>2021-01-29T12:34:18Z</time>
      </trkpt>
      <trkpt lat="42.78253" lon="0.15915">
        <ele>1856.2</ele>
        <time>2021-01-29T12:34:19Z</time>
      </trkpt>
      <trkpt lat="42.78253" lon="0.15915">
        <ele>1856.2</ele>
        <time>2021-01-29T12:34:20Z</time>
      </trkpt>
      <trkpt lat="42.78253" lon="0.15915">
        <ele>1856.2</ele>
        <time>2021-01-29T12:34:21Z</time>
      </trkpt>
      <trkpt lat="42.78253" lon="0.15915">
        <ele>1856.2</ele>
        <time>2021-01-29T12:34:22Z</time>
      </trkpt>
      <trkpt lat="42.78253" lon="0.15915">
        <ele>1856.2</ele>
        <time>2021-01-29T12:34:23Z</time>
      </trkpt>
      <trkpt lat="42.78253" lon="0.15915">
        <ele>1856.2</ele>
        <time>2021-01-29T12:34:24Z</time>
      </trkpt>
      <trkpt lat="42.78253" lon="0.15915">
        <ele>1856.2</ele>
        <time>2021-01-29T12:34:25Z</time>
      </trkpt>
      <trkpt lat="42.78253" lon="0.15915">
        <ele>1856.2</ele>
        <time>2021-01-29T12:34:26Z</time>
      </trkpt>
      <trkpt lat="42.78253" lon="0.15915">
        <ele>1856.2</ele>
        <time>2021-01-29T12:34:27Z</time>
      </trkpt>
      <trkpt lat="42.78253" lon="0.15915">
        <ele>1856.2</ele>
        <time>2021-01-29T12:34:28Z</time>
      </trkpt>
      <trkpt lat="42.78253" lon="0.15915">
        <ele>1856.2</ele>
        <time>2021-01-29T12:34:29Z</time>
      </trkpt>
      <trkpt lat="42.78253" lon="0.15915">
        <ele>1856.2</ele>
        <time>2021-01-29T12:34:30Z</time>
      </trkpt>
      <trkpt lat="42.78253" lon="0.15915">
        <ele>1856.2</ele>
        <time>2021-01-29T12:34:31Z</time>
      </trkpt>
      <trkpt lat="42.78253" lon="0.15915">
        <ele>1856.2</ele>
        <time>2021-01-29T12:34:32Z</time>
      </trkpt>
      <trkpt lat="42.78253" lon="0.15915">
        <ele>1856.2</ele>
        <time>2021-01-29T12:34:33Z</time>
      </trkpt>
      <trkpt lat="42.78253" lon="0.15915">
        <ele>1856.2</ele>
        <time>2021-01-29T12:34:34Z</time>
      </trkpt>
      <trkpt lat="42.78253" lon="0.15915">
        <ele>1856.2</ele>
        <time>2021-01-29T12:34:35Z</time>
      </trkpt>
      <trkpt lat="42.78253" lon="0.15915">
        <ele>1856.2</ele>
        <time>2021-01-29T12:34:36Z</time>
      </trkpt>
      <trkpt lat="42.78253" lon="0.15915">
        <ele>1856.2</ele>
        <time>2021-01-29T12:34:37Z</time>
      </trkpt>
      <trkpt lat="42.78253" lon="0.15915">
        <ele>1856.2</ele>
        <time>2021-01-29T12:34:38Z</time>
      </trkpt>
      <trkpt lat="42.78253" lon="0.15915">
        <ele>1856.2</ele>
        <time>2021-01-29T12:34:39Z</time>
      </trkpt>
      <trkpt lat="42.78253" lon="0.15915">
        <ele>1856.2</ele>
        <time>2021-01-29T12:34:40Z</time>
      </trkpt>
      <trkpt lat="42.78253" lon="0.15915">
        <ele>1856.2</ele>
        <time>2021-01-29T12:34:41Z</time>
      </trkpt>
      <trkpt lat="42.78253" lon="0.15915">
        <ele>1856.2</ele>
        <time>2021-01-29T12:34:42Z</time>
      </trkpt>
      <trkpt lat="42.78253" lon="0.15915">
        <ele>1856.2</ele>
        <time>2021-01-29T12:34:43Z</time>
      </trkpt>
      <trkpt lat="42.78253" lon="0.15915">
        <ele>1856.2</ele>
        <time>2021-01-29T12:34:44Z</time>
      </trkpt>
      <trkpt lat="42.78253" lon="0.15915">
        <ele>1856.2</ele>
        <time>2021-01-29T12:34:45Z</time>
      </trkpt>
      <trkpt lat="42.78253" lon="0.15915">
        <ele>1856.2</ele>
        <time>2021-01-29T12:34:46Z</time>
      </trkpt>
      <trkpt lat="42.78253" lon="0.15915">
        <ele>1856.2</ele>
        <time>2021-01-29T12:34:47Z</time>
      </trkpt>
      <trkpt lat="42.78253" lon="0.15915">
        <ele>1856.2</ele>
        <time>2021-01-29T12:34:48Z</time>
      </trkpt>
      <trkpt lat="42.78253" lon="0.15915">
        <ele>1856.2</ele>
        <time>2021-01-29T12:34:49Z</time>
      </trkpt>
      <trkpt lat="42.78253" lon="0.15915">
        <ele>1856.2</ele>
        <time>2021-01-29T12:34:50Z</time>
      </trkpt>
      <trkpt lat="42.78253" lon="0.15915">
        <ele>1856.2</ele>
        <time>2021-01-29T12:34:51Z</time>
      </trkpt>
      <trkpt lat="42.78253" lon="0.15915">
        <ele>1856.2</ele>
        <time>2021-01-29T12:34:52Z</time>
      </trkpt>
      <trkpt lat="42.78253" lon="0.15915">
        <ele>1856.2</ele>
        <time>2021-01-29T12:34:53Z</time>
      </trkpt>
      <trkpt lat="42.78253" lon="0.15915">
        <ele>1856.2</ele>
        <time>2021-01-29T12:34:54Z</time>
      </trkpt>
      <trkpt lat="42.78253" lon="0.15915">
        <ele>1856.2</ele>
        <time>2021-01-29T12:34:55Z</time>
      </trkpt>
      <trkpt lat="42.78253" lon="0.15915">
        <ele>1856.2</ele>
        <time>2021-01-29T12:34:56Z</time>
      </trkpt>
      <trkpt lat="42.78253" lon="0.15915">
        <ele>1856.2</ele>
        <time>2021-01-29T12:34:57Z</time>
      </trkpt>
      <trkpt lat="42.78253" lon="0.15915">
        <ele>1856.2</ele>
        <time>2021-01-29T12:34:58Z</time>
      </trkpt>
      <trkpt lat="42.78253" lon="0.15915">
        <ele>1856.2</ele>
        <time>2021-01-29T12:34:59Z</time>
      </trkpt>
      <trkpt lat="42.78253" lon="0.15915">
        <ele>1856.2</ele>
        <time>2021-01-29T12:35:00Z</time>
      </trkpt>
      <trkpt lat="42.78253" lon="0.15915">
        <ele>1856.2</ele>
        <time>2021-01-29T12:35:01Z</time>
      </trkpt>
      <trkpt lat="42.78253" lon="0.15915">
        <ele>1856.2</ele>
        <time>2021-01-29T12:35:02Z</time>
      </trkpt>
      <trkpt lat="42.78253" lon="0.15915">
        <ele>1856.2</ele>
        <time>2021-01-29T12:35:03Z</time>
      </trkpt>
      <trkpt lat="42.78253" lon="0.15915">
        <ele>1856.2</ele>
        <time>2021-01-29T12:35:04Z</time>
      </trkpt>
      <trkpt lat="42.78253" lon="0.15915">
        <ele>1856.4</ele>
        <time>2021-01-29T12:35:05Z</time>
      </trkpt>
      <trkpt lat="42.78253" lon="0.15915">
        <ele>1856.2</ele>
        <time>2021-01-29T12:35:06Z</time>
      </trkpt>
      <trkpt lat="42.78253" lon="0.15915">
        <ele>1856.4</ele>
        <time>2021-01-29T12:35:07Z</time>
      </trkpt>
      <trkpt lat="42.78253" lon="0.15915">
        <ele>1856.4</ele>
        <time>2021-01-29T12:35:08Z</time>
      </trkpt>
      <trkpt lat="42.78253" lon="0.15915">
        <ele>1856.4</ele>
        <time>2021-01-29T12:35:09Z</time>
      </trkpt>
      <trkpt lat="42.78253" lon="0.15915">
        <ele>1856.4</ele>
        <time>2021-01-29T12:35:10Z</time>
      </trkpt>
      <trkpt lat="42.78253" lon="0.15915">
        <ele>1856.4</ele>
        <time>2021-01-29T12:35:11Z</time>
      </trkpt>
      <trkpt lat="42.78253" lon="0.15915">
        <ele>1856.4</ele>
        <time>2021-01-29T12:35:12Z</time>
      </trkpt>
      <trkpt lat="42.78253" lon="0.15915">
        <ele>1856.4</ele>
        <time>2021-01-29T12:35:13Z</time>
      </trkpt>
      <trkpt lat="42.78253" lon="0.15915">
        <ele>1856.4</ele>
        <time>2021-01-29T12:35:14Z</time>
      </trkpt>
      <trkpt lat="42.78253" lon="0.15915">
        <ele>1856.2</ele>
        <time>2021-01-29T12:35:15Z</time>
      </trkpt>
      <trkpt lat="42.78253" lon="0.15915">
        <ele>1856.2</ele>
        <time>2021-01-29T12:35:16Z</time>
      </trkpt>
      <trkpt lat="42.78253" lon="0.15915">
        <ele>1856.2</ele>
        <time>2021-01-29T12:35:17Z</time>
      </trkpt>
      <trkpt lat="42.78253" lon="0.15915">
        <ele>1856.4</ele>
        <time>2021-01-29T12:35:18Z</time>
      </trkpt>
      <trkpt lat="42.78253" lon="0.15915">
        <ele>1856.4</ele>
        <time>2021-01-29T12:35:19Z</time>
      </trkpt>
      <trkpt lat="42.78253" lon="0.15915">
        <ele>1856.4</ele>
        <time>2021-01-29T12:35:20Z</time>
      </trkpt>
      <trkpt lat="42.78253" lon="0.15915">
        <ele>1856.2</ele>
        <time>2021-01-29T12:35:21Z</time>
      </trkpt>
      <trkpt lat="42.78253" lon="0.15915">
        <ele>1856.2</ele>
        <time>2021-01-29T12:35:22Z</time>
      </trkpt>
      <trkpt lat="42.78253" lon="0.15915">
        <ele>1856.4</ele>
        <time>2021-01-29T12:35:23Z</time>
      </trkpt>
      <trkpt lat="42.78253" lon="0.15913">
        <ele>1856.4</ele>
        <time>2021-01-29T12:35:24Z</time>
      </trkpt>
      <trkpt lat="42.78252" lon="0.15913">
        <ele>1856.4</ele>
        <time>2021-01-29T12:35:25Z</time>
      </trkpt>
      <trkpt lat="42.78252" lon="0.15912">
        <ele>1856.4</ele>
        <time>2021-01-29T12:35:26Z</time>
      </trkpt>
      <trkpt lat="42.78251" lon="0.15912">
        <ele>1856.4</ele>
        <time>2021-01-29T12:35:27Z</time>
      </trkpt>
      <trkpt lat="42.7825" lon="0.15911">
        <ele>1856.2</ele>
        <time>2021-01-29T12:35:28Z</time>
      </trkpt>
      <trkpt lat="42.7825" lon="0.15911">
        <ele>1856.4</ele>
        <time>2021-01-29T12:35:29Z</time>
      </trkpt>
      <trkpt lat="42.78249" lon="0.1591">
        <ele>1856.4</ele>
        <time>2021-01-29T12:35:30Z</time>
      </trkpt>
      <trkpt lat="42.78248" lon="0.1591">
        <ele>1856.4</ele>
        <time>2021-01-29T12:35:31Z</time>
      </trkpt>
      <trkpt lat="42.78247" lon="0.15909">
        <ele>1856.4</ele>
        <time>2021-01-29T12:35:32Z</time>
      </trkpt>
      <trkpt lat="42.78246" lon="0.15908">
        <ele>1856.4</ele>
        <time>2021-01-29T12:35:33Z</time>
      </trkpt>
      <trkpt lat="42.78246" lon="0.15907">
        <ele>1856.4</ele>
        <time>2021-01-29T12:35:34Z</time>
      </trkpt>
      <trkpt lat="42.78245" lon="0.15907">
        <ele>1856.4</ele>
        <time>2021-01-29T12:35:35Z</time>
      </trkpt>
      <trkpt lat="42.78244" lon="0.15906">
        <ele>1856.4</ele>
        <time>2021-01-29T12:35:36Z</time>
      </trkpt>
      <trkpt lat="42.78244" lon="0.15905">
        <ele>1856.4</ele>
        <time>2021-01-29T12:35:37Z</time>
      </trkpt>
      <trkpt lat="42.78243" lon="0.15905">
        <ele>1856.6</ele>
        <time>2021-01-29T12:35:38Z</time>
      </trkpt>
      <trkpt lat="42.78242" lon="0.15904">
        <ele>1856.4</ele>
        <time>2021-01-29T12:35:39Z</time>
      </trkpt>
      <trkpt lat="42.78241" lon="0.15904">
        <ele>1856.6</ele>
        <time>2021-01-29T12:35:40Z</time>
      </trkpt>
      <trkpt lat="42.7824" lon="0.15903">
        <ele>1856.8</ele>
        <time>2021-01-29T12:35:41Z</time>
      </trkpt>
      <trkpt lat="42.78239" lon="0.15903">
        <ele>1856.6</ele>
        <time>2021-01-29T12:35:42Z</time>
      </trkpt>
      <trkpt lat="42.78239" lon="0.15902">
        <ele>1856.8</ele>
        <time>2021-01-29T12:35:43Z</time>
      </trkpt>
      <trkpt lat="42.78238" lon="0.15902">
        <ele>1856.8</ele>
        <time>2021-01-29T12:35:44Z</time>
      </trkpt>
      <trkpt lat="42.78237" lon="0.15901">
        <ele>1857</ele>
        <time>2021-01-29T12:35:45Z</time>
      </trkpt>
      <trkpt lat="42.78236" lon="0.15901">
        <ele>1857.2</ele>
        <time>2021-01-29T12:35:46Z</time>
      </trkpt>
      <trkpt lat="42.78236" lon="0.159">
        <ele>1857.2</ele>
        <time>2021-01-29T12:35:47Z</time>
      </trkpt>
      <trkpt lat="42.78235" lon="0.159">
        <ele>1857.4</ele>
        <time>2021-01-29T12:35:48Z</time>
      </trkpt>
      <trkpt lat="42.78235" lon="0.15899">
        <ele>1857.6</ele>
        <time>2021-01-29T12:35:49Z</time>
      </trkpt>
      <trkpt lat="42.78234" lon="0.15899">
        <ele>1857.6</ele>
        <time>2021-01-29T12:35:50Z</time>
      </trkpt>
      <trkpt lat="42.78233" lon="0.15898">
        <ele>1857.8</ele>
        <time>2021-01-29T12:35:51Z</time>
      </trkpt>
      <trkpt lat="42.78233" lon="0.15898">
        <ele>1858</ele>
        <time>2021-01-29T12:35:52Z</time>
      </trkpt>
      <trkpt lat="42.78232" lon="0.15897">
        <ele>1858.2</ele>
        <time>2021-01-29T12:35:53Z</time>
      </trkpt>
      <trkpt lat="42.78232" lon="0.15896">
        <ele>1858</ele>
        <time>2021-01-29T12:35:54Z</time>
      </trkpt>
      <trkpt lat="42.78231" lon="0.15896">
        <ele>1858.4</ele>
        <time>2021-01-29T12:35:55Z</time>
      </trkpt>
      <trkpt lat="42.7823" lon="0.15895">
        <ele>1858.6</ele>
        <time>2021-01-29T12:35:56Z</time>
      </trkpt>
      <trkpt lat="42.78229" lon="0.15895">
        <ele>1858.6</ele>
        <time>2021-01-29T12:35:57Z</time>
      </trkpt>
      <trkpt lat="42.78229" lon="0.15894">
        <ele>1858.8</ele>
        <time>2021-01-29T12:35:58Z</time>
      </trkpt>
      <trkpt lat="42.78228" lon="0.15893">
        <ele>1859</ele>
        <time>2021-01-29T12:35:59Z</time>
      </trkpt>
      <trkpt lat="42.78228" lon="0.15893">
        <ele>1859.2</ele>
        <time>2021-01-29T12:36:00Z</time>
      </trkpt>
      <trkpt lat="42.78227" lon="0.15892">
        <ele>1859.4</ele>
        <time>2021-01-29T12:36:01Z</time>
      </trkpt>
      <trkpt lat="42.78226" lon="0.15892">
        <ele>1859.8</ele>
        <time>2021-01-29T12:36:02Z</time>
      </trkpt>
      <trkpt lat="42.78226" lon="0.15891">
        <ele>1859.8</ele>
        <time>2021-01-29T12:36:03Z</time>
      </trkpt>
      <trkpt lat="42.78225" lon="0.15891">
        <ele>1860.2</ele>
        <time>2021-01-29T12:36:04Z</time>
      </trkpt>
      <trkpt lat="42.78224" lon="0.1589">
        <ele>1860.4</ele>
        <time>2021-01-29T12:36:05Z</time>
      </trkpt>
      <trkpt lat="42.78224" lon="0.1589">
        <ele>1860.6</ele>
        <time>2021-01-29T12:36:06Z</time>
      </trkpt>
      <trkpt lat="42.78223" lon="0.15889">
        <ele>1860.8</ele>
        <time>2021-01-29T12:36:07Z</time>
      </trkpt>
      <trkpt lat="42.78223" lon="0.15889">
        <ele>1861</ele>
        <time>2021-01-29T12:36:08Z</time>
      </trkpt>
      <trkpt lat="42.78222" lon="0.15889">
        <ele>1861.2</ele>
        <time>2021-01-29T12:36:09Z</time>
      </trkpt>
      <trkpt lat="42.78221" lon="0.15888">
        <ele>1861.4</ele>
        <time>2021-01-29T12:36:10Z</time>
      </trkpt>
      <trkpt lat="42.78221" lon="0.15888">
        <ele>1861.6</ele>
        <time>2021-01-29T12:36:11Z</time>
      </trkpt>
      <trkpt lat="42.7822" lon="0.15887">
        <ele>1861.8</ele>
        <time>2021-01-29T12:36:12Z</time>
      </trkpt>
      <trkpt lat="42.7822" lon="0.15887">
        <ele>1862</ele>
        <time>2021-01-29T12:36:13Z</time>
      </trkpt>
      <trkpt lat="42.78219" lon="0.15886">
        <ele>1862.2</ele>
        <time>2021-01-29T12:36:14Z</time>
      </trkpt>
      <trkpt lat="42.78219" lon="0.15886">
        <ele>1862.4</ele>
        <time>2021-01-29T12:36:15Z</time>
      </trkpt>
      <trkpt lat="42.78218" lon="0.15885">
        <ele>1862.4</ele>
        <time>2021-01-29T12:36:16Z</time>
      </trkpt>
      <trkpt lat="42.78217" lon="0.15885">
        <ele>1862.8</ele>
        <time>2021-01-29T12:36:17Z</time>
      </trkpt>
      <trkpt lat="42.78217" lon="0.15884">
        <ele>1863</ele>
        <time>2021-01-29T12:36:18Z</time>
      </trkpt>
      <trkpt lat="42.78216" lon="0.15884">
        <ele>1863</ele>
        <time>2021-01-29T12:36:19Z</time>
      </trkpt>
      <trkpt lat="42.78215" lon="0.15883">
        <ele>1863.2</ele>
        <time>2021-01-29T12:36:20Z</time>
      </trkpt>
      <trkpt lat="42.78215" lon="0.15883">
        <ele>1863.6</ele>
        <time>2021-01-29T12:36:21Z</time>
      </trkpt>
      <trkpt lat="42.78214" lon="0.15883">
        <ele>1863.6</ele>
        <time>2021-01-29T12:36:22Z</time>
      </trkpt>
      <trkpt lat="42.78213" lon="0.15882">
        <ele>1864</ele>
        <time>2021-01-29T12:36:23Z</time>
      </trkpt>
      <trkpt lat="42.78213" lon="0.15882">
        <ele>1864.2</ele>
        <time>2021-01-29T12:36:24Z</time>
      </trkpt>
      <trkpt lat="42.78212" lon="0.15882">
        <ele>1864.2</ele>
        <time>2021-01-29T12:36:25Z</time>
      </trkpt>
      <trkpt lat="42.78211" lon="0.15881">
        <ele>1864.4</ele>
        <time>2021-01-29T12:36:26Z</time>
      </trkpt>
      <trkpt lat="42.78211" lon="0.15881">
        <ele>1864.8</ele>
        <time>2021-01-29T12:36:27Z</time>
      </trkpt>
      <trkpt lat="42.7821" lon="0.1588">
        <ele>1864.8</ele>
        <time>2021-01-29T12:36:28Z</time>
      </trkpt>
      <trkpt lat="42.7821" lon="0.1588">
        <ele>1865</ele>
        <time>2021-01-29T12:36:29Z</time>
      </trkpt>
      <trkpt lat="42.78209" lon="0.1588">
        <ele>1865.4</ele>
        <time>2021-01-29T12:36:30Z</time>
      </trkpt>
      <trkpt lat="42.78208" lon="0.15879">
        <ele>1865.4</ele>
        <time>2021-01-29T12:36:31Z</time>
      </trkpt>
      <trkpt lat="42.78208" lon="0.15879">
        <ele>1865.4</ele>
        <time>2021-01-29T12:36:32Z</time>
      </trkpt>
      <trkpt lat="42.78207" lon="0.15879">
        <ele>1865.8</ele>
        <time>2021-01-29T12:36:33Z</time>
      </trkpt>
      <trkpt lat="42.78206" lon="0.15878">
        <ele>1866</ele>
        <time>2021-01-29T12:36:34Z</time>
      </trkpt>
      <trkpt lat="42.78206" lon="0.15878">
        <ele>1866.2</ele>
        <time>2021-01-29T12:36:35Z</time>
      </trkpt>
      <trkpt lat="42.78205" lon="0.15878">
        <ele>1866.4</ele>
        <time>2021-01-29T12:36:36Z</time>
      </trkpt>
      <trkpt lat="42.78204" lon="0.15877">
        <ele>1866.6</ele>
        <time>2021-01-29T12:36:37Z</time>
      </trkpt>
      <trkpt lat="42.78204" lon="0.15877">
        <ele>1866.6</ele>
        <time>2021-01-29T12:36:38Z</time>
      </trkpt>
      <trkpt lat="42.78203" lon="0.15877">
        <ele>1867</ele>
        <time>2021-01-29T12:36:39Z</time>
      </trkpt>
      <trkpt lat="42.78203" lon="0.15876">
        <ele>1867</ele>
        <time>2021-01-29T12:36:40Z</time>
      </trkpt>
      <trkpt lat="42.78202" lon="0.15876">
        <ele>1867.2</ele>
        <time>2021-01-29T12:36:41Z</time>
      </trkpt>
      <trkpt lat="42.78201" lon="0.15876">
        <ele>1867.4</ele>
        <time>2021-01-29T12:36:42Z</time>
      </trkpt>
      <trkpt lat="42.782" lon="0.15875">
        <ele>1867.4</ele>
        <time>2021-01-29T12:36:43Z</time>
      </trkpt>
      <trkpt lat="42.782" lon="0.15875">
        <ele>1867.6</ele>
        <time>2021-01-29T12:36:44Z</time>
      </trkpt>
      <trkpt lat="42.78199" lon="0.15875">
        <ele>1867.8</ele>
        <time>2021-01-29T12:36:45Z</time>
      </trkpt>
      <trkpt lat="42.78198" lon="0.15874">
        <ele>1867.8</ele>
        <time>2021-01-29T12:36:46Z</time>
      </trkpt>
      <trkpt lat="42.78198" lon="0.15874">
        <ele>1868.2</ele>
        <time>2021-01-29T12:36:47Z</time>
      </trkpt>
      <trkpt lat="42.78197" lon="0.15874">
        <ele>1868.4</ele>
        <time>2021-01-29T12:36:48Z</time>
      </trkpt>
      <trkpt lat="42.78196" lon="0.15873">
        <ele>1868.4</ele>
        <time>2021-01-29T12:36:49Z</time>
      </trkpt>
      <trkpt lat="42.78196" lon="0.15873">
        <ele>1868.6</ele>
        <time>2021-01-29T12:36:50Z</time>
      </trkpt>
      <trkpt lat="42.78195" lon="0.15873">
        <ele>1868.8</ele>
        <time>2021-01-29T12:36:51Z</time>
      </trkpt>
      <trkpt lat="42.78195" lon="0.15873">
        <ele>1868.8</ele>
        <time>2021-01-29T12:36:52Z</time>
      </trkpt>
      <trkpt lat="42.78194" lon="0.15873">
        <ele>1869.2</ele>
        <time>2021-01-29T12:36:53Z</time>
      </trkpt>
      <trkpt lat="42.78193" lon="0.15873">
        <ele>1869.4</ele>
        <time>2021-01-29T12:36:54Z</time>
      </trkpt>
      <trkpt lat="42.78193" lon="0.15873">
        <ele>1869.4</ele>
        <time>2021-01-29T12:36:55Z</time>
      </trkpt>
      <trkpt lat="42.78192" lon="0.15873">
        <ele>1869.6</ele>
        <time>2021-01-29T12:36:56Z</time>
      </trkpt>
      <trkpt lat="42.78191" lon="0.15873">
        <ele>1869.8</ele>
        <time>2021-01-29T12:36:57Z</time>
      </trkpt>
      <trkpt lat="42.78191" lon="0.15874">
        <ele>1870</ele>
        <time>2021-01-29T12:36:58Z</time>
      </trkpt>
      <trkpt lat="42.7819" lon="0.15874">
        <ele>1870.2</ele>
        <time>2021-01-29T12:36:59Z</time>
      </trkpt>
      <trkpt lat="42.78189" lon="0.15874">
        <ele>1870.4</ele>
        <time>2021-01-29T12:37:00Z</time>
      </trkpt>
      <trkpt lat="42.78189" lon="0.15875">
        <ele>1870.4</ele>
        <time>2021-01-29T12:37:01Z</time>
      </trkpt>
      <trkpt lat="42.78188" lon="0.15875">
        <ele>1870.6</ele>
        <time>2021-01-29T12:37:02Z</time>
      </trkpt>
      <trkpt lat="42.78188" lon="0.15876">
        <ele>1871</ele>
        <time>2021-01-29T12:37:03Z</time>
      </trkpt>
      <trkpt lat="42.78187" lon="0.15876">
        <ele>1871.2</ele>
        <time>2021-01-29T12:37:04Z</time>
      </trkpt>
      <trkpt lat="42.78186" lon="0.15876">
        <ele>1871.4</ele>
        <time>2021-01-29T12:37:05Z</time>
      </trkpt>
      <trkpt lat="42.78186" lon="0.15876">
        <ele>1871.8</ele>
        <time>2021-01-29T12:37:06Z</time>
      </trkpt>
      <trkpt lat="42.78185" lon="0.15876">
        <ele>1871.8</ele>
        <time>2021-01-29T12:37:07Z</time>
      </trkpt>
      <trkpt lat="42.78184" lon="0.15876">
        <ele>1872</ele>
        <time>2021-01-29T12:37:08Z</time>
      </trkpt>
      <trkpt lat="42.78183" lon="0.15876">
        <ele>1872.2</ele>
        <time>2021-01-29T12:37:09Z</time>
      </trkpt>
      <trkpt lat="42.78183" lon="0.15876">
        <ele>1872.4</ele>
        <time>2021-01-29T12:37:10Z</time>
      </trkpt>
      <trkpt lat="42.78182" lon="0.15876">
        <ele>1872.4</ele>
        <time>2021-01-29T12:37:11Z</time>
      </trkpt>
      <trkpt lat="42.78181" lon="0.15876">
        <ele>1872.6</ele>
        <time>2021-01-29T12:37:12Z</time>
      </trkpt>
      <trkpt lat="42.7818" lon="0.15876">
        <ele>1872.8</ele>
        <time>2021-01-29T12:37:13Z</time>
      </trkpt>
      <trkpt lat="42.78179" lon="0.15876">
        <ele>1872.8</ele>
        <time>2021-01-29T12:37:14Z</time>
      </trkpt>
      <trkpt lat="42.78178" lon="0.15876">
        <ele>1873</ele>
        <time>2021-01-29T12:37:15Z</time>
      </trkpt>
      <trkpt lat="42.78178" lon="0.15875">
        <ele>1873.2</ele>
        <time>2021-01-29T12:37:16Z</time>
      </trkpt>
      <trkpt lat="42.78177" lon="0.15875">
        <ele>1873.2</ele>
        <time>2021-01-29T12:37:17Z</time>
      </trkpt>
      <trkpt lat="42.78176" lon="0.15875">
        <ele>1873.2</ele>
        <time>2021-01-29T12:37:18Z</time>
      </trkpt>
      <trkpt lat="42.78175" lon="0.15875">
        <ele>1873.4</ele>
        <time>2021-01-29T12:37:19Z</time>
      </trkpt>
      <trkpt lat="42.78174" lon="0.15875">
        <ele>1873.4</ele>
        <time>2021-01-29T12:37:20Z</time>
      </trkpt>
      <trkpt lat="42.78174" lon="0.15875">
        <ele>1873.6</ele>
        <time>2021-01-29T12:37:21Z</time>
      </trkpt>
      <trkpt lat="42.78173" lon="0.15874">
        <ele>1873.8</ele>
        <time>2021-01-29T12:37:22Z</time>
      </trkpt>
      <trkpt lat="42.78172" lon="0.15874">
        <ele>1873.8</ele>
        <time>2021-01-29T12:37:23Z</time>
      </trkpt>
      <trkpt lat="42.78171" lon="0.15874">
        <ele>1873.8</ele>
        <time>2021-01-29T12:37:24Z</time>
      </trkpt>
      <trkpt lat="42.7817" lon="0.15873">
        <ele>1874</ele>
        <time>2021-01-29T12:37:25Z</time>
      </trkpt>
      <trkpt lat="42.7817" lon="0.15873">
        <ele>1874</ele>
        <time>2021-01-29T12:37:26Z</time>
      </trkpt>
      <trkpt lat="42.78169" lon="0.15873">
        <ele>1874</ele>
        <time>2021-01-29T12:37:27Z</time>
      </trkpt>
      <trkpt lat="42.78168" lon="0.15873">
        <ele>1874.2</ele>
        <time>2021-01-29T12:37:28Z</time>
      </trkpt>
      <trkpt lat="42.78167" lon="0.15872">
        <ele>1874.4</ele>
        <time>2021-01-29T12:37:29Z</time>
      </trkpt>
      <trkpt lat="42.78167" lon="0.15872">
        <ele>1874.4</ele>
        <time>2021-01-29T12:37:30Z</time>
      </trkpt>
      <trkpt lat="42.78166" lon="0.15872">
        <ele>1874.6</ele>
        <time>2021-01-29T12:37:31Z</time>
      </trkpt>
      <trkpt lat="42.78165" lon="0.15871">
        <ele>1874.8</ele>
        <time>2021-01-29T12:37:32Z</time>
      </trkpt>
      <trkpt lat="42.78164" lon="0.15871">
        <ele>1874.8</ele>
        <time>2021-01-29T12:37:33Z</time>
      </trkpt>
      <trkpt lat="42.78163" lon="0.15871">
        <ele>1874.8</ele>
        <time>2021-01-29T12:37:34Z</time>
      </trkpt>
      <trkpt lat="42.78163" lon="0.1587">
        <ele>1875</ele>
        <time>2021-01-29T12:37:35Z</time>
      </trkpt>
      <trkpt lat="42.78162" lon="0.1587">
        <ele>1875</ele>
        <time>2021-01-29T12:37:36Z</time>
      </trkpt>
      <trkpt lat="42.78161" lon="0.1587">
        <ele>1875.2</ele>
        <time>2021-01-29T12:37:37Z</time>
      </trkpt>
      <trkpt lat="42.78161" lon="0.15869">
        <ele>1875.4</ele>
        <time>2021-01-29T12:37:38Z</time>
      </trkpt>
      <trkpt lat="42.7816" lon="0.15869">
        <ele>1875.6</ele>
        <time>2021-01-29T12:37:39Z</time>
      </trkpt>
      <trkpt lat="42.7816" lon="0.15869">
        <ele>1875.6</ele>
        <time>2021-01-29T12:37:40Z</time>
      </trkpt>
      <trkpt lat="42.78159" lon="0.15869">
        <ele>1875.8</ele>
        <time>2021-01-29T12:37:41Z</time>
      </trkpt>
      <trkpt lat="42.78158" lon="0.15868">
        <ele>1876</ele>
        <time>2021-01-29T12:37:42Z</time>
      </trkpt>
      <trkpt lat="42.78158" lon="0.15868">
        <ele>1876</ele>
        <time>2021-01-29T12:37:43Z</time>
      </trkpt>
      <trkpt lat="42.78157" lon="0.15868">
        <ele>1876.4</ele>
        <time>2021-01-29T12:37:44Z</time>
      </trkpt>
      <trkpt lat="42.78157" lon="0.15868">
        <ele>1876.4</ele>
        <time>2021-01-29T12:37:45Z</time>
      </trkpt>
      <trkpt lat="42.78156" lon="0.15867">
        <ele>1876.8</ele>
        <time>2021-01-29T12:37:46Z</time>
      </trkpt>
      <trkpt lat="42.78155" lon="0.15867">
        <ele>1876.8</ele>
        <time>2021-01-29T12:37:47Z</time>
      </trkpt>
      <trkpt lat="42.78155" lon="0.15867">
        <ele>1877</ele>
        <time>2021-01-29T12:37:48Z</time>
      </trkpt>
      <trkpt lat="42.78154" lon="0.15867">
        <ele>1877.2</ele>
        <time>2021-01-29T12:37:49Z</time>
      </trkpt>
      <trkpt lat="42.78154" lon="0.15867">
        <ele>1877.4</ele>
        <time>2021-01-29T12:37:50Z</time>
      </trkpt>
      <trkpt lat="42.78153" lon="0.15867">
        <ele>1877.6</ele>
        <time>2021-01-29T12:37:51Z</time>
      </trkpt>
      <trkpt lat="42.78153" lon="0.15866">
        <ele>1877.6</ele>
        <time>2021-01-29T12:37:52Z</time>
      </trkpt>
      <trkpt lat="42.78153" lon="0.15866">
        <ele>1877.6</ele>
        <time>2021-01-29T12:37:53Z</time>
      </trkpt>
      <trkpt lat="42.78153" lon="0.15866">
        <ele>1877.6</ele>
        <time>2021-01-29T12:37:54Z</time>
      </trkpt>
      <trkpt lat="42.78153" lon="0.15866">
        <ele>1878</ele>
        <time>2021-01-29T12:37:55Z</time>
      </trkpt>
      <trkpt lat="42.78152" lon="0.15866">
        <ele>1877.8</ele>
        <time>2021-01-29T12:37:56Z</time>
      </trkpt>
      <trkpt lat="42.78151" lon="0.15866">
        <ele>1878</ele>
        <time>2021-01-29T12:37:57Z</time>
      </trkpt>
      <trkpt lat="42.78151" lon="0.15865">
        <ele>1878.2</ele>
        <time>2021-01-29T12:37:58Z</time>
      </trkpt>
      <trkpt lat="42.7815" lon="0.15865">
        <ele>1878.2</ele>
        <time>2021-01-29T12:37:59Z</time>
      </trkpt>
      <trkpt lat="42.78149" lon="0.15865">
        <ele>1878.4</ele>
        <time>2021-01-29T12:38:00Z</time>
      </trkpt>
      <trkpt lat="42.78149" lon="0.15865">
        <ele>1878.6</ele>
        <time>2021-01-29T12:38:01Z</time>
      </trkpt>
      <trkpt lat="42.78148" lon="0.15864">
        <ele>1878.8</ele>
        <time>2021-01-29T12:38:02Z</time>
      </trkpt>
      <trkpt lat="42.78147" lon="0.15864">
        <ele>1879</ele>
        <time>2021-01-29T12:38:03Z</time>
      </trkpt>
      <trkpt lat="42.78147" lon="0.15864">
        <ele>1879.2</ele>
        <time>2021-01-29T12:38:04Z</time>
      </trkpt>
      <trkpt lat="42.78146" lon="0.15863">
        <ele>1879</ele>
        <time>2021-01-29T12:38:05Z</time>
      </trkpt>
      <trkpt lat="42.78145" lon="0.15863">
        <ele>1879.4</ele>
        <time>2021-01-29T12:38:06Z</time>
      </trkpt>
      <trkpt lat="42.78145" lon="0.15863">
        <ele>1879.6</ele>
        <time>2021-01-29T12:38:07Z</time>
      </trkpt>
      <trkpt lat="42.78144" lon="0.15863">
        <ele>1879.8</ele>
        <time>2021-01-29T12:38:08Z</time>
      </trkpt>
      <trkpt lat="42.78144" lon="0.15862">
        <ele>1880.2</ele>
        <time>2021-01-29T12:38:09Z</time>
      </trkpt>
      <trkpt lat="42.78143" lon="0.15862">
        <ele>1880.2</ele>
        <time>2021-01-29T12:38:10Z</time>
      </trkpt>
      <trkpt lat="42.78142" lon="0.15862">
        <ele>1880.6</ele>
        <time>2021-01-29T12:38:11Z</time>
      </trkpt>
      <trkpt lat="42.78142" lon="0.15862">
        <ele>1880.6</ele>
        <time>2021-01-29T12:38:12Z</time>
      </trkpt>
      <trkpt lat="42.78142" lon="0.15862">
        <ele>1880.8</ele>
        <time>2021-01-29T12:38:13Z</time>
      </trkpt>
      <trkpt lat="42.78141" lon="0.15862">
        <ele>1881.2</ele>
        <time>2021-01-29T12:38:14Z</time>
      </trkpt>
      <trkpt lat="42.7814" lon="0.15862">
        <ele>1881.4</ele>
        <time>2021-01-29T12:38:15Z</time>
      </trkpt>
      <trkpt lat="42.78139" lon="0.15861">
        <ele>1881.4</ele>
        <time>2021-01-29T12:38:16Z</time>
      </trkpt>
      <trkpt lat="42.78139" lon="0.15861">
        <ele>1881.8</ele>
        <time>2021-01-29T12:38:17Z</time>
      </trkpt>
      <trkpt lat="42.78138" lon="0.15861">
        <ele>1881.8</ele>
        <time>2021-01-29T12:38:18Z</time>
      </trkpt>
      <trkpt lat="42.78137" lon="0.15861">
        <ele>1882</ele>
        <time>2021-01-29T12:38:19Z</time>
      </trkpt>
      <trkpt lat="42.78137" lon="0.15861">
        <ele>1882.4</ele>
        <time>2021-01-29T12:38:20Z</time>
      </trkpt>
      <trkpt lat="42.78136" lon="0.15861">
        <ele>1882.4</ele>
        <time>2021-01-29T12:38:21Z</time>
      </trkpt>
      <trkpt lat="42.78136" lon="0.1586">
        <ele>1882.8</ele>
        <time>2021-01-29T12:38:22Z</time>
      </trkpt>
      <trkpt lat="42.78135" lon="0.1586">
        <ele>1883</ele>
        <time>2021-01-29T12:38:23Z</time>
      </trkpt>
      <trkpt lat="42.78135" lon="0.1586">
        <ele>1883.2</ele>
        <time>2021-01-29T12:38:24Z</time>
      </trkpt>
      <trkpt lat="42.78134" lon="0.1586">
        <ele>1883.4</ele>
        <time>2021-01-29T12:38:25Z</time>
      </trkpt>
      <trkpt lat="42.78133" lon="0.1586">
        <ele>1883.6</ele>
        <time>2021-01-29T12:38:26Z</time>
      </trkpt>
      <trkpt lat="42.78133" lon="0.15859">
        <ele>1883.8</ele>
        <time>2021-01-29T12:38:27Z</time>
      </trkpt>
      <trkpt lat="42.78132" lon="0.15859">
        <ele>1884.2</ele>
        <time>2021-01-29T12:38:28Z</time>
      </trkpt>
      <trkpt lat="42.78132" lon="0.15859">
        <ele>1884.4</ele>
        <time>2021-01-29T12:38:29Z</time>
      </trkpt>
      <trkpt lat="42.78132" lon="0.15859">
        <ele>1884.4</ele>
        <time>2021-01-29T12:38:30Z</time>
      </trkpt>
      <trkpt lat="42.78131" lon="0.15859">
        <ele>1885</ele>
        <time>2021-01-29T12:38:31Z</time>
      </trkpt>
      <trkpt lat="42.7813" lon="0.15858">
        <ele>1884.8</ele>
        <time>2021-01-29T12:38:32Z</time>
      </trkpt>
      <trkpt lat="42.78129" lon="0.15858">
        <ele>1885.2</ele>
        <time>2021-01-29T12:38:33Z</time>
      </trkpt>
      <trkpt lat="42.78129" lon="0.15858">
        <ele>1885.4</ele>
        <time>2021-01-29T12:38:34Z</time>
      </trkpt>
      <trkpt lat="42.78128" lon="0.15858">
        <ele>1885.6</ele>
        <time>2021-01-29T12:38:35Z</time>
      </trkpt>
      <trkpt lat="42.78128" lon="0.15858">
        <ele>1886</ele>
        <time>2021-01-29T12:38:36Z</time>
      </trkpt>
      <trkpt lat="42.78127" lon="0.15857">
        <ele>1886</ele>
        <time>2021-01-29T12:38:37Z</time>
      </trkpt>
      <trkpt lat="42.78127" lon="0.15857">
        <ele>1886.2</ele>
        <time>2021-01-29T12:38:38Z</time>
      </trkpt>
      <trkpt lat="42.78126" lon="0.15857">
        <ele>1886.4</ele>
        <time>2021-01-29T12:38:39Z</time>
      </trkpt>
      <trkpt lat="42.78125" lon="0.15857">
        <ele>1886.4</ele>
        <time>2021-01-29T12:38:40Z</time>
      </trkpt>
      <trkpt lat="42.78125" lon="0.15857">
        <ele>1886.8</ele>
        <time>2021-01-29T12:38:41Z</time>
      </trkpt>
      <trkpt lat="42.78125" lon="0.15857">
        <ele>1887</ele>
        <time>2021-01-29T12:38:42Z</time>
      </trkpt>
      <trkpt lat="42.78125" lon="0.15857">
        <ele>1887</ele>
        <time>2021-01-29T12:38:43Z</time>
      </trkpt>
      <trkpt lat="42.78125" lon="0.15857">
        <ele>1887.4</ele>
        <time>2021-01-29T12:38:44Z</time>
      </trkpt>
      <trkpt lat="42.78125" lon="0.15857">
        <ele>1887.4</ele>
        <time>2021-01-29T12:38:45Z</time>
      </trkpt>
      <trkpt lat="42.78123" lon="0.15857">
        <ele>1887.8</ele>
        <time>2021-01-29T12:38:46Z</time>
      </trkpt>
      <trkpt lat="42.78121" lon="0.15857">
        <ele>1888</ele>
        <time>2021-01-29T12:38:47Z</time>
      </trkpt>
      <trkpt lat="42.7812" lon="0.15857">
        <ele>1888.2</ele>
        <time>2021-01-29T12:38:48Z</time>
      </trkpt>
      <trkpt lat="42.7812" lon="0.15857">
        <ele>1888.4</ele>
        <time>2021-01-29T12:38:49Z</time>
      </trkpt>
      <trkpt lat="42.78119" lon="0.15857">
        <ele>1888.6</ele>
        <time>2021-01-29T12:38:50Z</time>
      </trkpt>
      <trkpt lat="42.78119" lon="0.15857">
        <ele>1888.8</ele>
        <time>2021-01-29T12:38:51Z</time>
      </trkpt>
      <trkpt lat="42.78118" lon="0.15857">
        <ele>1889</ele>
        <time>2021-01-29T12:38:52Z</time>
      </trkpt>
      <trkpt lat="42.78117" lon="0.15857">
        <ele>1889.2</ele>
        <time>2021-01-29T12:38:53Z</time>
      </trkpt>
      <trkpt lat="42.78117" lon="0.15857">
        <ele>1889.4</ele>
        <time>2021-01-29T12:38:54Z</time>
      </trkpt>
      <trkpt lat="42.78116" lon="0.15857">
        <ele>1889.4</ele>
        <time>2021-01-29T12:38:55Z</time>
      </trkpt>
      <trkpt lat="42.78116" lon="0.15857">
        <ele>1889.6</ele>
        <time>2021-01-29T12:38:56Z</time>
      </trkpt>
      <trkpt lat="42.78116" lon="0.15857">
        <ele>1890</ele>
        <time>2021-01-29T12:38:57Z</time>
      </trkpt>
      <trkpt lat="42.78116" lon="0.15857">
        <ele>1890</ele>
        <time>2021-01-29T12:38:58Z</time>
      </trkpt>
      <trkpt lat="42.78115" lon="0.15857">
        <ele>1890.2</ele>
        <time>2021-01-29T12:38:59Z</time>
      </trkpt>
      <trkpt lat="42.78113" lon="0.15857">
        <ele>1890.4</ele>
        <time>2021-01-29T12:39:00Z</time>
      </trkpt>
      <trkpt lat="42.78112" lon="0.15857">
        <ele>1890.4</ele>
        <time>2021-01-29T12:39:01Z</time>
      </trkpt>
      <trkpt lat="42.78112" lon="0.15857">
        <ele>1890.6</ele>
        <time>2021-01-29T12:39:02Z</time>
      </trkpt>
      <trkpt lat="42.78111" lon="0.15857">
        <ele>1890.8</ele>
        <time>2021-01-29T12:39:03Z</time>
      </trkpt>
      <trkpt lat="42.78111" lon="0.15857">
        <ele>1891</ele>
        <time>2021-01-29T12:39:04Z</time>
      </trkpt>
      <trkpt lat="42.7811" lon="0.15857">
        <ele>1891.4</ele>
        <time>2021-01-29T12:39:05Z</time>
      </trkpt>
      <trkpt lat="42.78109" lon="0.15857">
        <ele>1891.4</ele>
        <time>2021-01-29T12:39:06Z</time>
      </trkpt>
      <trkpt lat="42.78109" lon="0.15857">
        <ele>1891.6</ele>
        <time>2021-01-29T12:39:07Z</time>
      </trkpt>
      <trkpt lat="42.78108" lon="0.15857">
        <ele>1892</ele>
        <time>2021-01-29T12:39:08Z</time>
      </trkpt>
      <trkpt lat="42.78108" lon="0.15857">
        <ele>1891.8</ele>
        <time>2021-01-29T12:39:09Z</time>
      </trkpt>
      <trkpt lat="42.78108" lon="0.15857">
        <ele>1892.2</ele>
        <time>2021-01-29T12:39:10Z</time>
      </trkpt>
      <trkpt lat="42.78108" lon="0.15857">
        <ele>1892.2</ele>
        <time>2021-01-29T12:39:11Z</time>
      </trkpt>
      <trkpt lat="42.78108" lon="0.15857">
        <ele>1892.6</ele>
        <time>2021-01-29T12:39:12Z</time>
      </trkpt>
      <trkpt lat="42.78108" lon="0.15857">
        <ele>1892.8</ele>
        <time>2021-01-29T12:39:13Z</time>
      </trkpt>
      <trkpt lat="42.78106" lon="0.15857">
        <ele>1892.8</ele>
        <time>2021-01-29T12:39:14Z</time>
      </trkpt>
      <trkpt lat="42.78104" lon="0.15857">
        <ele>1893.2</ele>
        <time>2021-01-29T12:39:15Z</time>
      </trkpt>
      <trkpt lat="42.78103" lon="0.15857">
        <ele>1893.2</ele>
        <time>2021-01-29T12:39:16Z</time>
      </trkpt>
      <trkpt lat="42.78103" lon="0.15857">
        <ele>1893.4</ele>
        <time>2021-01-29T12:39:17Z</time>
      </trkpt>
      <trkpt lat="42.78102" lon="0.15857">
        <ele>1893.6</ele>
        <time>2021-01-29T12:39:18Z</time>
      </trkpt>
      <trkpt lat="42.78101" lon="0.15857">
        <ele>1893.6</ele>
        <time>2021-01-29T12:39:19Z</time>
      </trkpt>
      <trkpt lat="42.78101" lon="0.15857">
        <ele>1894</ele>
        <time>2021-01-29T12:39:20Z</time>
      </trkpt>
      <trkpt lat="42.781" lon="0.15857">
        <ele>1894.2</ele>
        <time>2021-01-29T12:39:21Z</time>
      </trkpt>
      <trkpt lat="42.78099" lon="0.15856">
        <ele>1894.2</ele>
        <time>2021-01-29T12:39:22Z</time>
      </trkpt>
      <trkpt lat="42.78099" lon="0.15856">
        <ele>1894.4</ele>
        <time>2021-01-29T12:39:23Z</time>
      </trkpt>
      <trkpt lat="42.78098" lon="0.15856">
        <ele>1894.6</ele>
        <time>2021-01-29T12:39:24Z</time>
      </trkpt>
      <trkpt lat="42.78098" lon="0.15856">
        <ele>1894.6</ele>
        <time>2021-01-29T12:39:25Z</time>
      </trkpt>
      <trkpt lat="42.78097" lon="0.15856">
        <ele>1894.8</ele>
        <time>2021-01-29T12:39:26Z</time>
      </trkpt>
      <trkpt lat="42.78096" lon="0.15856">
        <ele>1895</ele>
        <time>2021-01-29T12:39:27Z</time>
      </trkpt>
      <trkpt lat="42.78096" lon="0.15856">
        <ele>1895</ele>
        <time>2021-01-29T12:39:28Z</time>
      </trkpt>
      <trkpt lat="42.78095" lon="0.15856">
        <ele>1895.4</ele>
        <time>2021-01-29T12:39:29Z</time>
      </trkpt>
      <trkpt lat="42.78094" lon="0.15856">
        <ele>1895.4</ele>
        <time>2021-01-29T12:39:30Z</time>
      </trkpt>
      <trkpt lat="42.78094" lon="0.15856">
        <ele>1895.8</ele>
        <time>2021-01-29T12:39:31Z</time>
      </trkpt>
      <trkpt lat="42.78093" lon="0.15856">
        <ele>1896</ele>
        <time>2021-01-29T12:39:32Z</time>
      </trkpt>
      <trkpt lat="42.78092" lon="0.15856">
        <ele>1896</ele>
        <time>2021-01-29T12:39:33Z</time>
      </trkpt>
      <trkpt lat="42.78092" lon="0.15856">
        <ele>1896.2</ele>
        <time>2021-01-29T12:39:34Z</time>
      </trkpt>
      <trkpt lat="42.78091" lon="0.15855">
        <ele>1896.4</ele>
        <time>2021-01-29T12:39:35Z</time>
      </trkpt>
      <trkpt lat="42.7809" lon="0.15855">
        <ele>1896.4</ele>
        <time>2021-01-29T12:39:36Z</time>
      </trkpt>
      <trkpt lat="42.7809" lon="0.15855">
        <ele>1896.6</ele>
        <time>2021-01-29T12:39:37Z</time>
      </trkpt>
      <trkpt lat="42.78089" lon="0.15855">
        <ele>1896.8</ele>
        <time>2021-01-29T12:39:38Z</time>
      </trkpt>
      <trkpt lat="42.78088" lon="0.15855">
        <ele>1897</ele>
        <time>2021-01-29T12:39:39Z</time>
      </trkpt>
      <trkpt lat="42.78088" lon="0.15855">
        <ele>1897.2</ele>
        <time>2021-01-29T12:39:40Z</time>
      </trkpt>
      <trkpt lat="42.78087" lon="0.15855">
        <ele>1897.4</ele>
        <time>2021-01-29T12:39:41Z</time>
      </trkpt>
      <trkpt lat="42.78086" lon="0.15855">
        <ele>1897.4</ele>
        <time>2021-01-29T12:39:42Z</time>
      </trkpt>
      <trkpt lat="42.78086" lon="0.15855">
        <ele>1897.6</ele>
        <time>2021-01-29T12:39:43Z</time>
      </trkpt>
      <trkpt lat="42.78085" lon="0.15855">
        <ele>1897.8</ele>
        <time>2021-01-29T12:39:44Z</time>
      </trkpt>
      <trkpt lat="42.78084" lon="0.15854">
        <ele>1897.8</ele>
        <time>2021-01-29T12:39:45Z</time>
      </trkpt>
      <trkpt lat="42.78084" lon="0.15854">
        <ele>1898</ele>
        <time>2021-01-29T12:39:46Z</time>
      </trkpt>
      <trkpt lat="42.78083" lon="0.15854">
        <ele>1898</ele>
        <time>2021-01-29T12:39:47Z</time>
      </trkpt>
      <trkpt lat="42.78083" lon="0.15854">
        <ele>1898.2</ele>
        <time>2021-01-29T12:39:48Z</time>
      </trkpt>
      <trkpt lat="42.78082" lon="0.15854">
        <ele>1898.4</ele>
        <time>2021-01-29T12:39:49Z</time>
      </trkpt>
      <trkpt lat="42.78081" lon="0.15853">
        <ele>1898.4</ele>
        <time>2021-01-29T12:39:50Z</time>
      </trkpt>
      <trkpt lat="42.7808" lon="0.15853">
        <ele>1898.6</ele>
        <time>2021-01-29T12:39:51Z</time>
      </trkpt>
      <trkpt lat="42.7808" lon="0.15853">
        <ele>1899</ele>
        <time>2021-01-29T12:39:52Z</time>
      </trkpt>
      <trkpt lat="42.78079" lon="0.15852">
        <ele>1899</ele>
        <time>2021-01-29T12:39:53Z</time>
      </trkpt>
      <trkpt lat="42.78079" lon="0.15852">
        <ele>1899.2</ele>
        <time>2021-01-29T12:39:54Z</time>
      </trkpt>
      <trkpt lat="42.78078" lon="0.15852">
        <ele>1899.4</ele>
        <time>2021-01-29T12:39:55Z</time>
      </trkpt>
      <trkpt lat="42.78077" lon="0.15851">
        <ele>1899.4</ele>
        <time>2021-01-29T12:39:56Z</time>
      </trkpt>
      <trkpt lat="42.78076" lon="0.15851">
        <ele>1899.6</ele>
        <time>2021-01-29T12:39:57Z</time>
      </trkpt>
      <trkpt lat="42.78076" lon="0.1585">
        <ele>1899.6</ele>
        <time>2021-01-29T12:39:58Z</time>
      </trkpt>
      <trkpt lat="42.78075" lon="0.1585">
        <ele>1899.8</ele>
        <time>2021-01-29T12:39:59Z</time>
      </trkpt>
      <trkpt lat="42.78075" lon="0.1585">
        <ele>1900</ele>
        <time>2021-01-29T12:40:00Z</time>
      </trkpt>
      <trkpt lat="42.78074" lon="0.15849">
        <ele>1900</ele>
        <time>2021-01-29T12:40:01Z</time>
      </trkpt>
      <trkpt lat="42.78073" lon="0.15849">
        <ele>1900</ele>
        <time>2021-01-29T12:40:02Z</time>
      </trkpt>
      <trkpt lat="42.78072" lon="0.15848">
        <ele>1900.2</ele>
        <time>2021-01-29T12:40:03Z</time>
      </trkpt>
      <trkpt lat="42.78072" lon="0.15848">
        <ele>1900.2</ele>
        <time>2021-01-29T12:40:04Z</time>
      </trkpt>
      <trkpt lat="42.78071" lon="0.15847">
        <ele>1900.2</ele>
        <time>2021-01-29T12:40:05Z</time>
      </trkpt>
      <trkpt lat="42.7807" lon="0.15847">
        <ele>1900.6</ele>
        <time>2021-01-29T12:40:06Z</time>
      </trkpt>
      <trkpt lat="42.78069" lon="0.15847">
        <ele>1900.6</ele>
        <time>2021-01-29T12:40:07Z</time>
      </trkpt>
      <trkpt lat="42.78068" lon="0.15846">
        <ele>1900.6</ele>
        <time>2021-01-29T12:40:08Z</time>
      </trkpt>
      <trkpt lat="42.78067" lon="0.15846">
        <ele>1900.8</ele>
        <time>2021-01-29T12:40:09Z</time>
      </trkpt>
      <trkpt lat="42.78067" lon="0.15845">
        <ele>1900.8</ele>
        <time>2021-01-29T12:40:10Z</time>
      </trkpt>
      <trkpt lat="42.78066" lon="0.15845">
        <ele>1901</ele>
        <time>2021-01-29T12:40:11Z</time>
      </trkpt>
      <trkpt lat="42.78065" lon="0.15844">
        <ele>1901.2</ele>
        <time>2021-01-29T12:40:12Z</time>
      </trkpt>
      <trkpt lat="42.78064" lon="0.15844">
        <ele>1901.2</ele>
        <time>2021-01-29T12:40:13Z</time>
      </trkpt>
      <trkpt lat="42.78063" lon="0.15844">
        <ele>1901.2</ele>
        <time>2021-01-29T12:40:14Z</time>
      </trkpt>
      <trkpt lat="42.78063" lon="0.15843">
        <ele>1901.4</ele>
        <time>2021-01-29T12:40:15Z</time>
      </trkpt>
      <trkpt lat="42.78062" lon="0.15843">
        <ele>1901.4</ele>
        <time>2021-01-29T12:40:16Z</time>
      </trkpt>
      <trkpt lat="42.78061" lon="0.15842">
        <ele>1901.4</ele>
        <time>2021-01-29T12:40:17Z</time>
      </trkpt>
      <trkpt lat="42.78061" lon="0.15842">
        <ele>1901.6</ele>
        <time>2021-01-29T12:40:18Z</time>
      </trkpt>
      <trkpt lat="42.7806" lon="0.15841">
        <ele>1901.6</ele>
        <time>2021-01-29T12:40:19Z</time>
      </trkpt>
      <trkpt lat="42.78059" lon="0.15841">
        <ele>1901.4</ele>
        <time>2021-01-29T12:40:20Z</time>
      </trkpt>
      <trkpt lat="42.78058" lon="0.1584">
        <ele>1901.6</ele>
        <time>2021-01-29T12:40:21Z</time>
      </trkpt>
      <trkpt lat="42.78057" lon="0.1584">
        <ele>1901.8</ele>
        <time>2021-01-29T12:40:22Z</time>
      </trkpt>
      <trkpt lat="42.78057" lon="0.15839">
        <ele>1901.8</ele>
        <time>2021-01-29T12:40:23Z</time>
      </trkpt>
      <trkpt lat="42.78056" lon="0.15839">
        <ele>1902</ele>
        <time>2021-01-29T12:40:24Z</time>
      </trkpt>
      <trkpt lat="42.78055" lon="0.15839">
        <ele>1902</ele>
        <time>2021-01-29T12:40:25Z</time>
      </trkpt>
      <trkpt lat="42.78054" lon="0.15838">
        <ele>1902</ele>
        <time>2021-01-29T12:40:26Z</time>
      </trkpt>
      <trkpt lat="42.78054" lon="0.15838">
        <ele>1902.2</ele>
        <time>2021-01-29T12:40:27Z</time>
      </trkpt>
      <trkpt lat="42.78053" lon="0.15837">
        <ele>1902.4</ele>
        <time>2021-01-29T12:40:28Z</time>
      </trkpt>
      <trkpt lat="42.78052" lon="0.15837">
        <ele>1902.4</ele>
        <time>2021-01-29T12:40:29Z</time>
      </trkpt>
      <trkpt lat="42.78051" lon="0.15836">
        <ele>1902.6</ele>
        <time>2021-01-29T12:40:30Z</time>
      </trkpt>
      <trkpt lat="42.78051" lon="0.15836">
        <ele>1902.6</ele>
        <time>2021-01-29T12:40:31Z</time>
      </trkpt>
      <trkpt lat="42.7805" lon="0.15836">
        <ele>1902.6</ele>
        <time>2021-01-29T12:40:32Z</time>
      </trkpt>
      <trkpt lat="42.78049" lon="0.15835">
        <ele>1902.8</ele>
        <time>2021-01-29T12:40:33Z</time>
      </trkpt>
      <trkpt lat="42.78049" lon="0.15835">
        <ele>1902.8</ele>
        <time>2021-01-29T12:40:34Z</time>
      </trkpt>
      <trkpt lat="42.78048" lon="0.15835">
        <ele>1902.8</ele>
        <time>2021-01-29T12:40:35Z</time>
      </trkpt>
      <trkpt lat="42.78047" lon="0.15835">
        <ele>1903</ele>
        <time>2021-01-29T12:40:36Z</time>
      </trkpt>
      <trkpt lat="42.78047" lon="0.15834">
        <ele>1903.2</ele>
        <time>2021-01-29T12:40:37Z</time>
      </trkpt>
      <trkpt lat="42.78046" lon="0.15834">
        <ele>1903.2</ele>
        <time>2021-01-29T12:40:38Z</time>
      </trkpt>
      <trkpt lat="42.78045" lon="0.15833">
        <ele>1903.4</ele>
        <time>2021-01-29T12:40:39Z</time>
      </trkpt>
      <trkpt lat="42.78044" lon="0.15833">
        <ele>1903.4</ele>
        <time>2021-01-29T12:40:40Z</time>
      </trkpt>
      <trkpt lat="42.78043" lon="0.15833">
        <ele>1903.6</ele>
        <time>2021-01-29T12:40:41Z</time>
      </trkpt>
      <trkpt lat="42.78043" lon="0.15832">
        <ele>1903.6</ele>
        <time>2021-01-29T12:40:42Z</time>
      </trkpt>
      <trkpt lat="42.78042" lon="0.15832">
        <ele>1903.8</ele>
        <time>2021-01-29T12:40:43Z</time>
      </trkpt>
      <trkpt lat="42.78041" lon="0.15831">
        <ele>1903.8</ele>
        <time>2021-01-29T12:40:44Z</time>
      </trkpt>
      <trkpt lat="42.7804" lon="0.15831">
        <ele>1904</ele>
        <time>2021-01-29T12:40:45Z</time>
      </trkpt>
      <trkpt lat="42.7804" lon="0.1583">
        <ele>1904.2</ele>
        <time>2021-01-29T12:40:46Z</time>
      </trkpt>
      <trkpt lat="42.78039" lon="0.1583">
        <ele>1904</ele>
        <time>2021-01-29T12:40:47Z</time>
      </trkpt>
      <trkpt lat="42.78038" lon="0.15829">
        <ele>1904.2</ele>
        <time>2021-01-29T12:40:48Z</time>
      </trkpt>
      <trkpt lat="42.78038" lon="0.15829">
        <ele>1904.4</ele>
        <time>2021-01-29T12:40:49Z</time>
      </trkpt>
      <trkpt lat="42.78037" lon="0.15828">
        <ele>1904.4</ele>
        <time>2021-01-29T12:40:50Z</time>
      </trkpt>
      <trkpt lat="42.78036" lon="0.15827">
        <ele>1904.4</ele>
        <time>2021-01-29T12:40:51Z</time>
      </trkpt>
      <trkpt lat="42.78035" lon="0.15827">
        <ele>1904.6</ele>
        <time>2021-01-29T12:40:52Z</time>
      </trkpt>
      <trkpt lat="42.78035" lon="0.15826">
        <ele>1904.8</ele>
        <time>2021-01-29T12:40:53Z</time>
      </trkpt>
      <trkpt lat="42.78034" lon="0.15825">
        <ele>1904.6</ele>
        <time>2021-01-29T12:40:54Z</time>
      </trkpt>
      <trkpt lat="42.78034" lon="0.15825">
        <ele>1905</ele>
        <time>2021-01-29T12:40:55Z</time>
      </trkpt>
      <trkpt lat="42.78033" lon="0.15824">
        <ele>1905</ele>
        <time>2021-01-29T12:40:56Z</time>
      </trkpt>
      <trkpt lat="42.78032" lon="0.15824">
        <ele>1905</ele>
        <time>2021-01-29T12:40:57Z</time>
      </trkpt>
      <trkpt lat="42.78031" lon="0.15823">
        <ele>1905.2</ele>
        <time>2021-01-29T12:40:58Z</time>
      </trkpt>
      <trkpt lat="42.78031" lon="0.15822">
        <ele>1905.2</ele>
        <time>2021-01-29T12:40:59Z</time>
      </trkpt>
      <trkpt lat="42.7803" lon="0.15821">
        <ele>1905.4</ele>
        <time>2021-01-29T12:41:00Z</time>
      </trkpt>
      <trkpt lat="42.78029" lon="0.15821">
        <ele>1905.6</ele>
        <time>2021-01-29T12:41:01Z</time>
      </trkpt>
      <trkpt lat="42.78029" lon="0.1582">
        <ele>1905.6</ele>
        <time>2021-01-29T12:41:02Z</time>
      </trkpt>
      <trkpt lat="42.78028" lon="0.15819">
        <ele>1905.6</ele>
        <time>2021-01-29T12:41:03Z</time>
      </trkpt>
      <trkpt lat="42.78027" lon="0.15819">
        <ele>1905.6</ele>
        <time>2021-01-29T12:41:04Z</time>
      </trkpt>
      <trkpt lat="42.78026" lon="0.15818">
        <ele>1905.8</ele>
        <time>2021-01-29T12:41:05Z</time>
      </trkpt>
      <trkpt lat="42.78026" lon="0.15818">
        <ele>1905.6</ele>
        <time>2021-01-29T12:41:06Z</time>
      </trkpt>
      <trkpt lat="42.78025" lon="0.15817">
        <ele>1906</ele>
        <time>2021-01-29T12:41:07Z</time>
      </trkpt>
      <trkpt lat="42.78025" lon="0.15816">
        <ele>1905.8</ele>
        <time>2021-01-29T12:41:08Z</time>
      </trkpt>
      <trkpt lat="42.78024" lon="0.15816">
        <ele>1906</ele>
        <time>2021-01-29T12:41:09Z</time>
      </trkpt>
      <trkpt lat="42.78023" lon="0.15815">
        <ele>1906.2</ele>
        <time>2021-01-29T12:41:10Z</time>
      </trkpt>
      <trkpt lat="42.78022" lon="0.15815">
        <ele>1906</ele>
        <time>2021-01-29T12:41:11Z</time>
      </trkpt>
      <trkpt lat="42.78022" lon="0.15814">
        <ele>1906.2</ele>
        <time>2021-01-29T12:41:12Z</time>
      </trkpt>
      <trkpt lat="42.78021" lon="0.15813">
        <ele>1906.2</ele>
        <time>2021-01-29T12:41:13Z</time>
      </trkpt>
      <trkpt lat="42.7802" lon="0.15812">
        <ele>1906.2</ele>
        <time>2021-01-29T12:41:14Z</time>
      </trkpt>
      <trkpt lat="42.7802" lon="0.15812">
        <ele>1906.2</ele>
        <time>2021-01-29T12:41:15Z</time>
      </trkpt>
      <trkpt lat="42.78019" lon="0.15811">
        <ele>1906.4</ele>
        <time>2021-01-29T12:41:16Z</time>
      </trkpt>
      <trkpt lat="42.78018" lon="0.1581">
        <ele>1906.4</ele>
        <time>2021-01-29T12:41:17Z</time>
      </trkpt>
      <trkpt lat="42.78018" lon="0.1581">
        <ele>1906.4</ele>
        <time>2021-01-29T12:41:18Z</time>
      </trkpt>
      <trkpt lat="42.78017" lon="0.15809">
        <ele>1906.6</ele>
        <time>2021-01-29T12:41:19Z</time>
      </trkpt>
      <trkpt lat="42.78017" lon="0.15808">
        <ele>1906.4</ele>
        <time>2021-01-29T12:41:20Z</time>
      </trkpt>
      <trkpt lat="42.78016" lon="0.15808">
        <ele>1906.6</ele>
        <time>2021-01-29T12:41:21Z</time>
      </trkpt>
      <trkpt lat="42.78015" lon="0.15807">
        <ele>1906.8</ele>
        <time>2021-01-29T12:41:22Z</time>
      </trkpt>
      <trkpt lat="42.78014" lon="0.15807">
        <ele>1906.6</ele>
        <time>2021-01-29T12:41:23Z</time>
      </trkpt>
      <trkpt lat="42.78014" lon="0.15806">
        <ele>1906.8</ele>
        <time>2021-01-29T12:41:24Z</time>
      </trkpt>
      <trkpt lat="42.78013" lon="0.15805">
        <ele>1906.8</ele>
        <time>2021-01-29T12:41:25Z</time>
      </trkpt>
      <trkpt lat="42.78013" lon="0.15805">
        <ele>1906.8</ele>
        <time>2021-01-29T12:41:26Z</time>
      </trkpt>
      <trkpt lat="42.78012" lon="0.15804">
        <ele>1907</ele>
        <time>2021-01-29T12:41:27Z</time>
      </trkpt>
      <trkpt lat="42.78011" lon="0.15803">
        <ele>1907.2</ele>
        <time>2021-01-29T12:41:28Z</time>
      </trkpt>
      <trkpt lat="42.7801" lon="0.15802">
        <ele>1907.2</ele>
        <time>2021-01-29T12:41:29Z</time>
      </trkpt>
      <trkpt lat="42.7801" lon="0.15802">
        <ele>1907.2</ele>
        <time>2021-01-29T12:41:30Z</time>
      </trkpt>
      <trkpt lat="42.78009" lon="0.15801">
        <ele>1907.4</ele>
        <time>2021-01-29T12:41:31Z</time>
      </trkpt>
      <trkpt lat="42.78008" lon="0.15801">
        <ele>1907.2</ele>
        <time>2021-01-29T12:41:32Z</time>
      </trkpt>
      <trkpt lat="42.78008" lon="0.158">
        <ele>1907.4</ele>
        <time>2021-01-29T12:41:33Z</time>
      </trkpt>
      <trkpt lat="42.78007" lon="0.15799">
        <ele>1907.6</ele>
        <time>2021-01-29T12:41:34Z</time>
      </trkpt>
      <trkpt lat="42.78006" lon="0.15799">
        <ele>1907.6</ele>
        <time>2021-01-29T12:41:35Z</time>
      </trkpt>
      <trkpt lat="42.78006" lon="0.15798">
        <ele>1907.6</ele>
        <time>2021-01-29T12:41:36Z</time>
      </trkpt>
      <trkpt lat="42.78005" lon="0.15798">
        <ele>1907.8</ele>
        <time>2021-01-29T12:41:37Z</time>
      </trkpt>
      <trkpt lat="42.78004" lon="0.15797">
        <ele>1907.8</ele>
        <time>2021-01-29T12:41:38Z</time>
      </trkpt>
      <trkpt lat="42.78004" lon="0.15796">
        <ele>1908</ele>
        <time>2021-01-29T12:41:39Z</time>
      </trkpt>
      <trkpt lat="42.78003" lon="0.15796">
        <ele>1908</ele>
        <time>2021-01-29T12:41:40Z</time>
      </trkpt>
      <trkpt lat="42.78002" lon="0.15795">
        <ele>1908</ele>
        <time>2021-01-29T12:41:41Z</time>
      </trkpt>
      <trkpt lat="42.78002" lon="0.15794">
        <ele>1908.2</ele>
        <time>2021-01-29T12:41:42Z</time>
      </trkpt>
      <trkpt lat="42.78001" lon="0.15794">
        <ele>1908.4</ele>
        <time>2021-01-29T12:41:43Z</time>
      </trkpt>
      <trkpt lat="42.78" lon="0.15793">
        <ele>1908.2</ele>
        <time>2021-01-29T12:41:44Z</time>
      </trkpt>
      <trkpt lat="42.78" lon="0.15793">
        <ele>1908.4</ele>
        <time>2021-01-29T12:41:45Z</time>
      </trkpt>
      <trkpt lat="42.77999" lon="0.15792">
        <ele>1908.4</ele>
        <time>2021-01-29T12:41:46Z</time>
      </trkpt>
      <trkpt lat="42.77998" lon="0.15791">
        <ele>1908.4</ele>
        <time>2021-01-29T12:41:47Z</time>
      </trkpt>
      <trkpt lat="42.77998" lon="0.15791">
        <ele>1908.8</ele>
        <time>2021-01-29T12:41:48Z</time>
      </trkpt>
      <trkpt lat="42.77997" lon="0.1579">
        <ele>1908.8</ele>
        <time>2021-01-29T12:41:49Z</time>
      </trkpt>
      <trkpt lat="42.77997" lon="0.15789">
        <ele>1909</ele>
        <time>2021-01-29T12:41:50Z</time>
      </trkpt>
      <trkpt lat="42.77996" lon="0.15789">
        <ele>1909</ele>
        <time>2021-01-29T12:41:51Z</time>
      </trkpt>
      <trkpt lat="42.77995" lon="0.15788">
        <ele>1909.2</ele>
        <time>2021-01-29T12:41:52Z</time>
      </trkpt>
      <trkpt lat="42.77994" lon="0.15787">
        <ele>1909.2</ele>
        <time>2021-01-29T12:41:53Z</time>
      </trkpt>
      <trkpt lat="42.77994" lon="0.15787">
        <ele>1909.4</ele>
        <time>2021-01-29T12:41:54Z</time>
      </trkpt>
      <trkpt lat="42.77993" lon="0.15786">
        <ele>1909.4</ele>
        <time>2021-01-29T12:41:55Z</time>
      </trkpt>
      <trkpt lat="42.77992" lon="0.15785">
        <ele>1909.4</ele>
        <time>2021-01-29T12:41:56Z</time>
      </trkpt>
      <trkpt lat="42.77992" lon="0.15785">
        <ele>1909.6</ele>
        <time>2021-01-29T12:41:57Z</time>
      </trkpt>
      <trkpt lat="42.77991" lon="0.15784">
        <ele>1909.8</ele>
        <time>2021-01-29T12:41:58Z</time>
      </trkpt>
      <trkpt lat="42.77991" lon="0.15783">
        <ele>1909.8</ele>
        <time>2021-01-29T12:41:59Z</time>
      </trkpt>
      <trkpt lat="42.7799" lon="0.15783">
        <ele>1910</ele>
        <time>2021-01-29T12:42:00Z</time>
      </trkpt>
      <trkpt lat="42.77989" lon="0.15782">
        <ele>1910</ele>
        <time>2021-01-29T12:42:01Z</time>
      </trkpt>
      <trkpt lat="42.77989" lon="0.15782">
        <ele>1910.2</ele>
        <time>2021-01-29T12:42:02Z</time>
      </trkpt>
      <trkpt lat="42.77988" lon="0.15781">
        <ele>1910.2</ele>
        <time>2021-01-29T12:42:03Z</time>
      </trkpt>
      <trkpt lat="42.77987" lon="0.1578">
        <ele>1910.4</ele>
        <time>2021-01-29T12:42:04Z</time>
      </trkpt>
      <trkpt lat="42.77987" lon="0.1578">
        <ele>1910.6</ele>
        <time>2021-01-29T12:42:05Z</time>
      </trkpt>
      <trkpt lat="42.77986" lon="0.1578">
        <ele>1910.8</ele>
        <time>2021-01-29T12:42:06Z</time>
      </trkpt>
      <trkpt lat="42.77985" lon="0.15779">
        <ele>1911</ele>
        <time>2021-01-29T12:42:07Z</time>
      </trkpt>
      <trkpt lat="42.77985" lon="0.15778">
        <ele>1911</ele>
        <time>2021-01-29T12:42:08Z</time>
      </trkpt>
      <trkpt lat="42.77984" lon="0.15778">
        <ele>1911.2</ele>
        <time>2021-01-29T12:42:09Z</time>
      </trkpt>
      <trkpt lat="42.77984" lon="0.15777">
        <ele>1911.4</ele>
        <time>2021-01-29T12:42:10Z</time>
      </trkpt>
      <trkpt lat="42.77983" lon="0.15777">
        <ele>1911.2</ele>
        <time>2021-01-29T12:42:11Z</time>
      </trkpt>
      <trkpt lat="42.77982" lon="0.15777">
        <ele>1911.4</ele>
        <time>2021-01-29T12:42:12Z</time>
      </trkpt>
      <trkpt lat="42.77981" lon="0.15776">
        <ele>1911.6</ele>
        <time>2021-01-29T12:42:13Z</time>
      </trkpt>
      <trkpt lat="42.77981" lon="0.15776">
        <ele>1911.6</ele>
        <time>2021-01-29T12:42:14Z</time>
      </trkpt>
      <trkpt lat="42.7798" lon="0.15775">
        <ele>1911.8</ele>
        <time>2021-01-29T12:42:15Z</time>
      </trkpt>
      <trkpt lat="42.7798" lon="0.15774">
        <ele>1912</ele>
        <time>2021-01-29T12:42:16Z</time>
      </trkpt>
      <trkpt lat="42.77979" lon="0.15774">
        <ele>1912</ele>
        <time>2021-01-29T12:42:17Z</time>
      </trkpt>
      <trkpt lat="42.77978" lon="0.15773">
        <ele>1912.2</ele>
        <time>2021-01-29T12:42:18Z</time>
      </trkpt>
      <trkpt lat="42.77978" lon="0.15772">
        <ele>1912.6</ele>
        <time>2021-01-29T12:42:19Z</time>
      </trkpt>
      <trkpt lat="42.77977" lon="0.15772">
        <ele>1912.4</ele>
        <time>2021-01-29T12:42:20Z</time>
      </trkpt>
      <trkpt lat="42.77977" lon="0.15771">
        <ele>1912.8</ele>
        <time>2021-01-29T12:42:21Z</time>
      </trkpt>
      <trkpt lat="42.77976" lon="0.15771">
        <ele>1912.8</ele>
        <time>2021-01-29T12:42:22Z</time>
      </trkpt>
      <trkpt lat="42.77976" lon="0.1577">
        <ele>1912.8</ele>
        <time>2021-01-29T12:42:23Z</time>
      </trkpt>
      <trkpt lat="42.77975" lon="0.15769">
        <ele>1913</ele>
        <time>2021-01-29T12:42:24Z</time>
      </trkpt>
      <trkpt lat="42.77974" lon="0.15769">
        <ele>1913.2</ele>
        <time>2021-01-29T12:42:25Z</time>
      </trkpt>
      <trkpt lat="42.77974" lon="0.15768">
        <ele>1913.2</ele>
        <time>2021-01-29T12:42:26Z</time>
      </trkpt>
      <trkpt lat="42.77973" lon="0.15767">
        <ele>1913.6</ele>
        <time>2021-01-29T12:42:27Z</time>
      </trkpt>
      <trkpt lat="42.77972" lon="0.15767">
        <ele>1913.8</ele>
        <time>2021-01-29T12:42:28Z</time>
      </trkpt>
      <trkpt lat="42.77972" lon="0.15766">
        <ele>1914</ele>
        <time>2021-01-29T12:42:29Z</time>
      </trkpt>
      <trkpt lat="42.77971" lon="0.15766">
        <ele>1914.2</ele>
        <time>2021-01-29T12:42:30Z</time>
      </trkpt>
      <trkpt lat="42.77971" lon="0.15765">
        <ele>1914.4</ele>
        <time>2021-01-29T12:42:31Z</time>
      </trkpt>
      <trkpt lat="42.7797" lon="0.15764">
        <ele>1914.4</ele>
        <time>2021-01-29T12:42:32Z</time>
      </trkpt>
      <trkpt lat="42.7797" lon="0.15764">
        <ele>1914.6</ele>
        <time>2021-01-29T12:42:33Z</time>
      </trkpt>
      <trkpt lat="42.77969" lon="0.15763">
        <ele>1914.8</ele>
        <time>2021-01-29T12:42:34Z</time>
      </trkpt>
      <trkpt lat="42.77969" lon="0.15763">
        <ele>1914.8</ele>
        <time>2021-01-29T12:42:35Z</time>
      </trkpt>
      <trkpt lat="42.77968" lon="0.15762">
        <ele>1915</ele>
        <time>2021-01-29T12:42:36Z</time>
      </trkpt>
      <trkpt lat="42.77968" lon="0.15762">
        <ele>1915.2</ele>
        <time>2021-01-29T12:42:37Z</time>
      </trkpt>
      <trkpt lat="42.77967" lon="0.15761">
        <ele>1915.4</ele>
        <time>2021-01-29T12:42:38Z</time>
      </trkpt>
      <trkpt lat="42.77967" lon="0.15761">
        <ele>1915.6</ele>
        <time>2021-01-29T12:42:39Z</time>
      </trkpt>
      <trkpt lat="42.77966" lon="0.1576">
        <ele>1916</ele>
        <time>2021-01-29T12:42:40Z</time>
      </trkpt>
      <trkpt lat="42.77965" lon="0.1576">
        <ele>1916</ele>
        <time>2021-01-29T12:42:41Z</time>
      </trkpt>
      <trkpt lat="42.77965" lon="0.15759">
        <ele>1916.4</ele>
        <time>2021-01-29T12:42:42Z</time>
      </trkpt>
      <trkpt lat="42.77964" lon="0.15758">
        <ele>1916.6</ele>
        <time>2021-01-29T12:42:43Z</time>
      </trkpt>
      <trkpt lat="42.77964" lon="0.15758">
        <ele>1916.6</ele>
        <time>2021-01-29T12:42:44Z</time>
      </trkpt>
      <trkpt lat="42.77964" lon="0.15758">
        <ele>1917</ele>
        <time>2021-01-29T12:42:45Z</time>
      </trkpt>
      <trkpt lat="42.77963" lon="0.15757">
        <ele>1917.2</ele>
        <time>2021-01-29T12:42:46Z</time>
      </trkpt>
      <trkpt lat="42.77963" lon="0.15756">
        <ele>1917.2</ele>
        <time>2021-01-29T12:42:47Z</time>
      </trkpt>
      <trkpt lat="42.77963" lon="0.15755">
        <ele>1917.6</ele>
        <time>2021-01-29T12:42:48Z</time>
      </trkpt>
      <trkpt lat="42.77963" lon="0.15754">
        <ele>1917.8</ele>
        <time>2021-01-29T12:42:49Z</time>
      </trkpt>
      <trkpt lat="42.77963" lon="0.15753">
        <ele>1918</ele>
        <time>2021-01-29T12:42:50Z</time>
      </trkpt>
      <trkpt lat="42.77963" lon="0.15753">
        <ele>1918.2</ele>
        <time>2021-01-29T12:42:51Z</time>
      </trkpt>
      <trkpt lat="42.77963" lon="0.15752">
        <ele>1918.2</ele>
        <time>2021-01-29T12:42:52Z</time>
      </trkpt>
      <trkpt lat="42.77963" lon="0.15751">
        <ele>1918.4</ele>
        <time>2021-01-29T12:42:53Z</time>
      </trkpt>
      <trkpt lat="42.77963" lon="0.1575">
        <ele>1918.8</ele>
        <time>2021-01-29T12:42:54Z</time>
      </trkpt>
      <trkpt lat="42.77963" lon="0.1575">
        <ele>1918.8</ele>
        <time>2021-01-29T12:42:55Z</time>
      </trkpt>
      <trkpt lat="42.77963" lon="0.15749">
        <ele>1919</ele>
        <time>2021-01-29T12:42:56Z</time>
      </trkpt>
      <trkpt lat="42.77963" lon="0.15748">
        <ele>1919.2</ele>
        <time>2021-01-29T12:42:57Z</time>
      </trkpt>
      <trkpt lat="42.77963" lon="0.15747">
        <ele>1919.4</ele>
        <time>2021-01-29T12:42:58Z</time>
      </trkpt>
      <trkpt lat="42.77963" lon="0.15747">
        <ele>1919.6</ele>
        <time>2021-01-29T12:42:59Z</time>
      </trkpt>
      <trkpt lat="42.77963" lon="0.15746">
        <ele>1919.8</ele>
        <time>2021-01-29T12:43:00Z</time>
      </trkpt>
      <trkpt lat="42.77964" lon="0.15745">
        <ele>1919.8</ele>
        <time>2021-01-29T12:43:01Z</time>
      </trkpt>
      <trkpt lat="42.77964" lon="0.15744">
        <ele>1920</ele>
        <time>2021-01-29T12:43:02Z</time>
      </trkpt>
      <trkpt lat="42.77964" lon="0.15743">
        <ele>1920.2</ele>
        <time>2021-01-29T12:43:03Z</time>
      </trkpt>
      <trkpt lat="42.77965" lon="0.15742">
        <ele>1920.4</ele>
        <time>2021-01-29T12:43:04Z</time>
      </trkpt>
      <trkpt lat="42.77965" lon="0.15741">
        <ele>1920.6</ele>
        <time>2021-01-29T12:43:05Z</time>
      </trkpt>
      <trkpt lat="42.77965" lon="0.1574">
        <ele>1920.6</ele>
        <time>2021-01-29T12:43:06Z</time>
      </trkpt>
      <trkpt lat="42.77965" lon="0.1574">
        <ele>1921</ele>
        <time>2021-01-29T12:43:07Z</time>
      </trkpt>
      <trkpt lat="42.77965" lon="0.15739">
        <ele>1921</ele>
        <time>2021-01-29T12:43:08Z</time>
      </trkpt>
      <trkpt lat="42.77965" lon="0.15738">
        <ele>1921.4</ele>
        <time>2021-01-29T12:43:09Z</time>
      </trkpt>
      <trkpt lat="42.77965" lon="0.15737">
        <ele>1921.4</ele>
        <time>2021-01-29T12:43:10Z</time>
      </trkpt>
      <trkpt lat="42.77965" lon="0.15736">
        <ele>1921.6</ele>
        <time>2021-01-29T12:43:11Z</time>
      </trkpt>
      <trkpt lat="42.77965" lon="0.15735">
        <ele>1922</ele>
        <time>2021-01-29T12:43:12Z</time>
      </trkpt>
      <trkpt lat="42.77965" lon="0.15735">
        <ele>1922</ele>
        <time>2021-01-29T12:43:13Z</time>
      </trkpt>
      <trkpt lat="42.77965" lon="0.15734">
        <ele>1922.2</ele>
        <time>2021-01-29T12:43:14Z</time>
      </trkpt>
      <trkpt lat="42.77965" lon="0.15733">
        <ele>1922.4</ele>
        <time>2021-01-29T12:43:15Z</time>
      </trkpt>
      <trkpt lat="42.77965" lon="0.15731">
        <ele>1922.6</ele>
        <time>2021-01-29T12:43:16Z</time>
      </trkpt>
      <trkpt lat="42.77966" lon="0.15731">
        <ele>1922.8</ele>
        <time>2021-01-29T12:43:17Z</time>
      </trkpt>
      <trkpt lat="42.77966" lon="0.1573">
        <ele>1923</ele>
        <time>2021-01-29T12:43:18Z</time>
      </trkpt>
      <trkpt lat="42.77966" lon="0.15729">
        <ele>1923</ele>
        <time>2021-01-29T12:43:19Z</time>
      </trkpt>
      <trkpt lat="42.77966" lon="0.15728">
        <ele>1923.4</ele>
        <time>2021-01-29T12:43:20Z</time>
      </trkpt>
      <trkpt lat="42.77966" lon="0.15727">
        <ele>1923.4</ele>
        <time>2021-01-29T12:43:21Z</time>
      </trkpt>
      <trkpt lat="42.77966" lon="0.15726">
        <ele>1923.6</ele>
        <time>2021-01-29T12:43:22Z</time>
      </trkpt>
      <trkpt lat="42.77966" lon="0.15725">
        <ele>1923.8</ele>
        <time>2021-01-29T12:43:23Z</time>
      </trkpt>
      <trkpt lat="42.77966" lon="0.15725">
        <ele>1924</ele>
        <time>2021-01-29T12:43:24Z</time>
      </trkpt>
      <trkpt lat="42.77967" lon="0.15724">
        <ele>1924.2</ele>
        <time>2021-01-29T12:43:25Z</time>
      </trkpt>
      <trkpt lat="42.77967" lon="0.15723">
        <ele>1924.4</ele>
        <time>2021-01-29T12:43:26Z</time>
      </trkpt>
      <trkpt lat="42.77967" lon="0.15722">
        <ele>1924.6</ele>
        <time>2021-01-29T12:43:27Z</time>
      </trkpt>
      <trkpt lat="42.77967" lon="0.15721">
        <ele>1924.8</ele>
        <time>2021-01-29T12:43:28Z</time>
      </trkpt>
      <trkpt lat="42.77967" lon="0.1572">
        <ele>1925</ele>
        <time>2021-01-29T12:43:29Z</time>
      </trkpt>
      <trkpt lat="42.77967" lon="0.15719">
        <ele>1925.2</ele>
        <time>2021-01-29T12:43:30Z</time>
      </trkpt>
      <trkpt lat="42.77967" lon="0.15718">
        <ele>1925.4</ele>
        <time>2021-01-29T12:43:31Z</time>
      </trkpt>
      <trkpt lat="42.77967" lon="0.15717">
        <ele>1925.8</ele>
        <time>2021-01-29T12:43:32Z</time>
      </trkpt>
      <trkpt lat="42.77967" lon="0.15716">
        <ele>1925.8</ele>
        <time>2021-01-29T12:43:33Z</time>
      </trkpt>
      <trkpt lat="42.77967" lon="0.15716">
        <ele>1926</ele>
        <time>2021-01-29T12:43:34Z</time>
      </trkpt>
      <trkpt lat="42.77967" lon="0.15715">
        <ele>1926.2</ele>
        <time>2021-01-29T12:43:35Z</time>
      </trkpt>
      <trkpt lat="42.77967" lon="0.15714">
        <ele>1926.2</ele>
        <time>2021-01-29T12:43:36Z</time>
      </trkpt>
      <trkpt lat="42.77967" lon="0.15713">
        <ele>1926.4</ele>
        <time>2021-01-29T12:43:37Z</time>
      </trkpt>
      <trkpt lat="42.77967" lon="0.15712">
        <ele>1926.8</ele>
        <time>2021-01-29T12:43:38Z</time>
      </trkpt>
      <trkpt lat="42.77966" lon="0.15711">
        <ele>1926.8</ele>
        <time>2021-01-29T12:43:39Z</time>
      </trkpt>
      <trkpt lat="42.77966" lon="0.15711">
        <ele>1927</ele>
        <time>2021-01-29T12:43:40Z</time>
      </trkpt>
      <trkpt lat="42.77965" lon="0.15711">
        <ele>1927.4</ele>
        <time>2021-01-29T12:43:41Z</time>
      </trkpt>
      <trkpt lat="42.77964" lon="0.15711">
        <ele>1927.4</ele>
        <time>2021-01-29T12:43:42Z</time>
      </trkpt>
      <trkpt lat="42.77964" lon="0.15711">
        <ele>1927.6</ele>
        <time>2021-01-29T12:43:43Z</time>
      </trkpt>
      <trkpt lat="42.77963" lon="0.15711">
        <ele>1927.8</ele>
        <time>2021-01-29T12:43:44Z</time>
      </trkpt>
      <trkpt lat="42.77962" lon="0.15712">
        <ele>1927.8</ele>
        <time>2021-01-29T12:43:45Z</time>
      </trkpt>
      <trkpt lat="42.77962" lon="0.15712">
        <ele>1928.2</ele>
        <time>2021-01-29T12:43:46Z</time>
      </trkpt>
      <trkpt lat="42.77961" lon="0.15712">
        <ele>1928.2</ele>
        <time>2021-01-29T12:43:47Z</time>
      </trkpt>
      <trkpt lat="42.7796" lon="0.15712">
        <ele>1928.4</ele>
        <time>2021-01-29T12:43:48Z</time>
      </trkpt>
      <trkpt lat="42.77959" lon="0.15712">
        <ele>1928.6</ele>
        <time>2021-01-29T12:43:49Z</time>
      </trkpt>
      <trkpt lat="42.77959" lon="0.15712">
        <ele>1928.8</ele>
        <time>2021-01-29T12:43:50Z</time>
      </trkpt>
      <trkpt lat="42.77958" lon="0.15712">
        <ele>1928.8</ele>
        <time>2021-01-29T12:43:51Z</time>
      </trkpt>
      <trkpt lat="42.77957" lon="0.15712">
        <ele>1929</ele>
        <time>2021-01-29T12:43:52Z</time>
      </trkpt>
      <trkpt lat="42.77956" lon="0.15713">
        <ele>1929.2</ele>
        <time>2021-01-29T12:43:53Z</time>
      </trkpt>
      <trkpt lat="42.77956" lon="0.15713">
        <ele>1929.2</ele>
        <time>2021-01-29T12:43:54Z</time>
      </trkpt>
      <trkpt lat="42.77955" lon="0.15713">
        <ele>1929.6</ele>
        <time>2021-01-29T12:43:55Z</time>
      </trkpt>
      <trkpt lat="42.77954" lon="0.15713">
        <ele>1929.4</ele>
        <time>2021-01-29T12:43:56Z</time>
      </trkpt>
      <trkpt lat="42.77954" lon="0.15713">
        <ele>1929.8</ele>
        <time>2021-01-29T12:43:57Z</time>
      </trkpt>
      <trkpt lat="42.77953" lon="0.15713">
        <ele>1930</ele>
        <time>2021-01-29T12:43:58Z</time>
      </trkpt>
      <trkpt lat="42.77952" lon="0.15713">
        <ele>1930</ele>
        <time>2021-01-29T12:43:59Z</time>
      </trkpt>
      <trkpt lat="42.77952" lon="0.15713">
        <ele>1930.2</ele>
        <time>2021-01-29T12:44:00Z</time>
      </trkpt>
      <trkpt lat="42.77951" lon="0.15714">
        <ele>1930.4</ele>
        <time>2021-01-29T12:44:01Z</time>
      </trkpt>
      <trkpt lat="42.7795" lon="0.15714">
        <ele>1930.6</ele>
        <time>2021-01-29T12:44:02Z</time>
      </trkpt>
      <trkpt lat="42.7795" lon="0.15714">
        <ele>1930.8</ele>
        <time>2021-01-29T12:44:03Z</time>
      </trkpt>
      <trkpt lat="42.77949" lon="0.15714">
        <ele>1930.8</ele>
        <time>2021-01-29T12:44:04Z</time>
      </trkpt>
      <trkpt lat="42.77948" lon="0.15714">
        <ele>1930.8</ele>
        <time>2021-01-29T12:44:05Z</time>
      </trkpt>
      <trkpt lat="42.77947" lon="0.15714">
        <ele>1931.2</ele>
        <time>2021-01-29T12:44:06Z</time>
      </trkpt>
      <trkpt lat="42.77947" lon="0.15714">
        <ele>1931.4</ele>
        <time>2021-01-29T12:44:07Z</time>
      </trkpt>
      <trkpt lat="42.77946" lon="0.15714">
        <ele>1931.4</ele>
        <time>2021-01-29T12:44:08Z</time>
      </trkpt>
      <trkpt lat="42.77945" lon="0.15715">
        <ele>1931.8</ele>
        <time>2021-01-29T12:44:09Z</time>
      </trkpt>
      <trkpt lat="42.77945" lon="0.15715">
        <ele>1931.8</ele>
        <time>2021-01-29T12:44:10Z</time>
      </trkpt>
      <trkpt lat="42.77944" lon="0.15715">
        <ele>1932</ele>
        <time>2021-01-29T12:44:11Z</time>
      </trkpt>
      <trkpt lat="42.77943" lon="0.15715">
        <ele>1932.2</ele>
        <time>2021-01-29T12:44:12Z</time>
      </trkpt>
      <trkpt lat="42.77942" lon="0.15715">
        <ele>1932.4</ele>
        <time>2021-01-29T12:44:13Z</time>
      </trkpt>
      <trkpt lat="42.77942" lon="0.15715">
        <ele>1932.6</ele>
        <time>2021-01-29T12:44:14Z</time>
      </trkpt>
      <trkpt lat="42.77941" lon="0.15715">
        <ele>1932.8</ele>
        <time>2021-01-29T12:44:15Z</time>
      </trkpt>
      <trkpt lat="42.7794" lon="0.15715">
        <ele>1932.8</ele>
        <time>2021-01-29T12:44:16Z</time>
      </trkpt>
      <trkpt lat="42.7794" lon="0.15715">
        <ele>1933</ele>
        <time>2021-01-29T12:44:17Z</time>
      </trkpt>
      <trkpt lat="42.77939" lon="0.15715">
        <ele>1933</ele>
        <time>2021-01-29T12:44:18Z</time>
      </trkpt>
      <trkpt lat="42.77938" lon="0.15716">
        <ele>1933</ele>
        <time>2021-01-29T12:44:19Z</time>
      </trkpt>
      <trkpt lat="42.77938" lon="0.15716">
        <ele>1933.6</ele>
        <time>2021-01-29T12:44:20Z</time>
      </trkpt>
      <trkpt lat="42.77937" lon="0.15716">
        <ele>1933.4</ele>
        <time>2021-01-29T12:44:21Z</time>
      </trkpt>
      <trkpt lat="42.77936" lon="0.15716">
        <ele>1933.8</ele>
        <time>2021-01-29T12:44:22Z</time>
      </trkpt>
      <trkpt lat="42.77935" lon="0.15716">
        <ele>1934</ele>
        <time>2021-01-29T12:44:23Z</time>
      </trkpt>
      <trkpt lat="42.77935" lon="0.15716">
        <ele>1934</ele>
        <time>2021-01-29T12:44:24Z</time>
      </trkpt>
      <trkpt lat="42.77934" lon="0.15716">
        <ele>1934.2</ele>
        <time>2021-01-29T12:44:25Z</time>
      </trkpt>
      <trkpt lat="42.77934" lon="0.15716">
        <ele>1934.4</ele>
        <time>2021-01-29T12:44:26Z</time>
      </trkpt>
      <trkpt lat="42.77933" lon="0.15716">
        <ele>1934.6</ele>
        <time>2021-01-29T12:44:27Z</time>
      </trkpt>
      <trkpt lat="42.77932" lon="0.15716">
        <ele>1934.8</ele>
        <time>2021-01-29T12:44:28Z</time>
      </trkpt>
      <trkpt lat="42.77932" lon="0.15716">
        <ele>1934.8</ele>
        <time>2021-01-29T12:44:29Z</time>
      </trkpt>
      <trkpt lat="42.77931" lon="0.15716">
        <ele>1934.8</ele>
        <time>2021-01-29T12:44:30Z</time>
      </trkpt>
      <trkpt lat="42.7793" lon="0.15716">
        <ele>1935.2</ele>
        <time>2021-01-29T12:44:31Z</time>
      </trkpt>
      <trkpt lat="42.7793" lon="0.15716">
        <ele>1935.4</ele>
        <time>2021-01-29T12:44:32Z</time>
      </trkpt>
      <trkpt lat="42.77929" lon="0.15716">
        <ele>1935.4</ele>
        <time>2021-01-29T12:44:33Z</time>
      </trkpt>
      <trkpt lat="42.77928" lon="0.15716">
        <ele>1935.8</ele>
        <time>2021-01-29T12:44:34Z</time>
      </trkpt>
      <trkpt lat="42.77928" lon="0.15716">
        <ele>1936</ele>
        <time>2021-01-29T12:44:35Z</time>
      </trkpt>
      <trkpt lat="42.77927" lon="0.15716">
        <ele>1936.2</ele>
        <time>2021-01-29T12:44:36Z</time>
      </trkpt>
      <trkpt lat="42.77926" lon="0.15716">
        <ele>1936.4</ele>
        <time>2021-01-29T12:44:37Z</time>
      </trkpt>
      <trkpt lat="42.77926" lon="0.15717">
        <ele>1936.4</ele>
        <time>2021-01-29T12:44:38Z</time>
      </trkpt>
      <trkpt lat="42.77925" lon="0.15717">
        <ele>1936.6</ele>
        <time>2021-01-29T12:44:39Z</time>
      </trkpt>
      <trkpt lat="42.77924" lon="0.15717">
        <ele>1936.8</ele>
        <time>2021-01-29T12:44:40Z</time>
      </trkpt>
      <trkpt lat="42.77924" lon="0.15717">
        <ele>1937</ele>
        <time>2021-01-29T12:44:41Z</time>
      </trkpt>
      <trkpt lat="42.77923" lon="0.15717">
        <ele>1937.4</ele>
        <time>2021-01-29T12:44:42Z</time>
      </trkpt>
      <trkpt lat="42.77923" lon="0.15717">
        <ele>1937.4</ele>
        <time>2021-01-29T12:44:43Z</time>
      </trkpt>
      <trkpt lat="42.77922" lon="0.15717">
        <ele>1937.6</ele>
        <time>2021-01-29T12:44:44Z</time>
      </trkpt>
      <trkpt lat="42.77922" lon="0.15717">
        <ele>1937.8</ele>
        <time>2021-01-29T12:44:45Z</time>
      </trkpt>
      <trkpt lat="42.77922" lon="0.15717">
        <ele>1938</ele>
        <time>2021-01-29T12:44:46Z</time>
      </trkpt>
      <trkpt lat="42.77922" lon="0.15716">
        <ele>1938.2</ele>
        <time>2021-01-29T12:44:47Z</time>
      </trkpt>
      <trkpt lat="42.77922" lon="0.15715">
        <ele>1938.2</ele>
        <time>2021-01-29T12:44:48Z</time>
      </trkpt>
      <trkpt lat="42.77922" lon="0.15714">
        <ele>1938.4</ele>
        <time>2021-01-29T12:44:49Z</time>
      </trkpt>
      <trkpt lat="42.77922" lon="0.15713">
        <ele>1938.6</ele>
        <time>2021-01-29T12:44:50Z</time>
      </trkpt>
      <trkpt lat="42.77923" lon="0.15712">
        <ele>1938.8</ele>
        <time>2021-01-29T12:44:51Z</time>
      </trkpt>
      <trkpt lat="42.77923" lon="0.15711">
        <ele>1939</ele>
        <time>2021-01-29T12:44:52Z</time>
      </trkpt>
      <trkpt lat="42.77923" lon="0.1571">
        <ele>1939</ele>
        <time>2021-01-29T12:44:53Z</time>
      </trkpt>
      <trkpt lat="42.77924" lon="0.1571">
        <ele>1939.2</ele>
        <time>2021-01-29T12:44:54Z</time>
      </trkpt>
      <trkpt lat="42.77924" lon="0.15709">
        <ele>1939.4</ele>
        <time>2021-01-29T12:44:55Z</time>
      </trkpt>
      <trkpt lat="42.77924" lon="0.15708">
        <ele>1939.2</ele>
        <time>2021-01-29T12:44:56Z</time>
      </trkpt>
      <trkpt lat="42.77925" lon="0.15707">
        <ele>1939.6</ele>
        <time>2021-01-29T12:44:57Z</time>
      </trkpt>
      <trkpt lat="42.77925" lon="0.15707">
        <ele>1939.6</ele>
        <time>2021-01-29T12:44:58Z</time>
      </trkpt>
      <trkpt lat="42.77925" lon="0.15706">
        <ele>1939.8</ele>
        <time>2021-01-29T12:44:59Z</time>
      </trkpt>
      <trkpt lat="42.77926" lon="0.15705">
        <ele>1940</ele>
        <time>2021-01-29T12:45:00Z</time>
      </trkpt>
      <trkpt lat="42.77926" lon="0.15705">
        <ele>1940.2</ele>
        <time>2021-01-29T12:45:01Z</time>
      </trkpt>
      <trkpt lat="42.77926" lon="0.15704">
        <ele>1940.4</ele>
        <time>2021-01-29T12:45:02Z</time>
      </trkpt>
      <trkpt lat="42.77926" lon="0.15703">
        <ele>1940.6</ele>
        <time>2021-01-29T12:45:03Z</time>
      </trkpt>
      <trkpt lat="42.77926" lon="0.15702">
        <ele>1940.6</ele>
        <time>2021-01-29T12:45:04Z</time>
      </trkpt>
      <trkpt lat="42.77926" lon="0.15701">
        <ele>1940.8</ele>
        <time>2021-01-29T12:45:05Z</time>
      </trkpt>
      <trkpt lat="42.77927" lon="0.157">
        <ele>1941</ele>
        <time>2021-01-29T12:45:06Z</time>
      </trkpt>
      <trkpt lat="42.77927" lon="0.15699">
        <ele>1941.2</ele>
        <time>2021-01-29T12:45:07Z</time>
      </trkpt>
      <trkpt lat="42.77928" lon="0.15698">
        <ele>1941.4</ele>
        <time>2021-01-29T12:45:08Z</time>
      </trkpt>
      <trkpt lat="42.77928" lon="0.15698">
        <ele>1941.2</ele>
        <time>2021-01-29T12:45:09Z</time>
      </trkpt>
      <trkpt lat="42.77928" lon="0.15697">
        <ele>1941.6</ele>
        <time>2021-01-29T12:45:10Z</time>
      </trkpt>
      <trkpt lat="42.77928" lon="0.15696">
        <ele>1941.8</ele>
        <time>2021-01-29T12:45:11Z</time>
      </trkpt>
      <trkpt lat="42.77928" lon="0.15695">
        <ele>1942</ele>
        <time>2021-01-29T12:45:12Z</time>
      </trkpt>
      <trkpt lat="42.77928" lon="0.15694">
        <ele>1942.2</ele>
        <time>2021-01-29T12:45:13Z</time>
      </trkpt>
      <trkpt lat="42.77928" lon="0.15693">
        <ele>1942.2</ele>
        <time>2021-01-29T12:45:14Z</time>
      </trkpt>
      <trkpt lat="42.77928" lon="0.15692">
        <ele>1942.4</ele>
        <time>2021-01-29T12:45:15Z</time>
      </trkpt>
      <trkpt lat="42.77928" lon="0.15692">
        <ele>1942.6</ele>
        <time>2021-01-29T12:45:16Z</time>
      </trkpt>
      <trkpt lat="42.77928" lon="0.15691">
        <ele>1942.6</ele>
        <time>2021-01-29T12:45:17Z</time>
      </trkpt>
      <trkpt lat="42.77927" lon="0.1569">
        <ele>1942.8</ele>
        <time>2021-01-29T12:45:18Z</time>
      </trkpt>
      <trkpt lat="42.77927" lon="0.15689">
        <ele>1943</ele>
        <time>2021-01-29T12:45:19Z</time>
      </trkpt>
      <trkpt lat="42.77927" lon="0.15688">
        <ele>1943</ele>
        <time>2021-01-29T12:45:20Z</time>
      </trkpt>
      <trkpt lat="42.77927" lon="0.15687">
        <ele>1943.2</ele>
        <time>2021-01-29T12:45:21Z</time>
      </trkpt>
      <trkpt lat="42.77927" lon="0.15687">
        <ele>1943.4</ele>
        <time>2021-01-29T12:45:22Z</time>
      </trkpt>
      <trkpt lat="42.77927" lon="0.15686">
        <ele>1943.6</ele>
        <time>2021-01-29T12:45:23Z</time>
      </trkpt>
      <trkpt lat="42.77927" lon="0.15685">
        <ele>1943.8</ele>
        <time>2021-01-29T12:45:24Z</time>
      </trkpt>
      <trkpt lat="42.77927" lon="0.15684">
        <ele>1944</ele>
        <time>2021-01-29T12:45:25Z</time>
      </trkpt>
      <trkpt lat="42.77927" lon="0.15683">
        <ele>1944</ele>
        <time>2021-01-29T12:45:26Z</time>
      </trkpt>
      <trkpt lat="42.77926" lon="0.15682">
        <ele>1944.2</ele>
        <time>2021-01-29T12:45:27Z</time>
      </trkpt>
      <trkpt lat="42.77926" lon="0.15681">
        <ele>1944.4</ele>
        <time>2021-01-29T12:45:28Z</time>
      </trkpt>
      <trkpt lat="42.77926" lon="0.1568">
        <ele>1944.4</ele>
        <time>2021-01-29T12:45:29Z</time>
      </trkpt>
      <trkpt lat="42.77926" lon="0.15679">
        <ele>1944.6</ele>
        <time>2021-01-29T12:45:30Z</time>
      </trkpt>
      <trkpt lat="42.77925" lon="0.15679">
        <ele>1944.8</ele>
        <time>2021-01-29T12:45:31Z</time>
      </trkpt>
      <trkpt lat="42.77925" lon="0.15678">
        <ele>1945</ele>
        <time>2021-01-29T12:45:32Z</time>
      </trkpt>
      <trkpt lat="42.77925" lon="0.15677">
        <ele>1945.2</ele>
        <time>2021-01-29T12:45:33Z</time>
      </trkpt>
      <trkpt lat="42.77925" lon="0.15676">
        <ele>1945.2</ele>
        <time>2021-01-29T12:45:34Z</time>
      </trkpt>
      <trkpt lat="42.77925" lon="0.15675">
        <ele>1945.4</ele>
        <time>2021-01-29T12:45:35Z</time>
      </trkpt>
      <trkpt lat="42.77924" lon="0.15674">
        <ele>1945.6</ele>
        <time>2021-01-29T12:45:36Z</time>
      </trkpt>
      <trkpt lat="42.77924" lon="0.15673">
        <ele>1945.6</ele>
        <time>2021-01-29T12:45:37Z</time>
      </trkpt>
      <trkpt lat="42.77924" lon="0.15673">
        <ele>1946</ele>
        <time>2021-01-29T12:45:38Z</time>
      </trkpt>
      <trkpt lat="42.77924" lon="0.15672">
        <ele>1946</ele>
        <time>2021-01-29T12:45:39Z</time>
      </trkpt>
      <trkpt lat="42.77924" lon="0.15671">
        <ele>1946.2</ele>
        <time>2021-01-29T12:45:40Z</time>
      </trkpt>
      <trkpt lat="42.77924" lon="0.1567">
        <ele>1946.4</ele>
        <time>2021-01-29T12:45:41Z</time>
      </trkpt>
      <trkpt lat="42.77923" lon="0.15669">
        <ele>1946.4</ele>
        <time>2021-01-29T12:45:42Z</time>
      </trkpt>
      <trkpt lat="42.77923" lon="0.15668">
        <ele>1946.6</ele>
        <time>2021-01-29T12:45:43Z</time>
      </trkpt>
      <trkpt lat="42.77923" lon="0.15668">
        <ele>1946.8</ele>
        <time>2021-01-29T12:45:44Z</time>
      </trkpt>
      <trkpt lat="42.77923" lon="0.15667">
        <ele>1946.8</ele>
        <time>2021-01-29T12:45:45Z</time>
      </trkpt>
      <trkpt lat="42.77923" lon="0.15666">
        <ele>1947</ele>
        <time>2021-01-29T12:45:46Z</time>
      </trkpt>
      <trkpt lat="42.77923" lon="0.15665">
        <ele>1947.4</ele>
        <time>2021-01-29T12:45:47Z</time>
      </trkpt>
      <trkpt lat="42.77922" lon="0.15664">
        <ele>1947.4</ele>
        <time>2021-01-29T12:45:48Z</time>
      </trkpt>
      <trkpt lat="42.77922" lon="0.15663">
        <ele>1947.6</ele>
        <time>2021-01-29T12:45:49Z</time>
      </trkpt>
      <trkpt lat="42.77922" lon="0.15662">
        <ele>1947.6</ele>
        <time>2021-01-29T12:45:50Z</time>
      </trkpt>
      <trkpt lat="42.77922" lon="0.15661">
        <ele>1947.8</ele>
        <time>2021-01-29T12:45:51Z</time>
      </trkpt>
      <trkpt lat="42.77922" lon="0.1566">
        <ele>1948</ele>
        <time>2021-01-29T12:45:52Z</time>
      </trkpt>
      <trkpt lat="42.77922" lon="0.15659">
        <ele>1948.2</ele>
        <time>2021-01-29T12:45:53Z</time>
      </trkpt>
      <trkpt lat="42.77922" lon="0.15658">
        <ele>1948.2</ele>
        <time>2021-01-29T12:45:54Z</time>
      </trkpt>
      <trkpt lat="42.77922" lon="0.15658">
        <ele>1948.6</ele>
        <time>2021-01-29T12:45:55Z</time>
      </trkpt>
      <trkpt lat="42.77921" lon="0.15657">
        <ele>1948.6</ele>
        <time>2021-01-29T12:45:56Z</time>
      </trkpt>
      <trkpt lat="42.77921" lon="0.15656">
        <ele>1948.8</ele>
        <time>2021-01-29T12:45:57Z</time>
      </trkpt>
      <trkpt lat="42.7792" lon="0.15655">
        <ele>1949.2</ele>
        <time>2021-01-29T12:45:58Z</time>
      </trkpt>
      <trkpt lat="42.7792" lon="0.15655">
        <ele>1949.2</ele>
        <time>2021-01-29T12:45:59Z</time>
      </trkpt>
      <trkpt lat="42.77919" lon="0.15655">
        <ele>1949.4</ele>
        <time>2021-01-29T12:46:00Z</time>
      </trkpt>
      <trkpt lat="42.77919" lon="0.15655">
        <ele>1949.8</ele>
        <time>2021-01-29T12:46:01Z</time>
      </trkpt>
      <trkpt lat="42.77918" lon="0.15655">
        <ele>1949.8</ele>
        <time>2021-01-29T12:46:02Z</time>
      </trkpt>
      <trkpt lat="42.77917" lon="0.15655">
        <ele>1950</ele>
        <time>2021-01-29T12:46:03Z</time>
      </trkpt>
      <trkpt lat="42.77917" lon="0.15655">
        <ele>1950.2</ele>
        <time>2021-01-29T12:46:04Z</time>
      </trkpt>
      <trkpt lat="42.77916" lon="0.15655">
        <ele>1950.2</ele>
        <time>2021-01-29T12:46:05Z</time>
      </trkpt>
      <trkpt lat="42.77915" lon="0.15656">
        <ele>1950.4</ele>
        <time>2021-01-29T12:46:06Z</time>
      </trkpt>
      <trkpt lat="42.77915" lon="0.15656">
        <ele>1950.8</ele>
        <time>2021-01-29T12:46:07Z</time>
      </trkpt>
      <trkpt lat="42.77914" lon="0.15656">
        <ele>1950.6</ele>
        <time>2021-01-29T12:46:08Z</time>
      </trkpt>
      <trkpt lat="42.77913" lon="0.15656">
        <ele>1951</ele>
        <time>2021-01-29T12:46:09Z</time>
      </trkpt>
      <trkpt lat="42.77913" lon="0.15656">
        <ele>1951</ele>
        <time>2021-01-29T12:46:10Z</time>
      </trkpt>
      <trkpt lat="42.77912" lon="0.15656">
        <ele>1951.2</ele>
        <time>2021-01-29T12:46:11Z</time>
      </trkpt>
      <trkpt lat="42.77912" lon="0.15656">
        <ele>1951.4</ele>
        <time>2021-01-29T12:46:12Z</time>
      </trkpt>
      <trkpt lat="42.77911" lon="0.15657">
        <ele>1951.6</ele>
        <time>2021-01-29T12:46:13Z</time>
      </trkpt>
      <trkpt lat="42.77911" lon="0.15657">
        <ele>1951.6</ele>
        <time>2021-01-29T12:46:14Z</time>
      </trkpt>
      <trkpt lat="42.7791" lon="0.15657">
        <ele>1951.8</ele>
        <time>2021-01-29T12:46:15Z</time>
      </trkpt>
      <trkpt lat="42.77909" lon="0.15657">
        <ele>1952</ele>
        <time>2021-01-29T12:46:16Z</time>
      </trkpt>
      <trkpt lat="42.77909" lon="0.15657">
        <ele>1952</ele>
        <time>2021-01-29T12:46:17Z</time>
      </trkpt>
      <trkpt lat="42.77908" lon="0.15657">
        <ele>1952</ele>
        <time>2021-01-29T12:46:18Z</time>
      </trkpt>
      <trkpt lat="42.77907" lon="0.15657">
        <ele>1952.4</ele>
        <time>2021-01-29T12:46:19Z</time>
      </trkpt>
      <trkpt lat="42.77907" lon="0.15658">
        <ele>1952.2</ele>
        <time>2021-01-29T12:46:20Z</time>
      </trkpt>
      <trkpt lat="42.77906" lon="0.15658">
        <ele>1952.6</ele>
        <time>2021-01-29T12:46:21Z</time>
      </trkpt>
      <trkpt lat="42.77906" lon="0.15658">
        <ele>1952.4</ele>
        <time>2021-01-29T12:46:22Z</time>
      </trkpt>
      <trkpt lat="42.77905" lon="0.15658">
        <ele>1952.8</ele>
        <time>2021-01-29T12:46:23Z</time>
      </trkpt>
      <trkpt lat="42.77905" lon="0.15658">
        <ele>1952.6</ele>
        <time>2021-01-29T12:46:24Z</time>
      </trkpt>
      <trkpt lat="42.77904" lon="0.15659">
        <ele>1952.8</ele>
        <time>2021-01-29T12:46:25Z</time>
      </trkpt>
      <trkpt lat="42.77903" lon="0.15659">
        <ele>1953</ele>
        <time>2021-01-29T12:46:26Z</time>
      </trkpt>
      <trkpt lat="42.77903" lon="0.15659">
        <ele>1953.2</ele>
        <time>2021-01-29T12:46:27Z</time>
      </trkpt>
      <trkpt lat="42.77902" lon="0.15659">
        <ele>1953.4</ele>
        <time>2021-01-29T12:46:28Z</time>
      </trkpt>
      <trkpt lat="42.77902" lon="0.15659">
        <ele>1953.4</ele>
        <time>2021-01-29T12:46:29Z</time>
      </trkpt>
      <trkpt lat="42.77901" lon="0.15659">
        <ele>1953.4</ele>
        <time>2021-01-29T12:46:30Z</time>
      </trkpt>
      <trkpt lat="42.77901" lon="0.15659">
        <ele>1953.6</ele>
        <time>2021-01-29T12:46:31Z</time>
      </trkpt>
      <trkpt lat="42.779" lon="0.15659">
        <ele>1953.6</ele>
        <time>2021-01-29T12:46:32Z</time>
      </trkpt>
      <trkpt lat="42.77899" lon="0.15659">
        <ele>1954</ele>
        <time>2021-01-29T12:46:33Z</time>
      </trkpt>
      <trkpt lat="42.77898" lon="0.15659">
        <ele>1954</ele>
        <time>2021-01-29T12:46:34Z</time>
      </trkpt>
      <trkpt lat="42.77898" lon="0.15659">
        <ele>1954.2</ele>
        <time>2021-01-29T12:46:35Z</time>
      </trkpt>
      <trkpt lat="42.77897" lon="0.15659">
        <ele>1954.4</ele>
        <time>2021-01-29T12:46:36Z</time>
      </trkpt>
      <trkpt lat="42.77897" lon="0.15659">
        <ele>1954.4</ele>
        <time>2021-01-29T12:46:37Z</time>
      </trkpt>
      <trkpt lat="42.77896" lon="0.15659">
        <ele>1954.6</ele>
        <time>2021-01-29T12:46:38Z</time>
      </trkpt>
      <trkpt lat="42.77895" lon="0.1566">
        <ele>1954.6</ele>
        <time>2021-01-29T12:46:39Z</time>
      </trkpt>
      <trkpt lat="42.77895" lon="0.1566">
        <ele>1954.8</ele>
        <time>2021-01-29T12:46:40Z</time>
      </trkpt>
      <trkpt lat="42.77894" lon="0.1566">
        <ele>1955</ele>
        <time>2021-01-29T12:46:41Z</time>
      </trkpt>
      <trkpt lat="42.77894" lon="0.1566">
        <ele>1955</ele>
        <time>2021-01-29T12:46:42Z</time>
      </trkpt>
      <trkpt lat="42.77894" lon="0.1566">
        <ele>1955.2</ele>
        <time>2021-01-29T12:46:43Z</time>
      </trkpt>
      <trkpt lat="42.77894" lon="0.1566">
        <ele>1955.4</ele>
        <time>2021-01-29T12:46:44Z</time>
      </trkpt>
      <trkpt lat="42.77894" lon="0.1566">
        <ele>1955.2</ele>
        <time>2021-01-29T12:46:45Z</time>
      </trkpt>
      <trkpt lat="42.77893" lon="0.15659">
        <ele>1955.6</ele>
        <time>2021-01-29T12:46:46Z</time>
      </trkpt>
      <trkpt lat="42.7789" lon="0.15659">
        <ele>1955.6</ele>
        <time>2021-01-29T12:46:47Z</time>
      </trkpt>
      <trkpt lat="42.77889" lon="0.15659">
        <ele>1955.8</ele>
        <time>2021-01-29T12:46:48Z</time>
      </trkpt>
      <trkpt lat="42.77889" lon="0.15659">
        <ele>1956</ele>
        <time>2021-01-29T12:46:49Z</time>
      </trkpt>
      <trkpt lat="42.77888" lon="0.15659">
        <ele>1956</ele>
        <time>2021-01-29T12:46:50Z</time>
      </trkpt>
      <trkpt lat="42.77888" lon="0.15659">
        <ele>1956.4</ele>
        <time>2021-01-29T12:46:51Z</time>
      </trkpt>
      <trkpt lat="42.77887" lon="0.15659">
        <ele>1956.4</ele>
        <time>2021-01-29T12:46:52Z</time>
      </trkpt>
      <trkpt lat="42.77886" lon="0.15659">
        <ele>1956.4</ele>
        <time>2021-01-29T12:46:53Z</time>
      </trkpt>
      <trkpt lat="42.77886" lon="0.15659">
        <ele>1956.8</ele>
        <time>2021-01-29T12:46:54Z</time>
      </trkpt>
      <trkpt lat="42.77885" lon="0.15659">
        <ele>1956.8</ele>
        <time>2021-01-29T12:46:55Z</time>
      </trkpt>
      <trkpt lat="42.77884" lon="0.15659">
        <ele>1957</ele>
        <time>2021-01-29T12:46:56Z</time>
      </trkpt>
      <trkpt lat="42.77884" lon="0.15659">
        <ele>1957.2</ele>
        <time>2021-01-29T12:46:57Z</time>
      </trkpt>
      <trkpt lat="42.77883" lon="0.15659">
        <ele>1957.2</ele>
        <time>2021-01-29T12:46:58Z</time>
      </trkpt>
      <trkpt lat="42.77883" lon="0.15659">
        <ele>1957.4</ele>
        <time>2021-01-29T12:46:59Z</time>
      </trkpt>
      <trkpt lat="42.77883" lon="0.15659">
        <ele>1957.4</ele>
        <time>2021-01-29T12:47:00Z</time>
      </trkpt>
      <trkpt lat="42.77883" lon="0.15659">
        <ele>1957.6</ele>
        <time>2021-01-29T12:47:01Z</time>
      </trkpt>
      <trkpt lat="42.77883" lon="0.15659">
        <ele>1957.6</ele>
        <time>2021-01-29T12:47:02Z</time>
      </trkpt>
      <trkpt lat="42.77883" lon="0.15659">
        <ele>1957.8</ele>
        <time>2021-01-29T12:47:03Z</time>
      </trkpt>
      <trkpt lat="42.77883" lon="0.15659">
        <ele>1958</ele>
        <time>2021-01-29T12:47:04Z</time>
      </trkpt>
      <trkpt lat="42.77881" lon="0.15658">
        <ele>1958</ele>
        <time>2021-01-29T12:47:05Z</time>
      </trkpt>
      <trkpt lat="42.77878" lon="0.15657">
        <ele>1958.2</ele>
        <time>2021-01-29T12:47:06Z</time>
      </trkpt>
      <trkpt lat="42.77878" lon="0.15657">
        <ele>1958.4</ele>
        <time>2021-01-29T12:47:07Z</time>
      </trkpt>
      <trkpt lat="42.77877" lon="0.15657">
        <ele>1958.4</ele>
        <time>2021-01-29T12:47:08Z</time>
      </trkpt>
      <trkpt lat="42.77876" lon="0.15657">
        <ele>1958.6</ele>
        <time>2021-01-29T12:47:09Z</time>
      </trkpt>
      <trkpt lat="42.77876" lon="0.15656">
        <ele>1958.6</ele>
        <time>2021-01-29T12:47:10Z</time>
      </trkpt>
      <trkpt lat="42.77875" lon="0.15656">
        <ele>1958.8</ele>
        <time>2021-01-29T12:47:11Z</time>
      </trkpt>
      <trkpt lat="42.77875" lon="0.15656">
        <ele>1959</ele>
        <time>2021-01-29T12:47:12Z</time>
      </trkpt>
      <trkpt lat="42.77874" lon="0.15656">
        <ele>1959</ele>
        <time>2021-01-29T12:47:13Z</time>
      </trkpt>
      <trkpt lat="42.77874" lon="0.15656">
        <ele>1959.2</ele>
        <time>2021-01-29T12:47:14Z</time>
      </trkpt>
      <trkpt lat="42.77873" lon="0.15656">
        <ele>1959.2</ele>
        <time>2021-01-29T12:47:15Z</time>
      </trkpt>
      <trkpt lat="42.77873" lon="0.15655">
        <ele>1959.4</ele>
        <time>2021-01-29T12:47:16Z</time>
      </trkpt>
      <trkpt lat="42.77872" lon="0.15655">
        <ele>1959.6</ele>
        <time>2021-01-29T12:47:17Z</time>
      </trkpt>
      <trkpt lat="42.77872" lon="0.15655">
        <ele>1959.6</ele>
        <time>2021-01-29T12:47:18Z</time>
      </trkpt>
      <trkpt lat="42.77871" lon="0.15655">
        <ele>1959.8</ele>
        <time>2021-01-29T12:47:19Z</time>
      </trkpt>
      <trkpt lat="42.7787" lon="0.15655">
        <ele>1959.8</ele>
        <time>2021-01-29T12:47:20Z</time>
      </trkpt>
      <trkpt lat="42.77869" lon="0.15655">
        <ele>1959.8</ele>
        <time>2021-01-29T12:47:21Z</time>
      </trkpt>
      <trkpt lat="42.77869" lon="0.15654">
        <ele>1960.2</ele>
        <time>2021-01-29T12:47:22Z</time>
      </trkpt>
      <trkpt lat="42.77868" lon="0.15654">
        <ele>1960.2</ele>
        <time>2021-01-29T12:47:23Z</time>
      </trkpt>
      <trkpt lat="42.77868" lon="0.15654">
        <ele>1960.4</ele>
        <time>2021-01-29T12:47:24Z</time>
      </trkpt>
      <trkpt lat="42.77867" lon="0.15654">
        <ele>1960.6</ele>
        <time>2021-01-29T12:47:25Z</time>
      </trkpt>
      <trkpt lat="42.77866" lon="0.15654">
        <ele>1960.8</ele>
        <time>2021-01-29T12:47:26Z</time>
      </trkpt>
      <trkpt lat="42.77866" lon="0.15654">
        <ele>1961</ele>
        <time>2021-01-29T12:47:27Z</time>
      </trkpt>
      <trkpt lat="42.77865" lon="0.15654">
        <ele>1961</ele>
        <time>2021-01-29T12:47:28Z</time>
      </trkpt>
      <trkpt lat="42.77865" lon="0.15654">
        <ele>1961.2</ele>
        <time>2021-01-29T12:47:29Z</time>
      </trkpt>
      <trkpt lat="42.77864" lon="0.15654">
        <ele>1961.4</ele>
        <time>2021-01-29T12:47:30Z</time>
      </trkpt>
      <trkpt lat="42.77864" lon="0.15654">
        <ele>1961.4</ele>
        <time>2021-01-29T12:47:31Z</time>
      </trkpt>
      <trkpt lat="42.77863" lon="0.15654">
        <ele>1961.6</ele>
        <time>2021-01-29T12:47:32Z</time>
      </trkpt>
      <trkpt lat="42.77863" lon="0.15654">
        <ele>1961.8</ele>
        <time>2021-01-29T12:47:33Z</time>
      </trkpt>
      <trkpt lat="42.77863" lon="0.15654">
        <ele>1961.8</ele>
        <time>2021-01-29T12:47:34Z</time>
      </trkpt>
      <trkpt lat="42.77863" lon="0.15653">
        <ele>1961.8</ele>
        <time>2021-01-29T12:47:35Z</time>
      </trkpt>
      <trkpt lat="42.77862" lon="0.15653">
        <ele>1962</ele>
        <time>2021-01-29T12:47:36Z</time>
      </trkpt>
      <trkpt lat="42.77861" lon="0.15653">
        <ele>1962</ele>
        <time>2021-01-29T12:47:37Z</time>
      </trkpt>
      <trkpt lat="42.77861" lon="0.15653">
        <ele>1962.2</ele>
        <time>2021-01-29T12:47:38Z</time>
      </trkpt>
      <trkpt lat="42.7786" lon="0.15653">
        <ele>1962.4</ele>
        <time>2021-01-29T12:47:39Z</time>
      </trkpt>
      <trkpt lat="42.77859" lon="0.15653">
        <ele>1962.4</ele>
        <time>2021-01-29T12:47:40Z</time>
      </trkpt>
      <trkpt lat="42.77858" lon="0.15653">
        <ele>1962.6</ele>
        <time>2021-01-29T12:47:41Z</time>
      </trkpt>
      <trkpt lat="42.77857" lon="0.15653">
        <ele>1962.8</ele>
        <time>2021-01-29T12:47:42Z</time>
      </trkpt>
      <trkpt lat="42.77857" lon="0.15653">
        <ele>1962.8</ele>
        <time>2021-01-29T12:47:43Z</time>
      </trkpt>
      <trkpt lat="42.77856" lon="0.15653">
        <ele>1963.2</ele>
        <time>2021-01-29T12:47:44Z</time>
      </trkpt>
      <trkpt lat="42.77856" lon="0.15652">
        <ele>1963.2</ele>
        <time>2021-01-29T12:47:45Z</time>
      </trkpt>
      <trkpt lat="42.77855" lon="0.15651">
        <ele>1963.2</ele>
        <time>2021-01-29T12:47:46Z</time>
      </trkpt>
      <trkpt lat="42.77855" lon="0.15651">
        <ele>1963.6</ele>
        <time>2021-01-29T12:47:47Z</time>
      </trkpt>
      <trkpt lat="42.77854" lon="0.1565">
        <ele>1963.6</ele>
        <time>2021-01-29T12:47:48Z</time>
      </trkpt>
      <trkpt lat="42.77854" lon="0.15649">
        <ele>1963.8</ele>
        <time>2021-01-29T12:47:49Z</time>
      </trkpt>
      <trkpt lat="42.77854" lon="0.15649">
        <ele>1964</ele>
        <time>2021-01-29T12:47:50Z</time>
      </trkpt>
      <trkpt lat="42.77854" lon="0.15648">
        <ele>1964</ele>
        <time>2021-01-29T12:47:51Z</time>
      </trkpt>
      <trkpt lat="42.77854" lon="0.15648">
        <ele>1964.2</ele>
        <time>2021-01-29T12:47:52Z</time>
      </trkpt>
      <trkpt lat="42.77854" lon="0.15648">
        <ele>1964.2</ele>
        <time>2021-01-29T12:47:53Z</time>
      </trkpt>
      <trkpt lat="42.77854" lon="0.15648">
        <ele>1964</ele>
        <time>2021-01-29T12:47:54Z</time>
      </trkpt>
      <trkpt lat="42.77854" lon="0.15648">
        <ele>1964.2</ele>
        <time>2021-01-29T12:47:55Z</time>
      </trkpt>
      <trkpt lat="42.77854" lon="0.15648">
        <ele>1964.2</ele>
        <time>2021-01-29T12:47:56Z</time>
      </trkpt>
      <trkpt lat="42.77854" lon="0.15648">
        <ele>1964.2</ele>
        <time>2021-01-29T12:47:57Z</time>
      </trkpt>
      <trkpt lat="42.77854" lon="0.15648">
        <ele>1964.2</ele>
        <time>2021-01-29T12:47:58Z</time>
      </trkpt>
      <trkpt lat="42.77854" lon="0.15648">
        <ele>1964.2</ele>
        <time>2021-01-29T12:47:59Z</time>
      </trkpt>
      <trkpt lat="42.77854" lon="0.15648">
        <ele>1964.2</ele>
        <time>2021-01-29T12:48:00Z</time>
      </trkpt>
      <trkpt lat="42.77854" lon="0.15648">
        <ele>1964.2</ele>
        <time>2021-01-29T12:48:01Z</time>
      </trkpt>
      <trkpt lat="42.77854" lon="0.15648">
        <ele>1964.2</ele>
        <time>2021-01-29T12:48:02Z</time>
      </trkpt>
      <trkpt lat="42.77854" lon="0.15648">
        <ele>1964.2</ele>
        <time>2021-01-29T12:48:03Z</time>
      </trkpt>
      <trkpt lat="42.77854" lon="0.15648">
        <ele>1964.2</ele>
        <time>2021-01-29T12:48:04Z</time>
      </trkpt>
      <trkpt lat="42.77854" lon="0.15648">
        <ele>1964.2</ele>
        <time>2021-01-29T12:48:05Z</time>
      </trkpt>
      <trkpt lat="42.77854" lon="0.15648">
        <ele>1964.2</ele>
        <time>2021-01-29T12:48:06Z</time>
      </trkpt>
      <trkpt lat="42.77854" lon="0.15648">
        <ele>1964.2</ele>
        <time>2021-01-29T12:48:07Z</time>
      </trkpt>
      <trkpt lat="42.77854" lon="0.15648">
        <ele>1964.2</ele>
        <time>2021-01-29T12:48:08Z</time>
      </trkpt>
      <trkpt lat="42.77854" lon="0.15648">
        <ele>1964.2</ele>
        <time>2021-01-29T12:48:09Z</time>
      </trkpt>
      <trkpt lat="42.77854" lon="0.15648">
        <ele>1964.2</ele>
        <time>2021-01-29T12:48:10Z</time>
      </trkpt>
      <trkpt lat="42.77854" lon="0.15648">
        <ele>1964.2</ele>
        <time>2021-01-29T12:48:11Z</time>
      </trkpt>
      <trkpt lat="42.77854" lon="0.15648">
        <ele>1964.2</ele>
        <time>2021-01-29T12:48:12Z</time>
      </trkpt>
      <trkpt lat="42.77854" lon="0.15648">
        <ele>1964.2</ele>
        <time>2021-01-29T12:48:13Z</time>
      </trkpt>
      <trkpt lat="42.77854" lon="0.15648">
        <ele>1964.2</ele>
        <time>2021-01-29T12:48:14Z</time>
      </trkpt>
      <trkpt lat="42.77854" lon="0.15648">
        <ele>1964.2</ele>
        <time>2021-01-29T12:48:15Z</time>
      </trkpt>
      <trkpt lat="42.77854" lon="0.15648">
        <ele>1964.2</ele>
        <time>2021-01-29T12:48:16Z</time>
      </trkpt>
      <trkpt lat="42.77854" lon="0.15648">
        <ele>1964.2</ele>
        <time>2021-01-29T12:48:17Z</time>
      </trkpt>
      <trkpt lat="42.77854" lon="0.15648">
        <ele>1964.2</ele>
        <time>2021-01-29T12:48:18Z</time>
      </trkpt>
      <trkpt lat="42.77854" lon="0.15648">
        <ele>1964.2</ele>
        <time>2021-01-29T12:48:19Z</time>
      </trkpt>
      <trkpt lat="42.77854" lon="0.15648">
        <ele>1964.2</ele>
        <time>2021-01-29T12:48:20Z</time>
      </trkpt>
      <trkpt lat="42.77854" lon="0.15648">
        <ele>1964.4</ele>
        <time>2021-01-29T12:48:21Z</time>
      </trkpt>
      <trkpt lat="42.77854" lon="0.15648">
        <ele>1964.4</ele>
        <time>2021-01-29T12:48:22Z</time>
      </trkpt>
      <trkpt lat="42.77854" lon="0.15648">
        <ele>1964.4</ele>
        <time>2021-01-29T12:48:23Z</time>
      </trkpt>
      <trkpt lat="42.77854" lon="0.15648">
        <ele>1964.4</ele>
        <time>2021-01-29T12:48:24Z</time>
      </trkpt>
      <trkpt lat="42.77854" lon="0.15648">
        <ele>1964.4</ele>
        <time>2021-01-29T12:48:25Z</time>
      </trkpt>
      <trkpt lat="42.77854" lon="0.15648">
        <ele>1964.4</ele>
        <time>2021-01-29T12:48:26Z</time>
      </trkpt>
      <trkpt lat="42.77854" lon="0.15648">
        <ele>1964.4</ele>
        <time>2021-01-29T12:48:27Z</time>
      </trkpt>
      <trkpt lat="42.77854" lon="0.15648">
        <ele>1964.4</ele>
        <time>2021-01-29T12:48:28Z</time>
      </trkpt>
      <trkpt lat="42.77854" lon="0.15648">
        <ele>1964.4</ele>
        <time>2021-01-29T12:48:29Z</time>
      </trkpt>
      <trkpt lat="42.77854" lon="0.15648">
        <ele>1964.4</ele>
        <time>2021-01-29T12:48:30Z</time>
      </trkpt>
      <trkpt lat="42.77854" lon="0.15648">
        <ele>1964.4</ele>
        <time>2021-01-29T12:48:31Z</time>
      </trkpt>
      <trkpt lat="42.77854" lon="0.15648">
        <ele>1964.4</ele>
        <time>2021-01-29T12:48:32Z</time>
      </trkpt>
      <trkpt lat="42.77854" lon="0.15648">
        <ele>1964.4</ele>
        <time>2021-01-29T12:48:33Z</time>
      </trkpt>
      <trkpt lat="42.77854" lon="0.15648">
        <ele>1964.4</ele>
        <time>2021-01-29T12:48:34Z</time>
      </trkpt>
      <trkpt lat="42.77854" lon="0.15648">
        <ele>1964.4</ele>
        <time>2021-01-29T12:48:35Z</time>
      </trkpt>
      <trkpt lat="42.77854" lon="0.15648">
        <ele>1964.4</ele>
        <time>2021-01-29T12:48:36Z</time>
      </trkpt>
      <trkpt lat="42.77854" lon="0.15648">
        <ele>1964.4</ele>
        <time>2021-01-29T12:48:37Z</time>
      </trkpt>
      <trkpt lat="42.77854" lon="0.15648">
        <ele>1964.4</ele>
        <time>2021-01-29T12:48:38Z</time>
      </trkpt>
      <trkpt lat="42.77854" lon="0.15648">
        <ele>1964.4</ele>
        <time>2021-01-29T12:48:39Z</time>
      </trkpt>
      <trkpt lat="42.77854" lon="0.15648">
        <ele>1964.4</ele>
        <time>2021-01-29T12:48:40Z</time>
      </trkpt>
      <trkpt lat="42.77854" lon="0.15648">
        <ele>1964.4</ele>
        <time>2021-01-29T12:48:41Z</time>
      </trkpt>
      <trkpt lat="42.77854" lon="0.15648">
        <ele>1964.4</ele>
        <time>2021-01-29T12:48:42Z</time>
      </trkpt>
      <trkpt lat="42.77854" lon="0.15648">
        <ele>1964.4</ele>
        <time>2021-01-29T12:48:43Z</time>
      </trkpt>
      <trkpt lat="42.77854" lon="0.15648">
        <ele>1964.4</ele>
        <time>2021-01-29T12:48:44Z</time>
      </trkpt>
      <trkpt lat="42.77854" lon="0.15648">
        <ele>1964.4</ele>
        <time>2021-01-29T12:48:45Z</time>
      </trkpt>
      <trkpt lat="42.77854" lon="0.15648">
        <ele>1964.4</ele>
        <time>2021-01-29T12:48:46Z</time>
      </trkpt>
      <trkpt lat="42.77854" lon="0.15648">
        <ele>1964.4</ele>
        <time>2021-01-29T12:48:47Z</time>
      </trkpt>
      <trkpt lat="42.77854" lon="0.15648">
        <ele>1964.4</ele>
        <time>2021-01-29T12:48:48Z</time>
      </trkpt>
      <trkpt lat="42.77854" lon="0.15648">
        <ele>1964.4</ele>
        <time>2021-01-29T12:48:49Z</time>
      </trkpt>
      <trkpt lat="42.77853" lon="0.15648">
        <ele>1964.6</ele>
        <time>2021-01-29T12:48:50Z</time>
      </trkpt>
      <trkpt lat="42.77852" lon="0.15648">
        <ele>1964.8</ele>
        <time>2021-01-29T12:48:51Z</time>
      </trkpt>
      <trkpt lat="42.77851" lon="0.15649">
        <ele>1964.8</ele>
        <time>2021-01-29T12:48:52Z</time>
      </trkpt>
      <trkpt lat="42.7785" lon="0.15649">
        <ele>1964.8</ele>
        <time>2021-01-29T12:48:53Z</time>
      </trkpt>
      <trkpt lat="42.7785" lon="0.15649">
        <ele>1965</ele>
        <time>2021-01-29T12:48:54Z</time>
      </trkpt>
      <trkpt lat="42.77849" lon="0.1565">
        <ele>1965</ele>
        <time>2021-01-29T12:48:55Z</time>
      </trkpt>
      <trkpt lat="42.77848" lon="0.1565">
        <ele>1965.2</ele>
        <time>2021-01-29T12:48:56Z</time>
      </trkpt>
      <trkpt lat="42.77848" lon="0.1565">
        <ele>1965</ele>
        <time>2021-01-29T12:48:57Z</time>
      </trkpt>
      <trkpt lat="42.77848" lon="0.1565">
        <ele>1965.2</ele>
        <time>2021-01-29T12:48:58Z</time>
      </trkpt>
      <trkpt lat="42.77848" lon="0.1565">
        <ele>1965.2</ele>
        <time>2021-01-29T12:48:59Z</time>
      </trkpt>
      <trkpt lat="42.77848" lon="0.1565">
        <ele>1965.2</ele>
        <time>2021-01-29T12:49:00Z</time>
      </trkpt>
      <trkpt lat="42.77848" lon="0.1565">
        <ele>1965.2</ele>
        <time>2021-01-29T12:49:01Z</time>
      </trkpt>
      <trkpt lat="42.77848" lon="0.1565">
        <ele>1965.4</ele>
        <time>2021-01-29T12:49:02Z</time>
      </trkpt>
      <trkpt lat="42.77848" lon="0.1565">
        <ele>1965.4</ele>
        <time>2021-01-29T12:49:03Z</time>
      </trkpt>
      <trkpt lat="42.77848" lon="0.1565">
        <ele>1965.4</ele>
        <time>2021-01-29T12:49:04Z</time>
      </trkpt>
      <trkpt lat="42.77848" lon="0.1565">
        <ele>1965.4</ele>
        <time>2021-01-29T12:49:05Z</time>
      </trkpt>
      <trkpt lat="42.77848" lon="0.1565">
        <ele>1965.4</ele>
        <time>2021-01-29T12:49:06Z</time>
      </trkpt>
      <trkpt lat="42.77848" lon="0.1565">
        <ele>1965.4</ele>
        <time>2021-01-29T12:49:07Z</time>
      </trkpt>
      <trkpt lat="42.77848" lon="0.1565">
        <ele>1965.4</ele>
        <time>2021-01-29T12:49:08Z</time>
      </trkpt>
      <trkpt lat="42.77848" lon="0.1565">
        <ele>1965.4</ele>
        <time>2021-01-29T12:49:09Z</time>
      </trkpt>
      <trkpt lat="42.77848" lon="0.1565">
        <ele>1965.4</ele>
        <time>2021-01-29T12:49:10Z</time>
      </trkpt>
      <trkpt lat="42.77848" lon="0.1565">
        <ele>1965.4</ele>
        <time>2021-01-29T12:49:11Z</time>
      </trkpt>
      <trkpt lat="42.77848" lon="0.1565">
        <ele>1965.4</ele>
        <time>2021-01-29T12:49:12Z</time>
      </trkpt>
      <trkpt lat="42.77848" lon="0.1565">
        <ele>1965.4</ele>
        <time>2021-01-29T12:49:13Z</time>
      </trkpt>
      <trkpt lat="42.77848" lon="0.1565">
        <ele>1965.4</ele>
        <time>2021-01-29T12:49:14Z</time>
      </trkpt>
      <trkpt lat="42.77848" lon="0.1565">
        <ele>1965.4</ele>
        <time>2021-01-29T12:49:15Z</time>
      </trkpt>
      <trkpt lat="42.77848" lon="0.1565">
        <ele>1965.4</ele>
        <time>2021-01-29T12:49:16Z</time>
      </trkpt>
      <trkpt lat="42.77848" lon="0.1565">
        <ele>1965.4</ele>
        <time>2021-01-29T12:49:17Z</time>
      </trkpt>
      <trkpt lat="42.77848" lon="0.1565">
        <ele>1965.4</ele>
        <time>2021-01-29T12:49:18Z</time>
      </trkpt>
      <trkpt lat="42.77848" lon="0.1565">
        <ele>1965.4</ele>
        <time>2021-01-29T12:49:19Z</time>
      </trkpt>
      <trkpt lat="42.77848" lon="0.1565">
        <ele>1965.4</ele>
        <time>2021-01-29T12:49:20Z</time>
      </trkpt>
      <trkpt lat="42.77848" lon="0.1565">
        <ele>1965.4</ele>
        <time>2021-01-29T12:49:21Z</time>
      </trkpt>
      <trkpt lat="42.77848" lon="0.1565">
        <ele>1965.4</ele>
        <time>2021-01-29T12:49:22Z</time>
      </trkpt>
      <trkpt lat="42.77848" lon="0.1565">
        <ele>1965.4</ele>
        <time>2021-01-29T12:49:23Z</time>
      </trkpt>
      <trkpt lat="42.77848" lon="0.1565">
        <ele>1965.4</ele>
        <time>2021-01-29T12:49:24Z</time>
      </trkpt>
      <trkpt lat="42.77848" lon="0.1565">
        <ele>1965.4</ele>
        <time>2021-01-29T12:49:25Z</time>
      </trkpt>
      <trkpt lat="42.77848" lon="0.1565">
        <ele>1965.6</ele>
        <time>2021-01-29T12:49:26Z</time>
      </trkpt>
      <trkpt lat="42.77848" lon="0.1565">
        <ele>1965.6</ele>
        <time>2021-01-29T12:49:27Z</time>
      </trkpt>
      <trkpt lat="42.77848" lon="0.1565">
        <ele>1965.6</ele>
        <time>2021-01-29T12:49:28Z</time>
      </trkpt>
      <trkpt lat="42.77848" lon="0.1565">
        <ele>1965.6</ele>
        <time>2021-01-29T12:49:29Z</time>
      </trkpt>
      <trkpt lat="42.77848" lon="0.1565">
        <ele>1965.6</ele>
        <time>2021-01-29T12:49:30Z</time>
      </trkpt>
      <trkpt lat="42.77848" lon="0.1565">
        <ele>1965.6</ele>
        <time>2021-01-29T12:49:31Z</time>
      </trkpt>
      <trkpt lat="42.77848" lon="0.1565">
        <ele>1965.6</ele>
        <time>2021-01-29T12:49:32Z</time>
      </trkpt>
      <trkpt lat="42.77848" lon="0.1565">
        <ele>1965.6</ele>
        <time>2021-01-29T12:49:33Z</time>
      </trkpt>
      <trkpt lat="42.77848" lon="0.1565">
        <ele>1965.6</ele>
        <time>2021-01-29T12:49:34Z</time>
      </trkpt>
      <trkpt lat="42.77848" lon="0.1565">
        <ele>1965.6</ele>
        <time>2021-01-29T12:49:35Z</time>
      </trkpt>
      <trkpt lat="42.77848" lon="0.1565">
        <ele>1965.6</ele>
        <time>2021-01-29T12:49:36Z</time>
      </trkpt>
      <trkpt lat="42.77848" lon="0.1565">
        <ele>1965.6</ele>
        <time>2021-01-29T12:49:37Z</time>
      </trkpt>
      <trkpt lat="42.77848" lon="0.1565">
        <ele>1965.6</ele>
        <time>2021-01-29T12:49:38Z</time>
      </trkpt>
      <trkpt lat="42.77848" lon="0.1565">
        <ele>1965.6</ele>
        <time>2021-01-29T12:49:39Z</time>
      </trkpt>
      <trkpt lat="42.77848" lon="0.1565">
        <ele>1965.6</ele>
        <time>2021-01-29T12:49:40Z</time>
      </trkpt>
      <trkpt lat="42.77848" lon="0.1565">
        <ele>1965.6</ele>
        <time>2021-01-29T12:49:41Z</time>
      </trkpt>
      <trkpt lat="42.77848" lon="0.1565">
        <ele>1965.8</ele>
        <time>2021-01-29T12:49:42Z</time>
      </trkpt>
      <trkpt lat="42.77848" lon="0.1565">
        <ele>1965.8</ele>
        <time>2021-01-29T12:49:43Z</time>
      </trkpt>
      <trkpt lat="42.77848" lon="0.1565">
        <ele>1965.6</ele>
        <time>2021-01-29T12:49:44Z</time>
      </trkpt>
      <trkpt lat="42.77848" lon="0.1565">
        <ele>1965.6</ele>
        <time>2021-01-29T12:49:45Z</time>
      </trkpt>
      <trkpt lat="42.77848" lon="0.1565">
        <ele>1965.8</ele>
        <time>2021-01-29T12:49:46Z</time>
      </trkpt>
      <trkpt lat="42.77848" lon="0.1565">
        <ele>1965.8</ele>
        <time>2021-01-29T12:49:47Z</time>
      </trkpt>
      <trkpt lat="42.77848" lon="0.1565">
        <ele>1965.8</ele>
        <time>2021-01-29T12:49:48Z</time>
      </trkpt>
      <trkpt lat="42.77848" lon="0.1565">
        <ele>1965.8</ele>
        <time>2021-01-29T12:49:49Z</time>
      </trkpt>
      <trkpt lat="42.77848" lon="0.1565">
        <ele>1965.8</ele>
        <time>2021-01-29T12:49:50Z</time>
      </trkpt>
      <trkpt lat="42.77848" lon="0.1565">
        <ele>1965.8</ele>
        <time>2021-01-29T12:49:51Z</time>
      </trkpt>
      <trkpt lat="42.77848" lon="0.1565">
        <ele>1965.8</ele>
        <time>2021-01-29T12:49:52Z</time>
      </trkpt>
      <trkpt lat="42.77848" lon="0.1565">
        <ele>1965.8</ele>
        <time>2021-01-29T12:49:53Z</time>
      </trkpt>
      <trkpt lat="42.77848" lon="0.1565">
        <ele>1965.8</ele>
        <time>2021-01-29T12:49:54Z</time>
      </trkpt>
      <trkpt lat="42.77848" lon="0.1565">
        <ele>1965.8</ele>
        <time>2021-01-29T12:49:55Z</time>
      </trkpt>
      <trkpt lat="42.77848" lon="0.1565">
        <ele>1965.8</ele>
        <time>2021-01-29T12:49:56Z</time>
      </trkpt>
      <trkpt lat="42.77848" lon="0.1565">
        <ele>1965.8</ele>
        <time>2021-01-29T12:49:57Z</time>
      </trkpt>
      <trkpt lat="42.77848" lon="0.1565">
        <ele>1965.8</ele>
        <time>2021-01-29T12:49:58Z</time>
      </trkpt>
      <trkpt lat="42.77848" lon="0.15651">
        <ele>1966</ele>
        <time>2021-01-29T12:49:59Z</time>
      </trkpt>
      <trkpt lat="42.77848" lon="0.15651">
        <ele>1966</ele>
        <time>2021-01-29T12:50:00Z</time>
      </trkpt>
      <trkpt lat="42.77847" lon="0.15651">
        <ele>1966</ele>
        <time>2021-01-29T12:50:01Z</time>
      </trkpt>
      <trkpt lat="42.77847" lon="0.15651">
        <ele>1966.2</ele>
        <time>2021-01-29T12:50:02Z</time>
      </trkpt>
      <trkpt lat="42.77847" lon="0.15651">
        <ele>1966.2</ele>
        <time>2021-01-29T12:50:03Z</time>
      </trkpt>
      <trkpt lat="42.77847" lon="0.15651">
        <ele>1966.4</ele>
        <time>2021-01-29T12:50:04Z</time>
      </trkpt>
      <trkpt lat="42.77847" lon="0.15651">
        <ele>1966.4</ele>
        <time>2021-01-29T12:50:05Z</time>
      </trkpt>
      <trkpt lat="42.77846" lon="0.1565">
        <ele>1966.4</ele>
        <time>2021-01-29T12:50:06Z</time>
      </trkpt>
      <trkpt lat="42.77846" lon="0.15649">
        <ele>1966.6</ele>
        <time>2021-01-29T12:50:07Z</time>
      </trkpt>
      <trkpt lat="42.77846" lon="0.15649">
        <ele>1966.6</ele>
        <time>2021-01-29T12:50:08Z</time>
      </trkpt>
      <trkpt lat="42.77847" lon="0.15648">
        <ele>1966.8</ele>
        <time>2021-01-29T12:50:09Z</time>
      </trkpt>
      <trkpt lat="42.77847" lon="0.15648">
        <ele>1966.8</ele>
        <time>2021-01-29T12:50:10Z</time>
      </trkpt>
      <trkpt lat="42.77847" lon="0.15648">
        <ele>1966.8</ele>
        <time>2021-01-29T12:50:11Z</time>
      </trkpt>
      <trkpt lat="42.77847" lon="0.15648">
        <ele>1966.8</ele>
        <time>2021-01-29T12:50:12Z</time>
      </trkpt>
      <trkpt lat="42.77847" lon="0.15647">
        <ele>1966.8</ele>
        <time>2021-01-29T12:50:13Z</time>
      </trkpt>
      <trkpt lat="42.77846" lon="0.15646">
        <ele>1967</ele>
        <time>2021-01-29T12:50:14Z</time>
      </trkpt>
      <trkpt lat="42.77846" lon="0.15645">
        <ele>1967.2</ele>
        <time>2021-01-29T12:50:15Z</time>
      </trkpt>
      <trkpt lat="42.77846" lon="0.15644">
        <ele>1967.4</ele>
        <time>2021-01-29T12:50:16Z</time>
      </trkpt>
      <trkpt lat="42.77846" lon="0.15644">
        <ele>1967.4</ele>
        <time>2021-01-29T12:50:17Z</time>
      </trkpt>
      <trkpt lat="42.77846" lon="0.15644">
        <ele>1967.6</ele>
        <time>2021-01-29T12:50:18Z</time>
      </trkpt>
      <trkpt lat="42.77846" lon="0.15644">
        <ele>1967.6</ele>
        <time>2021-01-29T12:50:19Z</time>
      </trkpt>
      <trkpt lat="42.77846" lon="0.15644">
        <ele>1967.6</ele>
        <time>2021-01-29T12:50:20Z</time>
      </trkpt>
      <trkpt lat="42.77846" lon="0.15644">
        <ele>1967.6</ele>
        <time>2021-01-29T12:50:21Z</time>
      </trkpt>
      <trkpt lat="42.77846" lon="0.15644">
        <ele>1967.6</ele>
        <time>2021-01-29T12:50:22Z</time>
      </trkpt>
      <trkpt lat="42.77846" lon="0.15644">
        <ele>1967.6</ele>
        <time>2021-01-29T12:50:23Z</time>
      </trkpt>
      <trkpt lat="42.77846" lon="0.15644">
        <ele>1967.6</ele>
        <time>2021-01-29T12:50:24Z</time>
      </trkpt>
      <trkpt lat="42.77846" lon="0.15644">
        <ele>1967.6</ele>
        <time>2021-01-29T12:50:25Z</time>
      </trkpt>
      <trkpt lat="42.77846" lon="0.15644">
        <ele>1967.6</ele>
        <time>2021-01-29T12:50:26Z</time>
      </trkpt>
      <trkpt lat="42.77846" lon="0.15644">
        <ele>1967.6</ele>
        <time>2021-01-29T12:50:27Z</time>
      </trkpt>
      <trkpt lat="42.77846" lon="0.15644">
        <ele>1967.6</ele>
        <time>2021-01-29T12:50:28Z</time>
      </trkpt>
      <trkpt lat="42.77846" lon="0.15644">
        <ele>1967.6</ele>
        <time>2021-01-29T12:50:29Z</time>
      </trkpt>
      <trkpt lat="42.77846" lon="0.15644">
        <ele>1967.8</ele>
        <time>2021-01-29T12:50:30Z</time>
      </trkpt>
      <trkpt lat="42.77846" lon="0.15644">
        <ele>1967.8</ele>
        <time>2021-01-29T12:50:31Z</time>
      </trkpt>
      <trkpt lat="42.77846" lon="0.15644">
        <ele>1967.8</ele>
        <time>2021-01-29T12:50:32Z</time>
      </trkpt>
      <trkpt lat="42.77846" lon="0.15644">
        <ele>1967.8</ele>
        <time>2021-01-29T12:50:33Z</time>
      </trkpt>
      <trkpt lat="42.77846" lon="0.15644">
        <ele>1967.8</ele>
        <time>2021-01-29T12:50:34Z</time>
      </trkpt>
      <trkpt lat="42.77846" lon="0.15644">
        <ele>1967.8</ele>
        <time>2021-01-29T12:50:35Z</time>
      </trkpt>
      <trkpt lat="42.77846" lon="0.15644">
        <ele>1967.8</ele>
        <time>2021-01-29T12:50:36Z</time>
      </trkpt>
      <trkpt lat="42.77846" lon="0.15644">
        <ele>1967.8</ele>
        <time>2021-01-29T12:50:37Z</time>
      </trkpt>
      <trkpt lat="42.77846" lon="0.15644">
        <ele>1967.8</ele>
        <time>2021-01-29T12:50:38Z</time>
      </trkpt>
      <trkpt lat="42.77846" lon="0.15644">
        <ele>1967.8</ele>
        <time>2021-01-29T12:50:39Z</time>
      </trkpt>
      <trkpt lat="42.77846" lon="0.15644">
        <ele>1967.8</ele>
        <time>2021-01-29T12:50:40Z</time>
      </trkpt>
      <trkpt lat="42.77846" lon="0.15644">
        <ele>1967.8</ele>
        <time>2021-01-29T12:50:41Z</time>
      </trkpt>
      <trkpt lat="42.77846" lon="0.15644">
        <ele>1967.8</ele>
        <time>2021-01-29T12:50:42Z</time>
      </trkpt>
      <trkpt lat="42.77846" lon="0.15644">
        <ele>1967.8</ele>
        <time>2021-01-29T12:50:43Z</time>
      </trkpt>
      <trkpt lat="42.77846" lon="0.15644">
        <ele>1967.8</ele>
        <time>2021-01-29T12:50:44Z</time>
      </trkpt>
      <trkpt lat="42.77846" lon="0.15644">
        <ele>1967.6</ele>
        <time>2021-01-29T12:50:45Z</time>
      </trkpt>
      <trkpt lat="42.77846" lon="0.15643">
        <ele>1967.8</ele>
        <time>2021-01-29T12:50:46Z</time>
      </trkpt>
      <trkpt lat="42.77845" lon="0.15643">
        <ele>1967.8</ele>
        <time>2021-01-29T12:50:47Z</time>
      </trkpt>
      <trkpt lat="42.77845" lon="0.15642">
        <ele>1967.8</ele>
        <time>2021-01-29T12:50:48Z</time>
      </trkpt>
      <trkpt lat="42.77845" lon="0.15641">
        <ele>1968</ele>
        <time>2021-01-29T12:50:49Z</time>
      </trkpt>
      <trkpt lat="42.77845" lon="0.1564">
        <ele>1968</ele>
        <time>2021-01-29T12:50:50Z</time>
      </trkpt>
      <trkpt lat="42.77845" lon="0.15639">
        <ele>1968.2</ele>
        <time>2021-01-29T12:50:51Z</time>
      </trkpt>
      <trkpt lat="42.77845" lon="0.15639">
        <ele>1968.2</ele>
        <time>2021-01-29T12:50:52Z</time>
      </trkpt>
      <trkpt lat="42.77845" lon="0.15639">
        <ele>1968.4</ele>
        <time>2021-01-29T12:50:53Z</time>
      </trkpt>
      <trkpt lat="42.77845" lon="0.15639">
        <ele>1968.4</ele>
        <time>2021-01-29T12:50:54Z</time>
      </trkpt>
      <trkpt lat="42.77845" lon="0.15639">
        <ele>1968.4</ele>
        <time>2021-01-29T12:50:55Z</time>
      </trkpt>
      <trkpt lat="42.77845" lon="0.15639">
        <ele>1968.6</ele>
        <time>2021-01-29T12:50:56Z</time>
      </trkpt>
      <trkpt lat="42.77845" lon="0.15639">
        <ele>1968.6</ele>
        <time>2021-01-29T12:50:57Z</time>
      </trkpt>
      <trkpt lat="42.77845" lon="0.15639">
        <ele>1968.6</ele>
        <time>2021-01-29T12:50:58Z</time>
      </trkpt>
      <trkpt lat="42.77845" lon="0.15639">
        <ele>1968.6</ele>
        <time>2021-01-29T12:50:59Z</time>
      </trkpt>
      <trkpt lat="42.77845" lon="0.15639">
        <ele>1968.6</ele>
        <time>2021-01-29T12:51:00Z</time>
      </trkpt>
      <trkpt lat="42.77845" lon="0.15639">
        <ele>1968.6</ele>
        <time>2021-01-29T12:51:01Z</time>
      </trkpt>
      <trkpt lat="42.77845" lon="0.15639">
        <ele>1968.6</ele>
        <time>2021-01-29T12:51:02Z</time>
      </trkpt>
      <trkpt lat="42.77845" lon="0.15639">
        <ele>1968.6</ele>
        <time>2021-01-29T12:51:03Z</time>
      </trkpt>
      <trkpt lat="42.77845" lon="0.15639">
        <ele>1968.6</ele>
        <time>2021-01-29T12:51:04Z</time>
      </trkpt>
      <trkpt lat="42.77845" lon="0.15639">
        <ele>1968.6</ele>
        <time>2021-01-29T12:51:05Z</time>
      </trkpt>
      <trkpt lat="42.77845" lon="0.15639">
        <ele>1968.6</ele>
        <time>2021-01-29T12:51:06Z</time>
      </trkpt>
      <trkpt lat="42.77845" lon="0.15639">
        <ele>1968.6</ele>
        <time>2021-01-29T12:51:07Z</time>
      </trkpt>
      <trkpt lat="42.77845" lon="0.15639">
        <ele>1968.6</ele>
        <time>2021-01-29T12:51:08Z</time>
      </trkpt>
      <trkpt lat="42.77845" lon="0.15639">
        <ele>1968.6</ele>
        <time>2021-01-29T12:51:09Z</time>
      </trkpt>
      <trkpt lat="42.77845" lon="0.15639">
        <ele>1968.6</ele>
        <time>2021-01-29T12:51:10Z</time>
      </trkpt>
      <trkpt lat="42.77845" lon="0.15639">
        <ele>1968.6</ele>
        <time>2021-01-29T12:51:11Z</time>
      </trkpt>
      <trkpt lat="42.77845" lon="0.15639">
        <ele>1968.6</ele>
        <time>2021-01-29T12:51:12Z</time>
      </trkpt>
      <trkpt lat="42.77845" lon="0.15639">
        <ele>1968.6</ele>
        <time>2021-01-29T12:51:13Z</time>
      </trkpt>
      <trkpt lat="42.77845" lon="0.15639">
        <ele>1968.6</ele>
        <time>2021-01-29T12:51:14Z</time>
      </trkpt>
      <trkpt lat="42.77845" lon="0.15639">
        <ele>1968.6</ele>
        <time>2021-01-29T12:51:15Z</time>
      </trkpt>
      <trkpt lat="42.77845" lon="0.15639">
        <ele>1968.6</ele>
        <time>2021-01-29T12:51:16Z</time>
      </trkpt>
      <trkpt lat="42.77845" lon="0.15639">
        <ele>1968.6</ele>
        <time>2021-01-29T12:51:17Z</time>
      </trkpt>
      <trkpt lat="42.77845" lon="0.15639">
        <ele>1968.6</ele>
        <time>2021-01-29T12:51:18Z</time>
      </trkpt>
      <trkpt lat="42.77845" lon="0.15639">
        <ele>1968.6</ele>
        <time>2021-01-29T12:51:19Z</time>
      </trkpt>
      <trkpt lat="42.77845" lon="0.15639">
        <ele>1968.6</ele>
        <time>2021-01-29T12:51:20Z</time>
      </trkpt>
      <trkpt lat="42.77845" lon="0.15639">
        <ele>1968.6</ele>
        <time>2021-01-29T12:51:21Z</time>
      </trkpt>
      <trkpt lat="42.77845" lon="0.15639">
        <ele>1968.6</ele>
        <time>2021-01-29T12:51:22Z</time>
      </trkpt>
      <trkpt lat="42.77845" lon="0.15639">
        <ele>1968.8</ele>
        <time>2021-01-29T12:51:23Z</time>
      </trkpt>
      <trkpt lat="42.77845" lon="0.15639">
        <ele>1968.8</ele>
        <time>2021-01-29T12:51:24Z</time>
      </trkpt>
      <trkpt lat="42.77845" lon="0.15639">
        <ele>1968.8</ele>
        <time>2021-01-29T12:51:25Z</time>
      </trkpt>
      <trkpt lat="42.77845" lon="0.15639">
        <ele>1968.8</ele>
        <time>2021-01-29T12:51:26Z</time>
      </trkpt>
      <trkpt lat="42.77845" lon="0.15639">
        <ele>1968.8</ele>
        <time>2021-01-29T12:51:27Z</time>
      </trkpt>
      <trkpt lat="42.77845" lon="0.15639">
        <ele>1968.8</ele>
        <time>2021-01-29T12:51:28Z</time>
      </trkpt>
      <trkpt lat="42.77845" lon="0.15639">
        <ele>1968.8</ele>
        <time>2021-01-29T12:51:29Z</time>
      </trkpt>
      <trkpt lat="42.77845" lon="0.15639">
        <ele>1968.8</ele>
        <time>2021-01-29T12:51:30Z</time>
      </trkpt>
      <trkpt lat="42.77845" lon="0.15639">
        <ele>1968.8</ele>
        <time>2021-01-29T12:51:31Z</time>
      </trkpt>
      <trkpt lat="42.77845" lon="0.15639">
        <ele>1968.8</ele>
        <time>2021-01-29T12:51:32Z</time>
      </trkpt>
      <trkpt lat="42.77845" lon="0.15639">
        <ele>1968.8</ele>
        <time>2021-01-29T12:51:33Z</time>
      </trkpt>
      <trkpt lat="42.77845" lon="0.15639">
        <ele>1968.8</ele>
        <time>2021-01-29T12:51:34Z</time>
      </trkpt>
      <trkpt lat="42.77845" lon="0.15639">
        <ele>1968.8</ele>
        <time>2021-01-29T12:51:35Z</time>
      </trkpt>
      <trkpt lat="42.77845" lon="0.15639">
        <ele>1968.8</ele>
        <time>2021-01-29T12:51:36Z</time>
      </trkpt>
      <trkpt lat="42.77845" lon="0.15639">
        <ele>1968.8</ele>
        <time>2021-01-29T12:51:37Z</time>
      </trkpt>
      <trkpt lat="42.77845" lon="0.15639">
        <ele>1968.8</ele>
        <time>2021-01-29T12:51:38Z</time>
      </trkpt>
      <trkpt lat="42.77845" lon="0.15639">
        <ele>1968.8</ele>
        <time>2021-01-29T12:51:39Z</time>
      </trkpt>
      <trkpt lat="42.77845" lon="0.15639">
        <ele>1968.8</ele>
        <time>2021-01-29T12:51:40Z</time>
      </trkpt>
      <trkpt lat="42.77845" lon="0.15639">
        <ele>1968.8</ele>
        <time>2021-01-29T12:51:41Z</time>
      </trkpt>
      <trkpt lat="42.77845" lon="0.15639">
        <ele>1968.8</ele>
        <time>2021-01-29T12:51:42Z</time>
      </trkpt>
      <trkpt lat="42.77845" lon="0.15639">
        <ele>1968.8</ele>
        <time>2021-01-29T12:51:43Z</time>
      </trkpt>
      <trkpt lat="42.77845" lon="0.15639">
        <ele>1968.8</ele>
        <time>2021-01-29T12:51:44Z</time>
      </trkpt>
      <trkpt lat="42.77845" lon="0.15639">
        <ele>1969</ele>
        <time>2021-01-29T12:51:45Z</time>
      </trkpt>
      <trkpt lat="42.77845" lon="0.15639">
        <ele>1969</ele>
        <time>2021-01-29T12:51:46Z</time>
      </trkpt>
      <trkpt lat="42.77845" lon="0.15639">
        <ele>1969</ele>
        <time>2021-01-29T12:51:47Z</time>
      </trkpt>
      <trkpt lat="42.77845" lon="0.15639">
        <ele>1969</ele>
        <time>2021-01-29T12:51:48Z</time>
      </trkpt>
      <trkpt lat="42.77845" lon="0.15639">
        <ele>1969</ele>
        <time>2021-01-29T12:51:49Z</time>
      </trkpt>
      <trkpt lat="42.77845" lon="0.15639">
        <ele>1969</ele>
        <time>2021-01-29T12:51:50Z</time>
      </trkpt>
      <trkpt lat="42.77845" lon="0.15639">
        <ele>1969</ele>
        <time>2021-01-29T12:51:51Z</time>
      </trkpt>
      <trkpt lat="42.77845" lon="0.15639">
        <ele>1969</ele>
        <time>2021-01-29T12:51:52Z</time>
      </trkpt>
      <trkpt lat="42.77845" lon="0.15639">
        <ele>1969</ele>
        <time>2021-01-29T12:51:53Z</time>
      </trkpt>
      <trkpt lat="42.77845" lon="0.15639">
        <ele>1969</ele>
        <time>2021-01-29T12:51:54Z</time>
      </trkpt>
      <trkpt lat="42.77845" lon="0.15639">
        <ele>1969</ele>
        <time>2021-01-29T12:51:55Z</time>
      </trkpt>
      <trkpt lat="42.77845" lon="0.15639">
        <ele>1969</ele>
        <time>2021-01-29T12:51:56Z</time>
      </trkpt>
      <trkpt lat="42.77845" lon="0.15639">
        <ele>1969</ele>
        <time>2021-01-29T12:51:57Z</time>
      </trkpt>
      <trkpt lat="42.77845" lon="0.15639">
        <ele>1969</ele>
        <time>2021-01-29T12:51:58Z</time>
      </trkpt>
      <trkpt lat="42.77845" lon="0.15639">
        <ele>1969.2</ele>
        <time>2021-01-29T12:51:59Z</time>
      </trkpt>
      <trkpt lat="42.77845" lon="0.15639">
        <ele>1969.2</ele>
        <time>2021-01-29T12:52:00Z</time>
      </trkpt>
      <trkpt lat="42.77845" lon="0.15639">
        <ele>1969.2</ele>
        <time>2021-01-29T12:52:01Z</time>
      </trkpt>
      <trkpt lat="42.77845" lon="0.15639">
        <ele>1969.2</ele>
        <time>2021-01-29T12:52:02Z</time>
      </trkpt>
      <trkpt lat="42.77845" lon="0.15639">
        <ele>1969.2</ele>
        <time>2021-01-29T12:52:03Z</time>
      </trkpt>
      <trkpt lat="42.77845" lon="0.15639">
        <ele>1969.2</ele>
        <time>2021-01-29T12:52:04Z</time>
      </trkpt>
      <trkpt lat="42.77845" lon="0.15639">
        <ele>1969.2</ele>
        <time>2021-01-29T12:52:05Z</time>
      </trkpt>
      <trkpt lat="42.77845" lon="0.15639">
        <ele>1969.2</ele>
        <time>2021-01-29T12:52:06Z</time>
      </trkpt>
      <trkpt lat="42.77845" lon="0.15639">
        <ele>1969.2</ele>
        <time>2021-01-29T12:52:07Z</time>
      </trkpt>
      <trkpt lat="42.77845" lon="0.15639">
        <ele>1969.2</ele>
        <time>2021-01-29T12:52:08Z</time>
      </trkpt>
      <trkpt lat="42.77845" lon="0.15639">
        <ele>1969.2</ele>
        <time>2021-01-29T12:52:09Z</time>
      </trkpt>
      <trkpt lat="42.77845" lon="0.15639">
        <ele>1969.2</ele>
        <time>2021-01-29T12:52:10Z</time>
      </trkpt>
      <trkpt lat="42.77845" lon="0.15639">
        <ele>1969.2</ele>
        <time>2021-01-29T12:52:11Z</time>
      </trkpt>
      <trkpt lat="42.77845" lon="0.15639">
        <ele>1969.2</ele>
        <time>2021-01-29T12:52:12Z</time>
      </trkpt>
      <trkpt lat="42.77845" lon="0.15639">
        <ele>1969.2</ele>
        <time>2021-01-29T12:52:13Z</time>
      </trkpt>
      <trkpt lat="42.77845" lon="0.15639">
        <ele>1969.2</ele>
        <time>2021-01-29T12:52:14Z</time>
      </trkpt>
      <trkpt lat="42.77845" lon="0.15639">
        <ele>1969.2</ele>
        <time>2021-01-29T12:52:15Z</time>
      </trkpt>
      <trkpt lat="42.77845" lon="0.15639">
        <ele>1969.2</ele>
        <time>2021-01-29T12:52:16Z</time>
      </trkpt>
      <trkpt lat="42.77845" lon="0.15639">
        <ele>1969.2</ele>
        <time>2021-01-29T12:52:17Z</time>
      </trkpt>
      <trkpt lat="42.77845" lon="0.15639">
        <ele>1969.2</ele>
        <time>2021-01-29T12:52:18Z</time>
      </trkpt>
      <trkpt lat="42.77845" lon="0.15639">
        <ele>1969.2</ele>
        <time>2021-01-29T12:52:19Z</time>
      </trkpt>
      <trkpt lat="42.77845" lon="0.15639">
        <ele>1969.2</ele>
        <time>2021-01-29T12:52:20Z</time>
      </trkpt>
      <trkpt lat="42.77845" lon="0.15639">
        <ele>1969.2</ele>
        <time>2021-01-29T12:52:21Z</time>
      </trkpt>
      <trkpt lat="42.77845" lon="0.15639">
        <ele>1969.4</ele>
        <time>2021-01-29T12:52:22Z</time>
      </trkpt>
      <trkpt lat="42.77845" lon="0.15639">
        <ele>1969.4</ele>
        <time>2021-01-29T12:52:23Z</time>
      </trkpt>
      <trkpt lat="42.77845" lon="0.15639">
        <ele>1969.4</ele>
        <time>2021-01-29T12:52:24Z</time>
      </trkpt>
      <trkpt lat="42.77845" lon="0.15639">
        <ele>1969.4</ele>
        <time>2021-01-29T12:52:25Z</time>
      </trkpt>
      <trkpt lat="42.77845" lon="0.15639">
        <ele>1969.4</ele>
        <time>2021-01-29T12:52:26Z</time>
      </trkpt>
      <trkpt lat="42.77845" lon="0.15639">
        <ele>1969.4</ele>
        <time>2021-01-29T12:52:27Z</time>
      </trkpt>
      <trkpt lat="42.77845" lon="0.15639">
        <ele>1969.4</ele>
        <time>2021-01-29T12:52:28Z</time>
      </trkpt>
      <trkpt lat="42.77845" lon="0.15639">
        <ele>1969.4</ele>
        <time>2021-01-29T12:52:29Z</time>
      </trkpt>
      <trkpt lat="42.77845" lon="0.15639">
        <ele>1969.4</ele>
        <time>2021-01-29T12:52:30Z</time>
      </trkpt>
      <trkpt lat="42.77845" lon="0.15639">
        <ele>1969.4</ele>
        <time>2021-01-29T12:52:31Z</time>
      </trkpt>
      <trkpt lat="42.77845" lon="0.15639">
        <ele>1969.4</ele>
        <time>2021-01-29T12:52:32Z</time>
      </trkpt>
      <trkpt lat="42.77845" lon="0.15639">
        <ele>1969.4</ele>
        <time>2021-01-29T12:52:33Z</time>
      </trkpt>
      <trkpt lat="42.77845" lon="0.15639">
        <ele>1969.4</ele>
        <time>2021-01-29T12:52:34Z</time>
      </trkpt>
      <trkpt lat="42.77845" lon="0.15639">
        <ele>1969.4</ele>
        <time>2021-01-29T12:52:35Z</time>
      </trkpt>
      <trkpt lat="42.77845" lon="0.15639">
        <ele>1969.4</ele>
        <time>2021-01-29T12:52:36Z</time>
      </trkpt>
      <trkpt lat="42.77845" lon="0.15639">
        <ele>1969.4</ele>
        <time>2021-01-29T12:52:37Z</time>
      </trkpt>
      <trkpt lat="42.77845" lon="0.15639">
        <ele>1969.4</ele>
        <time>2021-01-29T12:52:38Z</time>
      </trkpt>
      <trkpt lat="42.77845" lon="0.15639">
        <ele>1969.4</ele>
        <time>2021-01-29T12:52:39Z</time>
      </trkpt>
      <trkpt lat="42.77845" lon="0.15639">
        <ele>1969.6</ele>
        <time>2021-01-29T12:52:40Z</time>
      </trkpt>
      <trkpt lat="42.77845" lon="0.15639">
        <ele>1969.6</ele>
        <time>2021-01-29T12:52:41Z</time>
      </trkpt>
      <trkpt lat="42.77845" lon="0.15639">
        <ele>1969.6</ele>
        <time>2021-01-29T12:52:42Z</time>
      </trkpt>
      <trkpt lat="42.77845" lon="0.15639">
        <ele>1969.6</ele>
        <time>2021-01-29T12:52:43Z</time>
      </trkpt>
      <trkpt lat="42.77845" lon="0.15639">
        <ele>1969.6</ele>
        <time>2021-01-29T12:52:44Z</time>
      </trkpt>
      <trkpt lat="42.77845" lon="0.15639">
        <ele>1969.6</ele>
        <time>2021-01-29T12:52:45Z</time>
      </trkpt>
      <trkpt lat="42.77845" lon="0.15639">
        <ele>1969.6</ele>
        <time>2021-01-29T12:52:46Z</time>
      </trkpt>
      <trkpt lat="42.77845" lon="0.15639">
        <ele>1969.6</ele>
        <time>2021-01-29T12:52:47Z</time>
      </trkpt>
      <trkpt lat="42.77845" lon="0.15639">
        <ele>1969.6</ele>
        <time>2021-01-29T12:52:48Z</time>
      </trkpt>
      <trkpt lat="42.77845" lon="0.15639">
        <ele>1969.6</ele>
        <time>2021-01-29T12:52:49Z</time>
      </trkpt>
      <trkpt lat="42.77845" lon="0.15639">
        <ele>1969.6</ele>
        <time>2021-01-29T12:52:50Z</time>
      </trkpt>
      <trkpt lat="42.77845" lon="0.15639">
        <ele>1969.6</ele>
        <time>2021-01-29T12:52:51Z</time>
      </trkpt>
      <trkpt lat="42.77845" lon="0.15639">
        <ele>1969.6</ele>
        <time>2021-01-29T12:52:52Z</time>
      </trkpt>
      <trkpt lat="42.77845" lon="0.15639">
        <ele>1969.6</ele>
        <time>2021-01-29T12:52:53Z</time>
      </trkpt>
      <trkpt lat="42.77845" lon="0.15639">
        <ele>1969.6</ele>
        <time>2021-01-29T12:52:54Z</time>
      </trkpt>
      <trkpt lat="42.77845" lon="0.15639">
        <ele>1969.6</ele>
        <time>2021-01-29T12:52:55Z</time>
      </trkpt>
      <trkpt lat="42.77845" lon="0.15639">
        <ele>1969.6</ele>
        <time>2021-01-29T12:52:56Z</time>
      </trkpt>
      <trkpt lat="42.77845" lon="0.15639">
        <ele>1969.8</ele>
        <time>2021-01-29T12:52:57Z</time>
      </trkpt>
      <trkpt lat="42.77845" lon="0.15639">
        <ele>1969.8</ele>
        <time>2021-01-29T12:52:58Z</time>
      </trkpt>
      <trkpt lat="42.77845" lon="0.15639">
        <ele>1969.8</ele>
        <time>2021-01-29T12:52:59Z</time>
      </trkpt>
      <trkpt lat="42.77845" lon="0.15639">
        <ele>1969.8</ele>
        <time>2021-01-29T12:53:00Z</time>
      </trkpt>
      <trkpt lat="42.77845" lon="0.15639">
        <ele>1969.8</ele>
        <time>2021-01-29T12:53:01Z</time>
      </trkpt>
      <trkpt lat="42.77845" lon="0.15639">
        <ele>1969.8</ele>
        <time>2021-01-29T12:53:02Z</time>
      </trkpt>
      <trkpt lat="42.77845" lon="0.15639">
        <ele>1969.8</ele>
        <time>2021-01-29T12:53:03Z</time>
      </trkpt>
      <trkpt lat="42.77845" lon="0.15639">
        <ele>1969.8</ele>
        <time>2021-01-29T12:53:04Z</time>
      </trkpt>
      <trkpt lat="42.77845" lon="0.15639">
        <ele>1969.8</ele>
        <time>2021-01-29T12:53:05Z</time>
      </trkpt>
      <trkpt lat="42.77845" lon="0.15639">
        <ele>1969.8</ele>
        <time>2021-01-29T12:53:06Z</time>
      </trkpt>
      <trkpt lat="42.77845" lon="0.15639">
        <ele>1969.8</ele>
        <time>2021-01-29T12:53:07Z</time>
      </trkpt>
      <trkpt lat="42.77845" lon="0.15639">
        <ele>1969.8</ele>
        <time>2021-01-29T12:53:08Z</time>
      </trkpt>
      <trkpt lat="42.77845" lon="0.15639">
        <ele>1969.8</ele>
        <time>2021-01-29T12:53:09Z</time>
      </trkpt>
      <trkpt lat="42.77845" lon="0.15639">
        <ele>1969.8</ele>
        <time>2021-01-29T12:53:10Z</time>
      </trkpt>
      <trkpt lat="42.77845" lon="0.15639">
        <ele>1969.8</ele>
        <time>2021-01-29T12:53:11Z</time>
      </trkpt>
      <trkpt lat="42.77845" lon="0.15639">
        <ele>1969.8</ele>
        <time>2021-01-29T12:53:12Z</time>
      </trkpt>
      <trkpt lat="42.77845" lon="0.15639">
        <ele>1969.8</ele>
        <time>2021-01-29T12:53:13Z</time>
      </trkpt>
      <trkpt lat="42.77845" lon="0.15639">
        <ele>1969.8</ele>
        <time>2021-01-29T12:53:14Z</time>
      </trkpt>
      <trkpt lat="42.77845" lon="0.15639">
        <ele>1969.8</ele>
        <time>2021-01-29T12:53:15Z</time>
      </trkpt>
      <trkpt lat="42.77845" lon="0.15639">
        <ele>1969.8</ele>
        <time>2021-01-29T12:53:16Z</time>
      </trkpt>
      <trkpt lat="42.77845" lon="0.15639">
        <ele>1969.8</ele>
        <time>2021-01-29T12:53:17Z</time>
      </trkpt>
      <trkpt lat="42.77845" lon="0.15639">
        <ele>1969.8</ele>
        <time>2021-01-29T12:53:18Z</time>
      </trkpt>
      <trkpt lat="42.77845" lon="0.15639">
        <ele>1969.8</ele>
        <time>2021-01-29T12:53:19Z</time>
      </trkpt>
      <trkpt lat="42.77845" lon="0.15639">
        <ele>1969.8</ele>
        <time>2021-01-29T12:53:20Z</time>
      </trkpt>
      <trkpt lat="42.77845" lon="0.15639">
        <ele>1969.8</ele>
        <time>2021-01-29T12:53:21Z</time>
      </trkpt>
      <trkpt lat="42.77845" lon="0.15639">
        <ele>1969.8</ele>
        <time>2021-01-29T12:53:22Z</time>
      </trkpt>
      <trkpt lat="42.77845" lon="0.15639">
        <ele>1969.8</ele>
        <time>2021-01-29T12:53:23Z</time>
      </trkpt>
      <trkpt lat="42.77845" lon="0.15639">
        <ele>1969.8</ele>
        <time>2021-01-29T12:53:24Z</time>
      </trkpt>
      <trkpt lat="42.77845" lon="0.15639">
        <ele>1969.8</ele>
        <time>2021-01-29T12:53:25Z</time>
      </trkpt>
      <trkpt lat="42.77845" lon="0.15639">
        <ele>1969.8</ele>
        <time>2021-01-29T12:53:26Z</time>
      </trkpt>
      <trkpt lat="42.77845" lon="0.15639">
        <ele>1969.8</ele>
        <time>2021-01-29T12:53:27Z</time>
      </trkpt>
      <trkpt lat="42.77845" lon="0.15639">
        <ele>1969.8</ele>
        <time>2021-01-29T12:53:28Z</time>
      </trkpt>
      <trkpt lat="42.77845" lon="0.15639">
        <ele>1969.8</ele>
        <time>2021-01-29T12:53:29Z</time>
      </trkpt>
      <trkpt lat="42.77845" lon="0.15639">
        <ele>1969.8</ele>
        <time>2021-01-29T12:53:30Z</time>
      </trkpt>
      <trkpt lat="42.77845" lon="0.15639">
        <ele>1969.8</ele>
        <time>2021-01-29T12:53:31Z</time>
      </trkpt>
      <trkpt lat="42.77845" lon="0.15639">
        <ele>1969.8</ele>
        <time>2021-01-29T12:53:32Z</time>
      </trkpt>
      <trkpt lat="42.77845" lon="0.15639">
        <ele>1970</ele>
        <time>2021-01-29T12:53:33Z</time>
      </trkpt>
      <trkpt lat="42.77845" lon="0.15639">
        <ele>1970</ele>
        <time>2021-01-29T12:53:34Z</time>
      </trkpt>
      <trkpt lat="42.77845" lon="0.15639">
        <ele>1969.8</ele>
        <time>2021-01-29T12:53:35Z</time>
      </trkpt>
      <trkpt lat="42.77845" lon="0.15639">
        <ele>1970</ele>
        <time>2021-01-29T12:53:36Z</time>
      </trkpt>
      <trkpt lat="42.77845" lon="0.15639">
        <ele>1969.8</ele>
        <time>2021-01-29T12:53:37Z</time>
      </trkpt>
      <trkpt lat="42.77845" lon="0.15639">
        <ele>1969.8</ele>
        <time>2021-01-29T12:53:38Z</time>
      </trkpt>
      <trkpt lat="42.77845" lon="0.15639">
        <ele>1969.8</ele>
        <time>2021-01-29T12:53:39Z</time>
      </trkpt>
      <trkpt lat="42.77845" lon="0.15639">
        <ele>1969.8</ele>
        <time>2021-01-29T12:53:40Z</time>
      </trkpt>
      <trkpt lat="42.77845" lon="0.15639">
        <ele>1969.8</ele>
        <time>2021-01-29T12:53:41Z</time>
      </trkpt>
      <trkpt lat="42.77845" lon="0.15639">
        <ele>1969.8</ele>
        <time>2021-01-29T12:53:42Z</time>
      </trkpt>
      <trkpt lat="42.77845" lon="0.15639">
        <ele>1969.8</ele>
        <time>2021-01-29T12:53:43Z</time>
      </trkpt>
      <trkpt lat="42.77845" lon="0.15639">
        <ele>1969.8</ele>
        <time>2021-01-29T12:53:44Z</time>
      </trkpt>
      <trkpt lat="42.77845" lon="0.15639">
        <ele>1969.8</ele>
        <time>2021-01-29T12:53:45Z</time>
      </trkpt>
      <trkpt lat="42.77845" lon="0.15639">
        <ele>1969.8</ele>
        <time>2021-01-29T12:53:46Z</time>
      </trkpt>
      <trkpt lat="42.77845" lon="0.15639">
        <ele>1969.8</ele>
        <time>2021-01-29T12:53:47Z</time>
      </trkpt>
      <trkpt lat="42.77845" lon="0.15639">
        <ele>1969.8</ele>
        <time>2021-01-29T12:53:48Z</time>
      </trkpt>
      <trkpt lat="42.77845" lon="0.15639">
        <ele>1969.8</ele>
        <time>2021-01-29T12:53:49Z</time>
      </trkpt>
      <trkpt lat="42.77845" lon="0.15639">
        <ele>1969.8</ele>
        <time>2021-01-29T12:53:50Z</time>
      </trkpt>
      <trkpt lat="42.77845" lon="0.15639">
        <ele>1969.8</ele>
        <time>2021-01-29T12:53:51Z</time>
      </trkpt>
      <trkpt lat="42.77845" lon="0.15639">
        <ele>1969.8</ele>
        <time>2021-01-29T12:53:52Z</time>
      </trkpt>
      <trkpt lat="42.77845" lon="0.15639">
        <ele>1969.6</ele>
        <time>2021-01-29T12:53:53Z</time>
      </trkpt>
      <trkpt lat="42.77845" lon="0.15639">
        <ele>1969.6</ele>
        <time>2021-01-29T12:53:54Z</time>
      </trkpt>
      <trkpt lat="42.77845" lon="0.15639">
        <ele>1969.6</ele>
        <time>2021-01-29T12:53:55Z</time>
      </trkpt>
      <trkpt lat="42.77845" lon="0.15639">
        <ele>1969.6</ele>
        <time>2021-01-29T12:53:56Z</time>
      </trkpt>
      <trkpt lat="42.77845" lon="0.15639">
        <ele>1969.6</ele>
        <time>2021-01-29T12:53:57Z</time>
      </trkpt>
      <trkpt lat="42.77845" lon="0.15639">
        <ele>1969.6</ele>
        <time>2021-01-29T12:53:58Z</time>
      </trkpt>
      <trkpt lat="42.77845" lon="0.15639">
        <ele>1969.6</ele>
        <time>2021-01-29T12:53:59Z</time>
      </trkpt>
      <trkpt lat="42.77845" lon="0.15639">
        <ele>1969.6</ele>
        <time>2021-01-29T12:54:00Z</time>
      </trkpt>
      <trkpt lat="42.77845" lon="0.15639">
        <ele>1969.6</ele>
        <time>2021-01-29T12:54:01Z</time>
      </trkpt>
      <trkpt lat="42.77845" lon="0.15639">
        <ele>1969.6</ele>
        <time>2021-01-29T12:54:02Z</time>
      </trkpt>
      <trkpt lat="42.77845" lon="0.15639">
        <ele>1969.6</ele>
        <time>2021-01-29T12:54:03Z</time>
      </trkpt>
      <trkpt lat="42.77845" lon="0.15639">
        <ele>1969.4</ele>
        <time>2021-01-29T12:54:04Z</time>
      </trkpt>
      <trkpt lat="42.77845" lon="0.15639">
        <ele>1969.4</ele>
        <time>2021-01-29T12:54:05Z</time>
      </trkpt>
      <trkpt lat="42.77845" lon="0.15639">
        <ele>1969.4</ele>
        <time>2021-01-29T12:54:06Z</time>
      </trkpt>
      <trkpt lat="42.77845" lon="0.15639">
        <ele>1969.4</ele>
        <time>2021-01-29T12:54:07Z</time>
      </trkpt>
      <trkpt lat="42.77845" lon="0.15639">
        <ele>1969.4</ele>
        <time>2021-01-29T12:54:08Z</time>
      </trkpt>
      <trkpt lat="42.77845" lon="0.15639">
        <ele>1969.4</ele>
        <time>2021-01-29T12:54:09Z</time>
      </trkpt>
      <trkpt lat="42.77845" lon="0.15639">
        <ele>1969.4</ele>
        <time>2021-01-29T12:54:10Z</time>
      </trkpt>
      <trkpt lat="42.77845" lon="0.15639">
        <ele>1969.4</ele>
        <time>2021-01-29T12:54:11Z</time>
      </trkpt>
      <trkpt lat="42.77845" lon="0.15639">
        <ele>1969.4</ele>
        <time>2021-01-29T12:54:12Z</time>
      </trkpt>
      <trkpt lat="42.77845" lon="0.15639">
        <ele>1969.4</ele>
        <time>2021-01-29T12:54:13Z</time>
      </trkpt>
      <trkpt lat="42.77845" lon="0.15639">
        <ele>1969.4</ele>
        <time>2021-01-29T12:54:14Z</time>
      </trkpt>
      <trkpt lat="42.77845" lon="0.15639">
        <ele>1969.4</ele>
        <time>2021-01-29T12:54:15Z</time>
      </trkpt>
      <trkpt lat="42.77845" lon="0.15639">
        <ele>1969.4</ele>
        <time>2021-01-29T12:54:16Z</time>
      </trkpt>
      <trkpt lat="42.77845" lon="0.15639">
        <ele>1969.4</ele>
        <time>2021-01-29T12:54:17Z</time>
      </trkpt>
      <trkpt lat="42.77845" lon="0.15639">
        <ele>1969.4</ele>
        <time>2021-01-29T12:54:18Z</time>
      </trkpt>
      <trkpt lat="42.77845" lon="0.15639">
        <ele>1969.2</ele>
        <time>2021-01-29T12:54:19Z</time>
      </trkpt>
      <trkpt lat="42.77845" lon="0.15639">
        <ele>1969.2</ele>
        <time>2021-01-29T12:54:20Z</time>
      </trkpt>
      <trkpt lat="42.77845" lon="0.15639">
        <ele>1969.2</ele>
        <time>2021-01-29T12:54:21Z</time>
      </trkpt>
      <trkpt lat="42.77845" lon="0.15639">
        <ele>1969.2</ele>
        <time>2021-01-29T12:54:22Z</time>
      </trkpt>
      <trkpt lat="42.77845" lon="0.15639">
        <ele>1969.2</ele>
        <time>2021-01-29T12:54:23Z</time>
      </trkpt>
      <trkpt lat="42.77845" lon="0.15639">
        <ele>1969.2</ele>
        <time>2021-01-29T12:54:24Z</time>
      </trkpt>
      <trkpt lat="42.77845" lon="0.15639">
        <ele>1969.2</ele>
        <time>2021-01-29T12:54:25Z</time>
      </trkpt>
      <trkpt lat="42.77845" lon="0.15639">
        <ele>1969.2</ele>
        <time>2021-01-29T12:54:26Z</time>
      </trkpt>
      <trkpt lat="42.77845" lon="0.15639">
        <ele>1969.2</ele>
        <time>2021-01-29T12:54:27Z</time>
      </trkpt>
      <trkpt lat="42.77845" lon="0.15639">
        <ele>1969.2</ele>
        <time>2021-01-29T12:54:28Z</time>
      </trkpt>
      <trkpt lat="42.77845" lon="0.15639">
        <ele>1969.2</ele>
        <time>2021-01-29T12:54:29Z</time>
      </trkpt>
      <trkpt lat="42.77845" lon="0.15639">
        <ele>1969.2</ele>
        <time>2021-01-29T12:54:30Z</time>
      </trkpt>
      <trkpt lat="42.77845" lon="0.15639">
        <ele>1969.2</ele>
        <time>2021-01-29T12:54:31Z</time>
      </trkpt>
      <trkpt lat="42.77845" lon="0.15639">
        <ele>1969.2</ele>
        <time>2021-01-29T12:54:32Z</time>
      </trkpt>
      <trkpt lat="42.77845" lon="0.15639">
        <ele>1969.2</ele>
        <time>2021-01-29T12:54:33Z</time>
      </trkpt>
      <trkpt lat="42.77845" lon="0.15639">
        <ele>1969.2</ele>
        <time>2021-01-29T12:54:34Z</time>
      </trkpt>
      <trkpt lat="42.77845" lon="0.15639">
        <ele>1969.2</ele>
        <time>2021-01-29T12:54:35Z</time>
      </trkpt>
      <trkpt lat="42.77845" lon="0.15639">
        <ele>1969.2</ele>
        <time>2021-01-29T12:54:36Z</time>
      </trkpt>
      <trkpt lat="42.77845" lon="0.15639">
        <ele>1969.2</ele>
        <time>2021-01-29T12:54:37Z</time>
      </trkpt>
      <trkpt lat="42.77845" lon="0.15639">
        <ele>1969.2</ele>
        <time>2021-01-29T12:54:38Z</time>
      </trkpt>
      <trkpt lat="42.77845" lon="0.15639">
        <ele>1969.2</ele>
        <time>2021-01-29T12:54:39Z</time>
      </trkpt>
      <trkpt lat="42.77845" lon="0.15639">
        <ele>1969.2</ele>
        <time>2021-01-29T12:54:40Z</time>
      </trkpt>
      <trkpt lat="42.77845" lon="0.15639">
        <ele>1969.2</ele>
        <time>2021-01-29T12:54:41Z</time>
      </trkpt>
      <trkpt lat="42.77845" lon="0.15639">
        <ele>1969.2</ele>
        <time>2021-01-29T12:54:42Z</time>
      </trkpt>
      <trkpt lat="42.77845" lon="0.15639">
        <ele>1969.2</ele>
        <time>2021-01-29T12:54:43Z</time>
      </trkpt>
      <trkpt lat="42.77845" lon="0.15639">
        <ele>1969.2</ele>
        <time>2021-01-29T12:54:44Z</time>
      </trkpt>
      <trkpt lat="42.77845" lon="0.15639">
        <ele>1969.2</ele>
        <time>2021-01-29T12:54:45Z</time>
      </trkpt>
      <trkpt lat="42.77845" lon="0.15639">
        <ele>1969.2</ele>
        <time>2021-01-29T12:54:46Z</time>
      </trkpt>
      <trkpt lat="42.77845" lon="0.15639">
        <ele>1969.4</ele>
        <time>2021-01-29T12:54:47Z</time>
      </trkpt>
      <trkpt lat="42.77845" lon="0.15639">
        <ele>1969.4</ele>
        <time>2021-01-29T12:54:48Z</time>
      </trkpt>
      <trkpt lat="42.77845" lon="0.15639">
        <ele>1969.4</ele>
        <time>2021-01-29T12:54:49Z</time>
      </trkpt>
      <trkpt lat="42.77845" lon="0.15639">
        <ele>1969.4</ele>
        <time>2021-01-29T12:54:50Z</time>
      </trkpt>
      <trkpt lat="42.77845" lon="0.15639">
        <ele>1969.4</ele>
        <time>2021-01-29T12:54:51Z</time>
      </trkpt>
      <trkpt lat="42.77845" lon="0.15639">
        <ele>1969.4</ele>
        <time>2021-01-29T12:54:52Z</time>
      </trkpt>
      <trkpt lat="42.77845" lon="0.15639">
        <ele>1969.4</ele>
        <time>2021-01-29T12:54:53Z</time>
      </trkpt>
      <trkpt lat="42.77845" lon="0.15639">
        <ele>1969.4</ele>
        <time>2021-01-29T12:54:54Z</time>
      </trkpt>
      <trkpt lat="42.77845" lon="0.15639">
        <ele>1969.4</ele>
        <time>2021-01-29T12:54:55Z</time>
      </trkpt>
      <trkpt lat="42.77845" lon="0.15639">
        <ele>1969.4</ele>
        <time>2021-01-29T12:54:56Z</time>
      </trkpt>
      <trkpt lat="42.77845" lon="0.15639">
        <ele>1969.4</ele>
        <time>2021-01-29T12:54:57Z</time>
      </trkpt>
      <trkpt lat="42.77845" lon="0.15639">
        <ele>1969.4</ele>
        <time>2021-01-29T12:54:58Z</time>
      </trkpt>
      <trkpt lat="42.77845" lon="0.15639">
        <ele>1969.4</ele>
        <time>2021-01-29T12:54:59Z</time>
      </trkpt>
      <trkpt lat="42.77845" lon="0.15639">
        <ele>1969.2</ele>
        <time>2021-01-29T12:55:00Z</time>
      </trkpt>
      <trkpt lat="42.77845" lon="0.15639">
        <ele>1969.4</ele>
        <time>2021-01-29T12:55:01Z</time>
      </trkpt>
      <trkpt lat="42.77845" lon="0.15639">
        <ele>1969.4</ele>
        <time>2021-01-29T12:55:02Z</time>
      </trkpt>
      <trkpt lat="42.77845" lon="0.15639">
        <ele>1969.2</ele>
        <time>2021-01-29T12:55:03Z</time>
      </trkpt>
      <trkpt lat="42.77845" lon="0.15639">
        <ele>1969.2</ele>
        <time>2021-01-29T12:55:04Z</time>
      </trkpt>
      <trkpt lat="42.77845" lon="0.15638">
        <ele>1969.2</ele>
        <time>2021-01-29T12:55:05Z</time>
      </trkpt>
      <trkpt lat="42.77844" lon="0.15638">
        <ele>1969.4</ele>
        <time>2021-01-29T12:55:06Z</time>
      </trkpt>
      <trkpt lat="42.77844" lon="0.15637">
        <ele>1969.6</ele>
        <time>2021-01-29T12:55:07Z</time>
      </trkpt>
      <trkpt lat="42.77844" lon="0.15637">
        <ele>1969.8</ele>
        <time>2021-01-29T12:55:08Z</time>
      </trkpt>
      <trkpt lat="42.77843" lon="0.15637">
        <ele>1969.8</ele>
        <time>2021-01-29T12:55:09Z</time>
      </trkpt>
      <trkpt lat="42.77842" lon="0.15637">
        <ele>1969.8</ele>
        <time>2021-01-29T12:55:10Z</time>
      </trkpt>
      <trkpt lat="42.77842" lon="0.15637">
        <ele>1970.2</ele>
        <time>2021-01-29T12:55:11Z</time>
      </trkpt>
      <trkpt lat="42.77841" lon="0.15638">
        <ele>1970.2</ele>
        <time>2021-01-29T12:55:12Z</time>
      </trkpt>
      <trkpt lat="42.7784" lon="0.15638">
        <ele>1970.2</ele>
        <time>2021-01-29T12:55:13Z</time>
      </trkpt>
      <trkpt lat="42.77839" lon="0.15638">
        <ele>1970.4</ele>
        <time>2021-01-29T12:55:14Z</time>
      </trkpt>
      <trkpt lat="42.77839" lon="0.15638">
        <ele>1970.6</ele>
        <time>2021-01-29T12:55:15Z</time>
      </trkpt>
      <trkpt lat="42.77838" lon="0.15638">
        <ele>1970.6</ele>
        <time>2021-01-29T12:55:16Z</time>
      </trkpt>
      <trkpt lat="42.77837" lon="0.15638">
        <ele>1971</ele>
        <time>2021-01-29T12:55:17Z</time>
      </trkpt>
      <trkpt lat="42.77837" lon="0.15639">
        <ele>1971</ele>
        <time>2021-01-29T12:55:18Z</time>
      </trkpt>
      <trkpt lat="42.77836" lon="0.15639">
        <ele>1971.2</ele>
        <time>2021-01-29T12:55:19Z</time>
      </trkpt>
      <trkpt lat="42.77835" lon="0.15639">
        <ele>1971.4</ele>
        <time>2021-01-29T12:55:20Z</time>
      </trkpt>
      <trkpt lat="42.77834" lon="0.15639">
        <ele>1971.6</ele>
        <time>2021-01-29T12:55:21Z</time>
      </trkpt>
      <trkpt lat="42.77834" lon="0.15639">
        <ele>1971.6</ele>
        <time>2021-01-29T12:55:22Z</time>
      </trkpt>
      <trkpt lat="42.77833" lon="0.15639">
        <ele>1971.8</ele>
        <time>2021-01-29T12:55:23Z</time>
      </trkpt>
      <trkpt lat="42.77832" lon="0.15639">
        <ele>1972</ele>
        <time>2021-01-29T12:55:24Z</time>
      </trkpt>
      <trkpt lat="42.77832" lon="0.15639">
        <ele>1972</ele>
        <time>2021-01-29T12:55:25Z</time>
      </trkpt>
      <trkpt lat="42.77831" lon="0.15639">
        <ele>1972.2</ele>
        <time>2021-01-29T12:55:26Z</time>
      </trkpt>
      <trkpt lat="42.7783" lon="0.15639">
        <ele>1972.6</ele>
        <time>2021-01-29T12:55:27Z</time>
      </trkpt>
      <trkpt lat="42.77829" lon="0.15638">
        <ele>1972.6</ele>
        <time>2021-01-29T12:55:28Z</time>
      </trkpt>
      <trkpt lat="42.77829" lon="0.15638">
        <ele>1972.6</ele>
        <time>2021-01-29T12:55:29Z</time>
      </trkpt>
      <trkpt lat="42.77828" lon="0.15638">
        <ele>1973</ele>
        <time>2021-01-29T12:55:30Z</time>
      </trkpt>
      <trkpt lat="42.77827" lon="0.15638">
        <ele>1973</ele>
        <time>2021-01-29T12:55:31Z</time>
      </trkpt>
      <trkpt lat="42.77826" lon="0.15637">
        <ele>1973</ele>
        <time>2021-01-29T12:55:32Z</time>
      </trkpt>
      <trkpt lat="42.77826" lon="0.15637">
        <ele>1973.2</ele>
        <time>2021-01-29T12:55:33Z</time>
      </trkpt>
      <trkpt lat="42.77825" lon="0.15637">
        <ele>1973.4</ele>
        <time>2021-01-29T12:55:34Z</time>
      </trkpt>
      <trkpt lat="42.77824" lon="0.15637">
        <ele>1973.4</ele>
        <time>2021-01-29T12:55:35Z</time>
      </trkpt>
      <trkpt lat="42.77824" lon="0.15637">
        <ele>1973.8</ele>
        <time>2021-01-29T12:55:36Z</time>
      </trkpt>
      <trkpt lat="42.77823" lon="0.15636">
        <ele>1974</ele>
        <time>2021-01-29T12:55:37Z</time>
      </trkpt>
      <trkpt lat="42.77823" lon="0.15636">
        <ele>1974.2</ele>
        <time>2021-01-29T12:55:38Z</time>
      </trkpt>
      <trkpt lat="42.77822" lon="0.15636">
        <ele>1974.4</ele>
        <time>2021-01-29T12:55:39Z</time>
      </trkpt>
      <trkpt lat="42.77822" lon="0.15636">
        <ele>1974.6</ele>
        <time>2021-01-29T12:55:40Z</time>
      </trkpt>
      <trkpt lat="42.77821" lon="0.15636">
        <ele>1974.6</ele>
        <time>2021-01-29T12:55:41Z</time>
      </trkpt>
      <trkpt lat="42.7782" lon="0.15636">
        <ele>1974.6</ele>
        <time>2021-01-29T12:55:42Z</time>
      </trkpt>
      <trkpt lat="42.7782" lon="0.15636">
        <ele>1974.8</ele>
        <time>2021-01-29T12:55:43Z</time>
      </trkpt>
      <trkpt lat="42.77819" lon="0.15636">
        <ele>1975</ele>
        <time>2021-01-29T12:55:44Z</time>
      </trkpt>
      <trkpt lat="42.77818" lon="0.15636">
        <ele>1975</ele>
        <time>2021-01-29T12:55:45Z</time>
      </trkpt>
      <trkpt lat="42.77818" lon="0.15636">
        <ele>1975.4</ele>
        <time>2021-01-29T12:55:46Z</time>
      </trkpt>
      <trkpt lat="42.77817" lon="0.15635">
        <ele>1975.6</ele>
        <time>2021-01-29T12:55:47Z</time>
      </trkpt>
      <trkpt lat="42.77816" lon="0.15635">
        <ele>1975.8</ele>
        <time>2021-01-29T12:55:48Z</time>
      </trkpt>
      <trkpt lat="42.77815" lon="0.15635">
        <ele>1975.8</ele>
        <time>2021-01-29T12:55:49Z</time>
      </trkpt>
      <trkpt lat="42.77815" lon="0.15634">
        <ele>1976</ele>
        <time>2021-01-29T12:55:50Z</time>
      </trkpt>
      <trkpt lat="42.77814" lon="0.15634">
        <ele>1976</ele>
        <time>2021-01-29T12:55:51Z</time>
      </trkpt>
      <trkpt lat="42.77813" lon="0.15633">
        <ele>1976.2</ele>
        <time>2021-01-29T12:55:52Z</time>
      </trkpt>
      <trkpt lat="42.77813" lon="0.15633">
        <ele>1976.2</ele>
        <time>2021-01-29T12:55:53Z</time>
      </trkpt>
      <trkpt lat="42.77812" lon="0.15633">
        <ele>1976.4</ele>
        <time>2021-01-29T12:55:54Z</time>
      </trkpt>
      <trkpt lat="42.77811" lon="0.15632">
        <ele>1976.4</ele>
        <time>2021-01-29T12:55:55Z</time>
      </trkpt>
      <trkpt lat="42.7781" lon="0.15632">
        <ele>1976.4</ele>
        <time>2021-01-29T12:55:56Z</time>
      </trkpt>
      <trkpt lat="42.7781" lon="0.15632">
        <ele>1976.6</ele>
        <time>2021-01-29T12:55:57Z</time>
      </trkpt>
      <trkpt lat="42.77809" lon="0.15631">
        <ele>1976.6</ele>
        <time>2021-01-29T12:55:58Z</time>
      </trkpt>
      <trkpt lat="42.77808" lon="0.1563">
        <ele>1976.8</ele>
        <time>2021-01-29T12:55:59Z</time>
      </trkpt>
      <trkpt lat="42.77808" lon="0.1563">
        <ele>1977</ele>
        <time>2021-01-29T12:56:00Z</time>
      </trkpt>
      <trkpt lat="42.77807" lon="0.15629">
        <ele>1977.4</ele>
        <time>2021-01-29T12:56:01Z</time>
      </trkpt>
      <trkpt lat="42.77807" lon="0.15629">
        <ele>1977.6</ele>
        <time>2021-01-29T12:56:02Z</time>
      </trkpt>
      <trkpt lat="42.77806" lon="0.15628">
        <ele>1977.8</ele>
        <time>2021-01-29T12:56:03Z</time>
      </trkpt>
      <trkpt lat="42.77805" lon="0.15628">
        <ele>1978.2</ele>
        <time>2021-01-29T12:56:04Z</time>
      </trkpt>
      <trkpt lat="42.77805" lon="0.15627">
        <ele>1978.6</ele>
        <time>2021-01-29T12:56:05Z</time>
      </trkpt>
      <trkpt lat="42.77804" lon="0.15627">
        <ele>1979</ele>
        <time>2021-01-29T12:56:06Z</time>
      </trkpt>
      <trkpt lat="42.77803" lon="0.15626">
        <ele>1979.2</ele>
        <time>2021-01-29T12:56:07Z</time>
      </trkpt>
      <trkpt lat="42.77803" lon="0.15626">
        <ele>1979.6</ele>
        <time>2021-01-29T12:56:08Z</time>
      </trkpt>
      <trkpt lat="42.77802" lon="0.15625">
        <ele>1980</ele>
        <time>2021-01-29T12:56:09Z</time>
      </trkpt>
      <trkpt lat="42.77801" lon="0.15625">
        <ele>1980</ele>
        <time>2021-01-29T12:56:10Z</time>
      </trkpt>
      <trkpt lat="42.77801" lon="0.15625">
        <ele>1980.4</ele>
        <time>2021-01-29T12:56:11Z</time>
      </trkpt>
      <trkpt lat="42.778" lon="0.15624">
        <ele>1980.6</ele>
        <time>2021-01-29T12:56:12Z</time>
      </trkpt>
      <trkpt lat="42.77799" lon="0.15624">
        <ele>1980.6</ele>
        <time>2021-01-29T12:56:13Z</time>
      </trkpt>
      <trkpt lat="42.77799" lon="0.15623">
        <ele>1981</ele>
        <time>2021-01-29T12:56:14Z</time>
      </trkpt>
      <trkpt lat="42.77798" lon="0.15623">
        <ele>1981.2</ele>
        <time>2021-01-29T12:56:15Z</time>
      </trkpt>
      <trkpt lat="42.77797" lon="0.15622">
        <ele>1981.4</ele>
        <time>2021-01-29T12:56:16Z</time>
      </trkpt>
      <trkpt lat="42.77797" lon="0.15622">
        <ele>1981.6</ele>
        <time>2021-01-29T12:56:17Z</time>
      </trkpt>
      <trkpt lat="42.77796" lon="0.15621">
        <ele>1982</ele>
        <time>2021-01-29T12:56:18Z</time>
      </trkpt>
      <trkpt lat="42.77795" lon="0.15621">
        <ele>1982.2</ele>
        <time>2021-01-29T12:56:19Z</time>
      </trkpt>
      <trkpt lat="42.77795" lon="0.1562">
        <ele>1982.2</ele>
        <time>2021-01-29T12:56:20Z</time>
      </trkpt>
      <trkpt lat="42.77794" lon="0.1562">
        <ele>1982.6</ele>
        <time>2021-01-29T12:56:21Z</time>
      </trkpt>
      <trkpt lat="42.77793" lon="0.15619">
        <ele>1982.6</ele>
        <time>2021-01-29T12:56:22Z</time>
      </trkpt>
      <trkpt lat="42.77793" lon="0.15619">
        <ele>1982.8</ele>
        <time>2021-01-29T12:56:23Z</time>
      </trkpt>
      <trkpt lat="42.77792" lon="0.15618">
        <ele>1983</ele>
        <time>2021-01-29T12:56:24Z</time>
      </trkpt>
      <trkpt lat="42.77791" lon="0.15617">
        <ele>1983.2</ele>
        <time>2021-01-29T12:56:25Z</time>
      </trkpt>
      <trkpt lat="42.77791" lon="0.15617">
        <ele>1983.2</ele>
        <time>2021-01-29T12:56:26Z</time>
      </trkpt>
      <trkpt lat="42.7779" lon="0.15616">
        <ele>1983.4</ele>
        <time>2021-01-29T12:56:27Z</time>
      </trkpt>
      <trkpt lat="42.77789" lon="0.15616">
        <ele>1983.6</ele>
        <time>2021-01-29T12:56:28Z</time>
      </trkpt>
      <trkpt lat="42.77789" lon="0.15615">
        <ele>1983.6</ele>
        <time>2021-01-29T12:56:29Z</time>
      </trkpt>
      <trkpt lat="42.77788" lon="0.15614">
        <ele>1983.8</ele>
        <time>2021-01-29T12:56:30Z</time>
      </trkpt>
      <trkpt lat="42.77787" lon="0.15614">
        <ele>1984</ele>
        <time>2021-01-29T12:56:31Z</time>
      </trkpt>
      <trkpt lat="42.77786" lon="0.15613">
        <ele>1984</ele>
        <time>2021-01-29T12:56:32Z</time>
      </trkpt>
      <trkpt lat="42.77786" lon="0.15613">
        <ele>1984</ele>
        <time>2021-01-29T12:56:33Z</time>
      </trkpt>
      <trkpt lat="42.77785" lon="0.15612">
        <ele>1984.2</ele>
        <time>2021-01-29T12:56:34Z</time>
      </trkpt>
      <trkpt lat="42.77784" lon="0.15611">
        <ele>1984.4</ele>
        <time>2021-01-29T12:56:35Z</time>
      </trkpt>
      <trkpt lat="42.77783" lon="0.15611">
        <ele>1984.4</ele>
        <time>2021-01-29T12:56:36Z</time>
      </trkpt>
      <trkpt lat="42.77782" lon="0.1561">
        <ele>1984.6</ele>
        <time>2021-01-29T12:56:37Z</time>
      </trkpt>
      <trkpt lat="42.77781" lon="0.15609">
        <ele>1984.6</ele>
        <time>2021-01-29T12:56:38Z</time>
      </trkpt>
      <trkpt lat="42.77781" lon="0.15608">
        <ele>1984.4</ele>
        <time>2021-01-29T12:56:39Z</time>
      </trkpt>
      <trkpt lat="42.7778" lon="0.15608">
        <ele>1984.6</ele>
        <time>2021-01-29T12:56:40Z</time>
      </trkpt>
      <trkpt lat="42.77779" lon="0.15607">
        <ele>1984.8</ele>
        <time>2021-01-29T12:56:41Z</time>
      </trkpt>
      <trkpt lat="42.77778" lon="0.15606">
        <ele>1984.8</ele>
        <time>2021-01-29T12:56:42Z</time>
      </trkpt>
      <trkpt lat="42.77777" lon="0.15605">
        <ele>1985</ele>
        <time>2021-01-29T12:56:43Z</time>
      </trkpt>
      <trkpt lat="42.77777" lon="0.15604">
        <ele>1985</ele>
        <time>2021-01-29T12:56:44Z</time>
      </trkpt>
      <trkpt lat="42.77776" lon="0.15603">
        <ele>1985.2</ele>
        <time>2021-01-29T12:56:45Z</time>
      </trkpt>
      <trkpt lat="42.77775" lon="0.15602">
        <ele>1985.2</ele>
        <time>2021-01-29T12:56:46Z</time>
      </trkpt>
      <trkpt lat="42.77775" lon="0.15601">
        <ele>1985.2</ele>
        <time>2021-01-29T12:56:47Z</time>
      </trkpt>
      <trkpt lat="42.77774" lon="0.15601">
        <ele>1985.4</ele>
        <time>2021-01-29T12:56:48Z</time>
      </trkpt>
      <trkpt lat="42.77774" lon="0.156">
        <ele>1985.4</ele>
        <time>2021-01-29T12:56:49Z</time>
      </trkpt>
      <trkpt lat="42.77773" lon="0.156">
        <ele>1985.6</ele>
        <time>2021-01-29T12:56:50Z</time>
      </trkpt>
      <trkpt lat="42.77773" lon="0.15599">
        <ele>1985.8</ele>
        <time>2021-01-29T12:56:51Z</time>
      </trkpt>
      <trkpt lat="42.77773" lon="0.15599">
        <ele>1985.8</ele>
        <time>2021-01-29T12:56:52Z</time>
      </trkpt>
      <trkpt lat="42.77773" lon="0.15599">
        <ele>1985.8</ele>
        <time>2021-01-29T12:56:53Z</time>
      </trkpt>
      <trkpt lat="42.77773" lon="0.15599">
        <ele>1985.8</ele>
        <time>2021-01-29T12:56:54Z</time>
      </trkpt>
      <trkpt lat="42.77773" lon="0.15599">
        <ele>1985.8</ele>
        <time>2021-01-29T12:56:55Z</time>
      </trkpt>
      <trkpt lat="42.77773" lon="0.15599">
        <ele>1985.8</ele>
        <time>2021-01-29T12:56:56Z</time>
      </trkpt>
      <trkpt lat="42.77773" lon="0.15599">
        <ele>1985.8</ele>
        <time>2021-01-29T12:56:57Z</time>
      </trkpt>
      <trkpt lat="42.77773" lon="0.15599">
        <ele>1985.8</ele>
        <time>2021-01-29T12:56:58Z</time>
      </trkpt>
      <trkpt lat="42.77773" lon="0.15599">
        <ele>1985.8</ele>
        <time>2021-01-29T12:56:59Z</time>
      </trkpt>
      <trkpt lat="42.77773" lon="0.15599">
        <ele>1985.8</ele>
        <time>2021-01-29T12:57:00Z</time>
      </trkpt>
      <trkpt lat="42.77773" lon="0.15599">
        <ele>1985.8</ele>
        <time>2021-01-29T12:57:01Z</time>
      </trkpt>
      <trkpt lat="42.77773" lon="0.15599">
        <ele>1985.8</ele>
        <time>2021-01-29T12:57:02Z</time>
      </trkpt>
      <trkpt lat="42.77773" lon="0.15599">
        <ele>1985.8</ele>
        <time>2021-01-29T12:57:03Z</time>
      </trkpt>
      <trkpt lat="42.77773" lon="0.15599">
        <ele>1986</ele>
        <time>2021-01-29T12:57:04Z</time>
      </trkpt>
      <trkpt lat="42.77773" lon="0.15599">
        <ele>1986</ele>
        <time>2021-01-29T12:57:05Z</time>
      </trkpt>
      <trkpt lat="42.77773" lon="0.15599">
        <ele>1986</ele>
        <time>2021-01-29T12:57:06Z</time>
      </trkpt>
      <trkpt lat="42.77773" lon="0.15599">
        <ele>1986</ele>
        <time>2021-01-29T12:57:07Z</time>
      </trkpt>
      <trkpt lat="42.77773" lon="0.15599">
        <ele>1986</ele>
        <time>2021-01-29T12:57:08Z</time>
      </trkpt>
      <trkpt lat="42.77773" lon="0.15599">
        <ele>1986</ele>
        <time>2021-01-29T12:57:09Z</time>
      </trkpt>
      <trkpt lat="42.77773" lon="0.15599">
        <ele>1986</ele>
        <time>2021-01-29T12:57:10Z</time>
      </trkpt>
      <trkpt lat="42.77773" lon="0.15599">
        <ele>1986</ele>
        <time>2021-01-29T12:57:11Z</time>
      </trkpt>
      <trkpt lat="42.77773" lon="0.15599">
        <ele>1986</ele>
        <time>2021-01-29T12:57:12Z</time>
      </trkpt>
      <trkpt lat="42.77773" lon="0.15599">
        <ele>1986.2</ele>
        <time>2021-01-29T12:57:13Z</time>
      </trkpt>
      <trkpt lat="42.77773" lon="0.15599">
        <ele>1986.2</ele>
        <time>2021-01-29T12:57:14Z</time>
      </trkpt>
      <trkpt lat="42.77773" lon="0.15599">
        <ele>1986.2</ele>
        <time>2021-01-29T12:57:15Z</time>
      </trkpt>
      <trkpt lat="42.77772" lon="0.15599">
        <ele>1986.2</ele>
        <time>2021-01-29T12:57:16Z</time>
      </trkpt>
      <trkpt lat="42.77771" lon="0.15598">
        <ele>1986.4</ele>
        <time>2021-01-29T12:57:17Z</time>
      </trkpt>
      <trkpt lat="42.77771" lon="0.15598">
        <ele>1986.4</ele>
        <time>2021-01-29T12:57:18Z</time>
      </trkpt>
      <trkpt lat="42.7777" lon="0.15598">
        <ele>1986.4</ele>
        <time>2021-01-29T12:57:19Z</time>
      </trkpt>
      <trkpt lat="42.7777" lon="0.15597">
        <ele>1986.6</ele>
        <time>2021-01-29T12:57:20Z</time>
      </trkpt>
      <trkpt lat="42.77769" lon="0.15597">
        <ele>1986.6</ele>
        <time>2021-01-29T12:57:21Z</time>
      </trkpt>
      <trkpt lat="42.77768" lon="0.15596">
        <ele>1986.6</ele>
        <time>2021-01-29T12:57:22Z</time>
      </trkpt>
      <trkpt lat="42.77767" lon="0.15596">
        <ele>1986.8</ele>
        <time>2021-01-29T12:57:23Z</time>
      </trkpt>
      <trkpt lat="42.77766" lon="0.15595">
        <ele>1986.8</ele>
        <time>2021-01-29T12:57:24Z</time>
      </trkpt>
      <trkpt lat="42.77766" lon="0.15595">
        <ele>1986.8</ele>
        <time>2021-01-29T12:57:25Z</time>
      </trkpt>
      <trkpt lat="42.77765" lon="0.15595">
        <ele>1987</ele>
        <time>2021-01-29T12:57:26Z</time>
      </trkpt>
      <trkpt lat="42.77764" lon="0.15594">
        <ele>1987</ele>
        <time>2021-01-29T12:57:27Z</time>
      </trkpt>
      <trkpt lat="42.77763" lon="0.15594">
        <ele>1987</ele>
        <time>2021-01-29T12:57:28Z</time>
      </trkpt>
      <trkpt lat="42.77762" lon="0.15593">
        <ele>1987.2</ele>
        <time>2021-01-29T12:57:29Z</time>
      </trkpt>
      <trkpt lat="42.77762" lon="0.15592">
        <ele>1987.2</ele>
        <time>2021-01-29T12:57:30Z</time>
      </trkpt>
      <trkpt lat="42.77761" lon="0.15592">
        <ele>1987.2</ele>
        <time>2021-01-29T12:57:31Z</time>
      </trkpt>
      <trkpt lat="42.7776" lon="0.15592">
        <ele>1987.4</ele>
        <time>2021-01-29T12:57:32Z</time>
      </trkpt>
      <trkpt lat="42.77759" lon="0.15591">
        <ele>1987.4</ele>
        <time>2021-01-29T12:57:33Z</time>
      </trkpt>
      <trkpt lat="42.77758" lon="0.15591">
        <ele>1987.4</ele>
        <time>2021-01-29T12:57:34Z</time>
      </trkpt>
      <trkpt lat="42.77757" lon="0.15591">
        <ele>1987.4</ele>
        <time>2021-01-29T12:57:35Z</time>
      </trkpt>
      <trkpt lat="42.77756" lon="0.1559">
        <ele>1987.6</ele>
        <time>2021-01-29T12:57:36Z</time>
      </trkpt>
      <trkpt lat="42.77755" lon="0.1559">
        <ele>1987.4</ele>
        <time>2021-01-29T12:57:37Z</time>
      </trkpt>
      <trkpt lat="42.77754" lon="0.1559">
        <ele>1987.6</ele>
        <time>2021-01-29T12:57:38Z</time>
      </trkpt>
      <trkpt lat="42.77753" lon="0.1559">
        <ele>1987.6</ele>
        <time>2021-01-29T12:57:39Z</time>
      </trkpt>
      <trkpt lat="42.77752" lon="0.15589">
        <ele>1987.4</ele>
        <time>2021-01-29T12:57:40Z</time>
      </trkpt>
      <trkpt lat="42.77751" lon="0.15589">
        <ele>1987.6</ele>
        <time>2021-01-29T12:57:41Z</time>
      </trkpt>
      <trkpt lat="42.7775" lon="0.15589">
        <ele>1987.6</ele>
        <time>2021-01-29T12:57:42Z</time>
      </trkpt>
      <trkpt lat="42.77749" lon="0.15589">
        <ele>1987.6</ele>
        <time>2021-01-29T12:57:43Z</time>
      </trkpt>
      <trkpt lat="42.77748" lon="0.15588">
        <ele>1987.6</ele>
        <time>2021-01-29T12:57:44Z</time>
      </trkpt>
      <trkpt lat="42.77747" lon="0.15588">
        <ele>1987.8</ele>
        <time>2021-01-29T12:57:45Z</time>
      </trkpt>
      <trkpt lat="42.77746" lon="0.15588">
        <ele>1988</ele>
        <time>2021-01-29T12:57:46Z</time>
      </trkpt>
      <trkpt lat="42.77745" lon="0.15588">
        <ele>1988</ele>
        <time>2021-01-29T12:57:47Z</time>
      </trkpt>
      <trkpt lat="42.77744" lon="0.15587">
        <ele>1988.2</ele>
        <time>2021-01-29T12:57:48Z</time>
      </trkpt>
      <trkpt lat="42.77743" lon="0.15587">
        <ele>1988.2</ele>
        <time>2021-01-29T12:57:49Z</time>
      </trkpt>
      <trkpt lat="42.77742" lon="0.15587">
        <ele>1988.2</ele>
        <time>2021-01-29T12:57:50Z</time>
      </trkpt>
      <trkpt lat="42.77741" lon="0.15587">
        <ele>1988.2</ele>
        <time>2021-01-29T12:57:51Z</time>
      </trkpt>
      <trkpt lat="42.7774" lon="0.15587">
        <ele>1988.4</ele>
        <time>2021-01-29T12:57:52Z</time>
      </trkpt>
      <trkpt lat="42.77739" lon="0.15588">
        <ele>1988.4</ele>
        <time>2021-01-29T12:57:53Z</time>
      </trkpt>
      <trkpt lat="42.77738" lon="0.15588">
        <ele>1988.6</ele>
        <time>2021-01-29T12:57:54Z</time>
      </trkpt>
      <trkpt lat="42.77737" lon="0.15588">
        <ele>1988.8</ele>
        <time>2021-01-29T12:57:55Z</time>
      </trkpt>
      <trkpt lat="42.77736" lon="0.15588">
        <ele>1988.8</ele>
        <time>2021-01-29T12:57:56Z</time>
      </trkpt>
      <trkpt lat="42.77735" lon="0.15587">
        <ele>1988.8</ele>
        <time>2021-01-29T12:57:57Z</time>
      </trkpt>
      <trkpt lat="42.77734" lon="0.15587">
        <ele>1989</ele>
        <time>2021-01-29T12:57:58Z</time>
      </trkpt>
      <trkpt lat="42.77733" lon="0.15587">
        <ele>1988.8</ele>
        <time>2021-01-29T12:57:59Z</time>
      </trkpt>
      <trkpt lat="42.77732" lon="0.15587">
        <ele>1988.8</ele>
        <time>2021-01-29T12:58:00Z</time>
      </trkpt>
      <trkpt lat="42.77731" lon="0.15587">
        <ele>1989</ele>
        <time>2021-01-29T12:58:01Z</time>
      </trkpt>
      <trkpt lat="42.7773" lon="0.15587">
        <ele>1989</ele>
        <time>2021-01-29T12:58:02Z</time>
      </trkpt>
      <trkpt lat="42.77729" lon="0.15586">
        <ele>1989</ele>
        <time>2021-01-29T12:58:03Z</time>
      </trkpt>
      <trkpt lat="42.77728" lon="0.15586">
        <ele>1989.2</ele>
        <time>2021-01-29T12:58:04Z</time>
      </trkpt>
      <trkpt lat="42.77728" lon="0.15585">
        <ele>1989.2</ele>
        <time>2021-01-29T12:58:05Z</time>
      </trkpt>
      <trkpt lat="42.77727" lon="0.15585">
        <ele>1989.2</ele>
        <time>2021-01-29T12:58:06Z</time>
      </trkpt>
      <trkpt lat="42.77726" lon="0.15585">
        <ele>1989.4</ele>
        <time>2021-01-29T12:58:07Z</time>
      </trkpt>
      <trkpt lat="42.77725" lon="0.15584">
        <ele>1989.4</ele>
        <time>2021-01-29T12:58:08Z</time>
      </trkpt>
      <trkpt lat="42.77724" lon="0.15584">
        <ele>1989.2</ele>
        <time>2021-01-29T12:58:09Z</time>
      </trkpt>
      <trkpt lat="42.77723" lon="0.15584">
        <ele>1989.4</ele>
        <time>2021-01-29T12:58:10Z</time>
      </trkpt>
      <trkpt lat="42.77722" lon="0.15583">
        <ele>1989.4</ele>
        <time>2021-01-29T12:58:11Z</time>
      </trkpt>
      <trkpt lat="42.77721" lon="0.15583">
        <ele>1989.4</ele>
        <time>2021-01-29T12:58:12Z</time>
      </trkpt>
      <trkpt lat="42.7772" lon="0.15583">
        <ele>1989.8</ele>
        <time>2021-01-29T12:58:13Z</time>
      </trkpt>
      <trkpt lat="42.77719" lon="0.15583">
        <ele>1989.6</ele>
        <time>2021-01-29T12:58:14Z</time>
      </trkpt>
      <trkpt lat="42.77718" lon="0.15583">
        <ele>1989.6</ele>
        <time>2021-01-29T12:58:15Z</time>
      </trkpt>
      <trkpt lat="42.77717" lon="0.15583">
        <ele>1989.8</ele>
        <time>2021-01-29T12:58:16Z</time>
      </trkpt>
      <trkpt lat="42.77717" lon="0.15582">
        <ele>1989.6</ele>
        <time>2021-01-29T12:58:17Z</time>
      </trkpt>
      <trkpt lat="42.77716" lon="0.15582">
        <ele>1989.6</ele>
        <time>2021-01-29T12:58:18Z</time>
      </trkpt>
      <trkpt lat="42.77715" lon="0.15582">
        <ele>1989.6</ele>
        <time>2021-01-29T12:58:19Z</time>
      </trkpt>
      <trkpt lat="42.77714" lon="0.15582">
        <ele>1989.6</ele>
        <time>2021-01-29T12:58:20Z</time>
      </trkpt>
      <trkpt lat="42.77713" lon="0.15582">
        <ele>1989.6</ele>
        <time>2021-01-29T12:58:21Z</time>
      </trkpt>
      <trkpt lat="42.77712" lon="0.15582">
        <ele>1989.6</ele>
        <time>2021-01-29T12:58:22Z</time>
      </trkpt>
      <trkpt lat="42.77712" lon="0.15582">
        <ele>1989.6</ele>
        <time>2021-01-29T12:58:23Z</time>
      </trkpt>
      <trkpt lat="42.77711" lon="0.15582">
        <ele>1989.8</ele>
        <time>2021-01-29T12:58:24Z</time>
      </trkpt>
      <trkpt lat="42.7771" lon="0.15582">
        <ele>1989.8</ele>
        <time>2021-01-29T12:58:25Z</time>
      </trkpt>
      <trkpt lat="42.77709" lon="0.15582">
        <ele>1989.8</ele>
        <time>2021-01-29T12:58:26Z</time>
      </trkpt>
      <trkpt lat="42.77708" lon="0.15582">
        <ele>1989.8</ele>
        <time>2021-01-29T12:58:27Z</time>
      </trkpt>
      <trkpt lat="42.77707" lon="0.15582">
        <ele>1989.8</ele>
        <time>2021-01-29T12:58:28Z</time>
      </trkpt>
      <trkpt lat="42.77706" lon="0.15583">
        <ele>1989.8</ele>
        <time>2021-01-29T12:58:29Z</time>
      </trkpt>
      <trkpt lat="42.77705" lon="0.15583">
        <ele>1989.8</ele>
        <time>2021-01-29T12:58:30Z</time>
      </trkpt>
      <trkpt lat="42.77704" lon="0.15583">
        <ele>1990</ele>
        <time>2021-01-29T12:58:31Z</time>
      </trkpt>
      <trkpt lat="42.77703" lon="0.15583">
        <ele>1990</ele>
        <time>2021-01-29T12:58:32Z</time>
      </trkpt>
      <trkpt lat="42.77702" lon="0.15583">
        <ele>1990</ele>
        <time>2021-01-29T12:58:33Z</time>
      </trkpt>
      <trkpt lat="42.77702" lon="0.15584">
        <ele>1990.4</ele>
        <time>2021-01-29T12:58:34Z</time>
      </trkpt>
      <trkpt lat="42.77701" lon="0.15584">
        <ele>1990.4</ele>
        <time>2021-01-29T12:58:35Z</time>
      </trkpt>
      <trkpt lat="42.777" lon="0.15584">
        <ele>1990.2</ele>
        <time>2021-01-29T12:58:36Z</time>
      </trkpt>
      <trkpt lat="42.77699" lon="0.15585">
        <ele>1990.4</ele>
        <time>2021-01-29T12:58:37Z</time>
      </trkpt>
      <trkpt lat="42.77698" lon="0.15585">
        <ele>1990.4</ele>
        <time>2021-01-29T12:58:38Z</time>
      </trkpt>
      <trkpt lat="42.77698" lon="0.15586">
        <ele>1990.6</ele>
        <time>2021-01-29T12:58:39Z</time>
      </trkpt>
      <trkpt lat="42.77697" lon="0.15586">
        <ele>1990.8</ele>
        <time>2021-01-29T12:58:40Z</time>
      </trkpt>
      <trkpt lat="42.77696" lon="0.15586">
        <ele>1990.8</ele>
        <time>2021-01-29T12:58:41Z</time>
      </trkpt>
      <trkpt lat="42.77696" lon="0.15587">
        <ele>1991</ele>
        <time>2021-01-29T12:58:42Z</time>
      </trkpt>
      <trkpt lat="42.77695" lon="0.15587">
        <ele>1991.2</ele>
        <time>2021-01-29T12:58:43Z</time>
      </trkpt>
      <trkpt lat="42.77694" lon="0.15587">
        <ele>1991.2</ele>
        <time>2021-01-29T12:58:44Z</time>
      </trkpt>
      <trkpt lat="42.77693" lon="0.15588">
        <ele>1991.4</ele>
        <time>2021-01-29T12:58:45Z</time>
      </trkpt>
      <trkpt lat="42.77693" lon="0.15588">
        <ele>1991.6</ele>
        <time>2021-01-29T12:58:46Z</time>
      </trkpt>
      <trkpt lat="42.77692" lon="0.15589">
        <ele>1991.6</ele>
        <time>2021-01-29T12:58:47Z</time>
      </trkpt>
      <trkpt lat="42.77691" lon="0.15589">
        <ele>1991.8</ele>
        <time>2021-01-29T12:58:48Z</time>
      </trkpt>
      <trkpt lat="42.77691" lon="0.15589">
        <ele>1991.8</ele>
        <time>2021-01-29T12:58:49Z</time>
      </trkpt>
      <trkpt lat="42.7769" lon="0.1559">
        <ele>1992</ele>
        <time>2021-01-29T12:58:50Z</time>
      </trkpt>
      <trkpt lat="42.77689" lon="0.1559">
        <ele>1992.4</ele>
        <time>2021-01-29T12:58:51Z</time>
      </trkpt>
      <trkpt lat="42.77689" lon="0.15591">
        <ele>1992.4</ele>
        <time>2021-01-29T12:58:52Z</time>
      </trkpt>
      <trkpt lat="42.77688" lon="0.15591">
        <ele>1992.6</ele>
        <time>2021-01-29T12:58:53Z</time>
      </trkpt>
      <trkpt lat="42.77688" lon="0.15591">
        <ele>1992.8</ele>
        <time>2021-01-29T12:58:54Z</time>
      </trkpt>
      <trkpt lat="42.77687" lon="0.15592">
        <ele>1993</ele>
        <time>2021-01-29T12:58:55Z</time>
      </trkpt>
      <trkpt lat="42.77686" lon="0.15593">
        <ele>1993.2</ele>
        <time>2021-01-29T12:58:56Z</time>
      </trkpt>
      <trkpt lat="42.77686" lon="0.15594">
        <ele>1993.4</ele>
        <time>2021-01-29T12:58:57Z</time>
      </trkpt>
      <trkpt lat="42.77685" lon="0.15594">
        <ele>1993.4</ele>
        <time>2021-01-29T12:58:58Z</time>
      </trkpt>
      <trkpt lat="42.77684" lon="0.15595">
        <ele>1993.6</ele>
        <time>2021-01-29T12:58:59Z</time>
      </trkpt>
      <trkpt lat="42.77684" lon="0.15596">
        <ele>1993.8</ele>
        <time>2021-01-29T12:59:00Z</time>
      </trkpt>
      <trkpt lat="42.77684" lon="0.15596">
        <ele>1993.8</ele>
        <time>2021-01-29T12:59:01Z</time>
      </trkpt>
      <trkpt lat="42.77683" lon="0.15597">
        <ele>1994.2</ele>
        <time>2021-01-29T12:59:02Z</time>
      </trkpt>
      <trkpt lat="42.77683" lon="0.15597">
        <ele>1994.2</ele>
        <time>2021-01-29T12:59:03Z</time>
      </trkpt>
      <trkpt lat="42.77682" lon="0.15598">
        <ele>1994.4</ele>
        <time>2021-01-29T12:59:04Z</time>
      </trkpt>
      <trkpt lat="42.77682" lon="0.15598">
        <ele>1994.6</ele>
        <time>2021-01-29T12:59:05Z</time>
      </trkpt>
      <trkpt lat="42.77681" lon="0.15599">
        <ele>1994.6</ele>
        <time>2021-01-29T12:59:06Z</time>
      </trkpt>
      <trkpt lat="42.7768" lon="0.156">
        <ele>1994.8</ele>
        <time>2021-01-29T12:59:07Z</time>
      </trkpt>
      <trkpt lat="42.7768" lon="0.156">
        <ele>1995</ele>
        <time>2021-01-29T12:59:08Z</time>
      </trkpt>
      <trkpt lat="42.7768" lon="0.15601">
        <ele>1995</ele>
        <time>2021-01-29T12:59:09Z</time>
      </trkpt>
      <trkpt lat="42.77679" lon="0.15602">
        <ele>1995.4</ele>
        <time>2021-01-29T12:59:10Z</time>
      </trkpt>
      <trkpt lat="42.77678" lon="0.15602">
        <ele>1995.4</ele>
        <time>2021-01-29T12:59:11Z</time>
      </trkpt>
      <trkpt lat="42.77678" lon="0.15603">
        <ele>1995.4</ele>
        <time>2021-01-29T12:59:12Z</time>
      </trkpt>
      <trkpt lat="42.77677" lon="0.15604">
        <ele>1995.8</ele>
        <time>2021-01-29T12:59:13Z</time>
      </trkpt>
      <trkpt lat="42.77677" lon="0.15604">
        <ele>1995.8</ele>
        <time>2021-01-29T12:59:14Z</time>
      </trkpt>
      <trkpt lat="42.77676" lon="0.15605">
        <ele>1996</ele>
        <time>2021-01-29T12:59:15Z</time>
      </trkpt>
      <trkpt lat="42.77676" lon="0.15606">
        <ele>1996.4</ele>
        <time>2021-01-29T12:59:16Z</time>
      </trkpt>
      <trkpt lat="42.77675" lon="0.15607">
        <ele>1996.4</ele>
        <time>2021-01-29T12:59:17Z</time>
      </trkpt>
      <trkpt lat="42.77675" lon="0.15607">
        <ele>1996.6</ele>
        <time>2021-01-29T12:59:18Z</time>
      </trkpt>
      <trkpt lat="42.77674" lon="0.15608">
        <ele>1997</ele>
        <time>2021-01-29T12:59:19Z</time>
      </trkpt>
      <trkpt lat="42.77673" lon="0.15609">
        <ele>1997</ele>
        <time>2021-01-29T12:59:20Z</time>
      </trkpt>
      <trkpt lat="42.77673" lon="0.1561">
        <ele>1997.2</ele>
        <time>2021-01-29T12:59:21Z</time>
      </trkpt>
      <trkpt lat="42.77672" lon="0.1561">
        <ele>1997.4</ele>
        <time>2021-01-29T12:59:22Z</time>
      </trkpt>
      <trkpt lat="42.77672" lon="0.15611">
        <ele>1997.4</ele>
        <time>2021-01-29T12:59:23Z</time>
      </trkpt>
      <trkpt lat="42.77671" lon="0.15612">
        <ele>1997.8</ele>
        <time>2021-01-29T12:59:24Z</time>
      </trkpt>
      <trkpt lat="42.77671" lon="0.15613">
        <ele>1998</ele>
        <time>2021-01-29T12:59:25Z</time>
      </trkpt>
      <trkpt lat="42.7767" lon="0.15613">
        <ele>1998</ele>
        <time>2021-01-29T12:59:26Z</time>
      </trkpt>
      <trkpt lat="42.7767" lon="0.15614">
        <ele>1998.4</ele>
        <time>2021-01-29T12:59:27Z</time>
      </trkpt>
      <trkpt lat="42.77669" lon="0.15615">
        <ele>1998.4</ele>
        <time>2021-01-29T12:59:28Z</time>
      </trkpt>
      <trkpt lat="42.77669" lon="0.15616">
        <ele>1998.6</ele>
        <time>2021-01-29T12:59:29Z</time>
      </trkpt>
      <trkpt lat="42.77668" lon="0.15616">
        <ele>1998.8</ele>
        <time>2021-01-29T12:59:30Z</time>
      </trkpt>
      <trkpt lat="42.77668" lon="0.15617">
        <ele>1999</ele>
        <time>2021-01-29T12:59:31Z</time>
      </trkpt>
      <trkpt lat="42.77668" lon="0.15617">
        <ele>1999.2</ele>
        <time>2021-01-29T12:59:32Z</time>
      </trkpt>
      <trkpt lat="42.77667" lon="0.15618">
        <ele>1999.4</ele>
        <time>2021-01-29T12:59:33Z</time>
      </trkpt>
      <trkpt lat="42.77667" lon="0.15619">
        <ele>1999.6</ele>
        <time>2021-01-29T12:59:34Z</time>
      </trkpt>
      <trkpt lat="42.77666" lon="0.15619">
        <ele>1999.8</ele>
        <time>2021-01-29T12:59:35Z</time>
      </trkpt>
      <trkpt lat="42.77666" lon="0.1562">
        <ele>2000</ele>
        <time>2021-01-29T12:59:36Z</time>
      </trkpt>
      <trkpt lat="42.77665" lon="0.15621">
        <ele>2000</ele>
        <time>2021-01-29T12:59:37Z</time>
      </trkpt>
      <trkpt lat="42.77664" lon="0.15621">
        <ele>2000.4</ele>
        <time>2021-01-29T12:59:38Z</time>
      </trkpt>
      <trkpt lat="42.77664" lon="0.15622">
        <ele>2000.4</ele>
        <time>2021-01-29T12:59:39Z</time>
      </trkpt>
      <trkpt lat="42.77663" lon="0.15623">
        <ele>2000.8</ele>
        <time>2021-01-29T12:59:40Z</time>
      </trkpt>
      <trkpt lat="42.77663" lon="0.15624">
        <ele>2001</ele>
        <time>2021-01-29T12:59:41Z</time>
      </trkpt>
      <trkpt lat="42.77663" lon="0.15624">
        <ele>2001</ele>
        <time>2021-01-29T12:59:42Z</time>
      </trkpt>
      <trkpt lat="42.77662" lon="0.15625">
        <ele>2001.2</ele>
        <time>2021-01-29T12:59:43Z</time>
      </trkpt>
      <trkpt lat="42.77662" lon="0.15626">
        <ele>2001.6</ele>
        <time>2021-01-29T12:59:44Z</time>
      </trkpt>
      <trkpt lat="42.77661" lon="0.15627">
        <ele>2001.6</ele>
        <time>2021-01-29T12:59:45Z</time>
      </trkpt>
      <trkpt lat="42.77661" lon="0.15627">
        <ele>2002</ele>
        <time>2021-01-29T12:59:46Z</time>
      </trkpt>
      <trkpt lat="42.77661" lon="0.15628">
        <ele>2002.2</ele>
        <time>2021-01-29T12:59:47Z</time>
      </trkpt>
      <trkpt lat="42.7766" lon="0.15629">
        <ele>2002</ele>
        <time>2021-01-29T12:59:48Z</time>
      </trkpt>
      <trkpt lat="42.7766" lon="0.15629">
        <ele>2002.4</ele>
        <time>2021-01-29T12:59:49Z</time>
      </trkpt>
      <trkpt lat="42.77659" lon="0.1563">
        <ele>2002.4</ele>
        <time>2021-01-29T12:59:50Z</time>
      </trkpt>
      <trkpt lat="42.77659" lon="0.1563">
        <ele>2002.8</ele>
        <time>2021-01-29T12:59:51Z</time>
      </trkpt>
      <trkpt lat="42.77658" lon="0.15631">
        <ele>2003</ele>
        <time>2021-01-29T12:59:52Z</time>
      </trkpt>
      <trkpt lat="42.77658" lon="0.15632">
        <ele>2003</ele>
        <time>2021-01-29T12:59:53Z</time>
      </trkpt>
      <trkpt lat="42.77657" lon="0.15632">
        <ele>2003.2</ele>
        <time>2021-01-29T12:59:54Z</time>
      </trkpt>
      <trkpt lat="42.77657" lon="0.15633">
        <ele>2003.4</ele>
        <time>2021-01-29T12:59:55Z</time>
      </trkpt>
      <trkpt lat="42.77657" lon="0.15633">
        <ele>2003.4</ele>
        <time>2021-01-29T12:59:56Z</time>
      </trkpt>
      <trkpt lat="42.77657" lon="0.15634">
        <ele>2003.8</ele>
        <time>2021-01-29T12:59:57Z</time>
      </trkpt>
      <trkpt lat="42.77657" lon="0.15635">
        <ele>2003.8</ele>
        <time>2021-01-29T12:59:58Z</time>
      </trkpt>
      <trkpt lat="42.77656" lon="0.15635">
        <ele>2004</ele>
        <time>2021-01-29T12:59:59Z</time>
      </trkpt>
      <trkpt lat="42.77656" lon="0.15636">
        <ele>2004.4</ele>
        <time>2021-01-29T13:00:00Z</time>
      </trkpt>
      <trkpt lat="42.77656" lon="0.15637">
        <ele>2004.2</ele>
        <time>2021-01-29T13:00:01Z</time>
      </trkpt>
      <trkpt lat="42.77655" lon="0.15638">
        <ele>2004.6</ele>
        <time>2021-01-29T13:00:02Z</time>
      </trkpt>
      <trkpt lat="42.77655" lon="0.15638">
        <ele>2004.8</ele>
        <time>2021-01-29T13:00:03Z</time>
      </trkpt>
      <trkpt lat="42.77655" lon="0.15639">
        <ele>2004.8</ele>
        <time>2021-01-29T13:00:04Z</time>
      </trkpt>
      <trkpt lat="42.77655" lon="0.1564">
        <ele>2005.2</ele>
        <time>2021-01-29T13:00:05Z</time>
      </trkpt>
      <trkpt lat="42.77654" lon="0.1564">
        <ele>2005.2</ele>
        <time>2021-01-29T13:00:06Z</time>
      </trkpt>
      <trkpt lat="42.77654" lon="0.15641">
        <ele>2005.4</ele>
        <time>2021-01-29T13:00:07Z</time>
      </trkpt>
      <trkpt lat="42.77653" lon="0.15642">
        <ele>2005.8</ele>
        <time>2021-01-29T13:00:08Z</time>
      </trkpt>
      <trkpt lat="42.77653" lon="0.15643">
        <ele>2005.8</ele>
        <time>2021-01-29T13:00:09Z</time>
      </trkpt>
      <trkpt lat="42.77653" lon="0.15643">
        <ele>2006</ele>
        <time>2021-01-29T13:00:10Z</time>
      </trkpt>
      <trkpt lat="42.77652" lon="0.15644">
        <ele>2006.2</ele>
        <time>2021-01-29T13:00:11Z</time>
      </trkpt>
      <trkpt lat="42.77652" lon="0.15645">
        <ele>2006.2</ele>
        <time>2021-01-29T13:00:12Z</time>
      </trkpt>
      <trkpt lat="42.77652" lon="0.15646">
        <ele>2006.6</ele>
        <time>2021-01-29T13:00:13Z</time>
      </trkpt>
      <trkpt lat="42.77651" lon="0.15646">
        <ele>2006.6</ele>
        <time>2021-01-29T13:00:14Z</time>
      </trkpt>
      <trkpt lat="42.77651" lon="0.15647">
        <ele>2006.8</ele>
        <time>2021-01-29T13:00:15Z</time>
      </trkpt>
      <trkpt lat="42.77651" lon="0.15648">
        <ele>2007</ele>
        <time>2021-01-29T13:00:16Z</time>
      </trkpt>
      <trkpt lat="42.77651" lon="0.15649">
        <ele>2007.2</ele>
        <time>2021-01-29T13:00:17Z</time>
      </trkpt>
      <trkpt lat="42.7765" lon="0.15649">
        <ele>2007.2</ele>
        <time>2021-01-29T13:00:18Z</time>
      </trkpt>
      <trkpt lat="42.7765" lon="0.1565">
        <ele>2007.4</ele>
        <time>2021-01-29T13:00:19Z</time>
      </trkpt>
      <trkpt lat="42.7765" lon="0.15651">
        <ele>2007.6</ele>
        <time>2021-01-29T13:00:20Z</time>
      </trkpt>
      <trkpt lat="42.77649" lon="0.15651">
        <ele>2007.8</ele>
        <time>2021-01-29T13:00:21Z</time>
      </trkpt>
      <trkpt lat="42.77649" lon="0.15652">
        <ele>2007.8</ele>
        <time>2021-01-29T13:00:22Z</time>
      </trkpt>
      <trkpt lat="42.77648" lon="0.15653">
        <ele>2007.8</ele>
        <time>2021-01-29T13:00:23Z</time>
      </trkpt>
      <trkpt lat="42.77648" lon="0.15654">
        <ele>2008.2</ele>
        <time>2021-01-29T13:00:24Z</time>
      </trkpt>
      <trkpt lat="42.77647" lon="0.15655">
        <ele>2008.2</ele>
        <time>2021-01-29T13:00:25Z</time>
      </trkpt>
      <trkpt lat="42.77647" lon="0.15655">
        <ele>2008.6</ele>
        <time>2021-01-29T13:00:26Z</time>
      </trkpt>
      <trkpt lat="42.77647" lon="0.15656">
        <ele>2008.8</ele>
        <time>2021-01-29T13:00:27Z</time>
      </trkpt>
      <trkpt lat="42.77647" lon="0.15657">
        <ele>2008.8</ele>
        <time>2021-01-29T13:00:28Z</time>
      </trkpt>
      <trkpt lat="42.77646" lon="0.15658">
        <ele>2009</ele>
        <time>2021-01-29T13:00:29Z</time>
      </trkpt>
      <trkpt lat="42.77646" lon="0.15659">
        <ele>2009.2</ele>
        <time>2021-01-29T13:00:30Z</time>
      </trkpt>
      <trkpt lat="42.77646" lon="0.15659">
        <ele>2009.2</ele>
        <time>2021-01-29T13:00:31Z</time>
      </trkpt>
      <trkpt lat="42.77645" lon="0.1566">
        <ele>2009.4</ele>
        <time>2021-01-29T13:00:32Z</time>
      </trkpt>
      <trkpt lat="42.77645" lon="0.15661">
        <ele>2009.6</ele>
        <time>2021-01-29T13:00:33Z</time>
      </trkpt>
      <trkpt lat="42.77645" lon="0.15662">
        <ele>2009.6</ele>
        <time>2021-01-29T13:00:34Z</time>
      </trkpt>
      <trkpt lat="42.77644" lon="0.15663">
        <ele>2010</ele>
        <time>2021-01-29T13:00:35Z</time>
      </trkpt>
      <trkpt lat="42.77643" lon="0.15663">
        <ele>2010</ele>
        <time>2021-01-29T13:00:36Z</time>
      </trkpt>
      <trkpt lat="42.77643" lon="0.15664">
        <ele>2010.2</ele>
        <time>2021-01-29T13:00:37Z</time>
      </trkpt>
      <trkpt lat="42.77643" lon="0.15665">
        <ele>2010.2</ele>
        <time>2021-01-29T13:00:38Z</time>
      </trkpt>
      <trkpt lat="42.77643" lon="0.15666">
        <ele>2010.4</ele>
        <time>2021-01-29T13:00:39Z</time>
      </trkpt>
      <trkpt lat="42.77642" lon="0.15667">
        <ele>2010.6</ele>
        <time>2021-01-29T13:00:40Z</time>
      </trkpt>
      <trkpt lat="42.77642" lon="0.15667">
        <ele>2010.6</ele>
        <time>2021-01-29T13:00:41Z</time>
      </trkpt>
      <trkpt lat="42.77641" lon="0.15668">
        <ele>2010.8</ele>
        <time>2021-01-29T13:00:42Z</time>
      </trkpt>
      <trkpt lat="42.77641" lon="0.15669">
        <ele>2010.8</ele>
        <time>2021-01-29T13:00:43Z</time>
      </trkpt>
      <trkpt lat="42.7764" lon="0.1567">
        <ele>2011</ele>
        <time>2021-01-29T13:00:44Z</time>
      </trkpt>
      <trkpt lat="42.7764" lon="0.15671">
        <ele>2011</ele>
        <time>2021-01-29T13:00:45Z</time>
      </trkpt>
      <trkpt lat="42.7764" lon="0.15672">
        <ele>2011.2</ele>
        <time>2021-01-29T13:00:46Z</time>
      </trkpt>
      <trkpt lat="42.7764" lon="0.15673">
        <ele>2011.2</ele>
        <time>2021-01-29T13:00:47Z</time>
      </trkpt>
      <trkpt lat="42.77639" lon="0.15673">
        <ele>2011.6</ele>
        <time>2021-01-29T13:00:48Z</time>
      </trkpt>
      <trkpt lat="42.77639" lon="0.15674">
        <ele>2011.6</ele>
        <time>2021-01-29T13:00:49Z</time>
      </trkpt>
      <trkpt lat="42.77639" lon="0.15675">
        <ele>2011.8</ele>
        <time>2021-01-29T13:00:50Z</time>
      </trkpt>
      <trkpt lat="42.77638" lon="0.15676">
        <ele>2012</ele>
        <time>2021-01-29T13:00:51Z</time>
      </trkpt>
      <trkpt lat="42.77638" lon="0.15676">
        <ele>2011.8</ele>
        <time>2021-01-29T13:00:52Z</time>
      </trkpt>
      <trkpt lat="42.77638" lon="0.15676">
        <ele>2012</ele>
        <time>2021-01-29T13:00:53Z</time>
      </trkpt>
      <trkpt lat="42.77638" lon="0.15676">
        <ele>2012.2</ele>
        <time>2021-01-29T13:00:54Z</time>
      </trkpt>
      <trkpt lat="42.77638" lon="0.15676">
        <ele>2012.4</ele>
        <time>2021-01-29T13:00:55Z</time>
      </trkpt>
      <trkpt lat="42.77638" lon="0.15676">
        <ele>2012.6</ele>
        <time>2021-01-29T13:00:56Z</time>
      </trkpt>
      <trkpt lat="42.77638" lon="0.15676">
        <ele>2012.6</ele>
        <time>2021-01-29T13:00:57Z</time>
      </trkpt>
      <trkpt lat="42.77638" lon="0.15676">
        <ele>2012.6</ele>
        <time>2021-01-29T13:00:58Z</time>
      </trkpt>
      <trkpt lat="42.77636" lon="0.15679">
        <ele>2013</ele>
        <time>2021-01-29T13:00:59Z</time>
      </trkpt>
      <trkpt lat="42.77635" lon="0.15683">
        <ele>2012.8</ele>
        <time>2021-01-29T13:01:00Z</time>
      </trkpt>
      <trkpt lat="42.77634" lon="0.15684">
        <ele>2013.2</ele>
        <time>2021-01-29T13:01:01Z</time>
      </trkpt>
      <trkpt lat="42.77634" lon="0.15685">
        <ele>2013.2</ele>
        <time>2021-01-29T13:01:02Z</time>
      </trkpt>
      <trkpt lat="42.77634" lon="0.15685">
        <ele>2013.2</ele>
        <time>2021-01-29T13:01:03Z</time>
      </trkpt>
      <trkpt lat="42.77634" lon="0.15686">
        <ele>2013.4</ele>
        <time>2021-01-29T13:01:04Z</time>
      </trkpt>
      <trkpt lat="42.77633" lon="0.15687">
        <ele>2013.4</ele>
        <time>2021-01-29T13:01:05Z</time>
      </trkpt>
      <trkpt lat="42.77633" lon="0.15688">
        <ele>2013.4</ele>
        <time>2021-01-29T13:01:06Z</time>
      </trkpt>
      <trkpt lat="42.77633" lon="0.15688">
        <ele>2013.6</ele>
        <time>2021-01-29T13:01:07Z</time>
      </trkpt>
      <trkpt lat="42.77633" lon="0.15688">
        <ele>2013.8</ele>
        <time>2021-01-29T13:01:08Z</time>
      </trkpt>
      <trkpt lat="42.77633" lon="0.15688">
        <ele>2014</ele>
        <time>2021-01-29T13:01:09Z</time>
      </trkpt>
      <trkpt lat="42.77632" lon="0.1569">
        <ele>2014</ele>
        <time>2021-01-29T13:01:10Z</time>
      </trkpt>
      <trkpt lat="42.77631" lon="0.15692">
        <ele>2014</ele>
        <time>2021-01-29T13:01:11Z</time>
      </trkpt>
      <trkpt lat="42.77631" lon="0.15693">
        <ele>2014.4</ele>
        <time>2021-01-29T13:01:12Z</time>
      </trkpt>
      <trkpt lat="42.77631" lon="0.15694">
        <ele>2014.2</ele>
        <time>2021-01-29T13:01:13Z</time>
      </trkpt>
      <trkpt lat="42.77631" lon="0.15695">
        <ele>2014.4</ele>
        <time>2021-01-29T13:01:14Z</time>
      </trkpt>
      <trkpt lat="42.77631" lon="0.15696">
        <ele>2014.6</ele>
        <time>2021-01-29T13:01:15Z</time>
      </trkpt>
      <trkpt lat="42.7763" lon="0.15696">
        <ele>2014.6</ele>
        <time>2021-01-29T13:01:16Z</time>
      </trkpt>
      <trkpt lat="42.7763" lon="0.15697">
        <ele>2015</ele>
        <time>2021-01-29T13:01:17Z</time>
      </trkpt>
      <trkpt lat="42.7763" lon="0.15698">
        <ele>2015</ele>
        <time>2021-01-29T13:01:18Z</time>
      </trkpt>
      <trkpt lat="42.7763" lon="0.15699">
        <ele>2015.2</ele>
        <time>2021-01-29T13:01:19Z</time>
      </trkpt>
      <trkpt lat="42.77629" lon="0.15699">
        <ele>2015.4</ele>
        <time>2021-01-29T13:01:20Z</time>
      </trkpt>
      <trkpt lat="42.77629" lon="0.157">
        <ele>2015.6</ele>
        <time>2021-01-29T13:01:21Z</time>
      </trkpt>
      <trkpt lat="42.77629" lon="0.15701">
        <ele>2015.8</ele>
        <time>2021-01-29T13:01:22Z</time>
      </trkpt>
      <trkpt lat="42.77628" lon="0.15702">
        <ele>2016</ele>
        <time>2021-01-29T13:01:23Z</time>
      </trkpt>
      <trkpt lat="42.77628" lon="0.15702">
        <ele>2016</ele>
        <time>2021-01-29T13:01:24Z</time>
      </trkpt>
      <trkpt lat="42.77628" lon="0.15703">
        <ele>2016.4</ele>
        <time>2021-01-29T13:01:25Z</time>
      </trkpt>
      <trkpt lat="42.77627" lon="0.15704">
        <ele>2016.4</ele>
        <time>2021-01-29T13:01:26Z</time>
      </trkpt>
      <trkpt lat="42.77627" lon="0.15704">
        <ele>2016.6</ele>
        <time>2021-01-29T13:01:27Z</time>
      </trkpt>
      <trkpt lat="42.77627" lon="0.15705">
        <ele>2016.8</ele>
        <time>2021-01-29T13:01:28Z</time>
      </trkpt>
      <trkpt lat="42.77626" lon="0.15706">
        <ele>2017</ele>
        <time>2021-01-29T13:01:29Z</time>
      </trkpt>
      <trkpt lat="42.77626" lon="0.15706">
        <ele>2017.2</ele>
        <time>2021-01-29T13:01:30Z</time>
      </trkpt>
      <trkpt lat="42.77626" lon="0.15707">
        <ele>2017.2</ele>
        <time>2021-01-29T13:01:31Z</time>
      </trkpt>
      <trkpt lat="42.77625" lon="0.15708">
        <ele>2017.4</ele>
        <time>2021-01-29T13:01:32Z</time>
      </trkpt>
      <trkpt lat="42.77625" lon="0.15708">
        <ele>2017.8</ele>
        <time>2021-01-29T13:01:33Z</time>
      </trkpt>
      <trkpt lat="42.77625" lon="0.15709">
        <ele>2017.8</ele>
        <time>2021-01-29T13:01:34Z</time>
      </trkpt>
      <trkpt lat="42.77625" lon="0.1571">
        <ele>2018</ele>
        <time>2021-01-29T13:01:35Z</time>
      </trkpt>
      <trkpt lat="42.77624" lon="0.15711">
        <ele>2018</ele>
        <time>2021-01-29T13:01:36Z</time>
      </trkpt>
      <trkpt lat="42.77624" lon="0.15711">
        <ele>2018.4</ele>
        <time>2021-01-29T13:01:37Z</time>
      </trkpt>
      <trkpt lat="42.77623" lon="0.15712">
        <ele>2018.6</ele>
        <time>2021-01-29T13:01:38Z</time>
      </trkpt>
      <trkpt lat="42.77623" lon="0.15713">
        <ele>2018.4</ele>
        <time>2021-01-29T13:01:39Z</time>
      </trkpt>
      <trkpt lat="42.77622" lon="0.15714">
        <ele>2018.8</ele>
        <time>2021-01-29T13:01:40Z</time>
      </trkpt>
      <trkpt lat="42.77622" lon="0.15714">
        <ele>2018.8</ele>
        <time>2021-01-29T13:01:41Z</time>
      </trkpt>
      <trkpt lat="42.77622" lon="0.15715">
        <ele>2019</ele>
        <time>2021-01-29T13:01:42Z</time>
      </trkpt>
      <trkpt lat="42.77621" lon="0.15716">
        <ele>2019.2</ele>
        <time>2021-01-29T13:01:43Z</time>
      </trkpt>
      <trkpt lat="42.7762" lon="0.15716">
        <ele>2019.4</ele>
        <time>2021-01-29T13:01:44Z</time>
      </trkpt>
      <trkpt lat="42.7762" lon="0.15717">
        <ele>2019.6</ele>
        <time>2021-01-29T13:01:45Z</time>
      </trkpt>
      <trkpt lat="42.7762" lon="0.15718">
        <ele>2020</ele>
        <time>2021-01-29T13:01:46Z</time>
      </trkpt>
      <trkpt lat="42.77619" lon="0.15719">
        <ele>2020</ele>
        <time>2021-01-29T13:01:47Z</time>
      </trkpt>
      <trkpt lat="42.77619" lon="0.15719">
        <ele>2020.4</ele>
        <time>2021-01-29T13:01:48Z</time>
      </trkpt>
      <trkpt lat="42.77618" lon="0.1572">
        <ele>2020.6</ele>
        <time>2021-01-29T13:01:49Z</time>
      </trkpt>
      <trkpt lat="42.77618" lon="0.15721">
        <ele>2020.6</ele>
        <time>2021-01-29T13:01:50Z</time>
      </trkpt>
      <trkpt lat="42.77618" lon="0.15721">
        <ele>2021</ele>
        <time>2021-01-29T13:01:51Z</time>
      </trkpt>
      <trkpt lat="42.77617" lon="0.15722">
        <ele>2021</ele>
        <time>2021-01-29T13:01:52Z</time>
      </trkpt>
      <trkpt lat="42.77617" lon="0.15722">
        <ele>2021.4</ele>
        <time>2021-01-29T13:01:53Z</time>
      </trkpt>
      <trkpt lat="42.77617" lon="0.15722">
        <ele>2021.6</ele>
        <time>2021-01-29T13:01:54Z</time>
      </trkpt>
      <trkpt lat="42.77617" lon="0.15723">
        <ele>2021.6</ele>
        <time>2021-01-29T13:01:55Z</time>
      </trkpt>
      <trkpt lat="42.77616" lon="0.15725">
        <ele>2022</ele>
        <time>2021-01-29T13:01:56Z</time>
      </trkpt>
      <trkpt lat="42.77616" lon="0.15725">
        <ele>2022.2</ele>
        <time>2021-01-29T13:01:57Z</time>
      </trkpt>
      <trkpt lat="42.77615" lon="0.15726">
        <ele>2022.2</ele>
        <time>2021-01-29T13:01:58Z</time>
      </trkpt>
      <trkpt lat="42.77615" lon="0.15727">
        <ele>2022.6</ele>
        <time>2021-01-29T13:01:59Z</time>
      </trkpt>
      <trkpt lat="42.77615" lon="0.15727">
        <ele>2022.6</ele>
        <time>2021-01-29T13:02:00Z</time>
      </trkpt>
      <trkpt lat="42.77615" lon="0.15728">
        <ele>2022.8</ele>
        <time>2021-01-29T13:02:01Z</time>
      </trkpt>
      <trkpt lat="42.77614" lon="0.15729">
        <ele>2023.2</ele>
        <time>2021-01-29T13:02:02Z</time>
      </trkpt>
      <trkpt lat="42.77614" lon="0.15729">
        <ele>2023</ele>
        <time>2021-01-29T13:02:03Z</time>
      </trkpt>
      <trkpt lat="42.77614" lon="0.1573">
        <ele>2023.4</ele>
        <time>2021-01-29T13:02:04Z</time>
      </trkpt>
      <trkpt lat="42.77613" lon="0.15731">
        <ele>2023.4</ele>
        <time>2021-01-29T13:02:05Z</time>
      </trkpt>
      <trkpt lat="42.77613" lon="0.15731">
        <ele>2023.8</ele>
        <time>2021-01-29T13:02:06Z</time>
      </trkpt>
      <trkpt lat="42.77613" lon="0.15732">
        <ele>2024</ele>
        <time>2021-01-29T13:02:07Z</time>
      </trkpt>
      <trkpt lat="42.77613" lon="0.15733">
        <ele>2024.2</ele>
        <time>2021-01-29T13:02:08Z</time>
      </trkpt>
      <trkpt lat="42.77612" lon="0.15733">
        <ele>2024.4</ele>
        <time>2021-01-29T13:02:09Z</time>
      </trkpt>
      <trkpt lat="42.77612" lon="0.15734">
        <ele>2024.6</ele>
        <time>2021-01-29T13:02:10Z</time>
      </trkpt>
      <trkpt lat="42.77611" lon="0.15735">
        <ele>2024.6</ele>
        <time>2021-01-29T13:02:11Z</time>
      </trkpt>
      <trkpt lat="42.77611" lon="0.15735">
        <ele>2025</ele>
        <time>2021-01-29T13:02:12Z</time>
      </trkpt>
      <trkpt lat="42.77611" lon="0.15736">
        <ele>2024.8</ele>
        <time>2021-01-29T13:02:13Z</time>
      </trkpt>
      <trkpt lat="42.7761" lon="0.15737">
        <ele>2025.2</ele>
        <time>2021-01-29T13:02:14Z</time>
      </trkpt>
      <trkpt lat="42.7761" lon="0.15738">
        <ele>2025.4</ele>
        <time>2021-01-29T13:02:15Z</time>
      </trkpt>
      <trkpt lat="42.7761" lon="0.15738">
        <ele>2025.6</ele>
        <time>2021-01-29T13:02:16Z</time>
      </trkpt>
      <trkpt lat="42.7761" lon="0.15739">
        <ele>2025.8</ele>
        <time>2021-01-29T13:02:17Z</time>
      </trkpt>
      <trkpt lat="42.77609" lon="0.1574">
        <ele>2026</ele>
        <time>2021-01-29T13:02:18Z</time>
      </trkpt>
      <trkpt lat="42.77609" lon="0.15741">
        <ele>2026.2</ele>
        <time>2021-01-29T13:02:19Z</time>
      </trkpt>
      <trkpt lat="42.77608" lon="0.15741">
        <ele>2026.4</ele>
        <time>2021-01-29T13:02:20Z</time>
      </trkpt>
      <trkpt lat="42.77608" lon="0.15742">
        <ele>2026.6</ele>
        <time>2021-01-29T13:02:21Z</time>
      </trkpt>
      <trkpt lat="42.77608" lon="0.15743">
        <ele>2026.8</ele>
        <time>2021-01-29T13:02:22Z</time>
      </trkpt>
      <trkpt lat="42.77607" lon="0.15743">
        <ele>2027</ele>
        <time>2021-01-29T13:02:23Z</time>
      </trkpt>
      <trkpt lat="42.77607" lon="0.15744">
        <ele>2027</ele>
        <time>2021-01-29T13:02:24Z</time>
      </trkpt>
      <trkpt lat="42.77606" lon="0.15745">
        <ele>2027.4</ele>
        <time>2021-01-29T13:02:25Z</time>
      </trkpt>
      <trkpt lat="42.77606" lon="0.15745">
        <ele>2027.4</ele>
        <time>2021-01-29T13:02:26Z</time>
      </trkpt>
      <trkpt lat="42.77606" lon="0.15746">
        <ele>2027.6</ele>
        <time>2021-01-29T13:02:27Z</time>
      </trkpt>
      <trkpt lat="42.77605" lon="0.15747">
        <ele>2027.8</ele>
        <time>2021-01-29T13:02:28Z</time>
      </trkpt>
      <trkpt lat="42.77605" lon="0.15748">
        <ele>2028</ele>
        <time>2021-01-29T13:02:29Z</time>
      </trkpt>
      <trkpt lat="42.77605" lon="0.15749">
        <ele>2028.2</ele>
        <time>2021-01-29T13:02:30Z</time>
      </trkpt>
      <trkpt lat="42.77605" lon="0.15749">
        <ele>2028.4</ele>
        <time>2021-01-29T13:02:31Z</time>
      </trkpt>
      <trkpt lat="42.77604" lon="0.1575">
        <ele>2028.4</ele>
        <time>2021-01-29T13:02:32Z</time>
      </trkpt>
      <trkpt lat="42.77604" lon="0.15751">
        <ele>2028.8</ele>
        <time>2021-01-29T13:02:33Z</time>
      </trkpt>
      <trkpt lat="42.77603" lon="0.15751">
        <ele>2029</ele>
        <time>2021-01-29T13:02:34Z</time>
      </trkpt>
      <trkpt lat="42.77603" lon="0.15752">
        <ele>2029.2</ele>
        <time>2021-01-29T13:02:35Z</time>
      </trkpt>
      <trkpt lat="42.77603" lon="0.15753">
        <ele>2029.4</ele>
        <time>2021-01-29T13:02:36Z</time>
      </trkpt>
      <trkpt lat="42.77603" lon="0.15754">
        <ele>2029.4</ele>
        <time>2021-01-29T13:02:37Z</time>
      </trkpt>
      <trkpt lat="42.77602" lon="0.15754">
        <ele>2029.8</ele>
        <time>2021-01-29T13:02:38Z</time>
      </trkpt>
      <trkpt lat="42.77602" lon="0.15755">
        <ele>2029.8</ele>
        <time>2021-01-29T13:02:39Z</time>
      </trkpt>
      <trkpt lat="42.77601" lon="0.15756">
        <ele>2030.2</ele>
        <time>2021-01-29T13:02:40Z</time>
      </trkpt>
      <trkpt lat="42.77601" lon="0.15757">
        <ele>2030.4</ele>
        <time>2021-01-29T13:02:41Z</time>
      </trkpt>
      <trkpt lat="42.77601" lon="0.15758">
        <ele>2030.4</ele>
        <time>2021-01-29T13:02:42Z</time>
      </trkpt>
      <trkpt lat="42.77601" lon="0.15758">
        <ele>2030.6</ele>
        <time>2021-01-29T13:02:43Z</time>
      </trkpt>
      <trkpt lat="42.776" lon="0.15759">
        <ele>2030.8</ele>
        <time>2021-01-29T13:02:44Z</time>
      </trkpt>
      <trkpt lat="42.776" lon="0.1576">
        <ele>2031</ele>
        <time>2021-01-29T13:02:45Z</time>
      </trkpt>
      <trkpt lat="42.776" lon="0.15761">
        <ele>2031.2</ele>
        <time>2021-01-29T13:02:46Z</time>
      </trkpt>
      <trkpt lat="42.776" lon="0.15762">
        <ele>2031.4</ele>
        <time>2021-01-29T13:02:47Z</time>
      </trkpt>
      <trkpt lat="42.77599" lon="0.15763">
        <ele>2031.6</ele>
        <time>2021-01-29T13:02:48Z</time>
      </trkpt>
      <trkpt lat="42.77599" lon="0.15764">
        <ele>2031.8</ele>
        <time>2021-01-29T13:02:49Z</time>
      </trkpt>
      <trkpt lat="42.77599" lon="0.15765">
        <ele>2031.8</ele>
        <time>2021-01-29T13:02:50Z</time>
      </trkpt>
      <trkpt lat="42.77598" lon="0.15766">
        <ele>2032.4</ele>
        <time>2021-01-29T13:02:51Z</time>
      </trkpt>
      <trkpt lat="42.77598" lon="0.15767">
        <ele>2032.4</ele>
        <time>2021-01-29T13:02:52Z</time>
      </trkpt>
      <trkpt lat="42.77598" lon="0.15767">
        <ele>2032.8</ele>
        <time>2021-01-29T13:02:53Z</time>
      </trkpt>
      <trkpt lat="42.77597" lon="0.15768">
        <ele>2033</ele>
        <time>2021-01-29T13:02:54Z</time>
      </trkpt>
      <trkpt lat="42.77597" lon="0.15769">
        <ele>2033.4</ele>
        <time>2021-01-29T13:02:55Z</time>
      </trkpt>
      <trkpt lat="42.77597" lon="0.1577">
        <ele>2033.6</ele>
        <time>2021-01-29T13:02:56Z</time>
      </trkpt>
      <trkpt lat="42.77597" lon="0.1577">
        <ele>2033.8</ele>
        <time>2021-01-29T13:02:57Z</time>
      </trkpt>
      <trkpt lat="42.77597" lon="0.15771">
        <ele>2034</ele>
        <time>2021-01-29T13:02:58Z</time>
      </trkpt>
      <trkpt lat="42.77596" lon="0.15772">
        <ele>2034.4</ele>
        <time>2021-01-29T13:02:59Z</time>
      </trkpt>
      <trkpt lat="42.77596" lon="0.15773">
        <ele>2034.6</ele>
        <time>2021-01-29T13:03:00Z</time>
      </trkpt>
      <trkpt lat="42.77596" lon="0.15774">
        <ele>2035</ele>
        <time>2021-01-29T13:03:01Z</time>
      </trkpt>
      <trkpt lat="42.77596" lon="0.15774">
        <ele>2035</ele>
        <time>2021-01-29T13:03:02Z</time>
      </trkpt>
      <trkpt lat="42.77595" lon="0.15775">
        <ele>2035.4</ele>
        <time>2021-01-29T13:03:03Z</time>
      </trkpt>
      <trkpt lat="42.77595" lon="0.15776">
        <ele>2035.4</ele>
        <time>2021-01-29T13:03:04Z</time>
      </trkpt>
      <trkpt lat="42.77595" lon="0.15777">
        <ele>2035.6</ele>
        <time>2021-01-29T13:03:05Z</time>
      </trkpt>
      <trkpt lat="42.77594" lon="0.15777">
        <ele>2035.8</ele>
        <time>2021-01-29T13:03:06Z</time>
      </trkpt>
      <trkpt lat="42.77594" lon="0.15778">
        <ele>2036</ele>
        <time>2021-01-29T13:03:07Z</time>
      </trkpt>
      <trkpt lat="42.77594" lon="0.15779">
        <ele>2036.2</ele>
        <time>2021-01-29T13:03:08Z</time>
      </trkpt>
      <trkpt lat="42.77593" lon="0.1578">
        <ele>2036.4</ele>
        <time>2021-01-29T13:03:09Z</time>
      </trkpt>
      <trkpt lat="42.77593" lon="0.15781">
        <ele>2036.6</ele>
        <time>2021-01-29T13:03:10Z</time>
      </trkpt>
      <trkpt lat="42.77593" lon="0.15781">
        <ele>2036.8</ele>
        <time>2021-01-29T13:03:11Z</time>
      </trkpt>
      <trkpt lat="42.77593" lon="0.15782">
        <ele>2037</ele>
        <time>2021-01-29T13:03:12Z</time>
      </trkpt>
      <trkpt lat="42.77592" lon="0.15783">
        <ele>2037</ele>
        <time>2021-01-29T13:03:13Z</time>
      </trkpt>
      <trkpt lat="42.77592" lon="0.15784">
        <ele>2037.4</ele>
        <time>2021-01-29T13:03:14Z</time>
      </trkpt>
      <trkpt lat="42.77592" lon="0.15784">
        <ele>2037.4</ele>
        <time>2021-01-29T13:03:15Z</time>
      </trkpt>
      <trkpt lat="42.77591" lon="0.15785">
        <ele>2037.8</ele>
        <time>2021-01-29T13:03:16Z</time>
      </trkpt>
      <trkpt lat="42.77591" lon="0.15786">
        <ele>2038</ele>
        <time>2021-01-29T13:03:17Z</time>
      </trkpt>
      <trkpt lat="42.77591" lon="0.15787">
        <ele>2038</ele>
        <time>2021-01-29T13:03:18Z</time>
      </trkpt>
      <trkpt lat="42.7759" lon="0.15788">
        <ele>2038.4</ele>
        <time>2021-01-29T13:03:19Z</time>
      </trkpt>
      <trkpt lat="42.7759" lon="0.15788">
        <ele>2038.6</ele>
        <time>2021-01-29T13:03:20Z</time>
      </trkpt>
      <trkpt lat="42.7759" lon="0.15789">
        <ele>2038.6</ele>
        <time>2021-01-29T13:03:21Z</time>
      </trkpt>
      <trkpt lat="42.77589" lon="0.1579">
        <ele>2039</ele>
        <time>2021-01-29T13:03:22Z</time>
      </trkpt>
      <trkpt lat="42.77589" lon="0.15791">
        <ele>2039.2</ele>
        <time>2021-01-29T13:03:23Z</time>
      </trkpt>
      <trkpt lat="42.77589" lon="0.15791">
        <ele>2039.2</ele>
        <time>2021-01-29T13:03:24Z</time>
      </trkpt>
      <trkpt lat="42.77589" lon="0.15792">
        <ele>2039.6</ele>
        <time>2021-01-29T13:03:25Z</time>
      </trkpt>
      <trkpt lat="42.77589" lon="0.15793">
        <ele>2039.6</ele>
        <time>2021-01-29T13:03:26Z</time>
      </trkpt>
      <trkpt lat="42.77588" lon="0.15794">
        <ele>2039.8</ele>
        <time>2021-01-29T13:03:27Z</time>
      </trkpt>
      <trkpt lat="42.77588" lon="0.15794">
        <ele>2040</ele>
        <time>2021-01-29T13:03:28Z</time>
      </trkpt>
      <trkpt lat="42.77587" lon="0.15795">
        <ele>2040</ele>
        <time>2021-01-29T13:03:29Z</time>
      </trkpt>
      <trkpt lat="42.77587" lon="0.15796">
        <ele>2040.4</ele>
        <time>2021-01-29T13:03:30Z</time>
      </trkpt>
      <trkpt lat="42.77587" lon="0.15797">
        <ele>2040.4</ele>
        <time>2021-01-29T13:03:31Z</time>
      </trkpt>
      <trkpt lat="42.77586" lon="0.15797">
        <ele>2040.6</ele>
        <time>2021-01-29T13:03:32Z</time>
      </trkpt>
      <trkpt lat="42.77586" lon="0.15798">
        <ele>2041</ele>
        <time>2021-01-29T13:03:33Z</time>
      </trkpt>
      <trkpt lat="42.77585" lon="0.15799">
        <ele>2041</ele>
        <time>2021-01-29T13:03:34Z</time>
      </trkpt>
      <trkpt lat="42.77585" lon="0.15799">
        <ele>2041</ele>
        <time>2021-01-29T13:03:35Z</time>
      </trkpt>
      <trkpt lat="42.77585" lon="0.158">
        <ele>2041.4</ele>
        <time>2021-01-29T13:03:36Z</time>
      </trkpt>
      <trkpt lat="42.77584" lon="0.15801">
        <ele>2041.4</ele>
        <time>2021-01-29T13:03:37Z</time>
      </trkpt>
      <trkpt lat="42.77584" lon="0.15802">
        <ele>2041.8</ele>
        <time>2021-01-29T13:03:38Z</time>
      </trkpt>
      <trkpt lat="42.77584" lon="0.15803">
        <ele>2042</ele>
        <time>2021-01-29T13:03:39Z</time>
      </trkpt>
      <trkpt lat="42.77584" lon="0.15804">
        <ele>2042</ele>
        <time>2021-01-29T13:03:40Z</time>
      </trkpt>
      <trkpt lat="42.77583" lon="0.15804">
        <ele>2042.4</ele>
        <time>2021-01-29T13:03:41Z</time>
      </trkpt>
      <trkpt lat="42.77583" lon="0.15805">
        <ele>2042.6</ele>
        <time>2021-01-29T13:03:42Z</time>
      </trkpt>
      <trkpt lat="42.77583" lon="0.15806">
        <ele>2042.8</ele>
        <time>2021-01-29T13:03:43Z</time>
      </trkpt>
      <trkpt lat="42.77582" lon="0.15807">
        <ele>2043</ele>
        <time>2021-01-29T13:03:44Z</time>
      </trkpt>
      <trkpt lat="42.77582" lon="0.15808">
        <ele>2043.2</ele>
        <time>2021-01-29T13:03:45Z</time>
      </trkpt>
      <trkpt lat="42.77582" lon="0.15808">
        <ele>2043.2</ele>
        <time>2021-01-29T13:03:46Z</time>
      </trkpt>
      <trkpt lat="42.77581" lon="0.15809">
        <ele>2043.6</ele>
        <time>2021-01-29T13:03:47Z</time>
      </trkpt>
      <trkpt lat="42.77581" lon="0.1581">
        <ele>2043.6</ele>
        <time>2021-01-29T13:03:48Z</time>
      </trkpt>
      <trkpt lat="42.77581" lon="0.15811">
        <ele>2043.8</ele>
        <time>2021-01-29T13:03:49Z</time>
      </trkpt>
      <trkpt lat="42.7758" lon="0.15812">
        <ele>2044.2</ele>
        <time>2021-01-29T13:03:50Z</time>
      </trkpt>
      <trkpt lat="42.7758" lon="0.15813">
        <ele>2044.2</ele>
        <time>2021-01-29T13:03:51Z</time>
      </trkpt>
      <trkpt lat="42.7758" lon="0.15814">
        <ele>2044.4</ele>
        <time>2021-01-29T13:03:52Z</time>
      </trkpt>
      <trkpt lat="42.77579" lon="0.15815">
        <ele>2044.8</ele>
        <time>2021-01-29T13:03:53Z</time>
      </trkpt>
      <trkpt lat="42.77579" lon="0.15815">
        <ele>2044.6</ele>
        <time>2021-01-29T13:03:54Z</time>
      </trkpt>
      <trkpt lat="42.77579" lon="0.15816">
        <ele>2044.8</ele>
        <time>2021-01-29T13:03:55Z</time>
      </trkpt>
      <trkpt lat="42.77579" lon="0.15817">
        <ele>2045</ele>
        <time>2021-01-29T13:03:56Z</time>
      </trkpt>
      <trkpt lat="42.77578" lon="0.15818">
        <ele>2045.2</ele>
        <time>2021-01-29T13:03:57Z</time>
      </trkpt>
      <trkpt lat="42.77578" lon="0.15818">
        <ele>2045.4</ele>
        <time>2021-01-29T13:03:58Z</time>
      </trkpt>
      <trkpt lat="42.77578" lon="0.15819">
        <ele>2045.6</ele>
        <time>2021-01-29T13:03:59Z</time>
      </trkpt>
      <trkpt lat="42.77577" lon="0.1582">
        <ele>2045.6</ele>
        <time>2021-01-29T13:04:00Z</time>
      </trkpt>
      <trkpt lat="42.77577" lon="0.15821">
        <ele>2046</ele>
        <time>2021-01-29T13:04:01Z</time>
      </trkpt>
      <trkpt lat="42.77577" lon="0.15822">
        <ele>2046.2</ele>
        <time>2021-01-29T13:04:02Z</time>
      </trkpt>
      <trkpt lat="42.77576" lon="0.15823">
        <ele>2046.2</ele>
        <time>2021-01-29T13:04:03Z</time>
      </trkpt>
      <trkpt lat="42.77576" lon="0.15823">
        <ele>2046.6</ele>
        <time>2021-01-29T13:04:04Z</time>
      </trkpt>
      <trkpt lat="42.77576" lon="0.15824">
        <ele>2046.6</ele>
        <time>2021-01-29T13:04:05Z</time>
      </trkpt>
      <trkpt lat="42.77575" lon="0.15825">
        <ele>2046.8</ele>
        <time>2021-01-29T13:04:06Z</time>
      </trkpt>
      <trkpt lat="42.77575" lon="0.15826">
        <ele>2047</ele>
        <time>2021-01-29T13:04:07Z</time>
      </trkpt>
      <trkpt lat="42.77574" lon="0.15827">
        <ele>2047</ele>
        <time>2021-01-29T13:04:08Z</time>
      </trkpt>
      <trkpt lat="42.77574" lon="0.15827">
        <ele>2047.2</ele>
        <time>2021-01-29T13:04:09Z</time>
      </trkpt>
      <trkpt lat="42.77573" lon="0.15828">
        <ele>2047.6</ele>
        <time>2021-01-29T13:04:10Z</time>
      </trkpt>
      <trkpt lat="42.77573" lon="0.15829">
        <ele>2047.8</ele>
        <time>2021-01-29T13:04:11Z</time>
      </trkpt>
      <trkpt lat="42.77573" lon="0.1583">
        <ele>2048</ele>
        <time>2021-01-29T13:04:12Z</time>
      </trkpt>
      <trkpt lat="42.77573" lon="0.15831">
        <ele>2048.2</ele>
        <time>2021-01-29T13:04:13Z</time>
      </trkpt>
      <trkpt lat="42.77572" lon="0.15832">
        <ele>2048</ele>
        <time>2021-01-29T13:04:14Z</time>
      </trkpt>
      <trkpt lat="42.77572" lon="0.15833">
        <ele>2048.6</ele>
        <time>2021-01-29T13:04:15Z</time>
      </trkpt>
      <trkpt lat="42.77572" lon="0.15833">
        <ele>2048.6</ele>
        <time>2021-01-29T13:04:16Z</time>
      </trkpt>
      <trkpt lat="42.77572" lon="0.15834">
        <ele>2049</ele>
        <time>2021-01-29T13:04:17Z</time>
      </trkpt>
      <trkpt lat="42.77572" lon="0.15835">
        <ele>2049.2</ele>
        <time>2021-01-29T13:04:18Z</time>
      </trkpt>
      <trkpt lat="42.77572" lon="0.15836">
        <ele>2049.2</ele>
        <time>2021-01-29T13:04:19Z</time>
      </trkpt>
      <trkpt lat="42.77571" lon="0.15837">
        <ele>2049.4</ele>
        <time>2021-01-29T13:04:20Z</time>
      </trkpt>
      <trkpt lat="42.77571" lon="0.15837">
        <ele>2049.8</ele>
        <time>2021-01-29T13:04:21Z</time>
      </trkpt>
      <trkpt lat="42.77571" lon="0.15838">
        <ele>2050</ele>
        <time>2021-01-29T13:04:22Z</time>
      </trkpt>
      <trkpt lat="42.77572" lon="0.15839">
        <ele>2050.2</ele>
        <time>2021-01-29T13:04:23Z</time>
      </trkpt>
      <trkpt lat="42.77572" lon="0.1584">
        <ele>2050.4</ele>
        <time>2021-01-29T13:04:24Z</time>
      </trkpt>
      <trkpt lat="42.77571" lon="0.15841">
        <ele>2050.6</ele>
        <time>2021-01-29T13:04:25Z</time>
      </trkpt>
      <trkpt lat="42.77571" lon="0.15842">
        <ele>2050.8</ele>
        <time>2021-01-29T13:04:26Z</time>
      </trkpt>
      <trkpt lat="42.77571" lon="0.15842">
        <ele>2051</ele>
        <time>2021-01-29T13:04:27Z</time>
      </trkpt>
      <trkpt lat="42.77571" lon="0.15843">
        <ele>2051</ele>
        <time>2021-01-29T13:04:28Z</time>
      </trkpt>
      <trkpt lat="42.7757" lon="0.15844">
        <ele>2051.2</ele>
        <time>2021-01-29T13:04:29Z</time>
      </trkpt>
      <trkpt lat="42.7757" lon="0.15845">
        <ele>2051.4</ele>
        <time>2021-01-29T13:04:30Z</time>
      </trkpt>
      <trkpt lat="42.7757" lon="0.15846">
        <ele>2051.6</ele>
        <time>2021-01-29T13:04:31Z</time>
      </trkpt>
      <trkpt lat="42.7757" lon="0.15847">
        <ele>2051.8</ele>
        <time>2021-01-29T13:04:32Z</time>
      </trkpt>
      <trkpt lat="42.7757" lon="0.15848">
        <ele>2052</ele>
        <time>2021-01-29T13:04:33Z</time>
      </trkpt>
      <trkpt lat="42.7757" lon="0.15849">
        <ele>2052.2</ele>
        <time>2021-01-29T13:04:34Z</time>
      </trkpt>
      <trkpt lat="42.77569" lon="0.15849">
        <ele>2052.4</ele>
        <time>2021-01-29T13:04:35Z</time>
      </trkpt>
      <trkpt lat="42.77569" lon="0.1585">
        <ele>2052.8</ele>
        <time>2021-01-29T13:04:36Z</time>
      </trkpt>
      <trkpt lat="42.77569" lon="0.15851">
        <ele>2052.8</ele>
        <time>2021-01-29T13:04:37Z</time>
      </trkpt>
      <trkpt lat="42.77569" lon="0.15852">
        <ele>2053.2</ele>
        <time>2021-01-29T13:04:38Z</time>
      </trkpt>
      <trkpt lat="42.77569" lon="0.15853">
        <ele>2053.4</ele>
        <time>2021-01-29T13:04:39Z</time>
      </trkpt>
      <trkpt lat="42.77569" lon="0.15854">
        <ele>2053.2</ele>
        <time>2021-01-29T13:04:40Z</time>
      </trkpt>
      <trkpt lat="42.77569" lon="0.15855">
        <ele>2053.6</ele>
        <time>2021-01-29T13:04:41Z</time>
      </trkpt>
      <trkpt lat="42.77569" lon="0.15856">
        <ele>2053.8</ele>
        <time>2021-01-29T13:04:42Z</time>
      </trkpt>
      <trkpt lat="42.77568" lon="0.15857">
        <ele>2054</ele>
        <time>2021-01-29T13:04:43Z</time>
      </trkpt>
      <trkpt lat="42.77568" lon="0.15857">
        <ele>2054.2</ele>
        <time>2021-01-29T13:04:44Z</time>
      </trkpt>
      <trkpt lat="42.77568" lon="0.15858">
        <ele>2054.4</ele>
        <time>2021-01-29T13:04:45Z</time>
      </trkpt>
      <trkpt lat="42.77568" lon="0.15859">
        <ele>2054.6</ele>
        <time>2021-01-29T13:04:46Z</time>
      </trkpt>
      <trkpt lat="42.77568" lon="0.1586">
        <ele>2054.8</ele>
        <time>2021-01-29T13:04:47Z</time>
      </trkpt>
      <trkpt lat="42.77568" lon="0.15861">
        <ele>2055</ele>
        <time>2021-01-29T13:04:48Z</time>
      </trkpt>
      <trkpt lat="42.77568" lon="0.15862">
        <ele>2055</ele>
        <time>2021-01-29T13:04:49Z</time>
      </trkpt>
      <trkpt lat="42.77568" lon="0.15863">
        <ele>2055.4</ele>
        <time>2021-01-29T13:04:50Z</time>
      </trkpt>
      <trkpt lat="42.77568" lon="0.15864">
        <ele>2055.4</ele>
        <time>2021-01-29T13:04:51Z</time>
      </trkpt>
      <trkpt lat="42.77568" lon="0.15865">
        <ele>2055.6</ele>
        <time>2021-01-29T13:04:52Z</time>
      </trkpt>
      <trkpt lat="42.77567" lon="0.15866">
        <ele>2055.8</ele>
        <time>2021-01-29T13:04:53Z</time>
      </trkpt>
      <trkpt lat="42.77567" lon="0.15866">
        <ele>2056</ele>
        <time>2021-01-29T13:04:54Z</time>
      </trkpt>
      <trkpt lat="42.77567" lon="0.15867">
        <ele>2056.2</ele>
        <time>2021-01-29T13:04:55Z</time>
      </trkpt>
      <trkpt lat="42.77567" lon="0.15868">
        <ele>2056.4</ele>
        <time>2021-01-29T13:04:56Z</time>
      </trkpt>
      <trkpt lat="42.77567" lon="0.15869">
        <ele>2056.6</ele>
        <time>2021-01-29T13:04:57Z</time>
      </trkpt>
      <trkpt lat="42.77567" lon="0.1587">
        <ele>2056.6</ele>
        <time>2021-01-29T13:04:58Z</time>
      </trkpt>
      <trkpt lat="42.77566" lon="0.15871">
        <ele>2057</ele>
        <time>2021-01-29T13:04:59Z</time>
      </trkpt>
      <trkpt lat="42.77566" lon="0.15872">
        <ele>2057</ele>
        <time>2021-01-29T13:05:00Z</time>
      </trkpt>
      <trkpt lat="42.77566" lon="0.15873">
        <ele>2057</ele>
        <time>2021-01-29T13:05:01Z</time>
      </trkpt>
      <trkpt lat="42.77566" lon="0.15873">
        <ele>2057.4</ele>
        <time>2021-01-29T13:05:02Z</time>
      </trkpt>
      <trkpt lat="42.77566" lon="0.15874">
        <ele>2057.4</ele>
        <time>2021-01-29T13:05:03Z</time>
      </trkpt>
      <trkpt lat="42.77566" lon="0.15875">
        <ele>2057.6</ele>
        <time>2021-01-29T13:05:04Z</time>
      </trkpt>
      <trkpt lat="42.77566" lon="0.15876">
        <ele>2057.8</ele>
        <time>2021-01-29T13:05:05Z</time>
      </trkpt>
      <trkpt lat="42.77565" lon="0.15877">
        <ele>2058</ele>
        <time>2021-01-29T13:05:06Z</time>
      </trkpt>
      <trkpt lat="42.77565" lon="0.15878">
        <ele>2058</ele>
        <time>2021-01-29T13:05:07Z</time>
      </trkpt>
      <trkpt lat="42.77565" lon="0.15879">
        <ele>2058.2</ele>
        <time>2021-01-29T13:05:08Z</time>
      </trkpt>
      <trkpt lat="42.77565" lon="0.1588">
        <ele>2058.4</ele>
        <time>2021-01-29T13:05:09Z</time>
      </trkpt>
      <trkpt lat="42.77565" lon="0.15881">
        <ele>2058.6</ele>
        <time>2021-01-29T13:05:10Z</time>
      </trkpt>
      <trkpt lat="42.77564" lon="0.15882">
        <ele>2058.8</ele>
        <time>2021-01-29T13:05:11Z</time>
      </trkpt>
      <trkpt lat="42.77564" lon="0.15883">
        <ele>2059</ele>
        <time>2021-01-29T13:05:12Z</time>
      </trkpt>
      <trkpt lat="42.77564" lon="0.15884">
        <ele>2059</ele>
        <time>2021-01-29T13:05:13Z</time>
      </trkpt>
      <trkpt lat="42.77563" lon="0.15885">
        <ele>2059</ele>
        <time>2021-01-29T13:05:14Z</time>
      </trkpt>
      <trkpt lat="42.77563" lon="0.15886">
        <ele>2059.4</ele>
        <time>2021-01-29T13:05:15Z</time>
      </trkpt>
      <trkpt lat="42.77563" lon="0.15887">
        <ele>2059.4</ele>
        <time>2021-01-29T13:05:16Z</time>
      </trkpt>
      <trkpt lat="42.77562" lon="0.15888">
        <ele>2059.4</ele>
        <time>2021-01-29T13:05:17Z</time>
      </trkpt>
      <trkpt lat="42.77562" lon="0.15889">
        <ele>2059.6</ele>
        <time>2021-01-29T13:05:18Z</time>
      </trkpt>
      <trkpt lat="42.77562" lon="0.1589">
        <ele>2059.8</ele>
        <time>2021-01-29T13:05:19Z</time>
      </trkpt>
      <trkpt lat="42.77562" lon="0.15891">
        <ele>2059.8</ele>
        <time>2021-01-29T13:05:20Z</time>
      </trkpt>
      <trkpt lat="42.77561" lon="0.15892">
        <ele>2060.2</ele>
        <time>2021-01-29T13:05:21Z</time>
      </trkpt>
      <trkpt lat="42.77561" lon="0.15893">
        <ele>2060.2</ele>
        <time>2021-01-29T13:05:22Z</time>
      </trkpt>
      <trkpt lat="42.77561" lon="0.15893">
        <ele>2060.4</ele>
        <time>2021-01-29T13:05:23Z</time>
      </trkpt>
      <trkpt lat="42.77561" lon="0.15894">
        <ele>2060.6</ele>
        <time>2021-01-29T13:05:24Z</time>
      </trkpt>
      <trkpt lat="42.7756" lon="0.15895">
        <ele>2060.8</ele>
        <time>2021-01-29T13:05:25Z</time>
      </trkpt>
      <trkpt lat="42.7756" lon="0.15896">
        <ele>2060.8</ele>
        <time>2021-01-29T13:05:26Z</time>
      </trkpt>
      <trkpt lat="42.77559" lon="0.15897">
        <ele>2061</ele>
        <time>2021-01-29T13:05:27Z</time>
      </trkpt>
      <trkpt lat="42.77558" lon="0.15898">
        <ele>2061.2</ele>
        <time>2021-01-29T13:05:28Z</time>
      </trkpt>
      <trkpt lat="42.77558" lon="0.15898">
        <ele>2061</ele>
        <time>2021-01-29T13:05:29Z</time>
      </trkpt>
      <trkpt lat="42.77557" lon="0.15899">
        <ele>2060.8</ele>
        <time>2021-01-29T13:05:30Z</time>
      </trkpt>
      <trkpt lat="42.77556" lon="0.159">
        <ele>2061</ele>
        <time>2021-01-29T13:05:31Z</time>
      </trkpt>
      <trkpt lat="42.77556" lon="0.159">
        <ele>2061</ele>
        <time>2021-01-29T13:05:32Z</time>
      </trkpt>
      <trkpt lat="42.77555" lon="0.15901">
        <ele>2061</ele>
        <time>2021-01-29T13:05:33Z</time>
      </trkpt>
      <trkpt lat="42.77555" lon="0.15902">
        <ele>2061.2</ele>
        <time>2021-01-29T13:05:34Z</time>
      </trkpt>
      <trkpt lat="42.77554" lon="0.15902">
        <ele>2061.2</ele>
        <time>2021-01-29T13:05:35Z</time>
      </trkpt>
      <trkpt lat="42.77554" lon="0.15903">
        <ele>2061.2</ele>
        <time>2021-01-29T13:05:36Z</time>
      </trkpt>
      <trkpt lat="42.77553" lon="0.15904">
        <ele>2061.4</ele>
        <time>2021-01-29T13:05:37Z</time>
      </trkpt>
      <trkpt lat="42.77553" lon="0.15904">
        <ele>2061.8</ele>
        <time>2021-01-29T13:05:38Z</time>
      </trkpt>
      <trkpt lat="42.77552" lon="0.15905">
        <ele>2061.6</ele>
        <time>2021-01-29T13:05:39Z</time>
      </trkpt>
      <trkpt lat="42.77551" lon="0.15905">
        <ele>2062</ele>
        <time>2021-01-29T13:05:40Z</time>
      </trkpt>
      <trkpt lat="42.77551" lon="0.15906">
        <ele>2062.2</ele>
        <time>2021-01-29T13:05:41Z</time>
      </trkpt>
      <trkpt lat="42.7755" lon="0.15907">
        <ele>2062.2</ele>
        <time>2021-01-29T13:05:42Z</time>
      </trkpt>
      <trkpt lat="42.7755" lon="0.15908">
        <ele>2062.4</ele>
        <time>2021-01-29T13:05:43Z</time>
      </trkpt>
      <trkpt lat="42.77549" lon="0.15908">
        <ele>2062.6</ele>
        <time>2021-01-29T13:05:44Z</time>
      </trkpt>
      <trkpt lat="42.77549" lon="0.15909">
        <ele>2062.8</ele>
        <time>2021-01-29T13:05:45Z</time>
      </trkpt>
      <trkpt lat="42.77548" lon="0.15909">
        <ele>2062.8</ele>
        <time>2021-01-29T13:05:46Z</time>
      </trkpt>
      <trkpt lat="42.77547" lon="0.1591">
        <ele>2063</ele>
        <time>2021-01-29T13:05:47Z</time>
      </trkpt>
      <trkpt lat="42.77547" lon="0.15911">
        <ele>2063.2</ele>
        <time>2021-01-29T13:05:48Z</time>
      </trkpt>
      <trkpt lat="42.77546" lon="0.15911">
        <ele>2063.2</ele>
        <time>2021-01-29T13:05:49Z</time>
      </trkpt>
      <trkpt lat="42.77546" lon="0.15912">
        <ele>2063.4</ele>
        <time>2021-01-29T13:05:50Z</time>
      </trkpt>
      <trkpt lat="42.77545" lon="0.15912">
        <ele>2063.6</ele>
        <time>2021-01-29T13:05:51Z</time>
      </trkpt>
      <trkpt lat="42.77544" lon="0.15913">
        <ele>2063.6</ele>
        <time>2021-01-29T13:05:52Z</time>
      </trkpt>
      <trkpt lat="42.77544" lon="0.15913">
        <ele>2064</ele>
        <time>2021-01-29T13:05:53Z</time>
      </trkpt>
      <trkpt lat="42.77543" lon="0.15913">
        <ele>2064.2</ele>
        <time>2021-01-29T13:05:54Z</time>
      </trkpt>
      <trkpt lat="42.77542" lon="0.15913">
        <ele>2064.4</ele>
        <time>2021-01-29T13:05:55Z</time>
      </trkpt>
      <trkpt lat="42.77542" lon="0.15913">
        <ele>2064.6</ele>
        <time>2021-01-29T13:05:56Z</time>
      </trkpt>
      <trkpt lat="42.77541" lon="0.15913">
        <ele>2064.8</ele>
        <time>2021-01-29T13:05:57Z</time>
      </trkpt>
      <trkpt lat="42.7754" lon="0.15913">
        <ele>2065</ele>
        <time>2021-01-29T13:05:58Z</time>
      </trkpt>
      <trkpt lat="42.7754" lon="0.15913">
        <ele>2065.2</ele>
        <time>2021-01-29T13:05:59Z</time>
      </trkpt>
      <trkpt lat="42.77539" lon="0.15913">
        <ele>2065.4</ele>
        <time>2021-01-29T13:06:00Z</time>
      </trkpt>
      <trkpt lat="42.77538" lon="0.15912">
        <ele>2065.6</ele>
        <time>2021-01-29T13:06:01Z</time>
      </trkpt>
      <trkpt lat="42.77538" lon="0.15912">
        <ele>2065.6</ele>
        <time>2021-01-29T13:06:02Z</time>
      </trkpt>
      <trkpt lat="42.77537" lon="0.15911">
        <ele>2066</ele>
        <time>2021-01-29T13:06:03Z</time>
      </trkpt>
      <trkpt lat="42.77536" lon="0.15911">
        <ele>2066</ele>
        <time>2021-01-29T13:06:04Z</time>
      </trkpt>
      <trkpt lat="42.77536" lon="0.15911">
        <ele>2066.2</ele>
        <time>2021-01-29T13:06:05Z</time>
      </trkpt>
      <trkpt lat="42.77535" lon="0.1591">
        <ele>2066.4</ele>
        <time>2021-01-29T13:06:06Z</time>
      </trkpt>
      <trkpt lat="42.77534" lon="0.1591">
        <ele>2066.4</ele>
        <time>2021-01-29T13:06:07Z</time>
      </trkpt>
      <trkpt lat="42.77534" lon="0.15909">
        <ele>2066.6</ele>
        <time>2021-01-29T13:06:08Z</time>
      </trkpt>
      <trkpt lat="42.77533" lon="0.15909">
        <ele>2066.8</ele>
        <time>2021-01-29T13:06:09Z</time>
      </trkpt>
      <trkpt lat="42.77533" lon="0.15908">
        <ele>2067</ele>
        <time>2021-01-29T13:06:10Z</time>
      </trkpt>
      <trkpt lat="42.77532" lon="0.15908">
        <ele>2067</ele>
        <time>2021-01-29T13:06:11Z</time>
      </trkpt>
      <trkpt lat="42.77532" lon="0.15907">
        <ele>2067.4</ele>
        <time>2021-01-29T13:06:12Z</time>
      </trkpt>
      <trkpt lat="42.77531" lon="0.15907">
        <ele>2067.4</ele>
        <time>2021-01-29T13:06:13Z</time>
      </trkpt>
      <trkpt lat="42.7753" lon="0.15906">
        <ele>2067.6</ele>
        <time>2021-01-29T13:06:14Z</time>
      </trkpt>
      <trkpt lat="42.77529" lon="0.15906">
        <ele>2068</ele>
        <time>2021-01-29T13:06:15Z</time>
      </trkpt>
      <trkpt lat="42.77529" lon="0.15905">
        <ele>2068</ele>
        <time>2021-01-29T13:06:16Z</time>
      </trkpt>
      <trkpt lat="42.77528" lon="0.15905">
        <ele>2068.2</ele>
        <time>2021-01-29T13:06:17Z</time>
      </trkpt>
      <trkpt lat="42.77527" lon="0.15905">
        <ele>2068.4</ele>
        <time>2021-01-29T13:06:18Z</time>
      </trkpt>
      <trkpt lat="42.77527" lon="0.15904">
        <ele>2068.4</ele>
        <time>2021-01-29T13:06:19Z</time>
      </trkpt>
      <trkpt lat="42.77526" lon="0.15903">
        <ele>2068.6</ele>
        <time>2021-01-29T13:06:20Z</time>
      </trkpt>
      <trkpt lat="42.77525" lon="0.15903">
        <ele>2068.6</ele>
        <time>2021-01-29T13:06:21Z</time>
      </trkpt>
      <trkpt lat="42.77524" lon="0.15902">
        <ele>2068.6</ele>
        <time>2021-01-29T13:06:22Z</time>
      </trkpt>
      <trkpt lat="42.77523" lon="0.15902">
        <ele>2068.6</ele>
        <time>2021-01-29T13:06:23Z</time>
      </trkpt>
      <trkpt lat="42.77523" lon="0.15901">
        <ele>2069</ele>
        <time>2021-01-29T13:06:24Z</time>
      </trkpt>
      <trkpt lat="42.77522" lon="0.159">
        <ele>2069</ele>
        <time>2021-01-29T13:06:25Z</time>
      </trkpt>
      <trkpt lat="42.77521" lon="0.159">
        <ele>2069.2</ele>
        <time>2021-01-29T13:06:26Z</time>
      </trkpt>
      <trkpt lat="42.77521" lon="0.15899">
        <ele>2069.4</ele>
        <time>2021-01-29T13:06:27Z</time>
      </trkpt>
      <trkpt lat="42.7752" lon="0.15899">
        <ele>2069.4</ele>
        <time>2021-01-29T13:06:28Z</time>
      </trkpt>
      <trkpt lat="42.7752" lon="0.15898">
        <ele>2069.6</ele>
        <time>2021-01-29T13:06:29Z</time>
      </trkpt>
      <trkpt lat="42.77519" lon="0.15898">
        <ele>2069.8</ele>
        <time>2021-01-29T13:06:30Z</time>
      </trkpt>
      <trkpt lat="42.77518" lon="0.15898">
        <ele>2069.8</ele>
        <time>2021-01-29T13:06:31Z</time>
      </trkpt>
      <trkpt lat="42.77518" lon="0.15897">
        <ele>2070</ele>
        <time>2021-01-29T13:06:32Z</time>
      </trkpt>
      <trkpt lat="42.77517" lon="0.15897">
        <ele>2070.2</ele>
        <time>2021-01-29T13:06:33Z</time>
      </trkpt>
      <trkpt lat="42.77516" lon="0.15897">
        <ele>2070.2</ele>
        <time>2021-01-29T13:06:34Z</time>
      </trkpt>
      <trkpt lat="42.77515" lon="0.15896">
        <ele>2070.4</ele>
        <time>2021-01-29T13:06:35Z</time>
      </trkpt>
      <trkpt lat="42.77515" lon="0.15896">
        <ele>2070.6</ele>
        <time>2021-01-29T13:06:36Z</time>
      </trkpt>
      <trkpt lat="42.77514" lon="0.15895">
        <ele>2070.6</ele>
        <time>2021-01-29T13:06:37Z</time>
      </trkpt>
      <trkpt lat="42.77514" lon="0.15894">
        <ele>2071</ele>
        <time>2021-01-29T13:06:38Z</time>
      </trkpt>
      <trkpt lat="42.77513" lon="0.15894">
        <ele>2071</ele>
        <time>2021-01-29T13:06:39Z</time>
      </trkpt>
      <trkpt lat="42.77512" lon="0.15893">
        <ele>2070.8</ele>
        <time>2021-01-29T13:06:40Z</time>
      </trkpt>
      <trkpt lat="42.77511" lon="0.15893">
        <ele>2071.2</ele>
        <time>2021-01-29T13:06:41Z</time>
      </trkpt>
      <trkpt lat="42.77511" lon="0.15892">
        <ele>2071.4</ele>
        <time>2021-01-29T13:06:42Z</time>
      </trkpt>
      <trkpt lat="42.7751" lon="0.15892">
        <ele>2071.6</ele>
        <time>2021-01-29T13:06:43Z</time>
      </trkpt>
      <trkpt lat="42.77509" lon="0.15891">
        <ele>2071.8</ele>
        <time>2021-01-29T13:06:44Z</time>
      </trkpt>
      <trkpt lat="42.77509" lon="0.15891">
        <ele>2072</ele>
        <time>2021-01-29T13:06:45Z</time>
      </trkpt>
      <trkpt lat="42.77508" lon="0.15891">
        <ele>2072.2</ele>
        <time>2021-01-29T13:06:46Z</time>
      </trkpt>
      <trkpt lat="42.77507" lon="0.1589">
        <ele>2072.4</ele>
        <time>2021-01-29T13:06:47Z</time>
      </trkpt>
      <trkpt lat="42.77507" lon="0.1589">
        <ele>2072.6</ele>
        <time>2021-01-29T13:06:48Z</time>
      </trkpt>
      <trkpt lat="42.77506" lon="0.15889">
        <ele>2072.6</ele>
        <time>2021-01-29T13:06:49Z</time>
      </trkpt>
      <trkpt lat="42.77505" lon="0.15889">
        <ele>2073</ele>
        <time>2021-01-29T13:06:50Z</time>
      </trkpt>
      <trkpt lat="42.77504" lon="0.15889">
        <ele>2073</ele>
        <time>2021-01-29T13:06:51Z</time>
      </trkpt>
      <trkpt lat="42.77504" lon="0.15889">
        <ele>2073.2</ele>
        <time>2021-01-29T13:06:52Z</time>
      </trkpt>
      <trkpt lat="42.77503" lon="0.15888">
        <ele>2073.4</ele>
        <time>2021-01-29T13:06:53Z</time>
      </trkpt>
      <trkpt lat="42.77502" lon="0.15888">
        <ele>2073.4</ele>
        <time>2021-01-29T13:06:54Z</time>
      </trkpt>
      <trkpt lat="42.77501" lon="0.15888">
        <ele>2073.4</ele>
        <time>2021-01-29T13:06:55Z</time>
      </trkpt>
      <trkpt lat="42.77501" lon="0.15888">
        <ele>2073.6</ele>
        <time>2021-01-29T13:06:56Z</time>
      </trkpt>
      <trkpt lat="42.775" lon="0.15887">
        <ele>2073.8</ele>
        <time>2021-01-29T13:06:57Z</time>
      </trkpt>
      <trkpt lat="42.77499" lon="0.15887">
        <ele>2074</ele>
        <time>2021-01-29T13:06:58Z</time>
      </trkpt>
      <trkpt lat="42.77499" lon="0.15887">
        <ele>2074.2</ele>
        <time>2021-01-29T13:06:59Z</time>
      </trkpt>
      <trkpt lat="42.77498" lon="0.15886">
        <ele>2074.2</ele>
        <time>2021-01-29T13:07:00Z</time>
      </trkpt>
      <trkpt lat="42.77497" lon="0.15886">
        <ele>2074.4</ele>
        <time>2021-01-29T13:07:01Z</time>
      </trkpt>
      <trkpt lat="42.77497" lon="0.15886">
        <ele>2074.4</ele>
        <time>2021-01-29T13:07:02Z</time>
      </trkpt>
      <trkpt lat="42.77496" lon="0.15885">
        <ele>2074.6</ele>
        <time>2021-01-29T13:07:03Z</time>
      </trkpt>
      <trkpt lat="42.77495" lon="0.15885">
        <ele>2074.8</ele>
        <time>2021-01-29T13:07:04Z</time>
      </trkpt>
      <trkpt lat="42.77494" lon="0.15885">
        <ele>2074.8</ele>
        <time>2021-01-29T13:07:05Z</time>
      </trkpt>
      <trkpt lat="42.77493" lon="0.15885">
        <ele>2075</ele>
        <time>2021-01-29T13:07:06Z</time>
      </trkpt>
      <trkpt lat="42.77493" lon="0.15885">
        <ele>2075.2</ele>
        <time>2021-01-29T13:07:07Z</time>
      </trkpt>
      <trkpt lat="42.77492" lon="0.15885">
        <ele>2075</ele>
        <time>2021-01-29T13:07:08Z</time>
      </trkpt>
      <trkpt lat="42.77492" lon="0.15885">
        <ele>2075.2</ele>
        <time>2021-01-29T13:07:09Z</time>
      </trkpt>
      <trkpt lat="42.77491" lon="0.15885">
        <ele>2075.4</ele>
        <time>2021-01-29T13:07:10Z</time>
      </trkpt>
      <trkpt lat="42.7749" lon="0.15885">
        <ele>2075.6</ele>
        <time>2021-01-29T13:07:11Z</time>
      </trkpt>
      <trkpt lat="42.7749" lon="0.15885">
        <ele>2075.8</ele>
        <time>2021-01-29T13:07:12Z</time>
      </trkpt>
      <trkpt lat="42.77489" lon="0.15885">
        <ele>2076</ele>
        <time>2021-01-29T13:07:13Z</time>
      </trkpt>
      <trkpt lat="42.77489" lon="0.15885">
        <ele>2076</ele>
        <time>2021-01-29T13:07:14Z</time>
      </trkpt>
      <trkpt lat="42.77488" lon="0.15884">
        <ele>2076.2</ele>
        <time>2021-01-29T13:07:15Z</time>
      </trkpt>
      <trkpt lat="42.77488" lon="0.15884">
        <ele>2076.2</ele>
        <time>2021-01-29T13:07:16Z</time>
      </trkpt>
      <trkpt lat="42.77487" lon="0.15884">
        <ele>2076.2</ele>
        <time>2021-01-29T13:07:17Z</time>
      </trkpt>
      <trkpt lat="42.77487" lon="0.15884">
        <ele>2076.6</ele>
        <time>2021-01-29T13:07:18Z</time>
      </trkpt>
      <trkpt lat="42.77486" lon="0.15884">
        <ele>2076.6</ele>
        <time>2021-01-29T13:07:19Z</time>
      </trkpt>
      <trkpt lat="42.77485" lon="0.15884">
        <ele>2076.8</ele>
        <time>2021-01-29T13:07:20Z</time>
      </trkpt>
      <trkpt lat="42.77485" lon="0.15884">
        <ele>2077</ele>
        <time>2021-01-29T13:07:21Z</time>
      </trkpt>
      <trkpt lat="42.77484" lon="0.15884">
        <ele>2077.2</ele>
        <time>2021-01-29T13:07:22Z</time>
      </trkpt>
      <trkpt lat="42.77484" lon="0.15884">
        <ele>2077.2</ele>
        <time>2021-01-29T13:07:23Z</time>
      </trkpt>
      <trkpt lat="42.77483" lon="0.15884">
        <ele>2077.6</ele>
        <time>2021-01-29T13:07:24Z</time>
      </trkpt>
      <trkpt lat="42.77483" lon="0.15884">
        <ele>2077.6</ele>
        <time>2021-01-29T13:07:25Z</time>
      </trkpt>
      <trkpt lat="42.77482" lon="0.15884">
        <ele>2077.8</ele>
        <time>2021-01-29T13:07:26Z</time>
      </trkpt>
      <trkpt lat="42.77482" lon="0.15884">
        <ele>2077.8</ele>
        <time>2021-01-29T13:07:27Z</time>
      </trkpt>
      <trkpt lat="42.77481" lon="0.15884">
        <ele>2078.2</ele>
        <time>2021-01-29T13:07:28Z</time>
      </trkpt>
      <trkpt lat="42.7748" lon="0.15884">
        <ele>2078.4</ele>
        <time>2021-01-29T13:07:29Z</time>
      </trkpt>
      <trkpt lat="42.7748" lon="0.15884">
        <ele>2078.4</ele>
        <time>2021-01-29T13:07:30Z</time>
      </trkpt>
      <trkpt lat="42.77479" lon="0.15884">
        <ele>2078.6</ele>
        <time>2021-01-29T13:07:31Z</time>
      </trkpt>
      <trkpt lat="42.77479" lon="0.15883">
        <ele>2078.8</ele>
        <time>2021-01-29T13:07:32Z</time>
      </trkpt>
      <trkpt lat="42.77478" lon="0.15883">
        <ele>2079</ele>
        <time>2021-01-29T13:07:33Z</time>
      </trkpt>
      <trkpt lat="42.77478" lon="0.15883">
        <ele>2079.2</ele>
        <time>2021-01-29T13:07:34Z</time>
      </trkpt>
      <trkpt lat="42.77477" lon="0.15883">
        <ele>2079.2</ele>
        <time>2021-01-29T13:07:35Z</time>
      </trkpt>
      <trkpt lat="42.77477" lon="0.15883">
        <ele>2079.4</ele>
        <time>2021-01-29T13:07:36Z</time>
      </trkpt>
      <trkpt lat="42.77476" lon="0.15883">
        <ele>2079.4</ele>
        <time>2021-01-29T13:07:37Z</time>
      </trkpt>
      <trkpt lat="42.77475" lon="0.15883">
        <ele>2079.6</ele>
        <time>2021-01-29T13:07:38Z</time>
      </trkpt>
      <trkpt lat="42.77475" lon="0.15883">
        <ele>2080</ele>
        <time>2021-01-29T13:07:39Z</time>
      </trkpt>
      <trkpt lat="42.77474" lon="0.15883">
        <ele>2079.8</ele>
        <time>2021-01-29T13:07:40Z</time>
      </trkpt>
      <trkpt lat="42.77474" lon="0.15883">
        <ele>2080.2</ele>
        <time>2021-01-29T13:07:41Z</time>
      </trkpt>
      <trkpt lat="42.77473" lon="0.15883">
        <ele>2080</ele>
        <time>2021-01-29T13:07:42Z</time>
      </trkpt>
      <trkpt lat="42.77473" lon="0.15883">
        <ele>2080.4</ele>
        <time>2021-01-29T13:07:43Z</time>
      </trkpt>
      <trkpt lat="42.77472" lon="0.15883">
        <ele>2080.6</ele>
        <time>2021-01-29T13:07:44Z</time>
      </trkpt>
      <trkpt lat="42.77467" lon="0.15884">
        <ele>2080.6</ele>
        <time>2021-01-29T13:07:45Z</time>
      </trkpt>
      <trkpt lat="42.77466" lon="0.15884">
        <ele>2080.8</ele>
        <time>2021-01-29T13:07:46Z</time>
      </trkpt>
      <trkpt lat="42.77466" lon="0.15885">
        <ele>2081</ele>
        <time>2021-01-29T13:07:47Z</time>
      </trkpt>
      <trkpt lat="42.77465" lon="0.15885">
        <ele>2081</ele>
        <time>2021-01-29T13:07:48Z</time>
      </trkpt>
      <trkpt lat="42.77465" lon="0.15885">
        <ele>2081.2</ele>
        <time>2021-01-29T13:07:49Z</time>
      </trkpt>
      <trkpt lat="42.77465" lon="0.15885">
        <ele>2081</ele>
        <time>2021-01-29T13:07:50Z</time>
      </trkpt>
      <trkpt lat="42.77464" lon="0.15885">
        <ele>2081.4</ele>
        <time>2021-01-29T13:07:51Z</time>
      </trkpt>
      <trkpt lat="42.77463" lon="0.15886">
        <ele>2081.4</ele>
        <time>2021-01-29T13:07:52Z</time>
      </trkpt>
      <trkpt lat="42.77463" lon="0.15886">
        <ele>2081.6</ele>
        <time>2021-01-29T13:07:53Z</time>
      </trkpt>
      <trkpt lat="42.77463" lon="0.15886">
        <ele>2081.8</ele>
        <time>2021-01-29T13:07:54Z</time>
      </trkpt>
      <trkpt lat="42.77462" lon="0.15886">
        <ele>2081.8</ele>
        <time>2021-01-29T13:07:55Z</time>
      </trkpt>
      <trkpt lat="42.77462" lon="0.15887">
        <ele>2082</ele>
        <time>2021-01-29T13:07:56Z</time>
      </trkpt>
      <trkpt lat="42.77461" lon="0.15887">
        <ele>2082</ele>
        <time>2021-01-29T13:07:57Z</time>
      </trkpt>
      <trkpt lat="42.77461" lon="0.15887">
        <ele>2082.2</ele>
        <time>2021-01-29T13:07:58Z</time>
      </trkpt>
      <trkpt lat="42.77461" lon="0.15887">
        <ele>2082.4</ele>
        <time>2021-01-29T13:07:59Z</time>
      </trkpt>
      <trkpt lat="42.77461" lon="0.15887">
        <ele>2082.4</ele>
        <time>2021-01-29T13:08:00Z</time>
      </trkpt>
      <trkpt lat="42.77461" lon="0.15887">
        <ele>2082.6</ele>
        <time>2021-01-29T13:08:01Z</time>
      </trkpt>
      <trkpt lat="42.77461" lon="0.15887">
        <ele>2082.8</ele>
        <time>2021-01-29T13:08:02Z</time>
      </trkpt>
      <trkpt lat="42.77461" lon="0.15887">
        <ele>2082.8</ele>
        <time>2021-01-29T13:08:03Z</time>
      </trkpt>
      <trkpt lat="42.77461" lon="0.15887">
        <ele>2083.2</ele>
        <time>2021-01-29T13:08:04Z</time>
      </trkpt>
      <trkpt lat="42.77461" lon="0.15887">
        <ele>2083</ele>
        <time>2021-01-29T13:08:05Z</time>
      </trkpt>
      <trkpt lat="42.77461" lon="0.15887">
        <ele>2083.2</ele>
        <time>2021-01-29T13:08:06Z</time>
      </trkpt>
      <trkpt lat="42.77461" lon="0.15887">
        <ele>2083.4</ele>
        <time>2021-01-29T13:08:07Z</time>
      </trkpt>
      <trkpt lat="42.77458" lon="0.15888">
        <ele>2083.6</ele>
        <time>2021-01-29T13:08:08Z</time>
      </trkpt>
      <trkpt lat="42.77455" lon="0.15889">
        <ele>2083.6</ele>
        <time>2021-01-29T13:08:09Z</time>
      </trkpt>
      <trkpt lat="42.77454" lon="0.15889">
        <ele>2083.8</ele>
        <time>2021-01-29T13:08:10Z</time>
      </trkpt>
      <trkpt lat="42.77454" lon="0.1589">
        <ele>2084</ele>
        <time>2021-01-29T13:08:11Z</time>
      </trkpt>
      <trkpt lat="42.77453" lon="0.1589">
        <ele>2084</ele>
        <time>2021-01-29T13:08:12Z</time>
      </trkpt>
      <trkpt lat="42.77453" lon="0.1589">
        <ele>2084.2</ele>
        <time>2021-01-29T13:08:13Z</time>
      </trkpt>
      <trkpt lat="42.77452" lon="0.1589">
        <ele>2084.4</ele>
        <time>2021-01-29T13:08:14Z</time>
      </trkpt>
      <trkpt lat="42.77451" lon="0.15891">
        <ele>2084.4</ele>
        <time>2021-01-29T13:08:15Z</time>
      </trkpt>
      <trkpt lat="42.77451" lon="0.15891">
        <ele>2084.6</ele>
        <time>2021-01-29T13:08:16Z</time>
      </trkpt>
      <trkpt lat="42.7745" lon="0.15892">
        <ele>2084.4</ele>
        <time>2021-01-29T13:08:17Z</time>
      </trkpt>
      <trkpt lat="42.7745" lon="0.15892">
        <ele>2084.8</ele>
        <time>2021-01-29T13:08:18Z</time>
      </trkpt>
      <trkpt lat="42.77449" lon="0.15892">
        <ele>2085</ele>
        <time>2021-01-29T13:08:19Z</time>
      </trkpt>
      <trkpt lat="42.77449" lon="0.15892">
        <ele>2085.2</ele>
        <time>2021-01-29T13:08:20Z</time>
      </trkpt>
      <trkpt lat="42.77449" lon="0.15892">
        <ele>2085.4</ele>
        <time>2021-01-29T13:08:21Z</time>
      </trkpt>
      <trkpt lat="42.77448" lon="0.15893">
        <ele>2085.6</ele>
        <time>2021-01-29T13:08:22Z</time>
      </trkpt>
      <trkpt lat="42.77447" lon="0.15894">
        <ele>2086</ele>
        <time>2021-01-29T13:08:23Z</time>
      </trkpt>
      <trkpt lat="42.77447" lon="0.15895">
        <ele>2086.2</ele>
        <time>2021-01-29T13:08:24Z</time>
      </trkpt>
      <trkpt lat="42.77446" lon="0.15896">
        <ele>2086.4</ele>
        <time>2021-01-29T13:08:25Z</time>
      </trkpt>
      <trkpt lat="42.77446" lon="0.15896">
        <ele>2086.6</ele>
        <time>2021-01-29T13:08:26Z</time>
      </trkpt>
      <trkpt lat="42.77445" lon="0.15897">
        <ele>2086.4</ele>
        <time>2021-01-29T13:08:27Z</time>
      </trkpt>
      <trkpt lat="42.77445" lon="0.15897">
        <ele>2086.8</ele>
        <time>2021-01-29T13:08:28Z</time>
      </trkpt>
      <trkpt lat="42.77445" lon="0.15899">
        <ele>2086.8</ele>
        <time>2021-01-29T13:08:29Z</time>
      </trkpt>
      <trkpt lat="42.77444" lon="0.15899">
        <ele>2087.2</ele>
        <time>2021-01-29T13:08:30Z</time>
      </trkpt>
      <trkpt lat="42.77444" lon="0.159">
        <ele>2087.2</ele>
        <time>2021-01-29T13:08:31Z</time>
      </trkpt>
      <trkpt lat="42.77443" lon="0.159">
        <ele>2087.4</ele>
        <time>2021-01-29T13:08:32Z</time>
      </trkpt>
      <trkpt lat="42.77443" lon="0.15901">
        <ele>2087.6</ele>
        <time>2021-01-29T13:08:33Z</time>
      </trkpt>
      <trkpt lat="42.77443" lon="0.15901">
        <ele>2087.8</ele>
        <time>2021-01-29T13:08:34Z</time>
      </trkpt>
      <trkpt lat="42.77442" lon="0.15902">
        <ele>2088</ele>
        <time>2021-01-29T13:08:35Z</time>
      </trkpt>
      <trkpt lat="42.77442" lon="0.15903">
        <ele>2088.2</ele>
        <time>2021-01-29T13:08:36Z</time>
      </trkpt>
      <trkpt lat="42.77441" lon="0.15904">
        <ele>2088</ele>
        <time>2021-01-29T13:08:37Z</time>
      </trkpt>
      <trkpt lat="42.77441" lon="0.15905">
        <ele>2088.4</ele>
        <time>2021-01-29T13:08:38Z</time>
      </trkpt>
      <trkpt lat="42.7744" lon="0.15905">
        <ele>2088.4</ele>
        <time>2021-01-29T13:08:39Z</time>
      </trkpt>
      <trkpt lat="42.7744" lon="0.15906">
        <ele>2088.6</ele>
        <time>2021-01-29T13:08:40Z</time>
      </trkpt>
      <trkpt lat="42.7744" lon="0.15907">
        <ele>2088.8</ele>
        <time>2021-01-29T13:08:41Z</time>
      </trkpt>
      <trkpt lat="42.77439" lon="0.15908">
        <ele>2089</ele>
        <time>2021-01-29T13:08:42Z</time>
      </trkpt>
      <trkpt lat="42.77439" lon="0.15908">
        <ele>2089.2</ele>
        <time>2021-01-29T13:08:43Z</time>
      </trkpt>
      <trkpt lat="42.77438" lon="0.15909">
        <ele>2089.2</ele>
        <time>2021-01-29T13:08:44Z</time>
      </trkpt>
      <trkpt lat="42.77438" lon="0.1591">
        <ele>2089.2</ele>
        <time>2021-01-29T13:08:45Z</time>
      </trkpt>
      <trkpt lat="42.77438" lon="0.15911">
        <ele>2089.4</ele>
        <time>2021-01-29T13:08:46Z</time>
      </trkpt>
      <trkpt lat="42.77437" lon="0.15911">
        <ele>2089.4</ele>
        <time>2021-01-29T13:08:47Z</time>
      </trkpt>
      <trkpt lat="42.77437" lon="0.15912">
        <ele>2089.8</ele>
        <time>2021-01-29T13:08:48Z</time>
      </trkpt>
      <trkpt lat="42.77437" lon="0.15912">
        <ele>2090</ele>
        <time>2021-01-29T13:08:49Z</time>
      </trkpt>
      <trkpt lat="42.77437" lon="0.15912">
        <ele>2090.2</ele>
        <time>2021-01-29T13:08:50Z</time>
      </trkpt>
      <trkpt lat="42.77436" lon="0.15912">
        <ele>2090.4</ele>
        <time>2021-01-29T13:08:51Z</time>
      </trkpt>
      <trkpt lat="42.77435" lon="0.15914">
        <ele>2090.4</ele>
        <time>2021-01-29T13:08:52Z</time>
      </trkpt>
      <trkpt lat="42.77434" lon="0.15915">
        <ele>2090.6</ele>
        <time>2021-01-29T13:08:53Z</time>
      </trkpt>
      <trkpt lat="42.77434" lon="0.15915">
        <ele>2090.6</ele>
        <time>2021-01-29T13:08:54Z</time>
      </trkpt>
      <trkpt lat="42.77433" lon="0.15916">
        <ele>2090.8</ele>
        <time>2021-01-29T13:08:55Z</time>
      </trkpt>
      <trkpt lat="42.77433" lon="0.15916">
        <ele>2091</ele>
        <time>2021-01-29T13:08:56Z</time>
      </trkpt>
      <trkpt lat="42.77433" lon="0.15917">
        <ele>2091.2</ele>
        <time>2021-01-29T13:08:57Z</time>
      </trkpt>
      <trkpt lat="42.77432" lon="0.15918">
        <ele>2091.4</ele>
        <time>2021-01-29T13:08:58Z</time>
      </trkpt>
      <trkpt lat="42.77432" lon="0.15918">
        <ele>2091.4</ele>
        <time>2021-01-29T13:08:59Z</time>
      </trkpt>
      <trkpt lat="42.77431" lon="0.15919">
        <ele>2091.4</ele>
        <time>2021-01-29T13:09:00Z</time>
      </trkpt>
      <trkpt lat="42.77431" lon="0.15919">
        <ele>2091.8</ele>
        <time>2021-01-29T13:09:01Z</time>
      </trkpt>
      <trkpt lat="42.7743" lon="0.1592">
        <ele>2091.8</ele>
        <time>2021-01-29T13:09:02Z</time>
      </trkpt>
      <trkpt lat="42.77429" lon="0.1592">
        <ele>2092</ele>
        <time>2021-01-29T13:09:03Z</time>
      </trkpt>
      <trkpt lat="42.77429" lon="0.15921">
        <ele>2092.2</ele>
        <time>2021-01-29T13:09:04Z</time>
      </trkpt>
      <trkpt lat="42.77429" lon="0.15921">
        <ele>2092.2</ele>
        <time>2021-01-29T13:09:05Z</time>
      </trkpt>
      <trkpt lat="42.77428" lon="0.15922">
        <ele>2092.6</ele>
        <time>2021-01-29T13:09:06Z</time>
      </trkpt>
      <trkpt lat="42.77428" lon="0.15922">
        <ele>2092.6</ele>
        <time>2021-01-29T13:09:07Z</time>
      </trkpt>
      <trkpt lat="42.77427" lon="0.15922">
        <ele>2092.8</ele>
        <time>2021-01-29T13:09:08Z</time>
      </trkpt>
      <trkpt lat="42.77426" lon="0.15923">
        <ele>2093</ele>
        <time>2021-01-29T13:09:09Z</time>
      </trkpt>
      <trkpt lat="42.77426" lon="0.15923">
        <ele>2093.2</ele>
        <time>2021-01-29T13:09:10Z</time>
      </trkpt>
      <trkpt lat="42.77425" lon="0.15923">
        <ele>2093.2</ele>
        <time>2021-01-29T13:09:11Z</time>
      </trkpt>
      <trkpt lat="42.77425" lon="0.15924">
        <ele>2093.6</ele>
        <time>2021-01-29T13:09:12Z</time>
      </trkpt>
      <trkpt lat="42.77424" lon="0.15924">
        <ele>2093.6</ele>
        <time>2021-01-29T13:09:13Z</time>
      </trkpt>
      <trkpt lat="42.77423" lon="0.15924">
        <ele>2093.8</ele>
        <time>2021-01-29T13:09:14Z</time>
      </trkpt>
      <trkpt lat="42.77423" lon="0.15925">
        <ele>2094</ele>
        <time>2021-01-29T13:09:15Z</time>
      </trkpt>
      <trkpt lat="42.77422" lon="0.15925">
        <ele>2094</ele>
        <time>2021-01-29T13:09:16Z</time>
      </trkpt>
      <trkpt lat="42.77422" lon="0.15925">
        <ele>2094.2</ele>
        <time>2021-01-29T13:09:17Z</time>
      </trkpt>
      <trkpt lat="42.77421" lon="0.15925">
        <ele>2094.6</ele>
        <time>2021-01-29T13:09:18Z</time>
      </trkpt>
      <trkpt lat="42.7742" lon="0.15925">
        <ele>2094.4</ele>
        <time>2021-01-29T13:09:19Z</time>
      </trkpt>
      <trkpt lat="42.7742" lon="0.15926">
        <ele>2094.6</ele>
        <time>2021-01-29T13:09:20Z</time>
      </trkpt>
      <trkpt lat="42.77419" lon="0.15926">
        <ele>2095</ele>
        <time>2021-01-29T13:09:21Z</time>
      </trkpt>
      <trkpt lat="42.77418" lon="0.15926">
        <ele>2095</ele>
        <time>2021-01-29T13:09:22Z</time>
      </trkpt>
      <trkpt lat="42.77418" lon="0.15927">
        <ele>2095.4</ele>
        <time>2021-01-29T13:09:23Z</time>
      </trkpt>
      <trkpt lat="42.77417" lon="0.15928">
        <ele>2095.6</ele>
        <time>2021-01-29T13:09:24Z</time>
      </trkpt>
      <trkpt lat="42.77417" lon="0.15928">
        <ele>2095.6</ele>
        <time>2021-01-29T13:09:25Z</time>
      </trkpt>
      <trkpt lat="42.77416" lon="0.15929">
        <ele>2096</ele>
        <time>2021-01-29T13:09:26Z</time>
      </trkpt>
      <trkpt lat="42.77416" lon="0.15929">
        <ele>2096</ele>
        <time>2021-01-29T13:09:27Z</time>
      </trkpt>
      <trkpt lat="42.77415" lon="0.1593">
        <ele>2096.2</ele>
        <time>2021-01-29T13:09:28Z</time>
      </trkpt>
      <trkpt lat="42.77415" lon="0.1593">
        <ele>2096.4</ele>
        <time>2021-01-29T13:09:29Z</time>
      </trkpt>
      <trkpt lat="42.77415" lon="0.1593">
        <ele>2096.4</ele>
        <time>2021-01-29T13:09:30Z</time>
      </trkpt>
      <trkpt lat="42.77415" lon="0.1593">
        <ele>2096.6</ele>
        <time>2021-01-29T13:09:31Z</time>
      </trkpt>
      <trkpt lat="42.77415" lon="0.1593">
        <ele>2096.6</ele>
        <time>2021-01-29T13:09:32Z</time>
      </trkpt>
      <trkpt lat="42.77415" lon="0.1593">
        <ele>2096.8</ele>
        <time>2021-01-29T13:09:33Z</time>
      </trkpt>
      <trkpt lat="42.77415" lon="0.1593">
        <ele>2097</ele>
        <time>2021-01-29T13:09:34Z</time>
      </trkpt>
      <trkpt lat="42.77413" lon="0.15932">
        <ele>2097</ele>
        <time>2021-01-29T13:09:35Z</time>
      </trkpt>
      <trkpt lat="42.77412" lon="0.15933">
        <ele>2097</ele>
        <time>2021-01-29T13:09:36Z</time>
      </trkpt>
      <trkpt lat="42.77411" lon="0.15934">
        <ele>2097.4</ele>
        <time>2021-01-29T13:09:37Z</time>
      </trkpt>
      <trkpt lat="42.7741" lon="0.15935">
        <ele>2097.4</ele>
        <time>2021-01-29T13:09:38Z</time>
      </trkpt>
      <trkpt lat="42.7741" lon="0.15935">
        <ele>2097.8</ele>
        <time>2021-01-29T13:09:39Z</time>
      </trkpt>
      <trkpt lat="42.7741" lon="0.15936">
        <ele>2097.8</ele>
        <time>2021-01-29T13:09:40Z</time>
      </trkpt>
      <trkpt lat="42.77409" lon="0.15936">
        <ele>2097.8</ele>
        <time>2021-01-29T13:09:41Z</time>
      </trkpt>
      <trkpt lat="42.77409" lon="0.15936">
        <ele>2098</ele>
        <time>2021-01-29T13:09:42Z</time>
      </trkpt>
      <trkpt lat="42.77409" lon="0.15936">
        <ele>2098.2</ele>
        <time>2021-01-29T13:09:43Z</time>
      </trkpt>
      <trkpt lat="42.77409" lon="0.15936">
        <ele>2098.2</ele>
        <time>2021-01-29T13:09:44Z</time>
      </trkpt>
      <trkpt lat="42.77409" lon="0.15936">
        <ele>2098.4</ele>
        <time>2021-01-29T13:09:45Z</time>
      </trkpt>
      <trkpt lat="42.77408" lon="0.15938">
        <ele>2098.6</ele>
        <time>2021-01-29T13:09:46Z</time>
      </trkpt>
      <trkpt lat="42.77406" lon="0.1594">
        <ele>2099</ele>
        <time>2021-01-29T13:09:47Z</time>
      </trkpt>
      <trkpt lat="42.77405" lon="0.1594">
        <ele>2099</ele>
        <time>2021-01-29T13:09:48Z</time>
      </trkpt>
      <trkpt lat="42.77405" lon="0.15941">
        <ele>2099.2</ele>
        <time>2021-01-29T13:09:49Z</time>
      </trkpt>
      <trkpt lat="42.77404" lon="0.15941">
        <ele>2099.6</ele>
        <time>2021-01-29T13:09:50Z</time>
      </trkpt>
      <trkpt lat="42.77404" lon="0.15942">
        <ele>2099.4</ele>
        <time>2021-01-29T13:09:51Z</time>
      </trkpt>
      <trkpt lat="42.77404" lon="0.15943">
        <ele>2100</ele>
        <time>2021-01-29T13:09:52Z</time>
      </trkpt>
      <trkpt lat="42.77403" lon="0.15943">
        <ele>2100</ele>
        <time>2021-01-29T13:09:53Z</time>
      </trkpt>
      <trkpt lat="42.77403" lon="0.15944">
        <ele>2100.4</ele>
        <time>2021-01-29T13:09:54Z</time>
      </trkpt>
      <trkpt lat="42.77402" lon="0.15944">
        <ele>2100.6</ele>
        <time>2021-01-29T13:09:55Z</time>
      </trkpt>
      <trkpt lat="42.77402" lon="0.15945">
        <ele>2100.8</ele>
        <time>2021-01-29T13:09:56Z</time>
      </trkpt>
      <trkpt lat="42.77401" lon="0.15945">
        <ele>2101</ele>
        <time>2021-01-29T13:09:57Z</time>
      </trkpt>
      <trkpt lat="42.77401" lon="0.15946">
        <ele>2101.2</ele>
        <time>2021-01-29T13:09:58Z</time>
      </trkpt>
      <trkpt lat="42.774" lon="0.15947">
        <ele>2101.2</ele>
        <time>2021-01-29T13:09:59Z</time>
      </trkpt>
      <trkpt lat="42.774" lon="0.15947">
        <ele>2101.6</ele>
        <time>2021-01-29T13:10:00Z</time>
      </trkpt>
      <trkpt lat="42.774" lon="0.15947">
        <ele>2101.6</ele>
        <time>2021-01-29T13:10:01Z</time>
      </trkpt>
      <trkpt lat="42.774" lon="0.15947">
        <ele>2101.8</ele>
        <time>2021-01-29T13:10:02Z</time>
      </trkpt>
      <trkpt lat="42.774" lon="0.15947">
        <ele>2102.2</ele>
        <time>2021-01-29T13:10:03Z</time>
      </trkpt>
      <trkpt lat="42.774" lon="0.15947">
        <ele>2102.2</ele>
        <time>2021-01-29T13:10:04Z</time>
      </trkpt>
      <trkpt lat="42.774" lon="0.15947">
        <ele>2102.6</ele>
        <time>2021-01-29T13:10:05Z</time>
      </trkpt>
      <trkpt lat="42.774" lon="0.15947">
        <ele>2102.8</ele>
        <time>2021-01-29T13:10:06Z</time>
      </trkpt>
      <trkpt lat="42.77399" lon="0.15949">
        <ele>2103</ele>
        <time>2021-01-29T13:10:07Z</time>
      </trkpt>
      <trkpt lat="42.77397" lon="0.15952">
        <ele>2103.4</ele>
        <time>2021-01-29T13:10:08Z</time>
      </trkpt>
      <trkpt lat="42.77396" lon="0.15952">
        <ele>2103.6</ele>
        <time>2021-01-29T13:10:09Z</time>
      </trkpt>
      <trkpt lat="42.77396" lon="0.15953">
        <ele>2103.8</ele>
        <time>2021-01-29T13:10:10Z</time>
      </trkpt>
      <trkpt lat="42.77396" lon="0.15954">
        <ele>2104.2</ele>
        <time>2021-01-29T13:10:11Z</time>
      </trkpt>
      <trkpt lat="42.77396" lon="0.15954">
        <ele>2104.4</ele>
        <time>2021-01-29T13:10:12Z</time>
      </trkpt>
      <trkpt lat="42.77395" lon="0.15955">
        <ele>2104.8</ele>
        <time>2021-01-29T13:10:13Z</time>
      </trkpt>
      <trkpt lat="42.77395" lon="0.15956">
        <ele>2104.8</ele>
        <time>2021-01-29T13:10:14Z</time>
      </trkpt>
      <trkpt lat="42.77395" lon="0.15956">
        <ele>2105.4</ele>
        <time>2021-01-29T13:10:15Z</time>
      </trkpt>
      <trkpt lat="42.77395" lon="0.15956">
        <ele>2105.6</ele>
        <time>2021-01-29T13:10:16Z</time>
      </trkpt>
      <trkpt lat="42.77395" lon="0.15956">
        <ele>2105.8</ele>
        <time>2021-01-29T13:10:17Z</time>
      </trkpt>
      <trkpt lat="42.77395" lon="0.15956">
        <ele>2106</ele>
        <time>2021-01-29T13:10:18Z</time>
      </trkpt>
      <trkpt lat="42.77395" lon="0.15956">
        <ele>2106</ele>
        <time>2021-01-29T13:10:19Z</time>
      </trkpt>
      <trkpt lat="42.77393" lon="0.15958">
        <ele>2106.4</ele>
        <time>2021-01-29T13:10:20Z</time>
      </trkpt>
      <trkpt lat="42.77392" lon="0.1596">
        <ele>2106.6</ele>
        <time>2021-01-29T13:10:21Z</time>
      </trkpt>
      <trkpt lat="42.77391" lon="0.15961">
        <ele>2106.8</ele>
        <time>2021-01-29T13:10:22Z</time>
      </trkpt>
      <trkpt lat="42.77391" lon="0.15961">
        <ele>2107</ele>
        <time>2021-01-29T13:10:23Z</time>
      </trkpt>
      <trkpt lat="42.77391" lon="0.15962">
        <ele>2107</ele>
        <time>2021-01-29T13:10:24Z</time>
      </trkpt>
      <trkpt lat="42.7739" lon="0.15963">
        <ele>2107</ele>
        <time>2021-01-29T13:10:25Z</time>
      </trkpt>
      <trkpt lat="42.7739" lon="0.15963">
        <ele>2107.2</ele>
        <time>2021-01-29T13:10:26Z</time>
      </trkpt>
      <trkpt lat="42.77389" lon="0.15964">
        <ele>2107</ele>
        <time>2021-01-29T13:10:27Z</time>
      </trkpt>
      <trkpt lat="42.77389" lon="0.15965">
        <ele>2107.2</ele>
        <time>2021-01-29T13:10:28Z</time>
      </trkpt>
      <trkpt lat="42.77389" lon="0.15966">
        <ele>2107.6</ele>
        <time>2021-01-29T13:10:29Z</time>
      </trkpt>
      <trkpt lat="42.77388" lon="0.15966">
        <ele>2107.6</ele>
        <time>2021-01-29T13:10:30Z</time>
      </trkpt>
      <trkpt lat="42.77388" lon="0.15967">
        <ele>2108.2</ele>
        <time>2021-01-29T13:10:31Z</time>
      </trkpt>
      <trkpt lat="42.77387" lon="0.15967">
        <ele>2108.6</ele>
        <time>2021-01-29T13:10:32Z</time>
      </trkpt>
      <trkpt lat="42.77387" lon="0.15968">
        <ele>2108.8</ele>
        <time>2021-01-29T13:10:33Z</time>
      </trkpt>
      <trkpt lat="42.77387" lon="0.15969">
        <ele>2109.2</ele>
        <time>2021-01-29T13:10:34Z</time>
      </trkpt>
      <trkpt lat="42.77386" lon="0.1597">
        <ele>2109</ele>
        <time>2021-01-29T13:10:35Z</time>
      </trkpt>
      <trkpt lat="42.77386" lon="0.15971">
        <ele>2108.8</ele>
        <time>2021-01-29T13:10:36Z</time>
      </trkpt>
      <trkpt lat="42.77386" lon="0.15972">
        <ele>2109</ele>
        <time>2021-01-29T13:10:37Z</time>
      </trkpt>
      <trkpt lat="42.77385" lon="0.15972">
        <ele>2108.8</ele>
        <time>2021-01-29T13:10:38Z</time>
      </trkpt>
      <trkpt lat="42.77385" lon="0.15973">
        <ele>2108.8</ele>
        <time>2021-01-29T13:10:39Z</time>
      </trkpt>
      <trkpt lat="42.77385" lon="0.15974">
        <ele>2109</ele>
        <time>2021-01-29T13:10:40Z</time>
      </trkpt>
      <trkpt lat="42.77384" lon="0.15975">
        <ele>2108.8</ele>
        <time>2021-01-29T13:10:41Z</time>
      </trkpt>
      <trkpt lat="42.77384" lon="0.15976">
        <ele>2109</ele>
        <time>2021-01-29T13:10:42Z</time>
      </trkpt>
      <trkpt lat="42.77384" lon="0.15977">
        <ele>2109</ele>
        <time>2021-01-29T13:10:43Z</time>
      </trkpt>
      <trkpt lat="42.77384" lon="0.15978">
        <ele>2109</ele>
        <time>2021-01-29T13:10:44Z</time>
      </trkpt>
      <trkpt lat="42.77384" lon="0.15979">
        <ele>2109.2</ele>
        <time>2021-01-29T13:10:45Z</time>
      </trkpt>
      <trkpt lat="42.77384" lon="0.1598">
        <ele>2109.4</ele>
        <time>2021-01-29T13:10:46Z</time>
      </trkpt>
      <trkpt lat="42.77383" lon="0.15981">
        <ele>2109.4</ele>
        <time>2021-01-29T13:10:47Z</time>
      </trkpt>
      <trkpt lat="42.77383" lon="0.15981">
        <ele>2109.8</ele>
        <time>2021-01-29T13:10:48Z</time>
      </trkpt>
      <trkpt lat="42.77383" lon="0.15982">
        <ele>2109.8</ele>
        <time>2021-01-29T13:10:49Z</time>
      </trkpt>
      <trkpt lat="42.77383" lon="0.15983">
        <ele>2110</ele>
        <time>2021-01-29T13:10:50Z</time>
      </trkpt>
      <trkpt lat="42.77383" lon="0.15984">
        <ele>2110.6</ele>
        <time>2021-01-29T13:10:51Z</time>
      </trkpt>
      <trkpt lat="42.77383" lon="0.15985">
        <ele>2110.6</ele>
        <time>2021-01-29T13:10:52Z</time>
      </trkpt>
      <trkpt lat="42.77382" lon="0.15986">
        <ele>2110.8</ele>
        <time>2021-01-29T13:10:53Z</time>
      </trkpt>
      <trkpt lat="42.77382" lon="0.15987">
        <ele>2111</ele>
        <time>2021-01-29T13:10:54Z</time>
      </trkpt>
      <trkpt lat="42.77382" lon="0.15988">
        <ele>2111</ele>
        <time>2021-01-29T13:10:55Z</time>
      </trkpt>
      <trkpt lat="42.77382" lon="0.15989">
        <ele>2111.4</ele>
        <time>2021-01-29T13:10:56Z</time>
      </trkpt>
      <trkpt lat="42.77382" lon="0.15989">
        <ele>2111.6</ele>
        <time>2021-01-29T13:10:57Z</time>
      </trkpt>
      <trkpt lat="42.77382" lon="0.1599">
        <ele>2111.6</ele>
        <time>2021-01-29T13:10:58Z</time>
      </trkpt>
      <trkpt lat="42.77382" lon="0.15991">
        <ele>2111.8</ele>
        <time>2021-01-29T13:10:59Z</time>
      </trkpt>
      <trkpt lat="42.77382" lon="0.15992">
        <ele>2112</ele>
        <time>2021-01-29T13:11:00Z</time>
      </trkpt>
      <trkpt lat="42.77381" lon="0.15993">
        <ele>2112</ele>
        <time>2021-01-29T13:11:01Z</time>
      </trkpt>
      <trkpt lat="42.77381" lon="0.15994">
        <ele>2112.2</ele>
        <time>2021-01-29T13:11:02Z</time>
      </trkpt>
      <trkpt lat="42.77381" lon="0.15995">
        <ele>2112.4</ele>
        <time>2021-01-29T13:11:03Z</time>
      </trkpt>
      <trkpt lat="42.77381" lon="0.15996">
        <ele>2112.2</ele>
        <time>2021-01-29T13:11:04Z</time>
      </trkpt>
      <trkpt lat="42.7738" lon="0.15997">
        <ele>2112.6</ele>
        <time>2021-01-29T13:11:05Z</time>
      </trkpt>
      <trkpt lat="42.7738" lon="0.15998">
        <ele>2112.8</ele>
        <time>2021-01-29T13:11:06Z</time>
      </trkpt>
      <trkpt lat="42.7738" lon="0.15999">
        <ele>2112.6</ele>
        <time>2021-01-29T13:11:07Z</time>
      </trkpt>
      <trkpt lat="42.77379" lon="0.15999">
        <ele>2112.8</ele>
        <time>2021-01-29T13:11:08Z</time>
      </trkpt>
      <trkpt lat="42.77379" lon="0.16">
        <ele>2113</ele>
        <time>2021-01-29T13:11:09Z</time>
      </trkpt>
      <trkpt lat="42.77379" lon="0.16001">
        <ele>2113.2</ele>
        <time>2021-01-29T13:11:10Z</time>
      </trkpt>
      <trkpt lat="42.77379" lon="0.16002">
        <ele>2113.4</ele>
        <time>2021-01-29T13:11:11Z</time>
      </trkpt>
      <trkpt lat="42.77378" lon="0.16003">
        <ele>2113.8</ele>
        <time>2021-01-29T13:11:12Z</time>
      </trkpt>
      <trkpt lat="42.77378" lon="0.16004">
        <ele>2114</ele>
        <time>2021-01-29T13:11:13Z</time>
      </trkpt>
      <trkpt lat="42.77378" lon="0.16004">
        <ele>2114.2</ele>
        <time>2021-01-29T13:11:14Z</time>
      </trkpt>
      <trkpt lat="42.77377" lon="0.16005">
        <ele>2114.6</ele>
        <time>2021-01-29T13:11:15Z</time>
      </trkpt>
      <trkpt lat="42.77377" lon="0.16006">
        <ele>2114.6</ele>
        <time>2021-01-29T13:11:16Z</time>
      </trkpt>
      <trkpt lat="42.77377" lon="0.16007">
        <ele>2115</ele>
        <time>2021-01-29T13:11:17Z</time>
      </trkpt>
      <trkpt lat="42.77376" lon="0.16008">
        <ele>2115.2</ele>
        <time>2021-01-29T13:11:18Z</time>
      </trkpt>
      <trkpt lat="42.77375" lon="0.16009">
        <ele>2115.2</ele>
        <time>2021-01-29T13:11:19Z</time>
      </trkpt>
      <trkpt lat="42.77375" lon="0.16009">
        <ele>2115.4</ele>
        <time>2021-01-29T13:11:20Z</time>
      </trkpt>
      <trkpt lat="42.77375" lon="0.1601">
        <ele>2115.6</ele>
        <time>2021-01-29T13:11:21Z</time>
      </trkpt>
      <trkpt lat="42.77375" lon="0.16011">
        <ele>2115.6</ele>
        <time>2021-01-29T13:11:22Z</time>
      </trkpt>
      <trkpt lat="42.77374" lon="0.16012">
        <ele>2115.8</ele>
        <time>2021-01-29T13:11:23Z</time>
      </trkpt>
      <trkpt lat="42.77373" lon="0.16013">
        <ele>2116</ele>
        <time>2021-01-29T13:11:24Z</time>
      </trkpt>
      <trkpt lat="42.77373" lon="0.16013">
        <ele>2116</ele>
        <time>2021-01-29T13:11:25Z</time>
      </trkpt>
      <trkpt lat="42.77372" lon="0.16014">
        <ele>2116.2</ele>
        <time>2021-01-29T13:11:26Z</time>
      </trkpt>
      <trkpt lat="42.77372" lon="0.16015">
        <ele>2116.4</ele>
        <time>2021-01-29T13:11:27Z</time>
      </trkpt>
      <trkpt lat="42.77371" lon="0.16015">
        <ele>2116.4</ele>
        <time>2021-01-29T13:11:28Z</time>
      </trkpt>
      <trkpt lat="42.7737" lon="0.16016">
        <ele>2116.6</ele>
        <time>2021-01-29T13:11:29Z</time>
      </trkpt>
      <trkpt lat="42.7737" lon="0.16017">
        <ele>2116.6</ele>
        <time>2021-01-29T13:11:30Z</time>
      </trkpt>
      <trkpt lat="42.77369" lon="0.16018">
        <ele>2116.6</ele>
        <time>2021-01-29T13:11:31Z</time>
      </trkpt>
      <trkpt lat="42.77368" lon="0.16018">
        <ele>2116.8</ele>
        <time>2021-01-29T13:11:32Z</time>
      </trkpt>
      <trkpt lat="42.77368" lon="0.16019">
        <ele>2117</ele>
        <time>2021-01-29T13:11:33Z</time>
      </trkpt>
      <trkpt lat="42.77367" lon="0.1602">
        <ele>2117.2</ele>
        <time>2021-01-29T13:11:34Z</time>
      </trkpt>
      <trkpt lat="42.77367" lon="0.16021">
        <ele>2117.4</ele>
        <time>2021-01-29T13:11:35Z</time>
      </trkpt>
      <trkpt lat="42.77367" lon="0.16021">
        <ele>2117.6</ele>
        <time>2021-01-29T13:11:36Z</time>
      </trkpt>
      <trkpt lat="42.77366" lon="0.16022">
        <ele>2117.6</ele>
        <time>2021-01-29T13:11:37Z</time>
      </trkpt>
      <trkpt lat="42.77366" lon="0.16023">
        <ele>2118</ele>
        <time>2021-01-29T13:11:38Z</time>
      </trkpt>
      <trkpt lat="42.77365" lon="0.16023">
        <ele>2118</ele>
        <time>2021-01-29T13:11:39Z</time>
      </trkpt>
      <trkpt lat="42.77365" lon="0.16024">
        <ele>2118.2</ele>
        <time>2021-01-29T13:11:40Z</time>
      </trkpt>
      <trkpt lat="42.77364" lon="0.16025">
        <ele>2118.4</ele>
        <time>2021-01-29T13:11:41Z</time>
      </trkpt>
      <trkpt lat="42.77364" lon="0.16026">
        <ele>2118.4</ele>
        <time>2021-01-29T13:11:42Z</time>
      </trkpt>
      <trkpt lat="42.77364" lon="0.16026">
        <ele>2118.6</ele>
        <time>2021-01-29T13:11:43Z</time>
      </trkpt>
      <trkpt lat="42.77363" lon="0.16027">
        <ele>2118.8</ele>
        <time>2021-01-29T13:11:44Z</time>
      </trkpt>
      <trkpt lat="42.77363" lon="0.16028">
        <ele>2118.8</ele>
        <time>2021-01-29T13:11:45Z</time>
      </trkpt>
      <trkpt lat="42.77363" lon="0.16029">
        <ele>2119</ele>
        <time>2021-01-29T13:11:46Z</time>
      </trkpt>
      <trkpt lat="42.77362" lon="0.1603">
        <ele>2119</ele>
        <time>2021-01-29T13:11:47Z</time>
      </trkpt>
      <trkpt lat="42.77362" lon="0.16031">
        <ele>2119</ele>
        <time>2021-01-29T13:11:48Z</time>
      </trkpt>
      <trkpt lat="42.77361" lon="0.16031">
        <ele>2119.4</ele>
        <time>2021-01-29T13:11:49Z</time>
      </trkpt>
      <trkpt lat="42.77361" lon="0.16032">
        <ele>2119.4</ele>
        <time>2021-01-29T13:11:50Z</time>
      </trkpt>
      <trkpt lat="42.7736" lon="0.16033">
        <ele>2119.6</ele>
        <time>2021-01-29T13:11:51Z</time>
      </trkpt>
      <trkpt lat="42.7736" lon="0.16034">
        <ele>2120</ele>
        <time>2021-01-29T13:11:52Z</time>
      </trkpt>
      <trkpt lat="42.7736" lon="0.16035">
        <ele>2119.8</ele>
        <time>2021-01-29T13:11:53Z</time>
      </trkpt>
      <trkpt lat="42.77359" lon="0.16035">
        <ele>2120.2</ele>
        <time>2021-01-29T13:11:54Z</time>
      </trkpt>
      <trkpt lat="42.77359" lon="0.16036">
        <ele>2120.2</ele>
        <time>2021-01-29T13:11:55Z</time>
      </trkpt>
      <trkpt lat="42.77359" lon="0.16037">
        <ele>2120.4</ele>
        <time>2021-01-29T13:11:56Z</time>
      </trkpt>
      <trkpt lat="42.77359" lon="0.16038">
        <ele>2120.6</ele>
        <time>2021-01-29T13:11:57Z</time>
      </trkpt>
      <trkpt lat="42.77359" lon="0.16039">
        <ele>2120.8</ele>
        <time>2021-01-29T13:11:58Z</time>
      </trkpt>
      <trkpt lat="42.77359" lon="0.16039">
        <ele>2121</ele>
        <time>2021-01-29T13:11:59Z</time>
      </trkpt>
      <trkpt lat="42.77358" lon="0.1604">
        <ele>2121.2</ele>
        <time>2021-01-29T13:12:00Z</time>
      </trkpt>
      <trkpt lat="42.77358" lon="0.16041">
        <ele>2121.2</ele>
        <time>2021-01-29T13:12:01Z</time>
      </trkpt>
      <trkpt lat="42.77358" lon="0.16042">
        <ele>2121.6</ele>
        <time>2021-01-29T13:12:02Z</time>
      </trkpt>
      <trkpt lat="42.77358" lon="0.16043">
        <ele>2121.6</ele>
        <time>2021-01-29T13:12:03Z</time>
      </trkpt>
      <trkpt lat="42.77357" lon="0.16044">
        <ele>2121.8</ele>
        <time>2021-01-29T13:12:04Z</time>
      </trkpt>
      <trkpt lat="42.77357" lon="0.16044">
        <ele>2122</ele>
        <time>2021-01-29T13:12:05Z</time>
      </trkpt>
      <trkpt lat="42.77357" lon="0.16045">
        <ele>2122</ele>
        <time>2021-01-29T13:12:06Z</time>
      </trkpt>
      <trkpt lat="42.77356" lon="0.16046">
        <ele>2122.4</ele>
        <time>2021-01-29T13:12:07Z</time>
      </trkpt>
      <trkpt lat="42.77356" lon="0.16046">
        <ele>2122.4</ele>
        <time>2021-01-29T13:12:08Z</time>
      </trkpt>
      <trkpt lat="42.77355" lon="0.16047">
        <ele>2122.6</ele>
        <time>2021-01-29T13:12:09Z</time>
      </trkpt>
      <trkpt lat="42.77355" lon="0.16048">
        <ele>2122.8</ele>
        <time>2021-01-29T13:12:10Z</time>
      </trkpt>
      <trkpt lat="42.77355" lon="0.16048">
        <ele>2122.8</ele>
        <time>2021-01-29T13:12:11Z</time>
      </trkpt>
      <trkpt lat="42.77354" lon="0.16049">
        <ele>2123.2</ele>
        <time>2021-01-29T13:12:12Z</time>
      </trkpt>
      <trkpt lat="42.77354" lon="0.1605">
        <ele>2123.4</ele>
        <time>2021-01-29T13:12:13Z</time>
      </trkpt>
      <trkpt lat="42.77353" lon="0.1605">
        <ele>2123.4</ele>
        <time>2021-01-29T13:12:14Z</time>
      </trkpt>
      <trkpt lat="42.77353" lon="0.16051">
        <ele>2123.6</ele>
        <time>2021-01-29T13:12:15Z</time>
      </trkpt>
      <trkpt lat="42.77353" lon="0.16052">
        <ele>2123.6</ele>
        <time>2021-01-29T13:12:16Z</time>
      </trkpt>
      <trkpt lat="42.77352" lon="0.16053">
        <ele>2123.6</ele>
        <time>2021-01-29T13:12:17Z</time>
      </trkpt>
      <trkpt lat="42.77352" lon="0.16053">
        <ele>2124</ele>
        <time>2021-01-29T13:12:18Z</time>
      </trkpt>
      <trkpt lat="42.77352" lon="0.16054">
        <ele>2124</ele>
        <time>2021-01-29T13:12:19Z</time>
      </trkpt>
      <trkpt lat="42.77351" lon="0.16055">
        <ele>2124.2</ele>
        <time>2021-01-29T13:12:20Z</time>
      </trkpt>
      <trkpt lat="42.77351" lon="0.16056">
        <ele>2124.6</ele>
        <time>2021-01-29T13:12:21Z</time>
      </trkpt>
      <trkpt lat="42.77351" lon="0.16056">
        <ele>2124.6</ele>
        <time>2021-01-29T13:12:22Z</time>
      </trkpt>
      <trkpt lat="42.7735" lon="0.16057">
        <ele>2124.6</ele>
        <time>2021-01-29T13:12:23Z</time>
      </trkpt>
      <trkpt lat="42.7735" lon="0.16058">
        <ele>2125</ele>
        <time>2021-01-29T13:12:24Z</time>
      </trkpt>
      <trkpt lat="42.7735" lon="0.16059">
        <ele>2125.2</ele>
        <time>2021-01-29T13:12:25Z</time>
      </trkpt>
      <trkpt lat="42.7735" lon="0.16059">
        <ele>2125.4</ele>
        <time>2021-01-29T13:12:26Z</time>
      </trkpt>
      <trkpt lat="42.77349" lon="0.1606">
        <ele>2125.6</ele>
        <time>2021-01-29T13:12:27Z</time>
      </trkpt>
      <trkpt lat="42.77349" lon="0.16061">
        <ele>2125.6</ele>
        <time>2021-01-29T13:12:28Z</time>
      </trkpt>
      <trkpt lat="42.77349" lon="0.16061">
        <ele>2126.2</ele>
        <time>2021-01-29T13:12:29Z</time>
      </trkpt>
      <trkpt lat="42.77348" lon="0.16062">
        <ele>2126.2</ele>
        <time>2021-01-29T13:12:30Z</time>
      </trkpt>
      <trkpt lat="42.77348" lon="0.16063">
        <ele>2126.6</ele>
        <time>2021-01-29T13:12:31Z</time>
      </trkpt>
      <trkpt lat="42.77347" lon="0.16063">
        <ele>2126.8</ele>
        <time>2021-01-29T13:12:32Z</time>
      </trkpt>
      <trkpt lat="42.77347" lon="0.16064">
        <ele>2126.8</ele>
        <time>2021-01-29T13:12:33Z</time>
      </trkpt>
      <trkpt lat="42.77347" lon="0.16065">
        <ele>2127</ele>
        <time>2021-01-29T13:12:34Z</time>
      </trkpt>
      <trkpt lat="42.77346" lon="0.16065">
        <ele>2127.2</ele>
        <time>2021-01-29T13:12:35Z</time>
      </trkpt>
      <trkpt lat="42.77346" lon="0.16066">
        <ele>2127.2</ele>
        <time>2021-01-29T13:12:36Z</time>
      </trkpt>
      <trkpt lat="42.77346" lon="0.16067">
        <ele>2127.4</ele>
        <time>2021-01-29T13:12:37Z</time>
      </trkpt>
      <trkpt lat="42.77346" lon="0.16067">
        <ele>2127.4</ele>
        <time>2021-01-29T13:12:38Z</time>
      </trkpt>
      <trkpt lat="42.77345" lon="0.16068">
        <ele>2127.4</ele>
        <time>2021-01-29T13:12:39Z</time>
      </trkpt>
      <trkpt lat="42.77344" lon="0.16069">
        <ele>2127.8</ele>
        <time>2021-01-29T13:12:40Z</time>
      </trkpt>
      <trkpt lat="42.77344" lon="0.16069">
        <ele>2127.8</ele>
        <time>2021-01-29T13:12:41Z</time>
      </trkpt>
      <trkpt lat="42.77343" lon="0.1607">
        <ele>2128.2</ele>
        <time>2021-01-29T13:12:42Z</time>
      </trkpt>
      <trkpt lat="42.77343" lon="0.1607">
        <ele>2128.4</ele>
        <time>2021-01-29T13:12:43Z</time>
      </trkpt>
      <trkpt lat="42.77343" lon="0.16071">
        <ele>2128.6</ele>
        <time>2021-01-29T13:12:44Z</time>
      </trkpt>
      <trkpt lat="42.77342" lon="0.16071">
        <ele>2129</ele>
        <time>2021-01-29T13:12:45Z</time>
      </trkpt>
      <trkpt lat="42.77342" lon="0.16072">
        <ele>2129</ele>
        <time>2021-01-29T13:12:46Z</time>
      </trkpt>
      <trkpt lat="42.77342" lon="0.16072">
        <ele>2129.2</ele>
        <time>2021-01-29T13:12:47Z</time>
      </trkpt>
      <trkpt lat="42.77341" lon="0.16073">
        <ele>2129.6</ele>
        <time>2021-01-29T13:12:48Z</time>
      </trkpt>
      <trkpt lat="42.77341" lon="0.16074">
        <ele>2129.8</ele>
        <time>2021-01-29T13:12:49Z</time>
      </trkpt>
      <trkpt lat="42.7734" lon="0.16074">
        <ele>2130</ele>
        <time>2021-01-29T13:12:50Z</time>
      </trkpt>
      <trkpt lat="42.7734" lon="0.16074">
        <ele>2130.4</ele>
        <time>2021-01-29T13:12:51Z</time>
      </trkpt>
      <trkpt lat="42.77339" lon="0.16075">
        <ele>2130.4</ele>
        <time>2021-01-29T13:12:52Z</time>
      </trkpt>
      <trkpt lat="42.77338" lon="0.16074">
        <ele>2130.8</ele>
        <time>2021-01-29T13:12:53Z</time>
      </trkpt>
      <trkpt lat="42.77338" lon="0.16074">
        <ele>2131</ele>
        <time>2021-01-29T13:12:54Z</time>
      </trkpt>
      <trkpt lat="42.77338" lon="0.16074">
        <ele>2131.2</ele>
        <time>2021-01-29T13:12:55Z</time>
      </trkpt>
      <trkpt lat="42.77337" lon="0.16073">
        <ele>2131.6</ele>
        <time>2021-01-29T13:12:56Z</time>
      </trkpt>
      <trkpt lat="42.77337" lon="0.16073">
        <ele>2131.8</ele>
        <time>2021-01-29T13:12:57Z</time>
      </trkpt>
      <trkpt lat="42.77337" lon="0.16073">
        <ele>2132</ele>
        <time>2021-01-29T13:12:58Z</time>
      </trkpt>
      <trkpt lat="42.77336" lon="0.16072">
        <ele>2132.2</ele>
        <time>2021-01-29T13:12:59Z</time>
      </trkpt>
      <trkpt lat="42.77336" lon="0.16071">
        <ele>2132.2</ele>
        <time>2021-01-29T13:13:00Z</time>
      </trkpt>
      <trkpt lat="42.77336" lon="0.1607">
        <ele>2132.6</ele>
        <time>2021-01-29T13:13:01Z</time>
      </trkpt>
      <trkpt lat="42.77336" lon="0.1607">
        <ele>2132.6</ele>
        <time>2021-01-29T13:13:02Z</time>
      </trkpt>
      <trkpt lat="42.77335" lon="0.1607">
        <ele>2132.6</ele>
        <time>2021-01-29T13:13:03Z</time>
      </trkpt>
      <trkpt lat="42.77335" lon="0.1607">
        <ele>2132.6</ele>
        <time>2021-01-29T13:13:04Z</time>
      </trkpt>
      <trkpt lat="42.77335" lon="0.1607">
        <ele>2132.6</ele>
        <time>2021-01-29T13:13:05Z</time>
      </trkpt>
      <trkpt lat="42.77335" lon="0.1607">
        <ele>2132.4</ele>
        <time>2021-01-29T13:13:06Z</time>
      </trkpt>
      <trkpt lat="42.77335" lon="0.1607">
        <ele>2132.4</ele>
        <time>2021-01-29T13:13:07Z</time>
      </trkpt>
      <trkpt lat="42.77335" lon="0.1607">
        <ele>2132.4</ele>
        <time>2021-01-29T13:13:08Z</time>
      </trkpt>
      <trkpt lat="42.77335" lon="0.1607">
        <ele>2132.4</ele>
        <time>2021-01-29T13:13:09Z</time>
      </trkpt>
      <trkpt lat="42.77335" lon="0.1607">
        <ele>2132.4</ele>
        <time>2021-01-29T13:13:10Z</time>
      </trkpt>
      <trkpt lat="42.77335" lon="0.1607">
        <ele>2132.4</ele>
        <time>2021-01-29T13:13:11Z</time>
      </trkpt>
      <trkpt lat="42.77335" lon="0.1607">
        <ele>2132.4</ele>
        <time>2021-01-29T13:13:12Z</time>
      </trkpt>
      <trkpt lat="42.77335" lon="0.1607">
        <ele>2132.6</ele>
        <time>2021-01-29T13:13:13Z</time>
      </trkpt>
      <trkpt lat="42.77335" lon="0.1607">
        <ele>2132.6</ele>
        <time>2021-01-29T13:13:14Z</time>
      </trkpt>
      <trkpt lat="42.77335" lon="0.1607">
        <ele>2132.6</ele>
        <time>2021-01-29T13:13:15Z</time>
      </trkpt>
      <trkpt lat="42.77335" lon="0.1607">
        <ele>2132.6</ele>
        <time>2021-01-29T13:13:16Z</time>
      </trkpt>
      <trkpt lat="42.77335" lon="0.1607">
        <ele>2132.6</ele>
        <time>2021-01-29T13:13:17Z</time>
      </trkpt>
      <trkpt lat="42.77335" lon="0.1607">
        <ele>2132.6</ele>
        <time>2021-01-29T13:13:18Z</time>
      </trkpt>
      <trkpt lat="42.77335" lon="0.1607">
        <ele>2132.6</ele>
        <time>2021-01-29T13:13:19Z</time>
      </trkpt>
      <trkpt lat="42.77335" lon="0.1607">
        <ele>2132.6</ele>
        <time>2021-01-29T13:13:20Z</time>
      </trkpt>
      <trkpt lat="42.77335" lon="0.1607">
        <ele>2132.6</ele>
        <time>2021-01-29T13:13:21Z</time>
      </trkpt>
      <trkpt lat="42.77335" lon="0.1607">
        <ele>2132.6</ele>
        <time>2021-01-29T13:13:22Z</time>
      </trkpt>
      <trkpt lat="42.77335" lon="0.1607">
        <ele>2132.6</ele>
        <time>2021-01-29T13:13:23Z</time>
      </trkpt>
      <trkpt lat="42.77335" lon="0.1607">
        <ele>2132.6</ele>
        <time>2021-01-29T13:13:24Z</time>
      </trkpt>
      <trkpt lat="42.77335" lon="0.1607">
        <ele>2132.6</ele>
        <time>2021-01-29T13:13:25Z</time>
      </trkpt>
      <trkpt lat="42.77335" lon="0.1607">
        <ele>2132.6</ele>
        <time>2021-01-29T13:13:26Z</time>
      </trkpt>
      <trkpt lat="42.77335" lon="0.1607">
        <ele>2132.6</ele>
        <time>2021-01-29T13:13:27Z</time>
      </trkpt>
      <trkpt lat="42.77335" lon="0.1607">
        <ele>2132.6</ele>
        <time>2021-01-29T13:13:28Z</time>
      </trkpt>
      <trkpt lat="42.77335" lon="0.1607">
        <ele>2132.4</ele>
        <time>2021-01-29T13:13:29Z</time>
      </trkpt>
      <trkpt lat="42.77335" lon="0.1607">
        <ele>2132.4</ele>
        <time>2021-01-29T13:13:30Z</time>
      </trkpt>
      <trkpt lat="42.77335" lon="0.1607">
        <ele>2132.4</ele>
        <time>2021-01-29T13:13:31Z</time>
      </trkpt>
      <trkpt lat="42.77335" lon="0.1607">
        <ele>2132.4</ele>
        <time>2021-01-29T13:13:32Z</time>
      </trkpt>
      <trkpt lat="42.77335" lon="0.1607">
        <ele>2132.4</ele>
        <time>2021-01-29T13:13:33Z</time>
      </trkpt>
      <trkpt lat="42.77335" lon="0.1607">
        <ele>2132.4</ele>
        <time>2021-01-29T13:13:34Z</time>
      </trkpt>
      <trkpt lat="42.77335" lon="0.1607">
        <ele>2132.4</ele>
        <time>2021-01-29T13:13:35Z</time>
      </trkpt>
      <trkpt lat="42.77335" lon="0.1607">
        <ele>2132.4</ele>
        <time>2021-01-29T13:13:36Z</time>
      </trkpt>
      <trkpt lat="42.77335" lon="0.1607">
        <ele>2132.4</ele>
        <time>2021-01-29T13:13:37Z</time>
      </trkpt>
      <trkpt lat="42.77335" lon="0.1607">
        <ele>2132.4</ele>
        <time>2021-01-29T13:13:38Z</time>
      </trkpt>
      <trkpt lat="42.77335" lon="0.1607">
        <ele>2132.4</ele>
        <time>2021-01-29T13:13:39Z</time>
      </trkpt>
      <trkpt lat="42.77335" lon="0.1607">
        <ele>2132.4</ele>
        <time>2021-01-29T13:13:40Z</time>
      </trkpt>
      <trkpt lat="42.77335" lon="0.1607">
        <ele>2132.4</ele>
        <time>2021-01-29T13:13:41Z</time>
      </trkpt>
      <trkpt lat="42.77335" lon="0.1607">
        <ele>2132.4</ele>
        <time>2021-01-29T13:13:42Z</time>
      </trkpt>
      <trkpt lat="42.77335" lon="0.1607">
        <ele>2132.4</ele>
        <time>2021-01-29T13:13:43Z</time>
      </trkpt>
      <trkpt lat="42.77335" lon="0.1607">
        <ele>2132.4</ele>
        <time>2021-01-29T13:13:44Z</time>
      </trkpt>
      <trkpt lat="42.77335" lon="0.1607">
        <ele>2132.4</ele>
        <time>2021-01-29T13:13:45Z</time>
      </trkpt>
      <trkpt lat="42.77335" lon="0.1607">
        <ele>2132.4</ele>
        <time>2021-01-29T13:13:46Z</time>
      </trkpt>
      <trkpt lat="42.77335" lon="0.1607">
        <ele>2132.4</ele>
        <time>2021-01-29T13:13:47Z</time>
      </trkpt>
      <trkpt lat="42.77335" lon="0.1607">
        <ele>2132.4</ele>
        <time>2021-01-29T13:13:48Z</time>
      </trkpt>
      <trkpt lat="42.77335" lon="0.1607">
        <ele>2132.4</ele>
        <time>2021-01-29T13:13:49Z</time>
      </trkpt>
      <trkpt lat="42.77335" lon="0.1607">
        <ele>2132.4</ele>
        <time>2021-01-29T13:13:50Z</time>
      </trkpt>
      <trkpt lat="42.77335" lon="0.1607">
        <ele>2132.4</ele>
        <time>2021-01-29T13:13:51Z</time>
      </trkpt>
      <trkpt lat="42.77335" lon="0.1607">
        <ele>2132.4</ele>
        <time>2021-01-29T13:13:52Z</time>
      </trkpt>
      <trkpt lat="42.77335" lon="0.1607">
        <ele>2132.4</ele>
        <time>2021-01-29T13:13:53Z</time>
      </trkpt>
      <trkpt lat="42.77335" lon="0.1607">
        <ele>2132.4</ele>
        <time>2021-01-29T13:13:54Z</time>
      </trkpt>
      <trkpt lat="42.77335" lon="0.1607">
        <ele>2132.2</ele>
        <time>2021-01-29T13:13:55Z</time>
      </trkpt>
      <trkpt lat="42.77335" lon="0.1607">
        <ele>2132.2</ele>
        <time>2021-01-29T13:13:56Z</time>
      </trkpt>
      <trkpt lat="42.77335" lon="0.1607">
        <ele>2132.2</ele>
        <time>2021-01-29T13:13:57Z</time>
      </trkpt>
      <trkpt lat="42.77335" lon="0.1607">
        <ele>2132.2</ele>
        <time>2021-01-29T13:13:58Z</time>
      </trkpt>
      <trkpt lat="42.77335" lon="0.1607">
        <ele>2132.2</ele>
        <time>2021-01-29T13:13:59Z</time>
      </trkpt>
      <trkpt lat="42.77335" lon="0.1607">
        <ele>2132.2</ele>
        <time>2021-01-29T13:14:00Z</time>
      </trkpt>
      <trkpt lat="42.77335" lon="0.1607">
        <ele>2132.2</ele>
        <time>2021-01-29T13:14:01Z</time>
      </trkpt>
      <trkpt lat="42.77335" lon="0.1607">
        <ele>2132.2</ele>
        <time>2021-01-29T13:14:02Z</time>
      </trkpt>
      <trkpt lat="42.77335" lon="0.1607">
        <ele>2132.2</ele>
        <time>2021-01-29T13:14:03Z</time>
      </trkpt>
      <trkpt lat="42.77335" lon="0.1607">
        <ele>2132.2</ele>
        <time>2021-01-29T13:14:04Z</time>
      </trkpt>
      <trkpt lat="42.77335" lon="0.1607">
        <ele>2132.2</ele>
        <time>2021-01-29T13:14:05Z</time>
      </trkpt>
      <trkpt lat="42.77335" lon="0.1607">
        <ele>2132.2</ele>
        <time>2021-01-29T13:14:06Z</time>
      </trkpt>
      <trkpt lat="42.77335" lon="0.1607">
        <ele>2132.2</ele>
        <time>2021-01-29T13:14:07Z</time>
      </trkpt>
      <trkpt lat="42.77335" lon="0.1607">
        <ele>2132.2</ele>
        <time>2021-01-29T13:14:08Z</time>
      </trkpt>
      <trkpt lat="42.77335" lon="0.1607">
        <ele>2132.2</ele>
        <time>2021-01-29T13:14:09Z</time>
      </trkpt>
      <trkpt lat="42.77335" lon="0.1607">
        <ele>2132.2</ele>
        <time>2021-01-29T13:14:10Z</time>
      </trkpt>
      <trkpt lat="42.77335" lon="0.1607">
        <ele>2132.2</ele>
        <time>2021-01-29T13:14:11Z</time>
      </trkpt>
      <trkpt lat="42.77335" lon="0.1607">
        <ele>2132.2</ele>
        <time>2021-01-29T13:14:12Z</time>
      </trkpt>
      <trkpt lat="42.77335" lon="0.1607">
        <ele>2132.2</ele>
        <time>2021-01-29T13:14:13Z</time>
      </trkpt>
      <trkpt lat="42.77335" lon="0.1607">
        <ele>2132.2</ele>
        <time>2021-01-29T13:14:14Z</time>
      </trkpt>
      <trkpt lat="42.77335" lon="0.1607">
        <ele>2132.2</ele>
        <time>2021-01-29T13:14:15Z</time>
      </trkpt>
      <trkpt lat="42.77335" lon="0.1607">
        <ele>2132.2</ele>
        <time>2021-01-29T13:14:16Z</time>
      </trkpt>
      <trkpt lat="42.77335" lon="0.1607">
        <ele>2132.2</ele>
        <time>2021-01-29T13:14:17Z</time>
      </trkpt>
      <trkpt lat="42.77335" lon="0.1607">
        <ele>2132.2</ele>
        <time>2021-01-29T13:14:18Z</time>
      </trkpt>
      <trkpt lat="42.77335" lon="0.1607">
        <ele>2132.2</ele>
        <time>2021-01-29T13:14:19Z</time>
      </trkpt>
      <trkpt lat="42.77335" lon="0.1607">
        <ele>2132.2</ele>
        <time>2021-01-29T13:14:20Z</time>
      </trkpt>
      <trkpt lat="42.77335" lon="0.1607">
        <ele>2132.2</ele>
        <time>2021-01-29T13:14:21Z</time>
      </trkpt>
      <trkpt lat="42.77335" lon="0.1607">
        <ele>2132.2</ele>
        <time>2021-01-29T13:14:22Z</time>
      </trkpt>
      <trkpt lat="42.77335" lon="0.1607">
        <ele>2132</ele>
        <time>2021-01-29T13:14:23Z</time>
      </trkpt>
      <trkpt lat="42.77335" lon="0.1607">
        <ele>2132</ele>
        <time>2021-01-29T13:14:24Z</time>
      </trkpt>
      <trkpt lat="42.77335" lon="0.1607">
        <ele>2132</ele>
        <time>2021-01-29T13:14:25Z</time>
      </trkpt>
      <trkpt lat="42.77335" lon="0.1607">
        <ele>2132</ele>
        <time>2021-01-29T13:14:26Z</time>
      </trkpt>
      <trkpt lat="42.77335" lon="0.1607">
        <ele>2132</ele>
        <time>2021-01-29T13:14:27Z</time>
      </trkpt>
      <trkpt lat="42.77335" lon="0.1607">
        <ele>2132</ele>
        <time>2021-01-29T13:14:28Z</time>
      </trkpt>
      <trkpt lat="42.77335" lon="0.1607">
        <ele>2132</ele>
        <time>2021-01-29T13:14:29Z</time>
      </trkpt>
      <trkpt lat="42.77335" lon="0.1607">
        <ele>2132</ele>
        <time>2021-01-29T13:14:30Z</time>
      </trkpt>
      <trkpt lat="42.77335" lon="0.1607">
        <ele>2132</ele>
        <time>2021-01-29T13:14:31Z</time>
      </trkpt>
      <trkpt lat="42.77335" lon="0.1607">
        <ele>2132.2</ele>
        <time>2021-01-29T13:14:32Z</time>
      </trkpt>
      <trkpt lat="42.77335" lon="0.1607">
        <ele>2132.2</ele>
        <time>2021-01-29T13:14:33Z</time>
      </trkpt>
      <trkpt lat="42.77335" lon="0.1607">
        <ele>2132.2</ele>
        <time>2021-01-29T13:14:34Z</time>
      </trkpt>
      <trkpt lat="42.77335" lon="0.1607">
        <ele>2132.2</ele>
        <time>2021-01-29T13:14:35Z</time>
      </trkpt>
      <trkpt lat="42.77335" lon="0.1607">
        <ele>2132.2</ele>
        <time>2021-01-29T13:14:36Z</time>
      </trkpt>
      <trkpt lat="42.77335" lon="0.1607">
        <ele>2132.2</ele>
        <time>2021-01-29T13:14:37Z</time>
      </trkpt>
      <trkpt lat="42.77335" lon="0.1607">
        <ele>2132.2</ele>
        <time>2021-01-29T13:14:38Z</time>
      </trkpt>
      <trkpt lat="42.77335" lon="0.1607">
        <ele>2132.2</ele>
        <time>2021-01-29T13:14:39Z</time>
      </trkpt>
      <trkpt lat="42.77335" lon="0.1607">
        <ele>2132</ele>
        <time>2021-01-29T13:14:40Z</time>
      </trkpt>
      <trkpt lat="42.77335" lon="0.1607">
        <ele>2132</ele>
        <time>2021-01-29T13:14:41Z</time>
      </trkpt>
      <trkpt lat="42.77335" lon="0.1607">
        <ele>2132</ele>
        <time>2021-01-29T13:14:42Z</time>
      </trkpt>
      <trkpt lat="42.77335" lon="0.1607">
        <ele>2132</ele>
        <time>2021-01-29T13:14:43Z</time>
      </trkpt>
      <trkpt lat="42.77335" lon="0.1607">
        <ele>2132</ele>
        <time>2021-01-29T13:14:44Z</time>
      </trkpt>
      <trkpt lat="42.77335" lon="0.1607">
        <ele>2132.2</ele>
        <time>2021-01-29T13:14:45Z</time>
      </trkpt>
      <trkpt lat="42.77335" lon="0.1607">
        <ele>2132.2</ele>
        <time>2021-01-29T13:14:46Z</time>
      </trkpt>
      <trkpt lat="42.77335" lon="0.1607">
        <ele>2132.2</ele>
        <time>2021-01-29T13:14:47Z</time>
      </trkpt>
      <trkpt lat="42.77335" lon="0.1607">
        <ele>2132.2</ele>
        <time>2021-01-29T13:14:48Z</time>
      </trkpt>
      <trkpt lat="42.77335" lon="0.1607">
        <ele>2132.2</ele>
        <time>2021-01-29T13:14:49Z</time>
      </trkpt>
      <trkpt lat="42.77335" lon="0.1607">
        <ele>2132</ele>
        <time>2021-01-29T13:14:50Z</time>
      </trkpt>
      <trkpt lat="42.77335" lon="0.1607">
        <ele>2132</ele>
        <time>2021-01-29T13:14:51Z</time>
      </trkpt>
      <trkpt lat="42.77335" lon="0.1607">
        <ele>2132</ele>
        <time>2021-01-29T13:14:52Z</time>
      </trkpt>
      <trkpt lat="42.77335" lon="0.1607">
        <ele>2132</ele>
        <time>2021-01-29T13:14:53Z</time>
      </trkpt>
      <trkpt lat="42.77335" lon="0.1607">
        <ele>2131.8</ele>
        <time>2021-01-29T13:14:54Z</time>
      </trkpt>
      <trkpt lat="42.77335" lon="0.1607">
        <ele>2131.8</ele>
        <time>2021-01-29T13:14:55Z</time>
      </trkpt>
      <trkpt lat="42.77335" lon="0.1607">
        <ele>2131.8</ele>
        <time>2021-01-29T13:14:56Z</time>
      </trkpt>
      <trkpt lat="42.77335" lon="0.1607">
        <ele>2131.8</ele>
        <time>2021-01-29T13:14:57Z</time>
      </trkpt>
      <trkpt lat="42.77335" lon="0.1607">
        <ele>2131.8</ele>
        <time>2021-01-29T13:14:58Z</time>
      </trkpt>
      <trkpt lat="42.77335" lon="0.1607">
        <ele>2131.8</ele>
        <time>2021-01-29T13:14:59Z</time>
      </trkpt>
      <trkpt lat="42.77335" lon="0.1607">
        <ele>2131.8</ele>
        <time>2021-01-29T13:15:00Z</time>
      </trkpt>
      <trkpt lat="42.77335" lon="0.1607">
        <ele>2131.8</ele>
        <time>2021-01-29T13:15:01Z</time>
      </trkpt>
      <trkpt lat="42.77335" lon="0.1607">
        <ele>2131.8</ele>
        <time>2021-01-29T13:15:02Z</time>
      </trkpt>
      <trkpt lat="42.77335" lon="0.1607">
        <ele>2131.8</ele>
        <time>2021-01-29T13:15:03Z</time>
      </trkpt>
      <trkpt lat="42.77335" lon="0.1607">
        <ele>2131.8</ele>
        <time>2021-01-29T13:15:04Z</time>
      </trkpt>
      <trkpt lat="42.77335" lon="0.1607">
        <ele>2131.8</ele>
        <time>2021-01-29T13:15:05Z</time>
      </trkpt>
      <trkpt lat="42.77335" lon="0.1607">
        <ele>2131.8</ele>
        <time>2021-01-29T13:15:06Z</time>
      </trkpt>
      <trkpt lat="42.77335" lon="0.1607">
        <ele>2131.8</ele>
        <time>2021-01-29T13:15:07Z</time>
      </trkpt>
      <trkpt lat="42.77335" lon="0.1607">
        <ele>2131.8</ele>
        <time>2021-01-29T13:15:08Z</time>
      </trkpt>
      <trkpt lat="42.77335" lon="0.1607">
        <ele>2131.8</ele>
        <time>2021-01-29T13:15:09Z</time>
      </trkpt>
      <trkpt lat="42.77335" lon="0.1607">
        <ele>2131.6</ele>
        <time>2021-01-29T13:15:10Z</time>
      </trkpt>
      <trkpt lat="42.77335" lon="0.1607">
        <ele>2131.8</ele>
        <time>2021-01-29T13:15:11Z</time>
      </trkpt>
      <trkpt lat="42.77335" lon="0.1607">
        <ele>2131.8</ele>
        <time>2021-01-29T13:15:12Z</time>
      </trkpt>
      <trkpt lat="42.77335" lon="0.1607">
        <ele>2131.8</ele>
        <time>2021-01-29T13:15:13Z</time>
      </trkpt>
      <trkpt lat="42.77335" lon="0.1607">
        <ele>2131.8</ele>
        <time>2021-01-29T13:15:14Z</time>
      </trkpt>
      <trkpt lat="42.77335" lon="0.1607">
        <ele>2131.8</ele>
        <time>2021-01-29T13:15:15Z</time>
      </trkpt>
      <trkpt lat="42.77335" lon="0.1607">
        <ele>2131.8</ele>
        <time>2021-01-29T13:15:16Z</time>
      </trkpt>
      <trkpt lat="42.77335" lon="0.1607">
        <ele>2131.8</ele>
        <time>2021-01-29T13:15:17Z</time>
      </trkpt>
      <trkpt lat="42.77335" lon="0.1607">
        <ele>2131.8</ele>
        <time>2021-01-29T13:15:18Z</time>
      </trkpt>
      <trkpt lat="42.77335" lon="0.1607">
        <ele>2131.8</ele>
        <time>2021-01-29T13:15:19Z</time>
      </trkpt>
      <trkpt lat="42.77335" lon="0.1607">
        <ele>2131.8</ele>
        <time>2021-01-29T13:15:20Z</time>
      </trkpt>
      <trkpt lat="42.77335" lon="0.1607">
        <ele>2131.8</ele>
        <time>2021-01-29T13:15:21Z</time>
      </trkpt>
      <trkpt lat="42.77335" lon="0.1607">
        <ele>2132</ele>
        <time>2021-01-29T13:15:22Z</time>
      </trkpt>
      <trkpt lat="42.77335" lon="0.1607">
        <ele>2132</ele>
        <time>2021-01-29T13:15:23Z</time>
      </trkpt>
      <trkpt lat="42.77335" lon="0.1607">
        <ele>2132</ele>
        <time>2021-01-29T13:15:24Z</time>
      </trkpt>
      <trkpt lat="42.77335" lon="0.1607">
        <ele>2132</ele>
        <time>2021-01-29T13:15:25Z</time>
      </trkpt>
      <trkpt lat="42.77335" lon="0.1607">
        <ele>2132</ele>
        <time>2021-01-29T13:15:26Z</time>
      </trkpt>
      <trkpt lat="42.77335" lon="0.1607">
        <ele>2132</ele>
        <time>2021-01-29T13:15:27Z</time>
      </trkpt>
      <trkpt lat="42.77335" lon="0.1607">
        <ele>2132.2</ele>
        <time>2021-01-29T13:15:28Z</time>
      </trkpt>
      <trkpt lat="42.77335" lon="0.1607">
        <ele>2132.2</ele>
        <time>2021-01-29T13:15:29Z</time>
      </trkpt>
      <trkpt lat="42.77335" lon="0.1607">
        <ele>2132.2</ele>
        <time>2021-01-29T13:15:30Z</time>
      </trkpt>
      <trkpt lat="42.77335" lon="0.1607">
        <ele>2132.2</ele>
        <time>2021-01-29T13:15:31Z</time>
      </trkpt>
      <trkpt lat="42.77335" lon="0.1607">
        <ele>2132.2</ele>
        <time>2021-01-29T13:15:32Z</time>
      </trkpt>
      <trkpt lat="42.77335" lon="0.1607">
        <ele>2132.2</ele>
        <time>2021-01-29T13:15:33Z</time>
      </trkpt>
      <trkpt lat="42.77335" lon="0.1607">
        <ele>2132.4</ele>
        <time>2021-01-29T13:15:34Z</time>
      </trkpt>
      <trkpt lat="42.77335" lon="0.1607">
        <ele>2132.2</ele>
        <time>2021-01-29T13:15:35Z</time>
      </trkpt>
      <trkpt lat="42.77335" lon="0.1607">
        <ele>2132.2</ele>
        <time>2021-01-29T13:15:36Z</time>
      </trkpt>
      <trkpt lat="42.77335" lon="0.1607">
        <ele>2132.2</ele>
        <time>2021-01-29T13:15:37Z</time>
      </trkpt>
      <trkpt lat="42.77335" lon="0.1607">
        <ele>2132.2</ele>
        <time>2021-01-29T13:15:38Z</time>
      </trkpt>
      <trkpt lat="42.77335" lon="0.1607">
        <ele>2132.2</ele>
        <time>2021-01-29T13:15:39Z</time>
      </trkpt>
      <trkpt lat="42.77335" lon="0.1607">
        <ele>2132.2</ele>
        <time>2021-01-29T13:15:40Z</time>
      </trkpt>
      <trkpt lat="42.77335" lon="0.1607">
        <ele>2132.2</ele>
        <time>2021-01-29T13:15:41Z</time>
      </trkpt>
      <trkpt lat="42.77335" lon="0.1607">
        <ele>2132</ele>
        <time>2021-01-29T13:15:42Z</time>
      </trkpt>
      <trkpt lat="42.77335" lon="0.1607">
        <ele>2132</ele>
        <time>2021-01-29T13:15:43Z</time>
      </trkpt>
      <trkpt lat="42.77335" lon="0.1607">
        <ele>2132</ele>
        <time>2021-01-29T13:15:44Z</time>
      </trkpt>
      <trkpt lat="42.77335" lon="0.1607">
        <ele>2132</ele>
        <time>2021-01-29T13:15:45Z</time>
      </trkpt>
      <trkpt lat="42.77335" lon="0.1607">
        <ele>2132</ele>
        <time>2021-01-29T13:15:46Z</time>
      </trkpt>
      <trkpt lat="42.77335" lon="0.1607">
        <ele>2131.8</ele>
        <time>2021-01-29T13:15:47Z</time>
      </trkpt>
      <trkpt lat="42.77335" lon="0.1607">
        <ele>2131.8</ele>
        <time>2021-01-29T13:15:48Z</time>
      </trkpt>
      <trkpt lat="42.77335" lon="0.1607">
        <ele>2131.8</ele>
        <time>2021-01-29T13:15:49Z</time>
      </trkpt>
      <trkpt lat="42.77335" lon="0.1607">
        <ele>2131.8</ele>
        <time>2021-01-29T13:15:50Z</time>
      </trkpt>
      <trkpt lat="42.77335" lon="0.1607">
        <ele>2131.8</ele>
        <time>2021-01-29T13:15:51Z</time>
      </trkpt>
      <trkpt lat="42.77335" lon="0.1607">
        <ele>2131.8</ele>
        <time>2021-01-29T13:15:52Z</time>
      </trkpt>
      <trkpt lat="42.77335" lon="0.1607">
        <ele>2131.8</ele>
        <time>2021-01-29T13:15:53Z</time>
      </trkpt>
      <trkpt lat="42.77335" lon="0.1607">
        <ele>2131.8</ele>
        <time>2021-01-29T13:15:54Z</time>
      </trkpt>
      <trkpt lat="42.77335" lon="0.1607">
        <ele>2131.8</ele>
        <time>2021-01-29T13:15:55Z</time>
      </trkpt>
      <trkpt lat="42.77335" lon="0.1607">
        <ele>2131.8</ele>
        <time>2021-01-29T13:15:56Z</time>
      </trkpt>
      <trkpt lat="42.77335" lon="0.1607">
        <ele>2131.8</ele>
        <time>2021-01-29T13:15:57Z</time>
      </trkpt>
      <trkpt lat="42.77335" lon="0.1607">
        <ele>2131.8</ele>
        <time>2021-01-29T13:15:58Z</time>
      </trkpt>
      <trkpt lat="42.77335" lon="0.1607">
        <ele>2131.8</ele>
        <time>2021-01-29T13:15:59Z</time>
      </trkpt>
      <trkpt lat="42.77335" lon="0.1607">
        <ele>2131.8</ele>
        <time>2021-01-29T13:16:00Z</time>
      </trkpt>
      <trkpt lat="42.77335" lon="0.1607">
        <ele>2131.8</ele>
        <time>2021-01-29T13:16:01Z</time>
      </trkpt>
      <trkpt lat="42.77335" lon="0.1607">
        <ele>2131.8</ele>
        <time>2021-01-29T13:16:02Z</time>
      </trkpt>
      <trkpt lat="42.77335" lon="0.1607">
        <ele>2131.8</ele>
        <time>2021-01-29T13:16:03Z</time>
      </trkpt>
      <trkpt lat="42.77335" lon="0.1607">
        <ele>2131.8</ele>
        <time>2021-01-29T13:16:04Z</time>
      </trkpt>
      <trkpt lat="42.77335" lon="0.1607">
        <ele>2131.8</ele>
        <time>2021-01-29T13:16:05Z</time>
      </trkpt>
      <trkpt lat="42.77335" lon="0.1607">
        <ele>2131.8</ele>
        <time>2021-01-29T13:16:06Z</time>
      </trkpt>
      <trkpt lat="42.77335" lon="0.1607">
        <ele>2131.8</ele>
        <time>2021-01-29T13:16:07Z</time>
      </trkpt>
      <trkpt lat="42.77335" lon="0.1607">
        <ele>2131.8</ele>
        <time>2021-01-29T13:16:08Z</time>
      </trkpt>
      <trkpt lat="42.77335" lon="0.1607">
        <ele>2131.8</ele>
        <time>2021-01-29T13:16:09Z</time>
      </trkpt>
      <trkpt lat="42.77335" lon="0.1607">
        <ele>2131.8</ele>
        <time>2021-01-29T13:16:10Z</time>
      </trkpt>
      <trkpt lat="42.77335" lon="0.1607">
        <ele>2131.8</ele>
        <time>2021-01-29T13:16:11Z</time>
      </trkpt>
      <trkpt lat="42.77335" lon="0.1607">
        <ele>2131.8</ele>
        <time>2021-01-29T13:16:12Z</time>
      </trkpt>
      <trkpt lat="42.77335" lon="0.1607">
        <ele>2131.8</ele>
        <time>2021-01-29T13:16:13Z</time>
      </trkpt>
      <trkpt lat="42.77335" lon="0.1607">
        <ele>2131.8</ele>
        <time>2021-01-29T13:16:14Z</time>
      </trkpt>
      <trkpt lat="42.77335" lon="0.1607">
        <ele>2131.8</ele>
        <time>2021-01-29T13:16:15Z</time>
      </trkpt>
      <trkpt lat="42.77335" lon="0.1607">
        <ele>2131.8</ele>
        <time>2021-01-29T13:16:16Z</time>
      </trkpt>
      <trkpt lat="42.77335" lon="0.1607">
        <ele>2131.6</ele>
        <time>2021-01-29T13:16:17Z</time>
      </trkpt>
      <trkpt lat="42.77335" lon="0.1607">
        <ele>2131.6</ele>
        <time>2021-01-29T13:16:18Z</time>
      </trkpt>
      <trkpt lat="42.77335" lon="0.1607">
        <ele>2131.6</ele>
        <time>2021-01-29T13:16:19Z</time>
      </trkpt>
      <trkpt lat="42.77335" lon="0.1607">
        <ele>2131.6</ele>
        <time>2021-01-29T13:16:20Z</time>
      </trkpt>
      <trkpt lat="42.77335" lon="0.1607">
        <ele>2131.6</ele>
        <time>2021-01-29T13:16:21Z</time>
      </trkpt>
      <trkpt lat="42.77335" lon="0.1607">
        <ele>2131.6</ele>
        <time>2021-01-29T13:16:22Z</time>
      </trkpt>
      <trkpt lat="42.77335" lon="0.1607">
        <ele>2131.6</ele>
        <time>2021-01-29T13:16:23Z</time>
      </trkpt>
      <trkpt lat="42.77335" lon="0.1607">
        <ele>2131.6</ele>
        <time>2021-01-29T13:16:24Z</time>
      </trkpt>
      <trkpt lat="42.77335" lon="0.1607">
        <ele>2131.6</ele>
        <time>2021-01-29T13:16:25Z</time>
      </trkpt>
      <trkpt lat="42.77335" lon="0.1607">
        <ele>2131.4</ele>
        <time>2021-01-29T13:16:26Z</time>
      </trkpt>
      <trkpt lat="42.77335" lon="0.1607">
        <ele>2131.4</ele>
        <time>2021-01-29T13:16:27Z</time>
      </trkpt>
      <trkpt lat="42.77335" lon="0.1607">
        <ele>2131.4</ele>
        <time>2021-01-29T13:16:28Z</time>
      </trkpt>
      <trkpt lat="42.77335" lon="0.1607">
        <ele>2131.4</ele>
        <time>2021-01-29T13:16:29Z</time>
      </trkpt>
      <trkpt lat="42.77335" lon="0.1607">
        <ele>2131.4</ele>
        <time>2021-01-29T13:16:30Z</time>
      </trkpt>
      <trkpt lat="42.77335" lon="0.1607">
        <ele>2131.4</ele>
        <time>2021-01-29T13:16:31Z</time>
      </trkpt>
      <trkpt lat="42.77335" lon="0.1607">
        <ele>2131.4</ele>
        <time>2021-01-29T13:16:32Z</time>
      </trkpt>
      <trkpt lat="42.77335" lon="0.1607">
        <ele>2131.2</ele>
        <time>2021-01-29T13:16:33Z</time>
      </trkpt>
      <trkpt lat="42.77335" lon="0.1607">
        <ele>2131.2</ele>
        <time>2021-01-29T13:16:34Z</time>
      </trkpt>
      <trkpt lat="42.77335" lon="0.1607">
        <ele>2131.2</ele>
        <time>2021-01-29T13:16:35Z</time>
      </trkpt>
      <trkpt lat="42.77335" lon="0.1607">
        <ele>2131.2</ele>
        <time>2021-01-29T13:16:36Z</time>
      </trkpt>
      <trkpt lat="42.77335" lon="0.1607">
        <ele>2131.2</ele>
        <time>2021-01-29T13:16:37Z</time>
      </trkpt>
      <trkpt lat="42.77335" lon="0.1607">
        <ele>2131.2</ele>
        <time>2021-01-29T13:16:38Z</time>
      </trkpt>
      <trkpt lat="42.77335" lon="0.1607">
        <ele>2131.2</ele>
        <time>2021-01-29T13:16:39Z</time>
      </trkpt>
      <trkpt lat="42.77335" lon="0.1607">
        <ele>2131.2</ele>
        <time>2021-01-29T13:16:40Z</time>
      </trkpt>
      <trkpt lat="42.77335" lon="0.1607">
        <ele>2131.2</ele>
        <time>2021-01-29T13:16:41Z</time>
      </trkpt>
      <trkpt lat="42.77335" lon="0.1607">
        <ele>2131.2</ele>
        <time>2021-01-29T13:16:42Z</time>
      </trkpt>
      <trkpt lat="42.77335" lon="0.1607">
        <ele>2131.4</ele>
        <time>2021-01-29T13:16:43Z</time>
      </trkpt>
      <trkpt lat="42.77335" lon="0.1607">
        <ele>2131.4</ele>
        <time>2021-01-29T13:16:44Z</time>
      </trkpt>
      <trkpt lat="42.77335" lon="0.1607">
        <ele>2131.4</ele>
        <time>2021-01-29T13:16:45Z</time>
      </trkpt>
      <trkpt lat="42.77335" lon="0.1607">
        <ele>2131.2</ele>
        <time>2021-01-29T13:16:46Z</time>
      </trkpt>
      <trkpt lat="42.77335" lon="0.1607">
        <ele>2131.2</ele>
        <time>2021-01-29T13:16:47Z</time>
      </trkpt>
      <trkpt lat="42.77335" lon="0.1607">
        <ele>2131.2</ele>
        <time>2021-01-29T13:16:48Z</time>
      </trkpt>
      <trkpt lat="42.77335" lon="0.1607">
        <ele>2131.2</ele>
        <time>2021-01-29T13:16:49Z</time>
      </trkpt>
      <trkpt lat="42.77335" lon="0.1607">
        <ele>2131.2</ele>
        <time>2021-01-29T13:16:50Z</time>
      </trkpt>
      <trkpt lat="42.77335" lon="0.1607">
        <ele>2131.2</ele>
        <time>2021-01-29T13:16:51Z</time>
      </trkpt>
      <trkpt lat="42.77335" lon="0.1607">
        <ele>2131.2</ele>
        <time>2021-01-29T13:16:52Z</time>
      </trkpt>
      <trkpt lat="42.77335" lon="0.1607">
        <ele>2131.2</ele>
        <time>2021-01-29T13:16:53Z</time>
      </trkpt>
      <trkpt lat="42.77335" lon="0.1607">
        <ele>2131.2</ele>
        <time>2021-01-29T13:16:54Z</time>
      </trkpt>
      <trkpt lat="42.77335" lon="0.1607">
        <ele>2131</ele>
        <time>2021-01-29T13:16:55Z</time>
      </trkpt>
      <trkpt lat="42.77335" lon="0.1607">
        <ele>2131</ele>
        <time>2021-01-29T13:16:56Z</time>
      </trkpt>
      <trkpt lat="42.77335" lon="0.1607">
        <ele>2131</ele>
        <time>2021-01-29T13:16:57Z</time>
      </trkpt>
      <trkpt lat="42.77335" lon="0.1607">
        <ele>2131</ele>
        <time>2021-01-29T13:16:58Z</time>
      </trkpt>
      <trkpt lat="42.77335" lon="0.1607">
        <ele>2131</ele>
        <time>2021-01-29T13:16:59Z</time>
      </trkpt>
      <trkpt lat="42.77335" lon="0.1607">
        <ele>2131</ele>
        <time>2021-01-29T13:17:00Z</time>
      </trkpt>
      <trkpt lat="42.77335" lon="0.1607">
        <ele>2130.8</ele>
        <time>2021-01-29T13:17:01Z</time>
      </trkpt>
      <trkpt lat="42.77335" lon="0.1607">
        <ele>2130.8</ele>
        <time>2021-01-29T13:17:02Z</time>
      </trkpt>
      <trkpt lat="42.77335" lon="0.1607">
        <ele>2130.8</ele>
        <time>2021-01-29T13:17:03Z</time>
      </trkpt>
      <trkpt lat="42.77335" lon="0.1607">
        <ele>2130.8</ele>
        <time>2021-01-29T13:17:04Z</time>
      </trkpt>
      <trkpt lat="42.77335" lon="0.1607">
        <ele>2130.8</ele>
        <time>2021-01-29T13:17:05Z</time>
      </trkpt>
      <trkpt lat="42.77335" lon="0.1607">
        <ele>2130.8</ele>
        <time>2021-01-29T13:17:06Z</time>
      </trkpt>
      <trkpt lat="42.77335" lon="0.1607">
        <ele>2130.8</ele>
        <time>2021-01-29T13:17:07Z</time>
      </trkpt>
      <trkpt lat="42.77335" lon="0.1607">
        <ele>2130.8</ele>
        <time>2021-01-29T13:17:08Z</time>
      </trkpt>
      <trkpt lat="42.77335" lon="0.1607">
        <ele>2130.8</ele>
        <time>2021-01-29T13:17:09Z</time>
      </trkpt>
      <trkpt lat="42.77335" lon="0.1607">
        <ele>2130.8</ele>
        <time>2021-01-29T13:17:10Z</time>
      </trkpt>
      <trkpt lat="42.77335" lon="0.1607">
        <ele>2130.8</ele>
        <time>2021-01-29T13:17:11Z</time>
      </trkpt>
      <trkpt lat="42.77335" lon="0.1607">
        <ele>2130.8</ele>
        <time>2021-01-29T13:17:12Z</time>
      </trkpt>
      <trkpt lat="42.77335" lon="0.1607">
        <ele>2130.8</ele>
        <time>2021-01-29T13:17:13Z</time>
      </trkpt>
      <trkpt lat="42.77335" lon="0.1607">
        <ele>2130.8</ele>
        <time>2021-01-29T13:17:14Z</time>
      </trkpt>
      <trkpt lat="42.77335" lon="0.1607">
        <ele>2130.8</ele>
        <time>2021-01-29T13:17:15Z</time>
      </trkpt>
      <trkpt lat="42.77335" lon="0.1607">
        <ele>2130.8</ele>
        <time>2021-01-29T13:17:16Z</time>
      </trkpt>
      <trkpt lat="42.77335" lon="0.1607">
        <ele>2130.8</ele>
        <time>2021-01-29T13:17:17Z</time>
      </trkpt>
      <trkpt lat="42.77335" lon="0.1607">
        <ele>2130.8</ele>
        <time>2021-01-29T13:17:18Z</time>
      </trkpt>
      <trkpt lat="42.77335" lon="0.1607">
        <ele>2130.8</ele>
        <time>2021-01-29T13:17:19Z</time>
      </trkpt>
      <trkpt lat="42.77335" lon="0.1607">
        <ele>2130.8</ele>
        <time>2021-01-29T13:17:20Z</time>
      </trkpt>
      <trkpt lat="42.77335" lon="0.1607">
        <ele>2131</ele>
        <time>2021-01-29T13:17:21Z</time>
      </trkpt>
      <trkpt lat="42.77335" lon="0.1607">
        <ele>2131</ele>
        <time>2021-01-29T13:17:22Z</time>
      </trkpt>
      <trkpt lat="42.77335" lon="0.1607">
        <ele>2131</ele>
        <time>2021-01-29T13:17:23Z</time>
      </trkpt>
      <trkpt lat="42.77335" lon="0.1607">
        <ele>2131</ele>
        <time>2021-01-29T13:17:24Z</time>
      </trkpt>
      <trkpt lat="42.77335" lon="0.1607">
        <ele>2131</ele>
        <time>2021-01-29T13:17:25Z</time>
      </trkpt>
      <trkpt lat="42.77335" lon="0.1607">
        <ele>2131</ele>
        <time>2021-01-29T13:17:26Z</time>
      </trkpt>
      <trkpt lat="42.77335" lon="0.1607">
        <ele>2131</ele>
        <time>2021-01-29T13:17:27Z</time>
      </trkpt>
      <trkpt lat="42.77335" lon="0.1607">
        <ele>2131</ele>
        <time>2021-01-29T13:17:28Z</time>
      </trkpt>
      <trkpt lat="42.77335" lon="0.1607">
        <ele>2131</ele>
        <time>2021-01-29T13:17:29Z</time>
      </trkpt>
      <trkpt lat="42.77335" lon="0.1607">
        <ele>2131</ele>
        <time>2021-01-29T13:17:30Z</time>
      </trkpt>
      <trkpt lat="42.77335" lon="0.1607">
        <ele>2131</ele>
        <time>2021-01-29T13:17:31Z</time>
      </trkpt>
      <trkpt lat="42.77335" lon="0.1607">
        <ele>2131</ele>
        <time>2021-01-29T13:17:32Z</time>
      </trkpt>
      <trkpt lat="42.77335" lon="0.1607">
        <ele>2131</ele>
        <time>2021-01-29T13:17:33Z</time>
      </trkpt>
      <trkpt lat="42.77335" lon="0.1607">
        <ele>2131</ele>
        <time>2021-01-29T13:17:34Z</time>
      </trkpt>
      <trkpt lat="42.77335" lon="0.1607">
        <ele>2131</ele>
        <time>2021-01-29T13:17:35Z</time>
      </trkpt>
      <trkpt lat="42.77335" lon="0.1607">
        <ele>2131</ele>
        <time>2021-01-29T13:17:36Z</time>
      </trkpt>
      <trkpt lat="42.77335" lon="0.1607">
        <ele>2131</ele>
        <time>2021-01-29T13:17:37Z</time>
      </trkpt>
      <trkpt lat="42.77335" lon="0.1607">
        <ele>2131</ele>
        <time>2021-01-29T13:17:38Z</time>
      </trkpt>
      <trkpt lat="42.77335" lon="0.1607">
        <ele>2131</ele>
        <time>2021-01-29T13:17:39Z</time>
      </trkpt>
      <trkpt lat="42.77335" lon="0.1607">
        <ele>2131</ele>
        <time>2021-01-29T13:17:40Z</time>
      </trkpt>
      <trkpt lat="42.77334" lon="0.1607">
        <ele>2131</ele>
        <time>2021-01-29T13:17:41Z</time>
      </trkpt>
      <trkpt lat="42.7733" lon="0.1607">
        <ele>2131</ele>
        <time>2021-01-29T13:17:42Z</time>
      </trkpt>
      <trkpt lat="42.77327" lon="0.1607">
        <ele>2130.8</ele>
        <time>2021-01-29T13:17:43Z</time>
      </trkpt>
      <trkpt lat="42.77329" lon="0.16069">
        <ele>2131</ele>
        <time>2021-01-29T13:17:44Z</time>
      </trkpt>
      <trkpt lat="42.77331" lon="0.16069">
        <ele>2130.8</ele>
        <time>2021-01-29T13:17:45Z</time>
      </trkpt>
      <trkpt lat="42.77331" lon="0.16069">
        <ele>2130.8</ele>
        <time>2021-01-29T13:17:46Z</time>
      </trkpt>
      <trkpt lat="42.77332" lon="0.16069">
        <ele>2130.8</ele>
        <time>2021-01-29T13:17:47Z</time>
      </trkpt>
      <trkpt lat="42.77332" lon="0.16068">
        <ele>2130.8</ele>
        <time>2021-01-29T13:17:48Z</time>
      </trkpt>
      <trkpt lat="42.77333" lon="0.16068">
        <ele>2130.8</ele>
        <time>2021-01-29T13:17:49Z</time>
      </trkpt>
      <trkpt lat="42.77333" lon="0.16068">
        <ele>2130.8</ele>
        <time>2021-01-29T13:17:50Z</time>
      </trkpt>
      <trkpt lat="42.77333" lon="0.16068">
        <ele>2130.8</ele>
        <time>2021-01-29T13:17:51Z</time>
      </trkpt>
      <trkpt lat="42.77333" lon="0.16068">
        <ele>2130.6</ele>
        <time>2021-01-29T13:17:52Z</time>
      </trkpt>
      <trkpt lat="42.77333" lon="0.16068">
        <ele>2130.6</ele>
        <time>2021-01-29T13:17:53Z</time>
      </trkpt>
      <trkpt lat="42.77333" lon="0.16068">
        <ele>2130.6</ele>
        <time>2021-01-29T13:17:54Z</time>
      </trkpt>
      <trkpt lat="42.77333" lon="0.16068">
        <ele>2130.6</ele>
        <time>2021-01-29T13:17:55Z</time>
      </trkpt>
      <trkpt lat="42.77333" lon="0.16068">
        <ele>2130.6</ele>
        <time>2021-01-29T13:17:56Z</time>
      </trkpt>
      <trkpt lat="42.77333" lon="0.16068">
        <ele>2130.6</ele>
        <time>2021-01-29T13:17:57Z</time>
      </trkpt>
      <trkpt lat="42.77333" lon="0.16068">
        <ele>2130.6</ele>
        <time>2021-01-29T13:17:58Z</time>
      </trkpt>
      <trkpt lat="42.77333" lon="0.16068">
        <ele>2130.6</ele>
        <time>2021-01-29T13:17:59Z</time>
      </trkpt>
      <trkpt lat="42.77333" lon="0.16068">
        <ele>2130.4</ele>
        <time>2021-01-29T13:18:00Z</time>
      </trkpt>
      <trkpt lat="42.77333" lon="0.16068">
        <ele>2130.4</ele>
        <time>2021-01-29T13:18:01Z</time>
      </trkpt>
      <trkpt lat="42.77333" lon="0.16068">
        <ele>2130.4</ele>
        <time>2021-01-29T13:18:02Z</time>
      </trkpt>
      <trkpt lat="42.77333" lon="0.16068">
        <ele>2130.4</ele>
        <time>2021-01-29T13:18:03Z</time>
      </trkpt>
      <trkpt lat="42.77333" lon="0.16068">
        <ele>2130.4</ele>
        <time>2021-01-29T13:18:04Z</time>
      </trkpt>
      <trkpt lat="42.77333" lon="0.16068">
        <ele>2130.2</ele>
        <time>2021-01-29T13:18:05Z</time>
      </trkpt>
      <trkpt lat="42.77333" lon="0.16068">
        <ele>2130.2</ele>
        <time>2021-01-29T13:18:06Z</time>
      </trkpt>
      <trkpt lat="42.77333" lon="0.16069">
        <ele>2130.2</ele>
        <time>2021-01-29T13:18:07Z</time>
      </trkpt>
      <trkpt lat="42.77333" lon="0.16069">
        <ele>2130.2</ele>
        <time>2021-01-29T13:18:08Z</time>
      </trkpt>
      <trkpt lat="42.77333" lon="0.16069">
        <ele>2130.2</ele>
        <time>2021-01-29T13:18:09Z</time>
      </trkpt>
      <trkpt lat="42.77333" lon="0.16069">
        <ele>2130.4</ele>
        <time>2021-01-29T13:18:10Z</time>
      </trkpt>
      <trkpt lat="42.77333" lon="0.16069">
        <ele>2130.4</ele>
        <time>2021-01-29T13:18:11Z</time>
      </trkpt>
      <trkpt lat="42.77333" lon="0.16069">
        <ele>2130.4</ele>
        <time>2021-01-29T13:18:12Z</time>
      </trkpt>
      <trkpt lat="42.77333" lon="0.16069">
        <ele>2130.4</ele>
        <time>2021-01-29T13:18:13Z</time>
      </trkpt>
      <trkpt lat="42.77333" lon="0.16069">
        <ele>2130.4</ele>
        <time>2021-01-29T13:18:14Z</time>
      </trkpt>
      <trkpt lat="42.77333" lon="0.16069">
        <ele>2130.4</ele>
        <time>2021-01-29T13:18:15Z</time>
      </trkpt>
      <trkpt lat="42.77333" lon="0.16069">
        <ele>2130.4</ele>
        <time>2021-01-29T13:18:16Z</time>
      </trkpt>
      <trkpt lat="42.77333" lon="0.16069">
        <ele>2130.4</ele>
        <time>2021-01-29T13:18:17Z</time>
      </trkpt>
      <trkpt lat="42.77333" lon="0.16069">
        <ele>2130.4</ele>
        <time>2021-01-29T13:18:18Z</time>
      </trkpt>
      <trkpt lat="42.77333" lon="0.16069">
        <ele>2130.4</ele>
        <time>2021-01-29T13:18:19Z</time>
      </trkpt>
      <trkpt lat="42.77333" lon="0.16069">
        <ele>2130.4</ele>
        <time>2021-01-29T13:18:20Z</time>
      </trkpt>
      <trkpt lat="42.77333" lon="0.16069">
        <ele>2130.4</ele>
        <time>2021-01-29T13:18:21Z</time>
      </trkpt>
      <trkpt lat="42.77333" lon="0.16069">
        <ele>2130.4</ele>
        <time>2021-01-29T13:18:22Z</time>
      </trkpt>
      <trkpt lat="42.77333" lon="0.16069">
        <ele>2130.4</ele>
        <time>2021-01-29T13:18:23Z</time>
      </trkpt>
      <trkpt lat="42.77333" lon="0.16069">
        <ele>2130.4</ele>
        <time>2021-01-29T13:18:24Z</time>
      </trkpt>
      <trkpt lat="42.77333" lon="0.16069">
        <ele>2130.4</ele>
        <time>2021-01-29T13:18:25Z</time>
      </trkpt>
      <trkpt lat="42.77333" lon="0.16069">
        <ele>2130.4</ele>
        <time>2021-01-29T13:18:26Z</time>
      </trkpt>
      <trkpt lat="42.77333" lon="0.16069">
        <ele>2130.4</ele>
        <time>2021-01-29T13:18:27Z</time>
      </trkpt>
      <trkpt lat="42.77333" lon="0.16069">
        <ele>2130.4</ele>
        <time>2021-01-29T13:18:28Z</time>
      </trkpt>
      <trkpt lat="42.77333" lon="0.16069">
        <ele>2130.6</ele>
        <time>2021-01-29T13:18:29Z</time>
      </trkpt>
      <trkpt lat="42.77333" lon="0.16069">
        <ele>2130.6</ele>
        <time>2021-01-29T13:18:30Z</time>
      </trkpt>
      <trkpt lat="42.77333" lon="0.16069">
        <ele>2130.6</ele>
        <time>2021-01-29T13:18:31Z</time>
      </trkpt>
      <trkpt lat="42.77333" lon="0.16069">
        <ele>2130.6</ele>
        <time>2021-01-29T13:18:32Z</time>
      </trkpt>
      <trkpt lat="42.77333" lon="0.16069">
        <ele>2130.6</ele>
        <time>2021-01-29T13:18:33Z</time>
      </trkpt>
      <trkpt lat="42.77333" lon="0.16069">
        <ele>2130.6</ele>
        <time>2021-01-29T13:18:34Z</time>
      </trkpt>
      <trkpt lat="42.77333" lon="0.16069">
        <ele>2130.6</ele>
        <time>2021-01-29T13:18:35Z</time>
      </trkpt>
      <trkpt lat="42.77333" lon="0.16069">
        <ele>2130.6</ele>
        <time>2021-01-29T13:18:36Z</time>
      </trkpt>
      <trkpt lat="42.77333" lon="0.16069">
        <ele>2130.6</ele>
        <time>2021-01-29T13:18:37Z</time>
      </trkpt>
      <trkpt lat="42.77333" lon="0.16069">
        <ele>2130.8</ele>
        <time>2021-01-29T13:18:38Z</time>
      </trkpt>
      <trkpt lat="42.77333" lon="0.16069">
        <ele>2130.8</ele>
        <time>2021-01-29T13:18:39Z</time>
      </trkpt>
      <trkpt lat="42.77333" lon="0.16069">
        <ele>2130.8</ele>
        <time>2021-01-29T13:18:40Z</time>
      </trkpt>
      <trkpt lat="42.77333" lon="0.16069">
        <ele>2130.8</ele>
        <time>2021-01-29T13:18:41Z</time>
      </trkpt>
      <trkpt lat="42.77333" lon="0.16069">
        <ele>2130.8</ele>
        <time>2021-01-29T13:18:42Z</time>
      </trkpt>
      <trkpt lat="42.77333" lon="0.16069">
        <ele>2130.8</ele>
        <time>2021-01-29T13:18:43Z</time>
      </trkpt>
      <trkpt lat="42.77333" lon="0.16069">
        <ele>2130.8</ele>
        <time>2021-01-29T13:18:44Z</time>
      </trkpt>
      <trkpt lat="42.77333" lon="0.16069">
        <ele>2130.8</ele>
        <time>2021-01-29T13:18:45Z</time>
      </trkpt>
      <trkpt lat="42.77333" lon="0.16069">
        <ele>2130.8</ele>
        <time>2021-01-29T13:18:46Z</time>
      </trkpt>
      <trkpt lat="42.77333" lon="0.16069">
        <ele>2130.8</ele>
        <time>2021-01-29T13:18:47Z</time>
      </trkpt>
      <trkpt lat="42.77333" lon="0.16069">
        <ele>2130.8</ele>
        <time>2021-01-29T13:18:48Z</time>
      </trkpt>
      <trkpt lat="42.77333" lon="0.16069">
        <ele>2130.8</ele>
        <time>2021-01-29T13:18:49Z</time>
      </trkpt>
      <trkpt lat="42.77333" lon="0.16069">
        <ele>2130.8</ele>
        <time>2021-01-29T13:18:50Z</time>
      </trkpt>
      <trkpt lat="42.77333" lon="0.16069">
        <ele>2130.8</ele>
        <time>2021-01-29T13:18:51Z</time>
      </trkpt>
      <trkpt lat="42.77333" lon="0.16069">
        <ele>2130.8</ele>
        <time>2021-01-29T13:18:52Z</time>
      </trkpt>
      <trkpt lat="42.77333" lon="0.16069">
        <ele>2130.8</ele>
        <time>2021-01-29T13:18:53Z</time>
      </trkpt>
      <trkpt lat="42.77333" lon="0.16069">
        <ele>2130.8</ele>
        <time>2021-01-29T13:18:54Z</time>
      </trkpt>
      <trkpt lat="42.77333" lon="0.16069">
        <ele>2130.8</ele>
        <time>2021-01-29T13:18:55Z</time>
      </trkpt>
      <trkpt lat="42.77333" lon="0.16069">
        <ele>2130.8</ele>
        <time>2021-01-29T13:18:56Z</time>
      </trkpt>
      <trkpt lat="42.77333" lon="0.16069">
        <ele>2130.8</ele>
        <time>2021-01-29T13:18:57Z</time>
      </trkpt>
      <trkpt lat="42.77333" lon="0.16069">
        <ele>2130.8</ele>
        <time>2021-01-29T13:18:58Z</time>
      </trkpt>
      <trkpt lat="42.77333" lon="0.16069">
        <ele>2130.8</ele>
        <time>2021-01-29T13:18:59Z</time>
      </trkpt>
      <trkpt lat="42.77333" lon="0.16069">
        <ele>2130.8</ele>
        <time>2021-01-29T13:19:00Z</time>
      </trkpt>
      <trkpt lat="42.77333" lon="0.16069">
        <ele>2131</ele>
        <time>2021-01-29T13:19:01Z</time>
      </trkpt>
      <trkpt lat="42.77333" lon="0.16069">
        <ele>2131</ele>
        <time>2021-01-29T13:19:02Z</time>
      </trkpt>
      <trkpt lat="42.77333" lon="0.16069">
        <ele>2131</ele>
        <time>2021-01-29T13:19:03Z</time>
      </trkpt>
      <trkpt lat="42.77333" lon="0.16069">
        <ele>2131</ele>
        <time>2021-01-29T13:19:04Z</time>
      </trkpt>
      <trkpt lat="42.77333" lon="0.16069">
        <ele>2131</ele>
        <time>2021-01-29T13:19:05Z</time>
      </trkpt>
      <trkpt lat="42.77333" lon="0.16069">
        <ele>2131</ele>
        <time>2021-01-29T13:19:06Z</time>
      </trkpt>
      <trkpt lat="42.77333" lon="0.16069">
        <ele>2131</ele>
        <time>2021-01-29T13:19:07Z</time>
      </trkpt>
      <trkpt lat="42.77333" lon="0.16069">
        <ele>2130.8</ele>
        <time>2021-01-29T13:19:08Z</time>
      </trkpt>
      <trkpt lat="42.77333" lon="0.16069">
        <ele>2131</ele>
        <time>2021-01-29T13:19:09Z</time>
      </trkpt>
      <trkpt lat="42.77333" lon="0.16069">
        <ele>2130.8</ele>
        <time>2021-01-29T13:19:10Z</time>
      </trkpt>
      <trkpt lat="42.77333" lon="0.16069">
        <ele>2131</ele>
        <time>2021-01-29T13:19:11Z</time>
      </trkpt>
      <trkpt lat="42.77333" lon="0.16069">
        <ele>2131</ele>
        <time>2021-01-29T13:19:12Z</time>
      </trkpt>
      <trkpt lat="42.77332" lon="0.16068">
        <ele>2131.2</ele>
        <time>2021-01-29T13:19:13Z</time>
      </trkpt>
      <trkpt lat="42.77332" lon="0.16066">
        <ele>2131.2</ele>
        <time>2021-01-29T13:19:14Z</time>
      </trkpt>
      <trkpt lat="42.77331" lon="0.16066">
        <ele>2131.4</ele>
        <time>2021-01-29T13:19:15Z</time>
      </trkpt>
      <trkpt lat="42.77331" lon="0.16065">
        <ele>2131.6</ele>
        <time>2021-01-29T13:19:16Z</time>
      </trkpt>
      <trkpt lat="42.77331" lon="0.16064">
        <ele>2131.6</ele>
        <time>2021-01-29T13:19:17Z</time>
      </trkpt>
      <trkpt lat="42.77331" lon="0.16063">
        <ele>2131.8</ele>
        <time>2021-01-29T13:19:18Z</time>
      </trkpt>
      <trkpt lat="42.77331" lon="0.16062">
        <ele>2132</ele>
        <time>2021-01-29T13:19:19Z</time>
      </trkpt>
      <trkpt lat="42.77331" lon="0.16061">
        <ele>2132</ele>
        <time>2021-01-29T13:19:20Z</time>
      </trkpt>
      <trkpt lat="42.7733" lon="0.1606">
        <ele>2132.2</ele>
        <time>2021-01-29T13:19:21Z</time>
      </trkpt>
      <trkpt lat="42.7733" lon="0.16059">
        <ele>2132.4</ele>
        <time>2021-01-29T13:19:22Z</time>
      </trkpt>
      <trkpt lat="42.7733" lon="0.16058">
        <ele>2132.4</ele>
        <time>2021-01-29T13:19:23Z</time>
      </trkpt>
      <trkpt lat="42.7733" lon="0.16057">
        <ele>2132.6</ele>
        <time>2021-01-29T13:19:24Z</time>
      </trkpt>
      <trkpt lat="42.7733" lon="0.16056">
        <ele>2132.8</ele>
        <time>2021-01-29T13:19:25Z</time>
      </trkpt>
      <trkpt lat="42.7733" lon="0.16055">
        <ele>2133</ele>
        <time>2021-01-29T13:19:26Z</time>
      </trkpt>
      <trkpt lat="42.7733" lon="0.16054">
        <ele>2133</ele>
        <time>2021-01-29T13:19:27Z</time>
      </trkpt>
      <trkpt lat="42.7733" lon="0.16053">
        <ele>2133.2</ele>
        <time>2021-01-29T13:19:28Z</time>
      </trkpt>
      <trkpt lat="42.77329" lon="0.16051">
        <ele>2133.4</ele>
        <time>2021-01-29T13:19:29Z</time>
      </trkpt>
      <trkpt lat="42.77329" lon="0.1605">
        <ele>2133.4</ele>
        <time>2021-01-29T13:19:30Z</time>
      </trkpt>
      <trkpt lat="42.77329" lon="0.16049">
        <ele>2133.6</ele>
        <time>2021-01-29T13:19:31Z</time>
      </trkpt>
      <trkpt lat="42.77329" lon="0.16048">
        <ele>2133.8</ele>
        <time>2021-01-29T13:19:32Z</time>
      </trkpt>
      <trkpt lat="42.77329" lon="0.16046">
        <ele>2133.6</ele>
        <time>2021-01-29T13:19:33Z</time>
      </trkpt>
      <trkpt lat="42.77329" lon="0.16045">
        <ele>2134</ele>
        <time>2021-01-29T13:19:34Z</time>
      </trkpt>
      <trkpt lat="42.77329" lon="0.16044">
        <ele>2134.2</ele>
        <time>2021-01-29T13:19:35Z</time>
      </trkpt>
      <trkpt lat="42.77329" lon="0.16043">
        <ele>2134.2</ele>
        <time>2021-01-29T13:19:36Z</time>
      </trkpt>
      <trkpt lat="42.77329" lon="0.16041">
        <ele>2134.4</ele>
        <time>2021-01-29T13:19:37Z</time>
      </trkpt>
      <trkpt lat="42.77329" lon="0.1604">
        <ele>2134.6</ele>
        <time>2021-01-29T13:19:38Z</time>
      </trkpt>
      <trkpt lat="42.77329" lon="0.16039">
        <ele>2134.6</ele>
        <time>2021-01-29T13:19:39Z</time>
      </trkpt>
      <trkpt lat="42.77329" lon="0.16038">
        <ele>2134.6</ele>
        <time>2021-01-29T13:19:40Z</time>
      </trkpt>
      <trkpt lat="42.77329" lon="0.16036">
        <ele>2135</ele>
        <time>2021-01-29T13:19:41Z</time>
      </trkpt>
      <trkpt lat="42.77329" lon="0.16035">
        <ele>2135.2</ele>
        <time>2021-01-29T13:19:42Z</time>
      </trkpt>
      <trkpt lat="42.77329" lon="0.16034">
        <ele>2135</ele>
        <time>2021-01-29T13:19:43Z</time>
      </trkpt>
      <trkpt lat="42.77329" lon="0.16033">
        <ele>2135.4</ele>
        <time>2021-01-29T13:19:44Z</time>
      </trkpt>
      <trkpt lat="42.77329" lon="0.16031">
        <ele>2135.4</ele>
        <time>2021-01-29T13:19:45Z</time>
      </trkpt>
      <trkpt lat="42.77329" lon="0.1603">
        <ele>2135.4</ele>
        <time>2021-01-29T13:19:46Z</time>
      </trkpt>
      <trkpt lat="42.77329" lon="0.16029">
        <ele>2135.6</ele>
        <time>2021-01-29T13:19:47Z</time>
      </trkpt>
      <trkpt lat="42.77329" lon="0.16028">
        <ele>2135.6</ele>
        <time>2021-01-29T13:19:48Z</time>
      </trkpt>
      <trkpt lat="42.77329" lon="0.16027">
        <ele>2135.8</ele>
        <time>2021-01-29T13:19:49Z</time>
      </trkpt>
      <trkpt lat="42.77329" lon="0.16027">
        <ele>2135.8</ele>
        <time>2021-01-29T13:19:50Z</time>
      </trkpt>
      <trkpt lat="42.77329" lon="0.16027">
        <ele>2135.8</ele>
        <time>2021-01-29T13:19:51Z</time>
      </trkpt>
      <trkpt lat="42.77329" lon="0.16027">
        <ele>2135.8</ele>
        <time>2021-01-29T13:19:52Z</time>
      </trkpt>
      <trkpt lat="42.77329" lon="0.16027">
        <ele>2135.8</ele>
        <time>2021-01-29T13:19:53Z</time>
      </trkpt>
      <trkpt lat="42.77329" lon="0.16027">
        <ele>2135.8</ele>
        <time>2021-01-29T13:19:54Z</time>
      </trkpt>
      <trkpt lat="42.77329" lon="0.16027">
        <ele>2135.8</ele>
        <time>2021-01-29T13:19:55Z</time>
      </trkpt>
      <trkpt lat="42.77329" lon="0.16026">
        <ele>2136</ele>
        <time>2021-01-29T13:19:56Z</time>
      </trkpt>
      <trkpt lat="42.77329" lon="0.16024">
        <ele>2136</ele>
        <time>2021-01-29T13:19:57Z</time>
      </trkpt>
      <trkpt lat="42.77329" lon="0.16023">
        <ele>2136.2</ele>
        <time>2021-01-29T13:19:58Z</time>
      </trkpt>
      <trkpt lat="42.77329" lon="0.16022">
        <ele>2136.2</ele>
        <time>2021-01-29T13:19:59Z</time>
      </trkpt>
      <trkpt lat="42.77329" lon="0.16021">
        <ele>2136.2</ele>
        <time>2021-01-29T13:20:00Z</time>
      </trkpt>
      <trkpt lat="42.77329" lon="0.1602">
        <ele>2136.4</ele>
        <time>2021-01-29T13:20:01Z</time>
      </trkpt>
      <trkpt lat="42.77329" lon="0.16019">
        <ele>2136.4</ele>
        <time>2021-01-29T13:20:02Z</time>
      </trkpt>
      <trkpt lat="42.77329" lon="0.16018">
        <ele>2136.4</ele>
        <time>2021-01-29T13:20:03Z</time>
      </trkpt>
      <trkpt lat="42.7733" lon="0.16017">
        <ele>2136.6</ele>
        <time>2021-01-29T13:20:04Z</time>
      </trkpt>
      <trkpt lat="42.7733" lon="0.16016">
        <ele>2136.8</ele>
        <time>2021-01-29T13:20:05Z</time>
      </trkpt>
      <trkpt lat="42.7733" lon="0.16014">
        <ele>2136.6</ele>
        <time>2021-01-29T13:20:06Z</time>
      </trkpt>
      <trkpt lat="42.7733" lon="0.16013">
        <ele>2137</ele>
        <time>2021-01-29T13:20:07Z</time>
      </trkpt>
      <trkpt lat="42.7733" lon="0.16012">
        <ele>2137</ele>
        <time>2021-01-29T13:20:08Z</time>
      </trkpt>
      <trkpt lat="42.7733" lon="0.16011">
        <ele>2137.2</ele>
        <time>2021-01-29T13:20:09Z</time>
      </trkpt>
      <trkpt lat="42.7733" lon="0.1601">
        <ele>2137.2</ele>
        <time>2021-01-29T13:20:10Z</time>
      </trkpt>
      <trkpt lat="42.7733" lon="0.16009">
        <ele>2137.4</ele>
        <time>2021-01-29T13:20:11Z</time>
      </trkpt>
      <trkpt lat="42.7733" lon="0.16008">
        <ele>2137.4</ele>
        <time>2021-01-29T13:20:12Z</time>
      </trkpt>
      <trkpt lat="42.7733" lon="0.16007">
        <ele>2137.6</ele>
        <time>2021-01-29T13:20:13Z</time>
      </trkpt>
      <trkpt lat="42.7733" lon="0.16006">
        <ele>2137.6</ele>
        <time>2021-01-29T13:20:14Z</time>
      </trkpt>
      <trkpt lat="42.7733" lon="0.16005">
        <ele>2137.6</ele>
        <time>2021-01-29T13:20:15Z</time>
      </trkpt>
      <trkpt lat="42.7733" lon="0.16004">
        <ele>2137.8</ele>
        <time>2021-01-29T13:20:16Z</time>
      </trkpt>
      <trkpt lat="42.7733" lon="0.16003">
        <ele>2138</ele>
        <time>2021-01-29T13:20:17Z</time>
      </trkpt>
      <trkpt lat="42.7733" lon="0.16001">
        <ele>2138</ele>
        <time>2021-01-29T13:20:18Z</time>
      </trkpt>
      <trkpt lat="42.7733" lon="0.16">
        <ele>2138.2</ele>
        <time>2021-01-29T13:20:19Z</time>
      </trkpt>
      <trkpt lat="42.7733" lon="0.15999">
        <ele>2138.4</ele>
        <time>2021-01-29T13:20:20Z</time>
      </trkpt>
      <trkpt lat="42.7733" lon="0.15998">
        <ele>2138.2</ele>
        <time>2021-01-29T13:20:21Z</time>
      </trkpt>
      <trkpt lat="42.7733" lon="0.15996">
        <ele>2138.4</ele>
        <time>2021-01-29T13:20:22Z</time>
      </trkpt>
      <trkpt lat="42.7733" lon="0.15995">
        <ele>2138.6</ele>
        <time>2021-01-29T13:20:23Z</time>
      </trkpt>
      <trkpt lat="42.7733" lon="0.15994">
        <ele>2138.8</ele>
        <time>2021-01-29T13:20:24Z</time>
      </trkpt>
      <trkpt lat="42.7733" lon="0.15993">
        <ele>2138.8</ele>
        <time>2021-01-29T13:20:25Z</time>
      </trkpt>
      <trkpt lat="42.7733" lon="0.15992">
        <ele>2139</ele>
        <time>2021-01-29T13:20:26Z</time>
      </trkpt>
      <trkpt lat="42.7733" lon="0.15991">
        <ele>2139</ele>
        <time>2021-01-29T13:20:27Z</time>
      </trkpt>
      <trkpt lat="42.7733" lon="0.1599">
        <ele>2139.2</ele>
        <time>2021-01-29T13:20:28Z</time>
      </trkpt>
      <trkpt lat="42.7733" lon="0.15989">
        <ele>2139.4</ele>
        <time>2021-01-29T13:20:29Z</time>
      </trkpt>
      <trkpt lat="42.7733" lon="0.15987">
        <ele>2139.4</ele>
        <time>2021-01-29T13:20:30Z</time>
      </trkpt>
      <trkpt lat="42.77331" lon="0.15986">
        <ele>2139.6</ele>
        <time>2021-01-29T13:20:31Z</time>
      </trkpt>
      <trkpt lat="42.77331" lon="0.15985">
        <ele>2139.6</ele>
        <time>2021-01-29T13:20:32Z</time>
      </trkpt>
      <trkpt lat="42.77331" lon="0.15984">
        <ele>2139.6</ele>
        <time>2021-01-29T13:20:33Z</time>
      </trkpt>
      <trkpt lat="42.77331" lon="0.15983">
        <ele>2139.8</ele>
        <time>2021-01-29T13:20:34Z</time>
      </trkpt>
      <trkpt lat="42.77331" lon="0.15982">
        <ele>2139.8</ele>
        <time>2021-01-29T13:20:35Z</time>
      </trkpt>
      <trkpt lat="42.77331" lon="0.1598">
        <ele>2140</ele>
        <time>2021-01-29T13:20:36Z</time>
      </trkpt>
      <trkpt lat="42.77331" lon="0.15979">
        <ele>2140</ele>
        <time>2021-01-29T13:20:37Z</time>
      </trkpt>
      <trkpt lat="42.77331" lon="0.15978">
        <ele>2140.2</ele>
        <time>2021-01-29T13:20:38Z</time>
      </trkpt>
      <trkpt lat="42.77331" lon="0.15977">
        <ele>2140.2</ele>
        <time>2021-01-29T13:20:39Z</time>
      </trkpt>
      <trkpt lat="42.77331" lon="0.15975">
        <ele>2140.2</ele>
        <time>2021-01-29T13:20:40Z</time>
      </trkpt>
      <trkpt lat="42.77331" lon="0.15974">
        <ele>2140.4</ele>
        <time>2021-01-29T13:20:41Z</time>
      </trkpt>
      <trkpt lat="42.77331" lon="0.15973">
        <ele>2140.4</ele>
        <time>2021-01-29T13:20:42Z</time>
      </trkpt>
      <trkpt lat="42.77331" lon="0.15972">
        <ele>2140.6</ele>
        <time>2021-01-29T13:20:43Z</time>
      </trkpt>
      <trkpt lat="42.77331" lon="0.15971">
        <ele>2140.8</ele>
        <time>2021-01-29T13:20:44Z</time>
      </trkpt>
      <trkpt lat="42.77331" lon="0.1597">
        <ele>2140.6</ele>
        <time>2021-01-29T13:20:45Z</time>
      </trkpt>
      <trkpt lat="42.77331" lon="0.15969">
        <ele>2140.8</ele>
        <time>2021-01-29T13:20:46Z</time>
      </trkpt>
      <trkpt lat="42.77331" lon="0.15968">
        <ele>2141</ele>
        <time>2021-01-29T13:20:47Z</time>
      </trkpt>
      <trkpt lat="42.77331" lon="0.15966">
        <ele>2141</ele>
        <time>2021-01-29T13:20:48Z</time>
      </trkpt>
      <trkpt lat="42.77331" lon="0.15965">
        <ele>2141</ele>
        <time>2021-01-29T13:20:49Z</time>
      </trkpt>
      <trkpt lat="42.77331" lon="0.15964">
        <ele>2141.2</ele>
        <time>2021-01-29T13:20:50Z</time>
      </trkpt>
      <trkpt lat="42.77331" lon="0.15963">
        <ele>2141.4</ele>
        <time>2021-01-29T13:20:51Z</time>
      </trkpt>
      <trkpt lat="42.77331" lon="0.15962">
        <ele>2141.2</ele>
        <time>2021-01-29T13:20:52Z</time>
      </trkpt>
      <trkpt lat="42.77331" lon="0.15961">
        <ele>2141.6</ele>
        <time>2021-01-29T13:20:53Z</time>
      </trkpt>
      <trkpt lat="42.77331" lon="0.15959">
        <ele>2141.6</ele>
        <time>2021-01-29T13:20:54Z</time>
      </trkpt>
      <trkpt lat="42.7733" lon="0.15958">
        <ele>2141.6</ele>
        <time>2021-01-29T13:20:55Z</time>
      </trkpt>
      <trkpt lat="42.7733" lon="0.15957">
        <ele>2141.8</ele>
        <time>2021-01-29T13:20:56Z</time>
      </trkpt>
      <trkpt lat="42.7733" lon="0.15956">
        <ele>2142</ele>
        <time>2021-01-29T13:20:57Z</time>
      </trkpt>
      <trkpt lat="42.77331" lon="0.15955">
        <ele>2142</ele>
        <time>2021-01-29T13:20:58Z</time>
      </trkpt>
      <trkpt lat="42.77331" lon="0.15954">
        <ele>2142.4</ele>
        <time>2021-01-29T13:20:59Z</time>
      </trkpt>
      <trkpt lat="42.77331" lon="0.15953">
        <ele>2142.4</ele>
        <time>2021-01-29T13:21:00Z</time>
      </trkpt>
      <trkpt lat="42.77331" lon="0.15952">
        <ele>2142.6</ele>
        <time>2021-01-29T13:21:01Z</time>
      </trkpt>
      <trkpt lat="42.7733" lon="0.15951">
        <ele>2142.8</ele>
        <time>2021-01-29T13:21:02Z</time>
      </trkpt>
      <trkpt lat="42.7733" lon="0.1595">
        <ele>2143</ele>
        <time>2021-01-29T13:21:03Z</time>
      </trkpt>
      <trkpt lat="42.7733" lon="0.15949">
        <ele>2143</ele>
        <time>2021-01-29T13:21:04Z</time>
      </trkpt>
      <trkpt lat="42.7733" lon="0.15948">
        <ele>2143.2</ele>
        <time>2021-01-29T13:21:05Z</time>
      </trkpt>
      <trkpt lat="42.7733" lon="0.15946">
        <ele>2143.2</ele>
        <time>2021-01-29T13:21:06Z</time>
      </trkpt>
      <trkpt lat="42.7733" lon="0.15945">
        <ele>2143.4</ele>
        <time>2021-01-29T13:21:07Z</time>
      </trkpt>
      <trkpt lat="42.7733" lon="0.15944">
        <ele>2143.6</ele>
        <time>2021-01-29T13:21:08Z</time>
      </trkpt>
      <trkpt lat="42.7733" lon="0.15943">
        <ele>2143.8</ele>
        <time>2021-01-29T13:21:09Z</time>
      </trkpt>
      <trkpt lat="42.7733" lon="0.15942">
        <ele>2143.8</ele>
        <time>2021-01-29T13:21:10Z</time>
      </trkpt>
      <trkpt lat="42.7733" lon="0.15941">
        <ele>2144</ele>
        <time>2021-01-29T13:21:11Z</time>
      </trkpt>
      <trkpt lat="42.77331" lon="0.1594">
        <ele>2144</ele>
        <time>2021-01-29T13:21:12Z</time>
      </trkpt>
      <trkpt lat="42.77331" lon="0.15939">
        <ele>2144.2</ele>
        <time>2021-01-29T13:21:13Z</time>
      </trkpt>
      <trkpt lat="42.77331" lon="0.15938">
        <ele>2144.4</ele>
        <time>2021-01-29T13:21:14Z</time>
      </trkpt>
      <trkpt lat="42.77331" lon="0.15937">
        <ele>2144.6</ele>
        <time>2021-01-29T13:21:15Z</time>
      </trkpt>
      <trkpt lat="42.77331" lon="0.15936">
        <ele>2144.6</ele>
        <time>2021-01-29T13:21:16Z</time>
      </trkpt>
      <trkpt lat="42.7733" lon="0.15935">
        <ele>2144.8</ele>
        <time>2021-01-29T13:21:17Z</time>
      </trkpt>
      <trkpt lat="42.7733" lon="0.15933">
        <ele>2144.8</ele>
        <time>2021-01-29T13:21:18Z</time>
      </trkpt>
      <trkpt lat="42.7733" lon="0.15932">
        <ele>2145</ele>
        <time>2021-01-29T13:21:19Z</time>
      </trkpt>
      <trkpt lat="42.7733" lon="0.15931">
        <ele>2145</ele>
        <time>2021-01-29T13:21:20Z</time>
      </trkpt>
      <trkpt lat="42.7733" lon="0.1593">
        <ele>2145.2</ele>
        <time>2021-01-29T13:21:21Z</time>
      </trkpt>
      <trkpt lat="42.7733" lon="0.15928">
        <ele>2145.2</ele>
        <time>2021-01-29T13:21:22Z</time>
      </trkpt>
      <trkpt lat="42.7733" lon="0.15927">
        <ele>2145.4</ele>
        <time>2021-01-29T13:21:23Z</time>
      </trkpt>
      <trkpt lat="42.7733" lon="0.15926">
        <ele>2145.4</ele>
        <time>2021-01-29T13:21:24Z</time>
      </trkpt>
      <trkpt lat="42.7733" lon="0.15925">
        <ele>2145.4</ele>
        <time>2021-01-29T13:21:25Z</time>
      </trkpt>
      <trkpt lat="42.7733" lon="0.15924">
        <ele>2145.6</ele>
        <time>2021-01-29T13:21:26Z</time>
      </trkpt>
      <trkpt lat="42.7733" lon="0.15923">
        <ele>2145.6</ele>
        <time>2021-01-29T13:21:27Z</time>
      </trkpt>
      <trkpt lat="42.7733" lon="0.15922">
        <ele>2145.6</ele>
        <time>2021-01-29T13:21:28Z</time>
      </trkpt>
      <trkpt lat="42.7733" lon="0.15921">
        <ele>2145.6</ele>
        <time>2021-01-29T13:21:29Z</time>
      </trkpt>
      <trkpt lat="42.7733" lon="0.15921">
        <ele>2145.6</ele>
        <time>2021-01-29T13:21:30Z</time>
      </trkpt>
      <trkpt lat="42.7733" lon="0.15921">
        <ele>2145.6</ele>
        <time>2021-01-29T13:21:31Z</time>
      </trkpt>
      <trkpt lat="42.7733" lon="0.1592">
        <ele>2145.8</ele>
        <time>2021-01-29T13:21:32Z</time>
      </trkpt>
      <trkpt lat="42.7733" lon="0.15918">
        <ele>2145.8</ele>
        <time>2021-01-29T13:21:33Z</time>
      </trkpt>
      <trkpt lat="42.7733" lon="0.15917">
        <ele>2145.8</ele>
        <time>2021-01-29T13:21:34Z</time>
      </trkpt>
      <trkpt lat="42.7733" lon="0.15916">
        <ele>2146</ele>
        <time>2021-01-29T13:21:35Z</time>
      </trkpt>
      <trkpt lat="42.7733" lon="0.15915">
        <ele>2146</ele>
        <time>2021-01-29T13:21:36Z</time>
      </trkpt>
      <trkpt lat="42.7733" lon="0.15913">
        <ele>2146.2</ele>
        <time>2021-01-29T13:21:37Z</time>
      </trkpt>
      <trkpt lat="42.7733" lon="0.15912">
        <ele>2146.2</ele>
        <time>2021-01-29T13:21:38Z</time>
      </trkpt>
      <trkpt lat="42.7733" lon="0.15911">
        <ele>2146.4</ele>
        <time>2021-01-29T13:21:39Z</time>
      </trkpt>
      <trkpt lat="42.7733" lon="0.15909">
        <ele>2146.4</ele>
        <time>2021-01-29T13:21:40Z</time>
      </trkpt>
      <trkpt lat="42.7733" lon="0.15908">
        <ele>2146.6</ele>
        <time>2021-01-29T13:21:41Z</time>
      </trkpt>
      <trkpt lat="42.7733" lon="0.15907">
        <ele>2146.8</ele>
        <time>2021-01-29T13:21:42Z</time>
      </trkpt>
      <trkpt lat="42.7733" lon="0.15905">
        <ele>2146.8</ele>
        <time>2021-01-29T13:21:43Z</time>
      </trkpt>
      <trkpt lat="42.7733" lon="0.15904">
        <ele>2146.8</ele>
        <time>2021-01-29T13:21:44Z</time>
      </trkpt>
      <trkpt lat="42.7733" lon="0.15903">
        <ele>2147</ele>
        <time>2021-01-29T13:21:45Z</time>
      </trkpt>
      <trkpt lat="42.7733" lon="0.15902">
        <ele>2147</ele>
        <time>2021-01-29T13:21:46Z</time>
      </trkpt>
      <trkpt lat="42.77329" lon="0.15901">
        <ele>2147.2</ele>
        <time>2021-01-29T13:21:47Z</time>
      </trkpt>
      <trkpt lat="42.77329" lon="0.159">
        <ele>2147.2</ele>
        <time>2021-01-29T13:21:48Z</time>
      </trkpt>
      <trkpt lat="42.77329" lon="0.15898">
        <ele>2147.4</ele>
        <time>2021-01-29T13:21:49Z</time>
      </trkpt>
      <trkpt lat="42.77329" lon="0.15897">
        <ele>2147.4</ele>
        <time>2021-01-29T13:21:50Z</time>
      </trkpt>
      <trkpt lat="42.77328" lon="0.15896">
        <ele>2147.6</ele>
        <time>2021-01-29T13:21:51Z</time>
      </trkpt>
      <trkpt lat="42.77328" lon="0.15895">
        <ele>2147.8</ele>
        <time>2021-01-29T13:21:52Z</time>
      </trkpt>
      <trkpt lat="42.77328" lon="0.15894">
        <ele>2147.8</ele>
        <time>2021-01-29T13:21:53Z</time>
      </trkpt>
      <trkpt lat="42.77327" lon="0.15893">
        <ele>2148</ele>
        <time>2021-01-29T13:21:54Z</time>
      </trkpt>
      <trkpt lat="42.77327" lon="0.15892">
        <ele>2148.2</ele>
        <time>2021-01-29T13:21:55Z</time>
      </trkpt>
      <trkpt lat="42.77327" lon="0.1589">
        <ele>2148.2</ele>
        <time>2021-01-29T13:21:56Z</time>
      </trkpt>
      <trkpt lat="42.77326" lon="0.15889">
        <ele>2148.4</ele>
        <time>2021-01-29T13:21:57Z</time>
      </trkpt>
      <trkpt lat="42.77326" lon="0.15888">
        <ele>2148.6</ele>
        <time>2021-01-29T13:21:58Z</time>
      </trkpt>
      <trkpt lat="42.77326" lon="0.15887">
        <ele>2148.6</ele>
        <time>2021-01-29T13:21:59Z</time>
      </trkpt>
      <trkpt lat="42.77326" lon="0.15886">
        <ele>2148.8</ele>
        <time>2021-01-29T13:22:00Z</time>
      </trkpt>
      <trkpt lat="42.77325" lon="0.15885">
        <ele>2149</ele>
        <time>2021-01-29T13:22:01Z</time>
      </trkpt>
      <trkpt lat="42.77325" lon="0.15884">
        <ele>2149</ele>
        <time>2021-01-29T13:22:02Z</time>
      </trkpt>
      <trkpt lat="42.77325" lon="0.15883">
        <ele>2149.2</ele>
        <time>2021-01-29T13:22:03Z</time>
      </trkpt>
      <trkpt lat="42.77324" lon="0.15882">
        <ele>2149.2</ele>
        <time>2021-01-29T13:22:04Z</time>
      </trkpt>
      <trkpt lat="42.77324" lon="0.15881">
        <ele>2149.4</ele>
        <time>2021-01-29T13:22:05Z</time>
      </trkpt>
      <trkpt lat="42.77323" lon="0.1588">
        <ele>2149.2</ele>
        <time>2021-01-29T13:22:06Z</time>
      </trkpt>
      <trkpt lat="42.77323" lon="0.15879">
        <ele>2149.4</ele>
        <time>2021-01-29T13:22:07Z</time>
      </trkpt>
      <trkpt lat="42.77323" lon="0.15878">
        <ele>2149.6</ele>
        <time>2021-01-29T13:22:08Z</time>
      </trkpt>
      <trkpt lat="42.77323" lon="0.15877">
        <ele>2149.6</ele>
        <time>2021-01-29T13:22:09Z</time>
      </trkpt>
      <trkpt lat="42.77322" lon="0.15876">
        <ele>2149.6</ele>
        <time>2021-01-29T13:22:10Z</time>
      </trkpt>
      <trkpt lat="42.77322" lon="0.15875">
        <ele>2149.8</ele>
        <time>2021-01-29T13:22:11Z</time>
      </trkpt>
      <trkpt lat="42.77322" lon="0.15874">
        <ele>2149.8</ele>
        <time>2021-01-29T13:22:12Z</time>
      </trkpt>
      <trkpt lat="42.77321" lon="0.15873">
        <ele>2149.8</ele>
        <time>2021-01-29T13:22:13Z</time>
      </trkpt>
      <trkpt lat="42.77321" lon="0.15872">
        <ele>2150</ele>
        <time>2021-01-29T13:22:14Z</time>
      </trkpt>
      <trkpt lat="42.77321" lon="0.15871">
        <ele>2150</ele>
        <time>2021-01-29T13:22:15Z</time>
      </trkpt>
      <trkpt lat="42.77321" lon="0.1587">
        <ele>2150</ele>
        <time>2021-01-29T13:22:16Z</time>
      </trkpt>
      <trkpt lat="42.7732" lon="0.15869">
        <ele>2150.2</ele>
        <time>2021-01-29T13:22:17Z</time>
      </trkpt>
      <trkpt lat="42.7732" lon="0.15868">
        <ele>2150.2</ele>
        <time>2021-01-29T13:22:18Z</time>
      </trkpt>
      <trkpt lat="42.77319" lon="0.15867">
        <ele>2150.2</ele>
        <time>2021-01-29T13:22:19Z</time>
      </trkpt>
      <trkpt lat="42.77319" lon="0.15866">
        <ele>2150.6</ele>
        <time>2021-01-29T13:22:20Z</time>
      </trkpt>
      <trkpt lat="42.77318" lon="0.15865">
        <ele>2150.4</ele>
        <time>2021-01-29T13:22:21Z</time>
      </trkpt>
      <trkpt lat="42.77318" lon="0.15864">
        <ele>2150.6</ele>
        <time>2021-01-29T13:22:22Z</time>
      </trkpt>
      <trkpt lat="42.77318" lon="0.15863">
        <ele>2150.8</ele>
        <time>2021-01-29T13:22:23Z</time>
      </trkpt>
      <trkpt lat="42.77317" lon="0.15863">
        <ele>2150.8</ele>
        <time>2021-01-29T13:22:24Z</time>
      </trkpt>
      <trkpt lat="42.77317" lon="0.15862">
        <ele>2150.8</ele>
        <time>2021-01-29T13:22:25Z</time>
      </trkpt>
      <trkpt lat="42.77317" lon="0.15861">
        <ele>2151</ele>
        <time>2021-01-29T13:22:26Z</time>
      </trkpt>
      <trkpt lat="42.77316" lon="0.1586">
        <ele>2151</ele>
        <time>2021-01-29T13:22:27Z</time>
      </trkpt>
      <trkpt lat="42.77316" lon="0.15859">
        <ele>2151</ele>
        <time>2021-01-29T13:22:28Z</time>
      </trkpt>
      <trkpt lat="42.77315" lon="0.15859">
        <ele>2151.2</ele>
        <time>2021-01-29T13:22:29Z</time>
      </trkpt>
      <trkpt lat="42.77315" lon="0.15858">
        <ele>2151.4</ele>
        <time>2021-01-29T13:22:30Z</time>
      </trkpt>
      <trkpt lat="42.77314" lon="0.15857">
        <ele>2151.4</ele>
        <time>2021-01-29T13:22:31Z</time>
      </trkpt>
      <trkpt lat="42.77314" lon="0.15857">
        <ele>2151.6</ele>
        <time>2021-01-29T13:22:32Z</time>
      </trkpt>
      <trkpt lat="42.77313" lon="0.15856">
        <ele>2151.6</ele>
        <time>2021-01-29T13:22:33Z</time>
      </trkpt>
      <trkpt lat="42.77313" lon="0.15856">
        <ele>2151.6</ele>
        <time>2021-01-29T13:22:34Z</time>
      </trkpt>
      <trkpt lat="42.77312" lon="0.15855">
        <ele>2151.8</ele>
        <time>2021-01-29T13:22:35Z</time>
      </trkpt>
      <trkpt lat="42.77311" lon="0.15854">
        <ele>2151.8</ele>
        <time>2021-01-29T13:22:36Z</time>
      </trkpt>
      <trkpt lat="42.77311" lon="0.15854">
        <ele>2151.8</ele>
        <time>2021-01-29T13:22:37Z</time>
      </trkpt>
      <trkpt lat="42.7731" lon="0.15853">
        <ele>2152</ele>
        <time>2021-01-29T13:22:38Z</time>
      </trkpt>
      <trkpt lat="42.77309" lon="0.15852">
        <ele>2152</ele>
        <time>2021-01-29T13:22:39Z</time>
      </trkpt>
      <trkpt lat="42.77309" lon="0.15852">
        <ele>2152</ele>
        <time>2021-01-29T13:22:40Z</time>
      </trkpt>
      <trkpt lat="42.77308" lon="0.15851">
        <ele>2152.2</ele>
        <time>2021-01-29T13:22:41Z</time>
      </trkpt>
      <trkpt lat="42.77308" lon="0.1585">
        <ele>2152.2</ele>
        <time>2021-01-29T13:22:42Z</time>
      </trkpt>
      <trkpt lat="42.77307" lon="0.1585">
        <ele>2152.2</ele>
        <time>2021-01-29T13:22:43Z</time>
      </trkpt>
      <trkpt lat="42.77307" lon="0.15849">
        <ele>2152.4</ele>
        <time>2021-01-29T13:22:44Z</time>
      </trkpt>
      <trkpt lat="42.77306" lon="0.15848">
        <ele>2152.4</ele>
        <time>2021-01-29T13:22:45Z</time>
      </trkpt>
      <trkpt lat="42.77305" lon="0.15847">
        <ele>2152.4</ele>
        <time>2021-01-29T13:22:46Z</time>
      </trkpt>
      <trkpt lat="42.77305" lon="0.15847">
        <ele>2152.6</ele>
        <time>2021-01-29T13:22:47Z</time>
      </trkpt>
      <trkpt lat="42.77304" lon="0.15846">
        <ele>2152.6</ele>
        <time>2021-01-29T13:22:48Z</time>
      </trkpt>
      <trkpt lat="42.77304" lon="0.15845">
        <ele>2152.8</ele>
        <time>2021-01-29T13:22:49Z</time>
      </trkpt>
      <trkpt lat="42.77303" lon="0.15845">
        <ele>2153</ele>
        <time>2021-01-29T13:22:50Z</time>
      </trkpt>
      <trkpt lat="42.77303" lon="0.15844">
        <ele>2153.2</ele>
        <time>2021-01-29T13:22:51Z</time>
      </trkpt>
      <trkpt lat="42.77302" lon="0.15844">
        <ele>2153.2</ele>
        <time>2021-01-29T13:22:52Z</time>
      </trkpt>
      <trkpt lat="42.77301" lon="0.15843">
        <ele>2153.4</ele>
        <time>2021-01-29T13:22:53Z</time>
      </trkpt>
      <trkpt lat="42.77301" lon="0.15842">
        <ele>2153.4</ele>
        <time>2021-01-29T13:22:54Z</time>
      </trkpt>
      <trkpt lat="42.773" lon="0.15841">
        <ele>2153.4</ele>
        <time>2021-01-29T13:22:55Z</time>
      </trkpt>
      <trkpt lat="42.773" lon="0.15841">
        <ele>2153.6</ele>
        <time>2021-01-29T13:22:56Z</time>
      </trkpt>
      <trkpt lat="42.77299" lon="0.1584">
        <ele>2153.6</ele>
        <time>2021-01-29T13:22:57Z</time>
      </trkpt>
      <trkpt lat="42.77299" lon="0.15839">
        <ele>2153.8</ele>
        <time>2021-01-29T13:22:58Z</time>
      </trkpt>
      <trkpt lat="42.77298" lon="0.15839">
        <ele>2153.8</ele>
        <time>2021-01-29T13:22:59Z</time>
      </trkpt>
      <trkpt lat="42.77298" lon="0.15839">
        <ele>2153.6</ele>
        <time>2021-01-29T13:23:00Z</time>
      </trkpt>
      <trkpt lat="42.77298" lon="0.15839">
        <ele>2153.6</ele>
        <time>2021-01-29T13:23:01Z</time>
      </trkpt>
      <trkpt lat="42.77298" lon="0.15839">
        <ele>2153.6</ele>
        <time>2021-01-29T13:23:02Z</time>
      </trkpt>
      <trkpt lat="42.77298" lon="0.15839">
        <ele>2153.6</ele>
        <time>2021-01-29T13:23:03Z</time>
      </trkpt>
      <trkpt lat="42.77298" lon="0.15839">
        <ele>2153.6</ele>
        <time>2021-01-29T13:23:04Z</time>
      </trkpt>
      <trkpt lat="42.77298" lon="0.15839">
        <ele>2153.6</ele>
        <time>2021-01-29T13:23:05Z</time>
      </trkpt>
      <trkpt lat="42.77298" lon="0.15839">
        <ele>2153.6</ele>
        <time>2021-01-29T13:23:06Z</time>
      </trkpt>
      <trkpt lat="42.77298" lon="0.15839">
        <ele>2153.6</ele>
        <time>2021-01-29T13:23:07Z</time>
      </trkpt>
      <trkpt lat="42.77298" lon="0.15839">
        <ele>2153.6</ele>
        <time>2021-01-29T13:23:08Z</time>
      </trkpt>
      <trkpt lat="42.77298" lon="0.15839">
        <ele>2153.8</ele>
        <time>2021-01-29T13:23:09Z</time>
      </trkpt>
      <trkpt lat="42.77298" lon="0.15839">
        <ele>2153.8</ele>
        <time>2021-01-29T13:23:10Z</time>
      </trkpt>
      <trkpt lat="42.77298" lon="0.15839">
        <ele>2153.8</ele>
        <time>2021-01-29T13:23:11Z</time>
      </trkpt>
      <trkpt lat="42.77298" lon="0.15839">
        <ele>2153.8</ele>
        <time>2021-01-29T13:23:12Z</time>
      </trkpt>
      <trkpt lat="42.77298" lon="0.15839">
        <ele>2153.8</ele>
        <time>2021-01-29T13:23:13Z</time>
      </trkpt>
      <trkpt lat="42.77298" lon="0.15839">
        <ele>2153.8</ele>
        <time>2021-01-29T13:23:14Z</time>
      </trkpt>
      <trkpt lat="42.77298" lon="0.15839">
        <ele>2153.8</ele>
        <time>2021-01-29T13:23:15Z</time>
      </trkpt>
      <trkpt lat="42.77298" lon="0.15839">
        <ele>2153.8</ele>
        <time>2021-01-29T13:23:16Z</time>
      </trkpt>
      <trkpt lat="42.77298" lon="0.15839">
        <ele>2153.6</ele>
        <time>2021-01-29T13:23:17Z</time>
      </trkpt>
      <trkpt lat="42.77298" lon="0.15839">
        <ele>2153.8</ele>
        <time>2021-01-29T13:23:18Z</time>
      </trkpt>
      <trkpt lat="42.77298" lon="0.15839">
        <ele>2153.8</ele>
        <time>2021-01-29T13:23:19Z</time>
      </trkpt>
      <trkpt lat="42.77298" lon="0.15839">
        <ele>2153.8</ele>
        <time>2021-01-29T13:23:20Z</time>
      </trkpt>
      <trkpt lat="42.77298" lon="0.15839">
        <ele>2153.8</ele>
        <time>2021-01-29T13:23:21Z</time>
      </trkpt>
      <trkpt lat="42.77298" lon="0.15839">
        <ele>2153.8</ele>
        <time>2021-01-29T13:23:22Z</time>
      </trkpt>
      <trkpt lat="42.77298" lon="0.15839">
        <ele>2153.8</ele>
        <time>2021-01-29T13:23:23Z</time>
      </trkpt>
      <trkpt lat="42.77298" lon="0.15839">
        <ele>2153.8</ele>
        <time>2021-01-29T13:23:24Z</time>
      </trkpt>
      <trkpt lat="42.77298" lon="0.15839">
        <ele>2153.8</ele>
        <time>2021-01-29T13:23:25Z</time>
      </trkpt>
      <trkpt lat="42.77298" lon="0.15839">
        <ele>2153.8</ele>
        <time>2021-01-29T13:23:26Z</time>
      </trkpt>
      <trkpt lat="42.77298" lon="0.15839">
        <ele>2153.6</ele>
        <time>2021-01-29T13:23:27Z</time>
      </trkpt>
      <trkpt lat="42.77298" lon="0.15839">
        <ele>2153.6</ele>
        <time>2021-01-29T13:23:28Z</time>
      </trkpt>
      <trkpt lat="42.77298" lon="0.15839">
        <ele>2153.6</ele>
        <time>2021-01-29T13:23:29Z</time>
      </trkpt>
      <trkpt lat="42.77298" lon="0.15839">
        <ele>2153.8</ele>
        <time>2021-01-29T13:23:30Z</time>
      </trkpt>
      <trkpt lat="42.77298" lon="0.15839">
        <ele>2153.8</ele>
        <time>2021-01-29T13:23:31Z</time>
      </trkpt>
      <trkpt lat="42.77298" lon="0.15839">
        <ele>2153.8</ele>
        <time>2021-01-29T13:23:32Z</time>
      </trkpt>
      <trkpt lat="42.77298" lon="0.15839">
        <ele>2153.8</ele>
        <time>2021-01-29T13:23:33Z</time>
      </trkpt>
      <trkpt lat="42.77298" lon="0.15839">
        <ele>2153.8</ele>
        <time>2021-01-29T13:23:34Z</time>
      </trkpt>
      <trkpt lat="42.77298" lon="0.15839">
        <ele>2153.8</ele>
        <time>2021-01-29T13:23:35Z</time>
      </trkpt>
      <trkpt lat="42.77298" lon="0.15838">
        <ele>2154</ele>
        <time>2021-01-29T13:23:36Z</time>
      </trkpt>
      <trkpt lat="42.77297" lon="0.15838">
        <ele>2154</ele>
        <time>2021-01-29T13:23:37Z</time>
      </trkpt>
      <trkpt lat="42.77297" lon="0.15837">
        <ele>2154</ele>
        <time>2021-01-29T13:23:38Z</time>
      </trkpt>
      <trkpt lat="42.77296" lon="0.15836">
        <ele>2154</ele>
        <time>2021-01-29T13:23:39Z</time>
      </trkpt>
      <trkpt lat="42.77296" lon="0.15835">
        <ele>2154.2</ele>
        <time>2021-01-29T13:23:40Z</time>
      </trkpt>
      <trkpt lat="42.77295" lon="0.15834">
        <ele>2154.2</ele>
        <time>2021-01-29T13:23:41Z</time>
      </trkpt>
      <trkpt lat="42.77294" lon="0.15833">
        <ele>2154</ele>
        <time>2021-01-29T13:23:42Z</time>
      </trkpt>
      <trkpt lat="42.77294" lon="0.15832">
        <ele>2154.2</ele>
        <time>2021-01-29T13:23:43Z</time>
      </trkpt>
      <trkpt lat="42.77293" lon="0.15831">
        <ele>2154</ele>
        <time>2021-01-29T13:23:44Z</time>
      </trkpt>
      <trkpt lat="42.77293" lon="0.15831">
        <ele>2154.2</ele>
        <time>2021-01-29T13:23:45Z</time>
      </trkpt>
      <trkpt lat="42.77292" lon="0.1583">
        <ele>2154.4</ele>
        <time>2021-01-29T13:23:46Z</time>
      </trkpt>
      <trkpt lat="42.77291" lon="0.15829">
        <ele>2154.4</ele>
        <time>2021-01-29T13:23:47Z</time>
      </trkpt>
      <trkpt lat="42.77291" lon="0.15828">
        <ele>2154.4</ele>
        <time>2021-01-29T13:23:48Z</time>
      </trkpt>
      <trkpt lat="42.7729" lon="0.15827">
        <ele>2154.4</ele>
        <time>2021-01-29T13:23:49Z</time>
      </trkpt>
      <trkpt lat="42.77289" lon="0.15827">
        <ele>2154.4</ele>
        <time>2021-01-29T13:23:50Z</time>
      </trkpt>
      <trkpt lat="42.77289" lon="0.15826">
        <ele>2154.6</ele>
        <time>2021-01-29T13:23:51Z</time>
      </trkpt>
      <trkpt lat="42.77288" lon="0.15825">
        <ele>2154.6</ele>
        <time>2021-01-29T13:23:52Z</time>
      </trkpt>
      <trkpt lat="42.77287" lon="0.15825">
        <ele>2154.4</ele>
        <time>2021-01-29T13:23:53Z</time>
      </trkpt>
      <trkpt lat="42.77287" lon="0.15824">
        <ele>2154.6</ele>
        <time>2021-01-29T13:23:54Z</time>
      </trkpt>
      <trkpt lat="42.77286" lon="0.15823">
        <ele>2154.6</ele>
        <time>2021-01-29T13:23:55Z</time>
      </trkpt>
      <trkpt lat="42.77285" lon="0.15823">
        <ele>2154.8</ele>
        <time>2021-01-29T13:23:56Z</time>
      </trkpt>
      <trkpt lat="42.77285" lon="0.15822">
        <ele>2154.8</ele>
        <time>2021-01-29T13:23:57Z</time>
      </trkpt>
      <trkpt lat="42.77284" lon="0.15821">
        <ele>2154.6</ele>
        <time>2021-01-29T13:23:58Z</time>
      </trkpt>
      <trkpt lat="42.77284" lon="0.1582">
        <ele>2154.8</ele>
        <time>2021-01-29T13:23:59Z</time>
      </trkpt>
      <trkpt lat="42.77283" lon="0.1582">
        <ele>2154.8</ele>
        <time>2021-01-29T13:24:00Z</time>
      </trkpt>
      <trkpt lat="42.77283" lon="0.1582">
        <ele>2154.8</ele>
        <time>2021-01-29T13:24:01Z</time>
      </trkpt>
      <trkpt lat="42.77282" lon="0.15819">
        <ele>2155</ele>
        <time>2021-01-29T13:24:02Z</time>
      </trkpt>
      <trkpt lat="42.77282" lon="0.15818">
        <ele>2155</ele>
        <time>2021-01-29T13:24:03Z</time>
      </trkpt>
      <trkpt lat="42.77281" lon="0.15817">
        <ele>2155</ele>
        <time>2021-01-29T13:24:04Z</time>
      </trkpt>
      <trkpt lat="42.77281" lon="0.15816">
        <ele>2155</ele>
        <time>2021-01-29T13:24:05Z</time>
      </trkpt>
      <trkpt lat="42.7728" lon="0.15815">
        <ele>2155</ele>
        <time>2021-01-29T13:24:06Z</time>
      </trkpt>
      <trkpt lat="42.77279" lon="0.15814">
        <ele>2155.2</ele>
        <time>2021-01-29T13:24:07Z</time>
      </trkpt>
      <trkpt lat="42.77279" lon="0.15813">
        <ele>2155.2</ele>
        <time>2021-01-29T13:24:08Z</time>
      </trkpt>
      <trkpt lat="42.77278" lon="0.15812">
        <ele>2155.2</ele>
        <time>2021-01-29T13:24:09Z</time>
      </trkpt>
      <trkpt lat="42.77277" lon="0.15812">
        <ele>2155.4</ele>
        <time>2021-01-29T13:24:10Z</time>
      </trkpt>
      <trkpt lat="42.77277" lon="0.15811">
        <ele>2155.2</ele>
        <time>2021-01-29T13:24:11Z</time>
      </trkpt>
      <trkpt lat="42.77276" lon="0.15811">
        <ele>2155.2</ele>
        <time>2021-01-29T13:24:12Z</time>
      </trkpt>
      <trkpt lat="42.77276" lon="0.1581">
        <ele>2155.4</ele>
        <time>2021-01-29T13:24:13Z</time>
      </trkpt>
      <trkpt lat="42.77275" lon="0.1581">
        <ele>2155.4</ele>
        <time>2021-01-29T13:24:14Z</time>
      </trkpt>
      <trkpt lat="42.77274" lon="0.15809">
        <ele>2155.4</ele>
        <time>2021-01-29T13:24:15Z</time>
      </trkpt>
      <trkpt lat="42.77273" lon="0.15809">
        <ele>2155.4</ele>
        <time>2021-01-29T13:24:16Z</time>
      </trkpt>
      <trkpt lat="42.77272" lon="0.15808">
        <ele>2155.4</ele>
        <time>2021-01-29T13:24:17Z</time>
      </trkpt>
      <trkpt lat="42.77272" lon="0.15807">
        <ele>2155.6</ele>
        <time>2021-01-29T13:24:18Z</time>
      </trkpt>
      <trkpt lat="42.77271" lon="0.15807">
        <ele>2155.6</ele>
        <time>2021-01-29T13:24:19Z</time>
      </trkpt>
      <trkpt lat="42.7727" lon="0.15806">
        <ele>2155.6</ele>
        <time>2021-01-29T13:24:20Z</time>
      </trkpt>
      <trkpt lat="42.7727" lon="0.15806">
        <ele>2155.8</ele>
        <time>2021-01-29T13:24:21Z</time>
      </trkpt>
      <trkpt lat="42.77269" lon="0.15805">
        <ele>2155.8</ele>
        <time>2021-01-29T13:24:22Z</time>
      </trkpt>
      <trkpt lat="42.77269" lon="0.15805">
        <ele>2155.8</ele>
        <time>2021-01-29T13:24:23Z</time>
      </trkpt>
      <trkpt lat="42.77268" lon="0.15804">
        <ele>2156</ele>
        <time>2021-01-29T13:24:24Z</time>
      </trkpt>
      <trkpt lat="42.77267" lon="0.15803">
        <ele>2155.8</ele>
        <time>2021-01-29T13:24:25Z</time>
      </trkpt>
      <trkpt lat="42.77267" lon="0.15803">
        <ele>2156</ele>
        <time>2021-01-29T13:24:26Z</time>
      </trkpt>
      <trkpt lat="42.77266" lon="0.15802">
        <ele>2156</ele>
        <time>2021-01-29T13:24:27Z</time>
      </trkpt>
      <trkpt lat="42.77265" lon="0.15801">
        <ele>2156.2</ele>
        <time>2021-01-29T13:24:28Z</time>
      </trkpt>
      <trkpt lat="42.77264" lon="0.15801">
        <ele>2156.2</ele>
        <time>2021-01-29T13:24:29Z</time>
      </trkpt>
      <trkpt lat="42.77264" lon="0.158">
        <ele>2156.4</ele>
        <time>2021-01-29T13:24:30Z</time>
      </trkpt>
      <trkpt lat="42.77263" lon="0.15799">
        <ele>2156.2</ele>
        <time>2021-01-29T13:24:31Z</time>
      </trkpt>
      <trkpt lat="42.77263" lon="0.15799">
        <ele>2156.4</ele>
        <time>2021-01-29T13:24:32Z</time>
      </trkpt>
      <trkpt lat="42.77262" lon="0.15798">
        <ele>2156.4</ele>
        <time>2021-01-29T13:24:33Z</time>
      </trkpt>
      <trkpt lat="42.77261" lon="0.15797">
        <ele>2156.4</ele>
        <time>2021-01-29T13:24:34Z</time>
      </trkpt>
      <trkpt lat="42.77261" lon="0.15796">
        <ele>2156.8</ele>
        <time>2021-01-29T13:24:35Z</time>
      </trkpt>
      <trkpt lat="42.7726" lon="0.15795">
        <ele>2156.8</ele>
        <time>2021-01-29T13:24:36Z</time>
      </trkpt>
      <trkpt lat="42.77259" lon="0.15795">
        <ele>2156.8</ele>
        <time>2021-01-29T13:24:37Z</time>
      </trkpt>
      <trkpt lat="42.77259" lon="0.15794">
        <ele>2156.8</ele>
        <time>2021-01-29T13:24:38Z</time>
      </trkpt>
      <trkpt lat="42.77258" lon="0.15794">
        <ele>2156.8</ele>
        <time>2021-01-29T13:24:39Z</time>
      </trkpt>
      <trkpt lat="42.77258" lon="0.15794">
        <ele>2157</ele>
        <time>2021-01-29T13:24:40Z</time>
      </trkpt>
      <trkpt lat="42.77257" lon="0.15793">
        <ele>2157</ele>
        <time>2021-01-29T13:24:41Z</time>
      </trkpt>
      <trkpt lat="42.77256" lon="0.15793">
        <ele>2157</ele>
        <time>2021-01-29T13:24:42Z</time>
      </trkpt>
      <trkpt lat="42.77256" lon="0.15792">
        <ele>2157.2</ele>
        <time>2021-01-29T13:24:43Z</time>
      </trkpt>
      <trkpt lat="42.77255" lon="0.15792">
        <ele>2157.2</ele>
        <time>2021-01-29T13:24:44Z</time>
      </trkpt>
      <trkpt lat="42.77255" lon="0.15791">
        <ele>2157.2</ele>
        <time>2021-01-29T13:24:45Z</time>
      </trkpt>
      <trkpt lat="42.77254" lon="0.15791">
        <ele>2157.4</ele>
        <time>2021-01-29T13:24:46Z</time>
      </trkpt>
      <trkpt lat="42.77253" lon="0.1579">
        <ele>2157.2</ele>
        <time>2021-01-29T13:24:47Z</time>
      </trkpt>
      <trkpt lat="42.77253" lon="0.1579">
        <ele>2157.4</ele>
        <time>2021-01-29T13:24:48Z</time>
      </trkpt>
      <trkpt lat="42.77252" lon="0.15789">
        <ele>2157.4</ele>
        <time>2021-01-29T13:24:49Z</time>
      </trkpt>
      <trkpt lat="42.77252" lon="0.15789">
        <ele>2157.6</ele>
        <time>2021-01-29T13:24:50Z</time>
      </trkpt>
      <trkpt lat="42.77251" lon="0.15788">
        <ele>2157.6</ele>
        <time>2021-01-29T13:24:51Z</time>
      </trkpt>
      <trkpt lat="42.77251" lon="0.15788">
        <ele>2157.6</ele>
        <time>2021-01-29T13:24:52Z</time>
      </trkpt>
      <trkpt lat="42.77251" lon="0.15787">
        <ele>2157.6</ele>
        <time>2021-01-29T13:24:53Z</time>
      </trkpt>
      <trkpt lat="42.7725" lon="0.15787">
        <ele>2157.6</ele>
        <time>2021-01-29T13:24:54Z</time>
      </trkpt>
      <trkpt lat="42.7725" lon="0.15787">
        <ele>2157.6</ele>
        <time>2021-01-29T13:24:55Z</time>
      </trkpt>
      <trkpt lat="42.77249" lon="0.15786">
        <ele>2158</ele>
        <time>2021-01-29T13:24:56Z</time>
      </trkpt>
      <trkpt lat="42.77249" lon="0.15786">
        <ele>2158</ele>
        <time>2021-01-29T13:24:57Z</time>
      </trkpt>
      <trkpt lat="42.77249" lon="0.15785">
        <ele>2158.2</ele>
        <time>2021-01-29T13:24:58Z</time>
      </trkpt>
      <trkpt lat="42.77248" lon="0.15784">
        <ele>2158.4</ele>
        <time>2021-01-29T13:24:59Z</time>
      </trkpt>
      <trkpt lat="42.77248" lon="0.15784">
        <ele>2158.6</ele>
        <time>2021-01-29T13:25:00Z</time>
      </trkpt>
      <trkpt lat="42.77247" lon="0.15783">
        <ele>2158.6</ele>
        <time>2021-01-29T13:25:01Z</time>
      </trkpt>
      <trkpt lat="42.77247" lon="0.15783">
        <ele>2158.8</ele>
        <time>2021-01-29T13:25:02Z</time>
      </trkpt>
      <trkpt lat="42.77246" lon="0.15782">
        <ele>2159</ele>
        <time>2021-01-29T13:25:03Z</time>
      </trkpt>
      <trkpt lat="42.77245" lon="0.15782">
        <ele>2159.2</ele>
        <time>2021-01-29T13:25:04Z</time>
      </trkpt>
      <trkpt lat="42.77245" lon="0.15781">
        <ele>2159.2</ele>
        <time>2021-01-29T13:25:05Z</time>
      </trkpt>
      <trkpt lat="42.77244" lon="0.15781">
        <ele>2159.2</ele>
        <time>2021-01-29T13:25:06Z</time>
      </trkpt>
      <trkpt lat="42.77243" lon="0.15781">
        <ele>2159.6</ele>
        <time>2021-01-29T13:25:07Z</time>
      </trkpt>
      <trkpt lat="42.77243" lon="0.1578">
        <ele>2159.4</ele>
        <time>2021-01-29T13:25:08Z</time>
      </trkpt>
      <trkpt lat="42.77242" lon="0.1578">
        <ele>2159.8</ele>
        <time>2021-01-29T13:25:09Z</time>
      </trkpt>
      <trkpt lat="42.77241" lon="0.15779">
        <ele>2160</ele>
        <time>2021-01-29T13:25:10Z</time>
      </trkpt>
      <trkpt lat="42.77241" lon="0.15779">
        <ele>2159.8</ele>
        <time>2021-01-29T13:25:11Z</time>
      </trkpt>
      <trkpt lat="42.7724" lon="0.15778">
        <ele>2160.2</ele>
        <time>2021-01-29T13:25:12Z</time>
      </trkpt>
      <trkpt lat="42.7724" lon="0.15778">
        <ele>2160.2</ele>
        <time>2021-01-29T13:25:13Z</time>
      </trkpt>
      <trkpt lat="42.77239" lon="0.15777">
        <ele>2160.4</ele>
        <time>2021-01-29T13:25:14Z</time>
      </trkpt>
      <trkpt lat="42.77239" lon="0.15777">
        <ele>2160.6</ele>
        <time>2021-01-29T13:25:15Z</time>
      </trkpt>
      <trkpt lat="42.77239" lon="0.15776">
        <ele>2160.6</ele>
        <time>2021-01-29T13:25:16Z</time>
      </trkpt>
      <trkpt lat="42.77238" lon="0.15776">
        <ele>2160.8</ele>
        <time>2021-01-29T13:25:17Z</time>
      </trkpt>
      <trkpt lat="42.77238" lon="0.15776">
        <ele>2160.8</ele>
        <time>2021-01-29T13:25:18Z</time>
      </trkpt>
      <trkpt lat="42.77237" lon="0.15775">
        <ele>2160.8</ele>
        <time>2021-01-29T13:25:19Z</time>
      </trkpt>
      <trkpt lat="42.77236" lon="0.15775">
        <ele>2161.2</ele>
        <time>2021-01-29T13:25:20Z</time>
      </trkpt>
      <trkpt lat="42.77236" lon="0.15774">
        <ele>2161.2</ele>
        <time>2021-01-29T13:25:21Z</time>
      </trkpt>
      <trkpt lat="42.77235" lon="0.15774">
        <ele>2161.4</ele>
        <time>2021-01-29T13:25:22Z</time>
      </trkpt>
      <trkpt lat="42.77235" lon="0.15773">
        <ele>2161.4</ele>
        <time>2021-01-29T13:25:23Z</time>
      </trkpt>
      <trkpt lat="42.77234" lon="0.15773">
        <ele>2161.6</ele>
        <time>2021-01-29T13:25:24Z</time>
      </trkpt>
      <trkpt lat="42.77234" lon="0.15773">
        <ele>2161.8</ele>
        <time>2021-01-29T13:25:25Z</time>
      </trkpt>
      <trkpt lat="42.77234" lon="0.15772">
        <ele>2161.8</ele>
        <time>2021-01-29T13:25:26Z</time>
      </trkpt>
      <trkpt lat="42.77234" lon="0.15772">
        <ele>2161.8</ele>
        <time>2021-01-29T13:25:27Z</time>
      </trkpt>
      <trkpt lat="42.77234" lon="0.15772">
        <ele>2162</ele>
        <time>2021-01-29T13:25:28Z</time>
      </trkpt>
      <trkpt lat="42.77234" lon="0.15772">
        <ele>2162</ele>
        <time>2021-01-29T13:25:29Z</time>
      </trkpt>
      <trkpt lat="42.77234" lon="0.15772">
        <ele>2162</ele>
        <time>2021-01-29T13:25:30Z</time>
      </trkpt>
      <trkpt lat="42.77234" lon="0.15772">
        <ele>2162</ele>
        <time>2021-01-29T13:25:31Z</time>
      </trkpt>
      <trkpt lat="42.77234" lon="0.15772">
        <ele>2162</ele>
        <time>2021-01-29T13:25:32Z</time>
      </trkpt>
      <trkpt lat="42.77234" lon="0.15772">
        <ele>2162</ele>
        <time>2021-01-29T13:25:33Z</time>
      </trkpt>
      <trkpt lat="42.77234" lon="0.15772">
        <ele>2162</ele>
        <time>2021-01-29T13:25:34Z</time>
      </trkpt>
      <trkpt lat="42.77234" lon="0.15772">
        <ele>2162</ele>
        <time>2021-01-29T13:25:35Z</time>
      </trkpt>
      <trkpt lat="42.77234" lon="0.15772">
        <ele>2162</ele>
        <time>2021-01-29T13:25:36Z</time>
      </trkpt>
      <trkpt lat="42.77234" lon="0.15772">
        <ele>2162</ele>
        <time>2021-01-29T13:25:37Z</time>
      </trkpt>
      <trkpt lat="42.77234" lon="0.15772">
        <ele>2162</ele>
        <time>2021-01-29T13:25:38Z</time>
      </trkpt>
      <trkpt lat="42.77234" lon="0.15772">
        <ele>2162</ele>
        <time>2021-01-29T13:25:39Z</time>
      </trkpt>
      <trkpt lat="42.77234" lon="0.15772">
        <ele>2162</ele>
        <time>2021-01-29T13:25:40Z</time>
      </trkpt>
      <trkpt lat="42.77234" lon="0.15772">
        <ele>2162</ele>
        <time>2021-01-29T13:25:41Z</time>
      </trkpt>
      <trkpt lat="42.77234" lon="0.15772">
        <ele>2162</ele>
        <time>2021-01-29T13:25:42Z</time>
      </trkpt>
      <trkpt lat="42.77234" lon="0.15772">
        <ele>2162</ele>
        <time>2021-01-29T13:25:43Z</time>
      </trkpt>
      <trkpt lat="42.77234" lon="0.15772">
        <ele>2162</ele>
        <time>2021-01-29T13:25:44Z</time>
      </trkpt>
      <trkpt lat="42.77234" lon="0.15772">
        <ele>2162</ele>
        <time>2021-01-29T13:25:45Z</time>
      </trkpt>
      <trkpt lat="42.77234" lon="0.15772">
        <ele>2162.2</ele>
        <time>2021-01-29T13:25:46Z</time>
      </trkpt>
      <trkpt lat="42.77234" lon="0.15772">
        <ele>2162.2</ele>
        <time>2021-01-29T13:25:47Z</time>
      </trkpt>
      <trkpt lat="42.77234" lon="0.15772">
        <ele>2162</ele>
        <time>2021-01-29T13:25:48Z</time>
      </trkpt>
      <trkpt lat="42.77234" lon="0.15772">
        <ele>2162</ele>
        <time>2021-01-29T13:25:49Z</time>
      </trkpt>
      <trkpt lat="42.77234" lon="0.15772">
        <ele>2162</ele>
        <time>2021-01-29T13:25:50Z</time>
      </trkpt>
      <trkpt lat="42.77234" lon="0.15772">
        <ele>2162</ele>
        <time>2021-01-29T13:25:51Z</time>
      </trkpt>
      <trkpt lat="42.77234" lon="0.15772">
        <ele>2162.2</ele>
        <time>2021-01-29T13:25:52Z</time>
      </trkpt>
      <trkpt lat="42.77234" lon="0.15772">
        <ele>2162.2</ele>
        <time>2021-01-29T13:25:53Z</time>
      </trkpt>
      <trkpt lat="42.77234" lon="0.15772">
        <ele>2162.2</ele>
        <time>2021-01-29T13:25:54Z</time>
      </trkpt>
      <trkpt lat="42.77234" lon="0.15772">
        <ele>2162.2</ele>
        <time>2021-01-29T13:25:55Z</time>
      </trkpt>
      <trkpt lat="42.77234" lon="0.15772">
        <ele>2162.2</ele>
        <time>2021-01-29T13:25:56Z</time>
      </trkpt>
      <trkpt lat="42.77234" lon="0.15772">
        <ele>2162.2</ele>
        <time>2021-01-29T13:25:57Z</time>
      </trkpt>
      <trkpt lat="42.77234" lon="0.15772">
        <ele>2162.4</ele>
        <time>2021-01-29T13:25:58Z</time>
      </trkpt>
      <trkpt lat="42.77234" lon="0.15772">
        <ele>2162.4</ele>
        <time>2021-01-29T13:25:59Z</time>
      </trkpt>
      <trkpt lat="42.77234" lon="0.15772">
        <ele>2162.4</ele>
        <time>2021-01-29T13:26:00Z</time>
      </trkpt>
      <trkpt lat="42.77234" lon="0.15772">
        <ele>2162.4</ele>
        <time>2021-01-29T13:26:01Z</time>
      </trkpt>
      <trkpt lat="42.77234" lon="0.15772">
        <ele>2162.4</ele>
        <time>2021-01-29T13:26:02Z</time>
      </trkpt>
      <trkpt lat="42.77234" lon="0.15772">
        <ele>2162.4</ele>
        <time>2021-01-29T13:26:03Z</time>
      </trkpt>
      <trkpt lat="42.77234" lon="0.15772">
        <ele>2162.4</ele>
        <time>2021-01-29T13:26:04Z</time>
      </trkpt>
      <trkpt lat="42.77234" lon="0.15772">
        <ele>2162.4</ele>
        <time>2021-01-29T13:26:05Z</time>
      </trkpt>
      <trkpt lat="42.77234" lon="0.15772">
        <ele>2162.4</ele>
        <time>2021-01-29T13:26:06Z</time>
      </trkpt>
      <trkpt lat="42.77234" lon="0.15772">
        <ele>2162.4</ele>
        <time>2021-01-29T13:26:07Z</time>
      </trkpt>
      <trkpt lat="42.77234" lon="0.15772">
        <ele>2162.4</ele>
        <time>2021-01-29T13:26:08Z</time>
      </trkpt>
      <trkpt lat="42.77234" lon="0.15772">
        <ele>2162.4</ele>
        <time>2021-01-29T13:26:09Z</time>
      </trkpt>
      <trkpt lat="42.77234" lon="0.15772">
        <ele>2162.4</ele>
        <time>2021-01-29T13:26:10Z</time>
      </trkpt>
      <trkpt lat="42.77234" lon="0.15772">
        <ele>2162.4</ele>
        <time>2021-01-29T13:26:11Z</time>
      </trkpt>
      <trkpt lat="42.77234" lon="0.15772">
        <ele>2162.4</ele>
        <time>2021-01-29T13:26:12Z</time>
      </trkpt>
      <trkpt lat="42.77234" lon="0.15772">
        <ele>2162.4</ele>
        <time>2021-01-29T13:26:13Z</time>
      </trkpt>
      <trkpt lat="42.77234" lon="0.15772">
        <ele>2162.4</ele>
        <time>2021-01-29T13:26:14Z</time>
      </trkpt>
      <trkpt lat="42.77234" lon="0.15772">
        <ele>2162.4</ele>
        <time>2021-01-29T13:26:15Z</time>
      </trkpt>
      <trkpt lat="42.77234" lon="0.15772">
        <ele>2162.4</ele>
        <time>2021-01-29T13:26:16Z</time>
      </trkpt>
      <trkpt lat="42.77234" lon="0.15772">
        <ele>2162.4</ele>
        <time>2021-01-29T13:26:17Z</time>
      </trkpt>
      <trkpt lat="42.77234" lon="0.15772">
        <ele>2162.4</ele>
        <time>2021-01-29T13:26:18Z</time>
      </trkpt>
      <trkpt lat="42.77234" lon="0.15772">
        <ele>2162.4</ele>
        <time>2021-01-29T13:26:19Z</time>
      </trkpt>
      <trkpt lat="42.77234" lon="0.15772">
        <ele>2162.4</ele>
        <time>2021-01-29T13:26:20Z</time>
      </trkpt>
      <trkpt lat="42.77234" lon="0.15772">
        <ele>2162.4</ele>
        <time>2021-01-29T13:26:21Z</time>
      </trkpt>
      <trkpt lat="42.77234" lon="0.15772">
        <ele>2162.4</ele>
        <time>2021-01-29T13:26:22Z</time>
      </trkpt>
      <trkpt lat="42.77234" lon="0.15772">
        <ele>2162.4</ele>
        <time>2021-01-29T13:26:23Z</time>
      </trkpt>
      <trkpt lat="42.77234" lon="0.15772">
        <ele>2162.4</ele>
        <time>2021-01-29T13:26:24Z</time>
      </trkpt>
      <trkpt lat="42.77234" lon="0.15772">
        <ele>2162.4</ele>
        <time>2021-01-29T13:26:25Z</time>
      </trkpt>
      <trkpt lat="42.77234" lon="0.15772">
        <ele>2162.4</ele>
        <time>2021-01-29T13:26:26Z</time>
      </trkpt>
      <trkpt lat="42.77234" lon="0.15772">
        <ele>2162.4</ele>
        <time>2021-01-29T13:26:27Z</time>
      </trkpt>
      <trkpt lat="42.77234" lon="0.15772">
        <ele>2162.4</ele>
        <time>2021-01-29T13:26:28Z</time>
      </trkpt>
      <trkpt lat="42.77234" lon="0.15772">
        <ele>2162.4</ele>
        <time>2021-01-29T13:26:29Z</time>
      </trkpt>
      <trkpt lat="42.77234" lon="0.15772">
        <ele>2162.4</ele>
        <time>2021-01-29T13:26:30Z</time>
      </trkpt>
      <trkpt lat="42.77234" lon="0.15772">
        <ele>2162.4</ele>
        <time>2021-01-29T13:26:31Z</time>
      </trkpt>
      <trkpt lat="42.77234" lon="0.15772">
        <ele>2162.4</ele>
        <time>2021-01-29T13:26:32Z</time>
      </trkpt>
      <trkpt lat="42.77234" lon="0.15772">
        <ele>2162.4</ele>
        <time>2021-01-29T13:26:33Z</time>
      </trkpt>
      <trkpt lat="42.77234" lon="0.15772">
        <ele>2162.4</ele>
        <time>2021-01-29T13:26:34Z</time>
      </trkpt>
      <trkpt lat="42.77234" lon="0.15772">
        <ele>2162.4</ele>
        <time>2021-01-29T13:26:35Z</time>
      </trkpt>
      <trkpt lat="42.77234" lon="0.15772">
        <ele>2162.6</ele>
        <time>2021-01-29T13:26:36Z</time>
      </trkpt>
      <trkpt lat="42.77234" lon="0.15772">
        <ele>2162.6</ele>
        <time>2021-01-29T13:26:37Z</time>
      </trkpt>
      <trkpt lat="42.77234" lon="0.15772">
        <ele>2162.6</ele>
        <time>2021-01-29T13:26:38Z</time>
      </trkpt>
      <trkpt lat="42.77234" lon="0.15772">
        <ele>2162.6</ele>
        <time>2021-01-29T13:26:39Z</time>
      </trkpt>
      <trkpt lat="42.77234" lon="0.15772">
        <ele>2162.6</ele>
        <time>2021-01-29T13:26:40Z</time>
      </trkpt>
      <trkpt lat="42.77234" lon="0.15772">
        <ele>2162.6</ele>
        <time>2021-01-29T13:26:41Z</time>
      </trkpt>
      <trkpt lat="42.77234" lon="0.15772">
        <ele>2162.6</ele>
        <time>2021-01-29T13:26:42Z</time>
      </trkpt>
      <trkpt lat="42.77234" lon="0.15772">
        <ele>2162.6</ele>
        <time>2021-01-29T13:26:43Z</time>
      </trkpt>
      <trkpt lat="42.77234" lon="0.15772">
        <ele>2162.6</ele>
        <time>2021-01-29T13:26:44Z</time>
      </trkpt>
      <trkpt lat="42.77234" lon="0.15772">
        <ele>2162.8</ele>
        <time>2021-01-29T13:26:45Z</time>
      </trkpt>
      <trkpt lat="42.77234" lon="0.15772">
        <ele>2162.8</ele>
        <time>2021-01-29T13:26:46Z</time>
      </trkpt>
      <trkpt lat="42.77234" lon="0.15772">
        <ele>2162.8</ele>
        <time>2021-01-29T13:26:47Z</time>
      </trkpt>
      <trkpt lat="42.77234" lon="0.15772">
        <ele>2162.8</ele>
        <time>2021-01-29T13:26:48Z</time>
      </trkpt>
      <trkpt lat="42.77234" lon="0.15772">
        <ele>2162.8</ele>
        <time>2021-01-29T13:26:49Z</time>
      </trkpt>
      <trkpt lat="42.77234" lon="0.15772">
        <ele>2162.8</ele>
        <time>2021-01-29T13:26:50Z</time>
      </trkpt>
      <trkpt lat="42.77234" lon="0.15772">
        <ele>2163</ele>
        <time>2021-01-29T13:26:51Z</time>
      </trkpt>
      <trkpt lat="42.77234" lon="0.15772">
        <ele>2163</ele>
        <time>2021-01-29T13:26:52Z</time>
      </trkpt>
      <trkpt lat="42.77234" lon="0.15772">
        <ele>2163</ele>
        <time>2021-01-29T13:26:53Z</time>
      </trkpt>
      <trkpt lat="42.77234" lon="0.15772">
        <ele>2163</ele>
        <time>2021-01-29T13:26:54Z</time>
      </trkpt>
      <trkpt lat="42.77234" lon="0.15772">
        <ele>2162.8</ele>
        <time>2021-01-29T13:26:55Z</time>
      </trkpt>
      <trkpt lat="42.77234" lon="0.15772">
        <ele>2162.8</ele>
        <time>2021-01-29T13:26:56Z</time>
      </trkpt>
      <trkpt lat="42.77234" lon="0.15772">
        <ele>2162.8</ele>
        <time>2021-01-29T13:26:57Z</time>
      </trkpt>
      <trkpt lat="42.77234" lon="0.15772">
        <ele>2162.8</ele>
        <time>2021-01-29T13:26:58Z</time>
      </trkpt>
      <trkpt lat="42.77234" lon="0.15772">
        <ele>2162.8</ele>
        <time>2021-01-29T13:26:59Z</time>
      </trkpt>
      <trkpt lat="42.77234" lon="0.15772">
        <ele>2162.8</ele>
        <time>2021-01-29T13:27:00Z</time>
      </trkpt>
      <trkpt lat="42.77234" lon="0.15772">
        <ele>2162.8</ele>
        <time>2021-01-29T13:27:01Z</time>
      </trkpt>
      <trkpt lat="42.77234" lon="0.15772">
        <ele>2162.8</ele>
        <time>2021-01-29T13:27:02Z</time>
      </trkpt>
      <trkpt lat="42.77234" lon="0.15772">
        <ele>2162.8</ele>
        <time>2021-01-29T13:27:03Z</time>
      </trkpt>
      <trkpt lat="42.77234" lon="0.15772">
        <ele>2162.8</ele>
        <time>2021-01-29T13:27:04Z</time>
      </trkpt>
      <trkpt lat="42.77234" lon="0.15772">
        <ele>2162.6</ele>
        <time>2021-01-29T13:27:05Z</time>
      </trkpt>
      <trkpt lat="42.77234" lon="0.15772">
        <ele>2162.6</ele>
        <time>2021-01-29T13:27:06Z</time>
      </trkpt>
      <trkpt lat="42.77234" lon="0.15772">
        <ele>2162.6</ele>
        <time>2021-01-29T13:27:07Z</time>
      </trkpt>
      <trkpt lat="42.77234" lon="0.15772">
        <ele>2162.6</ele>
        <time>2021-01-29T13:27:08Z</time>
      </trkpt>
      <trkpt lat="42.77234" lon="0.15772">
        <ele>2162.4</ele>
        <time>2021-01-29T13:27:09Z</time>
      </trkpt>
      <trkpt lat="42.77234" lon="0.15772">
        <ele>2162.4</ele>
        <time>2021-01-29T13:27:10Z</time>
      </trkpt>
      <trkpt lat="42.77234" lon="0.15772">
        <ele>2162.4</ele>
        <time>2021-01-29T13:27:11Z</time>
      </trkpt>
      <trkpt lat="42.77234" lon="0.15772">
        <ele>2162.4</ele>
        <time>2021-01-29T13:27:12Z</time>
      </trkpt>
      <trkpt lat="42.77234" lon="0.15772">
        <ele>2162.4</ele>
        <time>2021-01-29T13:27:13Z</time>
      </trkpt>
      <trkpt lat="42.77234" lon="0.15772">
        <ele>2162.4</ele>
        <time>2021-01-29T13:27:14Z</time>
      </trkpt>
      <trkpt lat="42.77234" lon="0.15772">
        <ele>2162.4</ele>
        <time>2021-01-29T13:27:15Z</time>
      </trkpt>
      <trkpt lat="42.77234" lon="0.15772">
        <ele>2162.4</ele>
        <time>2021-01-29T13:27:16Z</time>
      </trkpt>
      <trkpt lat="42.77234" lon="0.15772">
        <ele>2162.4</ele>
        <time>2021-01-29T13:27:17Z</time>
      </trkpt>
      <trkpt lat="42.77234" lon="0.15772">
        <ele>2162.4</ele>
        <time>2021-01-29T13:27:18Z</time>
      </trkpt>
      <trkpt lat="42.77234" lon="0.15772">
        <ele>2162.4</ele>
        <time>2021-01-29T13:27:19Z</time>
      </trkpt>
      <trkpt lat="42.77234" lon="0.15772">
        <ele>2162.6</ele>
        <time>2021-01-29T13:27:20Z</time>
      </trkpt>
      <trkpt lat="42.77234" lon="0.15772">
        <ele>2162.6</ele>
        <time>2021-01-29T13:27:21Z</time>
      </trkpt>
      <trkpt lat="42.77234" lon="0.15772">
        <ele>2162.6</ele>
        <time>2021-01-29T13:27:22Z</time>
      </trkpt>
      <trkpt lat="42.77234" lon="0.15772">
        <ele>2162.6</ele>
        <time>2021-01-29T13:27:23Z</time>
      </trkpt>
      <trkpt lat="42.77234" lon="0.15772">
        <ele>2162.6</ele>
        <time>2021-01-29T13:27:24Z</time>
      </trkpt>
      <trkpt lat="42.77234" lon="0.15772">
        <ele>2162.6</ele>
        <time>2021-01-29T13:27:25Z</time>
      </trkpt>
      <trkpt lat="42.77234" lon="0.15772">
        <ele>2162.6</ele>
        <time>2021-01-29T13:27:26Z</time>
      </trkpt>
      <trkpt lat="42.77234" lon="0.15772">
        <ele>2162.6</ele>
        <time>2021-01-29T13:27:27Z</time>
      </trkpt>
      <trkpt lat="42.77234" lon="0.15772">
        <ele>2162.6</ele>
        <time>2021-01-29T13:27:28Z</time>
      </trkpt>
      <trkpt lat="42.77234" lon="0.15772">
        <ele>2162.4</ele>
        <time>2021-01-29T13:27:29Z</time>
      </trkpt>
      <trkpt lat="42.77234" lon="0.15772">
        <ele>2162.4</ele>
        <time>2021-01-29T13:27:30Z</time>
      </trkpt>
      <trkpt lat="42.77234" lon="0.15772">
        <ele>2162.4</ele>
        <time>2021-01-29T13:27:31Z</time>
      </trkpt>
      <trkpt lat="42.77234" lon="0.15772">
        <ele>2162.4</ele>
        <time>2021-01-29T13:27:32Z</time>
      </trkpt>
      <trkpt lat="42.77234" lon="0.15772">
        <ele>2162.4</ele>
        <time>2021-01-29T13:27:33Z</time>
      </trkpt>
      <trkpt lat="42.77234" lon="0.15772">
        <ele>2162.4</ele>
        <time>2021-01-29T13:27:34Z</time>
      </trkpt>
      <trkpt lat="42.77234" lon="0.15772">
        <ele>2162.4</ele>
        <time>2021-01-29T13:27:35Z</time>
      </trkpt>
      <trkpt lat="42.77234" lon="0.15772">
        <ele>2162.4</ele>
        <time>2021-01-29T13:27:36Z</time>
      </trkpt>
      <trkpt lat="42.77234" lon="0.15772">
        <ele>2162.4</ele>
        <time>2021-01-29T13:27:37Z</time>
      </trkpt>
      <trkpt lat="42.77234" lon="0.15772">
        <ele>2162.2</ele>
        <time>2021-01-29T13:27:38Z</time>
      </trkpt>
      <trkpt lat="42.77234" lon="0.15772">
        <ele>2162.2</ele>
        <time>2021-01-29T13:27:39Z</time>
      </trkpt>
      <trkpt lat="42.77234" lon="0.15772">
        <ele>2162.2</ele>
        <time>2021-01-29T13:27:40Z</time>
      </trkpt>
      <trkpt lat="42.77234" lon="0.15772">
        <ele>2162.2</ele>
        <time>2021-01-29T13:27:41Z</time>
      </trkpt>
      <trkpt lat="42.77234" lon="0.15772">
        <ele>2162.2</ele>
        <time>2021-01-29T13:27:42Z</time>
      </trkpt>
      <trkpt lat="42.77234" lon="0.15772">
        <ele>2162</ele>
        <time>2021-01-29T13:27:43Z</time>
      </trkpt>
      <trkpt lat="42.77234" lon="0.15772">
        <ele>2162</ele>
        <time>2021-01-29T13:27:44Z</time>
      </trkpt>
      <trkpt lat="42.77234" lon="0.15772">
        <ele>2162</ele>
        <time>2021-01-29T13:27:45Z</time>
      </trkpt>
      <trkpt lat="42.77234" lon="0.15772">
        <ele>2162</ele>
        <time>2021-01-29T13:27:46Z</time>
      </trkpt>
      <trkpt lat="42.77234" lon="0.15772">
        <ele>2162</ele>
        <time>2021-01-29T13:27:47Z</time>
      </trkpt>
      <trkpt lat="42.77234" lon="0.15772">
        <ele>2162</ele>
        <time>2021-01-29T13:27:48Z</time>
      </trkpt>
      <trkpt lat="42.77234" lon="0.15772">
        <ele>2162</ele>
        <time>2021-01-29T13:27:49Z</time>
      </trkpt>
      <trkpt lat="42.77234" lon="0.15772">
        <ele>2162</ele>
        <time>2021-01-29T13:27:50Z</time>
      </trkpt>
      <trkpt lat="42.77234" lon="0.15772">
        <ele>2162</ele>
        <time>2021-01-29T13:27:51Z</time>
      </trkpt>
      <trkpt lat="42.77234" lon="0.15772">
        <ele>2162</ele>
        <time>2021-01-29T13:27:52Z</time>
      </trkpt>
      <trkpt lat="42.77234" lon="0.15772">
        <ele>2161.8</ele>
        <time>2021-01-29T13:27:53Z</time>
      </trkpt>
      <trkpt lat="42.77234" lon="0.15772">
        <ele>2161.8</ele>
        <time>2021-01-29T13:27:54Z</time>
      </trkpt>
      <trkpt lat="42.77234" lon="0.15772">
        <ele>2161.8</ele>
        <time>2021-01-29T13:27:55Z</time>
      </trkpt>
      <trkpt lat="42.77234" lon="0.15772">
        <ele>2161.8</ele>
        <time>2021-01-29T13:27:56Z</time>
      </trkpt>
      <trkpt lat="42.77234" lon="0.15772">
        <ele>2161.8</ele>
        <time>2021-01-29T13:27:57Z</time>
      </trkpt>
      <trkpt lat="42.77234" lon="0.15772">
        <ele>2161.8</ele>
        <time>2021-01-29T13:27:58Z</time>
      </trkpt>
      <trkpt lat="42.77234" lon="0.15772">
        <ele>2161.8</ele>
        <time>2021-01-29T13:27:59Z</time>
      </trkpt>
      <trkpt lat="42.77234" lon="0.15772">
        <ele>2161.8</ele>
        <time>2021-01-29T13:28:00Z</time>
      </trkpt>
      <trkpt lat="42.77234" lon="0.15772">
        <ele>2161.8</ele>
        <time>2021-01-29T13:28:01Z</time>
      </trkpt>
      <trkpt lat="42.77234" lon="0.15772">
        <ele>2161.8</ele>
        <time>2021-01-29T13:28:02Z</time>
      </trkpt>
      <trkpt lat="42.77234" lon="0.15772">
        <ele>2161.8</ele>
        <time>2021-01-29T13:28:03Z</time>
      </trkpt>
      <trkpt lat="42.77234" lon="0.15772">
        <ele>2161.8</ele>
        <time>2021-01-29T13:28:04Z</time>
      </trkpt>
      <trkpt lat="42.77234" lon="0.15772">
        <ele>2161.8</ele>
        <time>2021-01-29T13:28:05Z</time>
      </trkpt>
      <trkpt lat="42.77234" lon="0.15772">
        <ele>2161.8</ele>
        <time>2021-01-29T13:28:06Z</time>
      </trkpt>
      <trkpt lat="42.77234" lon="0.15772">
        <ele>2161.8</ele>
        <time>2021-01-29T13:28:07Z</time>
      </trkpt>
      <trkpt lat="42.77234" lon="0.15772">
        <ele>2161.8</ele>
        <time>2021-01-29T13:28:08Z</time>
      </trkpt>
      <trkpt lat="42.77234" lon="0.15772">
        <ele>2161.8</ele>
        <time>2021-01-29T13:28:09Z</time>
      </trkpt>
      <trkpt lat="42.77234" lon="0.15772">
        <ele>2161.8</ele>
        <time>2021-01-29T13:28:10Z</time>
      </trkpt>
      <trkpt lat="42.77234" lon="0.15772">
        <ele>2161.8</ele>
        <time>2021-01-29T13:28:11Z</time>
      </trkpt>
      <trkpt lat="42.77234" lon="0.15772">
        <ele>2161.8</ele>
        <time>2021-01-29T13:28:12Z</time>
      </trkpt>
      <trkpt lat="42.77234" lon="0.15772">
        <ele>2161.8</ele>
        <time>2021-01-29T13:28:13Z</time>
      </trkpt>
      <trkpt lat="42.77234" lon="0.15772">
        <ele>2161.8</ele>
        <time>2021-01-29T13:28:14Z</time>
      </trkpt>
      <trkpt lat="42.77234" lon="0.15772">
        <ele>2161.8</ele>
        <time>2021-01-29T13:28:15Z</time>
      </trkpt>
      <trkpt lat="42.77234" lon="0.15772">
        <ele>2161.8</ele>
        <time>2021-01-29T13:28:16Z</time>
      </trkpt>
      <trkpt lat="42.77234" lon="0.15772">
        <ele>2161.8</ele>
        <time>2021-01-29T13:28:17Z</time>
      </trkpt>
      <trkpt lat="42.77234" lon="0.15772">
        <ele>2161.8</ele>
        <time>2021-01-29T13:28:18Z</time>
      </trkpt>
      <trkpt lat="42.77234" lon="0.15772">
        <ele>2161.8</ele>
        <time>2021-01-29T13:28:19Z</time>
      </trkpt>
      <trkpt lat="42.77234" lon="0.15772">
        <ele>2161.8</ele>
        <time>2021-01-29T13:28:20Z</time>
      </trkpt>
      <trkpt lat="42.77234" lon="0.15772">
        <ele>2161.8</ele>
        <time>2021-01-29T13:28:21Z</time>
      </trkpt>
      <trkpt lat="42.77234" lon="0.15772">
        <ele>2162</ele>
        <time>2021-01-29T13:28:22Z</time>
      </trkpt>
      <trkpt lat="42.77234" lon="0.15772">
        <ele>2162</ele>
        <time>2021-01-29T13:28:23Z</time>
      </trkpt>
      <trkpt lat="42.77234" lon="0.15772">
        <ele>2162</ele>
        <time>2021-01-29T13:28:24Z</time>
      </trkpt>
      <trkpt lat="42.77234" lon="0.15772">
        <ele>2162</ele>
        <time>2021-01-29T13:28:25Z</time>
      </trkpt>
      <trkpt lat="42.77234" lon="0.15772">
        <ele>2162</ele>
        <time>2021-01-29T13:28:26Z</time>
      </trkpt>
      <trkpt lat="42.77234" lon="0.15772">
        <ele>2162</ele>
        <time>2021-01-29T13:28:27Z</time>
      </trkpt>
      <trkpt lat="42.77234" lon="0.15772">
        <ele>2162</ele>
        <time>2021-01-29T13:28:28Z</time>
      </trkpt>
      <trkpt lat="42.77234" lon="0.15772">
        <ele>2162.2</ele>
        <time>2021-01-29T13:28:29Z</time>
      </trkpt>
      <trkpt lat="42.77234" lon="0.15772">
        <ele>2162.2</ele>
        <time>2021-01-29T13:28:30Z</time>
      </trkpt>
      <trkpt lat="42.77234" lon="0.15772">
        <ele>2162.2</ele>
        <time>2021-01-29T13:28:31Z</time>
      </trkpt>
      <trkpt lat="42.77234" lon="0.15772">
        <ele>2162.2</ele>
        <time>2021-01-29T13:28:32Z</time>
      </trkpt>
      <trkpt lat="42.77234" lon="0.15772">
        <ele>2162.2</ele>
        <time>2021-01-29T13:28:33Z</time>
      </trkpt>
      <trkpt lat="42.77234" lon="0.15772">
        <ele>2162.4</ele>
        <time>2021-01-29T13:28:34Z</time>
      </trkpt>
      <trkpt lat="42.77234" lon="0.15772">
        <ele>2162.4</ele>
        <time>2021-01-29T13:28:35Z</time>
      </trkpt>
      <trkpt lat="42.77234" lon="0.15772">
        <ele>2162.4</ele>
        <time>2021-01-29T13:28:36Z</time>
      </trkpt>
      <trkpt lat="42.77234" lon="0.15772">
        <ele>2162.4</ele>
        <time>2021-01-29T13:28:37Z</time>
      </trkpt>
      <trkpt lat="42.77234" lon="0.15772">
        <ele>2162.4</ele>
        <time>2021-01-29T13:28:38Z</time>
      </trkpt>
      <trkpt lat="42.77234" lon="0.15772">
        <ele>2162.4</ele>
        <time>2021-01-29T13:28:39Z</time>
      </trkpt>
      <trkpt lat="42.77234" lon="0.15772">
        <ele>2162.4</ele>
        <time>2021-01-29T13:28:40Z</time>
      </trkpt>
      <trkpt lat="42.77234" lon="0.15772">
        <ele>2162.4</ele>
        <time>2021-01-29T13:28:41Z</time>
      </trkpt>
      <trkpt lat="42.77234" lon="0.15772">
        <ele>2162.4</ele>
        <time>2021-01-29T13:28:42Z</time>
      </trkpt>
      <trkpt lat="42.77234" lon="0.15772">
        <ele>2162.4</ele>
        <time>2021-01-29T13:28:43Z</time>
      </trkpt>
      <trkpt lat="42.77234" lon="0.15772">
        <ele>2162.6</ele>
        <time>2021-01-29T13:28:44Z</time>
      </trkpt>
      <trkpt lat="42.77234" lon="0.15772">
        <ele>2162.6</ele>
        <time>2021-01-29T13:28:45Z</time>
      </trkpt>
      <trkpt lat="42.77234" lon="0.15772">
        <ele>2162.6</ele>
        <time>2021-01-29T13:28:46Z</time>
      </trkpt>
      <trkpt lat="42.77234" lon="0.15772">
        <ele>2162.6</ele>
        <time>2021-01-29T13:28:47Z</time>
      </trkpt>
      <trkpt lat="42.77234" lon="0.15772">
        <ele>2162.6</ele>
        <time>2021-01-29T13:28:48Z</time>
      </trkpt>
      <trkpt lat="42.77234" lon="0.15772">
        <ele>2162.6</ele>
        <time>2021-01-29T13:28:49Z</time>
      </trkpt>
      <trkpt lat="42.77234" lon="0.15772">
        <ele>2162.6</ele>
        <time>2021-01-29T13:28:50Z</time>
      </trkpt>
      <trkpt lat="42.77234" lon="0.15772">
        <ele>2162.6</ele>
        <time>2021-01-29T13:28:51Z</time>
      </trkpt>
      <trkpt lat="42.77234" lon="0.15772">
        <ele>2162.6</ele>
        <time>2021-01-29T13:28:52Z</time>
      </trkpt>
      <trkpt lat="42.77234" lon="0.15772">
        <ele>2162.4</ele>
        <time>2021-01-29T13:28:53Z</time>
      </trkpt>
      <trkpt lat="42.77233" lon="0.15773">
        <ele>2162.4</ele>
        <time>2021-01-29T13:28:54Z</time>
      </trkpt>
      <trkpt lat="42.77233" lon="0.15773">
        <ele>2162.6</ele>
        <time>2021-01-29T13:28:55Z</time>
      </trkpt>
      <trkpt lat="42.77232" lon="0.15773">
        <ele>2162.6</ele>
        <time>2021-01-29T13:28:56Z</time>
      </trkpt>
      <trkpt lat="42.77231" lon="0.15773">
        <ele>2163</ele>
        <time>2021-01-29T13:28:57Z</time>
      </trkpt>
      <trkpt lat="42.77231" lon="0.15774">
        <ele>2163</ele>
        <time>2021-01-29T13:28:58Z</time>
      </trkpt>
      <trkpt lat="42.7723" lon="0.15774">
        <ele>2163</ele>
        <time>2021-01-29T13:28:59Z</time>
      </trkpt>
      <trkpt lat="42.77229" lon="0.15774">
        <ele>2163.4</ele>
        <time>2021-01-29T13:29:00Z</time>
      </trkpt>
      <trkpt lat="42.77228" lon="0.15774">
        <ele>2163.4</ele>
        <time>2021-01-29T13:29:01Z</time>
      </trkpt>
      <trkpt lat="42.77228" lon="0.15774">
        <ele>2163.6</ele>
        <time>2021-01-29T13:29:02Z</time>
      </trkpt>
      <trkpt lat="42.77227" lon="0.15775">
        <ele>2163.8</ele>
        <time>2021-01-29T13:29:03Z</time>
      </trkpt>
      <trkpt lat="42.77227" lon="0.15775">
        <ele>2164</ele>
        <time>2021-01-29T13:29:04Z</time>
      </trkpt>
      <trkpt lat="42.77226" lon="0.15776">
        <ele>2164</ele>
        <time>2021-01-29T13:29:05Z</time>
      </trkpt>
      <trkpt lat="42.77226" lon="0.15776">
        <ele>2164.2</ele>
        <time>2021-01-29T13:29:06Z</time>
      </trkpt>
      <trkpt lat="42.77225" lon="0.15776">
        <ele>2164.4</ele>
        <time>2021-01-29T13:29:07Z</time>
      </trkpt>
      <trkpt lat="42.77225" lon="0.15777">
        <ele>2164.6</ele>
        <time>2021-01-29T13:29:08Z</time>
      </trkpt>
      <trkpt lat="42.77225" lon="0.15777">
        <ele>2164.8</ele>
        <time>2021-01-29T13:29:09Z</time>
      </trkpt>
      <trkpt lat="42.77225" lon="0.15777">
        <ele>2164.6</ele>
        <time>2021-01-29T13:29:10Z</time>
      </trkpt>
      <trkpt lat="42.77224" lon="0.15778">
        <ele>2165.2</ele>
        <time>2021-01-29T13:29:11Z</time>
      </trkpt>
      <trkpt lat="42.77223" lon="0.1578">
        <ele>2165.2</ele>
        <time>2021-01-29T13:29:12Z</time>
      </trkpt>
      <trkpt lat="42.77223" lon="0.15781">
        <ele>2165.6</ele>
        <time>2021-01-29T13:29:13Z</time>
      </trkpt>
      <trkpt lat="42.77223" lon="0.15782">
        <ele>2165.8</ele>
        <time>2021-01-29T13:29:14Z</time>
      </trkpt>
      <trkpt lat="42.77223" lon="0.15783">
        <ele>2165.8</ele>
        <time>2021-01-29T13:29:15Z</time>
      </trkpt>
      <trkpt lat="42.77223" lon="0.15784">
        <ele>2166.2</ele>
        <time>2021-01-29T13:29:16Z</time>
      </trkpt>
      <trkpt lat="42.77223" lon="0.15785">
        <ele>2166.4</ele>
        <time>2021-01-29T13:29:17Z</time>
      </trkpt>
      <trkpt lat="42.77223" lon="0.15786">
        <ele>2166.4</ele>
        <time>2021-01-29T13:29:18Z</time>
      </trkpt>
      <trkpt lat="42.77223" lon="0.15787">
        <ele>2166.4</ele>
        <time>2021-01-29T13:29:19Z</time>
      </trkpt>
      <trkpt lat="42.77223" lon="0.15788">
        <ele>2166.6</ele>
        <time>2021-01-29T13:29:20Z</time>
      </trkpt>
      <trkpt lat="42.77223" lon="0.15789">
        <ele>2166.4</ele>
        <time>2021-01-29T13:29:21Z</time>
      </trkpt>
      <trkpt lat="42.77223" lon="0.1579">
        <ele>2166.6</ele>
        <time>2021-01-29T13:29:22Z</time>
      </trkpt>
      <trkpt lat="42.77223" lon="0.15791">
        <ele>2166.8</ele>
        <time>2021-01-29T13:29:23Z</time>
      </trkpt>
      <trkpt lat="42.77223" lon="0.15792">
        <ele>2166.8</ele>
        <time>2021-01-29T13:29:24Z</time>
      </trkpt>
      <trkpt lat="42.77223" lon="0.15793">
        <ele>2167.2</ele>
        <time>2021-01-29T13:29:25Z</time>
      </trkpt>
      <trkpt lat="42.77223" lon="0.15794">
        <ele>2167.4</ele>
        <time>2021-01-29T13:29:26Z</time>
      </trkpt>
      <trkpt lat="42.77224" lon="0.15795">
        <ele>2167.4</ele>
        <time>2021-01-29T13:29:27Z</time>
      </trkpt>
      <trkpt lat="42.77224" lon="0.15796">
        <ele>2167.6</ele>
        <time>2021-01-29T13:29:28Z</time>
      </trkpt>
      <trkpt lat="42.77224" lon="0.15797">
        <ele>2167.8</ele>
        <time>2021-01-29T13:29:29Z</time>
      </trkpt>
      <trkpt lat="42.77224" lon="0.15798">
        <ele>2167.8</ele>
        <time>2021-01-29T13:29:30Z</time>
      </trkpt>
      <trkpt lat="42.77225" lon="0.15799">
        <ele>2168</ele>
        <time>2021-01-29T13:29:31Z</time>
      </trkpt>
      <trkpt lat="42.77225" lon="0.158">
        <ele>2168.4</ele>
        <time>2021-01-29T13:29:32Z</time>
      </trkpt>
      <trkpt lat="42.77225" lon="0.15801">
        <ele>2168.4</ele>
        <time>2021-01-29T13:29:33Z</time>
      </trkpt>
      <trkpt lat="42.77226" lon="0.15802">
        <ele>2168.8</ele>
        <time>2021-01-29T13:29:34Z</time>
      </trkpt>
      <trkpt lat="42.77226" lon="0.15803">
        <ele>2169</ele>
        <time>2021-01-29T13:29:35Z</time>
      </trkpt>
      <trkpt lat="42.77226" lon="0.15804">
        <ele>2169</ele>
        <time>2021-01-29T13:29:36Z</time>
      </trkpt>
      <trkpt lat="42.77227" lon="0.15805">
        <ele>2169.4</ele>
        <time>2021-01-29T13:29:37Z</time>
      </trkpt>
      <trkpt lat="42.77227" lon="0.15806">
        <ele>2169.4</ele>
        <time>2021-01-29T13:29:38Z</time>
      </trkpt>
      <trkpt lat="42.77227" lon="0.15807">
        <ele>2169.6</ele>
        <time>2021-01-29T13:29:39Z</time>
      </trkpt>
      <trkpt lat="42.77228" lon="0.15808">
        <ele>2170</ele>
        <time>2021-01-29T13:29:40Z</time>
      </trkpt>
      <trkpt lat="42.77228" lon="0.15809">
        <ele>2170</ele>
        <time>2021-01-29T13:29:41Z</time>
      </trkpt>
      <trkpt lat="42.77228" lon="0.1581">
        <ele>2170.2</ele>
        <time>2021-01-29T13:29:42Z</time>
      </trkpt>
      <trkpt lat="42.77229" lon="0.15811">
        <ele>2170.6</ele>
        <time>2021-01-29T13:29:43Z</time>
      </trkpt>
      <trkpt lat="42.7723" lon="0.15811">
        <ele>2170.8</ele>
        <time>2021-01-29T13:29:44Z</time>
      </trkpt>
      <trkpt lat="42.7723" lon="0.15812">
        <ele>2171</ele>
        <time>2021-01-29T13:29:45Z</time>
      </trkpt>
      <trkpt lat="42.77231" lon="0.15813">
        <ele>2171.4</ele>
        <time>2021-01-29T13:29:46Z</time>
      </trkpt>
      <trkpt lat="42.77231" lon="0.15814">
        <ele>2171.4</ele>
        <time>2021-01-29T13:29:47Z</time>
      </trkpt>
      <trkpt lat="42.77231" lon="0.15815">
        <ele>2171.6</ele>
        <time>2021-01-29T13:29:48Z</time>
      </trkpt>
      <trkpt lat="42.77232" lon="0.15816">
        <ele>2171.8</ele>
        <time>2021-01-29T13:29:49Z</time>
      </trkpt>
      <trkpt lat="42.77232" lon="0.15817">
        <ele>2171.8</ele>
        <time>2021-01-29T13:29:50Z</time>
      </trkpt>
      <trkpt lat="42.77233" lon="0.15818">
        <ele>2172</ele>
        <time>2021-01-29T13:29:51Z</time>
      </trkpt>
      <trkpt lat="42.77233" lon="0.15819">
        <ele>2172</ele>
        <time>2021-01-29T13:29:52Z</time>
      </trkpt>
      <trkpt lat="42.77233" lon="0.1582">
        <ele>2172.2</ele>
        <time>2021-01-29T13:29:53Z</time>
      </trkpt>
      <trkpt lat="42.77234" lon="0.1582">
        <ele>2172.4</ele>
        <time>2021-01-29T13:29:54Z</time>
      </trkpt>
      <trkpt lat="42.77234" lon="0.15821">
        <ele>2172.6</ele>
        <time>2021-01-29T13:29:55Z</time>
      </trkpt>
      <trkpt lat="42.77234" lon="0.15822">
        <ele>2172.6</ele>
        <time>2021-01-29T13:29:56Z</time>
      </trkpt>
      <trkpt lat="42.77235" lon="0.15823">
        <ele>2173</ele>
        <time>2021-01-29T13:29:57Z</time>
      </trkpt>
      <trkpt lat="42.77235" lon="0.15824">
        <ele>2173</ele>
        <time>2021-01-29T13:29:58Z</time>
      </trkpt>
      <trkpt lat="42.77236" lon="0.15824">
        <ele>2173.2</ele>
        <time>2021-01-29T13:29:59Z</time>
      </trkpt>
      <trkpt lat="42.77236" lon="0.15825">
        <ele>2173.4</ele>
        <time>2021-01-29T13:30:00Z</time>
      </trkpt>
      <trkpt lat="42.77237" lon="0.15826">
        <ele>2173.4</ele>
        <time>2021-01-29T13:30:01Z</time>
      </trkpt>
      <trkpt lat="42.77237" lon="0.15827">
        <ele>2173.6</ele>
        <time>2021-01-29T13:30:02Z</time>
      </trkpt>
      <trkpt lat="42.77237" lon="0.15828">
        <ele>2173.8</ele>
        <time>2021-01-29T13:30:03Z</time>
      </trkpt>
      <trkpt lat="42.77237" lon="0.15829">
        <ele>2174</ele>
        <time>2021-01-29T13:30:04Z</time>
      </trkpt>
      <trkpt lat="42.77237" lon="0.1583">
        <ele>2174.2</ele>
        <time>2021-01-29T13:30:05Z</time>
      </trkpt>
      <trkpt lat="42.77238" lon="0.15831">
        <ele>2174.4</ele>
        <time>2021-01-29T13:30:06Z</time>
      </trkpt>
      <trkpt lat="42.77238" lon="0.15832">
        <ele>2174.4</ele>
        <time>2021-01-29T13:30:07Z</time>
      </trkpt>
      <trkpt lat="42.77239" lon="0.15833">
        <ele>2174.8</ele>
        <time>2021-01-29T13:30:08Z</time>
      </trkpt>
      <trkpt lat="42.77239" lon="0.15834">
        <ele>2175</ele>
        <time>2021-01-29T13:30:09Z</time>
      </trkpt>
      <trkpt lat="42.77239" lon="0.15835">
        <ele>2174.8</ele>
        <time>2021-01-29T13:30:10Z</time>
      </trkpt>
      <trkpt lat="42.7724" lon="0.15836">
        <ele>2175.2</ele>
        <time>2021-01-29T13:30:11Z</time>
      </trkpt>
      <trkpt lat="42.7724" lon="0.15837">
        <ele>2175.4</ele>
        <time>2021-01-29T13:30:12Z</time>
      </trkpt>
      <trkpt lat="42.7724" lon="0.15837">
        <ele>2175.6</ele>
        <time>2021-01-29T13:30:13Z</time>
      </trkpt>
      <trkpt lat="42.77241" lon="0.15838">
        <ele>2175.8</ele>
        <time>2021-01-29T13:30:14Z</time>
      </trkpt>
      <trkpt lat="42.77241" lon="0.15839">
        <ele>2175.8</ele>
        <time>2021-01-29T13:30:15Z</time>
      </trkpt>
      <trkpt lat="42.77241" lon="0.1584">
        <ele>2175.8</ele>
        <time>2021-01-29T13:30:16Z</time>
      </trkpt>
      <trkpt lat="42.77242" lon="0.15841">
        <ele>2176</ele>
        <time>2021-01-29T13:30:17Z</time>
      </trkpt>
      <trkpt lat="42.77243" lon="0.15842">
        <ele>2176</ele>
        <time>2021-01-29T13:30:18Z</time>
      </trkpt>
      <trkpt lat="42.77243" lon="0.15842">
        <ele>2176.2</ele>
        <time>2021-01-29T13:30:19Z</time>
      </trkpt>
      <trkpt lat="42.77243" lon="0.15843">
        <ele>2176.4</ele>
        <time>2021-01-29T13:30:20Z</time>
      </trkpt>
      <trkpt lat="42.77243" lon="0.15844">
        <ele>2176.4</ele>
        <time>2021-01-29T13:30:21Z</time>
      </trkpt>
      <trkpt lat="42.77244" lon="0.15845">
        <ele>2176.8</ele>
        <time>2021-01-29T13:30:22Z</time>
      </trkpt>
      <trkpt lat="42.77244" lon="0.15846">
        <ele>2176.8</ele>
        <time>2021-01-29T13:30:23Z</time>
      </trkpt>
      <trkpt lat="42.77244" lon="0.15846">
        <ele>2177</ele>
        <time>2021-01-29T13:30:24Z</time>
      </trkpt>
      <trkpt lat="42.77245" lon="0.15847">
        <ele>2177.4</ele>
        <time>2021-01-29T13:30:25Z</time>
      </trkpt>
      <trkpt lat="42.77245" lon="0.15848">
        <ele>2177.4</ele>
        <time>2021-01-29T13:30:26Z</time>
      </trkpt>
      <trkpt lat="42.77245" lon="0.15849">
        <ele>2177.6</ele>
        <time>2021-01-29T13:30:27Z</time>
      </trkpt>
      <trkpt lat="42.77245" lon="0.1585">
        <ele>2178</ele>
        <time>2021-01-29T13:30:28Z</time>
      </trkpt>
      <trkpt lat="42.77246" lon="0.15851">
        <ele>2178</ele>
        <time>2021-01-29T13:30:29Z</time>
      </trkpt>
      <trkpt lat="42.77246" lon="0.15852">
        <ele>2178.2</ele>
        <time>2021-01-29T13:30:30Z</time>
      </trkpt>
      <trkpt lat="42.77246" lon="0.15853">
        <ele>2178.6</ele>
        <time>2021-01-29T13:30:31Z</time>
      </trkpt>
      <trkpt lat="42.77247" lon="0.15854">
        <ele>2178.6</ele>
        <time>2021-01-29T13:30:32Z</time>
      </trkpt>
      <trkpt lat="42.77247" lon="0.15855">
        <ele>2179</ele>
        <time>2021-01-29T13:30:33Z</time>
      </trkpt>
      <trkpt lat="42.77247" lon="0.15856">
        <ele>2179.2</ele>
        <time>2021-01-29T13:30:34Z</time>
      </trkpt>
      <trkpt lat="42.77247" lon="0.15856">
        <ele>2179.2</ele>
        <time>2021-01-29T13:30:35Z</time>
      </trkpt>
      <trkpt lat="42.77248" lon="0.15857">
        <ele>2179.6</ele>
        <time>2021-01-29T13:30:36Z</time>
      </trkpt>
      <trkpt lat="42.77248" lon="0.15858">
        <ele>2179.8</ele>
        <time>2021-01-29T13:30:37Z</time>
      </trkpt>
      <trkpt lat="42.77248" lon="0.15859">
        <ele>2180</ele>
        <time>2021-01-29T13:30:38Z</time>
      </trkpt>
      <trkpt lat="42.77249" lon="0.1586">
        <ele>2180.4</ele>
        <time>2021-01-29T13:30:39Z</time>
      </trkpt>
      <trkpt lat="42.77249" lon="0.15861">
        <ele>2180.4</ele>
        <time>2021-01-29T13:30:40Z</time>
      </trkpt>
      <trkpt lat="42.77249" lon="0.15862">
        <ele>2180.6</ele>
        <time>2021-01-29T13:30:41Z</time>
      </trkpt>
      <trkpt lat="42.7725" lon="0.15863">
        <ele>2181</ele>
        <time>2021-01-29T13:30:42Z</time>
      </trkpt>
      <trkpt lat="42.7725" lon="0.15864">
        <ele>2181</ele>
        <time>2021-01-29T13:30:43Z</time>
      </trkpt>
      <trkpt lat="42.77251" lon="0.15864">
        <ele>2181.2</ele>
        <time>2021-01-29T13:30:44Z</time>
      </trkpt>
      <trkpt lat="42.77251" lon="0.15865">
        <ele>2181.4</ele>
        <time>2021-01-29T13:30:45Z</time>
      </trkpt>
      <trkpt lat="42.77251" lon="0.15866">
        <ele>2181.4</ele>
        <time>2021-01-29T13:30:46Z</time>
      </trkpt>
      <trkpt lat="42.77251" lon="0.15867">
        <ele>2182</ele>
        <time>2021-01-29T13:30:47Z</time>
      </trkpt>
      <trkpt lat="42.77251" lon="0.15868">
        <ele>2182</ele>
        <time>2021-01-29T13:30:48Z</time>
      </trkpt>
      <trkpt lat="42.77251" lon="0.15869">
        <ele>2182.4</ele>
        <time>2021-01-29T13:30:49Z</time>
      </trkpt>
      <trkpt lat="42.77252" lon="0.1587">
        <ele>2182.4</ele>
        <time>2021-01-29T13:30:50Z</time>
      </trkpt>
      <trkpt lat="42.77252" lon="0.15871">
        <ele>2182.6</ele>
        <time>2021-01-29T13:30:51Z</time>
      </trkpt>
      <trkpt lat="42.77252" lon="0.15872">
        <ele>2183</ele>
        <time>2021-01-29T13:30:52Z</time>
      </trkpt>
      <trkpt lat="42.77252" lon="0.15873">
        <ele>2183.2</ele>
        <time>2021-01-29T13:30:53Z</time>
      </trkpt>
      <trkpt lat="42.77252" lon="0.15873">
        <ele>2183.2</ele>
        <time>2021-01-29T13:30:54Z</time>
      </trkpt>
      <trkpt lat="42.77252" lon="0.15874">
        <ele>2183.6</ele>
        <time>2021-01-29T13:30:55Z</time>
      </trkpt>
      <trkpt lat="42.77252" lon="0.15875">
        <ele>2183.6</ele>
        <time>2021-01-29T13:30:56Z</time>
      </trkpt>
      <trkpt lat="42.77252" lon="0.15876">
        <ele>2184</ele>
        <time>2021-01-29T13:30:57Z</time>
      </trkpt>
      <trkpt lat="42.77253" lon="0.15877">
        <ele>2184</ele>
        <time>2021-01-29T13:30:58Z</time>
      </trkpt>
      <trkpt lat="42.77253" lon="0.15878">
        <ele>2184.4</ele>
        <time>2021-01-29T13:30:59Z</time>
      </trkpt>
      <trkpt lat="42.77253" lon="0.15879">
        <ele>2184.6</ele>
        <time>2021-01-29T13:31:00Z</time>
      </trkpt>
      <trkpt lat="42.77253" lon="0.15879">
        <ele>2184.6</ele>
        <time>2021-01-29T13:31:01Z</time>
      </trkpt>
      <trkpt lat="42.77253" lon="0.15879">
        <ele>2185</ele>
        <time>2021-01-29T13:31:02Z</time>
      </trkpt>
      <trkpt lat="42.77253" lon="0.15879">
        <ele>2185</ele>
        <time>2021-01-29T13:31:03Z</time>
      </trkpt>
      <trkpt lat="42.77253" lon="0.15879">
        <ele>2185.2</ele>
        <time>2021-01-29T13:31:04Z</time>
      </trkpt>
      <trkpt lat="42.77253" lon="0.15879">
        <ele>2185.4</ele>
        <time>2021-01-29T13:31:05Z</time>
      </trkpt>
      <trkpt lat="42.77253" lon="0.15879">
        <ele>2185.6</ele>
        <time>2021-01-29T13:31:06Z</time>
      </trkpt>
      <trkpt lat="42.77253" lon="0.15879">
        <ele>2185.8</ele>
        <time>2021-01-29T13:31:07Z</time>
      </trkpt>
      <trkpt lat="42.77253" lon="0.15882">
        <ele>2186</ele>
        <time>2021-01-29T13:31:08Z</time>
      </trkpt>
      <trkpt lat="42.77253" lon="0.15886">
        <ele>2186</ele>
        <time>2021-01-29T13:31:09Z</time>
      </trkpt>
      <trkpt lat="42.77253" lon="0.15887">
        <ele>2186.4</ele>
        <time>2021-01-29T13:31:10Z</time>
      </trkpt>
      <trkpt lat="42.77253" lon="0.15888">
        <ele>2186.4</ele>
        <time>2021-01-29T13:31:11Z</time>
      </trkpt>
      <trkpt lat="42.77253" lon="0.15889">
        <ele>2186.8</ele>
        <time>2021-01-29T13:31:12Z</time>
      </trkpt>
      <trkpt lat="42.77253" lon="0.15889">
        <ele>2186.6</ele>
        <time>2021-01-29T13:31:13Z</time>
      </trkpt>
      <trkpt lat="42.77253" lon="0.1589">
        <ele>2187</ele>
        <time>2021-01-29T13:31:14Z</time>
      </trkpt>
      <trkpt lat="42.77253" lon="0.15891">
        <ele>2187</ele>
        <time>2021-01-29T13:31:15Z</time>
      </trkpt>
      <trkpt lat="42.77253" lon="0.15892">
        <ele>2187.2</ele>
        <time>2021-01-29T13:31:16Z</time>
      </trkpt>
      <trkpt lat="42.77253" lon="0.15893">
        <ele>2187.4</ele>
        <time>2021-01-29T13:31:17Z</time>
      </trkpt>
      <trkpt lat="42.77253" lon="0.15894">
        <ele>2187.6</ele>
        <time>2021-01-29T13:31:18Z</time>
      </trkpt>
      <trkpt lat="42.77253" lon="0.15895">
        <ele>2187.8</ele>
        <time>2021-01-29T13:31:19Z</time>
      </trkpt>
      <trkpt lat="42.77253" lon="0.15896">
        <ele>2188</ele>
        <time>2021-01-29T13:31:20Z</time>
      </trkpt>
      <trkpt lat="42.77253" lon="0.15897">
        <ele>2188</ele>
        <time>2021-01-29T13:31:21Z</time>
      </trkpt>
      <trkpt lat="42.77253" lon="0.15898">
        <ele>2188.4</ele>
        <time>2021-01-29T13:31:22Z</time>
      </trkpt>
      <trkpt lat="42.77253" lon="0.15898">
        <ele>2188.4</ele>
        <time>2021-01-29T13:31:23Z</time>
      </trkpt>
      <trkpt lat="42.77253" lon="0.15899">
        <ele>2188.8</ele>
        <time>2021-01-29T13:31:24Z</time>
      </trkpt>
      <trkpt lat="42.77253" lon="0.159">
        <ele>2188.8</ele>
        <time>2021-01-29T13:31:25Z</time>
      </trkpt>
      <trkpt lat="42.77253" lon="0.15901">
        <ele>2189</ele>
        <time>2021-01-29T13:31:26Z</time>
      </trkpt>
      <trkpt lat="42.77253" lon="0.15902">
        <ele>2189.2</ele>
        <time>2021-01-29T13:31:27Z</time>
      </trkpt>
      <trkpt lat="42.77253" lon="0.15903">
        <ele>2189.4</ele>
        <time>2021-01-29T13:31:28Z</time>
      </trkpt>
      <trkpt lat="42.77253" lon="0.15904">
        <ele>2189.8</ele>
        <time>2021-01-29T13:31:29Z</time>
      </trkpt>
      <trkpt lat="42.77253" lon="0.15905">
        <ele>2189.8</ele>
        <time>2021-01-29T13:31:30Z</time>
      </trkpt>
      <trkpt lat="42.77253" lon="0.15906">
        <ele>2190.2</ele>
        <time>2021-01-29T13:31:31Z</time>
      </trkpt>
      <trkpt lat="42.77253" lon="0.15907">
        <ele>2190.4</ele>
        <time>2021-01-29T13:31:32Z</time>
      </trkpt>
      <trkpt lat="42.77253" lon="0.15908">
        <ele>2190.4</ele>
        <time>2021-01-29T13:31:33Z</time>
      </trkpt>
      <trkpt lat="42.77253" lon="0.15908">
        <ele>2190.8</ele>
        <time>2021-01-29T13:31:34Z</time>
      </trkpt>
      <trkpt lat="42.77253" lon="0.15909">
        <ele>2190.8</ele>
        <time>2021-01-29T13:31:35Z</time>
      </trkpt>
      <trkpt lat="42.77253" lon="0.1591">
        <ele>2191.2</ele>
        <time>2021-01-29T13:31:36Z</time>
      </trkpt>
      <trkpt lat="42.77253" lon="0.15911">
        <ele>2191.2</ele>
        <time>2021-01-29T13:31:37Z</time>
      </trkpt>
      <trkpt lat="42.77252" lon="0.15912">
        <ele>2191.6</ele>
        <time>2021-01-29T13:31:38Z</time>
      </trkpt>
      <trkpt lat="42.77252" lon="0.15913">
        <ele>2191.8</ele>
        <time>2021-01-29T13:31:39Z</time>
      </trkpt>
      <trkpt lat="42.77252" lon="0.15913">
        <ele>2192</ele>
        <time>2021-01-29T13:31:40Z</time>
      </trkpt>
      <trkpt lat="42.77252" lon="0.15914">
        <ele>2192.2</ele>
        <time>2021-01-29T13:31:41Z</time>
      </trkpt>
      <trkpt lat="42.77252" lon="0.15914">
        <ele>2192.4</ele>
        <time>2021-01-29T13:31:42Z</time>
      </trkpt>
      <trkpt lat="42.77252" lon="0.15915">
        <ele>2192.4</ele>
        <time>2021-01-29T13:31:43Z</time>
      </trkpt>
      <trkpt lat="42.77252" lon="0.15916">
        <ele>2192.8</ele>
        <time>2021-01-29T13:31:44Z</time>
      </trkpt>
      <trkpt lat="42.77252" lon="0.15916">
        <ele>2192.6</ele>
        <time>2021-01-29T13:31:45Z</time>
      </trkpt>
      <trkpt lat="42.77252" lon="0.15917">
        <ele>2193.2</ele>
        <time>2021-01-29T13:31:46Z</time>
      </trkpt>
      <trkpt lat="42.77252" lon="0.15918">
        <ele>2193.4</ele>
        <time>2021-01-29T13:31:47Z</time>
      </trkpt>
      <trkpt lat="42.77252" lon="0.15919">
        <ele>2193.4</ele>
        <time>2021-01-29T13:31:48Z</time>
      </trkpt>
      <trkpt lat="42.77252" lon="0.1592">
        <ele>2193.8</ele>
        <time>2021-01-29T13:31:49Z</time>
      </trkpt>
      <trkpt lat="42.77252" lon="0.1592">
        <ele>2193.8</ele>
        <time>2021-01-29T13:31:50Z</time>
      </trkpt>
      <trkpt lat="42.77252" lon="0.15921">
        <ele>2194</ele>
        <time>2021-01-29T13:31:51Z</time>
      </trkpt>
      <trkpt lat="42.77252" lon="0.15922">
        <ele>2194.2</ele>
        <time>2021-01-29T13:31:52Z</time>
      </trkpt>
      <trkpt lat="42.77251" lon="0.15923">
        <ele>2194.4</ele>
        <time>2021-01-29T13:31:53Z</time>
      </trkpt>
      <trkpt lat="42.77251" lon="0.15924">
        <ele>2194.6</ele>
        <time>2021-01-29T13:31:54Z</time>
      </trkpt>
      <trkpt lat="42.77251" lon="0.15924">
        <ele>2194.8</ele>
        <time>2021-01-29T13:31:55Z</time>
      </trkpt>
      <trkpt lat="42.77251" lon="0.15925">
        <ele>2194.8</ele>
        <time>2021-01-29T13:31:56Z</time>
      </trkpt>
      <trkpt lat="42.77251" lon="0.15926">
        <ele>2195.2</ele>
        <time>2021-01-29T13:31:57Z</time>
      </trkpt>
      <trkpt lat="42.77251" lon="0.15927">
        <ele>2195.2</ele>
        <time>2021-01-29T13:31:58Z</time>
      </trkpt>
      <trkpt lat="42.77251" lon="0.15928">
        <ele>2195.6</ele>
        <time>2021-01-29T13:31:59Z</time>
      </trkpt>
      <trkpt lat="42.77251" lon="0.15928">
        <ele>2195.8</ele>
        <time>2021-01-29T13:32:00Z</time>
      </trkpt>
      <trkpt lat="42.77251" lon="0.15929">
        <ele>2195.8</ele>
        <time>2021-01-29T13:32:01Z</time>
      </trkpt>
      <trkpt lat="42.7725" lon="0.1593">
        <ele>2196.2</ele>
        <time>2021-01-29T13:32:02Z</time>
      </trkpt>
      <trkpt lat="42.7725" lon="0.15931">
        <ele>2196.2</ele>
        <time>2021-01-29T13:32:03Z</time>
      </trkpt>
      <trkpt lat="42.7725" lon="0.15931">
        <ele>2196.4</ele>
        <time>2021-01-29T13:32:04Z</time>
      </trkpt>
      <trkpt lat="42.77249" lon="0.15932">
        <ele>2196.6</ele>
        <time>2021-01-29T13:32:05Z</time>
      </trkpt>
      <trkpt lat="42.77249" lon="0.15933">
        <ele>2196.8</ele>
        <time>2021-01-29T13:32:06Z</time>
      </trkpt>
      <trkpt lat="42.77249" lon="0.15934">
        <ele>2197</ele>
        <time>2021-01-29T13:32:07Z</time>
      </trkpt>
      <trkpt lat="42.77248" lon="0.15934">
        <ele>2197</ele>
        <time>2021-01-29T13:32:08Z</time>
      </trkpt>
      <trkpt lat="42.77248" lon="0.15935">
        <ele>2197.2</ele>
        <time>2021-01-29T13:32:09Z</time>
      </trkpt>
      <trkpt lat="42.77247" lon="0.15936">
        <ele>2197.4</ele>
        <time>2021-01-29T13:32:10Z</time>
      </trkpt>
      <trkpt lat="42.77247" lon="0.15936">
        <ele>2197.4</ele>
        <time>2021-01-29T13:32:11Z</time>
      </trkpt>
      <trkpt lat="42.77247" lon="0.15937">
        <ele>2197.8</ele>
        <time>2021-01-29T13:32:12Z</time>
      </trkpt>
      <trkpt lat="42.77247" lon="0.15938">
        <ele>2197.8</ele>
        <time>2021-01-29T13:32:13Z</time>
      </trkpt>
      <trkpt lat="42.77247" lon="0.15939">
        <ele>2198</ele>
        <time>2021-01-29T13:32:14Z</time>
      </trkpt>
      <trkpt lat="42.77246" lon="0.15939">
        <ele>2198.2</ele>
        <time>2021-01-29T13:32:15Z</time>
      </trkpt>
      <trkpt lat="42.77246" lon="0.1594">
        <ele>2198.2</ele>
        <time>2021-01-29T13:32:16Z</time>
      </trkpt>
      <trkpt lat="42.77246" lon="0.15941">
        <ele>2198.4</ele>
        <time>2021-01-29T13:32:17Z</time>
      </trkpt>
      <trkpt lat="42.77245" lon="0.15941">
        <ele>2198.6</ele>
        <time>2021-01-29T13:32:18Z</time>
      </trkpt>
      <trkpt lat="42.77245" lon="0.15942">
        <ele>2198.8</ele>
        <time>2021-01-29T13:32:19Z</time>
      </trkpt>
      <trkpt lat="42.77245" lon="0.15943">
        <ele>2199.2</ele>
        <time>2021-01-29T13:32:20Z</time>
      </trkpt>
      <trkpt lat="42.77244" lon="0.15943">
        <ele>2199.2</ele>
        <time>2021-01-29T13:32:21Z</time>
      </trkpt>
      <trkpt lat="42.77244" lon="0.15944">
        <ele>2199.8</ele>
        <time>2021-01-29T13:32:22Z</time>
      </trkpt>
      <trkpt lat="42.77244" lon="0.15945">
        <ele>2199.8</ele>
        <time>2021-01-29T13:32:23Z</time>
      </trkpt>
      <trkpt lat="42.77244" lon="0.15945">
        <ele>2200</ele>
        <time>2021-01-29T13:32:24Z</time>
      </trkpt>
      <trkpt lat="42.77244" lon="0.15945">
        <ele>2200.4</ele>
        <time>2021-01-29T13:32:25Z</time>
      </trkpt>
      <trkpt lat="42.77244" lon="0.15945">
        <ele>2200.4</ele>
        <time>2021-01-29T13:32:26Z</time>
      </trkpt>
      <trkpt lat="42.77244" lon="0.15945">
        <ele>2200.6</ele>
        <time>2021-01-29T13:32:27Z</time>
      </trkpt>
      <trkpt lat="42.77244" lon="0.15945">
        <ele>2200.6</ele>
        <time>2021-01-29T13:32:28Z</time>
      </trkpt>
      <trkpt lat="42.77243" lon="0.15947">
        <ele>2200.8</ele>
        <time>2021-01-29T13:32:29Z</time>
      </trkpt>
      <trkpt lat="42.77242" lon="0.1595">
        <ele>2201.2</ele>
        <time>2021-01-29T13:32:30Z</time>
      </trkpt>
      <trkpt lat="42.77242" lon="0.15951">
        <ele>2201.2</ele>
        <time>2021-01-29T13:32:31Z</time>
      </trkpt>
      <trkpt lat="42.77242" lon="0.15951">
        <ele>2201.6</ele>
        <time>2021-01-29T13:32:32Z</time>
      </trkpt>
      <trkpt lat="42.77242" lon="0.15952">
        <ele>2201.8</ele>
        <time>2021-01-29T13:32:33Z</time>
      </trkpt>
      <trkpt lat="42.77241" lon="0.15953">
        <ele>2202.2</ele>
        <time>2021-01-29T13:32:34Z</time>
      </trkpt>
      <trkpt lat="42.77241" lon="0.15953">
        <ele>2202.2</ele>
        <time>2021-01-29T13:32:35Z</time>
      </trkpt>
      <trkpt lat="42.77241" lon="0.15953">
        <ele>2202.2</ele>
        <time>2021-01-29T13:32:36Z</time>
      </trkpt>
      <trkpt lat="42.77241" lon="0.15953">
        <ele>2202.6</ele>
        <time>2021-01-29T13:32:37Z</time>
      </trkpt>
      <trkpt lat="42.77241" lon="0.15953">
        <ele>2202.6</ele>
        <time>2021-01-29T13:32:38Z</time>
      </trkpt>
      <trkpt lat="42.77241" lon="0.15953">
        <ele>2202.8</ele>
        <time>2021-01-29T13:32:39Z</time>
      </trkpt>
      <trkpt lat="42.77241" lon="0.15953">
        <ele>2202.8</ele>
        <time>2021-01-29T13:32:40Z</time>
      </trkpt>
      <trkpt lat="42.77241" lon="0.15953">
        <ele>2203.2</ele>
        <time>2021-01-29T13:32:41Z</time>
      </trkpt>
      <trkpt lat="42.77241" lon="0.15953">
        <ele>2203.6</ele>
        <time>2021-01-29T13:32:42Z</time>
      </trkpt>
      <trkpt lat="42.77241" lon="0.15953">
        <ele>2203.6</ele>
        <time>2021-01-29T13:32:43Z</time>
      </trkpt>
      <trkpt lat="42.77241" lon="0.15953">
        <ele>2203.8</ele>
        <time>2021-01-29T13:32:44Z</time>
      </trkpt>
      <trkpt lat="42.77241" lon="0.15953">
        <ele>2204.2</ele>
        <time>2021-01-29T13:32:45Z</time>
      </trkpt>
      <trkpt lat="42.77241" lon="0.15953">
        <ele>2204</ele>
        <time>2021-01-29T13:32:46Z</time>
      </trkpt>
      <trkpt lat="42.77239" lon="0.15957">
        <ele>2204.4</ele>
        <time>2021-01-29T13:32:47Z</time>
      </trkpt>
      <trkpt lat="42.77236" lon="0.15961">
        <ele>2204.4</ele>
        <time>2021-01-29T13:32:48Z</time>
      </trkpt>
      <trkpt lat="42.77236" lon="0.15962">
        <ele>2204.8</ele>
        <time>2021-01-29T13:32:49Z</time>
      </trkpt>
      <trkpt lat="42.77236" lon="0.15962">
        <ele>2205.2</ele>
        <time>2021-01-29T13:32:50Z</time>
      </trkpt>
      <trkpt lat="42.77235" lon="0.15963">
        <ele>2205.2</ele>
        <time>2021-01-29T13:32:51Z</time>
      </trkpt>
      <trkpt lat="42.77235" lon="0.15964">
        <ele>2205.6</ele>
        <time>2021-01-29T13:32:52Z</time>
      </trkpt>
      <trkpt lat="42.77235" lon="0.15965">
        <ele>2205.8</ele>
        <time>2021-01-29T13:32:53Z</time>
      </trkpt>
      <trkpt lat="42.77234" lon="0.15965">
        <ele>2206</ele>
        <time>2021-01-29T13:32:54Z</time>
      </trkpt>
      <trkpt lat="42.77234" lon="0.15966">
        <ele>2206.2</ele>
        <time>2021-01-29T13:32:55Z</time>
      </trkpt>
      <trkpt lat="42.77234" lon="0.15967">
        <ele>2206.6</ele>
        <time>2021-01-29T13:32:56Z</time>
      </trkpt>
      <trkpt lat="42.77234" lon="0.15968">
        <ele>2206.6</ele>
        <time>2021-01-29T13:32:57Z</time>
      </trkpt>
      <trkpt lat="42.77233" lon="0.15968">
        <ele>2207</ele>
        <time>2021-01-29T13:32:58Z</time>
      </trkpt>
      <trkpt lat="42.77233" lon="0.15969">
        <ele>2206.8</ele>
        <time>2021-01-29T13:32:59Z</time>
      </trkpt>
      <trkpt lat="42.77233" lon="0.1597">
        <ele>2207</ele>
        <time>2021-01-29T13:33:00Z</time>
      </trkpt>
      <trkpt lat="42.77232" lon="0.15971">
        <ele>2207.2</ele>
        <time>2021-01-29T13:33:01Z</time>
      </trkpt>
      <trkpt lat="42.77232" lon="0.15971">
        <ele>2207.4</ele>
        <time>2021-01-29T13:33:02Z</time>
      </trkpt>
      <trkpt lat="42.77232" lon="0.15972">
        <ele>2207.6</ele>
        <time>2021-01-29T13:33:03Z</time>
      </trkpt>
      <trkpt lat="42.77232" lon="0.15972">
        <ele>2207.8</ele>
        <time>2021-01-29T13:33:04Z</time>
      </trkpt>
      <trkpt lat="42.77231" lon="0.15973">
        <ele>2208</ele>
        <time>2021-01-29T13:33:05Z</time>
      </trkpt>
      <trkpt lat="42.77231" lon="0.15973">
        <ele>2208.4</ele>
        <time>2021-01-29T13:33:06Z</time>
      </trkpt>
      <trkpt lat="42.77231" lon="0.15974">
        <ele>2208.4</ele>
        <time>2021-01-29T13:33:07Z</time>
      </trkpt>
      <trkpt lat="42.7723" lon="0.15975">
        <ele>2208.6</ele>
        <time>2021-01-29T13:33:08Z</time>
      </trkpt>
      <trkpt lat="42.7723" lon="0.15975">
        <ele>2208.8</ele>
        <time>2021-01-29T13:33:09Z</time>
      </trkpt>
      <trkpt lat="42.7723" lon="0.15976">
        <ele>2208.8</ele>
        <time>2021-01-29T13:33:10Z</time>
      </trkpt>
      <trkpt lat="42.77229" lon="0.15977">
        <ele>2209.2</ele>
        <time>2021-01-29T13:33:11Z</time>
      </trkpt>
      <trkpt lat="42.77229" lon="0.15977">
        <ele>2209.2</ele>
        <time>2021-01-29T13:33:12Z</time>
      </trkpt>
      <trkpt lat="42.77229" lon="0.15977">
        <ele>2209.6</ele>
        <time>2021-01-29T13:33:13Z</time>
      </trkpt>
      <trkpt lat="42.77229" lon="0.15977">
        <ele>2209.6</ele>
        <time>2021-01-29T13:33:14Z</time>
      </trkpt>
      <trkpt lat="42.77229" lon="0.15978">
        <ele>2210</ele>
        <time>2021-01-29T13:33:15Z</time>
      </trkpt>
      <trkpt lat="42.77228" lon="0.1598">
        <ele>2210.2</ele>
        <time>2021-01-29T13:33:16Z</time>
      </trkpt>
      <trkpt lat="42.77228" lon="0.15981">
        <ele>2210.4</ele>
        <time>2021-01-29T13:33:17Z</time>
      </trkpt>
      <trkpt lat="42.77228" lon="0.15981">
        <ele>2210.6</ele>
        <time>2021-01-29T13:33:18Z</time>
      </trkpt>
      <trkpt lat="42.77228" lon="0.15982">
        <ele>2210.8</ele>
        <time>2021-01-29T13:33:19Z</time>
      </trkpt>
      <trkpt lat="42.77227" lon="0.15982">
        <ele>2210.8</ele>
        <time>2021-01-29T13:33:20Z</time>
      </trkpt>
      <trkpt lat="42.77227" lon="0.15983">
        <ele>2211.2</ele>
        <time>2021-01-29T13:33:21Z</time>
      </trkpt>
      <trkpt lat="42.77227" lon="0.15984">
        <ele>2211.2</ele>
        <time>2021-01-29T13:33:22Z</time>
      </trkpt>
      <trkpt lat="42.77227" lon="0.15985">
        <ele>2211.8</ele>
        <time>2021-01-29T13:33:23Z</time>
      </trkpt>
      <trkpt lat="42.77227" lon="0.15986">
        <ele>2211.8</ele>
        <time>2021-01-29T13:33:24Z</time>
      </trkpt>
      <trkpt lat="42.77226" lon="0.15986">
        <ele>2212.2</ele>
        <time>2021-01-29T13:33:25Z</time>
      </trkpt>
      <trkpt lat="42.77226" lon="0.15987">
        <ele>2212.2</ele>
        <time>2021-01-29T13:33:26Z</time>
      </trkpt>
      <trkpt lat="42.77226" lon="0.15987">
        <ele>2212.4</ele>
        <time>2021-01-29T13:33:27Z</time>
      </trkpt>
      <trkpt lat="42.77226" lon="0.15988">
        <ele>2212.6</ele>
        <time>2021-01-29T13:33:28Z</time>
      </trkpt>
      <trkpt lat="42.77226" lon="0.15988">
        <ele>2212.8</ele>
        <time>2021-01-29T13:33:29Z</time>
      </trkpt>
      <trkpt lat="42.77226" lon="0.15989">
        <ele>2213.2</ele>
        <time>2021-01-29T13:33:30Z</time>
      </trkpt>
      <trkpt lat="42.77225" lon="0.15989">
        <ele>2213.4</ele>
        <time>2021-01-29T13:33:31Z</time>
      </trkpt>
      <trkpt lat="42.77225" lon="0.15991">
        <ele>2213.8</ele>
        <time>2021-01-29T13:33:32Z</time>
      </trkpt>
      <trkpt lat="42.77224" lon="0.15992">
        <ele>2214.2</ele>
        <time>2021-01-29T13:33:33Z</time>
      </trkpt>
      <trkpt lat="42.77224" lon="0.15992">
        <ele>2214.4</ele>
        <time>2021-01-29T13:33:34Z</time>
      </trkpt>
      <trkpt lat="42.77224" lon="0.15993">
        <ele>2214.6</ele>
        <time>2021-01-29T13:33:35Z</time>
      </trkpt>
      <trkpt lat="42.77223" lon="0.15993">
        <ele>2214.6</ele>
        <time>2021-01-29T13:33:36Z</time>
      </trkpt>
      <trkpt lat="42.77223" lon="0.15994">
        <ele>2214.8</ele>
        <time>2021-01-29T13:33:37Z</time>
      </trkpt>
      <trkpt lat="42.77223" lon="0.15995">
        <ele>2214.8</ele>
        <time>2021-01-29T13:33:38Z</time>
      </trkpt>
      <trkpt lat="42.77222" lon="0.15995">
        <ele>2215</ele>
        <time>2021-01-29T13:33:39Z</time>
      </trkpt>
      <trkpt lat="42.77222" lon="0.15996">
        <ele>2215.2</ele>
        <time>2021-01-29T13:33:40Z</time>
      </trkpt>
      <trkpt lat="42.77222" lon="0.15996">
        <ele>2215.4</ele>
        <time>2021-01-29T13:33:41Z</time>
      </trkpt>
      <trkpt lat="42.77221" lon="0.15997">
        <ele>2215.4</ele>
        <time>2021-01-29T13:33:42Z</time>
      </trkpt>
      <trkpt lat="42.77221" lon="0.15997">
        <ele>2215.6</ele>
        <time>2021-01-29T13:33:43Z</time>
      </trkpt>
      <trkpt lat="42.77221" lon="0.15997">
        <ele>2215.8</ele>
        <time>2021-01-29T13:33:44Z</time>
      </trkpt>
      <trkpt lat="42.77221" lon="0.15997">
        <ele>2215.6</ele>
        <time>2021-01-29T13:33:45Z</time>
      </trkpt>
      <trkpt lat="42.77221" lon="0.15997">
        <ele>2216</ele>
        <time>2021-01-29T13:33:46Z</time>
      </trkpt>
      <trkpt lat="42.77221" lon="0.15997">
        <ele>2216</ele>
        <time>2021-01-29T13:33:47Z</time>
      </trkpt>
      <trkpt lat="42.77221" lon="0.15997">
        <ele>2216.4</ele>
        <time>2021-01-29T13:33:48Z</time>
      </trkpt>
      <trkpt lat="42.77221" lon="0.15997">
        <ele>2216.4</ele>
        <time>2021-01-29T13:33:49Z</time>
      </trkpt>
      <trkpt lat="42.77221" lon="0.15997">
        <ele>2216.6</ele>
        <time>2021-01-29T13:33:50Z</time>
      </trkpt>
      <trkpt lat="42.77221" lon="0.15997">
        <ele>2217</ele>
        <time>2021-01-29T13:33:51Z</time>
      </trkpt>
      <trkpt lat="42.77221" lon="0.15997">
        <ele>2217.4</ele>
        <time>2021-01-29T13:33:52Z</time>
      </trkpt>
      <trkpt lat="42.7722" lon="0.16001">
        <ele>2218</ele>
        <time>2021-01-29T13:33:53Z</time>
      </trkpt>
      <trkpt lat="42.77219" lon="0.16006">
        <ele>2218.2</ele>
        <time>2021-01-29T13:33:54Z</time>
      </trkpt>
      <trkpt lat="42.77219" lon="0.16007">
        <ele>2218.4</ele>
        <time>2021-01-29T13:33:55Z</time>
      </trkpt>
      <trkpt lat="42.77219" lon="0.16007">
        <ele>2218.6</ele>
        <time>2021-01-29T13:33:56Z</time>
      </trkpt>
      <trkpt lat="42.77218" lon="0.16008">
        <ele>2218.8</ele>
        <time>2021-01-29T13:33:57Z</time>
      </trkpt>
      <trkpt lat="42.77218" lon="0.16009">
        <ele>2219.2</ele>
        <time>2021-01-29T13:33:58Z</time>
      </trkpt>
      <trkpt lat="42.77218" lon="0.16009">
        <ele>2219</ele>
        <time>2021-01-29T13:33:59Z</time>
      </trkpt>
      <trkpt lat="42.77218" lon="0.1601">
        <ele>2219.4</ele>
        <time>2021-01-29T13:34:00Z</time>
      </trkpt>
      <trkpt lat="42.77217" lon="0.16011">
        <ele>2219.4</ele>
        <time>2021-01-29T13:34:01Z</time>
      </trkpt>
      <trkpt lat="42.77217" lon="0.16012">
        <ele>2219.6</ele>
        <time>2021-01-29T13:34:02Z</time>
      </trkpt>
      <trkpt lat="42.77217" lon="0.16012">
        <ele>2219.6</ele>
        <time>2021-01-29T13:34:03Z</time>
      </trkpt>
      <trkpt lat="42.77217" lon="0.16013">
        <ele>2219.6</ele>
        <time>2021-01-29T13:34:04Z</time>
      </trkpt>
      <trkpt lat="42.77216" lon="0.16014">
        <ele>2219.8</ele>
        <time>2021-01-29T13:34:05Z</time>
      </trkpt>
      <trkpt lat="42.77216" lon="0.16014">
        <ele>2219.8</ele>
        <time>2021-01-29T13:34:06Z</time>
      </trkpt>
      <trkpt lat="42.77216" lon="0.16014">
        <ele>2220</ele>
        <time>2021-01-29T13:34:07Z</time>
      </trkpt>
      <trkpt lat="42.77216" lon="0.16015">
        <ele>2220.2</ele>
        <time>2021-01-29T13:34:08Z</time>
      </trkpt>
      <trkpt lat="42.77216" lon="0.16015">
        <ele>2220.4</ele>
        <time>2021-01-29T13:34:09Z</time>
      </trkpt>
      <trkpt lat="42.77216" lon="0.16015">
        <ele>2220.6</ele>
        <time>2021-01-29T13:34:10Z</time>
      </trkpt>
      <trkpt lat="42.77216" lon="0.16015">
        <ele>2221</ele>
        <time>2021-01-29T13:34:11Z</time>
      </trkpt>
      <trkpt lat="42.77215" lon="0.16016">
        <ele>2221.2</ele>
        <time>2021-01-29T13:34:12Z</time>
      </trkpt>
      <trkpt lat="42.77214" lon="0.16018">
        <ele>2221.6</ele>
        <time>2021-01-29T13:34:13Z</time>
      </trkpt>
      <trkpt lat="42.77214" lon="0.16019">
        <ele>2221.8</ele>
        <time>2021-01-29T13:34:14Z</time>
      </trkpt>
      <trkpt lat="42.77214" lon="0.1602">
        <ele>2222</ele>
        <time>2021-01-29T13:34:15Z</time>
      </trkpt>
      <trkpt lat="42.77214" lon="0.1602">
        <ele>2222.4</ele>
        <time>2021-01-29T13:34:16Z</time>
      </trkpt>
      <trkpt lat="42.77214" lon="0.16021">
        <ele>2222.6</ele>
        <time>2021-01-29T13:34:17Z</time>
      </trkpt>
      <trkpt lat="42.77213" lon="0.16022">
        <ele>2223</ele>
        <time>2021-01-29T13:34:18Z</time>
      </trkpt>
      <trkpt lat="42.77213" lon="0.16022">
        <ele>2223.2</ele>
        <time>2021-01-29T13:34:19Z</time>
      </trkpt>
      <trkpt lat="42.77213" lon="0.16023">
        <ele>2223.4</ele>
        <time>2021-01-29T13:34:20Z</time>
      </trkpt>
      <trkpt lat="42.77212" lon="0.16024">
        <ele>2223.8</ele>
        <time>2021-01-29T13:34:21Z</time>
      </trkpt>
      <trkpt lat="42.77212" lon="0.16024">
        <ele>2223.8</ele>
        <time>2021-01-29T13:34:22Z</time>
      </trkpt>
      <trkpt lat="42.77212" lon="0.16025">
        <ele>2224.2</ele>
        <time>2021-01-29T13:34:23Z</time>
      </trkpt>
      <trkpt lat="42.77212" lon="0.16025">
        <ele>2224.2</ele>
        <time>2021-01-29T13:34:24Z</time>
      </trkpt>
      <trkpt lat="42.77211" lon="0.16026">
        <ele>2224.6</ele>
        <time>2021-01-29T13:34:25Z</time>
      </trkpt>
      <trkpt lat="42.77211" lon="0.16026">
        <ele>2224.6</ele>
        <time>2021-01-29T13:34:26Z</time>
      </trkpt>
      <trkpt lat="42.77211" lon="0.16027">
        <ele>2225</ele>
        <time>2021-01-29T13:34:27Z</time>
      </trkpt>
      <trkpt lat="42.7721" lon="0.16027">
        <ele>2225.2</ele>
        <time>2021-01-29T13:34:28Z</time>
      </trkpt>
      <trkpt lat="42.7721" lon="0.16028">
        <ele>2225.4</ele>
        <time>2021-01-29T13:34:29Z</time>
      </trkpt>
      <trkpt lat="42.77209" lon="0.16028">
        <ele>2225.6</ele>
        <time>2021-01-29T13:34:30Z</time>
      </trkpt>
      <trkpt lat="42.77209" lon="0.16028">
        <ele>2225.8</ele>
        <time>2021-01-29T13:34:31Z</time>
      </trkpt>
      <trkpt lat="42.77208" lon="0.16028">
        <ele>2225.8</ele>
        <time>2021-01-29T13:34:32Z</time>
      </trkpt>
      <trkpt lat="42.77208" lon="0.16029">
        <ele>2225.8</ele>
        <time>2021-01-29T13:34:33Z</time>
      </trkpt>
      <trkpt lat="42.77207" lon="0.16029">
        <ele>2225.8</ele>
        <time>2021-01-29T13:34:34Z</time>
      </trkpt>
      <trkpt lat="42.77207" lon="0.16029">
        <ele>2226</ele>
        <time>2021-01-29T13:34:35Z</time>
      </trkpt>
      <trkpt lat="42.77206" lon="0.1603">
        <ele>2225.8</ele>
        <time>2021-01-29T13:34:36Z</time>
      </trkpt>
      <trkpt lat="42.77205" lon="0.1603">
        <ele>2226.2</ele>
        <time>2021-01-29T13:34:37Z</time>
      </trkpt>
      <trkpt lat="42.77205" lon="0.1603">
        <ele>2226.2</ele>
        <time>2021-01-29T13:34:38Z</time>
      </trkpt>
      <trkpt lat="42.77204" lon="0.1603">
        <ele>2226.4</ele>
        <time>2021-01-29T13:34:39Z</time>
      </trkpt>
      <trkpt lat="42.77203" lon="0.16031">
        <ele>2226.6</ele>
        <time>2021-01-29T13:34:40Z</time>
      </trkpt>
      <trkpt lat="42.77203" lon="0.16031">
        <ele>2226.8</ele>
        <time>2021-01-29T13:34:41Z</time>
      </trkpt>
      <trkpt lat="42.77202" lon="0.16031">
        <ele>2227</ele>
        <time>2021-01-29T13:34:42Z</time>
      </trkpt>
      <trkpt lat="42.77202" lon="0.16031">
        <ele>2227.2</ele>
        <time>2021-01-29T13:34:43Z</time>
      </trkpt>
      <trkpt lat="42.77202" lon="0.16032">
        <ele>2227.4</ele>
        <time>2021-01-29T13:34:44Z</time>
      </trkpt>
      <trkpt lat="42.77201" lon="0.16032">
        <ele>2227.8</ele>
        <time>2021-01-29T13:34:45Z</time>
      </trkpt>
      <trkpt lat="42.772" lon="0.16033">
        <ele>2228</ele>
        <time>2021-01-29T13:34:46Z</time>
      </trkpt>
      <trkpt lat="42.772" lon="0.16033">
        <ele>2228.4</ele>
        <time>2021-01-29T13:34:47Z</time>
      </trkpt>
      <trkpt lat="42.77199" lon="0.16033">
        <ele>2228.6</ele>
        <time>2021-01-29T13:34:48Z</time>
      </trkpt>
      <trkpt lat="42.77199" lon="0.16033">
        <ele>2228.6</ele>
        <time>2021-01-29T13:34:49Z</time>
      </trkpt>
      <trkpt lat="42.77198" lon="0.16034">
        <ele>2228.8</ele>
        <time>2021-01-29T13:34:50Z</time>
      </trkpt>
      <trkpt lat="42.77198" lon="0.16034">
        <ele>2228.8</ele>
        <time>2021-01-29T13:34:51Z</time>
      </trkpt>
      <trkpt lat="42.77198" lon="0.16034">
        <ele>2229</ele>
        <time>2021-01-29T13:34:52Z</time>
      </trkpt>
      <trkpt lat="42.77198" lon="0.16034">
        <ele>2229.2</ele>
        <time>2021-01-29T13:34:53Z</time>
      </trkpt>
      <trkpt lat="42.77198" lon="0.16034">
        <ele>2229.2</ele>
        <time>2021-01-29T13:34:54Z</time>
      </trkpt>
      <trkpt lat="42.77198" lon="0.16034">
        <ele>2229.4</ele>
        <time>2021-01-29T13:34:55Z</time>
      </trkpt>
      <trkpt lat="42.77198" lon="0.16034">
        <ele>2229.6</ele>
        <time>2021-01-29T13:34:56Z</time>
      </trkpt>
      <trkpt lat="42.77198" lon="0.16034">
        <ele>2229.8</ele>
        <time>2021-01-29T13:34:57Z</time>
      </trkpt>
      <trkpt lat="42.77197" lon="0.16037">
        <ele>2230</ele>
        <time>2021-01-29T13:34:58Z</time>
      </trkpt>
      <trkpt lat="42.77197" lon="0.1604">
        <ele>2230</ele>
        <time>2021-01-29T13:34:59Z</time>
      </trkpt>
      <trkpt lat="42.77196" lon="0.16041">
        <ele>2230.2</ele>
        <time>2021-01-29T13:35:00Z</time>
      </trkpt>
      <trkpt lat="42.77196" lon="0.16042">
        <ele>2230</ele>
        <time>2021-01-29T13:35:01Z</time>
      </trkpt>
      <trkpt lat="42.77196" lon="0.16042">
        <ele>2230.4</ele>
        <time>2021-01-29T13:35:02Z</time>
      </trkpt>
      <trkpt lat="42.77196" lon="0.16043">
        <ele>2230.4</ele>
        <time>2021-01-29T13:35:03Z</time>
      </trkpt>
      <trkpt lat="42.77196" lon="0.16044">
        <ele>2230.6</ele>
        <time>2021-01-29T13:35:04Z</time>
      </trkpt>
      <trkpt lat="42.77195" lon="0.16045">
        <ele>2230.6</ele>
        <time>2021-01-29T13:35:05Z</time>
      </trkpt>
      <trkpt lat="42.77195" lon="0.16046">
        <ele>2230.8</ele>
        <time>2021-01-29T13:35:06Z</time>
      </trkpt>
      <trkpt lat="42.77195" lon="0.16046">
        <ele>2230.8</ele>
        <time>2021-01-29T13:35:07Z</time>
      </trkpt>
      <trkpt lat="42.77195" lon="0.16047">
        <ele>2231</ele>
        <time>2021-01-29T13:35:08Z</time>
      </trkpt>
      <trkpt lat="42.77195" lon="0.16048">
        <ele>2231</ele>
        <time>2021-01-29T13:35:09Z</time>
      </trkpt>
      <trkpt lat="42.77195" lon="0.16049">
        <ele>2231.2</ele>
        <time>2021-01-29T13:35:10Z</time>
      </trkpt>
      <trkpt lat="42.77195" lon="0.1605">
        <ele>2231.2</ele>
        <time>2021-01-29T13:35:11Z</time>
      </trkpt>
      <trkpt lat="42.77194" lon="0.16051">
        <ele>2231.4</ele>
        <time>2021-01-29T13:35:12Z</time>
      </trkpt>
      <trkpt lat="42.77194" lon="0.16052">
        <ele>2231.4</ele>
        <time>2021-01-29T13:35:13Z</time>
      </trkpt>
      <trkpt lat="42.77194" lon="0.16053">
        <ele>2231.6</ele>
        <time>2021-01-29T13:35:14Z</time>
      </trkpt>
      <trkpt lat="42.77194" lon="0.16054">
        <ele>2231.8</ele>
        <time>2021-01-29T13:35:15Z</time>
      </trkpt>
      <trkpt lat="42.77194" lon="0.16055">
        <ele>2232</ele>
        <time>2021-01-29T13:35:16Z</time>
      </trkpt>
      <trkpt lat="42.77193" lon="0.16055">
        <ele>2232.2</ele>
        <time>2021-01-29T13:35:17Z</time>
      </trkpt>
      <trkpt lat="42.77193" lon="0.16056">
        <ele>2232.4</ele>
        <time>2021-01-29T13:35:18Z</time>
      </trkpt>
      <trkpt lat="42.77193" lon="0.16057">
        <ele>2232.8</ele>
        <time>2021-01-29T13:35:19Z</time>
      </trkpt>
      <trkpt lat="42.77193" lon="0.16058">
        <ele>2233</ele>
        <time>2021-01-29T13:35:20Z</time>
      </trkpt>
      <trkpt lat="42.77193" lon="0.16058">
        <ele>2233</ele>
        <time>2021-01-29T13:35:21Z</time>
      </trkpt>
      <trkpt lat="42.77192" lon="0.16059">
        <ele>2233.4</ele>
        <time>2021-01-29T13:35:22Z</time>
      </trkpt>
      <trkpt lat="42.77192" lon="0.1606">
        <ele>2233.6</ele>
        <time>2021-01-29T13:35:23Z</time>
      </trkpt>
      <trkpt lat="42.77192" lon="0.16061">
        <ele>2233.6</ele>
        <time>2021-01-29T13:35:24Z</time>
      </trkpt>
      <trkpt lat="42.77191" lon="0.16061">
        <ele>2234</ele>
        <time>2021-01-29T13:35:25Z</time>
      </trkpt>
      <trkpt lat="42.77191" lon="0.16062">
        <ele>2234</ele>
        <time>2021-01-29T13:35:26Z</time>
      </trkpt>
      <trkpt lat="42.77191" lon="0.16063">
        <ele>2234.2</ele>
        <time>2021-01-29T13:35:27Z</time>
      </trkpt>
      <trkpt lat="42.7719" lon="0.16063">
        <ele>2234.4</ele>
        <time>2021-01-29T13:35:28Z</time>
      </trkpt>
      <trkpt lat="42.7719" lon="0.16064">
        <ele>2234.4</ele>
        <time>2021-01-29T13:35:29Z</time>
      </trkpt>
      <trkpt lat="42.77189" lon="0.16065">
        <ele>2234.6</ele>
        <time>2021-01-29T13:35:30Z</time>
      </trkpt>
      <trkpt lat="42.77189" lon="0.16065">
        <ele>2234.8</ele>
        <time>2021-01-29T13:35:31Z</time>
      </trkpt>
      <trkpt lat="42.77188" lon="0.16066">
        <ele>2235</ele>
        <time>2021-01-29T13:35:32Z</time>
      </trkpt>
      <trkpt lat="42.77188" lon="0.16067">
        <ele>2235</ele>
        <time>2021-01-29T13:35:33Z</time>
      </trkpt>
      <trkpt lat="42.77188" lon="0.16067">
        <ele>2235</ele>
        <time>2021-01-29T13:35:34Z</time>
      </trkpt>
      <trkpt lat="42.77187" lon="0.16068">
        <ele>2235.2</ele>
        <time>2021-01-29T13:35:35Z</time>
      </trkpt>
      <trkpt lat="42.77187" lon="0.16068">
        <ele>2235.2</ele>
        <time>2021-01-29T13:35:36Z</time>
      </trkpt>
      <trkpt lat="42.77186" lon="0.16069">
        <ele>2235.6</ele>
        <time>2021-01-29T13:35:37Z</time>
      </trkpt>
      <trkpt lat="42.77186" lon="0.16069">
        <ele>2235.6</ele>
        <time>2021-01-29T13:35:38Z</time>
      </trkpt>
      <trkpt lat="42.77186" lon="0.1607">
        <ele>2235.8</ele>
        <time>2021-01-29T13:35:39Z</time>
      </trkpt>
      <trkpt lat="42.77185" lon="0.1607">
        <ele>2236</ele>
        <time>2021-01-29T13:35:40Z</time>
      </trkpt>
      <trkpt lat="42.77184" lon="0.1607">
        <ele>2236</ele>
        <time>2021-01-29T13:35:41Z</time>
      </trkpt>
      <trkpt lat="42.77184" lon="0.16071">
        <ele>2236.4</ele>
        <time>2021-01-29T13:35:42Z</time>
      </trkpt>
      <trkpt lat="42.77183" lon="0.16071">
        <ele>2236.4</ele>
        <time>2021-01-29T13:35:43Z</time>
      </trkpt>
      <trkpt lat="42.77183" lon="0.16072">
        <ele>2236.4</ele>
        <time>2021-01-29T13:35:44Z</time>
      </trkpt>
      <trkpt lat="42.77182" lon="0.16072">
        <ele>2236.8</ele>
        <time>2021-01-29T13:35:45Z</time>
      </trkpt>
      <trkpt lat="42.77182" lon="0.16072">
        <ele>2236.8</ele>
        <time>2021-01-29T13:35:46Z</time>
      </trkpt>
      <trkpt lat="42.77181" lon="0.16072">
        <ele>2237.2</ele>
        <time>2021-01-29T13:35:47Z</time>
      </trkpt>
      <trkpt lat="42.7718" lon="0.16073">
        <ele>2237.4</ele>
        <time>2021-01-29T13:35:48Z</time>
      </trkpt>
      <trkpt lat="42.7718" lon="0.16073">
        <ele>2237.6</ele>
        <time>2021-01-29T13:35:49Z</time>
      </trkpt>
      <trkpt lat="42.77179" lon="0.16073">
        <ele>2237.8</ele>
        <time>2021-01-29T13:35:50Z</time>
      </trkpt>
      <trkpt lat="42.77178" lon="0.16073">
        <ele>2237.8</ele>
        <time>2021-01-29T13:35:51Z</time>
      </trkpt>
      <trkpt lat="42.77178" lon="0.16073">
        <ele>2238</ele>
        <time>2021-01-29T13:35:52Z</time>
      </trkpt>
      <trkpt lat="42.77177" lon="0.16074">
        <ele>2238.2</ele>
        <time>2021-01-29T13:35:53Z</time>
      </trkpt>
      <trkpt lat="42.77176" lon="0.16074">
        <ele>2238.2</ele>
        <time>2021-01-29T13:35:54Z</time>
      </trkpt>
      <trkpt lat="42.77176" lon="0.16074">
        <ele>2238.4</ele>
        <time>2021-01-29T13:35:55Z</time>
      </trkpt>
      <trkpt lat="42.77175" lon="0.16074">
        <ele>2238.4</ele>
        <time>2021-01-29T13:35:56Z</time>
      </trkpt>
      <trkpt lat="42.77174" lon="0.16074">
        <ele>2238.4</ele>
        <time>2021-01-29T13:35:57Z</time>
      </trkpt>
      <trkpt lat="42.77174" lon="0.16075">
        <ele>2238.8</ele>
        <time>2021-01-29T13:35:58Z</time>
      </trkpt>
      <trkpt lat="42.77173" lon="0.16075">
        <ele>2238.8</ele>
        <time>2021-01-29T13:35:59Z</time>
      </trkpt>
      <trkpt lat="42.77172" lon="0.16075">
        <ele>2239.2</ele>
        <time>2021-01-29T13:36:00Z</time>
      </trkpt>
      <trkpt lat="42.77172" lon="0.16075">
        <ele>2239.2</ele>
        <time>2021-01-29T13:36:01Z</time>
      </trkpt>
      <trkpt lat="42.77171" lon="0.16075">
        <ele>2239.2</ele>
        <time>2021-01-29T13:36:02Z</time>
      </trkpt>
      <trkpt lat="42.7717" lon="0.16075">
        <ele>2239.6</ele>
        <time>2021-01-29T13:36:03Z</time>
      </trkpt>
      <trkpt lat="42.77169" lon="0.16075">
        <ele>2239.8</ele>
        <time>2021-01-29T13:36:04Z</time>
      </trkpt>
      <trkpt lat="42.77169" lon="0.16075">
        <ele>2240.2</ele>
        <time>2021-01-29T13:36:05Z</time>
      </trkpt>
      <trkpt lat="42.77168" lon="0.16074">
        <ele>2240.4</ele>
        <time>2021-01-29T13:36:06Z</time>
      </trkpt>
      <trkpt lat="42.77168" lon="0.16074">
        <ele>2240.6</ele>
        <time>2021-01-29T13:36:07Z</time>
      </trkpt>
      <trkpt lat="42.77167" lon="0.16073">
        <ele>2240.8</ele>
        <time>2021-01-29T13:36:08Z</time>
      </trkpt>
      <trkpt lat="42.77167" lon="0.16073">
        <ele>2241.2</ele>
        <time>2021-01-29T13:36:09Z</time>
      </trkpt>
      <trkpt lat="42.77167" lon="0.16073">
        <ele>2241.2</ele>
        <time>2021-01-29T13:36:10Z</time>
      </trkpt>
      <trkpt lat="42.77166" lon="0.16072">
        <ele>2241.8</ele>
        <time>2021-01-29T13:36:11Z</time>
      </trkpt>
      <trkpt lat="42.77166" lon="0.16071">
        <ele>2241.8</ele>
        <time>2021-01-29T13:36:12Z</time>
      </trkpt>
      <trkpt lat="42.77166" lon="0.16071">
        <ele>2242</ele>
        <time>2021-01-29T13:36:13Z</time>
      </trkpt>
      <trkpt lat="42.77165" lon="0.1607">
        <ele>2242.2</ele>
        <time>2021-01-29T13:36:14Z</time>
      </trkpt>
      <trkpt lat="42.77165" lon="0.1607">
        <ele>2242.2</ele>
        <time>2021-01-29T13:36:15Z</time>
      </trkpt>
      <trkpt lat="42.77165" lon="0.16069">
        <ele>2242.4</ele>
        <time>2021-01-29T13:36:16Z</time>
      </trkpt>
      <trkpt lat="42.77164" lon="0.16068">
        <ele>2242.6</ele>
        <time>2021-01-29T13:36:17Z</time>
      </trkpt>
      <trkpt lat="42.77164" lon="0.16067">
        <ele>2242.6</ele>
        <time>2021-01-29T13:36:18Z</time>
      </trkpt>
      <trkpt lat="42.77164" lon="0.16066">
        <ele>2242.8</ele>
        <time>2021-01-29T13:36:19Z</time>
      </trkpt>
      <trkpt lat="42.77164" lon="0.16065">
        <ele>2243</ele>
        <time>2021-01-29T13:36:20Z</time>
      </trkpt>
      <trkpt lat="42.77163" lon="0.16064">
        <ele>2243.2</ele>
        <time>2021-01-29T13:36:21Z</time>
      </trkpt>
      <trkpt lat="42.77163" lon="0.16063">
        <ele>2243.4</ele>
        <time>2021-01-29T13:36:22Z</time>
      </trkpt>
      <trkpt lat="42.77163" lon="0.16063">
        <ele>2243.6</ele>
        <time>2021-01-29T13:36:23Z</time>
      </trkpt>
      <trkpt lat="42.77163" lon="0.16063">
        <ele>2244</ele>
        <time>2021-01-29T13:36:24Z</time>
      </trkpt>
      <trkpt lat="42.77163" lon="0.16063">
        <ele>2244.4</ele>
        <time>2021-01-29T13:36:25Z</time>
      </trkpt>
      <trkpt lat="42.77162" lon="0.16062">
        <ele>2244.8</ele>
        <time>2021-01-29T13:36:26Z</time>
      </trkpt>
      <trkpt lat="42.77162" lon="0.1606">
        <ele>2245</ele>
        <time>2021-01-29T13:36:27Z</time>
      </trkpt>
      <trkpt lat="42.77161" lon="0.16059">
        <ele>2245.2</ele>
        <time>2021-01-29T13:36:28Z</time>
      </trkpt>
      <trkpt lat="42.77161" lon="0.16059">
        <ele>2245.4</ele>
        <time>2021-01-29T13:36:29Z</time>
      </trkpt>
      <trkpt lat="42.77161" lon="0.16058">
        <ele>2245.4</ele>
        <time>2021-01-29T13:36:30Z</time>
      </trkpt>
      <trkpt lat="42.7716" lon="0.16057">
        <ele>2245.6</ele>
        <time>2021-01-29T13:36:31Z</time>
      </trkpt>
      <trkpt lat="42.7716" lon="0.16056">
        <ele>2246</ele>
        <time>2021-01-29T13:36:32Z</time>
      </trkpt>
      <trkpt lat="42.77159" lon="0.16056">
        <ele>2246.2</ele>
        <time>2021-01-29T13:36:33Z</time>
      </trkpt>
      <trkpt lat="42.77159" lon="0.16055">
        <ele>2246.6</ele>
        <time>2021-01-29T13:36:34Z</time>
      </trkpt>
      <trkpt lat="42.77159" lon="0.16054">
        <ele>2246.6</ele>
        <time>2021-01-29T13:36:35Z</time>
      </trkpt>
      <trkpt lat="42.77158" lon="0.16053">
        <ele>2246.8</ele>
        <time>2021-01-29T13:36:36Z</time>
      </trkpt>
      <trkpt lat="42.77158" lon="0.16053">
        <ele>2247</ele>
        <time>2021-01-29T13:36:37Z</time>
      </trkpt>
      <trkpt lat="42.77158" lon="0.16052">
        <ele>2247.2</ele>
        <time>2021-01-29T13:36:38Z</time>
      </trkpt>
      <trkpt lat="42.77157" lon="0.16051">
        <ele>2247.4</ele>
        <time>2021-01-29T13:36:39Z</time>
      </trkpt>
      <trkpt lat="42.77157" lon="0.1605">
        <ele>2247.4</ele>
        <time>2021-01-29T13:36:40Z</time>
      </trkpt>
      <trkpt lat="42.77157" lon="0.1605">
        <ele>2247.4</ele>
        <time>2021-01-29T13:36:41Z</time>
      </trkpt>
      <trkpt lat="42.77157" lon="0.16049">
        <ele>2247.6</ele>
        <time>2021-01-29T13:36:42Z</time>
      </trkpt>
      <trkpt lat="42.77157" lon="0.16048">
        <ele>2247.6</ele>
        <time>2021-01-29T13:36:43Z</time>
      </trkpt>
      <trkpt lat="42.77157" lon="0.16048">
        <ele>2247.8</ele>
        <time>2021-01-29T13:36:44Z</time>
      </trkpt>
      <trkpt lat="42.77156" lon="0.16047">
        <ele>2248.2</ele>
        <time>2021-01-29T13:36:45Z</time>
      </trkpt>
      <trkpt lat="42.77156" lon="0.16046">
        <ele>2248.6</ele>
        <time>2021-01-29T13:36:46Z</time>
      </trkpt>
      <trkpt lat="42.77156" lon="0.16045">
        <ele>2248.8</ele>
        <time>2021-01-29T13:36:47Z</time>
      </trkpt>
      <trkpt lat="42.77155" lon="0.16045">
        <ele>2248.8</ele>
        <time>2021-01-29T13:36:48Z</time>
      </trkpt>
      <trkpt lat="42.77155" lon="0.16044">
        <ele>2248.8</ele>
        <time>2021-01-29T13:36:49Z</time>
      </trkpt>
      <trkpt lat="42.77155" lon="0.16044">
        <ele>2248.8</ele>
        <time>2021-01-29T13:36:50Z</time>
      </trkpt>
      <trkpt lat="42.77155" lon="0.16044">
        <ele>2249</ele>
        <time>2021-01-29T13:36:51Z</time>
      </trkpt>
      <trkpt lat="42.77155" lon="0.16044">
        <ele>2249.2</ele>
        <time>2021-01-29T13:36:52Z</time>
      </trkpt>
      <trkpt lat="42.77155" lon="0.16044">
        <ele>2249.4</ele>
        <time>2021-01-29T13:36:53Z</time>
      </trkpt>
      <trkpt lat="42.77155" lon="0.16044">
        <ele>2249.4</ele>
        <time>2021-01-29T13:36:54Z</time>
      </trkpt>
      <trkpt lat="42.77155" lon="0.16044">
        <ele>2249.4</ele>
        <time>2021-01-29T13:36:55Z</time>
      </trkpt>
      <trkpt lat="42.77155" lon="0.16044">
        <ele>2249.6</ele>
        <time>2021-01-29T13:36:56Z</time>
      </trkpt>
      <trkpt lat="42.77154" lon="0.16041">
        <ele>2249.6</ele>
        <time>2021-01-29T13:36:57Z</time>
      </trkpt>
      <trkpt lat="42.77154" lon="0.16038">
        <ele>2249.8</ele>
        <time>2021-01-29T13:36:58Z</time>
      </trkpt>
      <trkpt lat="42.77154" lon="0.16037">
        <ele>2249.8</ele>
        <time>2021-01-29T13:36:59Z</time>
      </trkpt>
      <trkpt lat="42.77154" lon="0.16036">
        <ele>2250.2</ele>
        <time>2021-01-29T13:37:00Z</time>
      </trkpt>
      <trkpt lat="42.77153" lon="0.16035">
        <ele>2250.2</ele>
        <time>2021-01-29T13:37:01Z</time>
      </trkpt>
      <trkpt lat="42.77153" lon="0.16035">
        <ele>2250.4</ele>
        <time>2021-01-29T13:37:02Z</time>
      </trkpt>
      <trkpt lat="42.77153" lon="0.16034">
        <ele>2250.4</ele>
        <time>2021-01-29T13:37:03Z</time>
      </trkpt>
      <trkpt lat="42.77153" lon="0.16033">
        <ele>2250.8</ele>
        <time>2021-01-29T13:37:04Z</time>
      </trkpt>
      <trkpt lat="42.77153" lon="0.16033">
        <ele>2251</ele>
        <time>2021-01-29T13:37:05Z</time>
      </trkpt>
      <trkpt lat="42.77153" lon="0.16032">
        <ele>2251.2</ele>
        <time>2021-01-29T13:37:06Z</time>
      </trkpt>
      <trkpt lat="42.77153" lon="0.16031">
        <ele>2251.4</ele>
        <time>2021-01-29T13:37:07Z</time>
      </trkpt>
      <trkpt lat="42.77153" lon="0.16031">
        <ele>2251.4</ele>
        <time>2021-01-29T13:37:08Z</time>
      </trkpt>
      <trkpt lat="42.77153" lon="0.1603">
        <ele>2251.6</ele>
        <time>2021-01-29T13:37:09Z</time>
      </trkpt>
      <trkpt lat="42.77153" lon="0.16029">
        <ele>2251.8</ele>
        <time>2021-01-29T13:37:10Z</time>
      </trkpt>
      <trkpt lat="42.77153" lon="0.16029">
        <ele>2251.8</ele>
        <time>2021-01-29T13:37:11Z</time>
      </trkpt>
      <trkpt lat="42.77153" lon="0.16028">
        <ele>2252.2</ele>
        <time>2021-01-29T13:37:12Z</time>
      </trkpt>
      <trkpt lat="42.77152" lon="0.16027">
        <ele>2252.2</ele>
        <time>2021-01-29T13:37:13Z</time>
      </trkpt>
      <trkpt lat="42.77152" lon="0.16026">
        <ele>2252.4</ele>
        <time>2021-01-29T13:37:14Z</time>
      </trkpt>
      <trkpt lat="42.77152" lon="0.16026">
        <ele>2252.6</ele>
        <time>2021-01-29T13:37:15Z</time>
      </trkpt>
      <trkpt lat="42.77152" lon="0.16025">
        <ele>2252.8</ele>
        <time>2021-01-29T13:37:16Z</time>
      </trkpt>
      <trkpt lat="42.77152" lon="0.16024">
        <ele>2253.2</ele>
        <time>2021-01-29T13:37:17Z</time>
      </trkpt>
      <trkpt lat="42.77152" lon="0.16023">
        <ele>2253.6</ele>
        <time>2021-01-29T13:37:18Z</time>
      </trkpt>
      <trkpt lat="42.77152" lon="0.16023">
        <ele>2254</ele>
        <time>2021-01-29T13:37:19Z</time>
      </trkpt>
      <trkpt lat="42.77152" lon="0.16022">
        <ele>2254.2</ele>
        <time>2021-01-29T13:37:20Z</time>
      </trkpt>
      <trkpt lat="42.77152" lon="0.16021">
        <ele>2254.4</ele>
        <time>2021-01-29T13:37:21Z</time>
      </trkpt>
      <trkpt lat="42.77151" lon="0.1602">
        <ele>2254.8</ele>
        <time>2021-01-29T13:37:22Z</time>
      </trkpt>
      <trkpt lat="42.77151" lon="0.1602">
        <ele>2255.4</ele>
        <time>2021-01-29T13:37:23Z</time>
      </trkpt>
      <trkpt lat="42.77151" lon="0.16019">
        <ele>2255.8</ele>
        <time>2021-01-29T13:37:24Z</time>
      </trkpt>
      <trkpt lat="42.7715" lon="0.16018">
        <ele>2255.6</ele>
        <time>2021-01-29T13:37:25Z</time>
      </trkpt>
      <trkpt lat="42.7715" lon="0.16018">
        <ele>2255.8</ele>
        <time>2021-01-29T13:37:26Z</time>
      </trkpt>
      <trkpt lat="42.77149" lon="0.16017">
        <ele>2255.6</ele>
        <time>2021-01-29T13:37:27Z</time>
      </trkpt>
      <trkpt lat="42.77149" lon="0.16017">
        <ele>2255.6</ele>
        <time>2021-01-29T13:37:28Z</time>
      </trkpt>
      <trkpt lat="42.77148" lon="0.16016">
        <ele>2255.8</ele>
        <time>2021-01-29T13:37:29Z</time>
      </trkpt>
      <trkpt lat="42.77148" lon="0.16016">
        <ele>2255.8</ele>
        <time>2021-01-29T13:37:30Z</time>
      </trkpt>
      <trkpt lat="42.77148" lon="0.16016">
        <ele>2256</ele>
        <time>2021-01-29T13:37:31Z</time>
      </trkpt>
      <trkpt lat="42.77147" lon="0.16015">
        <ele>2256.2</ele>
        <time>2021-01-29T13:37:32Z</time>
      </trkpt>
      <trkpt lat="42.77146" lon="0.16015">
        <ele>2256.4</ele>
        <time>2021-01-29T13:37:33Z</time>
      </trkpt>
      <trkpt lat="42.77146" lon="0.16014">
        <ele>2256.8</ele>
        <time>2021-01-29T13:37:34Z</time>
      </trkpt>
      <trkpt lat="42.77145" lon="0.16013">
        <ele>2256.6</ele>
        <time>2021-01-29T13:37:35Z</time>
      </trkpt>
      <trkpt lat="42.77145" lon="0.16013">
        <ele>2257</ele>
        <time>2021-01-29T13:37:36Z</time>
      </trkpt>
      <trkpt lat="42.77144" lon="0.16012">
        <ele>2257.2</ele>
        <time>2021-01-29T13:37:37Z</time>
      </trkpt>
      <trkpt lat="42.77144" lon="0.16012">
        <ele>2257.4</ele>
        <time>2021-01-29T13:37:38Z</time>
      </trkpt>
      <trkpt lat="42.77143" lon="0.16011">
        <ele>2257.4</ele>
        <time>2021-01-29T13:37:39Z</time>
      </trkpt>
      <trkpt lat="42.77143" lon="0.1601">
        <ele>2257.4</ele>
        <time>2021-01-29T13:37:40Z</time>
      </trkpt>
      <trkpt lat="42.77143" lon="0.1601">
        <ele>2257.6</ele>
        <time>2021-01-29T13:37:41Z</time>
      </trkpt>
      <trkpt lat="42.77142" lon="0.1601">
        <ele>2257.6</ele>
        <time>2021-01-29T13:37:42Z</time>
      </trkpt>
      <trkpt lat="42.77142" lon="0.16009">
        <ele>2257.8</ele>
        <time>2021-01-29T13:37:43Z</time>
      </trkpt>
      <trkpt lat="42.77142" lon="0.16007">
        <ele>2258</ele>
        <time>2021-01-29T13:37:44Z</time>
      </trkpt>
      <trkpt lat="42.77141" lon="0.16007">
        <ele>2258</ele>
        <time>2021-01-29T13:37:45Z</time>
      </trkpt>
      <trkpt lat="42.77141" lon="0.16006">
        <ele>2258.2</ele>
        <time>2021-01-29T13:37:46Z</time>
      </trkpt>
      <trkpt lat="42.77141" lon="0.16005">
        <ele>2258.4</ele>
        <time>2021-01-29T13:37:47Z</time>
      </trkpt>
      <trkpt lat="42.77141" lon="0.16005">
        <ele>2258.6</ele>
        <time>2021-01-29T13:37:48Z</time>
      </trkpt>
      <trkpt lat="42.77141" lon="0.16005">
        <ele>2258.8</ele>
        <time>2021-01-29T13:37:49Z</time>
      </trkpt>
      <trkpt lat="42.77141" lon="0.16005">
        <ele>2258.6</ele>
        <time>2021-01-29T13:37:50Z</time>
      </trkpt>
      <trkpt lat="42.77141" lon="0.16005">
        <ele>2258.8</ele>
        <time>2021-01-29T13:37:51Z</time>
      </trkpt>
      <trkpt lat="42.77141" lon="0.16005">
        <ele>2259</ele>
        <time>2021-01-29T13:37:52Z</time>
      </trkpt>
      <trkpt lat="42.77141" lon="0.16005">
        <ele>2259</ele>
        <time>2021-01-29T13:37:53Z</time>
      </trkpt>
      <trkpt lat="42.77141" lon="0.16005">
        <ele>2259.2</ele>
        <time>2021-01-29T13:37:54Z</time>
      </trkpt>
      <trkpt lat="42.77141" lon="0.16002">
        <ele>2259.2</ele>
        <time>2021-01-29T13:37:55Z</time>
      </trkpt>
      <trkpt lat="42.7714" lon="0.15998">
        <ele>2259.4</ele>
        <time>2021-01-29T13:37:56Z</time>
      </trkpt>
      <trkpt lat="42.7714" lon="0.15997">
        <ele>2259.8</ele>
        <time>2021-01-29T13:37:57Z</time>
      </trkpt>
      <trkpt lat="42.7714" lon="0.15996">
        <ele>2260</ele>
        <time>2021-01-29T13:37:58Z</time>
      </trkpt>
      <trkpt lat="42.7714" lon="0.15995">
        <ele>2260.6</ele>
        <time>2021-01-29T13:37:59Z</time>
      </trkpt>
      <trkpt lat="42.7714" lon="0.15994">
        <ele>2261</ele>
        <time>2021-01-29T13:38:00Z</time>
      </trkpt>
      <trkpt lat="42.7714" lon="0.15993">
        <ele>2261.2</ele>
        <time>2021-01-29T13:38:01Z</time>
      </trkpt>
      <trkpt lat="42.7714" lon="0.15992">
        <ele>2261.6</ele>
        <time>2021-01-29T13:38:02Z</time>
      </trkpt>
      <trkpt lat="42.7714" lon="0.15991">
        <ele>2261.8</ele>
        <time>2021-01-29T13:38:03Z</time>
      </trkpt>
      <trkpt lat="42.7714" lon="0.15991">
        <ele>2262.2</ele>
        <time>2021-01-29T13:38:04Z</time>
      </trkpt>
      <trkpt lat="42.7714" lon="0.1599">
        <ele>2262.6</ele>
        <time>2021-01-29T13:38:05Z</time>
      </trkpt>
      <trkpt lat="42.7714" lon="0.15989">
        <ele>2262.8</ele>
        <time>2021-01-29T13:38:06Z</time>
      </trkpt>
      <trkpt lat="42.7714" lon="0.15988">
        <ele>2263</ele>
        <time>2021-01-29T13:38:07Z</time>
      </trkpt>
      <trkpt lat="42.7714" lon="0.15987">
        <ele>2263</ele>
        <time>2021-01-29T13:38:08Z</time>
      </trkpt>
      <trkpt lat="42.7714" lon="0.15987">
        <ele>2263</ele>
        <time>2021-01-29T13:38:09Z</time>
      </trkpt>
      <trkpt lat="42.7714" lon="0.15986">
        <ele>2263</ele>
        <time>2021-01-29T13:38:10Z</time>
      </trkpt>
      <trkpt lat="42.7714" lon="0.15985">
        <ele>2262.8</ele>
        <time>2021-01-29T13:38:11Z</time>
      </trkpt>
      <trkpt lat="42.77139" lon="0.15984">
        <ele>2263</ele>
        <time>2021-01-29T13:38:12Z</time>
      </trkpt>
      <trkpt lat="42.77139" lon="0.15983">
        <ele>2263</ele>
        <time>2021-01-29T13:38:13Z</time>
      </trkpt>
      <trkpt lat="42.77139" lon="0.15983">
        <ele>2263</ele>
        <time>2021-01-29T13:38:14Z</time>
      </trkpt>
      <trkpt lat="42.77139" lon="0.15982">
        <ele>2263.2</ele>
        <time>2021-01-29T13:38:15Z</time>
      </trkpt>
      <trkpt lat="42.77139" lon="0.15981">
        <ele>2263.4</ele>
        <time>2021-01-29T13:38:16Z</time>
      </trkpt>
      <trkpt lat="42.77138" lon="0.1598">
        <ele>2263.8</ele>
        <time>2021-01-29T13:38:17Z</time>
      </trkpt>
      <trkpt lat="42.77138" lon="0.15979">
        <ele>2264.2</ele>
        <time>2021-01-29T13:38:18Z</time>
      </trkpt>
      <trkpt lat="42.77138" lon="0.15978">
        <ele>2264.2</ele>
        <time>2021-01-29T13:38:19Z</time>
      </trkpt>
      <trkpt lat="42.77138" lon="0.15978">
        <ele>2264.2</ele>
        <time>2021-01-29T13:38:20Z</time>
      </trkpt>
      <trkpt lat="42.77137" lon="0.15977">
        <ele>2264.4</ele>
        <time>2021-01-29T13:38:21Z</time>
      </trkpt>
      <trkpt lat="42.77137" lon="0.15976">
        <ele>2264.4</ele>
        <time>2021-01-29T13:38:22Z</time>
      </trkpt>
      <trkpt lat="42.77137" lon="0.15975">
        <ele>2264.8</ele>
        <time>2021-01-29T13:38:23Z</time>
      </trkpt>
      <trkpt lat="42.77137" lon="0.15974">
        <ele>2265</ele>
        <time>2021-01-29T13:38:24Z</time>
      </trkpt>
      <trkpt lat="42.77136" lon="0.15973">
        <ele>2265.4</ele>
        <time>2021-01-29T13:38:25Z</time>
      </trkpt>
      <trkpt lat="42.77136" lon="0.15973">
        <ele>2265.8</ele>
        <time>2021-01-29T13:38:26Z</time>
      </trkpt>
      <trkpt lat="42.77136" lon="0.15972">
        <ele>2266</ele>
        <time>2021-01-29T13:38:27Z</time>
      </trkpt>
      <trkpt lat="42.77136" lon="0.15971">
        <ele>2266.4</ele>
        <time>2021-01-29T13:38:28Z</time>
      </trkpt>
      <trkpt lat="42.77136" lon="0.1597">
        <ele>2266.4</ele>
        <time>2021-01-29T13:38:29Z</time>
      </trkpt>
      <trkpt lat="42.77135" lon="0.15969">
        <ele>2266.4</ele>
        <time>2021-01-29T13:38:30Z</time>
      </trkpt>
      <trkpt lat="42.77135" lon="0.15969">
        <ele>2266.6</ele>
        <time>2021-01-29T13:38:31Z</time>
      </trkpt>
      <trkpt lat="42.77135" lon="0.15968">
        <ele>2266.6</ele>
        <time>2021-01-29T13:38:32Z</time>
      </trkpt>
      <trkpt lat="42.77134" lon="0.15967">
        <ele>2266.6</ele>
        <time>2021-01-29T13:38:33Z</time>
      </trkpt>
      <trkpt lat="42.77134" lon="0.15966">
        <ele>2267</ele>
        <time>2021-01-29T13:38:34Z</time>
      </trkpt>
      <trkpt lat="42.77134" lon="0.15965">
        <ele>2267.4</ele>
        <time>2021-01-29T13:38:35Z</time>
      </trkpt>
      <trkpt lat="42.77134" lon="0.15964">
        <ele>2267.6</ele>
        <time>2021-01-29T13:38:36Z</time>
      </trkpt>
      <trkpt lat="42.77134" lon="0.15963">
        <ele>2267.8</ele>
        <time>2021-01-29T13:38:37Z</time>
      </trkpt>
      <trkpt lat="42.77134" lon="0.15962">
        <ele>2268</ele>
        <time>2021-01-29T13:38:38Z</time>
      </trkpt>
      <trkpt lat="42.77133" lon="0.15961">
        <ele>2268.2</ele>
        <time>2021-01-29T13:38:39Z</time>
      </trkpt>
      <trkpt lat="42.77133" lon="0.15961">
        <ele>2268.4</ele>
        <time>2021-01-29T13:38:40Z</time>
      </trkpt>
      <trkpt lat="42.77133" lon="0.1596">
        <ele>2268.8</ele>
        <time>2021-01-29T13:38:41Z</time>
      </trkpt>
      <trkpt lat="42.77133" lon="0.15959">
        <ele>2269</ele>
        <time>2021-01-29T13:38:42Z</time>
      </trkpt>
      <trkpt lat="42.77133" lon="0.15958">
        <ele>2269</ele>
        <time>2021-01-29T13:38:43Z</time>
      </trkpt>
      <trkpt lat="42.77132" lon="0.15957">
        <ele>2269</ele>
        <time>2021-01-29T13:38:44Z</time>
      </trkpt>
      <trkpt lat="42.77132" lon="0.15957">
        <ele>2269.2</ele>
        <time>2021-01-29T13:38:45Z</time>
      </trkpt>
      <trkpt lat="42.77132" lon="0.15956">
        <ele>2269.4</ele>
        <time>2021-01-29T13:38:46Z</time>
      </trkpt>
      <trkpt lat="42.77132" lon="0.15955">
        <ele>2269.4</ele>
        <time>2021-01-29T13:38:47Z</time>
      </trkpt>
      <trkpt lat="42.77131" lon="0.15954">
        <ele>2270</ele>
        <time>2021-01-29T13:38:48Z</time>
      </trkpt>
      <trkpt lat="42.77131" lon="0.15954">
        <ele>2270</ele>
        <time>2021-01-29T13:38:49Z</time>
      </trkpt>
      <trkpt lat="42.77131" lon="0.15953">
        <ele>2270.4</ele>
        <time>2021-01-29T13:38:50Z</time>
      </trkpt>
      <trkpt lat="42.7713" lon="0.15953">
        <ele>2270.6</ele>
        <time>2021-01-29T13:38:51Z</time>
      </trkpt>
      <trkpt lat="42.7713" lon="0.15952">
        <ele>2270.8</ele>
        <time>2021-01-29T13:38:52Z</time>
      </trkpt>
      <trkpt lat="42.77129" lon="0.15952">
        <ele>2271.2</ele>
        <time>2021-01-29T13:38:53Z</time>
      </trkpt>
      <trkpt lat="42.77129" lon="0.15951">
        <ele>2271.4</ele>
        <time>2021-01-29T13:38:54Z</time>
      </trkpt>
      <trkpt lat="42.77128" lon="0.15951">
        <ele>2271.6</ele>
        <time>2021-01-29T13:38:55Z</time>
      </trkpt>
      <trkpt lat="42.77128" lon="0.15951">
        <ele>2271.8</ele>
        <time>2021-01-29T13:38:56Z</time>
      </trkpt>
      <trkpt lat="42.77127" lon="0.15951">
        <ele>2272</ele>
        <time>2021-01-29T13:38:57Z</time>
      </trkpt>
      <trkpt lat="42.77126" lon="0.15951">
        <ele>2272</ele>
        <time>2021-01-29T13:38:58Z</time>
      </trkpt>
      <trkpt lat="42.77126" lon="0.15951">
        <ele>2272.4</ele>
        <time>2021-01-29T13:38:59Z</time>
      </trkpt>
      <trkpt lat="42.77125" lon="0.15951">
        <ele>2272</ele>
        <time>2021-01-29T13:39:00Z</time>
      </trkpt>
      <trkpt lat="42.77124" lon="0.15951">
        <ele>2272.4</ele>
        <time>2021-01-29T13:39:01Z</time>
      </trkpt>
      <trkpt lat="42.77123" lon="0.15951">
        <ele>2272.2</ele>
        <time>2021-01-29T13:39:02Z</time>
      </trkpt>
      <trkpt lat="42.77122" lon="0.15951">
        <ele>2272</ele>
        <time>2021-01-29T13:39:03Z</time>
      </trkpt>
      <trkpt lat="42.77122" lon="0.15952">
        <ele>2272</ele>
        <time>2021-01-29T13:39:04Z</time>
      </trkpt>
      <trkpt lat="42.77121" lon="0.15952">
        <ele>2272</ele>
        <time>2021-01-29T13:39:05Z</time>
      </trkpt>
      <trkpt lat="42.7712" lon="0.15952">
        <ele>2272</ele>
        <time>2021-01-29T13:39:06Z</time>
      </trkpt>
      <trkpt lat="42.7712" lon="0.15953">
        <ele>2272</ele>
        <time>2021-01-29T13:39:07Z</time>
      </trkpt>
      <trkpt lat="42.77119" lon="0.15953">
        <ele>2272.2</ele>
        <time>2021-01-29T13:39:08Z</time>
      </trkpt>
      <trkpt lat="42.77119" lon="0.15953">
        <ele>2272</ele>
        <time>2021-01-29T13:39:09Z</time>
      </trkpt>
      <trkpt lat="42.77118" lon="0.15953">
        <ele>2272.4</ele>
        <time>2021-01-29T13:39:10Z</time>
      </trkpt>
      <trkpt lat="42.77117" lon="0.15954">
        <ele>2272.4</ele>
        <time>2021-01-29T13:39:11Z</time>
      </trkpt>
      <trkpt lat="42.77117" lon="0.15954">
        <ele>2272.6</ele>
        <time>2021-01-29T13:39:12Z</time>
      </trkpt>
      <trkpt lat="42.77116" lon="0.15954">
        <ele>2272.8</ele>
        <time>2021-01-29T13:39:13Z</time>
      </trkpt>
      <trkpt lat="42.77116" lon="0.15954">
        <ele>2272.6</ele>
        <time>2021-01-29T13:39:14Z</time>
      </trkpt>
      <trkpt lat="42.77115" lon="0.15954">
        <ele>2273</ele>
        <time>2021-01-29T13:39:15Z</time>
      </trkpt>
      <trkpt lat="42.77115" lon="0.15954">
        <ele>2273</ele>
        <time>2021-01-29T13:39:16Z</time>
      </trkpt>
      <trkpt lat="42.77114" lon="0.15953">
        <ele>2273.2</ele>
        <time>2021-01-29T13:39:17Z</time>
      </trkpt>
      <trkpt lat="42.77113" lon="0.15953">
        <ele>2273.4</ele>
        <time>2021-01-29T13:39:18Z</time>
      </trkpt>
      <trkpt lat="42.77113" lon="0.15953">
        <ele>2273.4</ele>
        <time>2021-01-29T13:39:19Z</time>
      </trkpt>
      <trkpt lat="42.77112" lon="0.15952">
        <ele>2273.4</ele>
        <time>2021-01-29T13:39:20Z</time>
      </trkpt>
      <trkpt lat="42.77112" lon="0.15952">
        <ele>2273.8</ele>
        <time>2021-01-29T13:39:21Z</time>
      </trkpt>
      <trkpt lat="42.77111" lon="0.15951">
        <ele>2273.8</ele>
        <time>2021-01-29T13:39:22Z</time>
      </trkpt>
      <trkpt lat="42.77111" lon="0.15951">
        <ele>2274</ele>
        <time>2021-01-29T13:39:23Z</time>
      </trkpt>
      <trkpt lat="42.7711" lon="0.1595">
        <ele>2274.2</ele>
        <time>2021-01-29T13:39:24Z</time>
      </trkpt>
      <trkpt lat="42.77109" lon="0.1595">
        <ele>2274.2</ele>
        <time>2021-01-29T13:39:25Z</time>
      </trkpt>
      <trkpt lat="42.77109" lon="0.15949">
        <ele>2274.4</ele>
        <time>2021-01-29T13:39:26Z</time>
      </trkpt>
      <trkpt lat="42.77109" lon="0.15949">
        <ele>2274.6</ele>
        <time>2021-01-29T13:39:27Z</time>
      </trkpt>
      <trkpt lat="42.77108" lon="0.15948">
        <ele>2274.8</ele>
        <time>2021-01-29T13:39:28Z</time>
      </trkpt>
      <trkpt lat="42.77108" lon="0.15948">
        <ele>2275</ele>
        <time>2021-01-29T13:39:29Z</time>
      </trkpt>
      <trkpt lat="42.77107" lon="0.15947">
        <ele>2275.2</ele>
        <time>2021-01-29T13:39:30Z</time>
      </trkpt>
      <trkpt lat="42.77107" lon="0.15947">
        <ele>2275.2</ele>
        <time>2021-01-29T13:39:31Z</time>
      </trkpt>
      <trkpt lat="42.77106" lon="0.15946">
        <ele>2275.4</ele>
        <time>2021-01-29T13:39:32Z</time>
      </trkpt>
      <trkpt lat="42.77106" lon="0.15946">
        <ele>2275.4</ele>
        <time>2021-01-29T13:39:33Z</time>
      </trkpt>
      <trkpt lat="42.77105" lon="0.15945">
        <ele>2275.6</ele>
        <time>2021-01-29T13:39:34Z</time>
      </trkpt>
      <trkpt lat="42.77105" lon="0.15945">
        <ele>2275.8</ele>
        <time>2021-01-29T13:39:35Z</time>
      </trkpt>
      <trkpt lat="42.77104" lon="0.15945">
        <ele>2276</ele>
        <time>2021-01-29T13:39:36Z</time>
      </trkpt>
      <trkpt lat="42.77104" lon="0.15944">
        <ele>2276.2</ele>
        <time>2021-01-29T13:39:37Z</time>
      </trkpt>
      <trkpt lat="42.77103" lon="0.15944">
        <ele>2276</ele>
        <time>2021-01-29T13:39:38Z</time>
      </trkpt>
      <trkpt lat="42.77103" lon="0.15943">
        <ele>2276.4</ele>
        <time>2021-01-29T13:39:39Z</time>
      </trkpt>
      <trkpt lat="42.77102" lon="0.15943">
        <ele>2276.4</ele>
        <time>2021-01-29T13:39:40Z</time>
      </trkpt>
      <trkpt lat="42.77102" lon="0.15943">
        <ele>2276.8</ele>
        <time>2021-01-29T13:39:41Z</time>
      </trkpt>
      <trkpt lat="42.77101" lon="0.15942">
        <ele>2277</ele>
        <time>2021-01-29T13:39:42Z</time>
      </trkpt>
      <trkpt lat="42.771" lon="0.15942">
        <ele>2277.2</ele>
        <time>2021-01-29T13:39:43Z</time>
      </trkpt>
      <trkpt lat="42.771" lon="0.15942">
        <ele>2277.4</ele>
        <time>2021-01-29T13:39:44Z</time>
      </trkpt>
      <trkpt lat="42.77099" lon="0.15942">
        <ele>2277.6</ele>
        <time>2021-01-29T13:39:45Z</time>
      </trkpt>
      <trkpt lat="42.77099" lon="0.15941">
        <ele>2277.6</ele>
        <time>2021-01-29T13:39:46Z</time>
      </trkpt>
      <trkpt lat="42.77098" lon="0.15941">
        <ele>2278</ele>
        <time>2021-01-29T13:39:47Z</time>
      </trkpt>
      <trkpt lat="42.77097" lon="0.15941">
        <ele>2278.2</ele>
        <time>2021-01-29T13:39:48Z</time>
      </trkpt>
      <trkpt lat="42.77097" lon="0.15941">
        <ele>2278.4</ele>
        <time>2021-01-29T13:39:49Z</time>
      </trkpt>
      <trkpt lat="42.77096" lon="0.1594">
        <ele>2278.6</ele>
        <time>2021-01-29T13:39:50Z</time>
      </trkpt>
      <trkpt lat="42.77096" lon="0.1594">
        <ele>2278.6</ele>
        <time>2021-01-29T13:39:51Z</time>
      </trkpt>
      <trkpt lat="42.77096" lon="0.1594">
        <ele>2278.8</ele>
        <time>2021-01-29T13:39:52Z</time>
      </trkpt>
      <trkpt lat="42.77096" lon="0.1594">
        <ele>2279</ele>
        <time>2021-01-29T13:39:53Z</time>
      </trkpt>
      <trkpt lat="42.77095" lon="0.1594">
        <ele>2279.2</ele>
        <time>2021-01-29T13:39:54Z</time>
      </trkpt>
      <trkpt lat="42.77094" lon="0.15939">
        <ele>2279.4</ele>
        <time>2021-01-29T13:39:55Z</time>
      </trkpt>
      <trkpt lat="42.77093" lon="0.15938">
        <ele>2279.4</ele>
        <time>2021-01-29T13:39:56Z</time>
      </trkpt>
      <trkpt lat="42.77092" lon="0.15938">
        <ele>2279.6</ele>
        <time>2021-01-29T13:39:57Z</time>
      </trkpt>
      <trkpt lat="42.77092" lon="0.15938">
        <ele>2279.8</ele>
        <time>2021-01-29T13:39:58Z</time>
      </trkpt>
      <trkpt lat="42.77091" lon="0.15938">
        <ele>2279.8</ele>
        <time>2021-01-29T13:39:59Z</time>
      </trkpt>
      <trkpt lat="42.77091" lon="0.15937">
        <ele>2280.2</ele>
        <time>2021-01-29T13:40:00Z</time>
      </trkpt>
      <trkpt lat="42.7709" lon="0.15937">
        <ele>2280.4</ele>
        <time>2021-01-29T13:40:01Z</time>
      </trkpt>
      <trkpt lat="42.7709" lon="0.15937">
        <ele>2280.2</ele>
        <time>2021-01-29T13:40:02Z</time>
      </trkpt>
      <trkpt lat="42.77089" lon="0.15936">
        <ele>2280.6</ele>
        <time>2021-01-29T13:40:03Z</time>
      </trkpt>
      <trkpt lat="42.77089" lon="0.15936">
        <ele>2280.6</ele>
        <time>2021-01-29T13:40:04Z</time>
      </trkpt>
      <trkpt lat="42.77088" lon="0.15936">
        <ele>2280.8</ele>
        <time>2021-01-29T13:40:05Z</time>
      </trkpt>
      <trkpt lat="42.77087" lon="0.15936">
        <ele>2281</ele>
        <time>2021-01-29T13:40:06Z</time>
      </trkpt>
      <trkpt lat="42.77087" lon="0.15936">
        <ele>2281</ele>
        <time>2021-01-29T13:40:07Z</time>
      </trkpt>
      <trkpt lat="42.77086" lon="0.15935">
        <ele>2281.2</ele>
        <time>2021-01-29T13:40:08Z</time>
      </trkpt>
      <trkpt lat="42.77085" lon="0.15935">
        <ele>2281.6</ele>
        <time>2021-01-29T13:40:09Z</time>
      </trkpt>
      <trkpt lat="42.77085" lon="0.15935">
        <ele>2281.4</ele>
        <time>2021-01-29T13:40:10Z</time>
      </trkpt>
      <trkpt lat="42.77084" lon="0.15935">
        <ele>2281.8</ele>
        <time>2021-01-29T13:40:11Z</time>
      </trkpt>
      <trkpt lat="42.77084" lon="0.15935">
        <ele>2281.8</ele>
        <time>2021-01-29T13:40:12Z</time>
      </trkpt>
      <trkpt lat="42.77083" lon="0.15935">
        <ele>2282.2</ele>
        <time>2021-01-29T13:40:13Z</time>
      </trkpt>
      <trkpt lat="42.77083" lon="0.15935">
        <ele>2282.4</ele>
        <time>2021-01-29T13:40:14Z</time>
      </trkpt>
      <trkpt lat="42.77082" lon="0.15935">
        <ele>2282.4</ele>
        <time>2021-01-29T13:40:15Z</time>
      </trkpt>
      <trkpt lat="42.77082" lon="0.15935">
        <ele>2282.6</ele>
        <time>2021-01-29T13:40:16Z</time>
      </trkpt>
      <trkpt lat="42.77082" lon="0.15935">
        <ele>2282.8</ele>
        <time>2021-01-29T13:40:17Z</time>
      </trkpt>
      <trkpt lat="42.77081" lon="0.15935">
        <ele>2283</ele>
        <time>2021-01-29T13:40:18Z</time>
      </trkpt>
      <trkpt lat="42.77079" lon="0.15934">
        <ele>2283.2</ele>
        <time>2021-01-29T13:40:19Z</time>
      </trkpt>
      <trkpt lat="42.77079" lon="0.15934">
        <ele>2283.4</ele>
        <time>2021-01-29T13:40:20Z</time>
      </trkpt>
      <trkpt lat="42.77078" lon="0.15934">
        <ele>2283.4</ele>
        <time>2021-01-29T13:40:21Z</time>
      </trkpt>
      <trkpt lat="42.77078" lon="0.15934">
        <ele>2283.6</ele>
        <time>2021-01-29T13:40:22Z</time>
      </trkpt>
      <trkpt lat="42.77077" lon="0.15934">
        <ele>2283.8</ele>
        <time>2021-01-29T13:40:23Z</time>
      </trkpt>
      <trkpt lat="42.77077" lon="0.15934">
        <ele>2284</ele>
        <time>2021-01-29T13:40:24Z</time>
      </trkpt>
      <trkpt lat="42.77076" lon="0.15934">
        <ele>2284.2</ele>
        <time>2021-01-29T13:40:25Z</time>
      </trkpt>
      <trkpt lat="42.77076" lon="0.15934">
        <ele>2284.2</ele>
        <time>2021-01-29T13:40:26Z</time>
      </trkpt>
      <trkpt lat="42.77075" lon="0.15934">
        <ele>2284.8</ele>
        <time>2021-01-29T13:40:27Z</time>
      </trkpt>
      <trkpt lat="42.77074" lon="0.15934">
        <ele>2284.8</ele>
        <time>2021-01-29T13:40:28Z</time>
      </trkpt>
      <trkpt lat="42.77074" lon="0.15934">
        <ele>2285.2</ele>
        <time>2021-01-29T13:40:29Z</time>
      </trkpt>
      <trkpt lat="42.77073" lon="0.15933">
        <ele>2285.4</ele>
        <time>2021-01-29T13:40:30Z</time>
      </trkpt>
      <trkpt lat="42.77073" lon="0.15933">
        <ele>2285.6</ele>
        <time>2021-01-29T13:40:31Z</time>
      </trkpt>
      <trkpt lat="42.77072" lon="0.15932">
        <ele>2285.8</ele>
        <time>2021-01-29T13:40:32Z</time>
      </trkpt>
      <trkpt lat="42.77071" lon="0.15932">
        <ele>2286</ele>
        <time>2021-01-29T13:40:33Z</time>
      </trkpt>
      <trkpt lat="42.77071" lon="0.15931">
        <ele>2286.2</ele>
        <time>2021-01-29T13:40:34Z</time>
      </trkpt>
      <trkpt lat="42.7707" lon="0.1593">
        <ele>2286.4</ele>
        <time>2021-01-29T13:40:35Z</time>
      </trkpt>
      <trkpt lat="42.7707" lon="0.1593">
        <ele>2286.6</ele>
        <time>2021-01-29T13:40:36Z</time>
      </trkpt>
      <trkpt lat="42.77069" lon="0.15929">
        <ele>2286.8</ele>
        <time>2021-01-29T13:40:37Z</time>
      </trkpt>
      <trkpt lat="42.77069" lon="0.15928">
        <ele>2287</ele>
        <time>2021-01-29T13:40:38Z</time>
      </trkpt>
      <trkpt lat="42.77069" lon="0.15928">
        <ele>2287</ele>
        <time>2021-01-29T13:40:39Z</time>
      </trkpt>
      <trkpt lat="42.77068" lon="0.15928">
        <ele>2287.4</ele>
        <time>2021-01-29T13:40:40Z</time>
      </trkpt>
      <trkpt lat="42.77067" lon="0.15927">
        <ele>2287.6</ele>
        <time>2021-01-29T13:40:41Z</time>
      </trkpt>
      <trkpt lat="42.77067" lon="0.15926">
        <ele>2287.6</ele>
        <time>2021-01-29T13:40:42Z</time>
      </trkpt>
      <trkpt lat="42.77066" lon="0.15926">
        <ele>2287.8</ele>
        <time>2021-01-29T13:40:43Z</time>
      </trkpt>
      <trkpt lat="42.77066" lon="0.15925">
        <ele>2288</ele>
        <time>2021-01-29T13:40:44Z</time>
      </trkpt>
      <trkpt lat="42.77065" lon="0.15925">
        <ele>2288.2</ele>
        <time>2021-01-29T13:40:45Z</time>
      </trkpt>
      <trkpt lat="42.77064" lon="0.15924">
        <ele>2288.4</ele>
        <time>2021-01-29T13:40:46Z</time>
      </trkpt>
      <trkpt lat="42.77064" lon="0.15924">
        <ele>2288.6</ele>
        <time>2021-01-29T13:40:47Z</time>
      </trkpt>
      <trkpt lat="42.77063" lon="0.15923">
        <ele>2288.8</ele>
        <time>2021-01-29T13:40:48Z</time>
      </trkpt>
      <trkpt lat="42.77063" lon="0.15923">
        <ele>2289</ele>
        <time>2021-01-29T13:40:49Z</time>
      </trkpt>
      <trkpt lat="42.77062" lon="0.15922">
        <ele>2289</ele>
        <time>2021-01-29T13:40:50Z</time>
      </trkpt>
      <trkpt lat="42.77062" lon="0.15922">
        <ele>2289.4</ele>
        <time>2021-01-29T13:40:51Z</time>
      </trkpt>
      <trkpt lat="42.77061" lon="0.15921">
        <ele>2289.6</ele>
        <time>2021-01-29T13:40:52Z</time>
      </trkpt>
      <trkpt lat="42.77061" lon="0.15921">
        <ele>2289.8</ele>
        <time>2021-01-29T13:40:53Z</time>
      </trkpt>
      <trkpt lat="42.7706" lon="0.1592">
        <ele>2290</ele>
        <time>2021-01-29T13:40:54Z</time>
      </trkpt>
      <trkpt lat="42.7706" lon="0.15919">
        <ele>2290.2</ele>
        <time>2021-01-29T13:40:55Z</time>
      </trkpt>
      <trkpt lat="42.77059" lon="0.15919">
        <ele>2290.4</ele>
        <time>2021-01-29T13:40:56Z</time>
      </trkpt>
      <trkpt lat="42.77059" lon="0.15918">
        <ele>2290.6</ele>
        <time>2021-01-29T13:40:57Z</time>
      </trkpt>
      <trkpt lat="42.77058" lon="0.15918">
        <ele>2290.8</ele>
        <time>2021-01-29T13:40:58Z</time>
      </trkpt>
      <trkpt lat="42.77058" lon="0.15917">
        <ele>2291</ele>
        <time>2021-01-29T13:40:59Z</time>
      </trkpt>
      <trkpt lat="42.77057" lon="0.15917">
        <ele>2291.2</ele>
        <time>2021-01-29T13:41:00Z</time>
      </trkpt>
      <trkpt lat="42.77057" lon="0.15916">
        <ele>2291.2</ele>
        <time>2021-01-29T13:41:01Z</time>
      </trkpt>
      <trkpt lat="42.77057" lon="0.15916">
        <ele>2291.6</ele>
        <time>2021-01-29T13:41:02Z</time>
      </trkpt>
      <trkpt lat="42.77057" lon="0.15916">
        <ele>2291.6</ele>
        <time>2021-01-29T13:41:03Z</time>
      </trkpt>
      <trkpt lat="42.77056" lon="0.15915">
        <ele>2291.8</ele>
        <time>2021-01-29T13:41:04Z</time>
      </trkpt>
      <trkpt lat="42.77054" lon="0.15914">
        <ele>2292.2</ele>
        <time>2021-01-29T13:41:05Z</time>
      </trkpt>
      <trkpt lat="42.77054" lon="0.15914">
        <ele>2292.2</ele>
        <time>2021-01-29T13:41:06Z</time>
      </trkpt>
      <trkpt lat="42.77053" lon="0.15913">
        <ele>2292.4</ele>
        <time>2021-01-29T13:41:07Z</time>
      </trkpt>
      <trkpt lat="42.77053" lon="0.15913">
        <ele>2292.6</ele>
        <time>2021-01-29T13:41:08Z</time>
      </trkpt>
      <trkpt lat="42.77052" lon="0.15912">
        <ele>2292.8</ele>
        <time>2021-01-29T13:41:09Z</time>
      </trkpt>
      <trkpt lat="42.77051" lon="0.15912">
        <ele>2293.2</ele>
        <time>2021-01-29T13:41:10Z</time>
      </trkpt>
      <trkpt lat="42.77051" lon="0.15912">
        <ele>2293.4</ele>
        <time>2021-01-29T13:41:11Z</time>
      </trkpt>
      <trkpt lat="42.7705" lon="0.15911">
        <ele>2293.4</ele>
        <time>2021-01-29T13:41:12Z</time>
      </trkpt>
      <trkpt lat="42.7705" lon="0.15911">
        <ele>2293.8</ele>
        <time>2021-01-29T13:41:13Z</time>
      </trkpt>
      <trkpt lat="42.77049" lon="0.15911">
        <ele>2293.8</ele>
        <time>2021-01-29T13:41:14Z</time>
      </trkpt>
      <trkpt lat="42.77048" lon="0.1591">
        <ele>2294</ele>
        <time>2021-01-29T13:41:15Z</time>
      </trkpt>
      <trkpt lat="42.77048" lon="0.1591">
        <ele>2294.2</ele>
        <time>2021-01-29T13:41:16Z</time>
      </trkpt>
      <trkpt lat="42.77047" lon="0.1591">
        <ele>2294.4</ele>
        <time>2021-01-29T13:41:17Z</time>
      </trkpt>
      <trkpt lat="42.77046" lon="0.15909">
        <ele>2294.8</ele>
        <time>2021-01-29T13:41:18Z</time>
      </trkpt>
      <trkpt lat="42.77046" lon="0.15909">
        <ele>2294.8</ele>
        <time>2021-01-29T13:41:19Z</time>
      </trkpt>
      <trkpt lat="42.77045" lon="0.15908">
        <ele>2295</ele>
        <time>2021-01-29T13:41:20Z</time>
      </trkpt>
      <trkpt lat="42.77045" lon="0.15908">
        <ele>2295.4</ele>
        <time>2021-01-29T13:41:21Z</time>
      </trkpt>
      <trkpt lat="42.77044" lon="0.15908">
        <ele>2295.4</ele>
        <time>2021-01-29T13:41:22Z</time>
      </trkpt>
      <trkpt lat="42.77043" lon="0.15907">
        <ele>2295.6</ele>
        <time>2021-01-29T13:41:23Z</time>
      </trkpt>
      <trkpt lat="42.77043" lon="0.15907">
        <ele>2295.8</ele>
        <time>2021-01-29T13:41:24Z</time>
      </trkpt>
      <trkpt lat="42.77042" lon="0.15907">
        <ele>2295.8</ele>
        <time>2021-01-29T13:41:25Z</time>
      </trkpt>
      <trkpt lat="42.77042" lon="0.15907">
        <ele>2296.2</ele>
        <time>2021-01-29T13:41:26Z</time>
      </trkpt>
      <trkpt lat="42.77041" lon="0.15906">
        <ele>2296.2</ele>
        <time>2021-01-29T13:41:27Z</time>
      </trkpt>
      <trkpt lat="42.7704" lon="0.15906">
        <ele>2296.6</ele>
        <time>2021-01-29T13:41:28Z</time>
      </trkpt>
      <trkpt lat="42.7704" lon="0.15905">
        <ele>2296.8</ele>
        <time>2021-01-29T13:41:29Z</time>
      </trkpt>
      <trkpt lat="42.77039" lon="0.15905">
        <ele>2296.8</ele>
        <time>2021-01-29T13:41:30Z</time>
      </trkpt>
      <trkpt lat="42.77038" lon="0.15904">
        <ele>2297</ele>
        <time>2021-01-29T13:41:31Z</time>
      </trkpt>
      <trkpt lat="42.77038" lon="0.15904">
        <ele>2297.2</ele>
        <time>2021-01-29T13:41:32Z</time>
      </trkpt>
      <trkpt lat="42.77037" lon="0.15903">
        <ele>2297.2</ele>
        <time>2021-01-29T13:41:33Z</time>
      </trkpt>
      <trkpt lat="42.77037" lon="0.15903">
        <ele>2297.6</ele>
        <time>2021-01-29T13:41:34Z</time>
      </trkpt>
      <trkpt lat="42.77036" lon="0.15902">
        <ele>2297.8</ele>
        <time>2021-01-29T13:41:35Z</time>
      </trkpt>
      <trkpt lat="42.77036" lon="0.15902">
        <ele>2297.8</ele>
        <time>2021-01-29T13:41:36Z</time>
      </trkpt>
      <trkpt lat="42.77035" lon="0.15901">
        <ele>2298.2</ele>
        <time>2021-01-29T13:41:37Z</time>
      </trkpt>
      <trkpt lat="42.77034" lon="0.15901">
        <ele>2298.2</ele>
        <time>2021-01-29T13:41:38Z</time>
      </trkpt>
      <trkpt lat="42.77034" lon="0.159">
        <ele>2298.4</ele>
        <time>2021-01-29T13:41:39Z</time>
      </trkpt>
      <trkpt lat="42.77033" lon="0.15899">
        <ele>2298.6</ele>
        <time>2021-01-29T13:41:40Z</time>
      </trkpt>
      <trkpt lat="42.77033" lon="0.15899">
        <ele>2298.8</ele>
        <time>2021-01-29T13:41:41Z</time>
      </trkpt>
      <trkpt lat="42.77032" lon="0.15899">
        <ele>2299</ele>
        <time>2021-01-29T13:41:42Z</time>
      </trkpt>
      <trkpt lat="42.77031" lon="0.15898">
        <ele>2299.2</ele>
        <time>2021-01-29T13:41:43Z</time>
      </trkpt>
      <trkpt lat="42.77031" lon="0.15898">
        <ele>2299.2</ele>
        <time>2021-01-29T13:41:44Z</time>
      </trkpt>
      <trkpt lat="42.7703" lon="0.15898">
        <ele>2299.6</ele>
        <time>2021-01-29T13:41:45Z</time>
      </trkpt>
      <trkpt lat="42.77029" lon="0.15897">
        <ele>2299.8</ele>
        <time>2021-01-29T13:41:46Z</time>
      </trkpt>
      <trkpt lat="42.77029" lon="0.15897">
        <ele>2300</ele>
        <time>2021-01-29T13:41:47Z</time>
      </trkpt>
      <trkpt lat="42.77028" lon="0.15896">
        <ele>2300.4</ele>
        <time>2021-01-29T13:41:48Z</time>
      </trkpt>
      <trkpt lat="42.77027" lon="0.15896">
        <ele>2300.4</ele>
        <time>2021-01-29T13:41:49Z</time>
      </trkpt>
      <trkpt lat="42.77027" lon="0.15895">
        <ele>2300.8</ele>
        <time>2021-01-29T13:41:50Z</time>
      </trkpt>
      <trkpt lat="42.77026" lon="0.15895">
        <ele>2301</ele>
        <time>2021-01-29T13:41:51Z</time>
      </trkpt>
      <trkpt lat="42.77026" lon="0.15894">
        <ele>2301.2</ele>
        <time>2021-01-29T13:41:52Z</time>
      </trkpt>
      <trkpt lat="42.77025" lon="0.15894">
        <ele>2301.4</ele>
        <time>2021-01-29T13:41:53Z</time>
      </trkpt>
      <trkpt lat="42.77025" lon="0.15893">
        <ele>2301.4</ele>
        <time>2021-01-29T13:41:54Z</time>
      </trkpt>
      <trkpt lat="42.77024" lon="0.15893">
        <ele>2301.6</ele>
        <time>2021-01-29T13:41:55Z</time>
      </trkpt>
      <trkpt lat="42.77024" lon="0.15893">
        <ele>2302</ele>
        <time>2021-01-29T13:41:56Z</time>
      </trkpt>
      <trkpt lat="42.77023" lon="0.15892">
        <ele>2302.2</ele>
        <time>2021-01-29T13:41:57Z</time>
      </trkpt>
      <trkpt lat="42.77023" lon="0.15892">
        <ele>2302.4</ele>
        <time>2021-01-29T13:41:58Z</time>
      </trkpt>
      <trkpt lat="42.77022" lon="0.15892">
        <ele>2302.8</ele>
        <time>2021-01-29T13:41:59Z</time>
      </trkpt>
      <trkpt lat="42.77021" lon="0.15891">
        <ele>2302.6</ele>
        <time>2021-01-29T13:42:00Z</time>
      </trkpt>
      <trkpt lat="42.77021" lon="0.15891">
        <ele>2303</ele>
        <time>2021-01-29T13:42:01Z</time>
      </trkpt>
      <trkpt lat="42.7702" lon="0.15891">
        <ele>2303.2</ele>
        <time>2021-01-29T13:42:02Z</time>
      </trkpt>
      <trkpt lat="42.7702" lon="0.1589">
        <ele>2303.4</ele>
        <time>2021-01-29T13:42:03Z</time>
      </trkpt>
      <trkpt lat="42.77019" lon="0.1589">
        <ele>2303.8</ele>
        <time>2021-01-29T13:42:04Z</time>
      </trkpt>
      <trkpt lat="42.77018" lon="0.15889">
        <ele>2303.8</ele>
        <time>2021-01-29T13:42:05Z</time>
      </trkpt>
      <trkpt lat="42.77018" lon="0.15889">
        <ele>2304</ele>
        <time>2021-01-29T13:42:06Z</time>
      </trkpt>
      <trkpt lat="42.77017" lon="0.15888">
        <ele>2304.4</ele>
        <time>2021-01-29T13:42:07Z</time>
      </trkpt>
      <trkpt lat="42.77017" lon="0.15888">
        <ele>2304.6</ele>
        <time>2021-01-29T13:42:08Z</time>
      </trkpt>
      <trkpt lat="42.77016" lon="0.15888">
        <ele>2304.8</ele>
        <time>2021-01-29T13:42:09Z</time>
      </trkpt>
      <trkpt lat="42.77015" lon="0.15887">
        <ele>2305</ele>
        <time>2021-01-29T13:42:10Z</time>
      </trkpt>
      <trkpt lat="42.77015" lon="0.15887">
        <ele>2305</ele>
        <time>2021-01-29T13:42:11Z</time>
      </trkpt>
      <trkpt lat="42.77014" lon="0.15886">
        <ele>2305.6</ele>
        <time>2021-01-29T13:42:12Z</time>
      </trkpt>
      <trkpt lat="42.77014" lon="0.15886">
        <ele>2305.6</ele>
        <time>2021-01-29T13:42:13Z</time>
      </trkpt>
      <trkpt lat="42.77013" lon="0.15886">
        <ele>2305.8</ele>
        <time>2021-01-29T13:42:14Z</time>
      </trkpt>
      <trkpt lat="42.77012" lon="0.15886">
        <ele>2306</ele>
        <time>2021-01-29T13:42:15Z</time>
      </trkpt>
      <trkpt lat="42.77012" lon="0.15885">
        <ele>2306</ele>
        <time>2021-01-29T13:42:16Z</time>
      </trkpt>
      <trkpt lat="42.77011" lon="0.15885">
        <ele>2306.4</ele>
        <time>2021-01-29T13:42:17Z</time>
      </trkpt>
      <trkpt lat="42.77011" lon="0.15885">
        <ele>2306.6</ele>
        <time>2021-01-29T13:42:18Z</time>
      </trkpt>
      <trkpt lat="42.7701" lon="0.15884">
        <ele>2306.8</ele>
        <time>2021-01-29T13:42:19Z</time>
      </trkpt>
      <trkpt lat="42.77009" lon="0.15884">
        <ele>2307</ele>
        <time>2021-01-29T13:42:20Z</time>
      </trkpt>
      <trkpt lat="42.77009" lon="0.15883">
        <ele>2307.2</ele>
        <time>2021-01-29T13:42:21Z</time>
      </trkpt>
      <trkpt lat="42.77009" lon="0.15883">
        <ele>2307.4</ele>
        <time>2021-01-29T13:42:22Z</time>
      </trkpt>
      <trkpt lat="42.77008" lon="0.15883">
        <ele>2307.8</ele>
        <time>2021-01-29T13:42:23Z</time>
      </trkpt>
      <trkpt lat="42.77007" lon="0.15882">
        <ele>2307.8</ele>
        <time>2021-01-29T13:42:24Z</time>
      </trkpt>
      <trkpt lat="42.77007" lon="0.15882">
        <ele>2308</ele>
        <time>2021-01-29T13:42:25Z</time>
      </trkpt>
      <trkpt lat="42.77006" lon="0.15881">
        <ele>2308.2</ele>
        <time>2021-01-29T13:42:26Z</time>
      </trkpt>
      <trkpt lat="42.77005" lon="0.15881">
        <ele>2308.2</ele>
        <time>2021-01-29T13:42:27Z</time>
      </trkpt>
      <trkpt lat="42.77005" lon="0.1588">
        <ele>2308.4</ele>
        <time>2021-01-29T13:42:28Z</time>
      </trkpt>
      <trkpt lat="42.77004" lon="0.1588">
        <ele>2308.4</ele>
        <time>2021-01-29T13:42:29Z</time>
      </trkpt>
      <trkpt lat="42.77004" lon="0.1588">
        <ele>2308.6</ele>
        <time>2021-01-29T13:42:30Z</time>
      </trkpt>
      <trkpt lat="42.77003" lon="0.15879">
        <ele>2308.8</ele>
        <time>2021-01-29T13:42:31Z</time>
      </trkpt>
      <trkpt lat="42.77002" lon="0.15879">
        <ele>2309</ele>
        <time>2021-01-29T13:42:32Z</time>
      </trkpt>
      <trkpt lat="42.77002" lon="0.15878">
        <ele>2309</ele>
        <time>2021-01-29T13:42:33Z</time>
      </trkpt>
      <trkpt lat="42.77001" lon="0.15878">
        <ele>2309.4</ele>
        <time>2021-01-29T13:42:34Z</time>
      </trkpt>
      <trkpt lat="42.77" lon="0.15877">
        <ele>2309.6</ele>
        <time>2021-01-29T13:42:35Z</time>
      </trkpt>
      <trkpt lat="42.77" lon="0.15877">
        <ele>2309.6</ele>
        <time>2021-01-29T13:42:36Z</time>
      </trkpt>
      <trkpt lat="42.76999" lon="0.15877">
        <ele>2310</ele>
        <time>2021-01-29T13:42:37Z</time>
      </trkpt>
      <trkpt lat="42.76998" lon="0.15876">
        <ele>2310</ele>
        <time>2021-01-29T13:42:38Z</time>
      </trkpt>
      <trkpt lat="42.76998" lon="0.15876">
        <ele>2310.4</ele>
        <time>2021-01-29T13:42:39Z</time>
      </trkpt>
      <trkpt lat="42.76997" lon="0.15875">
        <ele>2310.8</ele>
        <time>2021-01-29T13:42:40Z</time>
      </trkpt>
      <trkpt lat="42.76997" lon="0.15875">
        <ele>2310.8</ele>
        <time>2021-01-29T13:42:41Z</time>
      </trkpt>
      <trkpt lat="42.76996" lon="0.15874">
        <ele>2311</ele>
        <time>2021-01-29T13:42:42Z</time>
      </trkpt>
      <trkpt lat="42.76995" lon="0.15873">
        <ele>2311.2</ele>
        <time>2021-01-29T13:42:43Z</time>
      </trkpt>
      <trkpt lat="42.76994" lon="0.15873">
        <ele>2311.4</ele>
        <time>2021-01-29T13:42:44Z</time>
      </trkpt>
      <trkpt lat="42.76994" lon="0.15873">
        <ele>2311.6</ele>
        <time>2021-01-29T13:42:45Z</time>
      </trkpt>
      <trkpt lat="42.76993" lon="0.15872">
        <ele>2312</ele>
        <time>2021-01-29T13:42:46Z</time>
      </trkpt>
      <trkpt lat="42.76993" lon="0.15872">
        <ele>2312</ele>
        <time>2021-01-29T13:42:47Z</time>
      </trkpt>
      <trkpt lat="42.76992" lon="0.15871">
        <ele>2312.2</ele>
        <time>2021-01-29T13:42:48Z</time>
      </trkpt>
      <trkpt lat="42.76991" lon="0.15871">
        <ele>2312.4</ele>
        <time>2021-01-29T13:42:49Z</time>
      </trkpt>
      <trkpt lat="42.76991" lon="0.15871">
        <ele>2312.4</ele>
        <time>2021-01-29T13:42:50Z</time>
      </trkpt>
      <trkpt lat="42.7699" lon="0.1587">
        <ele>2312.8</ele>
        <time>2021-01-29T13:42:51Z</time>
      </trkpt>
      <trkpt lat="42.76989" lon="0.1587">
        <ele>2313</ele>
        <time>2021-01-29T13:42:52Z</time>
      </trkpt>
      <trkpt lat="42.76989" lon="0.15869">
        <ele>2313</ele>
        <time>2021-01-29T13:42:53Z</time>
      </trkpt>
      <trkpt lat="42.76988" lon="0.15869">
        <ele>2313.2</ele>
        <time>2021-01-29T13:42:54Z</time>
      </trkpt>
      <trkpt lat="42.76987" lon="0.15868">
        <ele>2313.4</ele>
        <time>2021-01-29T13:42:55Z</time>
      </trkpt>
      <trkpt lat="42.76986" lon="0.15868">
        <ele>2313.6</ele>
        <time>2021-01-29T13:42:56Z</time>
      </trkpt>
      <trkpt lat="42.76986" lon="0.15867">
        <ele>2314</ele>
        <time>2021-01-29T13:42:57Z</time>
      </trkpt>
      <trkpt lat="42.76985" lon="0.15867">
        <ele>2314</ele>
        <time>2021-01-29T13:42:58Z</time>
      </trkpt>
      <trkpt lat="42.76984" lon="0.15867">
        <ele>2314</ele>
        <time>2021-01-29T13:42:59Z</time>
      </trkpt>
      <trkpt lat="42.76983" lon="0.15868">
        <ele>2314.4</ele>
        <time>2021-01-29T13:43:00Z</time>
      </trkpt>
      <trkpt lat="42.76983" lon="0.15868">
        <ele>2314.4</ele>
        <time>2021-01-29T13:43:01Z</time>
      </trkpt>
      <trkpt lat="42.76982" lon="0.15868">
        <ele>2314.6</ele>
        <time>2021-01-29T13:43:02Z</time>
      </trkpt>
      <trkpt lat="42.76981" lon="0.15869">
        <ele>2315</ele>
        <time>2021-01-29T13:43:03Z</time>
      </trkpt>
      <trkpt lat="42.76981" lon="0.15869">
        <ele>2315</ele>
        <time>2021-01-29T13:43:04Z</time>
      </trkpt>
      <trkpt lat="42.7698" lon="0.15869">
        <ele>2315.2</ele>
        <time>2021-01-29T13:43:05Z</time>
      </trkpt>
      <trkpt lat="42.7698" lon="0.1587">
        <ele>2315.4</ele>
        <time>2021-01-29T13:43:06Z</time>
      </trkpt>
      <trkpt lat="42.76979" lon="0.1587">
        <ele>2315.6</ele>
        <time>2021-01-29T13:43:07Z</time>
      </trkpt>
      <trkpt lat="42.76978" lon="0.1587">
        <ele>2316</ele>
        <time>2021-01-29T13:43:08Z</time>
      </trkpt>
      <trkpt lat="42.76978" lon="0.15871">
        <ele>2316.2</ele>
        <time>2021-01-29T13:43:09Z</time>
      </trkpt>
      <trkpt lat="42.76977" lon="0.15871">
        <ele>2316.2</ele>
        <time>2021-01-29T13:43:10Z</time>
      </trkpt>
      <trkpt lat="42.76976" lon="0.15871">
        <ele>2316.6</ele>
        <time>2021-01-29T13:43:11Z</time>
      </trkpt>
      <trkpt lat="42.76976" lon="0.15871">
        <ele>2316.6</ele>
        <time>2021-01-29T13:43:12Z</time>
      </trkpt>
      <trkpt lat="42.76975" lon="0.15872">
        <ele>2317</ele>
        <time>2021-01-29T13:43:13Z</time>
      </trkpt>
      <trkpt lat="42.76975" lon="0.15872">
        <ele>2317.2</ele>
        <time>2021-01-29T13:43:14Z</time>
      </trkpt>
      <trkpt lat="42.76975" lon="0.15873">
        <ele>2317.2</ele>
        <time>2021-01-29T13:43:15Z</time>
      </trkpt>
      <trkpt lat="42.76975" lon="0.15873">
        <ele>2317.6</ele>
        <time>2021-01-29T13:43:16Z</time>
      </trkpt>
      <trkpt lat="42.76975" lon="0.15873">
        <ele>2317.6</ele>
        <time>2021-01-29T13:43:17Z</time>
      </trkpt>
      <trkpt lat="42.76974" lon="0.15874">
        <ele>2318</ele>
        <time>2021-01-29T13:43:18Z</time>
      </trkpt>
      <trkpt lat="42.76972" lon="0.15875">
        <ele>2318.2</ele>
        <time>2021-01-29T13:43:19Z</time>
      </trkpt>
      <trkpt lat="42.76972" lon="0.15876">
        <ele>2318.2</ele>
        <time>2021-01-29T13:43:20Z</time>
      </trkpt>
      <trkpt lat="42.76972" lon="0.15876">
        <ele>2318.4</ele>
        <time>2021-01-29T13:43:21Z</time>
      </trkpt>
      <trkpt lat="42.76971" lon="0.15877">
        <ele>2318.8</ele>
        <time>2021-01-29T13:43:22Z</time>
      </trkpt>
      <trkpt lat="42.76971" lon="0.15877">
        <ele>2318.8</ele>
        <time>2021-01-29T13:43:23Z</time>
      </trkpt>
      <trkpt lat="42.7697" lon="0.15878">
        <ele>2319.2</ele>
        <time>2021-01-29T13:43:24Z</time>
      </trkpt>
      <trkpt lat="42.7697" lon="0.15879">
        <ele>2319.2</ele>
        <time>2021-01-29T13:43:25Z</time>
      </trkpt>
      <trkpt lat="42.7697" lon="0.1588">
        <ele>2319.2</ele>
        <time>2021-01-29T13:43:26Z</time>
      </trkpt>
      <trkpt lat="42.76969" lon="0.1588">
        <ele>2319.6</ele>
        <time>2021-01-29T13:43:27Z</time>
      </trkpt>
      <trkpt lat="42.76969" lon="0.15881">
        <ele>2319.8</ele>
        <time>2021-01-29T13:43:28Z</time>
      </trkpt>
      <trkpt lat="42.76969" lon="0.15882">
        <ele>2320</ele>
        <time>2021-01-29T13:43:29Z</time>
      </trkpt>
      <trkpt lat="42.76969" lon="0.15883">
        <ele>2320.2</ele>
        <time>2021-01-29T13:43:30Z</time>
      </trkpt>
      <trkpt lat="42.76969" lon="0.15883">
        <ele>2320.4</ele>
        <time>2021-01-29T13:43:31Z</time>
      </trkpt>
      <trkpt lat="42.76968" lon="0.15884">
        <ele>2320.6</ele>
        <time>2021-01-29T13:43:32Z</time>
      </trkpt>
      <trkpt lat="42.76968" lon="0.15884">
        <ele>2320.6</ele>
        <time>2021-01-29T13:43:33Z</time>
      </trkpt>
      <trkpt lat="42.76967" lon="0.15884">
        <ele>2320.6</ele>
        <time>2021-01-29T13:43:34Z</time>
      </trkpt>
      <trkpt lat="42.76967" lon="0.15883">
        <ele>2321</ele>
        <time>2021-01-29T13:43:35Z</time>
      </trkpt>
      <trkpt lat="42.76966" lon="0.15882">
        <ele>2321</ele>
        <time>2021-01-29T13:43:36Z</time>
      </trkpt>
      <trkpt lat="42.76966" lon="0.15882">
        <ele>2321.2</ele>
        <time>2021-01-29T13:43:37Z</time>
      </trkpt>
      <trkpt lat="42.76965" lon="0.15881">
        <ele>2321.4</ele>
        <time>2021-01-29T13:43:38Z</time>
      </trkpt>
      <trkpt lat="42.76965" lon="0.1588">
        <ele>2321.4</ele>
        <time>2021-01-29T13:43:39Z</time>
      </trkpt>
      <trkpt lat="42.76964" lon="0.1588">
        <ele>2321.6</ele>
        <time>2021-01-29T13:43:40Z</time>
      </trkpt>
      <trkpt lat="42.76964" lon="0.15879">
        <ele>2321.8</ele>
        <time>2021-01-29T13:43:41Z</time>
      </trkpt>
      <trkpt lat="42.76963" lon="0.15878">
        <ele>2322</ele>
        <time>2021-01-29T13:43:42Z</time>
      </trkpt>
      <trkpt lat="42.76963" lon="0.15878">
        <ele>2322</ele>
        <time>2021-01-29T13:43:43Z</time>
      </trkpt>
      <trkpt lat="42.76962" lon="0.15877">
        <ele>2322.2</ele>
        <time>2021-01-29T13:43:44Z</time>
      </trkpt>
      <trkpt lat="42.76961" lon="0.15876">
        <ele>2322.4</ele>
        <time>2021-01-29T13:43:45Z</time>
      </trkpt>
      <trkpt lat="42.76961" lon="0.15876">
        <ele>2322.4</ele>
        <time>2021-01-29T13:43:46Z</time>
      </trkpt>
      <trkpt lat="42.7696" lon="0.15875">
        <ele>2322.6</ele>
        <time>2021-01-29T13:43:47Z</time>
      </trkpt>
      <trkpt lat="42.7696" lon="0.15875">
        <ele>2322.6</ele>
        <time>2021-01-29T13:43:48Z</time>
      </trkpt>
      <trkpt lat="42.76959" lon="0.15874">
        <ele>2322.8</ele>
        <time>2021-01-29T13:43:49Z</time>
      </trkpt>
      <trkpt lat="42.76959" lon="0.15873">
        <ele>2322.8</ele>
        <time>2021-01-29T13:43:50Z</time>
      </trkpt>
      <trkpt lat="42.76958" lon="0.15873">
        <ele>2323</ele>
        <time>2021-01-29T13:43:51Z</time>
      </trkpt>
      <trkpt lat="42.76958" lon="0.15872">
        <ele>2323.2</ele>
        <time>2021-01-29T13:43:52Z</time>
      </trkpt>
      <trkpt lat="42.76957" lon="0.15871">
        <ele>2323.2</ele>
        <time>2021-01-29T13:43:53Z</time>
      </trkpt>
      <trkpt lat="42.76956" lon="0.15871">
        <ele>2323.2</ele>
        <time>2021-01-29T13:43:54Z</time>
      </trkpt>
      <trkpt lat="42.76956" lon="0.1587">
        <ele>2323.4</ele>
        <time>2021-01-29T13:43:55Z</time>
      </trkpt>
      <trkpt lat="42.76956" lon="0.15869">
        <ele>2323.6</ele>
        <time>2021-01-29T13:43:56Z</time>
      </trkpt>
      <trkpt lat="42.76955" lon="0.15869">
        <ele>2323.6</ele>
        <time>2021-01-29T13:43:57Z</time>
      </trkpt>
      <trkpt lat="42.76955" lon="0.15868">
        <ele>2323.8</ele>
        <time>2021-01-29T13:43:58Z</time>
      </trkpt>
      <trkpt lat="42.76954" lon="0.15868">
        <ele>2324</ele>
        <time>2021-01-29T13:43:59Z</time>
      </trkpt>
      <trkpt lat="42.76953" lon="0.15867">
        <ele>2324.2</ele>
        <time>2021-01-29T13:44:00Z</time>
      </trkpt>
      <trkpt lat="42.76953" lon="0.15866">
        <ele>2324.4</ele>
        <time>2021-01-29T13:44:01Z</time>
      </trkpt>
      <trkpt lat="42.76952" lon="0.15866">
        <ele>2324.4</ele>
        <time>2021-01-29T13:44:02Z</time>
      </trkpt>
      <trkpt lat="42.76952" lon="0.15865">
        <ele>2324.6</ele>
        <time>2021-01-29T13:44:03Z</time>
      </trkpt>
      <trkpt lat="42.76951" lon="0.15864">
        <ele>2324.8</ele>
        <time>2021-01-29T13:44:04Z</time>
      </trkpt>
      <trkpt lat="42.76951" lon="0.15864">
        <ele>2325</ele>
        <time>2021-01-29T13:44:05Z</time>
      </trkpt>
      <trkpt lat="42.7695" lon="0.15863">
        <ele>2325.2</ele>
        <time>2021-01-29T13:44:06Z</time>
      </trkpt>
      <trkpt lat="42.7695" lon="0.15863">
        <ele>2325.2</ele>
        <time>2021-01-29T13:44:07Z</time>
      </trkpt>
      <trkpt lat="42.76949" lon="0.15862">
        <ele>2325.4</ele>
        <time>2021-01-29T13:44:08Z</time>
      </trkpt>
      <trkpt lat="42.76949" lon="0.15861">
        <ele>2325.6</ele>
        <time>2021-01-29T13:44:09Z</time>
      </trkpt>
      <trkpt lat="42.76948" lon="0.15861">
        <ele>2325.6</ele>
        <time>2021-01-29T13:44:10Z</time>
      </trkpt>
      <trkpt lat="42.76948" lon="0.1586">
        <ele>2325.6</ele>
        <time>2021-01-29T13:44:11Z</time>
      </trkpt>
      <trkpt lat="42.76947" lon="0.15859">
        <ele>2326</ele>
        <time>2021-01-29T13:44:12Z</time>
      </trkpt>
      <trkpt lat="42.76947" lon="0.15859">
        <ele>2326</ele>
        <time>2021-01-29T13:44:13Z</time>
      </trkpt>
      <trkpt lat="42.76946" lon="0.15858">
        <ele>2326.2</ele>
        <time>2021-01-29T13:44:14Z</time>
      </trkpt>
      <trkpt lat="42.76946" lon="0.15858">
        <ele>2326.4</ele>
        <time>2021-01-29T13:44:15Z</time>
      </trkpt>
      <trkpt lat="42.76945" lon="0.15857">
        <ele>2326.6</ele>
        <time>2021-01-29T13:44:16Z</time>
      </trkpt>
      <trkpt lat="42.76945" lon="0.15857">
        <ele>2326.8</ele>
        <time>2021-01-29T13:44:17Z</time>
      </trkpt>
      <trkpt lat="42.76944" lon="0.15856">
        <ele>2327</ele>
        <time>2021-01-29T13:44:18Z</time>
      </trkpt>
      <trkpt lat="42.76944" lon="0.15856">
        <ele>2327</ele>
        <time>2021-01-29T13:44:19Z</time>
      </trkpt>
      <trkpt lat="42.76943" lon="0.15856">
        <ele>2327.2</ele>
        <time>2021-01-29T13:44:20Z</time>
      </trkpt>
      <trkpt lat="42.76943" lon="0.15855">
        <ele>2327.4</ele>
        <time>2021-01-29T13:44:21Z</time>
      </trkpt>
      <trkpt lat="42.76942" lon="0.15855">
        <ele>2327.6</ele>
        <time>2021-01-29T13:44:22Z</time>
      </trkpt>
      <trkpt lat="42.76941" lon="0.15854">
        <ele>2327.8</ele>
        <time>2021-01-29T13:44:23Z</time>
      </trkpt>
      <trkpt lat="42.76941" lon="0.15854">
        <ele>2328</ele>
        <time>2021-01-29T13:44:24Z</time>
      </trkpt>
      <trkpt lat="42.76941" lon="0.15854">
        <ele>2328.2</ele>
        <time>2021-01-29T13:44:25Z</time>
      </trkpt>
      <trkpt lat="42.76941" lon="0.15854">
        <ele>2328.6</ele>
        <time>2021-01-29T13:44:26Z</time>
      </trkpt>
      <trkpt lat="42.76941" lon="0.15854">
        <ele>2328.8</ele>
        <time>2021-01-29T13:44:27Z</time>
      </trkpt>
      <trkpt lat="42.7694" lon="0.15853">
        <ele>2329</ele>
        <time>2021-01-29T13:44:28Z</time>
      </trkpt>
      <trkpt lat="42.76938" lon="0.15852">
        <ele>2329.2</ele>
        <time>2021-01-29T13:44:29Z</time>
      </trkpt>
      <trkpt lat="42.76937" lon="0.15852">
        <ele>2329.4</ele>
        <time>2021-01-29T13:44:30Z</time>
      </trkpt>
      <trkpt lat="42.76937" lon="0.15852">
        <ele>2329.6</ele>
        <time>2021-01-29T13:44:31Z</time>
      </trkpt>
      <trkpt lat="42.76936" lon="0.15851">
        <ele>2329.6</ele>
        <time>2021-01-29T13:44:32Z</time>
      </trkpt>
      <trkpt lat="42.76936" lon="0.15851">
        <ele>2329.8</ele>
        <time>2021-01-29T13:44:33Z</time>
      </trkpt>
      <trkpt lat="42.76935" lon="0.15851">
        <ele>2330.2</ele>
        <time>2021-01-29T13:44:34Z</time>
      </trkpt>
      <trkpt lat="42.76935" lon="0.1585">
        <ele>2330.2</ele>
        <time>2021-01-29T13:44:35Z</time>
      </trkpt>
      <trkpt lat="42.76934" lon="0.1585">
        <ele>2330.6</ele>
        <time>2021-01-29T13:44:36Z</time>
      </trkpt>
      <trkpt lat="42.76934" lon="0.1585">
        <ele>2330.6</ele>
        <time>2021-01-29T13:44:37Z</time>
      </trkpt>
      <trkpt lat="42.76933" lon="0.1585">
        <ele>2331</ele>
        <time>2021-01-29T13:44:38Z</time>
      </trkpt>
      <trkpt lat="42.76933" lon="0.15849">
        <ele>2331.2</ele>
        <time>2021-01-29T13:44:39Z</time>
      </trkpt>
      <trkpt lat="42.76932" lon="0.15849">
        <ele>2331.4</ele>
        <time>2021-01-29T13:44:40Z</time>
      </trkpt>
      <trkpt lat="42.76932" lon="0.15849">
        <ele>2331.6</ele>
        <time>2021-01-29T13:44:41Z</time>
      </trkpt>
      <trkpt lat="42.76931" lon="0.15849">
        <ele>2331.8</ele>
        <time>2021-01-29T13:44:42Z</time>
      </trkpt>
      <trkpt lat="42.76931" lon="0.15848">
        <ele>2332</ele>
        <time>2021-01-29T13:44:43Z</time>
      </trkpt>
      <trkpt lat="42.7693" lon="0.15848">
        <ele>2332.2</ele>
        <time>2021-01-29T13:44:44Z</time>
      </trkpt>
      <trkpt lat="42.7693" lon="0.15848">
        <ele>2332.2</ele>
        <time>2021-01-29T13:44:45Z</time>
      </trkpt>
      <trkpt lat="42.76929" lon="0.15848">
        <ele>2332.6</ele>
        <time>2021-01-29T13:44:46Z</time>
      </trkpt>
      <trkpt lat="42.76928" lon="0.15848">
        <ele>2332.6</ele>
        <time>2021-01-29T13:44:47Z</time>
      </trkpt>
      <trkpt lat="42.76928" lon="0.15848">
        <ele>2332.8</ele>
        <time>2021-01-29T13:44:48Z</time>
      </trkpt>
      <trkpt lat="42.76927" lon="0.15847">
        <ele>2332.6</ele>
        <time>2021-01-29T13:44:49Z</time>
      </trkpt>
      <trkpt lat="42.76926" lon="0.15847">
        <ele>2333</ele>
        <time>2021-01-29T13:44:50Z</time>
      </trkpt>
      <trkpt lat="42.76926" lon="0.15847">
        <ele>2333</ele>
        <time>2021-01-29T13:44:51Z</time>
      </trkpt>
      <trkpt lat="42.76926" lon="0.15847">
        <ele>2333.2</ele>
        <time>2021-01-29T13:44:52Z</time>
      </trkpt>
      <trkpt lat="42.76925" lon="0.15847">
        <ele>2333.4</ele>
        <time>2021-01-29T13:44:53Z</time>
      </trkpt>
      <trkpt lat="42.76925" lon="0.15848">
        <ele>2333.6</ele>
        <time>2021-01-29T13:44:54Z</time>
      </trkpt>
      <trkpt lat="42.76925" lon="0.15848">
        <ele>2333.8</ele>
        <time>2021-01-29T13:44:55Z</time>
      </trkpt>
      <trkpt lat="42.76925" lon="0.15848">
        <ele>2334</ele>
        <time>2021-01-29T13:44:56Z</time>
      </trkpt>
      <trkpt lat="42.76925" lon="0.15848">
        <ele>2334</ele>
        <time>2021-01-29T13:44:57Z</time>
      </trkpt>
      <trkpt lat="42.76925" lon="0.15848">
        <ele>2334</ele>
        <time>2021-01-29T13:44:58Z</time>
      </trkpt>
      <trkpt lat="42.76925" lon="0.15848">
        <ele>2334.2</ele>
        <time>2021-01-29T13:44:59Z</time>
      </trkpt>
      <trkpt lat="42.76925" lon="0.15848">
        <ele>2334.2</ele>
        <time>2021-01-29T13:45:00Z</time>
      </trkpt>
      <trkpt lat="42.76925" lon="0.15848">
        <ele>2334.2</ele>
        <time>2021-01-29T13:45:01Z</time>
      </trkpt>
      <trkpt lat="42.76925" lon="0.15848">
        <ele>2334.2</ele>
        <time>2021-01-29T13:45:02Z</time>
      </trkpt>
      <trkpt lat="42.76925" lon="0.15848">
        <ele>2334.2</ele>
        <time>2021-01-29T13:45:03Z</time>
      </trkpt>
      <trkpt lat="42.76925" lon="0.15848">
        <ele>2334.4</ele>
        <time>2021-01-29T13:45:04Z</time>
      </trkpt>
      <trkpt lat="42.76925" lon="0.15848">
        <ele>2334.4</ele>
        <time>2021-01-29T13:45:05Z</time>
      </trkpt>
      <trkpt lat="42.76925" lon="0.15848">
        <ele>2334.4</ele>
        <time>2021-01-29T13:45:06Z</time>
      </trkpt>
      <trkpt lat="42.76925" lon="0.15848">
        <ele>2334.6</ele>
        <time>2021-01-29T13:45:07Z</time>
      </trkpt>
      <trkpt lat="42.76925" lon="0.15848">
        <ele>2334.6</ele>
        <time>2021-01-29T13:45:08Z</time>
      </trkpt>
      <trkpt lat="42.76925" lon="0.15848">
        <ele>2334.8</ele>
        <time>2021-01-29T13:45:09Z</time>
      </trkpt>
      <trkpt lat="42.76925" lon="0.15848">
        <ele>2334.8</ele>
        <time>2021-01-29T13:45:10Z</time>
      </trkpt>
      <trkpt lat="42.76925" lon="0.15848">
        <ele>2334.6</ele>
        <time>2021-01-29T13:45:11Z</time>
      </trkpt>
      <trkpt lat="42.76925" lon="0.15848">
        <ele>2334.6</ele>
        <time>2021-01-29T13:45:12Z</time>
      </trkpt>
      <trkpt lat="42.76925" lon="0.15848">
        <ele>2334.6</ele>
        <time>2021-01-29T13:45:13Z</time>
      </trkpt>
      <trkpt lat="42.76925" lon="0.15848">
        <ele>2334.4</ele>
        <time>2021-01-29T13:45:14Z</time>
      </trkpt>
      <trkpt lat="42.76925" lon="0.15848">
        <ele>2334.4</ele>
        <time>2021-01-29T13:45:15Z</time>
      </trkpt>
      <trkpt lat="42.76925" lon="0.15848">
        <ele>2334.4</ele>
        <time>2021-01-29T13:45:16Z</time>
      </trkpt>
      <trkpt lat="42.76925" lon="0.15848">
        <ele>2334.4</ele>
        <time>2021-01-29T13:45:17Z</time>
      </trkpt>
      <trkpt lat="42.76925" lon="0.15848">
        <ele>2334.4</ele>
        <time>2021-01-29T13:45:18Z</time>
      </trkpt>
      <trkpt lat="42.76925" lon="0.15848">
        <ele>2334.4</ele>
        <time>2021-01-29T13:45:19Z</time>
      </trkpt>
      <trkpt lat="42.76925" lon="0.15848">
        <ele>2334.4</ele>
        <time>2021-01-29T13:45:20Z</time>
      </trkpt>
      <trkpt lat="42.76925" lon="0.15848">
        <ele>2334.4</ele>
        <time>2021-01-29T13:45:21Z</time>
      </trkpt>
      <trkpt lat="42.76925" lon="0.15848">
        <ele>2334.4</ele>
        <time>2021-01-29T13:45:22Z</time>
      </trkpt>
      <trkpt lat="42.76925" lon="0.15848">
        <ele>2334.4</ele>
        <time>2021-01-29T13:45:23Z</time>
      </trkpt>
      <trkpt lat="42.76925" lon="0.15848">
        <ele>2334.6</ele>
        <time>2021-01-29T13:45:24Z</time>
      </trkpt>
      <trkpt lat="42.76925" lon="0.15848">
        <ele>2334.6</ele>
        <time>2021-01-29T13:45:25Z</time>
      </trkpt>
      <trkpt lat="42.76925" lon="0.15848">
        <ele>2334.6</ele>
        <time>2021-01-29T13:45:26Z</time>
      </trkpt>
      <trkpt lat="42.76925" lon="0.15848">
        <ele>2334.6</ele>
        <time>2021-01-29T13:45:27Z</time>
      </trkpt>
      <trkpt lat="42.76925" lon="0.15848">
        <ele>2334.6</ele>
        <time>2021-01-29T13:45:28Z</time>
      </trkpt>
      <trkpt lat="42.76925" lon="0.15848">
        <ele>2334.6</ele>
        <time>2021-01-29T13:45:29Z</time>
      </trkpt>
      <trkpt lat="42.76925" lon="0.15848">
        <ele>2334.6</ele>
        <time>2021-01-29T13:45:30Z</time>
      </trkpt>
      <trkpt lat="42.76925" lon="0.15848">
        <ele>2334.4</ele>
        <time>2021-01-29T13:45:31Z</time>
      </trkpt>
      <trkpt lat="42.76925" lon="0.15848">
        <ele>2334.4</ele>
        <time>2021-01-29T13:45:32Z</time>
      </trkpt>
      <trkpt lat="42.76925" lon="0.15848">
        <ele>2334.4</ele>
        <time>2021-01-29T13:45:33Z</time>
      </trkpt>
      <trkpt lat="42.76925" lon="0.15848">
        <ele>2334.4</ele>
        <time>2021-01-29T13:45:34Z</time>
      </trkpt>
      <trkpt lat="42.76925" lon="0.15848">
        <ele>2334.2</ele>
        <time>2021-01-29T13:45:35Z</time>
      </trkpt>
      <trkpt lat="42.76925" lon="0.15848">
        <ele>2334.2</ele>
        <time>2021-01-29T13:45:36Z</time>
      </trkpt>
      <trkpt lat="42.76925" lon="0.15848">
        <ele>2334.4</ele>
        <time>2021-01-29T13:45:37Z</time>
      </trkpt>
      <trkpt lat="42.76925" lon="0.15848">
        <ele>2334.4</ele>
        <time>2021-01-29T13:45:38Z</time>
      </trkpt>
      <trkpt lat="42.76925" lon="0.15848">
        <ele>2334.4</ele>
        <time>2021-01-29T13:45:39Z</time>
      </trkpt>
      <trkpt lat="42.76925" lon="0.15848">
        <ele>2334.6</ele>
        <time>2021-01-29T13:45:40Z</time>
      </trkpt>
      <trkpt lat="42.76925" lon="0.15848">
        <ele>2334.6</ele>
        <time>2021-01-29T13:45:41Z</time>
      </trkpt>
      <trkpt lat="42.76925" lon="0.15848">
        <ele>2334.6</ele>
        <time>2021-01-29T13:45:42Z</time>
      </trkpt>
      <trkpt lat="42.76925" lon="0.15848">
        <ele>2334.6</ele>
        <time>2021-01-29T13:45:43Z</time>
      </trkpt>
      <trkpt lat="42.76925" lon="0.15848">
        <ele>2334.6</ele>
        <time>2021-01-29T13:45:44Z</time>
      </trkpt>
      <trkpt lat="42.76925" lon="0.15848">
        <ele>2334.6</ele>
        <time>2021-01-29T13:45:45Z</time>
      </trkpt>
      <trkpt lat="42.76925" lon="0.15848">
        <ele>2334.6</ele>
        <time>2021-01-29T13:45:46Z</time>
      </trkpt>
      <trkpt lat="42.76925" lon="0.15848">
        <ele>2334.6</ele>
        <time>2021-01-29T13:45:47Z</time>
      </trkpt>
      <trkpt lat="42.76925" lon="0.15848">
        <ele>2334.6</ele>
        <time>2021-01-29T13:45:48Z</time>
      </trkpt>
      <trkpt lat="42.76925" lon="0.15848">
        <ele>2334.4</ele>
        <time>2021-01-29T13:45:49Z</time>
      </trkpt>
      <trkpt lat="42.76925" lon="0.15848">
        <ele>2334.4</ele>
        <time>2021-01-29T13:45:50Z</time>
      </trkpt>
      <trkpt lat="42.76925" lon="0.15848">
        <ele>2334.4</ele>
        <time>2021-01-29T13:45:51Z</time>
      </trkpt>
      <trkpt lat="42.76925" lon="0.15848">
        <ele>2334.4</ele>
        <time>2021-01-29T13:45:52Z</time>
      </trkpt>
      <trkpt lat="42.76925" lon="0.15848">
        <ele>2334.6</ele>
        <time>2021-01-29T13:45:53Z</time>
      </trkpt>
      <trkpt lat="42.76925" lon="0.15848">
        <ele>2334.6</ele>
        <time>2021-01-29T13:45:54Z</time>
      </trkpt>
      <trkpt lat="42.76925" lon="0.15848">
        <ele>2334.6</ele>
        <time>2021-01-29T13:45:55Z</time>
      </trkpt>
      <trkpt lat="42.76925" lon="0.15848">
        <ele>2334.6</ele>
        <time>2021-01-29T13:45:56Z</time>
      </trkpt>
      <trkpt lat="42.76925" lon="0.15848">
        <ele>2334.4</ele>
        <time>2021-01-29T13:45:57Z</time>
      </trkpt>
      <trkpt lat="42.76925" lon="0.15848">
        <ele>2334.4</ele>
        <time>2021-01-29T13:45:58Z</time>
      </trkpt>
      <trkpt lat="42.76925" lon="0.15848">
        <ele>2334.4</ele>
        <time>2021-01-29T13:45:59Z</time>
      </trkpt>
      <trkpt lat="42.76925" lon="0.15848">
        <ele>2334.4</ele>
        <time>2021-01-29T13:46:00Z</time>
      </trkpt>
      <trkpt lat="42.76925" lon="0.15848">
        <ele>2334.4</ele>
        <time>2021-01-29T13:46:01Z</time>
      </trkpt>
      <trkpt lat="42.76925" lon="0.15848">
        <ele>2334.4</ele>
        <time>2021-01-29T13:46:02Z</time>
      </trkpt>
      <trkpt lat="42.76925" lon="0.15848">
        <ele>2334.4</ele>
        <time>2021-01-29T13:46:03Z</time>
      </trkpt>
      <trkpt lat="42.76925" lon="0.15848">
        <ele>2334.4</ele>
        <time>2021-01-29T13:46:04Z</time>
      </trkpt>
      <trkpt lat="42.76925" lon="0.15848">
        <ele>2334.6</ele>
        <time>2021-01-29T13:46:05Z</time>
      </trkpt>
      <trkpt lat="42.76925" lon="0.15848">
        <ele>2334.6</ele>
        <time>2021-01-29T13:46:06Z</time>
      </trkpt>
      <trkpt lat="42.76925" lon="0.15848">
        <ele>2334.6</ele>
        <time>2021-01-29T13:46:07Z</time>
      </trkpt>
      <trkpt lat="42.76925" lon="0.15848">
        <ele>2334.6</ele>
        <time>2021-01-29T13:46:08Z</time>
      </trkpt>
      <trkpt lat="42.76925" lon="0.15848">
        <ele>2334.6</ele>
        <time>2021-01-29T13:46:09Z</time>
      </trkpt>
      <trkpt lat="42.76925" lon="0.15848">
        <ele>2334.6</ele>
        <time>2021-01-29T13:46:10Z</time>
      </trkpt>
      <trkpt lat="42.76925" lon="0.15848">
        <ele>2334.4</ele>
        <time>2021-01-29T13:46:11Z</time>
      </trkpt>
      <trkpt lat="42.76925" lon="0.15848">
        <ele>2334.4</ele>
        <time>2021-01-29T13:46:12Z</time>
      </trkpt>
      <trkpt lat="42.76925" lon="0.15848">
        <ele>2334.4</ele>
        <time>2021-01-29T13:46:13Z</time>
      </trkpt>
      <trkpt lat="42.76925" lon="0.15848">
        <ele>2334.4</ele>
        <time>2021-01-29T13:46:14Z</time>
      </trkpt>
      <trkpt lat="42.76925" lon="0.15848">
        <ele>2334.6</ele>
        <time>2021-01-29T13:46:15Z</time>
      </trkpt>
      <trkpt lat="42.76925" lon="0.15848">
        <ele>2334.6</ele>
        <time>2021-01-29T13:46:16Z</time>
      </trkpt>
      <trkpt lat="42.76925" lon="0.15848">
        <ele>2334.8</ele>
        <time>2021-01-29T13:46:17Z</time>
      </trkpt>
      <trkpt lat="42.76925" lon="0.15848">
        <ele>2334.8</ele>
        <time>2021-01-29T13:46:18Z</time>
      </trkpt>
      <trkpt lat="42.76925" lon="0.15848">
        <ele>2334.8</ele>
        <time>2021-01-29T13:46:19Z</time>
      </trkpt>
      <trkpt lat="42.76925" lon="0.15848">
        <ele>2334.8</ele>
        <time>2021-01-29T13:46:20Z</time>
      </trkpt>
      <trkpt lat="42.76925" lon="0.15848">
        <ele>2334.8</ele>
        <time>2021-01-29T13:46:21Z</time>
      </trkpt>
      <trkpt lat="42.76925" lon="0.15848">
        <ele>2334.8</ele>
        <time>2021-01-29T13:46:22Z</time>
      </trkpt>
      <trkpt lat="42.76925" lon="0.15848">
        <ele>2334.6</ele>
        <time>2021-01-29T13:46:23Z</time>
      </trkpt>
      <trkpt lat="42.76925" lon="0.15848">
        <ele>2334.6</ele>
        <time>2021-01-29T13:46:24Z</time>
      </trkpt>
      <trkpt lat="42.76925" lon="0.15848">
        <ele>2334.6</ele>
        <time>2021-01-29T13:46:25Z</time>
      </trkpt>
      <trkpt lat="42.76925" lon="0.15848">
        <ele>2334.6</ele>
        <time>2021-01-29T13:46:26Z</time>
      </trkpt>
      <trkpt lat="42.76925" lon="0.15848">
        <ele>2334.6</ele>
        <time>2021-01-29T13:46:27Z</time>
      </trkpt>
      <trkpt lat="42.76925" lon="0.15848">
        <ele>2334.6</ele>
        <time>2021-01-29T13:46:28Z</time>
      </trkpt>
      <trkpt lat="42.76925" lon="0.15848">
        <ele>2334.6</ele>
        <time>2021-01-29T13:46:29Z</time>
      </trkpt>
      <trkpt lat="42.76925" lon="0.15848">
        <ele>2334.6</ele>
        <time>2021-01-29T13:46:30Z</time>
      </trkpt>
      <trkpt lat="42.76925" lon="0.15848">
        <ele>2334.6</ele>
        <time>2021-01-29T13:46:31Z</time>
      </trkpt>
      <trkpt lat="42.76925" lon="0.15848">
        <ele>2334.6</ele>
        <time>2021-01-29T13:46:32Z</time>
      </trkpt>
      <trkpt lat="42.76925" lon="0.15848">
        <ele>2334.4</ele>
        <time>2021-01-29T13:46:33Z</time>
      </trkpt>
      <trkpt lat="42.76925" lon="0.15848">
        <ele>2334.4</ele>
        <time>2021-01-29T13:46:34Z</time>
      </trkpt>
      <trkpt lat="42.76925" lon="0.15848">
        <ele>2334.4</ele>
        <time>2021-01-29T13:46:35Z</time>
      </trkpt>
      <trkpt lat="42.76925" lon="0.15848">
        <ele>2334.4</ele>
        <time>2021-01-29T13:46:36Z</time>
      </trkpt>
      <trkpt lat="42.76925" lon="0.15848">
        <ele>2334.4</ele>
        <time>2021-01-29T13:46:37Z</time>
      </trkpt>
      <trkpt lat="42.76925" lon="0.15848">
        <ele>2334.6</ele>
        <time>2021-01-29T13:46:38Z</time>
      </trkpt>
      <trkpt lat="42.76925" lon="0.15848">
        <ele>2334.6</ele>
        <time>2021-01-29T13:46:39Z</time>
      </trkpt>
      <trkpt lat="42.76925" lon="0.15848">
        <ele>2334.6</ele>
        <time>2021-01-29T13:46:40Z</time>
      </trkpt>
      <trkpt lat="42.76925" lon="0.15848">
        <ele>2334.6</ele>
        <time>2021-01-29T13:46:41Z</time>
      </trkpt>
      <trkpt lat="42.76925" lon="0.15848">
        <ele>2334.6</ele>
        <time>2021-01-29T13:46:42Z</time>
      </trkpt>
      <trkpt lat="42.76925" lon="0.15848">
        <ele>2334.8</ele>
        <time>2021-01-29T13:46:43Z</time>
      </trkpt>
      <trkpt lat="42.76925" lon="0.15848">
        <ele>2334.8</ele>
        <time>2021-01-29T13:46:44Z</time>
      </trkpt>
      <trkpt lat="42.76925" lon="0.15848">
        <ele>2334.8</ele>
        <time>2021-01-29T13:46:45Z</time>
      </trkpt>
      <trkpt lat="42.76925" lon="0.15848">
        <ele>2334.8</ele>
        <time>2021-01-29T13:46:46Z</time>
      </trkpt>
      <trkpt lat="42.76925" lon="0.15848">
        <ele>2334.8</ele>
        <time>2021-01-29T13:46:47Z</time>
      </trkpt>
      <trkpt lat="42.76925" lon="0.15848">
        <ele>2334.8</ele>
        <time>2021-01-29T13:46:48Z</time>
      </trkpt>
      <trkpt lat="42.76925" lon="0.15848">
        <ele>2334.6</ele>
        <time>2021-01-29T13:46:49Z</time>
      </trkpt>
      <trkpt lat="42.76925" lon="0.15848">
        <ele>2334.6</ele>
        <time>2021-01-29T13:46:50Z</time>
      </trkpt>
      <trkpt lat="42.76925" lon="0.15848">
        <ele>2334.6</ele>
        <time>2021-01-29T13:46:51Z</time>
      </trkpt>
      <trkpt lat="42.76925" lon="0.15848">
        <ele>2334.6</ele>
        <time>2021-01-29T13:46:52Z</time>
      </trkpt>
      <trkpt lat="42.76925" lon="0.15848">
        <ele>2334.6</ele>
        <time>2021-01-29T13:46:53Z</time>
      </trkpt>
      <trkpt lat="42.76925" lon="0.15848">
        <ele>2334.6</ele>
        <time>2021-01-29T13:46:54Z</time>
      </trkpt>
      <trkpt lat="42.76925" lon="0.15848">
        <ele>2334.6</ele>
        <time>2021-01-29T13:46:55Z</time>
      </trkpt>
      <trkpt lat="42.76925" lon="0.15848">
        <ele>2334.6</ele>
        <time>2021-01-29T13:46:56Z</time>
      </trkpt>
      <trkpt lat="42.76925" lon="0.15848">
        <ele>2334.6</ele>
        <time>2021-01-29T13:46:57Z</time>
      </trkpt>
      <trkpt lat="42.76925" lon="0.15848">
        <ele>2334.6</ele>
        <time>2021-01-29T13:46:58Z</time>
      </trkpt>
      <trkpt lat="42.76925" lon="0.15848">
        <ele>2334.6</ele>
        <time>2021-01-29T13:46:59Z</time>
      </trkpt>
      <trkpt lat="42.76925" lon="0.15848">
        <ele>2334.6</ele>
        <time>2021-01-29T13:47:00Z</time>
      </trkpt>
      <trkpt lat="42.76925" lon="0.15848">
        <ele>2334.6</ele>
        <time>2021-01-29T13:47:01Z</time>
      </trkpt>
      <trkpt lat="42.76925" lon="0.15848">
        <ele>2334.6</ele>
        <time>2021-01-29T13:47:02Z</time>
      </trkpt>
      <trkpt lat="42.76925" lon="0.15848">
        <ele>2334.6</ele>
        <time>2021-01-29T13:47:03Z</time>
      </trkpt>
      <trkpt lat="42.76925" lon="0.15848">
        <ele>2334.6</ele>
        <time>2021-01-29T13:47:04Z</time>
      </trkpt>
      <trkpt lat="42.76925" lon="0.15848">
        <ele>2334.6</ele>
        <time>2021-01-29T13:47:05Z</time>
      </trkpt>
      <trkpt lat="42.76925" lon="0.15848">
        <ele>2334.6</ele>
        <time>2021-01-29T13:47:06Z</time>
      </trkpt>
      <trkpt lat="42.76925" lon="0.15848">
        <ele>2334.6</ele>
        <time>2021-01-29T13:47:07Z</time>
      </trkpt>
      <trkpt lat="42.76925" lon="0.15848">
        <ele>2334.6</ele>
        <time>2021-01-29T13:47:08Z</time>
      </trkpt>
      <trkpt lat="42.76925" lon="0.15848">
        <ele>2334.6</ele>
        <time>2021-01-29T13:47:09Z</time>
      </trkpt>
      <trkpt lat="42.76925" lon="0.15848">
        <ele>2334.6</ele>
        <time>2021-01-29T13:47:10Z</time>
      </trkpt>
      <trkpt lat="42.76925" lon="0.15848">
        <ele>2334.8</ele>
        <time>2021-01-29T13:47:11Z</time>
      </trkpt>
      <trkpt lat="42.76925" lon="0.15848">
        <ele>2334.8</ele>
        <time>2021-01-29T13:47:12Z</time>
      </trkpt>
      <trkpt lat="42.76925" lon="0.15848">
        <ele>2334.8</ele>
        <time>2021-01-29T13:47:13Z</time>
      </trkpt>
      <trkpt lat="42.76925" lon="0.15848">
        <ele>2334.8</ele>
        <time>2021-01-29T13:47:14Z</time>
      </trkpt>
      <trkpt lat="42.76925" lon="0.15848">
        <ele>2334.8</ele>
        <time>2021-01-29T13:47:15Z</time>
      </trkpt>
      <trkpt lat="42.76925" lon="0.15848">
        <ele>2334.8</ele>
        <time>2021-01-29T13:47:16Z</time>
      </trkpt>
      <trkpt lat="42.76925" lon="0.15848">
        <ele>2334.8</ele>
        <time>2021-01-29T13:47:17Z</time>
      </trkpt>
      <trkpt lat="42.76925" lon="0.15848">
        <ele>2334.8</ele>
        <time>2021-01-29T13:47:18Z</time>
      </trkpt>
      <trkpt lat="42.76925" lon="0.15848">
        <ele>2334.8</ele>
        <time>2021-01-29T13:47:19Z</time>
      </trkpt>
      <trkpt lat="42.76925" lon="0.15848">
        <ele>2334.8</ele>
        <time>2021-01-29T13:47:20Z</time>
      </trkpt>
      <trkpt lat="42.76925" lon="0.15848">
        <ele>2334.8</ele>
        <time>2021-01-29T13:47:21Z</time>
      </trkpt>
      <trkpt lat="42.76925" lon="0.15848">
        <ele>2334.8</ele>
        <time>2021-01-29T13:47:22Z</time>
      </trkpt>
      <trkpt lat="42.76925" lon="0.15848">
        <ele>2334.8</ele>
        <time>2021-01-29T13:47:23Z</time>
      </trkpt>
      <trkpt lat="42.76925" lon="0.15848">
        <ele>2334.8</ele>
        <time>2021-01-29T13:47:24Z</time>
      </trkpt>
      <trkpt lat="42.76925" lon="0.15848">
        <ele>2334.8</ele>
        <time>2021-01-29T13:47:25Z</time>
      </trkpt>
      <trkpt lat="42.76925" lon="0.15848">
        <ele>2334.8</ele>
        <time>2021-01-29T13:47:26Z</time>
      </trkpt>
      <trkpt lat="42.76925" lon="0.15848">
        <ele>2334.8</ele>
        <time>2021-01-29T13:47:27Z</time>
      </trkpt>
      <trkpt lat="42.76925" lon="0.15848">
        <ele>2335</ele>
        <time>2021-01-29T13:47:28Z</time>
      </trkpt>
      <trkpt lat="42.76925" lon="0.15848">
        <ele>2335</ele>
        <time>2021-01-29T13:47:29Z</time>
      </trkpt>
      <trkpt lat="42.76925" lon="0.15848">
        <ele>2334.8</ele>
        <time>2021-01-29T13:47:30Z</time>
      </trkpt>
      <trkpt lat="42.76925" lon="0.15848">
        <ele>2334.8</ele>
        <time>2021-01-29T13:47:31Z</time>
      </trkpt>
      <trkpt lat="42.76925" lon="0.15848">
        <ele>2334.8</ele>
        <time>2021-01-29T13:47:32Z</time>
      </trkpt>
      <trkpt lat="42.76925" lon="0.15848">
        <ele>2334.8</ele>
        <time>2021-01-29T13:47:33Z</time>
      </trkpt>
      <trkpt lat="42.76925" lon="0.15848">
        <ele>2334.8</ele>
        <time>2021-01-29T13:47:34Z</time>
      </trkpt>
      <trkpt lat="42.76925" lon="0.15848">
        <ele>2334.8</ele>
        <time>2021-01-29T13:47:35Z</time>
      </trkpt>
      <trkpt lat="42.76925" lon="0.15848">
        <ele>2334.8</ele>
        <time>2021-01-29T13:47:36Z</time>
      </trkpt>
      <trkpt lat="42.76925" lon="0.15848">
        <ele>2334.8</ele>
        <time>2021-01-29T13:47:37Z</time>
      </trkpt>
      <trkpt lat="42.76925" lon="0.15848">
        <ele>2334.8</ele>
        <time>2021-01-29T13:47:38Z</time>
      </trkpt>
      <trkpt lat="42.76925" lon="0.15848">
        <ele>2334.8</ele>
        <time>2021-01-29T13:47:39Z</time>
      </trkpt>
      <trkpt lat="42.76925" lon="0.15848">
        <ele>2334.8</ele>
        <time>2021-01-29T13:47:40Z</time>
      </trkpt>
      <trkpt lat="42.76925" lon="0.15848">
        <ele>2334.8</ele>
        <time>2021-01-29T13:47:41Z</time>
      </trkpt>
      <trkpt lat="42.76925" lon="0.15848">
        <ele>2334.8</ele>
        <time>2021-01-29T13:47:42Z</time>
      </trkpt>
      <trkpt lat="42.76925" lon="0.15848">
        <ele>2334.8</ele>
        <time>2021-01-29T13:47:43Z</time>
      </trkpt>
      <trkpt lat="42.76925" lon="0.15848">
        <ele>2334.8</ele>
        <time>2021-01-29T13:47:44Z</time>
      </trkpt>
      <trkpt lat="42.76925" lon="0.15848">
        <ele>2335</ele>
        <time>2021-01-29T13:47:45Z</time>
      </trkpt>
      <trkpt lat="42.76925" lon="0.15848">
        <ele>2335</ele>
        <time>2021-01-29T13:47:46Z</time>
      </trkpt>
      <trkpt lat="42.76925" lon="0.15848">
        <ele>2335</ele>
        <time>2021-01-29T13:47:47Z</time>
      </trkpt>
      <trkpt lat="42.76925" lon="0.15848">
        <ele>2335</ele>
        <time>2021-01-29T13:47:48Z</time>
      </trkpt>
      <trkpt lat="42.76925" lon="0.15848">
        <ele>2335</ele>
        <time>2021-01-29T13:47:49Z</time>
      </trkpt>
      <trkpt lat="42.76925" lon="0.15848">
        <ele>2335</ele>
        <time>2021-01-29T13:47:50Z</time>
      </trkpt>
      <trkpt lat="42.76925" lon="0.15848">
        <ele>2335</ele>
        <time>2021-01-29T13:47:51Z</time>
      </trkpt>
      <trkpt lat="42.76925" lon="0.15848">
        <ele>2335</ele>
        <time>2021-01-29T13:47:52Z</time>
      </trkpt>
      <trkpt lat="42.76925" lon="0.15848">
        <ele>2335</ele>
        <time>2021-01-29T13:47:53Z</time>
      </trkpt>
      <trkpt lat="42.76925" lon="0.15848">
        <ele>2335</ele>
        <time>2021-01-29T13:47:54Z</time>
      </trkpt>
      <trkpt lat="42.76925" lon="0.15848">
        <ele>2335</ele>
        <time>2021-01-29T13:47:55Z</time>
      </trkpt>
      <trkpt lat="42.76925" lon="0.15848">
        <ele>2335</ele>
        <time>2021-01-29T13:47:56Z</time>
      </trkpt>
      <trkpt lat="42.76925" lon="0.15848">
        <ele>2335</ele>
        <time>2021-01-29T13:47:57Z</time>
      </trkpt>
      <trkpt lat="42.76925" lon="0.15848">
        <ele>2335.2</ele>
        <time>2021-01-29T13:47:58Z</time>
      </trkpt>
      <trkpt lat="42.76925" lon="0.15848">
        <ele>2335.2</ele>
        <time>2021-01-29T13:47:59Z</time>
      </trkpt>
      <trkpt lat="42.76925" lon="0.15848">
        <ele>2335.2</ele>
        <time>2021-01-29T13:48:00Z</time>
      </trkpt>
      <trkpt lat="42.76925" lon="0.15848">
        <ele>2335</ele>
        <time>2021-01-29T13:48:01Z</time>
      </trkpt>
      <trkpt lat="42.76925" lon="0.15848">
        <ele>2335</ele>
        <time>2021-01-29T13:48:02Z</time>
      </trkpt>
      <trkpt lat="42.76925" lon="0.15848">
        <ele>2335</ele>
        <time>2021-01-29T13:48:03Z</time>
      </trkpt>
      <trkpt lat="42.76925" lon="0.15848">
        <ele>2335</ele>
        <time>2021-01-29T13:48:04Z</time>
      </trkpt>
      <trkpt lat="42.76925" lon="0.15848">
        <ele>2335</ele>
        <time>2021-01-29T13:48:05Z</time>
      </trkpt>
      <trkpt lat="42.76925" lon="0.15848">
        <ele>2335</ele>
        <time>2021-01-29T13:48:06Z</time>
      </trkpt>
      <trkpt lat="42.76925" lon="0.15848">
        <ele>2335</ele>
        <time>2021-01-29T13:48:07Z</time>
      </trkpt>
      <trkpt lat="42.76925" lon="0.15848">
        <ele>2335.2</ele>
        <time>2021-01-29T13:48:08Z</time>
      </trkpt>
      <trkpt lat="42.76925" lon="0.15848">
        <ele>2335.2</ele>
        <time>2021-01-29T13:48:09Z</time>
      </trkpt>
      <trkpt lat="42.76925" lon="0.15848">
        <ele>2335.2</ele>
        <time>2021-01-29T13:48:10Z</time>
      </trkpt>
      <trkpt lat="42.76925" lon="0.15848">
        <ele>2335.2</ele>
        <time>2021-01-29T13:48:11Z</time>
      </trkpt>
      <trkpt lat="42.76925" lon="0.15848">
        <ele>2335.4</ele>
        <time>2021-01-29T13:48:12Z</time>
      </trkpt>
      <trkpt lat="42.76925" lon="0.15848">
        <ele>2335.4</ele>
        <time>2021-01-29T13:48:13Z</time>
      </trkpt>
      <trkpt lat="42.76925" lon="0.15848">
        <ele>2335.4</ele>
        <time>2021-01-29T13:48:14Z</time>
      </trkpt>
      <trkpt lat="42.76925" lon="0.15848">
        <ele>2335.2</ele>
        <time>2021-01-29T13:48:15Z</time>
      </trkpt>
      <trkpt lat="42.76925" lon="0.15848">
        <ele>2335.2</ele>
        <time>2021-01-29T13:48:16Z</time>
      </trkpt>
      <trkpt lat="42.76925" lon="0.15848">
        <ele>2335.2</ele>
        <time>2021-01-29T13:48:17Z</time>
      </trkpt>
      <trkpt lat="42.76925" lon="0.15848">
        <ele>2335.2</ele>
        <time>2021-01-29T13:48:18Z</time>
      </trkpt>
      <trkpt lat="42.76925" lon="0.15848">
        <ele>2335.2</ele>
        <time>2021-01-29T13:48:19Z</time>
      </trkpt>
      <trkpt lat="42.76925" lon="0.15848">
        <ele>2335.2</ele>
        <time>2021-01-29T13:48:20Z</time>
      </trkpt>
      <trkpt lat="42.76925" lon="0.15848">
        <ele>2335</ele>
        <time>2021-01-29T13:48:21Z</time>
      </trkpt>
      <trkpt lat="42.76925" lon="0.15848">
        <ele>2335</ele>
        <time>2021-01-29T13:48:22Z</time>
      </trkpt>
      <trkpt lat="42.76925" lon="0.15848">
        <ele>2335</ele>
        <time>2021-01-29T13:48:23Z</time>
      </trkpt>
      <trkpt lat="42.76925" lon="0.15848">
        <ele>2335</ele>
        <time>2021-01-29T13:48:24Z</time>
      </trkpt>
      <trkpt lat="42.76925" lon="0.15848">
        <ele>2335</ele>
        <time>2021-01-29T13:48:25Z</time>
      </trkpt>
      <trkpt lat="42.76925" lon="0.15848">
        <ele>2335</ele>
        <time>2021-01-29T13:48:26Z</time>
      </trkpt>
      <trkpt lat="42.76925" lon="0.15848">
        <ele>2335</ele>
        <time>2021-01-29T13:48:27Z</time>
      </trkpt>
      <trkpt lat="42.76925" lon="0.15848">
        <ele>2335</ele>
        <time>2021-01-29T13:48:28Z</time>
      </trkpt>
      <trkpt lat="42.76925" lon="0.15848">
        <ele>2335</ele>
        <time>2021-01-29T13:48:29Z</time>
      </trkpt>
      <trkpt lat="42.76925" lon="0.15848">
        <ele>2335</ele>
        <time>2021-01-29T13:48:30Z</time>
      </trkpt>
      <trkpt lat="42.76925" lon="0.15848">
        <ele>2335</ele>
        <time>2021-01-29T13:48:31Z</time>
      </trkpt>
      <trkpt lat="42.76925" lon="0.15848">
        <ele>2335</ele>
        <time>2021-01-29T13:48:32Z</time>
      </trkpt>
      <trkpt lat="42.76925" lon="0.15848">
        <ele>2335</ele>
        <time>2021-01-29T13:48:33Z</time>
      </trkpt>
      <trkpt lat="42.76925" lon="0.15848">
        <ele>2335</ele>
        <time>2021-01-29T13:48:34Z</time>
      </trkpt>
      <trkpt lat="42.76925" lon="0.15848">
        <ele>2335</ele>
        <time>2021-01-29T13:48:35Z</time>
      </trkpt>
      <trkpt lat="42.76925" lon="0.15848">
        <ele>2335</ele>
        <time>2021-01-29T13:48:36Z</time>
      </trkpt>
      <trkpt lat="42.76925" lon="0.15848">
        <ele>2335</ele>
        <time>2021-01-29T13:48:37Z</time>
      </trkpt>
      <trkpt lat="42.76925" lon="0.15848">
        <ele>2335</ele>
        <time>2021-01-29T13:48:38Z</time>
      </trkpt>
      <trkpt lat="42.76925" lon="0.15848">
        <ele>2335</ele>
        <time>2021-01-29T13:48:39Z</time>
      </trkpt>
      <trkpt lat="42.76925" lon="0.15848">
        <ele>2335</ele>
        <time>2021-01-29T13:48:40Z</time>
      </trkpt>
      <trkpt lat="42.76925" lon="0.15848">
        <ele>2334.8</ele>
        <time>2021-01-29T13:48:41Z</time>
      </trkpt>
      <trkpt lat="42.76925" lon="0.15848">
        <ele>2334.8</ele>
        <time>2021-01-29T13:48:42Z</time>
      </trkpt>
      <trkpt lat="42.76925" lon="0.15848">
        <ele>2334.8</ele>
        <time>2021-01-29T13:48:43Z</time>
      </trkpt>
      <trkpt lat="42.76925" lon="0.15848">
        <ele>2334.8</ele>
        <time>2021-01-29T13:48:44Z</time>
      </trkpt>
      <trkpt lat="42.76925" lon="0.15848">
        <ele>2334.6</ele>
        <time>2021-01-29T13:48:45Z</time>
      </trkpt>
      <trkpt lat="42.76925" lon="0.15848">
        <ele>2334.6</ele>
        <time>2021-01-29T13:48:46Z</time>
      </trkpt>
      <trkpt lat="42.76925" lon="0.15848">
        <ele>2334.6</ele>
        <time>2021-01-29T13:48:47Z</time>
      </trkpt>
      <trkpt lat="42.76925" lon="0.15848">
        <ele>2334.8</ele>
        <time>2021-01-29T13:48:48Z</time>
      </trkpt>
      <trkpt lat="42.76925" lon="0.15848">
        <ele>2334.8</ele>
        <time>2021-01-29T13:48:49Z</time>
      </trkpt>
      <trkpt lat="42.76925" lon="0.15848">
        <ele>2334.8</ele>
        <time>2021-01-29T13:48:50Z</time>
      </trkpt>
      <trkpt lat="42.76925" lon="0.15848">
        <ele>2335</ele>
        <time>2021-01-29T13:48:51Z</time>
      </trkpt>
      <trkpt lat="42.76925" lon="0.15848">
        <ele>2335</ele>
        <time>2021-01-29T13:48:52Z</time>
      </trkpt>
      <trkpt lat="42.76925" lon="0.15848">
        <ele>2335</ele>
        <time>2021-01-29T13:48:53Z</time>
      </trkpt>
      <trkpt lat="42.76925" lon="0.15848">
        <ele>2335</ele>
        <time>2021-01-29T13:48:54Z</time>
      </trkpt>
      <trkpt lat="42.76925" lon="0.15848">
        <ele>2335</ele>
        <time>2021-01-29T13:48:55Z</time>
      </trkpt>
      <trkpt lat="42.76925" lon="0.15848">
        <ele>2335</ele>
        <time>2021-01-29T13:48:56Z</time>
      </trkpt>
      <trkpt lat="42.76925" lon="0.15848">
        <ele>2335</ele>
        <time>2021-01-29T13:48:57Z</time>
      </trkpt>
      <trkpt lat="42.76925" lon="0.15848">
        <ele>2335</ele>
        <time>2021-01-29T13:48:58Z</time>
      </trkpt>
      <trkpt lat="42.76925" lon="0.15848">
        <ele>2335</ele>
        <time>2021-01-29T13:48:59Z</time>
      </trkpt>
      <trkpt lat="42.76925" lon="0.15848">
        <ele>2335</ele>
        <time>2021-01-29T13:49:00Z</time>
      </trkpt>
      <trkpt lat="42.76925" lon="0.15848">
        <ele>2335</ele>
        <time>2021-01-29T13:49:01Z</time>
      </trkpt>
      <trkpt lat="42.76925" lon="0.15848">
        <ele>2335</ele>
        <time>2021-01-29T13:49:02Z</time>
      </trkpt>
      <trkpt lat="42.76925" lon="0.15848">
        <ele>2335.2</ele>
        <time>2021-01-29T13:49:03Z</time>
      </trkpt>
      <trkpt lat="42.76925" lon="0.15848">
        <ele>2335.2</ele>
        <time>2021-01-29T13:49:04Z</time>
      </trkpt>
      <trkpt lat="42.76925" lon="0.15848">
        <ele>2335.2</ele>
        <time>2021-01-29T13:49:05Z</time>
      </trkpt>
      <trkpt lat="42.76925" lon="0.15848">
        <ele>2335</ele>
        <time>2021-01-29T13:49:06Z</time>
      </trkpt>
      <trkpt lat="42.76925" lon="0.15848">
        <ele>2335.2</ele>
        <time>2021-01-29T13:49:07Z</time>
      </trkpt>
      <trkpt lat="42.76925" lon="0.15848">
        <ele>2335.2</ele>
        <time>2021-01-29T13:49:08Z</time>
      </trkpt>
      <trkpt lat="42.76925" lon="0.15848">
        <ele>2335.2</ele>
        <time>2021-01-29T13:49:09Z</time>
      </trkpt>
      <trkpt lat="42.76925" lon="0.15848">
        <ele>2335.2</ele>
        <time>2021-01-29T13:49:10Z</time>
      </trkpt>
      <trkpt lat="42.76925" lon="0.15848">
        <ele>2335.2</ele>
        <time>2021-01-29T13:49:11Z</time>
      </trkpt>
      <trkpt lat="42.76925" lon="0.15848">
        <ele>2335.2</ele>
        <time>2021-01-29T13:49:12Z</time>
      </trkpt>
      <trkpt lat="42.76925" lon="0.15848">
        <ele>2335.2</ele>
        <time>2021-01-29T13:49:13Z</time>
      </trkpt>
      <trkpt lat="42.76925" lon="0.15848">
        <ele>2335</ele>
        <time>2021-01-29T13:49:14Z</time>
      </trkpt>
      <trkpt lat="42.76925" lon="0.15848">
        <ele>2335</ele>
        <time>2021-01-29T13:49:15Z</time>
      </trkpt>
      <trkpt lat="42.76925" lon="0.15848">
        <ele>2335</ele>
        <time>2021-01-29T13:49:16Z</time>
      </trkpt>
      <trkpt lat="42.76925" lon="0.15848">
        <ele>2335</ele>
        <time>2021-01-29T13:49:17Z</time>
      </trkpt>
      <trkpt lat="42.76925" lon="0.15848">
        <ele>2335</ele>
        <time>2021-01-29T13:49:18Z</time>
      </trkpt>
      <trkpt lat="42.76925" lon="0.15848">
        <ele>2335</ele>
        <time>2021-01-29T13:49:19Z</time>
      </trkpt>
      <trkpt lat="42.76925" lon="0.15848">
        <ele>2335</ele>
        <time>2021-01-29T13:49:20Z</time>
      </trkpt>
      <trkpt lat="42.76925" lon="0.15848">
        <ele>2335</ele>
        <time>2021-01-29T13:49:21Z</time>
      </trkpt>
      <trkpt lat="42.76925" lon="0.15848">
        <ele>2335</ele>
        <time>2021-01-29T13:49:22Z</time>
      </trkpt>
      <trkpt lat="42.76925" lon="0.15848">
        <ele>2335</ele>
        <time>2021-01-29T13:49:23Z</time>
      </trkpt>
      <trkpt lat="42.76925" lon="0.15848">
        <ele>2334.8</ele>
        <time>2021-01-29T13:49:24Z</time>
      </trkpt>
      <trkpt lat="42.76925" lon="0.15848">
        <ele>2334.6</ele>
        <time>2021-01-29T13:49:25Z</time>
      </trkpt>
      <trkpt lat="42.76925" lon="0.15848">
        <ele>2334.6</ele>
        <time>2021-01-29T13:49:26Z</time>
      </trkpt>
      <trkpt lat="42.76925" lon="0.15848">
        <ele>2334.4</ele>
        <time>2021-01-29T13:49:27Z</time>
      </trkpt>
      <trkpt lat="42.76925" lon="0.15848">
        <ele>2334.4</ele>
        <time>2021-01-29T13:49:28Z</time>
      </trkpt>
      <trkpt lat="42.76925" lon="0.15848">
        <ele>2334.4</ele>
        <time>2021-01-29T13:49:29Z</time>
      </trkpt>
      <trkpt lat="42.76925" lon="0.15848">
        <ele>2334.4</ele>
        <time>2021-01-29T13:49:30Z</time>
      </trkpt>
      <trkpt lat="42.76925" lon="0.15848">
        <ele>2334.4</ele>
        <time>2021-01-29T13:49:31Z</time>
      </trkpt>
      <trkpt lat="42.76925" lon="0.15848">
        <ele>2334.4</ele>
        <time>2021-01-29T13:49:32Z</time>
      </trkpt>
      <trkpt lat="42.76925" lon="0.15848">
        <ele>2334.4</ele>
        <time>2021-01-29T13:49:33Z</time>
      </trkpt>
      <trkpt lat="42.76925" lon="0.15848">
        <ele>2334.4</ele>
        <time>2021-01-29T13:49:34Z</time>
      </trkpt>
      <trkpt lat="42.76925" lon="0.15848">
        <ele>2334.2</ele>
        <time>2021-01-29T13:49:35Z</time>
      </trkpt>
      <trkpt lat="42.76925" lon="0.15848">
        <ele>2334.2</ele>
        <time>2021-01-29T13:49:36Z</time>
      </trkpt>
      <trkpt lat="42.76925" lon="0.15848">
        <ele>2334.2</ele>
        <time>2021-01-29T13:49:37Z</time>
      </trkpt>
      <trkpt lat="42.76925" lon="0.15848">
        <ele>2334.2</ele>
        <time>2021-01-29T13:49:38Z</time>
      </trkpt>
      <trkpt lat="42.76925" lon="0.15848">
        <ele>2334.4</ele>
        <time>2021-01-29T13:49:39Z</time>
      </trkpt>
      <trkpt lat="42.76925" lon="0.15848">
        <ele>2334.4</ele>
        <time>2021-01-29T13:49:40Z</time>
      </trkpt>
      <trkpt lat="42.76925" lon="0.15848">
        <ele>2334.4</ele>
        <time>2021-01-29T13:49:41Z</time>
      </trkpt>
      <trkpt lat="42.76925" lon="0.15848">
        <ele>2334.4</ele>
        <time>2021-01-29T13:49:42Z</time>
      </trkpt>
      <trkpt lat="42.76925" lon="0.15848">
        <ele>2334.4</ele>
        <time>2021-01-29T13:49:43Z</time>
      </trkpt>
      <trkpt lat="42.76925" lon="0.15848">
        <ele>2334.4</ele>
        <time>2021-01-29T13:49:44Z</time>
      </trkpt>
      <trkpt lat="42.76925" lon="0.15848">
        <ele>2334.4</ele>
        <time>2021-01-29T13:49:45Z</time>
      </trkpt>
      <trkpt lat="42.76925" lon="0.15848">
        <ele>2334.4</ele>
        <time>2021-01-29T13:49:46Z</time>
      </trkpt>
      <trkpt lat="42.76925" lon="0.15848">
        <ele>2334.4</ele>
        <time>2021-01-29T13:49:47Z</time>
      </trkpt>
      <trkpt lat="42.76925" lon="0.15848">
        <ele>2334.4</ele>
        <time>2021-01-29T13:49:48Z</time>
      </trkpt>
      <trkpt lat="42.76925" lon="0.15848">
        <ele>2334.4</ele>
        <time>2021-01-29T13:49:49Z</time>
      </trkpt>
      <trkpt lat="42.76925" lon="0.15848">
        <ele>2334.4</ele>
        <time>2021-01-29T13:49:50Z</time>
      </trkpt>
      <trkpt lat="42.76925" lon="0.15848">
        <ele>2334.4</ele>
        <time>2021-01-29T13:49:51Z</time>
      </trkpt>
      <trkpt lat="42.76925" lon="0.15848">
        <ele>2334.4</ele>
        <time>2021-01-29T13:49:52Z</time>
      </trkpt>
      <trkpt lat="42.76925" lon="0.15848">
        <ele>2334.6</ele>
        <time>2021-01-29T13:49:53Z</time>
      </trkpt>
      <trkpt lat="42.76925" lon="0.15848">
        <ele>2334.6</ele>
        <time>2021-01-29T13:49:54Z</time>
      </trkpt>
      <trkpt lat="42.76925" lon="0.15848">
        <ele>2334.6</ele>
        <time>2021-01-29T13:49:55Z</time>
      </trkpt>
      <trkpt lat="42.76925" lon="0.15848">
        <ele>2334.4</ele>
        <time>2021-01-29T13:49:56Z</time>
      </trkpt>
      <trkpt lat="42.76925" lon="0.15848">
        <ele>2334.4</ele>
        <time>2021-01-29T13:49:57Z</time>
      </trkpt>
      <trkpt lat="42.76925" lon="0.15848">
        <ele>2334.4</ele>
        <time>2021-01-29T13:49:58Z</time>
      </trkpt>
      <trkpt lat="42.76925" lon="0.15848">
        <ele>2334.4</ele>
        <time>2021-01-29T13:49:59Z</time>
      </trkpt>
      <trkpt lat="42.76925" lon="0.15848">
        <ele>2334.4</ele>
        <time>2021-01-29T13:50:00Z</time>
      </trkpt>
      <trkpt lat="42.76925" lon="0.15848">
        <ele>2334.4</ele>
        <time>2021-01-29T13:50:01Z</time>
      </trkpt>
      <trkpt lat="42.76925" lon="0.15848">
        <ele>2334.6</ele>
        <time>2021-01-29T13:50:02Z</time>
      </trkpt>
      <trkpt lat="42.76925" lon="0.15848">
        <ele>2334.6</ele>
        <time>2021-01-29T13:50:03Z</time>
      </trkpt>
      <trkpt lat="42.76925" lon="0.15848">
        <ele>2334.8</ele>
        <time>2021-01-29T13:50:04Z</time>
      </trkpt>
      <trkpt lat="42.76925" lon="0.15848">
        <ele>2334.8</ele>
        <time>2021-01-29T13:50:05Z</time>
      </trkpt>
      <trkpt lat="42.76925" lon="0.15848">
        <ele>2334.8</ele>
        <time>2021-01-29T13:50:06Z</time>
      </trkpt>
      <trkpt lat="42.76925" lon="0.15848">
        <ele>2334.8</ele>
        <time>2021-01-29T13:50:07Z</time>
      </trkpt>
      <trkpt lat="42.76925" lon="0.15848">
        <ele>2334.8</ele>
        <time>2021-01-29T13:50:08Z</time>
      </trkpt>
      <trkpt lat="42.76925" lon="0.15848">
        <ele>2334.8</ele>
        <time>2021-01-29T13:50:09Z</time>
      </trkpt>
      <trkpt lat="42.76925" lon="0.15848">
        <ele>2334.8</ele>
        <time>2021-01-29T13:50:10Z</time>
      </trkpt>
      <trkpt lat="42.76925" lon="0.15848">
        <ele>2334.8</ele>
        <time>2021-01-29T13:50:11Z</time>
      </trkpt>
      <trkpt lat="42.76925" lon="0.15848">
        <ele>2334.8</ele>
        <time>2021-01-29T13:50:12Z</time>
      </trkpt>
      <trkpt lat="42.76925" lon="0.15848">
        <ele>2334.8</ele>
        <time>2021-01-29T13:50:13Z</time>
      </trkpt>
      <trkpt lat="42.76925" lon="0.15848">
        <ele>2334.8</ele>
        <time>2021-01-29T13:50:14Z</time>
      </trkpt>
      <trkpt lat="42.76925" lon="0.15848">
        <ele>2335</ele>
        <time>2021-01-29T13:50:15Z</time>
      </trkpt>
      <trkpt lat="42.76925" lon="0.15848">
        <ele>2335</ele>
        <time>2021-01-29T13:50:16Z</time>
      </trkpt>
      <trkpt lat="42.76925" lon="0.15848">
        <ele>2335</ele>
        <time>2021-01-29T13:50:17Z</time>
      </trkpt>
      <trkpt lat="42.76925" lon="0.15848">
        <ele>2335</ele>
        <time>2021-01-29T13:50:18Z</time>
      </trkpt>
      <trkpt lat="42.76925" lon="0.15848">
        <ele>2335</ele>
        <time>2021-01-29T13:50:19Z</time>
      </trkpt>
      <trkpt lat="42.76925" lon="0.15848">
        <ele>2335</ele>
        <time>2021-01-29T13:50:20Z</time>
      </trkpt>
      <trkpt lat="42.76925" lon="0.15848">
        <ele>2335</ele>
        <time>2021-01-29T13:50:21Z</time>
      </trkpt>
      <trkpt lat="42.76925" lon="0.15848">
        <ele>2334.8</ele>
        <time>2021-01-29T13:50:22Z</time>
      </trkpt>
      <trkpt lat="42.76925" lon="0.15848">
        <ele>2334.8</ele>
        <time>2021-01-29T13:50:23Z</time>
      </trkpt>
      <trkpt lat="42.76925" lon="0.15848">
        <ele>2334.8</ele>
        <time>2021-01-29T13:50:24Z</time>
      </trkpt>
      <trkpt lat="42.76925" lon="0.15848">
        <ele>2334.8</ele>
        <time>2021-01-29T13:50:25Z</time>
      </trkpt>
      <trkpt lat="42.76925" lon="0.15848">
        <ele>2334.8</ele>
        <time>2021-01-29T13:50:26Z</time>
      </trkpt>
      <trkpt lat="42.76925" lon="0.15848">
        <ele>2334.8</ele>
        <time>2021-01-29T13:50:27Z</time>
      </trkpt>
      <trkpt lat="42.76925" lon="0.15848">
        <ele>2335</ele>
        <time>2021-01-29T13:50:28Z</time>
      </trkpt>
      <trkpt lat="42.76925" lon="0.15848">
        <ele>2335</ele>
        <time>2021-01-29T13:50:29Z</time>
      </trkpt>
      <trkpt lat="42.76925" lon="0.15848">
        <ele>2335.2</ele>
        <time>2021-01-29T13:50:30Z</time>
      </trkpt>
      <trkpt lat="42.76925" lon="0.15848">
        <ele>2335.2</ele>
        <time>2021-01-29T13:50:31Z</time>
      </trkpt>
      <trkpt lat="42.76925" lon="0.15848">
        <ele>2335.2</ele>
        <time>2021-01-29T13:50:32Z</time>
      </trkpt>
      <trkpt lat="42.76925" lon="0.15848">
        <ele>2335.2</ele>
        <time>2021-01-29T13:50:33Z</time>
      </trkpt>
      <trkpt lat="42.76925" lon="0.15848">
        <ele>2335.2</ele>
        <time>2021-01-29T13:50:34Z</time>
      </trkpt>
      <trkpt lat="42.76925" lon="0.15848">
        <ele>2335.2</ele>
        <time>2021-01-29T13:50:35Z</time>
      </trkpt>
      <trkpt lat="42.76925" lon="0.15848">
        <ele>2335.2</ele>
        <time>2021-01-29T13:50:36Z</time>
      </trkpt>
      <trkpt lat="42.76925" lon="0.15848">
        <ele>2335.2</ele>
        <time>2021-01-29T13:50:37Z</time>
      </trkpt>
      <trkpt lat="42.76925" lon="0.15848">
        <ele>2335.2</ele>
        <time>2021-01-29T13:50:38Z</time>
      </trkpt>
      <trkpt lat="42.76925" lon="0.15848">
        <ele>2335</ele>
        <time>2021-01-29T13:50:39Z</time>
      </trkpt>
      <trkpt lat="42.76925" lon="0.15848">
        <ele>2335</ele>
        <time>2021-01-29T13:50:40Z</time>
      </trkpt>
      <trkpt lat="42.76925" lon="0.15848">
        <ele>2335</ele>
        <time>2021-01-29T13:50:41Z</time>
      </trkpt>
      <trkpt lat="42.76925" lon="0.15848">
        <ele>2335</ele>
        <time>2021-01-29T13:50:42Z</time>
      </trkpt>
      <trkpt lat="42.76925" lon="0.15848">
        <ele>2335</ele>
        <time>2021-01-29T13:50:43Z</time>
      </trkpt>
      <trkpt lat="42.76925" lon="0.15848">
        <ele>2334.8</ele>
        <time>2021-01-29T13:50:44Z</time>
      </trkpt>
      <trkpt lat="42.76925" lon="0.15848">
        <ele>2334.8</ele>
        <time>2021-01-29T13:50:45Z</time>
      </trkpt>
      <trkpt lat="42.76925" lon="0.15848">
        <ele>2334.8</ele>
        <time>2021-01-29T13:50:46Z</time>
      </trkpt>
      <trkpt lat="42.76925" lon="0.15848">
        <ele>2334.8</ele>
        <time>2021-01-29T13:50:47Z</time>
      </trkpt>
      <trkpt lat="42.76925" lon="0.15848">
        <ele>2334.8</ele>
        <time>2021-01-29T13:50:48Z</time>
      </trkpt>
      <trkpt lat="42.76925" lon="0.15848">
        <ele>2334.8</ele>
        <time>2021-01-29T13:50:49Z</time>
      </trkpt>
      <trkpt lat="42.76925" lon="0.15848">
        <ele>2334.8</ele>
        <time>2021-01-29T13:50:50Z</time>
      </trkpt>
      <trkpt lat="42.76925" lon="0.15848">
        <ele>2334.8</ele>
        <time>2021-01-29T13:50:51Z</time>
      </trkpt>
      <trkpt lat="42.76925" lon="0.15848">
        <ele>2334.6</ele>
        <time>2021-01-29T13:50:52Z</time>
      </trkpt>
      <trkpt lat="42.76925" lon="0.15848">
        <ele>2334.8</ele>
        <time>2021-01-29T13:50:53Z</time>
      </trkpt>
      <trkpt lat="42.76925" lon="0.15848">
        <ele>2334.8</ele>
        <time>2021-01-29T13:50:54Z</time>
      </trkpt>
      <trkpt lat="42.76925" lon="0.15848">
        <ele>2334.8</ele>
        <time>2021-01-29T13:50:55Z</time>
      </trkpt>
      <trkpt lat="42.76925" lon="0.15848">
        <ele>2334.8</ele>
        <time>2021-01-29T13:50:56Z</time>
      </trkpt>
      <trkpt lat="42.76925" lon="0.15848">
        <ele>2335</ele>
        <time>2021-01-29T13:50:57Z</time>
      </trkpt>
      <trkpt lat="42.76925" lon="0.15848">
        <ele>2335</ele>
        <time>2021-01-29T13:50:58Z</time>
      </trkpt>
      <trkpt lat="42.76925" lon="0.15848">
        <ele>2335.2</ele>
        <time>2021-01-29T13:50:59Z</time>
      </trkpt>
      <trkpt lat="42.76925" lon="0.15848">
        <ele>2335.2</ele>
        <time>2021-01-29T13:51:00Z</time>
      </trkpt>
      <trkpt lat="42.76925" lon="0.15848">
        <ele>2335.2</ele>
        <time>2021-01-29T13:51:01Z</time>
      </trkpt>
      <trkpt lat="42.76925" lon="0.15848">
        <ele>2335.2</ele>
        <time>2021-01-29T13:51:02Z</time>
      </trkpt>
      <trkpt lat="42.76925" lon="0.15848">
        <ele>2335.4</ele>
        <time>2021-01-29T13:51:03Z</time>
      </trkpt>
      <trkpt lat="42.76925" lon="0.15848">
        <ele>2335.4</ele>
        <time>2021-01-29T13:51:04Z</time>
      </trkpt>
      <trkpt lat="42.76925" lon="0.15848">
        <ele>2335.6</ele>
        <time>2021-01-29T13:51:05Z</time>
      </trkpt>
      <trkpt lat="42.76925" lon="0.15848">
        <ele>2335.6</ele>
        <time>2021-01-29T13:51:06Z</time>
      </trkpt>
      <trkpt lat="42.76925" lon="0.15848">
        <ele>2335.6</ele>
        <time>2021-01-29T13:51:07Z</time>
      </trkpt>
      <trkpt lat="42.76925" lon="0.15848">
        <ele>2335.6</ele>
        <time>2021-01-29T13:51:08Z</time>
      </trkpt>
      <trkpt lat="42.76925" lon="0.15848">
        <ele>2335.6</ele>
        <time>2021-01-29T13:51:09Z</time>
      </trkpt>
      <trkpt lat="42.76925" lon="0.15848">
        <ele>2335.6</ele>
        <time>2021-01-29T13:51:10Z</time>
      </trkpt>
      <trkpt lat="42.76925" lon="0.15848">
        <ele>2335.6</ele>
        <time>2021-01-29T13:51:11Z</time>
      </trkpt>
      <trkpt lat="42.76925" lon="0.15848">
        <ele>2335.6</ele>
        <time>2021-01-29T13:51:12Z</time>
      </trkpt>
      <trkpt lat="42.76925" lon="0.15848">
        <ele>2335.6</ele>
        <time>2021-01-29T13:51:13Z</time>
      </trkpt>
      <trkpt lat="42.76925" lon="0.15848">
        <ele>2335.6</ele>
        <time>2021-01-29T13:51:14Z</time>
      </trkpt>
      <trkpt lat="42.76925" lon="0.15848">
        <ele>2335.6</ele>
        <time>2021-01-29T13:51:15Z</time>
      </trkpt>
      <trkpt lat="42.76925" lon="0.15848">
        <ele>2335.6</ele>
        <time>2021-01-29T13:51:16Z</time>
      </trkpt>
      <trkpt lat="42.76925" lon="0.15848">
        <ele>2335.4</ele>
        <time>2021-01-29T13:51:17Z</time>
      </trkpt>
      <trkpt lat="42.76925" lon="0.15848">
        <ele>2335.4</ele>
        <time>2021-01-29T13:51:18Z</time>
      </trkpt>
      <trkpt lat="42.76925" lon="0.15848">
        <ele>2335.4</ele>
        <time>2021-01-29T13:51:19Z</time>
      </trkpt>
      <trkpt lat="42.76925" lon="0.15848">
        <ele>2335.4</ele>
        <time>2021-01-29T13:51:20Z</time>
      </trkpt>
      <trkpt lat="42.76925" lon="0.15848">
        <ele>2335.2</ele>
        <time>2021-01-29T13:51:21Z</time>
      </trkpt>
      <trkpt lat="42.76925" lon="0.15848">
        <ele>2335.2</ele>
        <time>2021-01-29T13:51:22Z</time>
      </trkpt>
      <trkpt lat="42.76925" lon="0.15848">
        <ele>2335.2</ele>
        <time>2021-01-29T13:51:23Z</time>
      </trkpt>
      <trkpt lat="42.76925" lon="0.15848">
        <ele>2335.2</ele>
        <time>2021-01-29T13:51:24Z</time>
      </trkpt>
      <trkpt lat="42.76925" lon="0.15848">
        <ele>2335.2</ele>
        <time>2021-01-29T13:51:25Z</time>
      </trkpt>
      <trkpt lat="42.76925" lon="0.15848">
        <ele>2335.2</ele>
        <time>2021-01-29T13:51:26Z</time>
      </trkpt>
      <trkpt lat="42.76925" lon="0.15848">
        <ele>2335.2</ele>
        <time>2021-01-29T13:51:27Z</time>
      </trkpt>
      <trkpt lat="42.76925" lon="0.15848">
        <ele>2335.2</ele>
        <time>2021-01-29T13:51:28Z</time>
      </trkpt>
      <trkpt lat="42.76925" lon="0.15848">
        <ele>2335</ele>
        <time>2021-01-29T13:51:29Z</time>
      </trkpt>
      <trkpt lat="42.76925" lon="0.15848">
        <ele>2335</ele>
        <time>2021-01-29T13:51:30Z</time>
      </trkpt>
      <trkpt lat="42.76925" lon="0.15848">
        <ele>2335</ele>
        <time>2021-01-29T13:51:31Z</time>
      </trkpt>
      <trkpt lat="42.76925" lon="0.15848">
        <ele>2335</ele>
        <time>2021-01-29T13:51:32Z</time>
      </trkpt>
      <trkpt lat="42.76925" lon="0.15848">
        <ele>2335</ele>
        <time>2021-01-29T13:51:33Z</time>
      </trkpt>
      <trkpt lat="42.76925" lon="0.15848">
        <ele>2335</ele>
        <time>2021-01-29T13:51:34Z</time>
      </trkpt>
      <trkpt lat="42.76925" lon="0.15848">
        <ele>2335</ele>
        <time>2021-01-29T13:51:35Z</time>
      </trkpt>
      <trkpt lat="42.76925" lon="0.15848">
        <ele>2335</ele>
        <time>2021-01-29T13:51:36Z</time>
      </trkpt>
      <trkpt lat="42.76925" lon="0.15848">
        <ele>2335</ele>
        <time>2021-01-29T13:51:37Z</time>
      </trkpt>
      <trkpt lat="42.76925" lon="0.15848">
        <ele>2334.8</ele>
        <time>2021-01-29T13:51:38Z</time>
      </trkpt>
      <trkpt lat="42.76925" lon="0.15848">
        <ele>2335</ele>
        <time>2021-01-29T13:51:39Z</time>
      </trkpt>
      <trkpt lat="42.76925" lon="0.15848">
        <ele>2335</ele>
        <time>2021-01-29T13:51:40Z</time>
      </trkpt>
      <trkpt lat="42.76925" lon="0.15848">
        <ele>2334.8</ele>
        <time>2021-01-29T13:51:41Z</time>
      </trkpt>
      <trkpt lat="42.76925" lon="0.15848">
        <ele>2334.8</ele>
        <time>2021-01-29T13:51:42Z</time>
      </trkpt>
      <trkpt lat="42.76925" lon="0.15848">
        <ele>2334.8</ele>
        <time>2021-01-29T13:51:43Z</time>
      </trkpt>
      <trkpt lat="42.76925" lon="0.15848">
        <ele>2334.8</ele>
        <time>2021-01-29T13:51:44Z</time>
      </trkpt>
      <trkpt lat="42.76925" lon="0.15848">
        <ele>2334.8</ele>
        <time>2021-01-29T13:51:45Z</time>
      </trkpt>
      <trkpt lat="42.76925" lon="0.15848">
        <ele>2334.8</ele>
        <time>2021-01-29T13:51:46Z</time>
      </trkpt>
      <trkpt lat="42.76925" lon="0.15848">
        <ele>2334.8</ele>
        <time>2021-01-29T13:51:47Z</time>
      </trkpt>
      <trkpt lat="42.76925" lon="0.15848">
        <ele>2334.8</ele>
        <time>2021-01-29T13:51:48Z</time>
      </trkpt>
      <trkpt lat="42.76925" lon="0.15848">
        <ele>2334.8</ele>
        <time>2021-01-29T13:51:49Z</time>
      </trkpt>
      <trkpt lat="42.76925" lon="0.15848">
        <ele>2334.8</ele>
        <time>2021-01-29T13:51:50Z</time>
      </trkpt>
      <trkpt lat="42.76925" lon="0.15848">
        <ele>2334.8</ele>
        <time>2021-01-29T13:51:51Z</time>
      </trkpt>
      <trkpt lat="42.76925" lon="0.15848">
        <ele>2334.8</ele>
        <time>2021-01-29T13:51:52Z</time>
      </trkpt>
      <trkpt lat="42.76925" lon="0.15848">
        <ele>2334.8</ele>
        <time>2021-01-29T13:51:53Z</time>
      </trkpt>
      <trkpt lat="42.76925" lon="0.15848">
        <ele>2334.8</ele>
        <time>2021-01-29T13:51:54Z</time>
      </trkpt>
      <trkpt lat="42.76925" lon="0.15848">
        <ele>2334.8</ele>
        <time>2021-01-29T13:51:55Z</time>
      </trkpt>
      <trkpt lat="42.76925" lon="0.15848">
        <ele>2334.8</ele>
        <time>2021-01-29T13:51:56Z</time>
      </trkpt>
      <trkpt lat="42.76925" lon="0.15848">
        <ele>2334.8</ele>
        <time>2021-01-29T13:51:57Z</time>
      </trkpt>
      <trkpt lat="42.76925" lon="0.15848">
        <ele>2334.8</ele>
        <time>2021-01-29T13:51:58Z</time>
      </trkpt>
      <trkpt lat="42.76925" lon="0.15848">
        <ele>2334.8</ele>
        <time>2021-01-29T13:51:59Z</time>
      </trkpt>
      <trkpt lat="42.76925" lon="0.15848">
        <ele>2334.8</ele>
        <time>2021-01-29T13:52:00Z</time>
      </trkpt>
      <trkpt lat="42.76925" lon="0.15848">
        <ele>2334.8</ele>
        <time>2021-01-29T13:52:01Z</time>
      </trkpt>
      <trkpt lat="42.76925" lon="0.15848">
        <ele>2334.8</ele>
        <time>2021-01-29T13:52:02Z</time>
      </trkpt>
      <trkpt lat="42.76925" lon="0.15848">
        <ele>2334.8</ele>
        <time>2021-01-29T13:52:03Z</time>
      </trkpt>
      <trkpt lat="42.76925" lon="0.15848">
        <ele>2334.8</ele>
        <time>2021-01-29T13:52:04Z</time>
      </trkpt>
      <trkpt lat="42.76925" lon="0.15848">
        <ele>2334.8</ele>
        <time>2021-01-29T13:52:05Z</time>
      </trkpt>
      <trkpt lat="42.76925" lon="0.15848">
        <ele>2334.8</ele>
        <time>2021-01-29T13:52:06Z</time>
      </trkpt>
      <trkpt lat="42.76925" lon="0.15848">
        <ele>2334.8</ele>
        <time>2021-01-29T13:52:07Z</time>
      </trkpt>
      <trkpt lat="42.76925" lon="0.15848">
        <ele>2334.8</ele>
        <time>2021-01-29T13:52:08Z</time>
      </trkpt>
      <trkpt lat="42.76925" lon="0.15848">
        <ele>2334.8</ele>
        <time>2021-01-29T13:52:09Z</time>
      </trkpt>
      <trkpt lat="42.76925" lon="0.15848">
        <ele>2334.8</ele>
        <time>2021-01-29T13:52:10Z</time>
      </trkpt>
      <trkpt lat="42.76925" lon="0.15848">
        <ele>2334.8</ele>
        <time>2021-01-29T13:52:11Z</time>
      </trkpt>
      <trkpt lat="42.76925" lon="0.15848">
        <ele>2334.6</ele>
        <time>2021-01-29T13:52:12Z</time>
      </trkpt>
      <trkpt lat="42.76925" lon="0.15848">
        <ele>2334.6</ele>
        <time>2021-01-29T13:52:13Z</time>
      </trkpt>
      <trkpt lat="42.76925" lon="0.15848">
        <ele>2334.6</ele>
        <time>2021-01-29T13:52:14Z</time>
      </trkpt>
      <trkpt lat="42.76925" lon="0.15848">
        <ele>2334.4</ele>
        <time>2021-01-29T13:52:15Z</time>
      </trkpt>
      <trkpt lat="42.76925" lon="0.15848">
        <ele>2334.4</ele>
        <time>2021-01-29T13:52:16Z</time>
      </trkpt>
      <trkpt lat="42.76925" lon="0.15848">
        <ele>2334.4</ele>
        <time>2021-01-29T13:52:17Z</time>
      </trkpt>
      <trkpt lat="42.76925" lon="0.15848">
        <ele>2334.4</ele>
        <time>2021-01-29T13:52:18Z</time>
      </trkpt>
      <trkpt lat="42.76925" lon="0.15848">
        <ele>2334.4</ele>
        <time>2021-01-29T13:52:19Z</time>
      </trkpt>
      <trkpt lat="42.76925" lon="0.15848">
        <ele>2334.4</ele>
        <time>2021-01-29T13:52:20Z</time>
      </trkpt>
      <trkpt lat="42.76925" lon="0.15848">
        <ele>2334.4</ele>
        <time>2021-01-29T13:52:21Z</time>
      </trkpt>
      <trkpt lat="42.76925" lon="0.15848">
        <ele>2334.6</ele>
        <time>2021-01-29T13:52:22Z</time>
      </trkpt>
      <trkpt lat="42.76925" lon="0.15848">
        <ele>2334.6</ele>
        <time>2021-01-29T13:52:23Z</time>
      </trkpt>
      <trkpt lat="42.76925" lon="0.15848">
        <ele>2334.6</ele>
        <time>2021-01-29T13:52:24Z</time>
      </trkpt>
      <trkpt lat="42.76925" lon="0.15848">
        <ele>2334.6</ele>
        <time>2021-01-29T13:52:25Z</time>
      </trkpt>
      <trkpt lat="42.76925" lon="0.15848">
        <ele>2334.6</ele>
        <time>2021-01-29T13:52:26Z</time>
      </trkpt>
      <trkpt lat="42.76925" lon="0.15848">
        <ele>2334.6</ele>
        <time>2021-01-29T13:52:27Z</time>
      </trkpt>
      <trkpt lat="42.76925" lon="0.15848">
        <ele>2334.8</ele>
        <time>2021-01-29T13:52:28Z</time>
      </trkpt>
      <trkpt lat="42.76925" lon="0.15848">
        <ele>2334.8</ele>
        <time>2021-01-29T13:52:29Z</time>
      </trkpt>
      <trkpt lat="42.76925" lon="0.15848">
        <ele>2334.8</ele>
        <time>2021-01-29T13:52:30Z</time>
      </trkpt>
      <trkpt lat="42.76925" lon="0.15848">
        <ele>2334.8</ele>
        <time>2021-01-29T13:52:31Z</time>
      </trkpt>
      <trkpt lat="42.76925" lon="0.15848">
        <ele>2335</ele>
        <time>2021-01-29T13:52:32Z</time>
      </trkpt>
      <trkpt lat="42.76925" lon="0.15848">
        <ele>2335</ele>
        <time>2021-01-29T13:52:33Z</time>
      </trkpt>
      <trkpt lat="42.76925" lon="0.15848">
        <ele>2335</ele>
        <time>2021-01-29T13:52:34Z</time>
      </trkpt>
      <trkpt lat="42.76925" lon="0.15848">
        <ele>2335</ele>
        <time>2021-01-29T13:52:35Z</time>
      </trkpt>
      <trkpt lat="42.76925" lon="0.15848">
        <ele>2335</ele>
        <time>2021-01-29T13:52:36Z</time>
      </trkpt>
      <trkpt lat="42.76925" lon="0.15848">
        <ele>2335</ele>
        <time>2021-01-29T13:52:37Z</time>
      </trkpt>
      <trkpt lat="42.76925" lon="0.15848">
        <ele>2335</ele>
        <time>2021-01-29T13:52:38Z</time>
      </trkpt>
      <trkpt lat="42.76925" lon="0.15848">
        <ele>2335</ele>
        <time>2021-01-29T13:52:39Z</time>
      </trkpt>
      <trkpt lat="42.76925" lon="0.15848">
        <ele>2335</ele>
        <time>2021-01-29T13:52:40Z</time>
      </trkpt>
      <trkpt lat="42.76925" lon="0.15848">
        <ele>2335</ele>
        <time>2021-01-29T13:52:41Z</time>
      </trkpt>
      <trkpt lat="42.76925" lon="0.15848">
        <ele>2335</ele>
        <time>2021-01-29T13:52:42Z</time>
      </trkpt>
      <trkpt lat="42.76925" lon="0.15848">
        <ele>2335</ele>
        <time>2021-01-29T13:52:43Z</time>
      </trkpt>
      <trkpt lat="42.76925" lon="0.15848">
        <ele>2335</ele>
        <time>2021-01-29T13:52:44Z</time>
      </trkpt>
      <trkpt lat="42.76925" lon="0.15848">
        <ele>2335</ele>
        <time>2021-01-29T13:52:45Z</time>
      </trkpt>
      <trkpt lat="42.76925" lon="0.15848">
        <ele>2335</ele>
        <time>2021-01-29T13:52:46Z</time>
      </trkpt>
      <trkpt lat="42.76925" lon="0.15848">
        <ele>2335</ele>
        <time>2021-01-29T13:52:47Z</time>
      </trkpt>
      <trkpt lat="42.76925" lon="0.15848">
        <ele>2335</ele>
        <time>2021-01-29T13:52:48Z</time>
      </trkpt>
      <trkpt lat="42.76925" lon="0.15848">
        <ele>2335</ele>
        <time>2021-01-29T13:52:49Z</time>
      </trkpt>
      <trkpt lat="42.76925" lon="0.15848">
        <ele>2335</ele>
        <time>2021-01-29T13:52:50Z</time>
      </trkpt>
      <trkpt lat="42.76925" lon="0.15848">
        <ele>2335</ele>
        <time>2021-01-29T13:52:51Z</time>
      </trkpt>
      <trkpt lat="42.76925" lon="0.15848">
        <ele>2335</ele>
        <time>2021-01-29T13:52:52Z</time>
      </trkpt>
      <trkpt lat="42.76925" lon="0.15848">
        <ele>2335</ele>
        <time>2021-01-29T13:52:53Z</time>
      </trkpt>
      <trkpt lat="42.76925" lon="0.15848">
        <ele>2335</ele>
        <time>2021-01-29T13:52:54Z</time>
      </trkpt>
      <trkpt lat="42.76925" lon="0.15848">
        <ele>2335</ele>
        <time>2021-01-29T13:52:55Z</time>
      </trkpt>
      <trkpt lat="42.76925" lon="0.15848">
        <ele>2335</ele>
        <time>2021-01-29T13:52:56Z</time>
      </trkpt>
      <trkpt lat="42.76925" lon="0.15848">
        <ele>2335.2</ele>
        <time>2021-01-29T13:52:57Z</time>
      </trkpt>
      <trkpt lat="42.76925" lon="0.15848">
        <ele>2335.2</ele>
        <time>2021-01-29T13:52:58Z</time>
      </trkpt>
      <trkpt lat="42.76925" lon="0.15848">
        <ele>2335.2</ele>
        <time>2021-01-29T13:52:59Z</time>
      </trkpt>
      <trkpt lat="42.76925" lon="0.15848">
        <ele>2335.2</ele>
        <time>2021-01-29T13:53:00Z</time>
      </trkpt>
      <trkpt lat="42.76925" lon="0.15848">
        <ele>2335.2</ele>
        <time>2021-01-29T13:53:01Z</time>
      </trkpt>
      <trkpt lat="42.76925" lon="0.15848">
        <ele>2335.2</ele>
        <time>2021-01-29T13:53:02Z</time>
      </trkpt>
      <trkpt lat="42.76925" lon="0.15848">
        <ele>2335.2</ele>
        <time>2021-01-29T13:53:03Z</time>
      </trkpt>
      <trkpt lat="42.76925" lon="0.15848">
        <ele>2335.2</ele>
        <time>2021-01-29T13:53:04Z</time>
      </trkpt>
      <trkpt lat="42.76925" lon="0.15848">
        <ele>2335.2</ele>
        <time>2021-01-29T13:53:05Z</time>
      </trkpt>
      <trkpt lat="42.76925" lon="0.15848">
        <ele>2335.2</ele>
        <time>2021-01-29T13:53:06Z</time>
      </trkpt>
      <trkpt lat="42.76925" lon="0.15848">
        <ele>2335.2</ele>
        <time>2021-01-29T13:53:07Z</time>
      </trkpt>
      <trkpt lat="42.76925" lon="0.15848">
        <ele>2335.2</ele>
        <time>2021-01-29T13:53:08Z</time>
      </trkpt>
      <trkpt lat="42.76925" lon="0.15848">
        <ele>2335.2</ele>
        <time>2021-01-29T13:53:09Z</time>
      </trkpt>
      <trkpt lat="42.76925" lon="0.15848">
        <ele>2335.2</ele>
        <time>2021-01-29T13:53:10Z</time>
      </trkpt>
      <trkpt lat="42.76925" lon="0.15848">
        <ele>2335.2</ele>
        <time>2021-01-29T13:53:11Z</time>
      </trkpt>
      <trkpt lat="42.76925" lon="0.15848">
        <ele>2335.2</ele>
        <time>2021-01-29T13:53:12Z</time>
      </trkpt>
      <trkpt lat="42.76925" lon="0.15848">
        <ele>2335.2</ele>
        <time>2021-01-29T13:53:13Z</time>
      </trkpt>
      <trkpt lat="42.76925" lon="0.15848">
        <ele>2335.2</ele>
        <time>2021-01-29T13:53:14Z</time>
      </trkpt>
      <trkpt lat="42.76925" lon="0.15848">
        <ele>2335.2</ele>
        <time>2021-01-29T13:53:15Z</time>
      </trkpt>
      <trkpt lat="42.76925" lon="0.15848">
        <ele>2335.2</ele>
        <time>2021-01-29T13:53:16Z</time>
      </trkpt>
      <trkpt lat="42.76925" lon="0.15848">
        <ele>2335.2</ele>
        <time>2021-01-29T13:53:17Z</time>
      </trkpt>
      <trkpt lat="42.76925" lon="0.15848">
        <ele>2335.2</ele>
        <time>2021-01-29T13:53:18Z</time>
      </trkpt>
      <trkpt lat="42.76925" lon="0.15848">
        <ele>2335.2</ele>
        <time>2021-01-29T13:53:19Z</time>
      </trkpt>
      <trkpt lat="42.76925" lon="0.15848">
        <ele>2335.2</ele>
        <time>2021-01-29T13:53:20Z</time>
      </trkpt>
      <trkpt lat="42.76925" lon="0.15848">
        <ele>2335.2</ele>
        <time>2021-01-29T13:53:21Z</time>
      </trkpt>
      <trkpt lat="42.76925" lon="0.15848">
        <ele>2335.2</ele>
        <time>2021-01-29T13:53:22Z</time>
      </trkpt>
      <trkpt lat="42.76925" lon="0.15848">
        <ele>2335.2</ele>
        <time>2021-01-29T13:53:23Z</time>
      </trkpt>
      <trkpt lat="42.76925" lon="0.15848">
        <ele>2335.2</ele>
        <time>2021-01-29T13:53:24Z</time>
      </trkpt>
      <trkpt lat="42.76925" lon="0.15848">
        <ele>2335.2</ele>
        <time>2021-01-29T13:53:25Z</time>
      </trkpt>
      <trkpt lat="42.76925" lon="0.15848">
        <ele>2335.2</ele>
        <time>2021-01-29T13:53:26Z</time>
      </trkpt>
      <trkpt lat="42.76925" lon="0.15848">
        <ele>2335.2</ele>
        <time>2021-01-29T13:53:27Z</time>
      </trkpt>
      <trkpt lat="42.76925" lon="0.15848">
        <ele>2335.2</ele>
        <time>2021-01-29T13:53:28Z</time>
      </trkpt>
      <trkpt lat="42.76925" lon="0.15848">
        <ele>2335.2</ele>
        <time>2021-01-29T13:53:29Z</time>
      </trkpt>
      <trkpt lat="42.76925" lon="0.15848">
        <ele>2335.2</ele>
        <time>2021-01-29T13:53:30Z</time>
      </trkpt>
      <trkpt lat="42.76925" lon="0.15848">
        <ele>2335.2</ele>
        <time>2021-01-29T13:53:31Z</time>
      </trkpt>
      <trkpt lat="42.76925" lon="0.15848">
        <ele>2335.2</ele>
        <time>2021-01-29T13:53:32Z</time>
      </trkpt>
      <trkpt lat="42.76925" lon="0.15848">
        <ele>2335.2</ele>
        <time>2021-01-29T13:53:33Z</time>
      </trkpt>
      <trkpt lat="42.76925" lon="0.15848">
        <ele>2335.2</ele>
        <time>2021-01-29T13:53:34Z</time>
      </trkpt>
      <trkpt lat="42.76925" lon="0.15848">
        <ele>2335.2</ele>
        <time>2021-01-29T13:53:35Z</time>
      </trkpt>
      <trkpt lat="42.76925" lon="0.15848">
        <ele>2335.4</ele>
        <time>2021-01-29T13:53:36Z</time>
      </trkpt>
      <trkpt lat="42.76925" lon="0.15848">
        <ele>2335.4</ele>
        <time>2021-01-29T13:53:37Z</time>
      </trkpt>
      <trkpt lat="42.76925" lon="0.15848">
        <ele>2335.4</ele>
        <time>2021-01-29T13:53:38Z</time>
      </trkpt>
      <trkpt lat="42.76925" lon="0.15848">
        <ele>2335.2</ele>
        <time>2021-01-29T13:53:39Z</time>
      </trkpt>
      <trkpt lat="42.76925" lon="0.15848">
        <ele>2335.4</ele>
        <time>2021-01-29T13:53:40Z</time>
      </trkpt>
      <trkpt lat="42.76925" lon="0.15848">
        <ele>2335.4</ele>
        <time>2021-01-29T13:53:41Z</time>
      </trkpt>
      <trkpt lat="42.76925" lon="0.15848">
        <ele>2335.2</ele>
        <time>2021-01-29T13:53:42Z</time>
      </trkpt>
      <trkpt lat="42.76925" lon="0.15848">
        <ele>2335.2</ele>
        <time>2021-01-29T13:53:43Z</time>
      </trkpt>
      <trkpt lat="42.76925" lon="0.15848">
        <ele>2335.2</ele>
        <time>2021-01-29T13:53:44Z</time>
      </trkpt>
      <trkpt lat="42.76925" lon="0.15848">
        <ele>2335.2</ele>
        <time>2021-01-29T13:53:45Z</time>
      </trkpt>
      <trkpt lat="42.76925" lon="0.15848">
        <ele>2335.2</ele>
        <time>2021-01-29T13:53:46Z</time>
      </trkpt>
      <trkpt lat="42.76925" lon="0.15848">
        <ele>2335.2</ele>
        <time>2021-01-29T13:53:47Z</time>
      </trkpt>
      <trkpt lat="42.76925" lon="0.15848">
        <ele>2335.2</ele>
        <time>2021-01-29T13:53:48Z</time>
      </trkpt>
      <trkpt lat="42.76925" lon="0.15848">
        <ele>2335.2</ele>
        <time>2021-01-29T13:53:49Z</time>
      </trkpt>
      <trkpt lat="42.76925" lon="0.15848">
        <ele>2335.2</ele>
        <time>2021-01-29T13:53:50Z</time>
      </trkpt>
      <trkpt lat="42.76925" lon="0.15848">
        <ele>2335.2</ele>
        <time>2021-01-29T13:53:51Z</time>
      </trkpt>
      <trkpt lat="42.76925" lon="0.15848">
        <ele>2335.2</ele>
        <time>2021-01-29T13:53:52Z</time>
      </trkpt>
      <trkpt lat="42.76925" lon="0.15848">
        <ele>2335.4</ele>
        <time>2021-01-29T13:53:53Z</time>
      </trkpt>
      <trkpt lat="42.76925" lon="0.15848">
        <ele>2335.4</ele>
        <time>2021-01-29T13:53:54Z</time>
      </trkpt>
      <trkpt lat="42.76925" lon="0.15848">
        <ele>2335.4</ele>
        <time>2021-01-29T13:53:55Z</time>
      </trkpt>
      <trkpt lat="42.76925" lon="0.15848">
        <ele>2335.4</ele>
        <time>2021-01-29T13:53:56Z</time>
      </trkpt>
      <trkpt lat="42.76925" lon="0.15848">
        <ele>2335.4</ele>
        <time>2021-01-29T13:53:57Z</time>
      </trkpt>
      <trkpt lat="42.76925" lon="0.15848">
        <ele>2335.4</ele>
        <time>2021-01-29T13:53:58Z</time>
      </trkpt>
      <trkpt lat="42.76925" lon="0.15848">
        <ele>2335.2</ele>
        <time>2021-01-29T13:53:59Z</time>
      </trkpt>
      <trkpt lat="42.76925" lon="0.15848">
        <ele>2335.2</ele>
        <time>2021-01-29T13:54:00Z</time>
      </trkpt>
      <trkpt lat="42.76925" lon="0.15848">
        <ele>2335.2</ele>
        <time>2021-01-29T13:54:01Z</time>
      </trkpt>
      <trkpt lat="42.76925" lon="0.15848">
        <ele>2335.2</ele>
        <time>2021-01-29T13:54:02Z</time>
      </trkpt>
      <trkpt lat="42.76925" lon="0.15848">
        <ele>2335.2</ele>
        <time>2021-01-29T13:54:03Z</time>
      </trkpt>
      <trkpt lat="42.76925" lon="0.15848">
        <ele>2335.2</ele>
        <time>2021-01-29T13:54:04Z</time>
      </trkpt>
      <trkpt lat="42.76925" lon="0.15848">
        <ele>2335.4</ele>
        <time>2021-01-29T13:54:05Z</time>
      </trkpt>
      <trkpt lat="42.76925" lon="0.15848">
        <ele>2335.2</ele>
        <time>2021-01-29T13:54:06Z</time>
      </trkpt>
      <trkpt lat="42.76925" lon="0.15848">
        <ele>2335.4</ele>
        <time>2021-01-29T13:54:07Z</time>
      </trkpt>
      <trkpt lat="42.76925" lon="0.15848">
        <ele>2335.4</ele>
        <time>2021-01-29T13:54:08Z</time>
      </trkpt>
      <trkpt lat="42.76925" lon="0.15848">
        <ele>2335.4</ele>
        <time>2021-01-29T13:54:09Z</time>
      </trkpt>
      <trkpt lat="42.76925" lon="0.15848">
        <ele>2335.4</ele>
        <time>2021-01-29T13:54:10Z</time>
      </trkpt>
      <trkpt lat="42.76925" lon="0.15848">
        <ele>2335.4</ele>
        <time>2021-01-29T13:54:11Z</time>
      </trkpt>
      <trkpt lat="42.76925" lon="0.15848">
        <ele>2335.4</ele>
        <time>2021-01-29T13:54:12Z</time>
      </trkpt>
      <trkpt lat="42.76925" lon="0.15848">
        <ele>2335.4</ele>
        <time>2021-01-29T13:54:13Z</time>
      </trkpt>
      <trkpt lat="42.76925" lon="0.15848">
        <ele>2335.4</ele>
        <time>2021-01-29T13:54:14Z</time>
      </trkpt>
      <trkpt lat="42.76925" lon="0.15848">
        <ele>2335.4</ele>
        <time>2021-01-29T13:54:15Z</time>
      </trkpt>
      <trkpt lat="42.76925" lon="0.15848">
        <ele>2335.4</ele>
        <time>2021-01-29T13:54:16Z</time>
      </trkpt>
      <trkpt lat="42.76925" lon="0.15848">
        <ele>2335.4</ele>
        <time>2021-01-29T13:54:17Z</time>
      </trkpt>
      <trkpt lat="42.76925" lon="0.15848">
        <ele>2335.2</ele>
        <time>2021-01-29T13:54:18Z</time>
      </trkpt>
      <trkpt lat="42.76925" lon="0.15848">
        <ele>2335.2</ele>
        <time>2021-01-29T13:54:19Z</time>
      </trkpt>
      <trkpt lat="42.76925" lon="0.15848">
        <ele>2335.2</ele>
        <time>2021-01-29T13:54:20Z</time>
      </trkpt>
      <trkpt lat="42.76924" lon="0.15846">
        <ele>2335.2</ele>
        <time>2021-01-29T13:54:21Z</time>
      </trkpt>
      <trkpt lat="42.76924" lon="0.15843">
        <ele>2335.4</ele>
        <time>2021-01-29T13:54:22Z</time>
      </trkpt>
      <trkpt lat="42.76923" lon="0.15842">
        <ele>2335.4</ele>
        <time>2021-01-29T13:54:23Z</time>
      </trkpt>
      <trkpt lat="42.76923" lon="0.15842">
        <ele>2335.6</ele>
        <time>2021-01-29T13:54:24Z</time>
      </trkpt>
      <trkpt lat="42.76922" lon="0.15842">
        <ele>2335.6</ele>
        <time>2021-01-29T13:54:25Z</time>
      </trkpt>
      <trkpt lat="42.76922" lon="0.15841">
        <ele>2336</ele>
        <time>2021-01-29T13:54:26Z</time>
      </trkpt>
      <trkpt lat="42.76922" lon="0.15841">
        <ele>2335.8</ele>
        <time>2021-01-29T13:54:27Z</time>
      </trkpt>
      <trkpt lat="42.76921" lon="0.15841">
        <ele>2336.2</ele>
        <time>2021-01-29T13:54:28Z</time>
      </trkpt>
      <trkpt lat="42.76921" lon="0.1584">
        <ele>2336.2</ele>
        <time>2021-01-29T13:54:29Z</time>
      </trkpt>
      <trkpt lat="42.7692" lon="0.1584">
        <ele>2336.4</ele>
        <time>2021-01-29T13:54:30Z</time>
      </trkpt>
      <trkpt lat="42.7692" lon="0.1584">
        <ele>2336.6</ele>
        <time>2021-01-29T13:54:31Z</time>
      </trkpt>
      <trkpt lat="42.7692" lon="0.1584">
        <ele>2336.8</ele>
        <time>2021-01-29T13:54:32Z</time>
      </trkpt>
      <trkpt lat="42.7692" lon="0.1584">
        <ele>2337</ele>
        <time>2021-01-29T13:54:33Z</time>
      </trkpt>
      <trkpt lat="42.7692" lon="0.1584">
        <ele>2337</ele>
        <time>2021-01-29T13:54:34Z</time>
      </trkpt>
      <trkpt lat="42.7692" lon="0.1584">
        <ele>2337.2</ele>
        <time>2021-01-29T13:54:35Z</time>
      </trkpt>
      <trkpt lat="42.7692" lon="0.1584">
        <ele>2337.2</ele>
        <time>2021-01-29T13:54:36Z</time>
      </trkpt>
      <trkpt lat="42.7692" lon="0.1584">
        <ele>2337.6</ele>
        <time>2021-01-29T13:54:37Z</time>
      </trkpt>
      <trkpt lat="42.76918" lon="0.15838">
        <ele>2337.6</ele>
        <time>2021-01-29T13:54:38Z</time>
      </trkpt>
      <trkpt lat="42.76916" lon="0.15837">
        <ele>2337.8</ele>
        <time>2021-01-29T13:54:39Z</time>
      </trkpt>
      <trkpt lat="42.76915" lon="0.15837">
        <ele>2337.8</ele>
        <time>2021-01-29T13:54:40Z</time>
      </trkpt>
      <trkpt lat="42.76915" lon="0.15836">
        <ele>2338</ele>
        <time>2021-01-29T13:54:41Z</time>
      </trkpt>
      <trkpt lat="42.76915" lon="0.15836">
        <ele>2338</ele>
        <time>2021-01-29T13:54:42Z</time>
      </trkpt>
      <trkpt lat="42.76914" lon="0.15836">
        <ele>2338.2</ele>
        <time>2021-01-29T13:54:43Z</time>
      </trkpt>
      <trkpt lat="42.76914" lon="0.15835">
        <ele>2338.4</ele>
        <time>2021-01-29T13:54:44Z</time>
      </trkpt>
      <trkpt lat="42.76913" lon="0.15835">
        <ele>2338.4</ele>
        <time>2021-01-29T13:54:45Z</time>
      </trkpt>
      <trkpt lat="42.76913" lon="0.15835">
        <ele>2338.6</ele>
        <time>2021-01-29T13:54:46Z</time>
      </trkpt>
      <trkpt lat="42.76912" lon="0.15834">
        <ele>2338.8</ele>
        <time>2021-01-29T13:54:47Z</time>
      </trkpt>
      <trkpt lat="42.76911" lon="0.15834">
        <ele>2339</ele>
        <time>2021-01-29T13:54:48Z</time>
      </trkpt>
      <trkpt lat="42.76911" lon="0.15833">
        <ele>2339</ele>
        <time>2021-01-29T13:54:49Z</time>
      </trkpt>
      <trkpt lat="42.7691" lon="0.15833">
        <ele>2339.2</ele>
        <time>2021-01-29T13:54:50Z</time>
      </trkpt>
      <trkpt lat="42.7691" lon="0.15833">
        <ele>2339.2</ele>
        <time>2021-01-29T13:54:51Z</time>
      </trkpt>
      <trkpt lat="42.7691" lon="0.15833">
        <ele>2339.6</ele>
        <time>2021-01-29T13:54:52Z</time>
      </trkpt>
      <trkpt lat="42.76909" lon="0.15832">
        <ele>2339.6</ele>
        <time>2021-01-29T13:54:53Z</time>
      </trkpt>
      <trkpt lat="42.76908" lon="0.15832">
        <ele>2339.8</ele>
        <time>2021-01-29T13:54:54Z</time>
      </trkpt>
      <trkpt lat="42.76908" lon="0.15831">
        <ele>2340</ele>
        <time>2021-01-29T13:54:55Z</time>
      </trkpt>
      <trkpt lat="42.76907" lon="0.15831">
        <ele>2340</ele>
        <time>2021-01-29T13:54:56Z</time>
      </trkpt>
      <trkpt lat="42.76906" lon="0.1583">
        <ele>2340.2</ele>
        <time>2021-01-29T13:54:57Z</time>
      </trkpt>
      <trkpt lat="42.76906" lon="0.1583">
        <ele>2340.2</ele>
        <time>2021-01-29T13:54:58Z</time>
      </trkpt>
      <trkpt lat="42.76905" lon="0.15829">
        <ele>2340.4</ele>
        <time>2021-01-29T13:54:59Z</time>
      </trkpt>
      <trkpt lat="42.76905" lon="0.15829">
        <ele>2340.6</ele>
        <time>2021-01-29T13:55:00Z</time>
      </trkpt>
      <trkpt lat="42.76904" lon="0.15828">
        <ele>2340.8</ele>
        <time>2021-01-29T13:55:01Z</time>
      </trkpt>
      <trkpt lat="42.76904" lon="0.15828">
        <ele>2341</ele>
        <time>2021-01-29T13:55:02Z</time>
      </trkpt>
      <trkpt lat="42.76903" lon="0.15827">
        <ele>2341.2</ele>
        <time>2021-01-29T13:55:03Z</time>
      </trkpt>
      <trkpt lat="42.76903" lon="0.15827">
        <ele>2341.2</ele>
        <time>2021-01-29T13:55:04Z</time>
      </trkpt>
      <trkpt lat="42.76902" lon="0.15826">
        <ele>2341.4</ele>
        <time>2021-01-29T13:55:05Z</time>
      </trkpt>
      <trkpt lat="42.76902" lon="0.15826">
        <ele>2341.4</ele>
        <time>2021-01-29T13:55:06Z</time>
      </trkpt>
      <trkpt lat="42.76901" lon="0.15826">
        <ele>2341.6</ele>
        <time>2021-01-29T13:55:07Z</time>
      </trkpt>
      <trkpt lat="42.769" lon="0.15826">
        <ele>2341.6</ele>
        <time>2021-01-29T13:55:08Z</time>
      </trkpt>
      <trkpt lat="42.769" lon="0.15825">
        <ele>2341.8</ele>
        <time>2021-01-29T13:55:09Z</time>
      </trkpt>
      <trkpt lat="42.76899" lon="0.15825">
        <ele>2342</ele>
        <time>2021-01-29T13:55:10Z</time>
      </trkpt>
      <trkpt lat="42.76899" lon="0.15825">
        <ele>2342</ele>
        <time>2021-01-29T13:55:11Z</time>
      </trkpt>
      <trkpt lat="42.76898" lon="0.15824">
        <ele>2342.2</ele>
        <time>2021-01-29T13:55:12Z</time>
      </trkpt>
      <trkpt lat="42.76898" lon="0.15824">
        <ele>2342.2</ele>
        <time>2021-01-29T13:55:13Z</time>
      </trkpt>
      <trkpt lat="42.76898" lon="0.15823">
        <ele>2342.6</ele>
        <time>2021-01-29T13:55:14Z</time>
      </trkpt>
      <trkpt lat="42.76897" lon="0.15823">
        <ele>2342.6</ele>
        <time>2021-01-29T13:55:15Z</time>
      </trkpt>
      <trkpt lat="42.76897" lon="0.15822">
        <ele>2342.8</ele>
        <time>2021-01-29T13:55:16Z</time>
      </trkpt>
      <trkpt lat="42.76897" lon="0.15822">
        <ele>2343</ele>
        <time>2021-01-29T13:55:17Z</time>
      </trkpt>
      <trkpt lat="42.76896" lon="0.15821">
        <ele>2343.2</ele>
        <time>2021-01-29T13:55:18Z</time>
      </trkpt>
      <trkpt lat="42.76896" lon="0.15821">
        <ele>2343.2</ele>
        <time>2021-01-29T13:55:19Z</time>
      </trkpt>
      <trkpt lat="42.76895" lon="0.1582">
        <ele>2343.4</ele>
        <time>2021-01-29T13:55:20Z</time>
      </trkpt>
      <trkpt lat="42.76895" lon="0.1582">
        <ele>2343.6</ele>
        <time>2021-01-29T13:55:21Z</time>
      </trkpt>
      <trkpt lat="42.76894" lon="0.15819">
        <ele>2343.6</ele>
        <time>2021-01-29T13:55:22Z</time>
      </trkpt>
      <trkpt lat="42.76894" lon="0.15819">
        <ele>2343.8</ele>
        <time>2021-01-29T13:55:23Z</time>
      </trkpt>
      <trkpt lat="42.76894" lon="0.15818">
        <ele>2343.8</ele>
        <time>2021-01-29T13:55:24Z</time>
      </trkpt>
      <trkpt lat="42.76893" lon="0.15818">
        <ele>2343.8</ele>
        <time>2021-01-29T13:55:25Z</time>
      </trkpt>
      <trkpt lat="42.76893" lon="0.15817">
        <ele>2344.2</ele>
        <time>2021-01-29T13:55:26Z</time>
      </trkpt>
      <trkpt lat="42.76893" lon="0.15816">
        <ele>2344</ele>
        <time>2021-01-29T13:55:27Z</time>
      </trkpt>
      <trkpt lat="42.76892" lon="0.15816">
        <ele>2344.4</ele>
        <time>2021-01-29T13:55:28Z</time>
      </trkpt>
      <trkpt lat="42.76892" lon="0.15815">
        <ele>2344.4</ele>
        <time>2021-01-29T13:55:29Z</time>
      </trkpt>
      <trkpt lat="42.76891" lon="0.15815">
        <ele>2344.6</ele>
        <time>2021-01-29T13:55:30Z</time>
      </trkpt>
      <trkpt lat="42.76891" lon="0.15814">
        <ele>2344.8</ele>
        <time>2021-01-29T13:55:31Z</time>
      </trkpt>
      <trkpt lat="42.76891" lon="0.15813">
        <ele>2344.8</ele>
        <time>2021-01-29T13:55:32Z</time>
      </trkpt>
      <trkpt lat="42.7689" lon="0.15813">
        <ele>2345</ele>
        <time>2021-01-29T13:55:33Z</time>
      </trkpt>
      <trkpt lat="42.7689" lon="0.15812">
        <ele>2345.2</ele>
        <time>2021-01-29T13:55:34Z</time>
      </trkpt>
      <trkpt lat="42.7689" lon="0.15812">
        <ele>2345.2</ele>
        <time>2021-01-29T13:55:35Z</time>
      </trkpt>
      <trkpt lat="42.76889" lon="0.15811">
        <ele>2345.4</ele>
        <time>2021-01-29T13:55:36Z</time>
      </trkpt>
      <trkpt lat="42.76889" lon="0.1581">
        <ele>2345.4</ele>
        <time>2021-01-29T13:55:37Z</time>
      </trkpt>
      <trkpt lat="42.76889" lon="0.1581">
        <ele>2345.8</ele>
        <time>2021-01-29T13:55:38Z</time>
      </trkpt>
      <trkpt lat="42.76888" lon="0.15809">
        <ele>2345.8</ele>
        <time>2021-01-29T13:55:39Z</time>
      </trkpt>
      <trkpt lat="42.76888" lon="0.15808">
        <ele>2346</ele>
        <time>2021-01-29T13:55:40Z</time>
      </trkpt>
      <trkpt lat="42.76888" lon="0.15808">
        <ele>2346</ele>
        <time>2021-01-29T13:55:41Z</time>
      </trkpt>
      <trkpt lat="42.76887" lon="0.15807">
        <ele>2346</ele>
        <time>2021-01-29T13:55:42Z</time>
      </trkpt>
      <trkpt lat="42.76887" lon="0.15806">
        <ele>2346.2</ele>
        <time>2021-01-29T13:55:43Z</time>
      </trkpt>
      <trkpt lat="42.76886" lon="0.15806">
        <ele>2346.2</ele>
        <time>2021-01-29T13:55:44Z</time>
      </trkpt>
      <trkpt lat="42.76886" lon="0.15805">
        <ele>2346.4</ele>
        <time>2021-01-29T13:55:45Z</time>
      </trkpt>
      <trkpt lat="42.76886" lon="0.15804">
        <ele>2346.6</ele>
        <time>2021-01-29T13:55:46Z</time>
      </trkpt>
      <trkpt lat="42.76885" lon="0.15804">
        <ele>2346.6</ele>
        <time>2021-01-29T13:55:47Z</time>
      </trkpt>
      <trkpt lat="42.76885" lon="0.15803">
        <ele>2346.8</ele>
        <time>2021-01-29T13:55:48Z</time>
      </trkpt>
      <trkpt lat="42.76885" lon="0.15803">
        <ele>2347</ele>
        <time>2021-01-29T13:55:49Z</time>
      </trkpt>
      <trkpt lat="42.76884" lon="0.15802">
        <ele>2347.2</ele>
        <time>2021-01-29T13:55:50Z</time>
      </trkpt>
      <trkpt lat="42.76884" lon="0.15802">
        <ele>2347.2</ele>
        <time>2021-01-29T13:55:51Z</time>
      </trkpt>
      <trkpt lat="42.76884" lon="0.15801">
        <ele>2347.4</ele>
        <time>2021-01-29T13:55:52Z</time>
      </trkpt>
      <trkpt lat="42.76883" lon="0.15801">
        <ele>2347.4</ele>
        <time>2021-01-29T13:55:53Z</time>
      </trkpt>
      <trkpt lat="42.76883" lon="0.158">
        <ele>2347.6</ele>
        <time>2021-01-29T13:55:54Z</time>
      </trkpt>
      <trkpt lat="42.76882" lon="0.15799">
        <ele>2347.8</ele>
        <time>2021-01-29T13:55:55Z</time>
      </trkpt>
      <trkpt lat="42.76882" lon="0.15798">
        <ele>2347.8</ele>
        <time>2021-01-29T13:55:56Z</time>
      </trkpt>
      <trkpt lat="42.76882" lon="0.15798">
        <ele>2348</ele>
        <time>2021-01-29T13:55:57Z</time>
      </trkpt>
      <trkpt lat="42.76882" lon="0.15797">
        <ele>2348.2</ele>
        <time>2021-01-29T13:55:58Z</time>
      </trkpt>
      <trkpt lat="42.76881" lon="0.15797">
        <ele>2348.4</ele>
        <time>2021-01-29T13:55:59Z</time>
      </trkpt>
      <trkpt lat="42.76881" lon="0.15796">
        <ele>2348.6</ele>
        <time>2021-01-29T13:56:00Z</time>
      </trkpt>
      <trkpt lat="42.76881" lon="0.15796">
        <ele>2348.8</ele>
        <time>2021-01-29T13:56:01Z</time>
      </trkpt>
      <trkpt lat="42.7688" lon="0.15795">
        <ele>2348.8</ele>
        <time>2021-01-29T13:56:02Z</time>
      </trkpt>
      <trkpt lat="42.7688" lon="0.15795">
        <ele>2349</ele>
        <time>2021-01-29T13:56:03Z</time>
      </trkpt>
      <trkpt lat="42.76879" lon="0.15794">
        <ele>2349.2</ele>
        <time>2021-01-29T13:56:04Z</time>
      </trkpt>
      <trkpt lat="42.76879" lon="0.15793">
        <ele>2349.2</ele>
        <time>2021-01-29T13:56:05Z</time>
      </trkpt>
      <trkpt lat="42.76879" lon="0.15793">
        <ele>2349.4</ele>
        <time>2021-01-29T13:56:06Z</time>
      </trkpt>
      <trkpt lat="42.76879" lon="0.15793">
        <ele>2349.6</ele>
        <time>2021-01-29T13:56:07Z</time>
      </trkpt>
      <trkpt lat="42.76878" lon="0.15792">
        <ele>2349.8</ele>
        <time>2021-01-29T13:56:08Z</time>
      </trkpt>
      <trkpt lat="42.76878" lon="0.15791">
        <ele>2349.8</ele>
        <time>2021-01-29T13:56:09Z</time>
      </trkpt>
      <trkpt lat="42.76877" lon="0.1579">
        <ele>2350</ele>
        <time>2021-01-29T13:56:10Z</time>
      </trkpt>
      <trkpt lat="42.76877" lon="0.1579">
        <ele>2350</ele>
        <time>2021-01-29T13:56:11Z</time>
      </trkpt>
      <trkpt lat="42.76877" lon="0.15789">
        <ele>2350.2</ele>
        <time>2021-01-29T13:56:12Z</time>
      </trkpt>
      <trkpt lat="42.76877" lon="0.15789">
        <ele>2350.4</ele>
        <time>2021-01-29T13:56:13Z</time>
      </trkpt>
      <trkpt lat="42.76876" lon="0.15788">
        <ele>2350.4</ele>
        <time>2021-01-29T13:56:14Z</time>
      </trkpt>
      <trkpt lat="42.76876" lon="0.15787">
        <ele>2350.8</ele>
        <time>2021-01-29T13:56:15Z</time>
      </trkpt>
      <trkpt lat="42.76876" lon="0.15787">
        <ele>2350.6</ele>
        <time>2021-01-29T13:56:16Z</time>
      </trkpt>
      <trkpt lat="42.76875" lon="0.15786">
        <ele>2351.2</ele>
        <time>2021-01-29T13:56:17Z</time>
      </trkpt>
      <trkpt lat="42.76875" lon="0.15786">
        <ele>2351</ele>
        <time>2021-01-29T13:56:18Z</time>
      </trkpt>
      <trkpt lat="42.76875" lon="0.15785">
        <ele>2351.4</ele>
        <time>2021-01-29T13:56:19Z</time>
      </trkpt>
      <trkpt lat="42.76874" lon="0.15784">
        <ele>2351.4</ele>
        <time>2021-01-29T13:56:20Z</time>
      </trkpt>
      <trkpt lat="42.76874" lon="0.15784">
        <ele>2351.6</ele>
        <time>2021-01-29T13:56:21Z</time>
      </trkpt>
      <trkpt lat="42.76874" lon="0.15783">
        <ele>2351.8</ele>
        <time>2021-01-29T13:56:22Z</time>
      </trkpt>
      <trkpt lat="42.76874" lon="0.15782">
        <ele>2352</ele>
        <time>2021-01-29T13:56:23Z</time>
      </trkpt>
      <trkpt lat="42.76873" lon="0.15782">
        <ele>2352.4</ele>
        <time>2021-01-29T13:56:24Z</time>
      </trkpt>
      <trkpt lat="42.76873" lon="0.15781">
        <ele>2352.4</ele>
        <time>2021-01-29T13:56:25Z</time>
      </trkpt>
      <trkpt lat="42.76873" lon="0.15781">
        <ele>2352.6</ele>
        <time>2021-01-29T13:56:26Z</time>
      </trkpt>
      <trkpt lat="42.76873" lon="0.1578">
        <ele>2352.8</ele>
        <time>2021-01-29T13:56:27Z</time>
      </trkpt>
      <trkpt lat="42.76872" lon="0.1578">
        <ele>2352.8</ele>
        <time>2021-01-29T13:56:28Z</time>
      </trkpt>
      <trkpt lat="42.76872" lon="0.1578">
        <ele>2353.2</ele>
        <time>2021-01-29T13:56:29Z</time>
      </trkpt>
      <trkpt lat="42.76872" lon="0.15779">
        <ele>2353</ele>
        <time>2021-01-29T13:56:30Z</time>
      </trkpt>
      <trkpt lat="42.76871" lon="0.15778">
        <ele>2353.4</ele>
        <time>2021-01-29T13:56:31Z</time>
      </trkpt>
      <trkpt lat="42.76871" lon="0.15778">
        <ele>2353.4</ele>
        <time>2021-01-29T13:56:32Z</time>
      </trkpt>
      <trkpt lat="42.76871" lon="0.15777">
        <ele>2353.6</ele>
        <time>2021-01-29T13:56:33Z</time>
      </trkpt>
      <trkpt lat="42.7687" lon="0.15777">
        <ele>2353.8</ele>
        <time>2021-01-29T13:56:34Z</time>
      </trkpt>
      <trkpt lat="42.7687" lon="0.15777">
        <ele>2354</ele>
        <time>2021-01-29T13:56:35Z</time>
      </trkpt>
      <trkpt lat="42.7687" lon="0.15777">
        <ele>2354.2</ele>
        <time>2021-01-29T13:56:36Z</time>
      </trkpt>
      <trkpt lat="42.7687" lon="0.15776">
        <ele>2354.4</ele>
        <time>2021-01-29T13:56:37Z</time>
      </trkpt>
      <trkpt lat="42.76869" lon="0.15775">
        <ele>2354.6</ele>
        <time>2021-01-29T13:56:38Z</time>
      </trkpt>
      <trkpt lat="42.76869" lon="0.15774">
        <ele>2354.8</ele>
        <time>2021-01-29T13:56:39Z</time>
      </trkpt>
      <trkpt lat="42.76869" lon="0.15774">
        <ele>2354.8</ele>
        <time>2021-01-29T13:56:40Z</time>
      </trkpt>
      <trkpt lat="42.76869" lon="0.15774">
        <ele>2355</ele>
        <time>2021-01-29T13:56:41Z</time>
      </trkpt>
      <trkpt lat="42.76869" lon="0.15773">
        <ele>2355</ele>
        <time>2021-01-29T13:56:42Z</time>
      </trkpt>
      <trkpt lat="42.76868" lon="0.15772">
        <ele>2355.2</ele>
        <time>2021-01-29T13:56:43Z</time>
      </trkpt>
      <trkpt lat="42.76868" lon="0.15772">
        <ele>2355.2</ele>
        <time>2021-01-29T13:56:44Z</time>
      </trkpt>
      <trkpt lat="42.76868" lon="0.15771">
        <ele>2355.4</ele>
        <time>2021-01-29T13:56:45Z</time>
      </trkpt>
      <trkpt lat="42.76867" lon="0.15771">
        <ele>2355.8</ele>
        <time>2021-01-29T13:56:46Z</time>
      </trkpt>
      <trkpt lat="42.76867" lon="0.15771">
        <ele>2355.8</ele>
        <time>2021-01-29T13:56:47Z</time>
      </trkpt>
      <trkpt lat="42.76867" lon="0.15771">
        <ele>2355.8</ele>
        <time>2021-01-29T13:56:48Z</time>
      </trkpt>
      <trkpt lat="42.76867" lon="0.15771">
        <ele>2356</ele>
        <time>2021-01-29T13:56:49Z</time>
      </trkpt>
      <trkpt lat="42.76867" lon="0.1577">
        <ele>2356</ele>
        <time>2021-01-29T13:56:50Z</time>
      </trkpt>
      <trkpt lat="42.76866" lon="0.15769">
        <ele>2356.2</ele>
        <time>2021-01-29T13:56:51Z</time>
      </trkpt>
      <trkpt lat="42.76866" lon="0.15768">
        <ele>2356.4</ele>
        <time>2021-01-29T13:56:52Z</time>
      </trkpt>
      <trkpt lat="42.76865" lon="0.15768">
        <ele>2356.6</ele>
        <time>2021-01-29T13:56:53Z</time>
      </trkpt>
      <trkpt lat="42.76865" lon="0.15768">
        <ele>2356.8</ele>
        <time>2021-01-29T13:56:54Z</time>
      </trkpt>
      <trkpt lat="42.76865" lon="0.15767">
        <ele>2356.8</ele>
        <time>2021-01-29T13:56:55Z</time>
      </trkpt>
      <trkpt lat="42.76865" lon="0.15767">
        <ele>2357</ele>
        <time>2021-01-29T13:56:56Z</time>
      </trkpt>
      <trkpt lat="42.76864" lon="0.15766">
        <ele>2357.2</ele>
        <time>2021-01-29T13:56:57Z</time>
      </trkpt>
      <trkpt lat="42.76864" lon="0.15766">
        <ele>2357.4</ele>
        <time>2021-01-29T13:56:58Z</time>
      </trkpt>
      <trkpt lat="42.76864" lon="0.15766">
        <ele>2357.6</ele>
        <time>2021-01-29T13:56:59Z</time>
      </trkpt>
      <trkpt lat="42.76864" lon="0.15765">
        <ele>2357.8</ele>
        <time>2021-01-29T13:57:00Z</time>
      </trkpt>
      <trkpt lat="42.76863" lon="0.15765">
        <ele>2357.8</ele>
        <time>2021-01-29T13:57:01Z</time>
      </trkpt>
      <trkpt lat="42.76863" lon="0.15764">
        <ele>2358</ele>
        <time>2021-01-29T13:57:02Z</time>
      </trkpt>
      <trkpt lat="42.76863" lon="0.15764">
        <ele>2358</ele>
        <time>2021-01-29T13:57:03Z</time>
      </trkpt>
      <trkpt lat="42.76863" lon="0.15764">
        <ele>2358.2</ele>
        <time>2021-01-29T13:57:04Z</time>
      </trkpt>
      <trkpt lat="42.76863" lon="0.15764">
        <ele>2358.2</ele>
        <time>2021-01-29T13:57:05Z</time>
      </trkpt>
      <trkpt lat="42.76863" lon="0.15764">
        <ele>2358.6</ele>
        <time>2021-01-29T13:57:06Z</time>
      </trkpt>
      <trkpt lat="42.76863" lon="0.15764">
        <ele>2358.6</ele>
        <time>2021-01-29T13:57:07Z</time>
      </trkpt>
      <trkpt lat="42.76863" lon="0.15764">
        <ele>2358.8</ele>
        <time>2021-01-29T13:57:08Z</time>
      </trkpt>
      <trkpt lat="42.76863" lon="0.15764">
        <ele>2359</ele>
        <time>2021-01-29T13:57:09Z</time>
      </trkpt>
      <trkpt lat="42.76862" lon="0.15762">
        <ele>2359</ele>
        <time>2021-01-29T13:57:10Z</time>
      </trkpt>
      <trkpt lat="42.76861" lon="0.1576">
        <ele>2359.2</ele>
        <time>2021-01-29T13:57:11Z</time>
      </trkpt>
      <trkpt lat="42.76861" lon="0.1576">
        <ele>2359.2</ele>
        <time>2021-01-29T13:57:12Z</time>
      </trkpt>
      <trkpt lat="42.7686" lon="0.15759">
        <ele>2359.4</ele>
        <time>2021-01-29T13:57:13Z</time>
      </trkpt>
      <trkpt lat="42.7686" lon="0.15759">
        <ele>2359.6</ele>
        <time>2021-01-29T13:57:14Z</time>
      </trkpt>
      <trkpt lat="42.7686" lon="0.15758">
        <ele>2359.6</ele>
        <time>2021-01-29T13:57:15Z</time>
      </trkpt>
      <trkpt lat="42.7686" lon="0.15758">
        <ele>2359.8</ele>
        <time>2021-01-29T13:57:16Z</time>
      </trkpt>
      <trkpt lat="42.7686" lon="0.15758">
        <ele>2359.8</ele>
        <time>2021-01-29T13:57:17Z</time>
      </trkpt>
      <trkpt lat="42.7686" lon="0.15758">
        <ele>2360</ele>
        <time>2021-01-29T13:57:18Z</time>
      </trkpt>
      <trkpt lat="42.7686" lon="0.15757">
        <ele>2360</ele>
        <time>2021-01-29T13:57:19Z</time>
      </trkpt>
      <trkpt lat="42.76859" lon="0.15755">
        <ele>2360.2</ele>
        <time>2021-01-29T13:57:20Z</time>
      </trkpt>
      <trkpt lat="42.76859" lon="0.15755">
        <ele>2360.4</ele>
        <time>2021-01-29T13:57:21Z</time>
      </trkpt>
      <trkpt lat="42.76859" lon="0.15754">
        <ele>2360.6</ele>
        <time>2021-01-29T13:57:22Z</time>
      </trkpt>
      <trkpt lat="42.76859" lon="0.15754">
        <ele>2360.8</ele>
        <time>2021-01-29T13:57:23Z</time>
      </trkpt>
      <trkpt lat="42.76858" lon="0.15753">
        <ele>2360.8</ele>
        <time>2021-01-29T13:57:24Z</time>
      </trkpt>
      <trkpt lat="42.76858" lon="0.15753">
        <ele>2361</ele>
        <time>2021-01-29T13:57:25Z</time>
      </trkpt>
      <trkpt lat="42.76858" lon="0.15752">
        <ele>2361.2</ele>
        <time>2021-01-29T13:57:26Z</time>
      </trkpt>
      <trkpt lat="42.76857" lon="0.15752">
        <ele>2361.2</ele>
        <time>2021-01-29T13:57:27Z</time>
      </trkpt>
      <trkpt lat="42.76857" lon="0.15752">
        <ele>2361.6</ele>
        <time>2021-01-29T13:57:28Z</time>
      </trkpt>
      <trkpt lat="42.76857" lon="0.15752">
        <ele>2361.4</ele>
        <time>2021-01-29T13:57:29Z</time>
      </trkpt>
      <trkpt lat="42.76856" lon="0.15751">
        <ele>2361.8</ele>
        <time>2021-01-29T13:57:30Z</time>
      </trkpt>
      <trkpt lat="42.76856" lon="0.1575">
        <ele>2361.8</ele>
        <time>2021-01-29T13:57:31Z</time>
      </trkpt>
      <trkpt lat="42.76856" lon="0.1575">
        <ele>2362.2</ele>
        <time>2021-01-29T13:57:32Z</time>
      </trkpt>
      <trkpt lat="42.76856" lon="0.1575">
        <ele>2362.4</ele>
        <time>2021-01-29T13:57:33Z</time>
      </trkpt>
      <trkpt lat="42.76856" lon="0.15749">
        <ele>2362.4</ele>
        <time>2021-01-29T13:57:34Z</time>
      </trkpt>
      <trkpt lat="42.76855" lon="0.15749">
        <ele>2362.6</ele>
        <time>2021-01-29T13:57:35Z</time>
      </trkpt>
      <trkpt lat="42.76855" lon="0.15749">
        <ele>2362.8</ele>
        <time>2021-01-29T13:57:36Z</time>
      </trkpt>
      <trkpt lat="42.76855" lon="0.15748">
        <ele>2362.8</ele>
        <time>2021-01-29T13:57:37Z</time>
      </trkpt>
      <trkpt lat="42.76854" lon="0.15748">
        <ele>2363</ele>
        <time>2021-01-29T13:57:38Z</time>
      </trkpt>
      <trkpt lat="42.76854" lon="0.15748">
        <ele>2363</ele>
        <time>2021-01-29T13:57:39Z</time>
      </trkpt>
      <trkpt lat="42.76854" lon="0.15747">
        <ele>2363.4</ele>
        <time>2021-01-29T13:57:40Z</time>
      </trkpt>
      <trkpt lat="42.76853" lon="0.15747">
        <ele>2363.6</ele>
        <time>2021-01-29T13:57:41Z</time>
      </trkpt>
      <trkpt lat="42.76853" lon="0.15746">
        <ele>2363.6</ele>
        <time>2021-01-29T13:57:42Z</time>
      </trkpt>
      <trkpt lat="42.76853" lon="0.15746">
        <ele>2363.8</ele>
        <time>2021-01-29T13:57:43Z</time>
      </trkpt>
      <trkpt lat="42.76853" lon="0.15746">
        <ele>2363.8</ele>
        <time>2021-01-29T13:57:44Z</time>
      </trkpt>
      <trkpt lat="42.76853" lon="0.15746">
        <ele>2364.2</ele>
        <time>2021-01-29T13:57:45Z</time>
      </trkpt>
      <trkpt lat="42.76853" lon="0.15746">
        <ele>2364.2</ele>
        <time>2021-01-29T13:57:46Z</time>
      </trkpt>
      <trkpt lat="42.76853" lon="0.15746">
        <ele>2364.4</ele>
        <time>2021-01-29T13:57:47Z</time>
      </trkpt>
      <trkpt lat="42.76853" lon="0.15746">
        <ele>2364.6</ele>
        <time>2021-01-29T13:57:48Z</time>
      </trkpt>
      <trkpt lat="42.76852" lon="0.15745">
        <ele>2364.6</ele>
        <time>2021-01-29T13:57:49Z</time>
      </trkpt>
      <trkpt lat="42.76851" lon="0.15743">
        <ele>2365</ele>
        <time>2021-01-29T13:57:50Z</time>
      </trkpt>
      <trkpt lat="42.76851" lon="0.15743">
        <ele>2365</ele>
        <time>2021-01-29T13:57:51Z</time>
      </trkpt>
      <trkpt lat="42.76851" lon="0.15742">
        <ele>2365.4</ele>
        <time>2021-01-29T13:57:52Z</time>
      </trkpt>
      <trkpt lat="42.76851" lon="0.15742">
        <ele>2365.4</ele>
        <time>2021-01-29T13:57:53Z</time>
      </trkpt>
      <trkpt lat="42.76851" lon="0.15742">
        <ele>2365.6</ele>
        <time>2021-01-29T13:57:54Z</time>
      </trkpt>
      <trkpt lat="42.76851" lon="0.15742">
        <ele>2365.8</ele>
        <time>2021-01-29T13:57:55Z</time>
      </trkpt>
      <trkpt lat="42.7685" lon="0.15741">
        <ele>2365.8</ele>
        <time>2021-01-29T13:57:56Z</time>
      </trkpt>
      <trkpt lat="42.76849" lon="0.1574">
        <ele>2366</ele>
        <time>2021-01-29T13:57:57Z</time>
      </trkpt>
      <trkpt lat="42.76849" lon="0.15739">
        <ele>2366</ele>
        <time>2021-01-29T13:57:58Z</time>
      </trkpt>
      <trkpt lat="42.76848" lon="0.15739">
        <ele>2366.2</ele>
        <time>2021-01-29T13:57:59Z</time>
      </trkpt>
      <trkpt lat="42.76848" lon="0.15738">
        <ele>2366.2</ele>
        <time>2021-01-29T13:58:00Z</time>
      </trkpt>
      <trkpt lat="42.76848" lon="0.15738">
        <ele>2366.4</ele>
        <time>2021-01-29T13:58:01Z</time>
      </trkpt>
      <trkpt lat="42.76848" lon="0.15737">
        <ele>2366.6</ele>
        <time>2021-01-29T13:58:02Z</time>
      </trkpt>
      <trkpt lat="42.76848" lon="0.15737">
        <ele>2366.4</ele>
        <time>2021-01-29T13:58:03Z</time>
      </trkpt>
      <trkpt lat="42.76848" lon="0.15737">
        <ele>2366.8</ele>
        <time>2021-01-29T13:58:04Z</time>
      </trkpt>
      <trkpt lat="42.76848" lon="0.15737">
        <ele>2366.8</ele>
        <time>2021-01-29T13:58:05Z</time>
      </trkpt>
      <trkpt lat="42.76848" lon="0.15737">
        <ele>2367</ele>
        <time>2021-01-29T13:58:06Z</time>
      </trkpt>
      <trkpt lat="42.76848" lon="0.15737">
        <ele>2367.2</ele>
        <time>2021-01-29T13:58:07Z</time>
      </trkpt>
      <trkpt lat="42.76848" lon="0.15735">
        <ele>2367.4</ele>
        <time>2021-01-29T13:58:08Z</time>
      </trkpt>
      <trkpt lat="42.76848" lon="0.15733">
        <ele>2367.6</ele>
        <time>2021-01-29T13:58:09Z</time>
      </trkpt>
      <trkpt lat="42.76847" lon="0.15732">
        <ele>2367.8</ele>
        <time>2021-01-29T13:58:10Z</time>
      </trkpt>
      <trkpt lat="42.76847" lon="0.15732">
        <ele>2367.8</ele>
        <time>2021-01-29T13:58:11Z</time>
      </trkpt>
      <trkpt lat="42.76847" lon="0.15731">
        <ele>2368</ele>
        <time>2021-01-29T13:58:12Z</time>
      </trkpt>
      <trkpt lat="42.76847" lon="0.1573">
        <ele>2368.2</ele>
        <time>2021-01-29T13:58:13Z</time>
      </trkpt>
      <trkpt lat="42.76847" lon="0.1573">
        <ele>2368.4</ele>
        <time>2021-01-29T13:58:14Z</time>
      </trkpt>
      <trkpt lat="42.76847" lon="0.15729">
        <ele>2368.6</ele>
        <time>2021-01-29T13:58:15Z</time>
      </trkpt>
      <trkpt lat="42.76847" lon="0.15729">
        <ele>2368.6</ele>
        <time>2021-01-29T13:58:16Z</time>
      </trkpt>
      <trkpt lat="42.76847" lon="0.15729">
        <ele>2368.6</ele>
        <time>2021-01-29T13:58:17Z</time>
      </trkpt>
      <trkpt lat="42.76847" lon="0.15729">
        <ele>2368.8</ele>
        <time>2021-01-29T13:58:18Z</time>
      </trkpt>
      <trkpt lat="42.76847" lon="0.15729">
        <ele>2369</ele>
        <time>2021-01-29T13:58:19Z</time>
      </trkpt>
      <trkpt lat="42.76847" lon="0.15729">
        <ele>2369</ele>
        <time>2021-01-29T13:58:20Z</time>
      </trkpt>
      <trkpt lat="42.76847" lon="0.15727">
        <ele>2369.2</ele>
        <time>2021-01-29T13:58:21Z</time>
      </trkpt>
      <trkpt lat="42.76847" lon="0.15725">
        <ele>2369.2</ele>
        <time>2021-01-29T13:58:22Z</time>
      </trkpt>
      <trkpt lat="42.76847" lon="0.15724">
        <ele>2369.4</ele>
        <time>2021-01-29T13:58:23Z</time>
      </trkpt>
      <trkpt lat="42.76847" lon="0.15724">
        <ele>2369.4</ele>
        <time>2021-01-29T13:58:24Z</time>
      </trkpt>
      <trkpt lat="42.76847" lon="0.15723">
        <ele>2369.6</ele>
        <time>2021-01-29T13:58:25Z</time>
      </trkpt>
      <trkpt lat="42.76847" lon="0.15723">
        <ele>2369.8</ele>
        <time>2021-01-29T13:58:26Z</time>
      </trkpt>
      <trkpt lat="42.76847" lon="0.15723">
        <ele>2370</ele>
        <time>2021-01-29T13:58:27Z</time>
      </trkpt>
      <trkpt lat="42.76847" lon="0.15723">
        <ele>2370</ele>
        <time>2021-01-29T13:58:28Z</time>
      </trkpt>
      <trkpt lat="42.76847" lon="0.15723">
        <ele>2370.2</ele>
        <time>2021-01-29T13:58:29Z</time>
      </trkpt>
      <trkpt lat="42.76847" lon="0.15721">
        <ele>2370.2</ele>
        <time>2021-01-29T13:58:30Z</time>
      </trkpt>
      <trkpt lat="42.76848" lon="0.15718">
        <ele>2370.4</ele>
        <time>2021-01-29T13:58:31Z</time>
      </trkpt>
      <trkpt lat="42.76848" lon="0.15718">
        <ele>2370.6</ele>
        <time>2021-01-29T13:58:32Z</time>
      </trkpt>
      <trkpt lat="42.76848" lon="0.15717">
        <ele>2370.8</ele>
        <time>2021-01-29T13:58:33Z</time>
      </trkpt>
      <trkpt lat="42.76848" lon="0.15716">
        <ele>2370.8</ele>
        <time>2021-01-29T13:58:34Z</time>
      </trkpt>
      <trkpt lat="42.76848" lon="0.15716">
        <ele>2371</ele>
        <time>2021-01-29T13:58:35Z</time>
      </trkpt>
      <trkpt lat="42.76848" lon="0.15715">
        <ele>2371</ele>
        <time>2021-01-29T13:58:36Z</time>
      </trkpt>
      <trkpt lat="42.76848" lon="0.15714">
        <ele>2371.2</ele>
        <time>2021-01-29T13:58:37Z</time>
      </trkpt>
      <trkpt lat="42.76848" lon="0.15714">
        <ele>2371.4</ele>
        <time>2021-01-29T13:58:38Z</time>
      </trkpt>
      <trkpt lat="42.76848" lon="0.15714">
        <ele>2371.6</ele>
        <time>2021-01-29T13:58:39Z</time>
      </trkpt>
      <trkpt lat="42.76848" lon="0.15714">
        <ele>2371.8</ele>
        <time>2021-01-29T13:58:40Z</time>
      </trkpt>
      <trkpt lat="42.76848" lon="0.15714">
        <ele>2371.8</ele>
        <time>2021-01-29T13:58:41Z</time>
      </trkpt>
      <trkpt lat="42.76848" lon="0.15714">
        <ele>2372</ele>
        <time>2021-01-29T13:58:42Z</time>
      </trkpt>
      <trkpt lat="42.76848" lon="0.15714">
        <ele>2372.2</ele>
        <time>2021-01-29T13:58:43Z</time>
      </trkpt>
      <trkpt lat="42.76848" lon="0.15714">
        <ele>2372.4</ele>
        <time>2021-01-29T13:58:44Z</time>
      </trkpt>
      <trkpt lat="42.76848" lon="0.15714">
        <ele>2372.6</ele>
        <time>2021-01-29T13:58:45Z</time>
      </trkpt>
      <trkpt lat="42.76848" lon="0.15714">
        <ele>2372.6</ele>
        <time>2021-01-29T13:58:46Z</time>
      </trkpt>
      <trkpt lat="42.76847" lon="0.15711">
        <ele>2372.8</ele>
        <time>2021-01-29T13:58:47Z</time>
      </trkpt>
      <trkpt lat="42.76846" lon="0.15707">
        <ele>2373</ele>
        <time>2021-01-29T13:58:48Z</time>
      </trkpt>
      <trkpt lat="42.76846" lon="0.15706">
        <ele>2373.2</ele>
        <time>2021-01-29T13:58:49Z</time>
      </trkpt>
      <trkpt lat="42.76846" lon="0.15705">
        <ele>2373.4</ele>
        <time>2021-01-29T13:58:50Z</time>
      </trkpt>
      <trkpt lat="42.76846" lon="0.15705">
        <ele>2373.4</ele>
        <time>2021-01-29T13:58:51Z</time>
      </trkpt>
      <trkpt lat="42.76846" lon="0.15704">
        <ele>2373.6</ele>
        <time>2021-01-29T13:58:52Z</time>
      </trkpt>
      <trkpt lat="42.76846" lon="0.15703">
        <ele>2373.8</ele>
        <time>2021-01-29T13:58:53Z</time>
      </trkpt>
      <trkpt lat="42.76846" lon="0.15703">
        <ele>2374</ele>
        <time>2021-01-29T13:58:54Z</time>
      </trkpt>
      <trkpt lat="42.76846" lon="0.15702">
        <ele>2374</ele>
        <time>2021-01-29T13:58:55Z</time>
      </trkpt>
      <trkpt lat="42.76846" lon="0.15701">
        <ele>2374.2</ele>
        <time>2021-01-29T13:58:56Z</time>
      </trkpt>
      <trkpt lat="42.76846" lon="0.15701">
        <ele>2374.2</ele>
        <time>2021-01-29T13:58:57Z</time>
      </trkpt>
      <trkpt lat="42.76846" lon="0.15701">
        <ele>2374.4</ele>
        <time>2021-01-29T13:58:58Z</time>
      </trkpt>
      <trkpt lat="42.76846" lon="0.15701">
        <ele>2374.4</ele>
        <time>2021-01-29T13:58:59Z</time>
      </trkpt>
      <trkpt lat="42.76846" lon="0.15701">
        <ele>2374.6</ele>
        <time>2021-01-29T13:59:00Z</time>
      </trkpt>
      <trkpt lat="42.76846" lon="0.15701">
        <ele>2374.8</ele>
        <time>2021-01-29T13:59:01Z</time>
      </trkpt>
      <trkpt lat="42.76846" lon="0.15699">
        <ele>2374.8</ele>
        <time>2021-01-29T13:59:02Z</time>
      </trkpt>
      <trkpt lat="42.76846" lon="0.15696">
        <ele>2375</ele>
        <time>2021-01-29T13:59:03Z</time>
      </trkpt>
      <trkpt lat="42.76846" lon="0.15696">
        <ele>2375</ele>
        <time>2021-01-29T13:59:04Z</time>
      </trkpt>
      <trkpt lat="42.76846" lon="0.15695">
        <ele>2375.2</ele>
        <time>2021-01-29T13:59:05Z</time>
      </trkpt>
      <trkpt lat="42.76846" lon="0.15694">
        <ele>2375.2</ele>
        <time>2021-01-29T13:59:06Z</time>
      </trkpt>
      <trkpt lat="42.76846" lon="0.15693">
        <ele>2375.6</ele>
        <time>2021-01-29T13:59:07Z</time>
      </trkpt>
      <trkpt lat="42.76846" lon="0.15693">
        <ele>2375.8</ele>
        <time>2021-01-29T13:59:08Z</time>
      </trkpt>
      <trkpt lat="42.76846" lon="0.15692">
        <ele>2375.8</ele>
        <time>2021-01-29T13:59:09Z</time>
      </trkpt>
      <trkpt lat="42.76846" lon="0.15691">
        <ele>2376.2</ele>
        <time>2021-01-29T13:59:10Z</time>
      </trkpt>
      <trkpt lat="42.76845" lon="0.1569">
        <ele>2376.2</ele>
        <time>2021-01-29T13:59:11Z</time>
      </trkpt>
      <trkpt lat="42.76845" lon="0.1569">
        <ele>2376.4</ele>
        <time>2021-01-29T13:59:12Z</time>
      </trkpt>
      <trkpt lat="42.76845" lon="0.15689">
        <ele>2376.6</ele>
        <time>2021-01-29T13:59:13Z</time>
      </trkpt>
      <trkpt lat="42.76845" lon="0.15688">
        <ele>2376.8</ele>
        <time>2021-01-29T13:59:14Z</time>
      </trkpt>
      <trkpt lat="42.76844" lon="0.15688">
        <ele>2377</ele>
        <time>2021-01-29T13:59:15Z</time>
      </trkpt>
      <trkpt lat="42.76844" lon="0.15687">
        <ele>2377</ele>
        <time>2021-01-29T13:59:16Z</time>
      </trkpt>
      <trkpt lat="42.76844" lon="0.15686">
        <ele>2377.2</ele>
        <time>2021-01-29T13:59:17Z</time>
      </trkpt>
      <trkpt lat="42.76844" lon="0.15686">
        <ele>2377.2</ele>
        <time>2021-01-29T13:59:18Z</time>
      </trkpt>
      <trkpt lat="42.76843" lon="0.15685">
        <ele>2377.6</ele>
        <time>2021-01-29T13:59:19Z</time>
      </trkpt>
      <trkpt lat="42.76843" lon="0.15684">
        <ele>2377.4</ele>
        <time>2021-01-29T13:59:20Z</time>
      </trkpt>
      <trkpt lat="42.76843" lon="0.15684">
        <ele>2377.6</ele>
        <time>2021-01-29T13:59:21Z</time>
      </trkpt>
      <trkpt lat="42.76842" lon="0.15683">
        <ele>2377.8</ele>
        <time>2021-01-29T13:59:22Z</time>
      </trkpt>
      <trkpt lat="42.76842" lon="0.15682">
        <ele>2377.8</ele>
        <time>2021-01-29T13:59:23Z</time>
      </trkpt>
      <trkpt lat="42.76842" lon="0.15682">
        <ele>2378</ele>
        <time>2021-01-29T13:59:24Z</time>
      </trkpt>
      <trkpt lat="42.76842" lon="0.15681">
        <ele>2378</ele>
        <time>2021-01-29T13:59:25Z</time>
      </trkpt>
      <trkpt lat="42.76842" lon="0.1568">
        <ele>2378.2</ele>
        <time>2021-01-29T13:59:26Z</time>
      </trkpt>
      <trkpt lat="42.76841" lon="0.15679">
        <ele>2378.4</ele>
        <time>2021-01-29T13:59:27Z</time>
      </trkpt>
      <trkpt lat="42.76841" lon="0.15679">
        <ele>2378.4</ele>
        <time>2021-01-29T13:59:28Z</time>
      </trkpt>
      <trkpt lat="42.76841" lon="0.15678">
        <ele>2378.8</ele>
        <time>2021-01-29T13:59:29Z</time>
      </trkpt>
      <trkpt lat="42.7684" lon="0.15678">
        <ele>2378.8</ele>
        <time>2021-01-29T13:59:30Z</time>
      </trkpt>
      <trkpt lat="42.7684" lon="0.15677">
        <ele>2379</ele>
        <time>2021-01-29T13:59:31Z</time>
      </trkpt>
      <trkpt lat="42.7684" lon="0.15677">
        <ele>2379</ele>
        <time>2021-01-29T13:59:32Z</time>
      </trkpt>
      <trkpt lat="42.7684" lon="0.15676">
        <ele>2379.4</ele>
        <time>2021-01-29T13:59:33Z</time>
      </trkpt>
      <trkpt lat="42.7684" lon="0.15675">
        <ele>2379.4</ele>
        <time>2021-01-29T13:59:34Z</time>
      </trkpt>
      <trkpt lat="42.76839" lon="0.15675">
        <ele>2379.6</ele>
        <time>2021-01-29T13:59:35Z</time>
      </trkpt>
      <trkpt lat="42.76839" lon="0.15674">
        <ele>2379.8</ele>
        <time>2021-01-29T13:59:36Z</time>
      </trkpt>
      <trkpt lat="42.76839" lon="0.15674">
        <ele>2379.8</ele>
        <time>2021-01-29T13:59:37Z</time>
      </trkpt>
      <trkpt lat="42.76839" lon="0.15674">
        <ele>2380.2</ele>
        <time>2021-01-29T13:59:38Z</time>
      </trkpt>
      <trkpt lat="42.76839" lon="0.15673">
        <ele>2380.2</ele>
        <time>2021-01-29T13:59:39Z</time>
      </trkpt>
      <trkpt lat="42.76838" lon="0.15672">
        <ele>2380.4</ele>
        <time>2021-01-29T13:59:40Z</time>
      </trkpt>
      <trkpt lat="42.76838" lon="0.15672">
        <ele>2380.2</ele>
        <time>2021-01-29T13:59:41Z</time>
      </trkpt>
      <trkpt lat="42.76837" lon="0.15671">
        <ele>2380.4</ele>
        <time>2021-01-29T13:59:42Z</time>
      </trkpt>
      <trkpt lat="42.76837" lon="0.1567">
        <ele>2380.4</ele>
        <time>2021-01-29T13:59:43Z</time>
      </trkpt>
      <trkpt lat="42.76837" lon="0.1567">
        <ele>2380.6</ele>
        <time>2021-01-29T13:59:44Z</time>
      </trkpt>
      <trkpt lat="42.76837" lon="0.15669">
        <ele>2380.8</ele>
        <time>2021-01-29T13:59:45Z</time>
      </trkpt>
      <trkpt lat="42.76837" lon="0.15668">
        <ele>2381</ele>
        <time>2021-01-29T13:59:46Z</time>
      </trkpt>
      <trkpt lat="42.76836" lon="0.15668">
        <ele>2381.2</ele>
        <time>2021-01-29T13:59:47Z</time>
      </trkpt>
      <trkpt lat="42.76836" lon="0.15667">
        <ele>2381.2</ele>
        <time>2021-01-29T13:59:48Z</time>
      </trkpt>
      <trkpt lat="42.76836" lon="0.15666">
        <ele>2381.4</ele>
        <time>2021-01-29T13:59:49Z</time>
      </trkpt>
      <trkpt lat="42.76836" lon="0.15666">
        <ele>2381.6</ele>
        <time>2021-01-29T13:59:50Z</time>
      </trkpt>
      <trkpt lat="42.76836" lon="0.15665">
        <ele>2381.8</ele>
        <time>2021-01-29T13:59:51Z</time>
      </trkpt>
      <trkpt lat="42.76836" lon="0.15664">
        <ele>2382</ele>
        <time>2021-01-29T13:59:52Z</time>
      </trkpt>
      <trkpt lat="42.76835" lon="0.15664">
        <ele>2382</ele>
        <time>2021-01-29T13:59:53Z</time>
      </trkpt>
      <trkpt lat="42.76835" lon="0.15664">
        <ele>2382.2</ele>
        <time>2021-01-29T13:59:54Z</time>
      </trkpt>
      <trkpt lat="42.76835" lon="0.15664">
        <ele>2382.2</ele>
        <time>2021-01-29T13:59:55Z</time>
      </trkpt>
      <trkpt lat="42.76835" lon="0.15664">
        <ele>2382.4</ele>
        <time>2021-01-29T13:59:56Z</time>
      </trkpt>
      <trkpt lat="42.76835" lon="0.15664">
        <ele>2382.4</ele>
        <time>2021-01-29T13:59:57Z</time>
      </trkpt>
      <trkpt lat="42.76835" lon="0.15664">
        <ele>2382.6</ele>
        <time>2021-01-29T13:59:58Z</time>
      </trkpt>
      <trkpt lat="42.76835" lon="0.15664">
        <ele>2382.6</ele>
        <time>2021-01-29T13:59:59Z</time>
      </trkpt>
      <trkpt lat="42.76834" lon="0.15661">
        <ele>2382.8</ele>
        <time>2021-01-29T14:00:00Z</time>
      </trkpt>
      <trkpt lat="42.76833" lon="0.15658">
        <ele>2383</ele>
        <time>2021-01-29T14:00:01Z</time>
      </trkpt>
      <trkpt lat="42.76833" lon="0.15657">
        <ele>2383</ele>
        <time>2021-01-29T14:00:02Z</time>
      </trkpt>
      <trkpt lat="42.76833" lon="0.15657">
        <ele>2383.2</ele>
        <time>2021-01-29T14:00:03Z</time>
      </trkpt>
      <trkpt lat="42.76833" lon="0.15656">
        <ele>2383.2</ele>
        <time>2021-01-29T14:00:04Z</time>
      </trkpt>
      <trkpt lat="42.76833" lon="0.15655">
        <ele>2383.4</ele>
        <time>2021-01-29T14:00:05Z</time>
      </trkpt>
      <trkpt lat="42.76832" lon="0.15654">
        <ele>2383.4</ele>
        <time>2021-01-29T14:00:06Z</time>
      </trkpt>
      <trkpt lat="42.76832" lon="0.15654">
        <ele>2383.6</ele>
        <time>2021-01-29T14:00:07Z</time>
      </trkpt>
      <trkpt lat="42.76832" lon="0.15653">
        <ele>2383.6</ele>
        <time>2021-01-29T14:00:08Z</time>
      </trkpt>
      <trkpt lat="42.76832" lon="0.15652">
        <ele>2383.8</ele>
        <time>2021-01-29T14:00:09Z</time>
      </trkpt>
      <trkpt lat="42.76831" lon="0.15651">
        <ele>2383.8</ele>
        <time>2021-01-29T14:00:10Z</time>
      </trkpt>
      <trkpt lat="42.76831" lon="0.1565">
        <ele>2383.8</ele>
        <time>2021-01-29T14:00:11Z</time>
      </trkpt>
      <trkpt lat="42.76831" lon="0.1565">
        <ele>2384</ele>
        <time>2021-01-29T14:00:12Z</time>
      </trkpt>
      <trkpt lat="42.76831" lon="0.15649">
        <ele>2384.2</ele>
        <time>2021-01-29T14:00:13Z</time>
      </trkpt>
      <trkpt lat="42.76831" lon="0.15648">
        <ele>2384.2</ele>
        <time>2021-01-29T14:00:14Z</time>
      </trkpt>
      <trkpt lat="42.7683" lon="0.15647">
        <ele>2384.4</ele>
        <time>2021-01-29T14:00:15Z</time>
      </trkpt>
      <trkpt lat="42.7683" lon="0.15647">
        <ele>2384.4</ele>
        <time>2021-01-29T14:00:16Z</time>
      </trkpt>
      <trkpt lat="42.76829" lon="0.15646">
        <ele>2384.6</ele>
        <time>2021-01-29T14:00:17Z</time>
      </trkpt>
      <trkpt lat="42.76829" lon="0.15645">
        <ele>2384.6</ele>
        <time>2021-01-29T14:00:18Z</time>
      </trkpt>
      <trkpt lat="42.76829" lon="0.15645">
        <ele>2384.8</ele>
        <time>2021-01-29T14:00:19Z</time>
      </trkpt>
      <trkpt lat="42.76829" lon="0.15644">
        <ele>2385</ele>
        <time>2021-01-29T14:00:20Z</time>
      </trkpt>
      <trkpt lat="42.76829" lon="0.15643">
        <ele>2385.2</ele>
        <time>2021-01-29T14:00:21Z</time>
      </trkpt>
      <trkpt lat="42.76828" lon="0.15643">
        <ele>2385.4</ele>
        <time>2021-01-29T14:00:22Z</time>
      </trkpt>
      <trkpt lat="42.76828" lon="0.15642">
        <ele>2385.4</ele>
        <time>2021-01-29T14:00:23Z</time>
      </trkpt>
      <trkpt lat="42.76828" lon="0.15641">
        <ele>2385.6</ele>
        <time>2021-01-29T14:00:24Z</time>
      </trkpt>
      <trkpt lat="42.76828" lon="0.15641">
        <ele>2385.6</ele>
        <time>2021-01-29T14:00:25Z</time>
      </trkpt>
      <trkpt lat="42.76827" lon="0.1564">
        <ele>2385.6</ele>
        <time>2021-01-29T14:00:26Z</time>
      </trkpt>
      <trkpt lat="42.76827" lon="0.1564">
        <ele>2385.8</ele>
        <time>2021-01-29T14:00:27Z</time>
      </trkpt>
      <trkpt lat="42.76827" lon="0.1564">
        <ele>2385.8</ele>
        <time>2021-01-29T14:00:28Z</time>
      </trkpt>
      <trkpt lat="42.76827" lon="0.15639">
        <ele>2386</ele>
        <time>2021-01-29T14:00:29Z</time>
      </trkpt>
      <trkpt lat="42.76826" lon="0.15638">
        <ele>2386</ele>
        <time>2021-01-29T14:00:30Z</time>
      </trkpt>
      <trkpt lat="42.76826" lon="0.15637">
        <ele>2386.2</ele>
        <time>2021-01-29T14:00:31Z</time>
      </trkpt>
      <trkpt lat="42.76826" lon="0.15636">
        <ele>2386.2</ele>
        <time>2021-01-29T14:00:32Z</time>
      </trkpt>
      <trkpt lat="42.76826" lon="0.15636">
        <ele>2386.2</ele>
        <time>2021-01-29T14:00:33Z</time>
      </trkpt>
      <trkpt lat="42.76825" lon="0.15635">
        <ele>2386.2</ele>
        <time>2021-01-29T14:00:34Z</time>
      </trkpt>
      <trkpt lat="42.76825" lon="0.15634">
        <ele>2386.2</ele>
        <time>2021-01-29T14:00:35Z</time>
      </trkpt>
      <trkpt lat="42.76825" lon="0.15634">
        <ele>2386.2</ele>
        <time>2021-01-29T14:00:36Z</time>
      </trkpt>
      <trkpt lat="42.76825" lon="0.15633">
        <ele>2386.2</ele>
        <time>2021-01-29T14:00:37Z</time>
      </trkpt>
      <trkpt lat="42.76824" lon="0.15632">
        <ele>2386.2</ele>
        <time>2021-01-29T14:00:38Z</time>
      </trkpt>
      <trkpt lat="42.76824" lon="0.15631">
        <ele>2386.4</ele>
        <time>2021-01-29T14:00:39Z</time>
      </trkpt>
      <trkpt lat="42.76824" lon="0.15631">
        <ele>2386.4</ele>
        <time>2021-01-29T14:00:40Z</time>
      </trkpt>
      <trkpt lat="42.76824" lon="0.1563">
        <ele>2386.6</ele>
        <time>2021-01-29T14:00:41Z</time>
      </trkpt>
      <trkpt lat="42.76823" lon="0.15629">
        <ele>2386.6</ele>
        <time>2021-01-29T14:00:42Z</time>
      </trkpt>
      <trkpt lat="42.76823" lon="0.15628">
        <ele>2386.8</ele>
        <time>2021-01-29T14:00:43Z</time>
      </trkpt>
      <trkpt lat="42.76823" lon="0.15628">
        <ele>2386.6</ele>
        <time>2021-01-29T14:00:44Z</time>
      </trkpt>
      <trkpt lat="42.76823" lon="0.15627">
        <ele>2386.8</ele>
        <time>2021-01-29T14:00:45Z</time>
      </trkpt>
      <trkpt lat="42.76823" lon="0.15626">
        <ele>2386.8</ele>
        <time>2021-01-29T14:00:46Z</time>
      </trkpt>
      <trkpt lat="42.76823" lon="0.15625">
        <ele>2386.8</ele>
        <time>2021-01-29T14:00:47Z</time>
      </trkpt>
      <trkpt lat="42.76823" lon="0.15624">
        <ele>2386.8</ele>
        <time>2021-01-29T14:00:48Z</time>
      </trkpt>
      <trkpt lat="42.76822" lon="0.15624">
        <ele>2387</ele>
        <time>2021-01-29T14:00:49Z</time>
      </trkpt>
      <trkpt lat="42.76822" lon="0.15623">
        <ele>2387</ele>
        <time>2021-01-29T14:00:50Z</time>
      </trkpt>
      <trkpt lat="42.76822" lon="0.15622">
        <ele>2387</ele>
        <time>2021-01-29T14:00:51Z</time>
      </trkpt>
      <trkpt lat="42.76822" lon="0.15621">
        <ele>2387.2</ele>
        <time>2021-01-29T14:00:52Z</time>
      </trkpt>
      <trkpt lat="42.76822" lon="0.1562">
        <ele>2387.4</ele>
        <time>2021-01-29T14:00:53Z</time>
      </trkpt>
      <trkpt lat="42.76822" lon="0.1562">
        <ele>2387.4</ele>
        <time>2021-01-29T14:00:54Z</time>
      </trkpt>
      <trkpt lat="42.76822" lon="0.15619">
        <ele>2387.6</ele>
        <time>2021-01-29T14:00:55Z</time>
      </trkpt>
      <trkpt lat="42.76821" lon="0.15618">
        <ele>2387.6</ele>
        <time>2021-01-29T14:00:56Z</time>
      </trkpt>
      <trkpt lat="42.76821" lon="0.15617">
        <ele>2387.8</ele>
        <time>2021-01-29T14:00:57Z</time>
      </trkpt>
      <trkpt lat="42.76821" lon="0.15616">
        <ele>2387.8</ele>
        <time>2021-01-29T14:00:58Z</time>
      </trkpt>
      <trkpt lat="42.76821" lon="0.15615">
        <ele>2387.8</ele>
        <time>2021-01-29T14:00:59Z</time>
      </trkpt>
      <trkpt lat="42.76821" lon="0.15614">
        <ele>2388</ele>
        <time>2021-01-29T14:01:00Z</time>
      </trkpt>
      <trkpt lat="42.76821" lon="0.15614">
        <ele>2388</ele>
        <time>2021-01-29T14:01:01Z</time>
      </trkpt>
      <trkpt lat="42.76821" lon="0.15613">
        <ele>2388.2</ele>
        <time>2021-01-29T14:01:02Z</time>
      </trkpt>
      <trkpt lat="42.76821" lon="0.15612">
        <ele>2388.2</ele>
        <time>2021-01-29T14:01:03Z</time>
      </trkpt>
      <trkpt lat="42.76821" lon="0.15611">
        <ele>2388.4</ele>
        <time>2021-01-29T14:01:04Z</time>
      </trkpt>
      <trkpt lat="42.7682" lon="0.1561">
        <ele>2388.6</ele>
        <time>2021-01-29T14:01:05Z</time>
      </trkpt>
      <trkpt lat="42.7682" lon="0.1561">
        <ele>2388.4</ele>
        <time>2021-01-29T14:01:06Z</time>
      </trkpt>
      <trkpt lat="42.7682" lon="0.15609">
        <ele>2388.8</ele>
        <time>2021-01-29T14:01:07Z</time>
      </trkpt>
      <trkpt lat="42.7682" lon="0.15608">
        <ele>2388.8</ele>
        <time>2021-01-29T14:01:08Z</time>
      </trkpt>
      <trkpt lat="42.7682" lon="0.15607">
        <ele>2389</ele>
        <time>2021-01-29T14:01:09Z</time>
      </trkpt>
      <trkpt lat="42.7682" lon="0.15606">
        <ele>2389.2</ele>
        <time>2021-01-29T14:01:10Z</time>
      </trkpt>
      <trkpt lat="42.7682" lon="0.15605">
        <ele>2389.2</ele>
        <time>2021-01-29T14:01:11Z</time>
      </trkpt>
      <trkpt lat="42.7682" lon="0.15604">
        <ele>2389.2</ele>
        <time>2021-01-29T14:01:12Z</time>
      </trkpt>
      <trkpt lat="42.7682" lon="0.15604">
        <ele>2389.4</ele>
        <time>2021-01-29T14:01:13Z</time>
      </trkpt>
      <trkpt lat="42.7682" lon="0.15603">
        <ele>2389.6</ele>
        <time>2021-01-29T14:01:14Z</time>
      </trkpt>
      <trkpt lat="42.7682" lon="0.15602">
        <ele>2389.8</ele>
        <time>2021-01-29T14:01:15Z</time>
      </trkpt>
      <trkpt lat="42.7682" lon="0.15601">
        <ele>2390</ele>
        <time>2021-01-29T14:01:16Z</time>
      </trkpt>
      <trkpt lat="42.7682" lon="0.156">
        <ele>2390.2</ele>
        <time>2021-01-29T14:01:17Z</time>
      </trkpt>
      <trkpt lat="42.7682" lon="0.15599">
        <ele>2390.4</ele>
        <time>2021-01-29T14:01:18Z</time>
      </trkpt>
      <trkpt lat="42.7682" lon="0.15598">
        <ele>2390.6</ele>
        <time>2021-01-29T14:01:19Z</time>
      </trkpt>
      <trkpt lat="42.7682" lon="0.15598">
        <ele>2390.8</ele>
        <time>2021-01-29T14:01:20Z</time>
      </trkpt>
      <trkpt lat="42.7682" lon="0.15597">
        <ele>2390.6</ele>
        <time>2021-01-29T14:01:21Z</time>
      </trkpt>
      <trkpt lat="42.7682" lon="0.15596">
        <ele>2390.6</ele>
        <time>2021-01-29T14:01:22Z</time>
      </trkpt>
      <trkpt lat="42.7682" lon="0.15595">
        <ele>2390.8</ele>
        <time>2021-01-29T14:01:23Z</time>
      </trkpt>
      <trkpt lat="42.7682" lon="0.15594">
        <ele>2390.8</ele>
        <time>2021-01-29T14:01:24Z</time>
      </trkpt>
      <trkpt lat="42.7682" lon="0.15593">
        <ele>2390.8</ele>
        <time>2021-01-29T14:01:25Z</time>
      </trkpt>
      <trkpt lat="42.7682" lon="0.15592">
        <ele>2390.8</ele>
        <time>2021-01-29T14:01:26Z</time>
      </trkpt>
      <trkpt lat="42.7682" lon="0.15591">
        <ele>2390.8</ele>
        <time>2021-01-29T14:01:27Z</time>
      </trkpt>
      <trkpt lat="42.7682" lon="0.1559">
        <ele>2391</ele>
        <time>2021-01-29T14:01:28Z</time>
      </trkpt>
      <trkpt lat="42.7682" lon="0.15589">
        <ele>2391</ele>
        <time>2021-01-29T14:01:29Z</time>
      </trkpt>
      <trkpt lat="42.76819" lon="0.15588">
        <ele>2391</ele>
        <time>2021-01-29T14:01:30Z</time>
      </trkpt>
      <trkpt lat="42.76819" lon="0.15587">
        <ele>2391.2</ele>
        <time>2021-01-29T14:01:31Z</time>
      </trkpt>
      <trkpt lat="42.76819" lon="0.15586">
        <ele>2391.2</ele>
        <time>2021-01-29T14:01:32Z</time>
      </trkpt>
      <trkpt lat="42.76819" lon="0.15586">
        <ele>2391.4</ele>
        <time>2021-01-29T14:01:33Z</time>
      </trkpt>
      <trkpt lat="42.76819" lon="0.15585">
        <ele>2391.4</ele>
        <time>2021-01-29T14:01:34Z</time>
      </trkpt>
      <trkpt lat="42.76819" lon="0.15584">
        <ele>2391.4</ele>
        <time>2021-01-29T14:01:35Z</time>
      </trkpt>
      <trkpt lat="42.76819" lon="0.15583">
        <ele>2391.6</ele>
        <time>2021-01-29T14:01:36Z</time>
      </trkpt>
      <trkpt lat="42.76819" lon="0.15582">
        <ele>2391.6</ele>
        <time>2021-01-29T14:01:37Z</time>
      </trkpt>
      <trkpt lat="42.76819" lon="0.15582">
        <ele>2391.6</ele>
        <time>2021-01-29T14:01:38Z</time>
      </trkpt>
      <trkpt lat="42.76818" lon="0.15581">
        <ele>2391.8</ele>
        <time>2021-01-29T14:01:39Z</time>
      </trkpt>
      <trkpt lat="42.76818" lon="0.1558">
        <ele>2391.8</ele>
        <time>2021-01-29T14:01:40Z</time>
      </trkpt>
      <trkpt lat="42.76818" lon="0.15579">
        <ele>2392</ele>
        <time>2021-01-29T14:01:41Z</time>
      </trkpt>
      <trkpt lat="42.76818" lon="0.15578">
        <ele>2392</ele>
        <time>2021-01-29T14:01:42Z</time>
      </trkpt>
      <trkpt lat="42.76818" lon="0.15577">
        <ele>2392.2</ele>
        <time>2021-01-29T14:01:43Z</time>
      </trkpt>
      <trkpt lat="42.76818" lon="0.15577">
        <ele>2392.2</ele>
        <time>2021-01-29T14:01:44Z</time>
      </trkpt>
      <trkpt lat="42.76818" lon="0.15576">
        <ele>2392.2</ele>
        <time>2021-01-29T14:01:45Z</time>
      </trkpt>
      <trkpt lat="42.76818" lon="0.15575">
        <ele>2392.4</ele>
        <time>2021-01-29T14:01:46Z</time>
      </trkpt>
      <trkpt lat="42.76817" lon="0.15574">
        <ele>2392.4</ele>
        <time>2021-01-29T14:01:47Z</time>
      </trkpt>
      <trkpt lat="42.76817" lon="0.15573">
        <ele>2392.6</ele>
        <time>2021-01-29T14:01:48Z</time>
      </trkpt>
      <trkpt lat="42.76817" lon="0.15572">
        <ele>2392.6</ele>
        <time>2021-01-29T14:01:49Z</time>
      </trkpt>
      <trkpt lat="42.76817" lon="0.15571">
        <ele>2392.6</ele>
        <time>2021-01-29T14:01:50Z</time>
      </trkpt>
      <trkpt lat="42.76817" lon="0.1557">
        <ele>2392.8</ele>
        <time>2021-01-29T14:01:51Z</time>
      </trkpt>
      <trkpt lat="42.76817" lon="0.15569">
        <ele>2392.8</ele>
        <time>2021-01-29T14:01:52Z</time>
      </trkpt>
      <trkpt lat="42.76817" lon="0.15569">
        <ele>2392.8</ele>
        <time>2021-01-29T14:01:53Z</time>
      </trkpt>
      <trkpt lat="42.76817" lon="0.15568">
        <ele>2393</ele>
        <time>2021-01-29T14:01:54Z</time>
      </trkpt>
      <trkpt lat="42.76817" lon="0.15567">
        <ele>2392.8</ele>
        <time>2021-01-29T14:01:55Z</time>
      </trkpt>
      <trkpt lat="42.76816" lon="0.15566">
        <ele>2393</ele>
        <time>2021-01-29T14:01:56Z</time>
      </trkpt>
      <trkpt lat="42.76816" lon="0.15565">
        <ele>2393</ele>
        <time>2021-01-29T14:01:57Z</time>
      </trkpt>
      <trkpt lat="42.76816" lon="0.15564">
        <ele>2393.2</ele>
        <time>2021-01-29T14:01:58Z</time>
      </trkpt>
      <trkpt lat="42.76816" lon="0.15563">
        <ele>2393.2</ele>
        <time>2021-01-29T14:01:59Z</time>
      </trkpt>
      <trkpt lat="42.76816" lon="0.15562">
        <ele>2393.4</ele>
        <time>2021-01-29T14:02:00Z</time>
      </trkpt>
      <trkpt lat="42.76816" lon="0.15561">
        <ele>2393.6</ele>
        <time>2021-01-29T14:02:01Z</time>
      </trkpt>
      <trkpt lat="42.76816" lon="0.15561">
        <ele>2393.8</ele>
        <time>2021-01-29T14:02:02Z</time>
      </trkpt>
      <trkpt lat="42.76816" lon="0.1556">
        <ele>2393.8</ele>
        <time>2021-01-29T14:02:03Z</time>
      </trkpt>
      <trkpt lat="42.76815" lon="0.15559">
        <ele>2394</ele>
        <time>2021-01-29T14:02:04Z</time>
      </trkpt>
      <trkpt lat="42.76815" lon="0.15558">
        <ele>2394</ele>
        <time>2021-01-29T14:02:05Z</time>
      </trkpt>
      <trkpt lat="42.76815" lon="0.15557">
        <ele>2394.2</ele>
        <time>2021-01-29T14:02:06Z</time>
      </trkpt>
      <trkpt lat="42.76815" lon="0.15556">
        <ele>2394.4</ele>
        <time>2021-01-29T14:02:07Z</time>
      </trkpt>
      <trkpt lat="42.76815" lon="0.15555">
        <ele>2394.4</ele>
        <time>2021-01-29T14:02:08Z</time>
      </trkpt>
      <trkpt lat="42.76815" lon="0.15554">
        <ele>2394.6</ele>
        <time>2021-01-29T14:02:09Z</time>
      </trkpt>
      <trkpt lat="42.76815" lon="0.15554">
        <ele>2394.6</ele>
        <time>2021-01-29T14:02:10Z</time>
      </trkpt>
      <trkpt lat="42.76815" lon="0.15553">
        <ele>2394.6</ele>
        <time>2021-01-29T14:02:11Z</time>
      </trkpt>
      <trkpt lat="42.76814" lon="0.15552">
        <ele>2394.8</ele>
        <time>2021-01-29T14:02:12Z</time>
      </trkpt>
      <trkpt lat="42.76814" lon="0.15551">
        <ele>2395</ele>
        <time>2021-01-29T14:02:13Z</time>
      </trkpt>
      <trkpt lat="42.76814" lon="0.1555">
        <ele>2395.2</ele>
        <time>2021-01-29T14:02:14Z</time>
      </trkpt>
      <trkpt lat="42.76814" lon="0.15549">
        <ele>2395.4</ele>
        <time>2021-01-29T14:02:15Z</time>
      </trkpt>
      <trkpt lat="42.76814" lon="0.15548">
        <ele>2395.4</ele>
        <time>2021-01-29T14:02:16Z</time>
      </trkpt>
      <trkpt lat="42.76814" lon="0.15547">
        <ele>2395.6</ele>
        <time>2021-01-29T14:02:17Z</time>
      </trkpt>
      <trkpt lat="42.76814" lon="0.15547">
        <ele>2395.6</ele>
        <time>2021-01-29T14:02:18Z</time>
      </trkpt>
      <trkpt lat="42.76814" lon="0.15546">
        <ele>2396</ele>
        <time>2021-01-29T14:02:19Z</time>
      </trkpt>
      <trkpt lat="42.76813" lon="0.15545">
        <ele>2396</ele>
        <time>2021-01-29T14:02:20Z</time>
      </trkpt>
      <trkpt lat="42.76813" lon="0.15544">
        <ele>2396.2</ele>
        <time>2021-01-29T14:02:21Z</time>
      </trkpt>
      <trkpt lat="42.76813" lon="0.15543">
        <ele>2396.4</ele>
        <time>2021-01-29T14:02:22Z</time>
      </trkpt>
      <trkpt lat="42.76813" lon="0.15543">
        <ele>2396.6</ele>
        <time>2021-01-29T14:02:23Z</time>
      </trkpt>
      <trkpt lat="42.76812" lon="0.15542">
        <ele>2396.8</ele>
        <time>2021-01-29T14:02:24Z</time>
      </trkpt>
      <trkpt lat="42.76812" lon="0.15541">
        <ele>2397</ele>
        <time>2021-01-29T14:02:25Z</time>
      </trkpt>
      <trkpt lat="42.76812" lon="0.15541">
        <ele>2397</ele>
        <time>2021-01-29T14:02:26Z</time>
      </trkpt>
      <trkpt lat="42.76811" lon="0.1554">
        <ele>2397.2</ele>
        <time>2021-01-29T14:02:27Z</time>
      </trkpt>
      <trkpt lat="42.76811" lon="0.15539">
        <ele>2397.2</ele>
        <time>2021-01-29T14:02:28Z</time>
      </trkpt>
      <trkpt lat="42.76811" lon="0.15539">
        <ele>2397.6</ele>
        <time>2021-01-29T14:02:29Z</time>
      </trkpt>
      <trkpt lat="42.7681" lon="0.15538">
        <ele>2397.8</ele>
        <time>2021-01-29T14:02:30Z</time>
      </trkpt>
      <trkpt lat="42.7681" lon="0.15538">
        <ele>2398</ele>
        <time>2021-01-29T14:02:31Z</time>
      </trkpt>
      <trkpt lat="42.76809" lon="0.15537">
        <ele>2398.2</ele>
        <time>2021-01-29T14:02:32Z</time>
      </trkpt>
      <trkpt lat="42.76809" lon="0.15536">
        <ele>2398.2</ele>
        <time>2021-01-29T14:02:33Z</time>
      </trkpt>
      <trkpt lat="42.76809" lon="0.15535">
        <ele>2398.4</ele>
        <time>2021-01-29T14:02:34Z</time>
      </trkpt>
      <trkpt lat="42.76808" lon="0.15535">
        <ele>2398.6</ele>
        <time>2021-01-29T14:02:35Z</time>
      </trkpt>
      <trkpt lat="42.76808" lon="0.15534">
        <ele>2398.6</ele>
        <time>2021-01-29T14:02:36Z</time>
      </trkpt>
      <trkpt lat="42.76808" lon="0.15533">
        <ele>2398.8</ele>
        <time>2021-01-29T14:02:37Z</time>
      </trkpt>
      <trkpt lat="42.76808" lon="0.15533">
        <ele>2399</ele>
        <time>2021-01-29T14:02:38Z</time>
      </trkpt>
      <trkpt lat="42.76808" lon="0.15531">
        <ele>2399</ele>
        <time>2021-01-29T14:02:39Z</time>
      </trkpt>
      <trkpt lat="42.76807" lon="0.15531">
        <ele>2399.2</ele>
        <time>2021-01-29T14:02:40Z</time>
      </trkpt>
      <trkpt lat="42.76807" lon="0.1553">
        <ele>2399.2</ele>
        <time>2021-01-29T14:02:41Z</time>
      </trkpt>
      <trkpt lat="42.76807" lon="0.1553">
        <ele>2399.4</ele>
        <time>2021-01-29T14:02:42Z</time>
      </trkpt>
      <trkpt lat="42.76807" lon="0.15529">
        <ele>2399.2</ele>
        <time>2021-01-29T14:02:43Z</time>
      </trkpt>
      <trkpt lat="42.76807" lon="0.15528">
        <ele>2399.4</ele>
        <time>2021-01-29T14:02:44Z</time>
      </trkpt>
      <trkpt lat="42.76806" lon="0.15527">
        <ele>2399.2</ele>
        <time>2021-01-29T14:02:45Z</time>
      </trkpt>
      <trkpt lat="42.76806" lon="0.15526">
        <ele>2399.4</ele>
        <time>2021-01-29T14:02:46Z</time>
      </trkpt>
      <trkpt lat="42.76806" lon="0.15526">
        <ele>2399.4</ele>
        <time>2021-01-29T14:02:47Z</time>
      </trkpt>
      <trkpt lat="42.76806" lon="0.15525">
        <ele>2399.4</ele>
        <time>2021-01-29T14:02:48Z</time>
      </trkpt>
      <trkpt lat="42.76805" lon="0.15524">
        <ele>2399.6</ele>
        <time>2021-01-29T14:02:49Z</time>
      </trkpt>
      <trkpt lat="42.76805" lon="0.15523">
        <ele>2399.6</ele>
        <time>2021-01-29T14:02:50Z</time>
      </trkpt>
      <trkpt lat="42.76805" lon="0.15523">
        <ele>2399.8</ele>
        <time>2021-01-29T14:02:51Z</time>
      </trkpt>
      <trkpt lat="42.76805" lon="0.15522">
        <ele>2400</ele>
        <time>2021-01-29T14:02:52Z</time>
      </trkpt>
      <trkpt lat="42.76804" lon="0.15521">
        <ele>2400.2</ele>
        <time>2021-01-29T14:02:53Z</time>
      </trkpt>
      <trkpt lat="42.76804" lon="0.1552">
        <ele>2400.2</ele>
        <time>2021-01-29T14:02:54Z</time>
      </trkpt>
      <trkpt lat="42.76804" lon="0.1552">
        <ele>2400.4</ele>
        <time>2021-01-29T14:02:55Z</time>
      </trkpt>
      <trkpt lat="42.76804" lon="0.15519">
        <ele>2400.4</ele>
        <time>2021-01-29T14:02:56Z</time>
      </trkpt>
      <trkpt lat="42.76803" lon="0.15518">
        <ele>2400.6</ele>
        <time>2021-01-29T14:02:57Z</time>
      </trkpt>
      <trkpt lat="42.76803" lon="0.15518">
        <ele>2401</ele>
        <time>2021-01-29T14:02:58Z</time>
      </trkpt>
      <trkpt lat="42.76803" lon="0.15517">
        <ele>2401</ele>
        <time>2021-01-29T14:02:59Z</time>
      </trkpt>
      <trkpt lat="42.76803" lon="0.15516">
        <ele>2401.2</ele>
        <time>2021-01-29T14:03:00Z</time>
      </trkpt>
      <trkpt lat="42.76802" lon="0.15516">
        <ele>2401.2</ele>
        <time>2021-01-29T14:03:01Z</time>
      </trkpt>
      <trkpt lat="42.76802" lon="0.15515">
        <ele>2401.2</ele>
        <time>2021-01-29T14:03:02Z</time>
      </trkpt>
      <trkpt lat="42.76802" lon="0.15515">
        <ele>2401.6</ele>
        <time>2021-01-29T14:03:03Z</time>
      </trkpt>
      <trkpt lat="42.76802" lon="0.15514">
        <ele>2401.6</ele>
        <time>2021-01-29T14:03:04Z</time>
      </trkpt>
      <trkpt lat="42.76801" lon="0.15513">
        <ele>2402</ele>
        <time>2021-01-29T14:03:05Z</time>
      </trkpt>
      <trkpt lat="42.76801" lon="0.15512">
        <ele>2402</ele>
        <time>2021-01-29T14:03:06Z</time>
      </trkpt>
      <trkpt lat="42.76801" lon="0.15512">
        <ele>2402.2</ele>
        <time>2021-01-29T14:03:07Z</time>
      </trkpt>
      <trkpt lat="42.768" lon="0.15511">
        <ele>2402.4</ele>
        <time>2021-01-29T14:03:08Z</time>
      </trkpt>
      <trkpt lat="42.768" lon="0.1551">
        <ele>2402.4</ele>
        <time>2021-01-29T14:03:09Z</time>
      </trkpt>
      <trkpt lat="42.768" lon="0.1551">
        <ele>2402.6</ele>
        <time>2021-01-29T14:03:10Z</time>
      </trkpt>
      <trkpt lat="42.768" lon="0.15509">
        <ele>2402.6</ele>
        <time>2021-01-29T14:03:11Z</time>
      </trkpt>
      <trkpt lat="42.768" lon="0.15508">
        <ele>2402.8</ele>
        <time>2021-01-29T14:03:12Z</time>
      </trkpt>
      <trkpt lat="42.76799" lon="0.15507">
        <ele>2403</ele>
        <time>2021-01-29T14:03:13Z</time>
      </trkpt>
      <trkpt lat="42.76799" lon="0.15506">
        <ele>2403</ele>
        <time>2021-01-29T14:03:14Z</time>
      </trkpt>
      <trkpt lat="42.76799" lon="0.15505">
        <ele>2403.2</ele>
        <time>2021-01-29T14:03:15Z</time>
      </trkpt>
      <trkpt lat="42.76799" lon="0.15505">
        <ele>2403.6</ele>
        <time>2021-01-29T14:03:16Z</time>
      </trkpt>
      <trkpt lat="42.76799" lon="0.15504">
        <ele>2403.6</ele>
        <time>2021-01-29T14:03:17Z</time>
      </trkpt>
      <trkpt lat="42.76799" lon="0.15503">
        <ele>2404</ele>
        <time>2021-01-29T14:03:18Z</time>
      </trkpt>
      <trkpt lat="42.76798" lon="0.15503">
        <ele>2404.2</ele>
        <time>2021-01-29T14:03:19Z</time>
      </trkpt>
      <trkpt lat="42.76798" lon="0.15502">
        <ele>2404.6</ele>
        <time>2021-01-29T14:03:20Z</time>
      </trkpt>
      <trkpt lat="42.76798" lon="0.15501">
        <ele>2404.6</ele>
        <time>2021-01-29T14:03:21Z</time>
      </trkpt>
      <trkpt lat="42.76798" lon="0.155">
        <ele>2404.8</ele>
        <time>2021-01-29T14:03:22Z</time>
      </trkpt>
      <trkpt lat="42.76797" lon="0.15499">
        <ele>2404.8</ele>
        <time>2021-01-29T14:03:23Z</time>
      </trkpt>
      <trkpt lat="42.76797" lon="0.15499">
        <ele>2404.8</ele>
        <time>2021-01-29T14:03:24Z</time>
      </trkpt>
      <trkpt lat="42.76797" lon="0.15498">
        <ele>2405</ele>
        <time>2021-01-29T14:03:25Z</time>
      </trkpt>
      <trkpt lat="42.76797" lon="0.15497">
        <ele>2405.2</ele>
        <time>2021-01-29T14:03:26Z</time>
      </trkpt>
      <trkpt lat="42.76796" lon="0.15496">
        <ele>2405.4</ele>
        <time>2021-01-29T14:03:27Z</time>
      </trkpt>
      <trkpt lat="42.76796" lon="0.15496">
        <ele>2405.6</ele>
        <time>2021-01-29T14:03:28Z</time>
      </trkpt>
      <trkpt lat="42.76796" lon="0.15495">
        <ele>2405.4</ele>
        <time>2021-01-29T14:03:29Z</time>
      </trkpt>
      <trkpt lat="42.76796" lon="0.15494">
        <ele>2405.6</ele>
        <time>2021-01-29T14:03:30Z</time>
      </trkpt>
      <trkpt lat="42.76795" lon="0.15494">
        <ele>2405.4</ele>
        <time>2021-01-29T14:03:31Z</time>
      </trkpt>
      <trkpt lat="42.76795" lon="0.15493">
        <ele>2405.6</ele>
        <time>2021-01-29T14:03:32Z</time>
      </trkpt>
      <trkpt lat="42.76795" lon="0.15492">
        <ele>2405.8</ele>
        <time>2021-01-29T14:03:33Z</time>
      </trkpt>
      <trkpt lat="42.76795" lon="0.15491">
        <ele>2406</ele>
        <time>2021-01-29T14:03:34Z</time>
      </trkpt>
      <trkpt lat="42.76794" lon="0.15491">
        <ele>2406.2</ele>
        <time>2021-01-29T14:03:35Z</time>
      </trkpt>
      <trkpt lat="42.76794" lon="0.1549">
        <ele>2406.2</ele>
        <time>2021-01-29T14:03:36Z</time>
      </trkpt>
      <trkpt lat="42.76794" lon="0.15489">
        <ele>2406.4</ele>
        <time>2021-01-29T14:03:37Z</time>
      </trkpt>
      <trkpt lat="42.76794" lon="0.15489">
        <ele>2406.4</ele>
        <time>2021-01-29T14:03:38Z</time>
      </trkpt>
      <trkpt lat="42.76794" lon="0.15488">
        <ele>2406.2</ele>
        <time>2021-01-29T14:03:39Z</time>
      </trkpt>
      <trkpt lat="42.76793" lon="0.15487">
        <ele>2406.6</ele>
        <time>2021-01-29T14:03:40Z</time>
      </trkpt>
      <trkpt lat="42.76793" lon="0.15486">
        <ele>2406.8</ele>
        <time>2021-01-29T14:03:41Z</time>
      </trkpt>
      <trkpt lat="42.76793" lon="0.15485">
        <ele>2407</ele>
        <time>2021-01-29T14:03:42Z</time>
      </trkpt>
      <trkpt lat="42.76792" lon="0.15485">
        <ele>2407.2</ele>
        <time>2021-01-29T14:03:43Z</time>
      </trkpt>
      <trkpt lat="42.76792" lon="0.15484">
        <ele>2407.4</ele>
        <time>2021-01-29T14:03:44Z</time>
      </trkpt>
      <trkpt lat="42.76792" lon="0.15483">
        <ele>2407.6</ele>
        <time>2021-01-29T14:03:45Z</time>
      </trkpt>
      <trkpt lat="42.76792" lon="0.15482">
        <ele>2407.6</ele>
        <time>2021-01-29T14:03:46Z</time>
      </trkpt>
      <trkpt lat="42.76791" lon="0.15482">
        <ele>2407.8</ele>
        <time>2021-01-29T14:03:47Z</time>
      </trkpt>
      <trkpt lat="42.76791" lon="0.15481">
        <ele>2408</ele>
        <time>2021-01-29T14:03:48Z</time>
      </trkpt>
      <trkpt lat="42.7679" lon="0.15481">
        <ele>2408</ele>
        <time>2021-01-29T14:03:49Z</time>
      </trkpt>
      <trkpt lat="42.7679" lon="0.1548">
        <ele>2408.2</ele>
        <time>2021-01-29T14:03:50Z</time>
      </trkpt>
      <trkpt lat="42.7679" lon="0.1548">
        <ele>2408.2</ele>
        <time>2021-01-29T14:03:51Z</time>
      </trkpt>
      <trkpt lat="42.7679" lon="0.1548">
        <ele>2408.6</ele>
        <time>2021-01-29T14:03:52Z</time>
      </trkpt>
      <trkpt lat="42.7679" lon="0.15479">
        <ele>2408.6</ele>
        <time>2021-01-29T14:03:53Z</time>
      </trkpt>
      <trkpt lat="42.76789" lon="0.15478">
        <ele>2409</ele>
        <time>2021-01-29T14:03:54Z</time>
      </trkpt>
      <trkpt lat="42.76788" lon="0.15477">
        <ele>2409</ele>
        <time>2021-01-29T14:03:55Z</time>
      </trkpt>
      <trkpt lat="42.76788" lon="0.15476">
        <ele>2409</ele>
        <time>2021-01-29T14:03:56Z</time>
      </trkpt>
      <trkpt lat="42.76788" lon="0.15476">
        <ele>2409.4</ele>
        <time>2021-01-29T14:03:57Z</time>
      </trkpt>
      <trkpt lat="42.76788" lon="0.15475">
        <ele>2409.4</ele>
        <time>2021-01-29T14:03:58Z</time>
      </trkpt>
      <trkpt lat="42.76788" lon="0.15475">
        <ele>2409.6</ele>
        <time>2021-01-29T14:03:59Z</time>
      </trkpt>
      <trkpt lat="42.76788" lon="0.15475">
        <ele>2409.8</ele>
        <time>2021-01-29T14:04:00Z</time>
      </trkpt>
      <trkpt lat="42.76788" lon="0.15475">
        <ele>2410</ele>
        <time>2021-01-29T14:04:01Z</time>
      </trkpt>
      <trkpt lat="42.76788" lon="0.15475">
        <ele>2410.2</ele>
        <time>2021-01-29T14:04:02Z</time>
      </trkpt>
      <trkpt lat="42.76788" lon="0.15475">
        <ele>2410.4</ele>
        <time>2021-01-29T14:04:03Z</time>
      </trkpt>
      <trkpt lat="42.76788" lon="0.15475">
        <ele>2410.6</ele>
        <time>2021-01-29T14:04:04Z</time>
      </trkpt>
      <trkpt lat="42.76787" lon="0.15473">
        <ele>2410.6</ele>
        <time>2021-01-29T14:04:05Z</time>
      </trkpt>
      <trkpt lat="42.76786" lon="0.15469">
        <ele>2410.8</ele>
        <time>2021-01-29T14:04:06Z</time>
      </trkpt>
      <trkpt lat="42.76786" lon="0.15469">
        <ele>2411</ele>
        <time>2021-01-29T14:04:07Z</time>
      </trkpt>
      <trkpt lat="42.76785" lon="0.15468">
        <ele>2411.2</ele>
        <time>2021-01-29T14:04:08Z</time>
      </trkpt>
      <trkpt lat="42.76785" lon="0.15467">
        <ele>2411.4</ele>
        <time>2021-01-29T14:04:09Z</time>
      </trkpt>
      <trkpt lat="42.76785" lon="0.15467">
        <ele>2411.4</ele>
        <time>2021-01-29T14:04:10Z</time>
      </trkpt>
      <trkpt lat="42.76785" lon="0.15466">
        <ele>2411.6</ele>
        <time>2021-01-29T14:04:11Z</time>
      </trkpt>
      <trkpt lat="42.76784" lon="0.15465">
        <ele>2411.4</ele>
        <time>2021-01-29T14:04:12Z</time>
      </trkpt>
      <trkpt lat="42.76784" lon="0.15464">
        <ele>2411.4</ele>
        <time>2021-01-29T14:04:13Z</time>
      </trkpt>
      <trkpt lat="42.76784" lon="0.15464">
        <ele>2411.6</ele>
        <time>2021-01-29T14:04:14Z</time>
      </trkpt>
      <trkpt lat="42.76784" lon="0.15463">
        <ele>2411.4</ele>
        <time>2021-01-29T14:04:15Z</time>
      </trkpt>
      <trkpt lat="42.76783" lon="0.15462">
        <ele>2411.6</ele>
        <time>2021-01-29T14:04:16Z</time>
      </trkpt>
      <trkpt lat="42.76783" lon="0.15461">
        <ele>2411.8</ele>
        <time>2021-01-29T14:04:17Z</time>
      </trkpt>
      <trkpt lat="42.76783" lon="0.1546">
        <ele>2411.8</ele>
        <time>2021-01-29T14:04:18Z</time>
      </trkpt>
      <trkpt lat="42.76783" lon="0.1546">
        <ele>2412</ele>
        <time>2021-01-29T14:04:19Z</time>
      </trkpt>
      <trkpt lat="42.76783" lon="0.15459">
        <ele>2412</ele>
        <time>2021-01-29T14:04:20Z</time>
      </trkpt>
      <trkpt lat="42.76782" lon="0.15458">
        <ele>2412.2</ele>
        <time>2021-01-29T14:04:21Z</time>
      </trkpt>
      <trkpt lat="42.76782" lon="0.15457">
        <ele>2412.2</ele>
        <time>2021-01-29T14:04:22Z</time>
      </trkpt>
      <trkpt lat="42.76782" lon="0.15457">
        <ele>2412.4</ele>
        <time>2021-01-29T14:04:23Z</time>
      </trkpt>
      <trkpt lat="42.76782" lon="0.15456">
        <ele>2412.6</ele>
        <time>2021-01-29T14:04:24Z</time>
      </trkpt>
      <trkpt lat="42.76781" lon="0.15456">
        <ele>2412.6</ele>
        <time>2021-01-29T14:04:25Z</time>
      </trkpt>
      <trkpt lat="42.76781" lon="0.15455">
        <ele>2412.8</ele>
        <time>2021-01-29T14:04:26Z</time>
      </trkpt>
      <trkpt lat="42.76781" lon="0.15454">
        <ele>2412.8</ele>
        <time>2021-01-29T14:04:27Z</time>
      </trkpt>
      <trkpt lat="42.76781" lon="0.15453">
        <ele>2413</ele>
        <time>2021-01-29T14:04:28Z</time>
      </trkpt>
      <trkpt lat="42.7678" lon="0.15452">
        <ele>2413.2</ele>
        <time>2021-01-29T14:04:29Z</time>
      </trkpt>
      <trkpt lat="42.7678" lon="0.15452">
        <ele>2413.4</ele>
        <time>2021-01-29T14:04:30Z</time>
      </trkpt>
      <trkpt lat="42.7678" lon="0.15451">
        <ele>2413.6</ele>
        <time>2021-01-29T14:04:31Z</time>
      </trkpt>
      <trkpt lat="42.7678" lon="0.15449">
        <ele>2413.6</ele>
        <time>2021-01-29T14:04:32Z</time>
      </trkpt>
      <trkpt lat="42.76779" lon="0.15449">
        <ele>2413.8</ele>
        <time>2021-01-29T14:04:33Z</time>
      </trkpt>
      <trkpt lat="42.76779" lon="0.15448">
        <ele>2413.8</ele>
        <time>2021-01-29T14:04:34Z</time>
      </trkpt>
      <trkpt lat="42.76779" lon="0.15447">
        <ele>2413.8</ele>
        <time>2021-01-29T14:04:35Z</time>
      </trkpt>
      <trkpt lat="42.76779" lon="0.15446">
        <ele>2414</ele>
        <time>2021-01-29T14:04:36Z</time>
      </trkpt>
      <trkpt lat="42.76779" lon="0.15445">
        <ele>2414</ele>
        <time>2021-01-29T14:04:37Z</time>
      </trkpt>
      <trkpt lat="42.76778" lon="0.15444">
        <ele>2414.2</ele>
        <time>2021-01-29T14:04:38Z</time>
      </trkpt>
      <trkpt lat="42.76778" lon="0.15443">
        <ele>2414.4</ele>
        <time>2021-01-29T14:04:39Z</time>
      </trkpt>
      <trkpt lat="42.76778" lon="0.15443">
        <ele>2414.4</ele>
        <time>2021-01-29T14:04:40Z</time>
      </trkpt>
      <trkpt lat="42.76778" lon="0.15442">
        <ele>2414.6</ele>
        <time>2021-01-29T14:04:41Z</time>
      </trkpt>
      <trkpt lat="42.76778" lon="0.15441">
        <ele>2414.6</ele>
        <time>2021-01-29T14:04:42Z</time>
      </trkpt>
      <trkpt lat="42.76777" lon="0.15441">
        <ele>2414.8</ele>
        <time>2021-01-29T14:04:43Z</time>
      </trkpt>
      <trkpt lat="42.76777" lon="0.1544">
        <ele>2414.8</ele>
        <time>2021-01-29T14:04:44Z</time>
      </trkpt>
      <trkpt lat="42.76777" lon="0.15439">
        <ele>2415</ele>
        <time>2021-01-29T14:04:45Z</time>
      </trkpt>
      <trkpt lat="42.76777" lon="0.15438">
        <ele>2415.2</ele>
        <time>2021-01-29T14:04:46Z</time>
      </trkpt>
      <trkpt lat="42.76776" lon="0.15437">
        <ele>2415.2</ele>
        <time>2021-01-29T14:04:47Z</time>
      </trkpt>
      <trkpt lat="42.76776" lon="0.15437">
        <ele>2415.4</ele>
        <time>2021-01-29T14:04:48Z</time>
      </trkpt>
      <trkpt lat="42.76776" lon="0.15436">
        <ele>2415.4</ele>
        <time>2021-01-29T14:04:49Z</time>
      </trkpt>
      <trkpt lat="42.76776" lon="0.15435">
        <ele>2415.4</ele>
        <time>2021-01-29T14:04:50Z</time>
      </trkpt>
      <trkpt lat="42.76775" lon="0.15434">
        <ele>2415.8</ele>
        <time>2021-01-29T14:04:51Z</time>
      </trkpt>
      <trkpt lat="42.76775" lon="0.15433">
        <ele>2415.8</ele>
        <time>2021-01-29T14:04:52Z</time>
      </trkpt>
      <trkpt lat="42.76775" lon="0.15433">
        <ele>2416</ele>
        <time>2021-01-29T14:04:53Z</time>
      </trkpt>
      <trkpt lat="42.76774" lon="0.15432">
        <ele>2416</ele>
        <time>2021-01-29T14:04:54Z</time>
      </trkpt>
      <trkpt lat="42.76774" lon="0.15431">
        <ele>2416</ele>
        <time>2021-01-29T14:04:55Z</time>
      </trkpt>
      <trkpt lat="42.76774" lon="0.1543">
        <ele>2416.2</ele>
        <time>2021-01-29T14:04:56Z</time>
      </trkpt>
      <trkpt lat="42.76774" lon="0.15429">
        <ele>2416.2</ele>
        <time>2021-01-29T14:04:57Z</time>
      </trkpt>
      <trkpt lat="42.76774" lon="0.15429">
        <ele>2416.2</ele>
        <time>2021-01-29T14:04:58Z</time>
      </trkpt>
      <trkpt lat="42.76774" lon="0.15428">
        <ele>2416.2</ele>
        <time>2021-01-29T14:04:59Z</time>
      </trkpt>
      <trkpt lat="42.76773" lon="0.15427">
        <ele>2416.2</ele>
        <time>2021-01-29T14:05:00Z</time>
      </trkpt>
      <trkpt lat="42.76773" lon="0.15427">
        <ele>2416.4</ele>
        <time>2021-01-29T14:05:01Z</time>
      </trkpt>
      <trkpt lat="42.76773" lon="0.15426">
        <ele>2416.2</ele>
        <time>2021-01-29T14:05:02Z</time>
      </trkpt>
      <trkpt lat="42.76772" lon="0.15425">
        <ele>2416.4</ele>
        <time>2021-01-29T14:05:03Z</time>
      </trkpt>
      <trkpt lat="42.76772" lon="0.15424">
        <ele>2416.4</ele>
        <time>2021-01-29T14:05:04Z</time>
      </trkpt>
      <trkpt lat="42.76771" lon="0.15423">
        <ele>2416.6</ele>
        <time>2021-01-29T14:05:05Z</time>
      </trkpt>
      <trkpt lat="42.76771" lon="0.15423">
        <ele>2416.8</ele>
        <time>2021-01-29T14:05:06Z</time>
      </trkpt>
      <trkpt lat="42.76771" lon="0.15422">
        <ele>2416.8</ele>
        <time>2021-01-29T14:05:07Z</time>
      </trkpt>
      <trkpt lat="42.7677" lon="0.15421">
        <ele>2417</ele>
        <time>2021-01-29T14:05:08Z</time>
      </trkpt>
      <trkpt lat="42.7677" lon="0.15421">
        <ele>2417</ele>
        <time>2021-01-29T14:05:09Z</time>
      </trkpt>
      <trkpt lat="42.7677" lon="0.1542">
        <ele>2417.4</ele>
        <time>2021-01-29T14:05:10Z</time>
      </trkpt>
      <trkpt lat="42.76769" lon="0.1542">
        <ele>2417.4</ele>
        <time>2021-01-29T14:05:11Z</time>
      </trkpt>
      <trkpt lat="42.76769" lon="0.15419">
        <ele>2417.6</ele>
        <time>2021-01-29T14:05:12Z</time>
      </trkpt>
      <trkpt lat="42.76768" lon="0.15419">
        <ele>2417.8</ele>
        <time>2021-01-29T14:05:13Z</time>
      </trkpt>
      <trkpt lat="42.76768" lon="0.15418">
        <ele>2418</ele>
        <time>2021-01-29T14:05:14Z</time>
      </trkpt>
      <trkpt lat="42.76768" lon="0.15418">
        <ele>2418</ele>
        <time>2021-01-29T14:05:15Z</time>
      </trkpt>
      <trkpt lat="42.76767" lon="0.15417">
        <ele>2418.2</ele>
        <time>2021-01-29T14:05:16Z</time>
      </trkpt>
      <trkpt lat="42.76767" lon="0.15417">
        <ele>2418.2</ele>
        <time>2021-01-29T14:05:17Z</time>
      </trkpt>
      <trkpt lat="42.76766" lon="0.15416">
        <ele>2418.4</ele>
        <time>2021-01-29T14:05:18Z</time>
      </trkpt>
      <trkpt lat="42.76766" lon="0.15416">
        <ele>2418.4</ele>
        <time>2021-01-29T14:05:19Z</time>
      </trkpt>
      <trkpt lat="42.76766" lon="0.15415">
        <ele>2418.6</ele>
        <time>2021-01-29T14:05:20Z</time>
      </trkpt>
      <trkpt lat="42.76766" lon="0.15414">
        <ele>2418.6</ele>
        <time>2021-01-29T14:05:21Z</time>
      </trkpt>
      <trkpt lat="42.76765" lon="0.15414">
        <ele>2418.8</ele>
        <time>2021-01-29T14:05:22Z</time>
      </trkpt>
      <trkpt lat="42.76765" lon="0.15413">
        <ele>2418.8</ele>
        <time>2021-01-29T14:05:23Z</time>
      </trkpt>
      <trkpt lat="42.76764" lon="0.15413">
        <ele>2419</ele>
        <time>2021-01-29T14:05:24Z</time>
      </trkpt>
      <trkpt lat="42.76764" lon="0.15412">
        <ele>2419</ele>
        <time>2021-01-29T14:05:25Z</time>
      </trkpt>
      <trkpt lat="42.76763" lon="0.15412">
        <ele>2419.2</ele>
        <time>2021-01-29T14:05:26Z</time>
      </trkpt>
      <trkpt lat="42.76763" lon="0.15411">
        <ele>2419.2</ele>
        <time>2021-01-29T14:05:27Z</time>
      </trkpt>
      <trkpt lat="42.76763" lon="0.1541">
        <ele>2419.4</ele>
        <time>2021-01-29T14:05:28Z</time>
      </trkpt>
      <trkpt lat="42.76763" lon="0.15409">
        <ele>2419.4</ele>
        <time>2021-01-29T14:05:29Z</time>
      </trkpt>
      <trkpt lat="42.76762" lon="0.15409">
        <ele>2419.8</ele>
        <time>2021-01-29T14:05:30Z</time>
      </trkpt>
      <trkpt lat="42.76762" lon="0.15408">
        <ele>2419.8</ele>
        <time>2021-01-29T14:05:31Z</time>
      </trkpt>
      <trkpt lat="42.76762" lon="0.15407">
        <ele>2419.8</ele>
        <time>2021-01-29T14:05:32Z</time>
      </trkpt>
      <trkpt lat="42.76761" lon="0.15406">
        <ele>2420</ele>
        <time>2021-01-29T14:05:33Z</time>
      </trkpt>
      <trkpt lat="42.76761" lon="0.15406">
        <ele>2420</ele>
        <time>2021-01-29T14:05:34Z</time>
      </trkpt>
      <trkpt lat="42.76761" lon="0.15405">
        <ele>2420.2</ele>
        <time>2021-01-29T14:05:35Z</time>
      </trkpt>
      <trkpt lat="42.7676" lon="0.15404">
        <ele>2420.4</ele>
        <time>2021-01-29T14:05:36Z</time>
      </trkpt>
      <trkpt lat="42.7676" lon="0.15403">
        <ele>2420.4</ele>
        <time>2021-01-29T14:05:37Z</time>
      </trkpt>
      <trkpt lat="42.7676" lon="0.15403">
        <ele>2420.6</ele>
        <time>2021-01-29T14:05:38Z</time>
      </trkpt>
      <trkpt lat="42.76759" lon="0.15402">
        <ele>2420.8</ele>
        <time>2021-01-29T14:05:39Z</time>
      </trkpt>
      <trkpt lat="42.76759" lon="0.15402">
        <ele>2421.2</ele>
        <time>2021-01-29T14:05:40Z</time>
      </trkpt>
      <trkpt lat="42.76759" lon="0.15401">
        <ele>2421.4</ele>
        <time>2021-01-29T14:05:41Z</time>
      </trkpt>
      <trkpt lat="42.76758" lon="0.154">
        <ele>2421.2</ele>
        <time>2021-01-29T14:05:42Z</time>
      </trkpt>
      <trkpt lat="42.76758" lon="0.15399">
        <ele>2421.6</ele>
        <time>2021-01-29T14:05:43Z</time>
      </trkpt>
      <trkpt lat="42.76758" lon="0.15399">
        <ele>2421.4</ele>
        <time>2021-01-29T14:05:44Z</time>
      </trkpt>
      <trkpt lat="42.76758" lon="0.15398">
        <ele>2421.8</ele>
        <time>2021-01-29T14:05:45Z</time>
      </trkpt>
      <trkpt lat="42.76757" lon="0.15397">
        <ele>2421.8</ele>
        <time>2021-01-29T14:05:46Z</time>
      </trkpt>
      <trkpt lat="42.76757" lon="0.15396">
        <ele>2421.8</ele>
        <time>2021-01-29T14:05:47Z</time>
      </trkpt>
      <trkpt lat="42.76757" lon="0.15395">
        <ele>2421.8</ele>
        <time>2021-01-29T14:05:48Z</time>
      </trkpt>
      <trkpt lat="42.76756" lon="0.15395">
        <ele>2421.8</ele>
        <time>2021-01-29T14:05:49Z</time>
      </trkpt>
      <trkpt lat="42.76756" lon="0.15394">
        <ele>2421.8</ele>
        <time>2021-01-29T14:05:50Z</time>
      </trkpt>
      <trkpt lat="42.76756" lon="0.15393">
        <ele>2421.8</ele>
        <time>2021-01-29T14:05:51Z</time>
      </trkpt>
      <trkpt lat="42.76756" lon="0.15392">
        <ele>2421.8</ele>
        <time>2021-01-29T14:05:52Z</time>
      </trkpt>
      <trkpt lat="42.76755" lon="0.15392">
        <ele>2422</ele>
        <time>2021-01-29T14:05:53Z</time>
      </trkpt>
      <trkpt lat="42.76755" lon="0.15391">
        <ele>2421.8</ele>
        <time>2021-01-29T14:05:54Z</time>
      </trkpt>
      <trkpt lat="42.76755" lon="0.1539">
        <ele>2422</ele>
        <time>2021-01-29T14:05:55Z</time>
      </trkpt>
      <trkpt lat="42.76755" lon="0.1539">
        <ele>2422.2</ele>
        <time>2021-01-29T14:05:56Z</time>
      </trkpt>
      <trkpt lat="42.76755" lon="0.15389">
        <ele>2422.4</ele>
        <time>2021-01-29T14:05:57Z</time>
      </trkpt>
      <trkpt lat="42.76754" lon="0.15388">
        <ele>2422.6</ele>
        <time>2021-01-29T14:05:58Z</time>
      </trkpt>
      <trkpt lat="42.76754" lon="0.15388">
        <ele>2422.6</ele>
        <time>2021-01-29T14:05:59Z</time>
      </trkpt>
      <trkpt lat="42.76754" lon="0.15387">
        <ele>2422.8</ele>
        <time>2021-01-29T14:06:00Z</time>
      </trkpt>
      <trkpt lat="42.76753" lon="0.15386">
        <ele>2422.8</ele>
        <time>2021-01-29T14:06:01Z</time>
      </trkpt>
      <trkpt lat="42.76753" lon="0.15386">
        <ele>2422.8</ele>
        <time>2021-01-29T14:06:02Z</time>
      </trkpt>
      <trkpt lat="42.76753" lon="0.15385">
        <ele>2423</ele>
        <time>2021-01-29T14:06:03Z</time>
      </trkpt>
      <trkpt lat="42.76753" lon="0.15384">
        <ele>2423</ele>
        <time>2021-01-29T14:06:04Z</time>
      </trkpt>
      <trkpt lat="42.76753" lon="0.15384">
        <ele>2423.2</ele>
        <time>2021-01-29T14:06:05Z</time>
      </trkpt>
      <trkpt lat="42.76752" lon="0.15383">
        <ele>2423.2</ele>
        <time>2021-01-29T14:06:06Z</time>
      </trkpt>
      <trkpt lat="42.76752" lon="0.15383">
        <ele>2423.6</ele>
        <time>2021-01-29T14:06:07Z</time>
      </trkpt>
      <trkpt lat="42.76752" lon="0.15382">
        <ele>2423.6</ele>
        <time>2021-01-29T14:06:08Z</time>
      </trkpt>
      <trkpt lat="42.76751" lon="0.15381">
        <ele>2423.8</ele>
        <time>2021-01-29T14:06:09Z</time>
      </trkpt>
      <trkpt lat="42.76751" lon="0.15381">
        <ele>2423.8</ele>
        <time>2021-01-29T14:06:10Z</time>
      </trkpt>
      <trkpt lat="42.76751" lon="0.1538">
        <ele>2424</ele>
        <time>2021-01-29T14:06:11Z</time>
      </trkpt>
      <trkpt lat="42.76751" lon="0.15379">
        <ele>2424.2</ele>
        <time>2021-01-29T14:06:12Z</time>
      </trkpt>
      <trkpt lat="42.7675" lon="0.15379">
        <ele>2424.2</ele>
        <time>2021-01-29T14:06:13Z</time>
      </trkpt>
      <trkpt lat="42.7675" lon="0.15378">
        <ele>2424.4</ele>
        <time>2021-01-29T14:06:14Z</time>
      </trkpt>
      <trkpt lat="42.7675" lon="0.15377">
        <ele>2424.6</ele>
        <time>2021-01-29T14:06:15Z</time>
      </trkpt>
      <trkpt lat="42.7675" lon="0.15377">
        <ele>2424.6</ele>
        <time>2021-01-29T14:06:16Z</time>
      </trkpt>
      <trkpt lat="42.76749" lon="0.15376">
        <ele>2424.8</ele>
        <time>2021-01-29T14:06:17Z</time>
      </trkpt>
      <trkpt lat="42.76749" lon="0.15375">
        <ele>2424.8</ele>
        <time>2021-01-29T14:06:18Z</time>
      </trkpt>
      <trkpt lat="42.76749" lon="0.15375">
        <ele>2425.2</ele>
        <time>2021-01-29T14:06:19Z</time>
      </trkpt>
      <trkpt lat="42.76749" lon="0.15374">
        <ele>2425.2</ele>
        <time>2021-01-29T14:06:20Z</time>
      </trkpt>
      <trkpt lat="42.76749" lon="0.15373">
        <ele>2425.4</ele>
        <time>2021-01-29T14:06:21Z</time>
      </trkpt>
      <trkpt lat="42.76748" lon="0.15372">
        <ele>2425.4</ele>
        <time>2021-01-29T14:06:22Z</time>
      </trkpt>
      <trkpt lat="42.76748" lon="0.15371">
        <ele>2425.6</ele>
        <time>2021-01-29T14:06:23Z</time>
      </trkpt>
      <trkpt lat="42.76748" lon="0.1537">
        <ele>2425.6</ele>
        <time>2021-01-29T14:06:24Z</time>
      </trkpt>
      <trkpt lat="42.76748" lon="0.1537">
        <ele>2425.8</ele>
        <time>2021-01-29T14:06:25Z</time>
      </trkpt>
      <trkpt lat="42.76748" lon="0.15369">
        <ele>2426</ele>
        <time>2021-01-29T14:06:26Z</time>
      </trkpt>
      <trkpt lat="42.76747" lon="0.15368">
        <ele>2426</ele>
        <time>2021-01-29T14:06:27Z</time>
      </trkpt>
      <trkpt lat="42.76747" lon="0.15368">
        <ele>2426.2</ele>
        <time>2021-01-29T14:06:28Z</time>
      </trkpt>
      <trkpt lat="42.76747" lon="0.15367">
        <ele>2426.2</ele>
        <time>2021-01-29T14:06:29Z</time>
      </trkpt>
      <trkpt lat="42.76747" lon="0.15366">
        <ele>2426.4</ele>
        <time>2021-01-29T14:06:30Z</time>
      </trkpt>
      <trkpt lat="42.76746" lon="0.15365">
        <ele>2426.6</ele>
        <time>2021-01-29T14:06:31Z</time>
      </trkpt>
      <trkpt lat="42.76746" lon="0.15364">
        <ele>2426.6</ele>
        <time>2021-01-29T14:06:32Z</time>
      </trkpt>
      <trkpt lat="42.76746" lon="0.15363">
        <ele>2427</ele>
        <time>2021-01-29T14:06:33Z</time>
      </trkpt>
      <trkpt lat="42.76746" lon="0.15362">
        <ele>2427</ele>
        <time>2021-01-29T14:06:34Z</time>
      </trkpt>
      <trkpt lat="42.76746" lon="0.15362">
        <ele>2427.2</ele>
        <time>2021-01-29T14:06:35Z</time>
      </trkpt>
      <trkpt lat="42.76745" lon="0.15361">
        <ele>2427.2</ele>
        <time>2021-01-29T14:06:36Z</time>
      </trkpt>
      <trkpt lat="42.76745" lon="0.1536">
        <ele>2427.4</ele>
        <time>2021-01-29T14:06:37Z</time>
      </trkpt>
      <trkpt lat="42.76745" lon="0.15359">
        <ele>2427.4</ele>
        <time>2021-01-29T14:06:38Z</time>
      </trkpt>
      <trkpt lat="42.76745" lon="0.15359">
        <ele>2427.6</ele>
        <time>2021-01-29T14:06:39Z</time>
      </trkpt>
      <trkpt lat="42.76745" lon="0.15358">
        <ele>2427.6</ele>
        <time>2021-01-29T14:06:40Z</time>
      </trkpt>
      <trkpt lat="42.76744" lon="0.15357">
        <ele>2427.8</ele>
        <time>2021-01-29T14:06:41Z</time>
      </trkpt>
      <trkpt lat="42.76744" lon="0.15357">
        <ele>2427.8</ele>
        <time>2021-01-29T14:06:42Z</time>
      </trkpt>
      <trkpt lat="42.76744" lon="0.15356">
        <ele>2428</ele>
        <time>2021-01-29T14:06:43Z</time>
      </trkpt>
      <trkpt lat="42.76743" lon="0.15355">
        <ele>2428</ele>
        <time>2021-01-29T14:06:44Z</time>
      </trkpt>
      <trkpt lat="42.76743" lon="0.15355">
        <ele>2428.2</ele>
        <time>2021-01-29T14:06:45Z</time>
      </trkpt>
      <trkpt lat="42.76743" lon="0.15354">
        <ele>2428.4</ele>
        <time>2021-01-29T14:06:46Z</time>
      </trkpt>
      <trkpt lat="42.76743" lon="0.15353">
        <ele>2428.4</ele>
        <time>2021-01-29T14:06:47Z</time>
      </trkpt>
      <trkpt lat="42.76743" lon="0.15353">
        <ele>2428.6</ele>
        <time>2021-01-29T14:06:48Z</time>
      </trkpt>
      <trkpt lat="42.76742" lon="0.15352">
        <ele>2428.8</ele>
        <time>2021-01-29T14:06:49Z</time>
      </trkpt>
      <trkpt lat="42.76742" lon="0.15351">
        <ele>2429</ele>
        <time>2021-01-29T14:06:50Z</time>
      </trkpt>
      <trkpt lat="42.76742" lon="0.15351">
        <ele>2429.2</ele>
        <time>2021-01-29T14:06:51Z</time>
      </trkpt>
      <trkpt lat="42.76742" lon="0.1535">
        <ele>2429.2</ele>
        <time>2021-01-29T14:06:52Z</time>
      </trkpt>
      <trkpt lat="42.76742" lon="0.15349">
        <ele>2429.4</ele>
        <time>2021-01-29T14:06:53Z</time>
      </trkpt>
      <trkpt lat="42.76741" lon="0.15349">
        <ele>2429.4</ele>
        <time>2021-01-29T14:06:54Z</time>
      </trkpt>
      <trkpt lat="42.76741" lon="0.15348">
        <ele>2429.8</ele>
        <time>2021-01-29T14:06:55Z</time>
      </trkpt>
      <trkpt lat="42.76741" lon="0.15347">
        <ele>2429.8</ele>
        <time>2021-01-29T14:06:56Z</time>
      </trkpt>
      <trkpt lat="42.76741" lon="0.15347">
        <ele>2430</ele>
        <time>2021-01-29T14:06:57Z</time>
      </trkpt>
      <trkpt lat="42.76741" lon="0.15346">
        <ele>2430.2</ele>
        <time>2021-01-29T14:06:58Z</time>
      </trkpt>
      <trkpt lat="42.7674" lon="0.15345">
        <ele>2430.4</ele>
        <time>2021-01-29T14:06:59Z</time>
      </trkpt>
      <trkpt lat="42.7674" lon="0.15345">
        <ele>2430.6</ele>
        <time>2021-01-29T14:07:00Z</time>
      </trkpt>
      <trkpt lat="42.7674" lon="0.15344">
        <ele>2430.8</ele>
        <time>2021-01-29T14:07:01Z</time>
      </trkpt>
      <trkpt lat="42.76739" lon="0.15344">
        <ele>2431</ele>
        <time>2021-01-29T14:07:02Z</time>
      </trkpt>
      <trkpt lat="42.76739" lon="0.15343">
        <ele>2431.4</ele>
        <time>2021-01-29T14:07:03Z</time>
      </trkpt>
      <trkpt lat="42.76739" lon="0.15342">
        <ele>2431.4</ele>
        <time>2021-01-29T14:07:04Z</time>
      </trkpt>
      <trkpt lat="42.76739" lon="0.15342">
        <ele>2432</ele>
        <time>2021-01-29T14:07:05Z</time>
      </trkpt>
      <trkpt lat="42.76738" lon="0.15341">
        <ele>2432</ele>
        <time>2021-01-29T14:07:06Z</time>
      </trkpt>
      <trkpt lat="42.76738" lon="0.1534">
        <ele>2432.4</ele>
        <time>2021-01-29T14:07:07Z</time>
      </trkpt>
      <trkpt lat="42.76738" lon="0.1534">
        <ele>2432.4</ele>
        <time>2021-01-29T14:07:08Z</time>
      </trkpt>
      <trkpt lat="42.76738" lon="0.15339">
        <ele>2432.8</ele>
        <time>2021-01-29T14:07:09Z</time>
      </trkpt>
      <trkpt lat="42.76737" lon="0.15338">
        <ele>2433</ele>
        <time>2021-01-29T14:07:10Z</time>
      </trkpt>
      <trkpt lat="42.76737" lon="0.15338">
        <ele>2433.4</ele>
        <time>2021-01-29T14:07:11Z</time>
      </trkpt>
      <trkpt lat="42.76737" lon="0.15337">
        <ele>2433.6</ele>
        <time>2021-01-29T14:07:12Z</time>
      </trkpt>
      <trkpt lat="42.76737" lon="0.15336">
        <ele>2434</ele>
        <time>2021-01-29T14:07:13Z</time>
      </trkpt>
      <trkpt lat="42.76737" lon="0.15336">
        <ele>2434.6</ele>
        <time>2021-01-29T14:07:14Z</time>
      </trkpt>
      <trkpt lat="42.76736" lon="0.15335">
        <ele>2434.8</ele>
        <time>2021-01-29T14:07:15Z</time>
      </trkpt>
      <trkpt lat="42.76736" lon="0.15335">
        <ele>2435.2</ele>
        <time>2021-01-29T14:07:16Z</time>
      </trkpt>
      <trkpt lat="42.76736" lon="0.15335">
        <ele>2435.2</ele>
        <time>2021-01-29T14:07:17Z</time>
      </trkpt>
      <trkpt lat="42.76736" lon="0.15335">
        <ele>2435.4</ele>
        <time>2021-01-29T14:07:18Z</time>
      </trkpt>
      <trkpt lat="42.76736" lon="0.15335">
        <ele>2435.4</ele>
        <time>2021-01-29T14:07:19Z</time>
      </trkpt>
      <trkpt lat="42.76736" lon="0.15335">
        <ele>2435.6</ele>
        <time>2021-01-29T14:07:20Z</time>
      </trkpt>
      <trkpt lat="42.76736" lon="0.15333">
        <ele>2435.8</ele>
        <time>2021-01-29T14:07:21Z</time>
      </trkpt>
      <trkpt lat="42.76735" lon="0.15331">
        <ele>2436</ele>
        <time>2021-01-29T14:07:22Z</time>
      </trkpt>
      <trkpt lat="42.76734" lon="0.1533">
        <ele>2436.2</ele>
        <time>2021-01-29T14:07:23Z</time>
      </trkpt>
      <trkpt lat="42.76734" lon="0.1533">
        <ele>2436.2</ele>
        <time>2021-01-29T14:07:24Z</time>
      </trkpt>
      <trkpt lat="42.76734" lon="0.15329">
        <ele>2436.4</ele>
        <time>2021-01-29T14:07:25Z</time>
      </trkpt>
      <trkpt lat="42.76734" lon="0.15329">
        <ele>2436.2</ele>
        <time>2021-01-29T14:07:26Z</time>
      </trkpt>
      <trkpt lat="42.76734" lon="0.15328">
        <ele>2436.2</ele>
        <time>2021-01-29T14:07:27Z</time>
      </trkpt>
      <trkpt lat="42.76733" lon="0.15327">
        <ele>2436.2</ele>
        <time>2021-01-29T14:07:28Z</time>
      </trkpt>
      <trkpt lat="42.76733" lon="0.15327">
        <ele>2435.8</ele>
        <time>2021-01-29T14:07:29Z</time>
      </trkpt>
      <trkpt lat="42.76733" lon="0.15326">
        <ele>2436</ele>
        <time>2021-01-29T14:07:30Z</time>
      </trkpt>
      <trkpt lat="42.76733" lon="0.15325">
        <ele>2435.8</ele>
        <time>2021-01-29T14:07:31Z</time>
      </trkpt>
      <trkpt lat="42.76733" lon="0.15325">
        <ele>2436</ele>
        <time>2021-01-29T14:07:32Z</time>
      </trkpt>
      <trkpt lat="42.76732" lon="0.15324">
        <ele>2435.8</ele>
        <time>2021-01-29T14:07:33Z</time>
      </trkpt>
      <trkpt lat="42.76732" lon="0.15323">
        <ele>2436</ele>
        <time>2021-01-29T14:07:34Z</time>
      </trkpt>
      <trkpt lat="42.76732" lon="0.15323">
        <ele>2436</ele>
        <time>2021-01-29T14:07:35Z</time>
      </trkpt>
      <trkpt lat="42.76732" lon="0.15322">
        <ele>2436.2</ele>
        <time>2021-01-29T14:07:36Z</time>
      </trkpt>
      <trkpt lat="42.76731" lon="0.15321">
        <ele>2436.4</ele>
        <time>2021-01-29T14:07:37Z</time>
      </trkpt>
      <trkpt lat="42.76731" lon="0.15321">
        <ele>2436.6</ele>
        <time>2021-01-29T14:07:38Z</time>
      </trkpt>
      <trkpt lat="42.76731" lon="0.1532">
        <ele>2436.8</ele>
        <time>2021-01-29T14:07:39Z</time>
      </trkpt>
      <trkpt lat="42.76731" lon="0.15319">
        <ele>2436.8</ele>
        <time>2021-01-29T14:07:40Z</time>
      </trkpt>
      <trkpt lat="42.7673" lon="0.15319">
        <ele>2437</ele>
        <time>2021-01-29T14:07:41Z</time>
      </trkpt>
      <trkpt lat="42.7673" lon="0.15318">
        <ele>2437</ele>
        <time>2021-01-29T14:07:42Z</time>
      </trkpt>
      <trkpt lat="42.7673" lon="0.15318">
        <ele>2437</ele>
        <time>2021-01-29T14:07:43Z</time>
      </trkpt>
      <trkpt lat="42.7673" lon="0.15317">
        <ele>2437</ele>
        <time>2021-01-29T14:07:44Z</time>
      </trkpt>
      <trkpt lat="42.76729" lon="0.15317">
        <ele>2437.2</ele>
        <time>2021-01-29T14:07:45Z</time>
      </trkpt>
      <trkpt lat="42.76729" lon="0.15316">
        <ele>2437.2</ele>
        <time>2021-01-29T14:07:46Z</time>
      </trkpt>
      <trkpt lat="42.76729" lon="0.15315">
        <ele>2437.4</ele>
        <time>2021-01-29T14:07:47Z</time>
      </trkpt>
      <trkpt lat="42.76729" lon="0.15315">
        <ele>2437.6</ele>
        <time>2021-01-29T14:07:48Z</time>
      </trkpt>
      <trkpt lat="42.76729" lon="0.15314">
        <ele>2437.8</ele>
        <time>2021-01-29T14:07:49Z</time>
      </trkpt>
      <trkpt lat="42.76728" lon="0.15313">
        <ele>2437.8</ele>
        <time>2021-01-29T14:07:50Z</time>
      </trkpt>
      <trkpt lat="42.76728" lon="0.15313">
        <ele>2438</ele>
        <time>2021-01-29T14:07:51Z</time>
      </trkpt>
      <trkpt lat="42.76728" lon="0.15312">
        <ele>2438</ele>
        <time>2021-01-29T14:07:52Z</time>
      </trkpt>
      <trkpt lat="42.76728" lon="0.15312">
        <ele>2438</ele>
        <time>2021-01-29T14:07:53Z</time>
      </trkpt>
      <trkpt lat="42.76728" lon="0.15312">
        <ele>2438.2</ele>
        <time>2021-01-29T14:07:54Z</time>
      </trkpt>
      <trkpt lat="42.76727" lon="0.15311">
        <ele>2438.2</ele>
        <time>2021-01-29T14:07:55Z</time>
      </trkpt>
      <trkpt lat="42.76727" lon="0.1531">
        <ele>2438.4</ele>
        <time>2021-01-29T14:07:56Z</time>
      </trkpt>
      <trkpt lat="42.76726" lon="0.15309">
        <ele>2438.6</ele>
        <time>2021-01-29T14:07:57Z</time>
      </trkpt>
      <trkpt lat="42.76726" lon="0.15308">
        <ele>2438.6</ele>
        <time>2021-01-29T14:07:58Z</time>
      </trkpt>
      <trkpt lat="42.76726" lon="0.15308">
        <ele>2438.8</ele>
        <time>2021-01-29T14:07:59Z</time>
      </trkpt>
      <trkpt lat="42.76726" lon="0.15307">
        <ele>2439</ele>
        <time>2021-01-29T14:08:00Z</time>
      </trkpt>
      <trkpt lat="42.76726" lon="0.15307">
        <ele>2439</ele>
        <time>2021-01-29T14:08:01Z</time>
      </trkpt>
      <trkpt lat="42.76725" lon="0.15306">
        <ele>2439.2</ele>
        <time>2021-01-29T14:08:02Z</time>
      </trkpt>
      <trkpt lat="42.76725" lon="0.15306">
        <ele>2439.4</ele>
        <time>2021-01-29T14:08:03Z</time>
      </trkpt>
      <trkpt lat="42.76725" lon="0.15305">
        <ele>2439.6</ele>
        <time>2021-01-29T14:08:04Z</time>
      </trkpt>
      <trkpt lat="42.76725" lon="0.15305">
        <ele>2439.8</ele>
        <time>2021-01-29T14:08:05Z</time>
      </trkpt>
      <trkpt lat="42.76725" lon="0.15304">
        <ele>2440</ele>
        <time>2021-01-29T14:08:06Z</time>
      </trkpt>
      <trkpt lat="42.76724" lon="0.15304">
        <ele>2440.2</ele>
        <time>2021-01-29T14:08:07Z</time>
      </trkpt>
      <trkpt lat="42.76724" lon="0.15304">
        <ele>2440.4</ele>
        <time>2021-01-29T14:08:08Z</time>
      </trkpt>
      <trkpt lat="42.76724" lon="0.15304">
        <ele>2440.6</ele>
        <time>2021-01-29T14:08:09Z</time>
      </trkpt>
      <trkpt lat="42.76724" lon="0.15304">
        <ele>2440.8</ele>
        <time>2021-01-29T14:08:10Z</time>
      </trkpt>
      <trkpt lat="42.76724" lon="0.15304">
        <ele>2441</ele>
        <time>2021-01-29T14:08:11Z</time>
      </trkpt>
      <trkpt lat="42.76724" lon="0.15302">
        <ele>2441.2</ele>
        <time>2021-01-29T14:08:12Z</time>
      </trkpt>
      <trkpt lat="42.76723" lon="0.153">
        <ele>2441.4</ele>
        <time>2021-01-29T14:08:13Z</time>
      </trkpt>
      <trkpt lat="42.76723" lon="0.15299">
        <ele>2441.6</ele>
        <time>2021-01-29T14:08:14Z</time>
      </trkpt>
      <trkpt lat="42.76722" lon="0.15299">
        <ele>2441.6</ele>
        <time>2021-01-29T14:08:15Z</time>
      </trkpt>
      <trkpt lat="42.76722" lon="0.15298">
        <ele>2441.8</ele>
        <time>2021-01-29T14:08:16Z</time>
      </trkpt>
      <trkpt lat="42.76722" lon="0.15297">
        <ele>2442</ele>
        <time>2021-01-29T14:08:17Z</time>
      </trkpt>
      <trkpt lat="42.76722" lon="0.15296">
        <ele>2442</ele>
        <time>2021-01-29T14:08:18Z</time>
      </trkpt>
      <trkpt lat="42.76722" lon="0.15296">
        <ele>2442.4</ele>
        <time>2021-01-29T14:08:19Z</time>
      </trkpt>
      <trkpt lat="42.76722" lon="0.15295">
        <ele>2442.6</ele>
        <time>2021-01-29T14:08:20Z</time>
      </trkpt>
      <trkpt lat="42.76721" lon="0.15294">
        <ele>2442.8</ele>
        <time>2021-01-29T14:08:21Z</time>
      </trkpt>
      <trkpt lat="42.76721" lon="0.15294">
        <ele>2443</ele>
        <time>2021-01-29T14:08:22Z</time>
      </trkpt>
      <trkpt lat="42.76721" lon="0.15293">
        <ele>2443.4</ele>
        <time>2021-01-29T14:08:23Z</time>
      </trkpt>
      <trkpt lat="42.76721" lon="0.15293">
        <ele>2443.4</ele>
        <time>2021-01-29T14:08:24Z</time>
      </trkpt>
      <trkpt lat="42.76721" lon="0.15293">
        <ele>2443.4</ele>
        <time>2021-01-29T14:08:25Z</time>
      </trkpt>
      <trkpt lat="42.76721" lon="0.15293">
        <ele>2443.4</ele>
        <time>2021-01-29T14:08:26Z</time>
      </trkpt>
      <trkpt lat="42.76721" lon="0.15293">
        <ele>2443.2</ele>
        <time>2021-01-29T14:08:27Z</time>
      </trkpt>
      <trkpt lat="42.76721" lon="0.15293">
        <ele>2443.4</ele>
        <time>2021-01-29T14:08:28Z</time>
      </trkpt>
      <trkpt lat="42.76721" lon="0.15291">
        <ele>2443.2</ele>
        <time>2021-01-29T14:08:29Z</time>
      </trkpt>
      <trkpt lat="42.7672" lon="0.15289">
        <ele>2443.6</ele>
        <time>2021-01-29T14:08:30Z</time>
      </trkpt>
      <trkpt lat="42.7672" lon="0.15289">
        <ele>2443.4</ele>
        <time>2021-01-29T14:08:31Z</time>
      </trkpt>
      <trkpt lat="42.7672" lon="0.15288">
        <ele>2443.8</ele>
        <time>2021-01-29T14:08:32Z</time>
      </trkpt>
      <trkpt lat="42.7672" lon="0.15288">
        <ele>2444</ele>
        <time>2021-01-29T14:08:33Z</time>
      </trkpt>
      <trkpt lat="42.7672" lon="0.15288">
        <ele>2444.2</ele>
        <time>2021-01-29T14:08:34Z</time>
      </trkpt>
      <trkpt lat="42.7672" lon="0.15288">
        <ele>2444.4</ele>
        <time>2021-01-29T14:08:35Z</time>
      </trkpt>
      <trkpt lat="42.76719" lon="0.15287">
        <ele>2444.4</ele>
        <time>2021-01-29T14:08:36Z</time>
      </trkpt>
      <trkpt lat="42.76719" lon="0.15285">
        <ele>2444.6</ele>
        <time>2021-01-29T14:08:37Z</time>
      </trkpt>
      <trkpt lat="42.76719" lon="0.15284">
        <ele>2444.6</ele>
        <time>2021-01-29T14:08:38Z</time>
      </trkpt>
      <trkpt lat="42.76719" lon="0.15284">
        <ele>2444.6</ele>
        <time>2021-01-29T14:08:39Z</time>
      </trkpt>
      <trkpt lat="42.76718" lon="0.15283">
        <ele>2444.6</ele>
        <time>2021-01-29T14:08:40Z</time>
      </trkpt>
      <trkpt lat="42.76718" lon="0.15282">
        <ele>2444.8</ele>
        <time>2021-01-29T14:08:41Z</time>
      </trkpt>
      <trkpt lat="42.76718" lon="0.15282">
        <ele>2444.8</ele>
        <time>2021-01-29T14:08:42Z</time>
      </trkpt>
      <trkpt lat="42.76718" lon="0.15281">
        <ele>2445</ele>
        <time>2021-01-29T14:08:43Z</time>
      </trkpt>
      <trkpt lat="42.76717" lon="0.1528">
        <ele>2445</ele>
        <time>2021-01-29T14:08:44Z</time>
      </trkpt>
      <trkpt lat="42.76717" lon="0.1528">
        <ele>2445.2</ele>
        <time>2021-01-29T14:08:45Z</time>
      </trkpt>
      <trkpt lat="42.76717" lon="0.15279">
        <ele>2445.2</ele>
        <time>2021-01-29T14:08:46Z</time>
      </trkpt>
      <trkpt lat="42.76717" lon="0.15278">
        <ele>2445.4</ele>
        <time>2021-01-29T14:08:47Z</time>
      </trkpt>
      <trkpt lat="42.76716" lon="0.15278">
        <ele>2445.4</ele>
        <time>2021-01-29T14:08:48Z</time>
      </trkpt>
      <trkpt lat="42.76716" lon="0.15277">
        <ele>2445.6</ele>
        <time>2021-01-29T14:08:49Z</time>
      </trkpt>
      <trkpt lat="42.76716" lon="0.15276">
        <ele>2445.8</ele>
        <time>2021-01-29T14:08:50Z</time>
      </trkpt>
      <trkpt lat="42.76716" lon="0.15275">
        <ele>2445.8</ele>
        <time>2021-01-29T14:08:51Z</time>
      </trkpt>
      <trkpt lat="42.76716" lon="0.15275">
        <ele>2446</ele>
        <time>2021-01-29T14:08:52Z</time>
      </trkpt>
      <trkpt lat="42.76716" lon="0.15274">
        <ele>2446.4</ele>
        <time>2021-01-29T14:08:53Z</time>
      </trkpt>
      <trkpt lat="42.76715" lon="0.15273">
        <ele>2446.4</ele>
        <time>2021-01-29T14:08:54Z</time>
      </trkpt>
      <trkpt lat="42.76715" lon="0.15272">
        <ele>2446.6</ele>
        <time>2021-01-29T14:08:55Z</time>
      </trkpt>
      <trkpt lat="42.76715" lon="0.15272">
        <ele>2446.6</ele>
        <time>2021-01-29T14:08:56Z</time>
      </trkpt>
      <trkpt lat="42.76715" lon="0.15271">
        <ele>2446.8</ele>
        <time>2021-01-29T14:08:57Z</time>
      </trkpt>
      <trkpt lat="42.76714" lon="0.1527">
        <ele>2447</ele>
        <time>2021-01-29T14:08:58Z</time>
      </trkpt>
      <trkpt lat="42.76714" lon="0.1527">
        <ele>2447.2</ele>
        <time>2021-01-29T14:08:59Z</time>
      </trkpt>
      <trkpt lat="42.76714" lon="0.15269">
        <ele>2447.2</ele>
        <time>2021-01-29T14:09:00Z</time>
      </trkpt>
      <trkpt lat="42.76714" lon="0.15269">
        <ele>2447.4</ele>
        <time>2021-01-29T14:09:01Z</time>
      </trkpt>
      <trkpt lat="42.76714" lon="0.15269">
        <ele>2447.6</ele>
        <time>2021-01-29T14:09:02Z</time>
      </trkpt>
      <trkpt lat="42.76714" lon="0.15269">
        <ele>2447.6</ele>
        <time>2021-01-29T14:09:03Z</time>
      </trkpt>
      <trkpt lat="42.76714" lon="0.15269">
        <ele>2447.8</ele>
        <time>2021-01-29T14:09:04Z</time>
      </trkpt>
      <trkpt lat="42.76714" lon="0.15269">
        <ele>2447.8</ele>
        <time>2021-01-29T14:09:05Z</time>
      </trkpt>
      <trkpt lat="42.76714" lon="0.15269">
        <ele>2448.2</ele>
        <time>2021-01-29T14:09:06Z</time>
      </trkpt>
      <trkpt lat="42.76713" lon="0.15267">
        <ele>2448.2</ele>
        <time>2021-01-29T14:09:07Z</time>
      </trkpt>
      <trkpt lat="42.76712" lon="0.15264">
        <ele>2448.4</ele>
        <time>2021-01-29T14:09:08Z</time>
      </trkpt>
      <trkpt lat="42.76712" lon="0.15263">
        <ele>2448.6</ele>
        <time>2021-01-29T14:09:09Z</time>
      </trkpt>
      <trkpt lat="42.76712" lon="0.15262">
        <ele>2448.8</ele>
        <time>2021-01-29T14:09:10Z</time>
      </trkpt>
      <trkpt lat="42.76712" lon="0.15262">
        <ele>2449</ele>
        <time>2021-01-29T14:09:11Z</time>
      </trkpt>
      <trkpt lat="42.76712" lon="0.15261">
        <ele>2449</ele>
        <time>2021-01-29T14:09:12Z</time>
      </trkpt>
      <trkpt lat="42.76711" lon="0.1526">
        <ele>2449.2</ele>
        <time>2021-01-29T14:09:13Z</time>
      </trkpt>
      <trkpt lat="42.76711" lon="0.1526">
        <ele>2449.2</ele>
        <time>2021-01-29T14:09:14Z</time>
      </trkpt>
      <trkpt lat="42.76711" lon="0.15259">
        <ele>2449.4</ele>
        <time>2021-01-29T14:09:15Z</time>
      </trkpt>
      <trkpt lat="42.76711" lon="0.15258">
        <ele>2449.6</ele>
        <time>2021-01-29T14:09:16Z</time>
      </trkpt>
      <trkpt lat="42.76711" lon="0.15258">
        <ele>2449.6</ele>
        <time>2021-01-29T14:09:17Z</time>
      </trkpt>
      <trkpt lat="42.7671" lon="0.15257">
        <ele>2449.8</ele>
        <time>2021-01-29T14:09:18Z</time>
      </trkpt>
      <trkpt lat="42.7671" lon="0.15256">
        <ele>2449.6</ele>
        <time>2021-01-29T14:09:19Z</time>
      </trkpt>
      <trkpt lat="42.7671" lon="0.15256">
        <ele>2449.8</ele>
        <time>2021-01-29T14:09:20Z</time>
      </trkpt>
      <trkpt lat="42.7671" lon="0.15255">
        <ele>2449.8</ele>
        <time>2021-01-29T14:09:21Z</time>
      </trkpt>
      <trkpt lat="42.76709" lon="0.15254">
        <ele>2450</ele>
        <time>2021-01-29T14:09:22Z</time>
      </trkpt>
      <trkpt lat="42.76709" lon="0.15254">
        <ele>2450</ele>
        <time>2021-01-29T14:09:23Z</time>
      </trkpt>
      <trkpt lat="42.76709" lon="0.15253">
        <ele>2450</ele>
        <time>2021-01-29T14:09:24Z</time>
      </trkpt>
      <trkpt lat="42.76708" lon="0.15253">
        <ele>2450.2</ele>
        <time>2021-01-29T14:09:25Z</time>
      </trkpt>
      <trkpt lat="42.76708" lon="0.15252">
        <ele>2450.2</ele>
        <time>2021-01-29T14:09:26Z</time>
      </trkpt>
      <trkpt lat="42.76708" lon="0.15251">
        <ele>2450.2</ele>
        <time>2021-01-29T14:09:27Z</time>
      </trkpt>
      <trkpt lat="42.76708" lon="0.15251">
        <ele>2450.2</ele>
        <time>2021-01-29T14:09:28Z</time>
      </trkpt>
      <trkpt lat="42.76708" lon="0.1525">
        <ele>2450.2</ele>
        <time>2021-01-29T14:09:29Z</time>
      </trkpt>
      <trkpt lat="42.76707" lon="0.1525">
        <ele>2450.4</ele>
        <time>2021-01-29T14:09:30Z</time>
      </trkpt>
      <trkpt lat="42.76707" lon="0.15249">
        <ele>2450.2</ele>
        <time>2021-01-29T14:09:31Z</time>
      </trkpt>
      <trkpt lat="42.76707" lon="0.15248">
        <ele>2450.4</ele>
        <time>2021-01-29T14:09:32Z</time>
      </trkpt>
      <trkpt lat="42.76706" lon="0.15248">
        <ele>2450.2</ele>
        <time>2021-01-29T14:09:33Z</time>
      </trkpt>
      <trkpt lat="42.76706" lon="0.15247">
        <ele>2450.4</ele>
        <time>2021-01-29T14:09:34Z</time>
      </trkpt>
      <trkpt lat="42.76706" lon="0.15247">
        <ele>2450.4</ele>
        <time>2021-01-29T14:09:35Z</time>
      </trkpt>
      <trkpt lat="42.76706" lon="0.15246">
        <ele>2450.4</ele>
        <time>2021-01-29T14:09:36Z</time>
      </trkpt>
      <trkpt lat="42.76705" lon="0.15245">
        <ele>2450.4</ele>
        <time>2021-01-29T14:09:37Z</time>
      </trkpt>
      <trkpt lat="42.76705" lon="0.15245">
        <ele>2450.4</ele>
        <time>2021-01-29T14:09:38Z</time>
      </trkpt>
      <trkpt lat="42.76705" lon="0.15244">
        <ele>2450.6</ele>
        <time>2021-01-29T14:09:39Z</time>
      </trkpt>
      <trkpt lat="42.76704" lon="0.15244">
        <ele>2450.8</ele>
        <time>2021-01-29T14:09:40Z</time>
      </trkpt>
      <trkpt lat="42.76704" lon="0.15244">
        <ele>2451</ele>
        <time>2021-01-29T14:09:41Z</time>
      </trkpt>
      <trkpt lat="42.76704" lon="0.15243">
        <ele>2451</ele>
        <time>2021-01-29T14:09:42Z</time>
      </trkpt>
      <trkpt lat="42.76704" lon="0.15242">
        <ele>2451.2</ele>
        <time>2021-01-29T14:09:43Z</time>
      </trkpt>
      <trkpt lat="42.76703" lon="0.15241">
        <ele>2451.4</ele>
        <time>2021-01-29T14:09:44Z</time>
      </trkpt>
      <trkpt lat="42.76703" lon="0.15241">
        <ele>2451.4</ele>
        <time>2021-01-29T14:09:45Z</time>
      </trkpt>
      <trkpt lat="42.76703" lon="0.1524">
        <ele>2451.8</ele>
        <time>2021-01-29T14:09:46Z</time>
      </trkpt>
      <trkpt lat="42.76703" lon="0.1524">
        <ele>2451.8</ele>
        <time>2021-01-29T14:09:47Z</time>
      </trkpt>
      <trkpt lat="42.76703" lon="0.1524">
        <ele>2452</ele>
        <time>2021-01-29T14:09:48Z</time>
      </trkpt>
      <trkpt lat="42.76703" lon="0.1524">
        <ele>2452.2</ele>
        <time>2021-01-29T14:09:49Z</time>
      </trkpt>
      <trkpt lat="42.76702" lon="0.15239">
        <ele>2452.2</ele>
        <time>2021-01-29T14:09:50Z</time>
      </trkpt>
      <trkpt lat="42.76702" lon="0.15237">
        <ele>2452.4</ele>
        <time>2021-01-29T14:09:51Z</time>
      </trkpt>
      <trkpt lat="42.76701" lon="0.15237">
        <ele>2452.4</ele>
        <time>2021-01-29T14:09:52Z</time>
      </trkpt>
      <trkpt lat="42.76701" lon="0.15236">
        <ele>2452.8</ele>
        <time>2021-01-29T14:09:53Z</time>
      </trkpt>
      <trkpt lat="42.767" lon="0.15235">
        <ele>2452.8</ele>
        <time>2021-01-29T14:09:54Z</time>
      </trkpt>
      <trkpt lat="42.767" lon="0.15235">
        <ele>2453.2</ele>
        <time>2021-01-29T14:09:55Z</time>
      </trkpt>
      <trkpt lat="42.767" lon="0.15234">
        <ele>2453.2</ele>
        <time>2021-01-29T14:09:56Z</time>
      </trkpt>
      <trkpt lat="42.767" lon="0.15233">
        <ele>2453.4</ele>
        <time>2021-01-29T14:09:57Z</time>
      </trkpt>
      <trkpt lat="42.76699" lon="0.15233">
        <ele>2453.6</ele>
        <time>2021-01-29T14:09:58Z</time>
      </trkpt>
      <trkpt lat="42.76699" lon="0.15232">
        <ele>2453.8</ele>
        <time>2021-01-29T14:09:59Z</time>
      </trkpt>
      <trkpt lat="42.76699" lon="0.15232">
        <ele>2454</ele>
        <time>2021-01-29T14:10:00Z</time>
      </trkpt>
      <trkpt lat="42.76699" lon="0.15231">
        <ele>2454</ele>
        <time>2021-01-29T14:10:01Z</time>
      </trkpt>
      <trkpt lat="42.76698" lon="0.15231">
        <ele>2454.2</ele>
        <time>2021-01-29T14:10:02Z</time>
      </trkpt>
      <trkpt lat="42.76698" lon="0.1523">
        <ele>2454.4</ele>
        <time>2021-01-29T14:10:03Z</time>
      </trkpt>
      <trkpt lat="42.76697" lon="0.15229">
        <ele>2454.4</ele>
        <time>2021-01-29T14:10:04Z</time>
      </trkpt>
      <trkpt lat="42.76697" lon="0.15229">
        <ele>2454.6</ele>
        <time>2021-01-29T14:10:05Z</time>
      </trkpt>
      <trkpt lat="42.76697" lon="0.15228">
        <ele>2454.8</ele>
        <time>2021-01-29T14:10:06Z</time>
      </trkpt>
      <trkpt lat="42.76697" lon="0.15228">
        <ele>2455</ele>
        <time>2021-01-29T14:10:07Z</time>
      </trkpt>
      <trkpt lat="42.76697" lon="0.15228">
        <ele>2455</ele>
        <time>2021-01-29T14:10:08Z</time>
      </trkpt>
      <trkpt lat="42.76697" lon="0.15228">
        <ele>2455.2</ele>
        <time>2021-01-29T14:10:09Z</time>
      </trkpt>
      <trkpt lat="42.76697" lon="0.15228">
        <ele>2455.4</ele>
        <time>2021-01-29T14:10:10Z</time>
      </trkpt>
      <trkpt lat="42.76697" lon="0.15228">
        <ele>2455.6</ele>
        <time>2021-01-29T14:10:11Z</time>
      </trkpt>
      <trkpt lat="42.76697" lon="0.15228">
        <ele>2455.8</ele>
        <time>2021-01-29T14:10:12Z</time>
      </trkpt>
      <trkpt lat="42.76697" lon="0.15228">
        <ele>2456</ele>
        <time>2021-01-29T14:10:13Z</time>
      </trkpt>
      <trkpt lat="42.76697" lon="0.15228">
        <ele>2456</ele>
        <time>2021-01-29T14:10:14Z</time>
      </trkpt>
      <trkpt lat="42.76697" lon="0.15228">
        <ele>2456.2</ele>
        <time>2021-01-29T14:10:15Z</time>
      </trkpt>
      <trkpt lat="42.76697" lon="0.15225">
        <ele>2456.4</ele>
        <time>2021-01-29T14:10:16Z</time>
      </trkpt>
      <trkpt lat="42.76696" lon="0.15221">
        <ele>2456.6</ele>
        <time>2021-01-29T14:10:17Z</time>
      </trkpt>
      <trkpt lat="42.76696" lon="0.1522">
        <ele>2456.6</ele>
        <time>2021-01-29T14:10:18Z</time>
      </trkpt>
      <trkpt lat="42.76696" lon="0.1522">
        <ele>2457</ele>
        <time>2021-01-29T14:10:19Z</time>
      </trkpt>
      <trkpt lat="42.76696" lon="0.15219">
        <ele>2456.8</ele>
        <time>2021-01-29T14:10:20Z</time>
      </trkpt>
      <trkpt lat="42.76695" lon="0.15218">
        <ele>2457.2</ele>
        <time>2021-01-29T14:10:21Z</time>
      </trkpt>
      <trkpt lat="42.76695" lon="0.15218">
        <ele>2457.2</ele>
        <time>2021-01-29T14:10:22Z</time>
      </trkpt>
      <trkpt lat="42.76695" lon="0.15217">
        <ele>2457.6</ele>
        <time>2021-01-29T14:10:23Z</time>
      </trkpt>
      <trkpt lat="42.76695" lon="0.15216">
        <ele>2457.6</ele>
        <time>2021-01-29T14:10:24Z</time>
      </trkpt>
      <trkpt lat="42.76695" lon="0.15216">
        <ele>2457.8</ele>
        <time>2021-01-29T14:10:25Z</time>
      </trkpt>
      <trkpt lat="42.76695" lon="0.15215">
        <ele>2458</ele>
        <time>2021-01-29T14:10:26Z</time>
      </trkpt>
      <trkpt lat="42.76695" lon="0.15215">
        <ele>2458.2</ele>
        <time>2021-01-29T14:10:27Z</time>
      </trkpt>
      <trkpt lat="42.76695" lon="0.15215">
        <ele>2458.2</ele>
        <time>2021-01-29T14:10:28Z</time>
      </trkpt>
      <trkpt lat="42.76695" lon="0.15214">
        <ele>2458.2</ele>
        <time>2021-01-29T14:10:29Z</time>
      </trkpt>
      <trkpt lat="42.76694" lon="0.15213">
        <ele>2458.4</ele>
        <time>2021-01-29T14:10:30Z</time>
      </trkpt>
      <trkpt lat="42.76694" lon="0.15212">
        <ele>2458.6</ele>
        <time>2021-01-29T14:10:31Z</time>
      </trkpt>
      <trkpt lat="42.76694" lon="0.15211">
        <ele>2458.8</ele>
        <time>2021-01-29T14:10:32Z</time>
      </trkpt>
      <trkpt lat="42.76694" lon="0.15211">
        <ele>2459</ele>
        <time>2021-01-29T14:10:33Z</time>
      </trkpt>
      <trkpt lat="42.76694" lon="0.15211">
        <ele>2459.2</ele>
        <time>2021-01-29T14:10:34Z</time>
      </trkpt>
      <trkpt lat="42.76694" lon="0.15211">
        <ele>2459.4</ele>
        <time>2021-01-29T14:10:35Z</time>
      </trkpt>
      <trkpt lat="42.76694" lon="0.1521">
        <ele>2459.4</ele>
        <time>2021-01-29T14:10:36Z</time>
      </trkpt>
      <trkpt lat="42.76693" lon="0.15208">
        <ele>2459.6</ele>
        <time>2021-01-29T14:10:37Z</time>
      </trkpt>
      <trkpt lat="42.76693" lon="0.15208">
        <ele>2459.8</ele>
        <time>2021-01-29T14:10:38Z</time>
      </trkpt>
      <trkpt lat="42.76693" lon="0.15207">
        <ele>2460</ele>
        <time>2021-01-29T14:10:39Z</time>
      </trkpt>
      <trkpt lat="42.76693" lon="0.15206">
        <ele>2460.2</ele>
        <time>2021-01-29T14:10:40Z</time>
      </trkpt>
      <trkpt lat="42.76693" lon="0.15205">
        <ele>2460.4</ele>
        <time>2021-01-29T14:10:41Z</time>
      </trkpt>
      <trkpt lat="42.76693" lon="0.15205">
        <ele>2460.6</ele>
        <time>2021-01-29T14:10:42Z</time>
      </trkpt>
      <trkpt lat="42.76693" lon="0.15205">
        <ele>2460.6</ele>
        <time>2021-01-29T14:10:43Z</time>
      </trkpt>
      <trkpt lat="42.76693" lon="0.15205">
        <ele>2461</ele>
        <time>2021-01-29T14:10:44Z</time>
      </trkpt>
      <trkpt lat="42.76692" lon="0.15204">
        <ele>2461</ele>
        <time>2021-01-29T14:10:45Z</time>
      </trkpt>
      <trkpt lat="42.76692" lon="0.15202">
        <ele>2461.2</ele>
        <time>2021-01-29T14:10:46Z</time>
      </trkpt>
      <trkpt lat="42.76692" lon="0.15201">
        <ele>2461.2</ele>
        <time>2021-01-29T14:10:47Z</time>
      </trkpt>
      <trkpt lat="42.76691" lon="0.15201">
        <ele>2461.6</ele>
        <time>2021-01-29T14:10:48Z</time>
      </trkpt>
      <trkpt lat="42.76691" lon="0.152">
        <ele>2461.6</ele>
        <time>2021-01-29T14:10:49Z</time>
      </trkpt>
      <trkpt lat="42.76691" lon="0.152">
        <ele>2461.8</ele>
        <time>2021-01-29T14:10:50Z</time>
      </trkpt>
      <trkpt lat="42.76691" lon="0.15199">
        <ele>2462</ele>
        <time>2021-01-29T14:10:51Z</time>
      </trkpt>
      <trkpt lat="42.76691" lon="0.15199">
        <ele>2462.2</ele>
        <time>2021-01-29T14:10:52Z</time>
      </trkpt>
      <trkpt lat="42.76691" lon="0.15198">
        <ele>2462.6</ele>
        <time>2021-01-29T14:10:53Z</time>
      </trkpt>
      <trkpt lat="42.76691" lon="0.15197">
        <ele>2462.6</ele>
        <time>2021-01-29T14:10:54Z</time>
      </trkpt>
      <trkpt lat="42.7669" lon="0.15197">
        <ele>2463</ele>
        <time>2021-01-29T14:10:55Z</time>
      </trkpt>
      <trkpt lat="42.7669" lon="0.15196">
        <ele>2463.2</ele>
        <time>2021-01-29T14:10:56Z</time>
      </trkpt>
      <trkpt lat="42.7669" lon="0.15196">
        <ele>2463.2</ele>
        <time>2021-01-29T14:10:57Z</time>
      </trkpt>
      <trkpt lat="42.7669" lon="0.15196">
        <ele>2463.4</ele>
        <time>2021-01-29T14:10:58Z</time>
      </trkpt>
      <trkpt lat="42.7669" lon="0.15195">
        <ele>2463.4</ele>
        <time>2021-01-29T14:10:59Z</time>
      </trkpt>
      <trkpt lat="42.76689" lon="0.15193">
        <ele>2463.6</ele>
        <time>2021-01-29T14:11:00Z</time>
      </trkpt>
      <trkpt lat="42.76689" lon="0.15193">
        <ele>2463.6</ele>
        <time>2021-01-29T14:11:01Z</time>
      </trkpt>
      <trkpt lat="42.76689" lon="0.15192">
        <ele>2463.8</ele>
        <time>2021-01-29T14:11:02Z</time>
      </trkpt>
      <trkpt lat="42.76689" lon="0.15192">
        <ele>2464.2</ele>
        <time>2021-01-29T14:11:03Z</time>
      </trkpt>
      <trkpt lat="42.76689" lon="0.15192">
        <ele>2464.2</ele>
        <time>2021-01-29T14:11:04Z</time>
      </trkpt>
      <trkpt lat="42.76689" lon="0.15192">
        <ele>2464.4</ele>
        <time>2021-01-29T14:11:05Z</time>
      </trkpt>
      <trkpt lat="42.76689" lon="0.15192">
        <ele>2464.4</ele>
        <time>2021-01-29T14:11:06Z</time>
      </trkpt>
      <trkpt lat="42.76689" lon="0.15192">
        <ele>2464.8</ele>
        <time>2021-01-29T14:11:07Z</time>
      </trkpt>
      <trkpt lat="42.76689" lon="0.1519">
        <ele>2464.8</ele>
        <time>2021-01-29T14:11:08Z</time>
      </trkpt>
      <trkpt lat="42.76688" lon="0.15188">
        <ele>2465</ele>
        <time>2021-01-29T14:11:09Z</time>
      </trkpt>
      <trkpt lat="42.76688" lon="0.15187">
        <ele>2465</ele>
        <time>2021-01-29T14:11:10Z</time>
      </trkpt>
      <trkpt lat="42.76688" lon="0.15186">
        <ele>2465.2</ele>
        <time>2021-01-29T14:11:11Z</time>
      </trkpt>
      <trkpt lat="42.76688" lon="0.15186">
        <ele>2465.4</ele>
        <time>2021-01-29T14:11:12Z</time>
      </trkpt>
      <trkpt lat="42.76688" lon="0.15186">
        <ele>2465.6</ele>
        <time>2021-01-29T14:11:13Z</time>
      </trkpt>
      <trkpt lat="42.76688" lon="0.15186">
        <ele>2465.8</ele>
        <time>2021-01-29T14:11:14Z</time>
      </trkpt>
      <trkpt lat="42.76688" lon="0.15186">
        <ele>2465.8</ele>
        <time>2021-01-29T14:11:15Z</time>
      </trkpt>
      <trkpt lat="42.76688" lon="0.15186">
        <ele>2466</ele>
        <time>2021-01-29T14:11:16Z</time>
      </trkpt>
      <trkpt lat="42.76688" lon="0.15184">
        <ele>2466</ele>
        <time>2021-01-29T14:11:17Z</time>
      </trkpt>
      <trkpt lat="42.76688" lon="0.15182">
        <ele>2466.2</ele>
        <time>2021-01-29T14:11:18Z</time>
      </trkpt>
      <trkpt lat="42.76688" lon="0.15181">
        <ele>2466.4</ele>
        <time>2021-01-29T14:11:19Z</time>
      </trkpt>
      <trkpt lat="42.76688" lon="0.1518">
        <ele>2466.8</ele>
        <time>2021-01-29T14:11:20Z</time>
      </trkpt>
      <trkpt lat="42.76688" lon="0.1518">
        <ele>2466.6</ele>
        <time>2021-01-29T14:11:21Z</time>
      </trkpt>
      <trkpt lat="42.76688" lon="0.15179">
        <ele>2466.8</ele>
        <time>2021-01-29T14:11:22Z</time>
      </trkpt>
      <trkpt lat="42.76688" lon="0.15179">
        <ele>2466.8</ele>
        <time>2021-01-29T14:11:23Z</time>
      </trkpt>
      <trkpt lat="42.76688" lon="0.15179">
        <ele>2467</ele>
        <time>2021-01-29T14:11:24Z</time>
      </trkpt>
      <trkpt lat="42.76688" lon="0.15179">
        <ele>2467</ele>
        <time>2021-01-29T14:11:25Z</time>
      </trkpt>
      <trkpt lat="42.76688" lon="0.15179">
        <ele>2467</ele>
        <time>2021-01-29T14:11:26Z</time>
      </trkpt>
      <trkpt lat="42.76688" lon="0.15179">
        <ele>2467.2</ele>
        <time>2021-01-29T14:11:27Z</time>
      </trkpt>
      <trkpt lat="42.76688" lon="0.15177">
        <ele>2467.2</ele>
        <time>2021-01-29T14:11:28Z</time>
      </trkpt>
      <trkpt lat="42.76688" lon="0.15174">
        <ele>2467.4</ele>
        <time>2021-01-29T14:11:29Z</time>
      </trkpt>
      <trkpt lat="42.76688" lon="0.15174">
        <ele>2467.2</ele>
        <time>2021-01-29T14:11:30Z</time>
      </trkpt>
      <trkpt lat="42.76688" lon="0.15173">
        <ele>2467.6</ele>
        <time>2021-01-29T14:11:31Z</time>
      </trkpt>
      <trkpt lat="42.76688" lon="0.15172">
        <ele>2467.4</ele>
        <time>2021-01-29T14:11:32Z</time>
      </trkpt>
      <trkpt lat="42.76688" lon="0.15172">
        <ele>2467.6</ele>
        <time>2021-01-29T14:11:33Z</time>
      </trkpt>
      <trkpt lat="42.76689" lon="0.15171">
        <ele>2467.6</ele>
        <time>2021-01-29T14:11:34Z</time>
      </trkpt>
      <trkpt lat="42.76689" lon="0.1517">
        <ele>2467.8</ele>
        <time>2021-01-29T14:11:35Z</time>
      </trkpt>
      <trkpt lat="42.76689" lon="0.1517">
        <ele>2467.8</ele>
        <time>2021-01-29T14:11:36Z</time>
      </trkpt>
      <trkpt lat="42.76689" lon="0.1517">
        <ele>2468</ele>
        <time>2021-01-29T14:11:37Z</time>
      </trkpt>
      <trkpt lat="42.76689" lon="0.1517">
        <ele>2468</ele>
        <time>2021-01-29T14:11:38Z</time>
      </trkpt>
      <trkpt lat="42.76689" lon="0.15169">
        <ele>2468.2</ele>
        <time>2021-01-29T14:11:39Z</time>
      </trkpt>
      <trkpt lat="42.76689" lon="0.15167">
        <ele>2468.2</ele>
        <time>2021-01-29T14:11:40Z</time>
      </trkpt>
      <trkpt lat="42.76689" lon="0.15166">
        <ele>2468.2</ele>
        <time>2021-01-29T14:11:41Z</time>
      </trkpt>
      <trkpt lat="42.76689" lon="0.15165">
        <ele>2468.6</ele>
        <time>2021-01-29T14:11:42Z</time>
      </trkpt>
      <trkpt lat="42.76689" lon="0.15165">
        <ele>2468.6</ele>
        <time>2021-01-29T14:11:43Z</time>
      </trkpt>
      <trkpt lat="42.76689" lon="0.15164">
        <ele>2468.8</ele>
        <time>2021-01-29T14:11:44Z</time>
      </trkpt>
      <trkpt lat="42.76689" lon="0.15163">
        <ele>2469</ele>
        <time>2021-01-29T14:11:45Z</time>
      </trkpt>
      <trkpt lat="42.7669" lon="0.15162">
        <ele>2469.2</ele>
        <time>2021-01-29T14:11:46Z</time>
      </trkpt>
      <trkpt lat="42.7669" lon="0.15162">
        <ele>2469.4</ele>
        <time>2021-01-29T14:11:47Z</time>
      </trkpt>
      <trkpt lat="42.76689" lon="0.15161">
        <ele>2469.6</ele>
        <time>2021-01-29T14:11:48Z</time>
      </trkpt>
      <trkpt lat="42.76689" lon="0.1516">
        <ele>2470</ele>
        <time>2021-01-29T14:11:49Z</time>
      </trkpt>
      <trkpt lat="42.76689" lon="0.1516">
        <ele>2470.2</ele>
        <time>2021-01-29T14:11:50Z</time>
      </trkpt>
      <trkpt lat="42.76688" lon="0.15159">
        <ele>2470.4</ele>
        <time>2021-01-29T14:11:51Z</time>
      </trkpt>
      <trkpt lat="42.76688" lon="0.15159">
        <ele>2470.4</ele>
        <time>2021-01-29T14:11:52Z</time>
      </trkpt>
      <trkpt lat="42.76688" lon="0.15158">
        <ele>2470.6</ele>
        <time>2021-01-29T14:11:53Z</time>
      </trkpt>
      <trkpt lat="42.76687" lon="0.15158">
        <ele>2470.6</ele>
        <time>2021-01-29T14:11:54Z</time>
      </trkpt>
      <trkpt lat="42.76687" lon="0.15158">
        <ele>2470.8</ele>
        <time>2021-01-29T14:11:55Z</time>
      </trkpt>
      <trkpt lat="42.76687" lon="0.15158">
        <ele>2470.8</ele>
        <time>2021-01-29T14:11:56Z</time>
      </trkpt>
      <trkpt lat="42.76687" lon="0.15158">
        <ele>2470.8</ele>
        <time>2021-01-29T14:11:57Z</time>
      </trkpt>
      <trkpt lat="42.76687" lon="0.15158">
        <ele>2471</ele>
        <time>2021-01-29T14:11:58Z</time>
      </trkpt>
      <trkpt lat="42.76687" lon="0.15158">
        <ele>2471</ele>
        <time>2021-01-29T14:11:59Z</time>
      </trkpt>
      <trkpt lat="42.76687" lon="0.15158">
        <ele>2471</ele>
        <time>2021-01-29T14:12:00Z</time>
      </trkpt>
      <trkpt lat="42.76687" lon="0.15158">
        <ele>2471</ele>
        <time>2021-01-29T14:12:01Z</time>
      </trkpt>
      <trkpt lat="42.76686" lon="0.15156">
        <ele>2471.2</ele>
        <time>2021-01-29T14:12:02Z</time>
      </trkpt>
      <trkpt lat="42.76685" lon="0.15153">
        <ele>2471.4</ele>
        <time>2021-01-29T14:12:03Z</time>
      </trkpt>
      <trkpt lat="42.76684" lon="0.15152">
        <ele>2471.4</ele>
        <time>2021-01-29T14:12:04Z</time>
      </trkpt>
      <trkpt lat="42.76684" lon="0.15152">
        <ele>2471.6</ele>
        <time>2021-01-29T14:12:05Z</time>
      </trkpt>
      <trkpt lat="42.76684" lon="0.15151">
        <ele>2471.6</ele>
        <time>2021-01-29T14:12:06Z</time>
      </trkpt>
      <trkpt lat="42.76684" lon="0.1515">
        <ele>2472</ele>
        <time>2021-01-29T14:12:07Z</time>
      </trkpt>
      <trkpt lat="42.76684" lon="0.1515">
        <ele>2472</ele>
        <time>2021-01-29T14:12:08Z</time>
      </trkpt>
      <trkpt lat="42.76684" lon="0.15149">
        <ele>2472.4</ele>
        <time>2021-01-29T14:12:09Z</time>
      </trkpt>
      <trkpt lat="42.76683" lon="0.15148">
        <ele>2472.6</ele>
        <time>2021-01-29T14:12:10Z</time>
      </trkpt>
      <trkpt lat="42.76683" lon="0.15148">
        <ele>2472.8</ele>
        <time>2021-01-29T14:12:11Z</time>
      </trkpt>
      <trkpt lat="42.76683" lon="0.15147">
        <ele>2473</ele>
        <time>2021-01-29T14:12:12Z</time>
      </trkpt>
      <trkpt lat="42.76683" lon="0.15147">
        <ele>2473</ele>
        <time>2021-01-29T14:12:13Z</time>
      </trkpt>
      <trkpt lat="42.76683" lon="0.15147">
        <ele>2473.2</ele>
        <time>2021-01-29T14:12:14Z</time>
      </trkpt>
      <trkpt lat="42.76683" lon="0.15146">
        <ele>2473.2</ele>
        <time>2021-01-29T14:12:15Z</time>
      </trkpt>
      <trkpt lat="42.76683" lon="0.15145">
        <ele>2473.4</ele>
        <time>2021-01-29T14:12:16Z</time>
      </trkpt>
      <trkpt lat="42.76682" lon="0.15145">
        <ele>2473.6</ele>
        <time>2021-01-29T14:12:17Z</time>
      </trkpt>
      <trkpt lat="42.76682" lon="0.15144">
        <ele>2473.8</ele>
        <time>2021-01-29T14:12:18Z</time>
      </trkpt>
      <trkpt lat="42.76682" lon="0.15144">
        <ele>2473.8</ele>
        <time>2021-01-29T14:12:19Z</time>
      </trkpt>
      <trkpt lat="42.76682" lon="0.15144">
        <ele>2474</ele>
        <time>2021-01-29T14:12:20Z</time>
      </trkpt>
      <trkpt lat="42.76682" lon="0.15144">
        <ele>2474.2</ele>
        <time>2021-01-29T14:12:21Z</time>
      </trkpt>
      <trkpt lat="42.76681" lon="0.15143">
        <ele>2474.2</ele>
        <time>2021-01-29T14:12:22Z</time>
      </trkpt>
      <trkpt lat="42.7668" lon="0.15141">
        <ele>2474.4</ele>
        <time>2021-01-29T14:12:23Z</time>
      </trkpt>
      <trkpt lat="42.7668" lon="0.15141">
        <ele>2474.6</ele>
        <time>2021-01-29T14:12:24Z</time>
      </trkpt>
      <trkpt lat="42.7668" lon="0.1514">
        <ele>2474.6</ele>
        <time>2021-01-29T14:12:25Z</time>
      </trkpt>
      <trkpt lat="42.7668" lon="0.1514">
        <ele>2474.8</ele>
        <time>2021-01-29T14:12:26Z</time>
      </trkpt>
      <trkpt lat="42.7668" lon="0.15139">
        <ele>2475</ele>
        <time>2021-01-29T14:12:27Z</time>
      </trkpt>
      <trkpt lat="42.7668" lon="0.15138">
        <ele>2475.2</ele>
        <time>2021-01-29T14:12:28Z</time>
      </trkpt>
      <trkpt lat="42.7668" lon="0.15138">
        <ele>2475.4</ele>
        <time>2021-01-29T14:12:29Z</time>
      </trkpt>
      <trkpt lat="42.7668" lon="0.15137">
        <ele>2475.4</ele>
        <time>2021-01-29T14:12:30Z</time>
      </trkpt>
      <trkpt lat="42.7668" lon="0.15136">
        <ele>2475.6</ele>
        <time>2021-01-29T14:12:31Z</time>
      </trkpt>
      <trkpt lat="42.7668" lon="0.15136">
        <ele>2475.6</ele>
        <time>2021-01-29T14:12:32Z</time>
      </trkpt>
      <trkpt lat="42.7668" lon="0.15135">
        <ele>2475.8</ele>
        <time>2021-01-29T14:12:33Z</time>
      </trkpt>
      <trkpt lat="42.7668" lon="0.15135">
        <ele>2475.8</ele>
        <time>2021-01-29T14:12:34Z</time>
      </trkpt>
      <trkpt lat="42.7668" lon="0.15135">
        <ele>2476</ele>
        <time>2021-01-29T14:12:35Z</time>
      </trkpt>
      <trkpt lat="42.7668" lon="0.15135">
        <ele>2476</ele>
        <time>2021-01-29T14:12:36Z</time>
      </trkpt>
      <trkpt lat="42.7668" lon="0.15133">
        <ele>2476.2</ele>
        <time>2021-01-29T14:12:37Z</time>
      </trkpt>
      <trkpt lat="42.7668" lon="0.15131">
        <ele>2476.2</ele>
        <time>2021-01-29T14:12:38Z</time>
      </trkpt>
      <trkpt lat="42.7668" lon="0.15131">
        <ele>2476.2</ele>
        <time>2021-01-29T14:12:39Z</time>
      </trkpt>
      <trkpt lat="42.7668" lon="0.1513">
        <ele>2476.4</ele>
        <time>2021-01-29T14:12:40Z</time>
      </trkpt>
      <trkpt lat="42.7668" lon="0.15129">
        <ele>2476.4</ele>
        <time>2021-01-29T14:12:41Z</time>
      </trkpt>
      <trkpt lat="42.7668" lon="0.15129">
        <ele>2476.8</ele>
        <time>2021-01-29T14:12:42Z</time>
      </trkpt>
      <trkpt lat="42.7668" lon="0.15128">
        <ele>2476.8</ele>
        <time>2021-01-29T14:12:43Z</time>
      </trkpt>
      <trkpt lat="42.7668" lon="0.15127">
        <ele>2477</ele>
        <time>2021-01-29T14:12:44Z</time>
      </trkpt>
      <trkpt lat="42.7668" lon="0.15127">
        <ele>2477</ele>
        <time>2021-01-29T14:12:45Z</time>
      </trkpt>
      <trkpt lat="42.7668" lon="0.15126">
        <ele>2477.4</ele>
        <time>2021-01-29T14:12:46Z</time>
      </trkpt>
      <trkpt lat="42.76681" lon="0.15125">
        <ele>2477.4</ele>
        <time>2021-01-29T14:12:47Z</time>
      </trkpt>
      <trkpt lat="42.76681" lon="0.15124">
        <ele>2477.6</ele>
        <time>2021-01-29T14:12:48Z</time>
      </trkpt>
      <trkpt lat="42.76681" lon="0.15124">
        <ele>2477.6</ele>
        <time>2021-01-29T14:12:49Z</time>
      </trkpt>
      <trkpt lat="42.76681" lon="0.15123">
        <ele>2477.8</ele>
        <time>2021-01-29T14:12:50Z</time>
      </trkpt>
      <trkpt lat="42.76681" lon="0.15122">
        <ele>2478</ele>
        <time>2021-01-29T14:12:51Z</time>
      </trkpt>
      <trkpt lat="42.76682" lon="0.15122">
        <ele>2478</ele>
        <time>2021-01-29T14:12:52Z</time>
      </trkpt>
      <trkpt lat="42.76682" lon="0.15121">
        <ele>2478.2</ele>
        <time>2021-01-29T14:12:53Z</time>
      </trkpt>
      <trkpt lat="42.76682" lon="0.15121">
        <ele>2478.2</ele>
        <time>2021-01-29T14:12:54Z</time>
      </trkpt>
      <trkpt lat="42.76682" lon="0.15121">
        <ele>2478.4</ele>
        <time>2021-01-29T14:12:55Z</time>
      </trkpt>
      <trkpt lat="42.76682" lon="0.1512">
        <ele>2478.6</ele>
        <time>2021-01-29T14:12:56Z</time>
      </trkpt>
      <trkpt lat="42.76682" lon="0.15118">
        <ele>2478.8</ele>
        <time>2021-01-29T14:12:57Z</time>
      </trkpt>
      <trkpt lat="42.76682" lon="0.15118">
        <ele>2478.8</ele>
        <time>2021-01-29T14:12:58Z</time>
      </trkpt>
      <trkpt lat="42.76683" lon="0.15117">
        <ele>2479</ele>
        <time>2021-01-29T14:12:59Z</time>
      </trkpt>
      <trkpt lat="42.76683" lon="0.15116">
        <ele>2479.2</ele>
        <time>2021-01-29T14:13:00Z</time>
      </trkpt>
      <trkpt lat="42.76683" lon="0.15115">
        <ele>2479.4</ele>
        <time>2021-01-29T14:13:01Z</time>
      </trkpt>
      <trkpt lat="42.76683" lon="0.15115">
        <ele>2479.8</ele>
        <time>2021-01-29T14:13:02Z</time>
      </trkpt>
      <trkpt lat="42.76683" lon="0.15114">
        <ele>2480</ele>
        <time>2021-01-29T14:13:03Z</time>
      </trkpt>
      <trkpt lat="42.76683" lon="0.15113">
        <ele>2480</ele>
        <time>2021-01-29T14:13:04Z</time>
      </trkpt>
      <trkpt lat="42.76683" lon="0.15112">
        <ele>2480.4</ele>
        <time>2021-01-29T14:13:05Z</time>
      </trkpt>
      <trkpt lat="42.76683" lon="0.15112">
        <ele>2480.4</ele>
        <time>2021-01-29T14:13:06Z</time>
      </trkpt>
      <trkpt lat="42.76683" lon="0.15111">
        <ele>2480.6</ele>
        <time>2021-01-29T14:13:07Z</time>
      </trkpt>
      <trkpt lat="42.76683" lon="0.15111">
        <ele>2480.6</ele>
        <time>2021-01-29T14:13:08Z</time>
      </trkpt>
      <trkpt lat="42.76683" lon="0.15109">
        <ele>2481</ele>
        <time>2021-01-29T14:13:09Z</time>
      </trkpt>
      <trkpt lat="42.76683" lon="0.15108">
        <ele>2481</ele>
        <time>2021-01-29T14:13:10Z</time>
      </trkpt>
      <trkpt lat="42.76683" lon="0.15108">
        <ele>2481.2</ele>
        <time>2021-01-29T14:13:11Z</time>
      </trkpt>
      <trkpt lat="42.76683" lon="0.15107">
        <ele>2481.4</ele>
        <time>2021-01-29T14:13:12Z</time>
      </trkpt>
      <trkpt lat="42.76683" lon="0.15106">
        <ele>2481.6</ele>
        <time>2021-01-29T14:13:13Z</time>
      </trkpt>
      <trkpt lat="42.76683" lon="0.15106">
        <ele>2481.6</ele>
        <time>2021-01-29T14:13:14Z</time>
      </trkpt>
      <trkpt lat="42.76683" lon="0.15105">
        <ele>2481.8</ele>
        <time>2021-01-29T14:13:15Z</time>
      </trkpt>
      <trkpt lat="42.76683" lon="0.15104">
        <ele>2481.8</ele>
        <time>2021-01-29T14:13:16Z</time>
      </trkpt>
      <trkpt lat="42.76683" lon="0.15103">
        <ele>2482</ele>
        <time>2021-01-29T14:13:17Z</time>
      </trkpt>
      <trkpt lat="42.76683" lon="0.15103">
        <ele>2482</ele>
        <time>2021-01-29T14:13:18Z</time>
      </trkpt>
      <trkpt lat="42.76683" lon="0.15102">
        <ele>2482.4</ele>
        <time>2021-01-29T14:13:19Z</time>
      </trkpt>
      <trkpt lat="42.76683" lon="0.15101">
        <ele>2482.4</ele>
        <time>2021-01-29T14:13:20Z</time>
      </trkpt>
      <trkpt lat="42.76683" lon="0.151">
        <ele>2482.6</ele>
        <time>2021-01-29T14:13:21Z</time>
      </trkpt>
      <trkpt lat="42.76683" lon="0.151">
        <ele>2482.6</ele>
        <time>2021-01-29T14:13:22Z</time>
      </trkpt>
      <trkpt lat="42.76683" lon="0.15099">
        <ele>2482.8</ele>
        <time>2021-01-29T14:13:23Z</time>
      </trkpt>
      <trkpt lat="42.76683" lon="0.15098">
        <ele>2483</ele>
        <time>2021-01-29T14:13:24Z</time>
      </trkpt>
      <trkpt lat="42.76683" lon="0.15097">
        <ele>2483</ele>
        <time>2021-01-29T14:13:25Z</time>
      </trkpt>
      <trkpt lat="42.76683" lon="0.15096">
        <ele>2483.2</ele>
        <time>2021-01-29T14:13:26Z</time>
      </trkpt>
      <trkpt lat="42.76683" lon="0.15096">
        <ele>2483.2</ele>
        <time>2021-01-29T14:13:27Z</time>
      </trkpt>
      <trkpt lat="42.76683" lon="0.15095">
        <ele>2483.2</ele>
        <time>2021-01-29T14:13:28Z</time>
      </trkpt>
      <trkpt lat="42.76683" lon="0.15094">
        <ele>2483.2</ele>
        <time>2021-01-29T14:13:29Z</time>
      </trkpt>
      <trkpt lat="42.76683" lon="0.15094">
        <ele>2483.2</ele>
        <time>2021-01-29T14:13:30Z</time>
      </trkpt>
      <trkpt lat="42.76683" lon="0.15094">
        <ele>2483.2</ele>
        <time>2021-01-29T14:13:31Z</time>
      </trkpt>
      <trkpt lat="42.76683" lon="0.15093">
        <ele>2483.2</ele>
        <time>2021-01-29T14:13:32Z</time>
      </trkpt>
      <trkpt lat="42.76683" lon="0.15091">
        <ele>2483.4</ele>
        <time>2021-01-29T14:13:33Z</time>
      </trkpt>
      <trkpt lat="42.76683" lon="0.15091">
        <ele>2483.4</ele>
        <time>2021-01-29T14:13:34Z</time>
      </trkpt>
      <trkpt lat="42.76683" lon="0.1509">
        <ele>2483.6</ele>
        <time>2021-01-29T14:13:35Z</time>
      </trkpt>
      <trkpt lat="42.76683" lon="0.1509">
        <ele>2483.6</ele>
        <time>2021-01-29T14:13:36Z</time>
      </trkpt>
      <trkpt lat="42.76682" lon="0.15089">
        <ele>2483.8</ele>
        <time>2021-01-29T14:13:37Z</time>
      </trkpt>
      <trkpt lat="42.76682" lon="0.15088">
        <ele>2484</ele>
        <time>2021-01-29T14:13:38Z</time>
      </trkpt>
      <trkpt lat="42.76682" lon="0.15087">
        <ele>2484</ele>
        <time>2021-01-29T14:13:39Z</time>
      </trkpt>
      <trkpt lat="42.76682" lon="0.15087">
        <ele>2484.2</ele>
        <time>2021-01-29T14:13:40Z</time>
      </trkpt>
      <trkpt lat="42.76682" lon="0.15086">
        <ele>2484.4</ele>
        <time>2021-01-29T14:13:41Z</time>
      </trkpt>
      <trkpt lat="42.76682" lon="0.15085">
        <ele>2484.4</ele>
        <time>2021-01-29T14:13:42Z</time>
      </trkpt>
      <trkpt lat="42.76682" lon="0.15084">
        <ele>2484.6</ele>
        <time>2021-01-29T14:13:43Z</time>
      </trkpt>
      <trkpt lat="42.76682" lon="0.15083">
        <ele>2484.8</ele>
        <time>2021-01-29T14:13:44Z</time>
      </trkpt>
      <trkpt lat="42.76682" lon="0.15082">
        <ele>2484.8</ele>
        <time>2021-01-29T14:13:45Z</time>
      </trkpt>
      <trkpt lat="42.76682" lon="0.15082">
        <ele>2485</ele>
        <time>2021-01-29T14:13:46Z</time>
      </trkpt>
      <trkpt lat="42.76682" lon="0.15081">
        <ele>2485.2</ele>
        <time>2021-01-29T14:13:47Z</time>
      </trkpt>
      <trkpt lat="42.76682" lon="0.1508">
        <ele>2485.2</ele>
        <time>2021-01-29T14:13:48Z</time>
      </trkpt>
      <trkpt lat="42.76682" lon="0.15079">
        <ele>2485.2</ele>
        <time>2021-01-29T14:13:49Z</time>
      </trkpt>
      <trkpt lat="42.76682" lon="0.15078">
        <ele>2485.2</ele>
        <time>2021-01-29T14:13:50Z</time>
      </trkpt>
      <trkpt lat="42.76682" lon="0.15077">
        <ele>2485.4</ele>
        <time>2021-01-29T14:13:51Z</time>
      </trkpt>
      <trkpt lat="42.76682" lon="0.15076">
        <ele>2485.2</ele>
        <time>2021-01-29T14:13:52Z</time>
      </trkpt>
      <trkpt lat="42.76682" lon="0.15075">
        <ele>2485.2</ele>
        <time>2021-01-29T14:13:53Z</time>
      </trkpt>
      <trkpt lat="42.76682" lon="0.15074">
        <ele>2485.2</ele>
        <time>2021-01-29T14:13:54Z</time>
      </trkpt>
      <trkpt lat="42.76682" lon="0.15073">
        <ele>2485.2</ele>
        <time>2021-01-29T14:13:55Z</time>
      </trkpt>
      <trkpt lat="42.76682" lon="0.15072">
        <ele>2485.2</ele>
        <time>2021-01-29T14:13:56Z</time>
      </trkpt>
      <trkpt lat="42.76681" lon="0.15071">
        <ele>2485.2</ele>
        <time>2021-01-29T14:13:57Z</time>
      </trkpt>
      <trkpt lat="42.76681" lon="0.1507">
        <ele>2485.2</ele>
        <time>2021-01-29T14:13:58Z</time>
      </trkpt>
      <trkpt lat="42.76681" lon="0.15069">
        <ele>2485.4</ele>
        <time>2021-01-29T14:13:59Z</time>
      </trkpt>
      <trkpt lat="42.76681" lon="0.15068">
        <ele>2485.2</ele>
        <time>2021-01-29T14:14:00Z</time>
      </trkpt>
      <trkpt lat="42.76681" lon="0.15067">
        <ele>2485.2</ele>
        <time>2021-01-29T14:14:01Z</time>
      </trkpt>
      <trkpt lat="42.76681" lon="0.15066">
        <ele>2485.4</ele>
        <time>2021-01-29T14:14:02Z</time>
      </trkpt>
      <trkpt lat="42.76681" lon="0.15065">
        <ele>2485.4</ele>
        <time>2021-01-29T14:14:03Z</time>
      </trkpt>
      <trkpt lat="42.76681" lon="0.15065">
        <ele>2485.4</ele>
        <time>2021-01-29T14:14:04Z</time>
      </trkpt>
      <trkpt lat="42.76681" lon="0.15064">
        <ele>2485.6</ele>
        <time>2021-01-29T14:14:05Z</time>
      </trkpt>
      <trkpt lat="42.76681" lon="0.15063">
        <ele>2485.6</ele>
        <time>2021-01-29T14:14:06Z</time>
      </trkpt>
      <trkpt lat="42.76681" lon="0.15062">
        <ele>2485.8</ele>
        <time>2021-01-29T14:14:07Z</time>
      </trkpt>
      <trkpt lat="42.76681" lon="0.15061">
        <ele>2485.8</ele>
        <time>2021-01-29T14:14:08Z</time>
      </trkpt>
      <trkpt lat="42.76681" lon="0.1506">
        <ele>2486</ele>
        <time>2021-01-29T14:14:09Z</time>
      </trkpt>
      <trkpt lat="42.76681" lon="0.15059">
        <ele>2486.2</ele>
        <time>2021-01-29T14:14:10Z</time>
      </trkpt>
      <trkpt lat="42.76681" lon="0.15058">
        <ele>2486.2</ele>
        <time>2021-01-29T14:14:11Z</time>
      </trkpt>
      <trkpt lat="42.76681" lon="0.15058">
        <ele>2486.4</ele>
        <time>2021-01-29T14:14:12Z</time>
      </trkpt>
      <trkpt lat="42.76681" lon="0.15057">
        <ele>2486.4</ele>
        <time>2021-01-29T14:14:13Z</time>
      </trkpt>
      <trkpt lat="42.76681" lon="0.15056">
        <ele>2486.6</ele>
        <time>2021-01-29T14:14:14Z</time>
      </trkpt>
      <trkpt lat="42.76681" lon="0.15055">
        <ele>2486.6</ele>
        <time>2021-01-29T14:14:15Z</time>
      </trkpt>
      <trkpt lat="42.76681" lon="0.15054">
        <ele>2486.8</ele>
        <time>2021-01-29T14:14:16Z</time>
      </trkpt>
      <trkpt lat="42.76681" lon="0.15053">
        <ele>2486.8</ele>
        <time>2021-01-29T14:14:17Z</time>
      </trkpt>
      <trkpt lat="42.7668" lon="0.15053">
        <ele>2487</ele>
        <time>2021-01-29T14:14:18Z</time>
      </trkpt>
      <trkpt lat="42.7668" lon="0.15052">
        <ele>2487</ele>
        <time>2021-01-29T14:14:19Z</time>
      </trkpt>
      <trkpt lat="42.7668" lon="0.15051">
        <ele>2487.2</ele>
        <time>2021-01-29T14:14:20Z</time>
      </trkpt>
      <trkpt lat="42.7668" lon="0.1505">
        <ele>2487.4</ele>
        <time>2021-01-29T14:14:21Z</time>
      </trkpt>
      <trkpt lat="42.7668" lon="0.15049">
        <ele>2487.4</ele>
        <time>2021-01-29T14:14:22Z</time>
      </trkpt>
      <trkpt lat="42.7668" lon="0.15048">
        <ele>2487.6</ele>
        <time>2021-01-29T14:14:23Z</time>
      </trkpt>
      <trkpt lat="42.76679" lon="0.15047">
        <ele>2487.6</ele>
        <time>2021-01-29T14:14:24Z</time>
      </trkpt>
      <trkpt lat="42.76679" lon="0.15046">
        <ele>2487.6</ele>
        <time>2021-01-29T14:14:25Z</time>
      </trkpt>
      <trkpt lat="42.76679" lon="0.15045">
        <ele>2487.8</ele>
        <time>2021-01-29T14:14:26Z</time>
      </trkpt>
      <trkpt lat="42.76679" lon="0.15045">
        <ele>2487.8</ele>
        <time>2021-01-29T14:14:27Z</time>
      </trkpt>
      <trkpt lat="42.76678" lon="0.15044">
        <ele>2487.8</ele>
        <time>2021-01-29T14:14:28Z</time>
      </trkpt>
      <trkpt lat="42.76678" lon="0.15043">
        <ele>2488</ele>
        <time>2021-01-29T14:14:29Z</time>
      </trkpt>
      <trkpt lat="42.76678" lon="0.15043">
        <ele>2488</ele>
        <time>2021-01-29T14:14:30Z</time>
      </trkpt>
      <trkpt lat="42.76677" lon="0.15042">
        <ele>2488.2</ele>
        <time>2021-01-29T14:14:31Z</time>
      </trkpt>
      <trkpt lat="42.76677" lon="0.15041">
        <ele>2488.2</ele>
        <time>2021-01-29T14:14:32Z</time>
      </trkpt>
      <trkpt lat="42.76677" lon="0.15041">
        <ele>2488.2</ele>
        <time>2021-01-29T14:14:33Z</time>
      </trkpt>
      <trkpt lat="42.76677" lon="0.1504">
        <ele>2488.4</ele>
        <time>2021-01-29T14:14:34Z</time>
      </trkpt>
      <trkpt lat="42.76676" lon="0.15039">
        <ele>2488.2</ele>
        <time>2021-01-29T14:14:35Z</time>
      </trkpt>
      <trkpt lat="42.76676" lon="0.15038">
        <ele>2488.4</ele>
        <time>2021-01-29T14:14:36Z</time>
      </trkpt>
      <trkpt lat="42.76676" lon="0.15038">
        <ele>2488.4</ele>
        <time>2021-01-29T14:14:37Z</time>
      </trkpt>
      <trkpt lat="42.76676" lon="0.15037">
        <ele>2488.4</ele>
        <time>2021-01-29T14:14:38Z</time>
      </trkpt>
      <trkpt lat="42.76675" lon="0.15036">
        <ele>2488.6</ele>
        <time>2021-01-29T14:14:39Z</time>
      </trkpt>
      <trkpt lat="42.76675" lon="0.15035">
        <ele>2488.6</ele>
        <time>2021-01-29T14:14:40Z</time>
      </trkpt>
      <trkpt lat="42.76675" lon="0.15035">
        <ele>2488.8</ele>
        <time>2021-01-29T14:14:41Z</time>
      </trkpt>
      <trkpt lat="42.76675" lon="0.15034">
        <ele>2489</ele>
        <time>2021-01-29T14:14:42Z</time>
      </trkpt>
      <trkpt lat="42.76674" lon="0.15033">
        <ele>2489</ele>
        <time>2021-01-29T14:14:43Z</time>
      </trkpt>
      <trkpt lat="42.76674" lon="0.15032">
        <ele>2489.2</ele>
        <time>2021-01-29T14:14:44Z</time>
      </trkpt>
      <trkpt lat="42.76674" lon="0.15032">
        <ele>2489.2</ele>
        <time>2021-01-29T14:14:45Z</time>
      </trkpt>
      <trkpt lat="42.76674" lon="0.15031">
        <ele>2489.4</ele>
        <time>2021-01-29T14:14:46Z</time>
      </trkpt>
      <trkpt lat="42.76674" lon="0.1503">
        <ele>2489.6</ele>
        <time>2021-01-29T14:14:47Z</time>
      </trkpt>
      <trkpt lat="42.76673" lon="0.15029">
        <ele>2489.6</ele>
        <time>2021-01-29T14:14:48Z</time>
      </trkpt>
      <trkpt lat="42.76673" lon="0.15029">
        <ele>2489.8</ele>
        <time>2021-01-29T14:14:49Z</time>
      </trkpt>
      <trkpt lat="42.76673" lon="0.15028">
        <ele>2489.8</ele>
        <time>2021-01-29T14:14:50Z</time>
      </trkpt>
      <trkpt lat="42.76673" lon="0.15027">
        <ele>2489.8</ele>
        <time>2021-01-29T14:14:51Z</time>
      </trkpt>
      <trkpt lat="42.76673" lon="0.15026">
        <ele>2489.8</ele>
        <time>2021-01-29T14:14:52Z</time>
      </trkpt>
      <trkpt lat="42.76673" lon="0.15025">
        <ele>2490</ele>
        <time>2021-01-29T14:14:53Z</time>
      </trkpt>
      <trkpt lat="42.76673" lon="0.15025">
        <ele>2490</ele>
        <time>2021-01-29T14:14:54Z</time>
      </trkpt>
      <trkpt lat="42.76673" lon="0.15025">
        <ele>2490.2</ele>
        <time>2021-01-29T14:14:55Z</time>
      </trkpt>
      <trkpt lat="42.76673" lon="0.15025">
        <ele>2490.4</ele>
        <time>2021-01-29T14:14:56Z</time>
      </trkpt>
      <trkpt lat="42.76673" lon="0.15025">
        <ele>2490.4</ele>
        <time>2021-01-29T14:14:57Z</time>
      </trkpt>
      <trkpt lat="42.76673" lon="0.15025">
        <ele>2490.6</ele>
        <time>2021-01-29T14:14:58Z</time>
      </trkpt>
      <trkpt lat="42.76673" lon="0.15025">
        <ele>2490.8</ele>
        <time>2021-01-29T14:14:59Z</time>
      </trkpt>
      <trkpt lat="42.76673" lon="0.15025">
        <ele>2491</ele>
        <time>2021-01-29T14:15:00Z</time>
      </trkpt>
      <trkpt lat="42.76673" lon="0.15025">
        <ele>2491.2</ele>
        <time>2021-01-29T14:15:01Z</time>
      </trkpt>
      <trkpt lat="42.76673" lon="0.15025">
        <ele>2491.2</ele>
        <time>2021-01-29T14:15:02Z</time>
      </trkpt>
      <trkpt lat="42.76673" lon="0.15025">
        <ele>2491.2</ele>
        <time>2021-01-29T14:15:03Z</time>
      </trkpt>
      <trkpt lat="42.76673" lon="0.15025">
        <ele>2491.2</ele>
        <time>2021-01-29T14:15:04Z</time>
      </trkpt>
      <trkpt lat="42.76673" lon="0.15025">
        <ele>2491.2</ele>
        <time>2021-01-29T14:15:05Z</time>
      </trkpt>
      <trkpt lat="42.76673" lon="0.15025">
        <ele>2491.2</ele>
        <time>2021-01-29T14:15:06Z</time>
      </trkpt>
      <trkpt lat="42.76673" lon="0.15025">
        <ele>2491</ele>
        <time>2021-01-29T14:15:07Z</time>
      </trkpt>
      <trkpt lat="42.76673" lon="0.15025">
        <ele>2491</ele>
        <time>2021-01-29T14:15:08Z</time>
      </trkpt>
      <trkpt lat="42.76673" lon="0.15025">
        <ele>2491</ele>
        <time>2021-01-29T14:15:09Z</time>
      </trkpt>
      <trkpt lat="42.76673" lon="0.15025">
        <ele>2491</ele>
        <time>2021-01-29T14:15:10Z</time>
      </trkpt>
      <trkpt lat="42.76673" lon="0.15025">
        <ele>2491</ele>
        <time>2021-01-29T14:15:11Z</time>
      </trkpt>
      <trkpt lat="42.76673" lon="0.15025">
        <ele>2491</ele>
        <time>2021-01-29T14:15:12Z</time>
      </trkpt>
      <trkpt lat="42.76673" lon="0.15025">
        <ele>2491</ele>
        <time>2021-01-29T14:15:13Z</time>
      </trkpt>
      <trkpt lat="42.76673" lon="0.15025">
        <ele>2491</ele>
        <time>2021-01-29T14:15:14Z</time>
      </trkpt>
      <trkpt lat="42.76673" lon="0.15025">
        <ele>2491</ele>
        <time>2021-01-29T14:15:15Z</time>
      </trkpt>
      <trkpt lat="42.76673" lon="0.15025">
        <ele>2491</ele>
        <time>2021-01-29T14:15:16Z</time>
      </trkpt>
      <trkpt lat="42.76673" lon="0.15025">
        <ele>2491</ele>
        <time>2021-01-29T14:15:17Z</time>
      </trkpt>
      <trkpt lat="42.76673" lon="0.15025">
        <ele>2491</ele>
        <time>2021-01-29T14:15:18Z</time>
      </trkpt>
      <trkpt lat="42.76673" lon="0.15025">
        <ele>2490.8</ele>
        <time>2021-01-29T14:15:19Z</time>
      </trkpt>
      <trkpt lat="42.76673" lon="0.15025">
        <ele>2490.8</ele>
        <time>2021-01-29T14:15:20Z</time>
      </trkpt>
      <trkpt lat="42.76673" lon="0.15025">
        <ele>2490.8</ele>
        <time>2021-01-29T14:15:21Z</time>
      </trkpt>
      <trkpt lat="42.76673" lon="0.15025">
        <ele>2490.8</ele>
        <time>2021-01-29T14:15:22Z</time>
      </trkpt>
      <trkpt lat="42.76673" lon="0.15025">
        <ele>2490.8</ele>
        <time>2021-01-29T14:15:23Z</time>
      </trkpt>
      <trkpt lat="42.76673" lon="0.15025">
        <ele>2490.8</ele>
        <time>2021-01-29T14:15:24Z</time>
      </trkpt>
      <trkpt lat="42.76673" lon="0.15025">
        <ele>2490.8</ele>
        <time>2021-01-29T14:15:25Z</time>
      </trkpt>
      <trkpt lat="42.76673" lon="0.15025">
        <ele>2490.8</ele>
        <time>2021-01-29T14:15:26Z</time>
      </trkpt>
      <trkpt lat="42.76673" lon="0.15025">
        <ele>2490.8</ele>
        <time>2021-01-29T14:15:27Z</time>
      </trkpt>
      <trkpt lat="42.76673" lon="0.15025">
        <ele>2490.8</ele>
        <time>2021-01-29T14:15:28Z</time>
      </trkpt>
      <trkpt lat="42.76673" lon="0.15025">
        <ele>2490.8</ele>
        <time>2021-01-29T14:15:29Z</time>
      </trkpt>
      <trkpt lat="42.76673" lon="0.15025">
        <ele>2490.8</ele>
        <time>2021-01-29T14:15:30Z</time>
      </trkpt>
      <trkpt lat="42.76673" lon="0.15025">
        <ele>2490.8</ele>
        <time>2021-01-29T14:15:31Z</time>
      </trkpt>
      <trkpt lat="42.76673" lon="0.15025">
        <ele>2490.8</ele>
        <time>2021-01-29T14:15:32Z</time>
      </trkpt>
      <trkpt lat="42.76673" lon="0.15025">
        <ele>2490.8</ele>
        <time>2021-01-29T14:15:33Z</time>
      </trkpt>
      <trkpt lat="42.76673" lon="0.15025">
        <ele>2490.8</ele>
        <time>2021-01-29T14:15:34Z</time>
      </trkpt>
      <trkpt lat="42.76673" lon="0.15025">
        <ele>2490.8</ele>
        <time>2021-01-29T14:15:35Z</time>
      </trkpt>
      <trkpt lat="42.76673" lon="0.15025">
        <ele>2490.8</ele>
        <time>2021-01-29T14:15:36Z</time>
      </trkpt>
      <trkpt lat="42.76673" lon="0.15025">
        <ele>2491</ele>
        <time>2021-01-29T14:15:37Z</time>
      </trkpt>
      <trkpt lat="42.76673" lon="0.15025">
        <ele>2491</ele>
        <time>2021-01-29T14:15:38Z</time>
      </trkpt>
      <trkpt lat="42.76673" lon="0.15025">
        <ele>2491</ele>
        <time>2021-01-29T14:15:39Z</time>
      </trkpt>
      <trkpt lat="42.76673" lon="0.15025">
        <ele>2491</ele>
        <time>2021-01-29T14:15:40Z</time>
      </trkpt>
      <trkpt lat="42.76673" lon="0.15025">
        <ele>2491</ele>
        <time>2021-01-29T14:15:41Z</time>
      </trkpt>
      <trkpt lat="42.76673" lon="0.15025">
        <ele>2490.8</ele>
        <time>2021-01-29T14:15:42Z</time>
      </trkpt>
      <trkpt lat="42.76673" lon="0.15025">
        <ele>2490.8</ele>
        <time>2021-01-29T14:15:43Z</time>
      </trkpt>
      <trkpt lat="42.76673" lon="0.15025">
        <ele>2490.8</ele>
        <time>2021-01-29T14:15:44Z</time>
      </trkpt>
      <trkpt lat="42.76673" lon="0.15025">
        <ele>2490.8</ele>
        <time>2021-01-29T14:15:45Z</time>
      </trkpt>
      <trkpt lat="42.76673" lon="0.15025">
        <ele>2490.8</ele>
        <time>2021-01-29T14:15:46Z</time>
      </trkpt>
      <trkpt lat="42.76673" lon="0.15025">
        <ele>2490.8</ele>
        <time>2021-01-29T14:15:47Z</time>
      </trkpt>
      <trkpt lat="42.76673" lon="0.15025">
        <ele>2490.8</ele>
        <time>2021-01-29T14:15:48Z</time>
      </trkpt>
      <trkpt lat="42.76673" lon="0.15025">
        <ele>2490.8</ele>
        <time>2021-01-29T14:15:49Z</time>
      </trkpt>
      <trkpt lat="42.76673" lon="0.15025">
        <ele>2490.8</ele>
        <time>2021-01-29T14:15:50Z</time>
      </trkpt>
      <trkpt lat="42.76673" lon="0.15025">
        <ele>2490.8</ele>
        <time>2021-01-29T14:15:51Z</time>
      </trkpt>
      <trkpt lat="42.76673" lon="0.15025">
        <ele>2490.8</ele>
        <time>2021-01-29T14:15:52Z</time>
      </trkpt>
      <trkpt lat="42.76673" lon="0.15025">
        <ele>2490.8</ele>
        <time>2021-01-29T14:15:53Z</time>
      </trkpt>
      <trkpt lat="42.76673" lon="0.15025">
        <ele>2490.8</ele>
        <time>2021-01-29T14:15:54Z</time>
      </trkpt>
      <trkpt lat="42.76673" lon="0.15025">
        <ele>2490.8</ele>
        <time>2021-01-29T14:15:55Z</time>
      </trkpt>
      <trkpt lat="42.76673" lon="0.15025">
        <ele>2491</ele>
        <time>2021-01-29T14:15:56Z</time>
      </trkpt>
      <trkpt lat="42.76673" lon="0.15024">
        <ele>2491</ele>
        <time>2021-01-29T14:15:57Z</time>
      </trkpt>
      <trkpt lat="42.76673" lon="0.15022">
        <ele>2490.8</ele>
        <time>2021-01-29T14:15:58Z</time>
      </trkpt>
      <trkpt lat="42.76673" lon="0.15021">
        <ele>2491</ele>
        <time>2021-01-29T14:15:59Z</time>
      </trkpt>
      <trkpt lat="42.76673" lon="0.1502">
        <ele>2491</ele>
        <time>2021-01-29T14:16:00Z</time>
      </trkpt>
      <trkpt lat="42.76673" lon="0.15019">
        <ele>2491.2</ele>
        <time>2021-01-29T14:16:01Z</time>
      </trkpt>
      <trkpt lat="42.76673" lon="0.15018">
        <ele>2491.2</ele>
        <time>2021-01-29T14:16:02Z</time>
      </trkpt>
      <trkpt lat="42.76674" lon="0.15017">
        <ele>2491.2</ele>
        <time>2021-01-29T14:16:03Z</time>
      </trkpt>
      <trkpt lat="42.76674" lon="0.15016">
        <ele>2491.2</ele>
        <time>2021-01-29T14:16:04Z</time>
      </trkpt>
      <trkpt lat="42.76674" lon="0.15015">
        <ele>2491.4</ele>
        <time>2021-01-29T14:16:05Z</time>
      </trkpt>
      <trkpt lat="42.76674" lon="0.15014">
        <ele>2491.4</ele>
        <time>2021-01-29T14:16:06Z</time>
      </trkpt>
      <trkpt lat="42.76674" lon="0.15013">
        <ele>2491.6</ele>
        <time>2021-01-29T14:16:07Z</time>
      </trkpt>
      <trkpt lat="42.76674" lon="0.15012">
        <ele>2491.8</ele>
        <time>2021-01-29T14:16:08Z</time>
      </trkpt>
      <trkpt lat="42.76674" lon="0.15011">
        <ele>2491.8</ele>
        <time>2021-01-29T14:16:09Z</time>
      </trkpt>
      <trkpt lat="42.76674" lon="0.1501">
        <ele>2492</ele>
        <time>2021-01-29T14:16:10Z</time>
      </trkpt>
      <trkpt lat="42.76674" lon="0.15009">
        <ele>2492</ele>
        <time>2021-01-29T14:16:11Z</time>
      </trkpt>
      <trkpt lat="42.76674" lon="0.15008">
        <ele>2492</ele>
        <time>2021-01-29T14:16:12Z</time>
      </trkpt>
      <trkpt lat="42.76674" lon="0.15007">
        <ele>2492</ele>
        <time>2021-01-29T14:16:13Z</time>
      </trkpt>
      <trkpt lat="42.76674" lon="0.15006">
        <ele>2492</ele>
        <time>2021-01-29T14:16:14Z</time>
      </trkpt>
      <trkpt lat="42.76674" lon="0.15005">
        <ele>2492</ele>
        <time>2021-01-29T14:16:15Z</time>
      </trkpt>
      <trkpt lat="42.76675" lon="0.15004">
        <ele>2492.2</ele>
        <time>2021-01-29T14:16:16Z</time>
      </trkpt>
      <trkpt lat="42.76675" lon="0.15002">
        <ele>2492.2</ele>
        <time>2021-01-29T14:16:17Z</time>
      </trkpt>
      <trkpt lat="42.76675" lon="0.15001">
        <ele>2492.4</ele>
        <time>2021-01-29T14:16:18Z</time>
      </trkpt>
      <trkpt lat="42.76675" lon="0.15">
        <ele>2492.2</ele>
        <time>2021-01-29T14:16:19Z</time>
      </trkpt>
      <trkpt lat="42.76675" lon="0.14999">
        <ele>2492.6</ele>
        <time>2021-01-29T14:16:20Z</time>
      </trkpt>
      <trkpt lat="42.76675" lon="0.14999">
        <ele>2492.6</ele>
        <time>2021-01-29T14:16:21Z</time>
      </trkpt>
      <trkpt lat="42.76675" lon="0.14998">
        <ele>2492.6</ele>
        <time>2021-01-29T14:16:22Z</time>
      </trkpt>
      <trkpt lat="42.76675" lon="0.14997">
        <ele>2492.6</ele>
        <time>2021-01-29T14:16:23Z</time>
      </trkpt>
      <trkpt lat="42.76675" lon="0.14996">
        <ele>2492.6</ele>
        <time>2021-01-29T14:16:24Z</time>
      </trkpt>
      <trkpt lat="42.76675" lon="0.14995">
        <ele>2492.8</ele>
        <time>2021-01-29T14:16:25Z</time>
      </trkpt>
      <trkpt lat="42.76675" lon="0.14994">
        <ele>2492.8</ele>
        <time>2021-01-29T14:16:26Z</time>
      </trkpt>
      <trkpt lat="42.76676" lon="0.14993">
        <ele>2492.8</ele>
        <time>2021-01-29T14:16:27Z</time>
      </trkpt>
      <trkpt lat="42.76676" lon="0.14992">
        <ele>2492.8</ele>
        <time>2021-01-29T14:16:28Z</time>
      </trkpt>
      <trkpt lat="42.76676" lon="0.14991">
        <ele>2493</ele>
        <time>2021-01-29T14:16:29Z</time>
      </trkpt>
      <trkpt lat="42.76676" lon="0.1499">
        <ele>2493</ele>
        <time>2021-01-29T14:16:30Z</time>
      </trkpt>
      <trkpt lat="42.76676" lon="0.14989">
        <ele>2493.2</ele>
        <time>2021-01-29T14:16:31Z</time>
      </trkpt>
      <trkpt lat="42.76677" lon="0.14988">
        <ele>2493</ele>
        <time>2021-01-29T14:16:32Z</time>
      </trkpt>
      <trkpt lat="42.76677" lon="0.14987">
        <ele>2493.2</ele>
        <time>2021-01-29T14:16:33Z</time>
      </trkpt>
      <trkpt lat="42.76677" lon="0.14987">
        <ele>2493.2</ele>
        <time>2021-01-29T14:16:34Z</time>
      </trkpt>
      <trkpt lat="42.76677" lon="0.14986">
        <ele>2493.4</ele>
        <time>2021-01-29T14:16:35Z</time>
      </trkpt>
      <trkpt lat="42.76678" lon="0.14985">
        <ele>2493.4</ele>
        <time>2021-01-29T14:16:36Z</time>
      </trkpt>
      <trkpt lat="42.76678" lon="0.14984">
        <ele>2493.4</ele>
        <time>2021-01-29T14:16:37Z</time>
      </trkpt>
      <trkpt lat="42.76678" lon="0.14983">
        <ele>2493.6</ele>
        <time>2021-01-29T14:16:38Z</time>
      </trkpt>
      <trkpt lat="42.76679" lon="0.14982">
        <ele>2493.8</ele>
        <time>2021-01-29T14:16:39Z</time>
      </trkpt>
      <trkpt lat="42.76679" lon="0.14981">
        <ele>2493.8</ele>
        <time>2021-01-29T14:16:40Z</time>
      </trkpt>
      <trkpt lat="42.7668" lon="0.14981">
        <ele>2494</ele>
        <time>2021-01-29T14:16:41Z</time>
      </trkpt>
      <trkpt lat="42.7668" lon="0.1498">
        <ele>2494</ele>
        <time>2021-01-29T14:16:42Z</time>
      </trkpt>
      <trkpt lat="42.7668" lon="0.14979">
        <ele>2494</ele>
        <time>2021-01-29T14:16:43Z</time>
      </trkpt>
      <trkpt lat="42.76681" lon="0.14978">
        <ele>2494.2</ele>
        <time>2021-01-29T14:16:44Z</time>
      </trkpt>
      <trkpt lat="42.76681" lon="0.14977">
        <ele>2494</ele>
        <time>2021-01-29T14:16:45Z</time>
      </trkpt>
      <trkpt lat="42.76681" lon="0.14977">
        <ele>2494.2</ele>
        <time>2021-01-29T14:16:46Z</time>
      </trkpt>
      <trkpt lat="42.76681" lon="0.14976">
        <ele>2494.2</ele>
        <time>2021-01-29T14:16:47Z</time>
      </trkpt>
      <trkpt lat="42.76681" lon="0.14975">
        <ele>2494.4</ele>
        <time>2021-01-29T14:16:48Z</time>
      </trkpt>
      <trkpt lat="42.76682" lon="0.14974">
        <ele>2494.4</ele>
        <time>2021-01-29T14:16:49Z</time>
      </trkpt>
      <trkpt lat="42.76682" lon="0.14973">
        <ele>2494.4</ele>
        <time>2021-01-29T14:16:50Z</time>
      </trkpt>
      <trkpt lat="42.76682" lon="0.14972">
        <ele>2494.4</ele>
        <time>2021-01-29T14:16:51Z</time>
      </trkpt>
      <trkpt lat="42.76683" lon="0.14972">
        <ele>2494.4</ele>
        <time>2021-01-29T14:16:52Z</time>
      </trkpt>
      <trkpt lat="42.76683" lon="0.1497">
        <ele>2494.4</ele>
        <time>2021-01-29T14:16:53Z</time>
      </trkpt>
      <trkpt lat="42.76684" lon="0.14969">
        <ele>2494.6</ele>
        <time>2021-01-29T14:16:54Z</time>
      </trkpt>
      <trkpt lat="42.76684" lon="0.14968">
        <ele>2494.4</ele>
        <time>2021-01-29T14:16:55Z</time>
      </trkpt>
      <trkpt lat="42.76684" lon="0.14967">
        <ele>2494.6</ele>
        <time>2021-01-29T14:16:56Z</time>
      </trkpt>
      <trkpt lat="42.76685" lon="0.14967">
        <ele>2494.8</ele>
        <time>2021-01-29T14:16:57Z</time>
      </trkpt>
      <trkpt lat="42.76685" lon="0.14966">
        <ele>2494.6</ele>
        <time>2021-01-29T14:16:58Z</time>
      </trkpt>
      <trkpt lat="42.76686" lon="0.14965">
        <ele>2494.8</ele>
        <time>2021-01-29T14:16:59Z</time>
      </trkpt>
      <trkpt lat="42.76686" lon="0.14963">
        <ele>2494.8</ele>
        <time>2021-01-29T14:17:00Z</time>
      </trkpt>
      <trkpt lat="42.76686" lon="0.14962">
        <ele>2495</ele>
        <time>2021-01-29T14:17:01Z</time>
      </trkpt>
      <trkpt lat="42.76687" lon="0.14961">
        <ele>2495</ele>
        <time>2021-01-29T14:17:02Z</time>
      </trkpt>
      <trkpt lat="42.76687" lon="0.1496">
        <ele>2495.2</ele>
        <time>2021-01-29T14:17:03Z</time>
      </trkpt>
      <trkpt lat="42.76687" lon="0.14959">
        <ele>2495.4</ele>
        <time>2021-01-29T14:17:04Z</time>
      </trkpt>
      <trkpt lat="42.76687" lon="0.14958">
        <ele>2495.4</ele>
        <time>2021-01-29T14:17:05Z</time>
      </trkpt>
      <trkpt lat="42.76687" lon="0.14958">
        <ele>2495.4</ele>
        <time>2021-01-29T14:17:06Z</time>
      </trkpt>
      <trkpt lat="42.76688" lon="0.14957">
        <ele>2495.8</ele>
        <time>2021-01-29T14:17:07Z</time>
      </trkpt>
      <trkpt lat="42.76688" lon="0.14956">
        <ele>2495.8</ele>
        <time>2021-01-29T14:17:08Z</time>
      </trkpt>
      <trkpt lat="42.76689" lon="0.14955">
        <ele>2496</ele>
        <time>2021-01-29T14:17:09Z</time>
      </trkpt>
      <trkpt lat="42.76689" lon="0.14954">
        <ele>2496.2</ele>
        <time>2021-01-29T14:17:10Z</time>
      </trkpt>
      <trkpt lat="42.76689" lon="0.14953">
        <ele>2496.2</ele>
        <time>2021-01-29T14:17:11Z</time>
      </trkpt>
      <trkpt lat="42.76689" lon="0.14952">
        <ele>2496.4</ele>
        <time>2021-01-29T14:17:12Z</time>
      </trkpt>
      <trkpt lat="42.76689" lon="0.14952">
        <ele>2496.6</ele>
        <time>2021-01-29T14:17:13Z</time>
      </trkpt>
      <trkpt lat="42.7669" lon="0.14951">
        <ele>2496.8</ele>
        <time>2021-01-29T14:17:14Z</time>
      </trkpt>
      <trkpt lat="42.7669" lon="0.1495">
        <ele>2497</ele>
        <time>2021-01-29T14:17:15Z</time>
      </trkpt>
      <trkpt lat="42.76691" lon="0.14949">
        <ele>2497</ele>
        <time>2021-01-29T14:17:16Z</time>
      </trkpt>
      <trkpt lat="42.76691" lon="0.14948">
        <ele>2497</ele>
        <time>2021-01-29T14:17:17Z</time>
      </trkpt>
      <trkpt lat="42.76691" lon="0.14948">
        <ele>2497.2</ele>
        <time>2021-01-29T14:17:18Z</time>
      </trkpt>
      <trkpt lat="42.76692" lon="0.14947">
        <ele>2497.2</ele>
        <time>2021-01-29T14:17:19Z</time>
      </trkpt>
      <trkpt lat="42.76692" lon="0.14946">
        <ele>2497.4</ele>
        <time>2021-01-29T14:17:20Z</time>
      </trkpt>
      <trkpt lat="42.76692" lon="0.14945">
        <ele>2497.6</ele>
        <time>2021-01-29T14:17:21Z</time>
      </trkpt>
      <trkpt lat="42.76692" lon="0.14945">
        <ele>2497.4</ele>
        <time>2021-01-29T14:17:22Z</time>
      </trkpt>
      <trkpt lat="42.76693" lon="0.14944">
        <ele>2497.6</ele>
        <time>2021-01-29T14:17:23Z</time>
      </trkpt>
      <trkpt lat="42.76693" lon="0.14943">
        <ele>2497.6</ele>
        <time>2021-01-29T14:17:24Z</time>
      </trkpt>
      <trkpt lat="42.76693" lon="0.14942">
        <ele>2497.6</ele>
        <time>2021-01-29T14:17:25Z</time>
      </trkpt>
      <trkpt lat="42.76694" lon="0.14941">
        <ele>2497.8</ele>
        <time>2021-01-29T14:17:26Z</time>
      </trkpt>
      <trkpt lat="42.76694" lon="0.1494">
        <ele>2497.6</ele>
        <time>2021-01-29T14:17:27Z</time>
      </trkpt>
      <trkpt lat="42.76694" lon="0.14939">
        <ele>2497.6</ele>
        <time>2021-01-29T14:17:28Z</time>
      </trkpt>
      <trkpt lat="42.76694" lon="0.14939">
        <ele>2497.8</ele>
        <time>2021-01-29T14:17:29Z</time>
      </trkpt>
      <trkpt lat="42.76695" lon="0.14937">
        <ele>2497.6</ele>
        <time>2021-01-29T14:17:30Z</time>
      </trkpt>
      <trkpt lat="42.76695" lon="0.14936">
        <ele>2497.8</ele>
        <time>2021-01-29T14:17:31Z</time>
      </trkpt>
      <trkpt lat="42.76695" lon="0.14935">
        <ele>2497.8</ele>
        <time>2021-01-29T14:17:32Z</time>
      </trkpt>
      <trkpt lat="42.76695" lon="0.14934">
        <ele>2497.6</ele>
        <time>2021-01-29T14:17:33Z</time>
      </trkpt>
      <trkpt lat="42.76696" lon="0.14933">
        <ele>2497.8</ele>
        <time>2021-01-29T14:17:34Z</time>
      </trkpt>
      <trkpt lat="42.76696" lon="0.14932">
        <ele>2498</ele>
        <time>2021-01-29T14:17:35Z</time>
      </trkpt>
      <trkpt lat="42.76697" lon="0.14931">
        <ele>2498</ele>
        <time>2021-01-29T14:17:36Z</time>
      </trkpt>
      <trkpt lat="42.76697" lon="0.1493">
        <ele>2498</ele>
        <time>2021-01-29T14:17:37Z</time>
      </trkpt>
      <trkpt lat="42.76697" lon="0.1493">
        <ele>2498.2</ele>
        <time>2021-01-29T14:17:38Z</time>
      </trkpt>
      <trkpt lat="42.76698" lon="0.14929">
        <ele>2498.2</ele>
        <time>2021-01-29T14:17:39Z</time>
      </trkpt>
      <trkpt lat="42.76698" lon="0.14928">
        <ele>2498.4</ele>
        <time>2021-01-29T14:17:40Z</time>
      </trkpt>
      <trkpt lat="42.76698" lon="0.14927">
        <ele>2498.4</ele>
        <time>2021-01-29T14:17:41Z</time>
      </trkpt>
      <trkpt lat="42.76699" lon="0.14925">
        <ele>2498.4</ele>
        <time>2021-01-29T14:17:42Z</time>
      </trkpt>
      <trkpt lat="42.767" lon="0.14924">
        <ele>2498.6</ele>
        <time>2021-01-29T14:17:43Z</time>
      </trkpt>
      <trkpt lat="42.767" lon="0.14923">
        <ele>2498.8</ele>
        <time>2021-01-29T14:17:44Z</time>
      </trkpt>
      <trkpt lat="42.76699" lon="0.14923">
        <ele>2498.8</ele>
        <time>2021-01-29T14:17:45Z</time>
      </trkpt>
      <trkpt lat="42.76698" lon="0.14923">
        <ele>2499</ele>
        <time>2021-01-29T14:17:46Z</time>
      </trkpt>
      <trkpt lat="42.76698" lon="0.14922">
        <ele>2499</ele>
        <time>2021-01-29T14:17:47Z</time>
      </trkpt>
      <trkpt lat="42.76698" lon="0.1492">
        <ele>2499.2</ele>
        <time>2021-01-29T14:17:48Z</time>
      </trkpt>
      <trkpt lat="42.76699" lon="0.1492">
        <ele>2499.2</ele>
        <time>2021-01-29T14:17:49Z</time>
      </trkpt>
      <trkpt lat="42.76699" lon="0.14919">
        <ele>2499.4</ele>
        <time>2021-01-29T14:17:50Z</time>
      </trkpt>
      <trkpt lat="42.76699" lon="0.14918">
        <ele>2499.6</ele>
        <time>2021-01-29T14:17:51Z</time>
      </trkpt>
      <trkpt lat="42.767" lon="0.14918">
        <ele>2499.6</ele>
        <time>2021-01-29T14:17:52Z</time>
      </trkpt>
      <trkpt lat="42.767" lon="0.14917">
        <ele>2499.6</ele>
        <time>2021-01-29T14:17:53Z</time>
      </trkpt>
      <trkpt lat="42.767" lon="0.14916">
        <ele>2499.8</ele>
        <time>2021-01-29T14:17:54Z</time>
      </trkpt>
      <trkpt lat="42.767" lon="0.14916">
        <ele>2500</ele>
        <time>2021-01-29T14:17:55Z</time>
      </trkpt>
      <trkpt lat="42.76701" lon="0.14915">
        <ele>2500</ele>
        <time>2021-01-29T14:17:56Z</time>
      </trkpt>
      <trkpt lat="42.76701" lon="0.14914">
        <ele>2500.2</ele>
        <time>2021-01-29T14:17:57Z</time>
      </trkpt>
      <trkpt lat="42.76701" lon="0.14913">
        <ele>2500</ele>
        <time>2021-01-29T14:17:58Z</time>
      </trkpt>
      <trkpt lat="42.76701" lon="0.14912">
        <ele>2500.2</ele>
        <time>2021-01-29T14:17:59Z</time>
      </trkpt>
      <trkpt lat="42.76701" lon="0.14911">
        <ele>2500.4</ele>
        <time>2021-01-29T14:18:00Z</time>
      </trkpt>
      <trkpt lat="42.76702" lon="0.1491">
        <ele>2500.4</ele>
        <time>2021-01-29T14:18:01Z</time>
      </trkpt>
      <trkpt lat="42.76702" lon="0.1491">
        <ele>2500.8</ele>
        <time>2021-01-29T14:18:02Z</time>
      </trkpt>
      <trkpt lat="42.76702" lon="0.14909">
        <ele>2501</ele>
        <time>2021-01-29T14:18:03Z</time>
      </trkpt>
      <trkpt lat="42.76702" lon="0.14908">
        <ele>2501.2</ele>
        <time>2021-01-29T14:18:04Z</time>
      </trkpt>
      <trkpt lat="42.76703" lon="0.14907">
        <ele>2501.4</ele>
        <time>2021-01-29T14:18:05Z</time>
      </trkpt>
      <trkpt lat="42.76703" lon="0.14906">
        <ele>2501.4</ele>
        <time>2021-01-29T14:18:06Z</time>
      </trkpt>
      <trkpt lat="42.76703" lon="0.14905">
        <ele>2501.4</ele>
        <time>2021-01-29T14:18:07Z</time>
      </trkpt>
      <trkpt lat="42.76703" lon="0.14904">
        <ele>2501.8</ele>
        <time>2021-01-29T14:18:08Z</time>
      </trkpt>
      <trkpt lat="42.76704" lon="0.14904">
        <ele>2501.8</ele>
        <time>2021-01-29T14:18:09Z</time>
      </trkpt>
      <trkpt lat="42.76704" lon="0.14903">
        <ele>2502</ele>
        <time>2021-01-29T14:18:10Z</time>
      </trkpt>
      <trkpt lat="42.76705" lon="0.14902">
        <ele>2502.2</ele>
        <time>2021-01-29T14:18:11Z</time>
      </trkpt>
      <trkpt lat="42.76705" lon="0.14901">
        <ele>2502.2</ele>
        <time>2021-01-29T14:18:12Z</time>
      </trkpt>
      <trkpt lat="42.76705" lon="0.149">
        <ele>2502.4</ele>
        <time>2021-01-29T14:18:13Z</time>
      </trkpt>
      <trkpt lat="42.76705" lon="0.14899">
        <ele>2502.6</ele>
        <time>2021-01-29T14:18:14Z</time>
      </trkpt>
      <trkpt lat="42.76706" lon="0.14899">
        <ele>2502.6</ele>
        <time>2021-01-29T14:18:15Z</time>
      </trkpt>
      <trkpt lat="42.76706" lon="0.14898">
        <ele>2502.6</ele>
        <time>2021-01-29T14:18:16Z</time>
      </trkpt>
      <trkpt lat="42.76706" lon="0.14897">
        <ele>2502.6</ele>
        <time>2021-01-29T14:18:17Z</time>
      </trkpt>
      <trkpt lat="42.76707" lon="0.14896">
        <ele>2502.6</ele>
        <time>2021-01-29T14:18:18Z</time>
      </trkpt>
      <trkpt lat="42.76707" lon="0.14895">
        <ele>2502.8</ele>
        <time>2021-01-29T14:18:19Z</time>
      </trkpt>
      <trkpt lat="42.76708" lon="0.14894">
        <ele>2502.8</ele>
        <time>2021-01-29T14:18:20Z</time>
      </trkpt>
      <trkpt lat="42.76708" lon="0.14893">
        <ele>2502.8</ele>
        <time>2021-01-29T14:18:21Z</time>
      </trkpt>
      <trkpt lat="42.76708" lon="0.14892">
        <ele>2503</ele>
        <time>2021-01-29T14:18:22Z</time>
      </trkpt>
      <trkpt lat="42.76708" lon="0.14891">
        <ele>2503</ele>
        <time>2021-01-29T14:18:23Z</time>
      </trkpt>
      <trkpt lat="42.76709" lon="0.1489">
        <ele>2503.2</ele>
        <time>2021-01-29T14:18:24Z</time>
      </trkpt>
      <trkpt lat="42.76709" lon="0.14889">
        <ele>2503.4</ele>
        <time>2021-01-29T14:18:25Z</time>
      </trkpt>
      <trkpt lat="42.76709" lon="0.14888">
        <ele>2503.4</ele>
        <time>2021-01-29T14:18:26Z</time>
      </trkpt>
      <trkpt lat="42.76709" lon="0.14887">
        <ele>2503.4</ele>
        <time>2021-01-29T14:18:27Z</time>
      </trkpt>
      <trkpt lat="42.76709" lon="0.14886">
        <ele>2503.6</ele>
        <time>2021-01-29T14:18:28Z</time>
      </trkpt>
      <trkpt lat="42.7671" lon="0.14885">
        <ele>2503.6</ele>
        <time>2021-01-29T14:18:29Z</time>
      </trkpt>
      <trkpt lat="42.7671" lon="0.14885">
        <ele>2503.8</ele>
        <time>2021-01-29T14:18:30Z</time>
      </trkpt>
      <trkpt lat="42.7671" lon="0.14883">
        <ele>2503.8</ele>
        <time>2021-01-29T14:18:31Z</time>
      </trkpt>
      <trkpt lat="42.7671" lon="0.14882">
        <ele>2503.8</ele>
        <time>2021-01-29T14:18:32Z</time>
      </trkpt>
      <trkpt lat="42.7671" lon="0.14881">
        <ele>2504</ele>
        <time>2021-01-29T14:18:33Z</time>
      </trkpt>
      <trkpt lat="42.7671" lon="0.1488">
        <ele>2503.8</ele>
        <time>2021-01-29T14:18:34Z</time>
      </trkpt>
      <trkpt lat="42.7671" lon="0.14879">
        <ele>2503.8</ele>
        <time>2021-01-29T14:18:35Z</time>
      </trkpt>
      <trkpt lat="42.76711" lon="0.14878">
        <ele>2504</ele>
        <time>2021-01-29T14:18:36Z</time>
      </trkpt>
      <trkpt lat="42.76711" lon="0.14878">
        <ele>2503.8</ele>
        <time>2021-01-29T14:18:37Z</time>
      </trkpt>
      <trkpt lat="42.76711" lon="0.14877">
        <ele>2503.8</ele>
        <time>2021-01-29T14:18:38Z</time>
      </trkpt>
      <trkpt lat="42.76711" lon="0.14876">
        <ele>2504</ele>
        <time>2021-01-29T14:18:39Z</time>
      </trkpt>
      <trkpt lat="42.76711" lon="0.14875">
        <ele>2503.8</ele>
        <time>2021-01-29T14:18:40Z</time>
      </trkpt>
      <trkpt lat="42.76712" lon="0.14874">
        <ele>2503.8</ele>
        <time>2021-01-29T14:18:41Z</time>
      </trkpt>
      <trkpt lat="42.76712" lon="0.14873">
        <ele>2504</ele>
        <time>2021-01-29T14:18:42Z</time>
      </trkpt>
      <trkpt lat="42.76712" lon="0.14872">
        <ele>2504</ele>
        <time>2021-01-29T14:18:43Z</time>
      </trkpt>
      <trkpt lat="42.76712" lon="0.14871">
        <ele>2504</ele>
        <time>2021-01-29T14:18:44Z</time>
      </trkpt>
      <trkpt lat="42.76713" lon="0.1487">
        <ele>2504.2</ele>
        <time>2021-01-29T14:18:45Z</time>
      </trkpt>
      <trkpt lat="42.76713" lon="0.14869">
        <ele>2504.2</ele>
        <time>2021-01-29T14:18:46Z</time>
      </trkpt>
      <trkpt lat="42.76713" lon="0.14869">
        <ele>2504.4</ele>
        <time>2021-01-29T14:18:47Z</time>
      </trkpt>
      <trkpt lat="42.76714" lon="0.14868">
        <ele>2504.4</ele>
        <time>2021-01-29T14:18:48Z</time>
      </trkpt>
      <trkpt lat="42.76714" lon="0.14867">
        <ele>2504.4</ele>
        <time>2021-01-29T14:18:49Z</time>
      </trkpt>
      <trkpt lat="42.76714" lon="0.14866">
        <ele>2504.4</ele>
        <time>2021-01-29T14:18:50Z</time>
      </trkpt>
      <trkpt lat="42.76715" lon="0.14865">
        <ele>2504.6</ele>
        <time>2021-01-29T14:18:51Z</time>
      </trkpt>
      <trkpt lat="42.76715" lon="0.14864">
        <ele>2504.6</ele>
        <time>2021-01-29T14:18:52Z</time>
      </trkpt>
      <trkpt lat="42.76715" lon="0.14863">
        <ele>2504.8</ele>
        <time>2021-01-29T14:18:53Z</time>
      </trkpt>
      <trkpt lat="42.76715" lon="0.14862">
        <ele>2505</ele>
        <time>2021-01-29T14:18:54Z</time>
      </trkpt>
      <trkpt lat="42.76715" lon="0.14861">
        <ele>2505</ele>
        <time>2021-01-29T14:18:55Z</time>
      </trkpt>
      <trkpt lat="42.76716" lon="0.1486">
        <ele>2505.2</ele>
        <time>2021-01-29T14:18:56Z</time>
      </trkpt>
      <trkpt lat="42.76716" lon="0.14859">
        <ele>2505.2</ele>
        <time>2021-01-29T14:18:57Z</time>
      </trkpt>
      <trkpt lat="42.76716" lon="0.14859">
        <ele>2505.2</ele>
        <time>2021-01-29T14:18:58Z</time>
      </trkpt>
      <trkpt lat="42.76716" lon="0.14858">
        <ele>2505.6</ele>
        <time>2021-01-29T14:18:59Z</time>
      </trkpt>
      <trkpt lat="42.76717" lon="0.14856">
        <ele>2505.6</ele>
        <time>2021-01-29T14:19:00Z</time>
      </trkpt>
      <trkpt lat="42.76717" lon="0.14855">
        <ele>2505.8</ele>
        <time>2021-01-29T14:19:01Z</time>
      </trkpt>
      <trkpt lat="42.76717" lon="0.14854">
        <ele>2506</ele>
        <time>2021-01-29T14:19:02Z</time>
      </trkpt>
      <trkpt lat="42.76717" lon="0.14853">
        <ele>2506</ele>
        <time>2021-01-29T14:19:03Z</time>
      </trkpt>
      <trkpt lat="42.76717" lon="0.14852">
        <ele>2506</ele>
        <time>2021-01-29T14:19:04Z</time>
      </trkpt>
      <trkpt lat="42.76718" lon="0.14851">
        <ele>2506.2</ele>
        <time>2021-01-29T14:19:05Z</time>
      </trkpt>
      <trkpt lat="42.76718" lon="0.1485">
        <ele>2506.2</ele>
        <time>2021-01-29T14:19:06Z</time>
      </trkpt>
      <trkpt lat="42.76718" lon="0.14849">
        <ele>2506.4</ele>
        <time>2021-01-29T14:19:07Z</time>
      </trkpt>
      <trkpt lat="42.76718" lon="0.14848">
        <ele>2506.4</ele>
        <time>2021-01-29T14:19:08Z</time>
      </trkpt>
      <trkpt lat="42.76719" lon="0.14847">
        <ele>2506.4</ele>
        <time>2021-01-29T14:19:09Z</time>
      </trkpt>
      <trkpt lat="42.76719" lon="0.14846">
        <ele>2506.6</ele>
        <time>2021-01-29T14:19:10Z</time>
      </trkpt>
      <trkpt lat="42.76719" lon="0.14845">
        <ele>2506.6</ele>
        <time>2021-01-29T14:19:11Z</time>
      </trkpt>
      <trkpt lat="42.76719" lon="0.14844">
        <ele>2506.6</ele>
        <time>2021-01-29T14:19:12Z</time>
      </trkpt>
      <trkpt lat="42.76719" lon="0.14843">
        <ele>2507</ele>
        <time>2021-01-29T14:19:13Z</time>
      </trkpt>
      <trkpt lat="42.7672" lon="0.14842">
        <ele>2507.2</ele>
        <time>2021-01-29T14:19:14Z</time>
      </trkpt>
      <trkpt lat="42.7672" lon="0.14841">
        <ele>2507.2</ele>
        <time>2021-01-29T14:19:15Z</time>
      </trkpt>
      <trkpt lat="42.7672" lon="0.1484">
        <ele>2507.4</ele>
        <time>2021-01-29T14:19:16Z</time>
      </trkpt>
      <trkpt lat="42.7672" lon="0.14839">
        <ele>2507.4</ele>
        <time>2021-01-29T14:19:17Z</time>
      </trkpt>
      <trkpt lat="42.7672" lon="0.14838">
        <ele>2507.4</ele>
        <time>2021-01-29T14:19:18Z</time>
      </trkpt>
      <trkpt lat="42.76721" lon="0.14837">
        <ele>2507.4</ele>
        <time>2021-01-29T14:19:19Z</time>
      </trkpt>
      <trkpt lat="42.76721" lon="0.14836">
        <ele>2507.6</ele>
        <time>2021-01-29T14:19:20Z</time>
      </trkpt>
      <trkpt lat="42.76721" lon="0.14835">
        <ele>2507.4</ele>
        <time>2021-01-29T14:19:21Z</time>
      </trkpt>
      <trkpt lat="42.76721" lon="0.14834">
        <ele>2507.6</ele>
        <time>2021-01-29T14:19:22Z</time>
      </trkpt>
      <trkpt lat="42.76721" lon="0.14833">
        <ele>2507.4</ele>
        <time>2021-01-29T14:19:23Z</time>
      </trkpt>
      <trkpt lat="42.76721" lon="0.14831">
        <ele>2507.4</ele>
        <time>2021-01-29T14:19:24Z</time>
      </trkpt>
      <trkpt lat="42.76721" lon="0.1483">
        <ele>2507.6</ele>
        <time>2021-01-29T14:19:25Z</time>
      </trkpt>
      <trkpt lat="42.76722" lon="0.14829">
        <ele>2507.6</ele>
        <time>2021-01-29T14:19:26Z</time>
      </trkpt>
      <trkpt lat="42.76722" lon="0.14828">
        <ele>2507.8</ele>
        <time>2021-01-29T14:19:27Z</time>
      </trkpt>
      <trkpt lat="42.76722" lon="0.14827">
        <ele>2507.8</ele>
        <time>2021-01-29T14:19:28Z</time>
      </trkpt>
      <trkpt lat="42.76722" lon="0.14826">
        <ele>2508</ele>
        <time>2021-01-29T14:19:29Z</time>
      </trkpt>
      <trkpt lat="42.76723" lon="0.14825">
        <ele>2507.8</ele>
        <time>2021-01-29T14:19:30Z</time>
      </trkpt>
      <trkpt lat="42.76723" lon="0.14825">
        <ele>2508</ele>
        <time>2021-01-29T14:19:31Z</time>
      </trkpt>
      <trkpt lat="42.76723" lon="0.14824">
        <ele>2508</ele>
        <time>2021-01-29T14:19:32Z</time>
      </trkpt>
      <trkpt lat="42.76723" lon="0.14823">
        <ele>2508.2</ele>
        <time>2021-01-29T14:19:33Z</time>
      </trkpt>
      <trkpt lat="42.76724" lon="0.14822">
        <ele>2508.4</ele>
        <time>2021-01-29T14:19:34Z</time>
      </trkpt>
      <trkpt lat="42.76724" lon="0.14821">
        <ele>2508.2</ele>
        <time>2021-01-29T14:19:35Z</time>
      </trkpt>
      <trkpt lat="42.76724" lon="0.1482">
        <ele>2508.4</ele>
        <time>2021-01-29T14:19:36Z</time>
      </trkpt>
      <trkpt lat="42.76724" lon="0.14819">
        <ele>2508.6</ele>
        <time>2021-01-29T14:19:37Z</time>
      </trkpt>
      <trkpt lat="42.76724" lon="0.14818">
        <ele>2508.6</ele>
        <time>2021-01-29T14:19:38Z</time>
      </trkpt>
      <trkpt lat="42.76724" lon="0.14817">
        <ele>2508.6</ele>
        <time>2021-01-29T14:19:39Z</time>
      </trkpt>
      <trkpt lat="42.76724" lon="0.14816">
        <ele>2508.8</ele>
        <time>2021-01-29T14:19:40Z</time>
      </trkpt>
      <trkpt lat="42.76724" lon="0.14815">
        <ele>2508.8</ele>
        <time>2021-01-29T14:19:41Z</time>
      </trkpt>
      <trkpt lat="42.76725" lon="0.14814">
        <ele>2509</ele>
        <time>2021-01-29T14:19:42Z</time>
      </trkpt>
      <trkpt lat="42.76725" lon="0.14813">
        <ele>2509</ele>
        <time>2021-01-29T14:19:43Z</time>
      </trkpt>
      <trkpt lat="42.76725" lon="0.14812">
        <ele>2509</ele>
        <time>2021-01-29T14:19:44Z</time>
      </trkpt>
      <trkpt lat="42.76725" lon="0.14811">
        <ele>2509.2</ele>
        <time>2021-01-29T14:19:45Z</time>
      </trkpt>
      <trkpt lat="42.76725" lon="0.1481">
        <ele>2509.2</ele>
        <time>2021-01-29T14:19:46Z</time>
      </trkpt>
      <trkpt lat="42.76725" lon="0.14809">
        <ele>2509.2</ele>
        <time>2021-01-29T14:19:47Z</time>
      </trkpt>
      <trkpt lat="42.76726" lon="0.14808">
        <ele>2509.4</ele>
        <time>2021-01-29T14:19:48Z</time>
      </trkpt>
      <trkpt lat="42.76726" lon="0.14807">
        <ele>2509.4</ele>
        <time>2021-01-29T14:19:49Z</time>
      </trkpt>
      <trkpt lat="42.76726" lon="0.14806">
        <ele>2509.6</ele>
        <time>2021-01-29T14:19:50Z</time>
      </trkpt>
      <trkpt lat="42.76726" lon="0.14805">
        <ele>2509.6</ele>
        <time>2021-01-29T14:19:51Z</time>
      </trkpt>
      <trkpt lat="42.76727" lon="0.14804">
        <ele>2509.8</ele>
        <time>2021-01-29T14:19:52Z</time>
      </trkpt>
      <trkpt lat="42.76728" lon="0.14803">
        <ele>2509.8</ele>
        <time>2021-01-29T14:19:53Z</time>
      </trkpt>
      <trkpt lat="42.76728" lon="0.14802">
        <ele>2510</ele>
        <time>2021-01-29T14:19:54Z</time>
      </trkpt>
      <trkpt lat="42.76729" lon="0.14801">
        <ele>2510</ele>
        <time>2021-01-29T14:19:55Z</time>
      </trkpt>
      <trkpt lat="42.76729" lon="0.148">
        <ele>2510.2</ele>
        <time>2021-01-29T14:19:56Z</time>
      </trkpt>
      <trkpt lat="42.7673" lon="0.14799">
        <ele>2510.2</ele>
        <time>2021-01-29T14:19:57Z</time>
      </trkpt>
      <trkpt lat="42.76731" lon="0.14799">
        <ele>2510.2</ele>
        <time>2021-01-29T14:19:58Z</time>
      </trkpt>
      <trkpt lat="42.76731" lon="0.14798">
        <ele>2510.4</ele>
        <time>2021-01-29T14:19:59Z</time>
      </trkpt>
      <trkpt lat="42.76731" lon="0.14797">
        <ele>2510.4</ele>
        <time>2021-01-29T14:20:00Z</time>
      </trkpt>
      <trkpt lat="42.76732" lon="0.14796">
        <ele>2510.4</ele>
        <time>2021-01-29T14:20:01Z</time>
      </trkpt>
      <trkpt lat="42.76732" lon="0.14795">
        <ele>2510.6</ele>
        <time>2021-01-29T14:20:02Z</time>
      </trkpt>
      <trkpt lat="42.76733" lon="0.14794">
        <ele>2510.8</ele>
        <time>2021-01-29T14:20:03Z</time>
      </trkpt>
      <trkpt lat="42.76733" lon="0.14793">
        <ele>2510.8</ele>
        <time>2021-01-29T14:20:04Z</time>
      </trkpt>
      <trkpt lat="42.76733" lon="0.14792">
        <ele>2511</ele>
        <time>2021-01-29T14:20:05Z</time>
      </trkpt>
      <trkpt lat="42.76733" lon="0.14791">
        <ele>2511</ele>
        <time>2021-01-29T14:20:06Z</time>
      </trkpt>
      <trkpt lat="42.76733" lon="0.1479">
        <ele>2511</ele>
        <time>2021-01-29T14:20:07Z</time>
      </trkpt>
      <trkpt lat="42.76733" lon="0.1479">
        <ele>2511.2</ele>
        <time>2021-01-29T14:20:08Z</time>
      </trkpt>
      <trkpt lat="42.76733" lon="0.14789">
        <ele>2511.4</ele>
        <time>2021-01-29T14:20:09Z</time>
      </trkpt>
      <trkpt lat="42.76733" lon="0.14788">
        <ele>2511.4</ele>
        <time>2021-01-29T14:20:10Z</time>
      </trkpt>
      <trkpt lat="42.76734" lon="0.14787">
        <ele>2511.6</ele>
        <time>2021-01-29T14:20:11Z</time>
      </trkpt>
      <trkpt lat="42.76734" lon="0.14786">
        <ele>2511.6</ele>
        <time>2021-01-29T14:20:12Z</time>
      </trkpt>
      <trkpt lat="42.76734" lon="0.14786">
        <ele>2511.6</ele>
        <time>2021-01-29T14:20:13Z</time>
      </trkpt>
      <trkpt lat="42.76734" lon="0.14785">
        <ele>2511.6</ele>
        <time>2021-01-29T14:20:14Z</time>
      </trkpt>
      <trkpt lat="42.76734" lon="0.14784">
        <ele>2511.8</ele>
        <time>2021-01-29T14:20:15Z</time>
      </trkpt>
      <trkpt lat="42.76734" lon="0.14783">
        <ele>2511.8</ele>
        <time>2021-01-29T14:20:16Z</time>
      </trkpt>
      <trkpt lat="42.76734" lon="0.14782">
        <ele>2511.8</ele>
        <time>2021-01-29T14:20:17Z</time>
      </trkpt>
      <trkpt lat="42.76734" lon="0.14781">
        <ele>2512</ele>
        <time>2021-01-29T14:20:18Z</time>
      </trkpt>
      <trkpt lat="42.76734" lon="0.14781">
        <ele>2512.2</ele>
        <time>2021-01-29T14:20:19Z</time>
      </trkpt>
      <trkpt lat="42.76735" lon="0.1478">
        <ele>2512.2</ele>
        <time>2021-01-29T14:20:20Z</time>
      </trkpt>
      <trkpt lat="42.76735" lon="0.14779">
        <ele>2512.2</ele>
        <time>2021-01-29T14:20:21Z</time>
      </trkpt>
      <trkpt lat="42.76735" lon="0.14778">
        <ele>2512.4</ele>
        <time>2021-01-29T14:20:22Z</time>
      </trkpt>
      <trkpt lat="42.76735" lon="0.14777">
        <ele>2512.4</ele>
        <time>2021-01-29T14:20:23Z</time>
      </trkpt>
      <trkpt lat="42.76735" lon="0.14776">
        <ele>2512.6</ele>
        <time>2021-01-29T14:20:24Z</time>
      </trkpt>
      <trkpt lat="42.76736" lon="0.14776">
        <ele>2512.6</ele>
        <time>2021-01-29T14:20:25Z</time>
      </trkpt>
      <trkpt lat="42.76736" lon="0.14775">
        <ele>2512.8</ele>
        <time>2021-01-29T14:20:26Z</time>
      </trkpt>
      <trkpt lat="42.76736" lon="0.14774">
        <ele>2512.8</ele>
        <time>2021-01-29T14:20:27Z</time>
      </trkpt>
      <trkpt lat="42.76736" lon="0.14773">
        <ele>2513</ele>
        <time>2021-01-29T14:20:28Z</time>
      </trkpt>
      <trkpt lat="42.76736" lon="0.14772">
        <ele>2513</ele>
        <time>2021-01-29T14:20:29Z</time>
      </trkpt>
      <trkpt lat="42.76736" lon="0.14771">
        <ele>2513.2</ele>
        <time>2021-01-29T14:20:30Z</time>
      </trkpt>
      <trkpt lat="42.76737" lon="0.1477">
        <ele>2513</ele>
        <time>2021-01-29T14:20:31Z</time>
      </trkpt>
      <trkpt lat="42.76737" lon="0.14769">
        <ele>2513.2</ele>
        <time>2021-01-29T14:20:32Z</time>
      </trkpt>
      <trkpt lat="42.76737" lon="0.14768">
        <ele>2513.2</ele>
        <time>2021-01-29T14:20:33Z</time>
      </trkpt>
      <trkpt lat="42.76737" lon="0.14767">
        <ele>2513.2</ele>
        <time>2021-01-29T14:20:34Z</time>
      </trkpt>
      <trkpt lat="42.76737" lon="0.14767">
        <ele>2513.4</ele>
        <time>2021-01-29T14:20:35Z</time>
      </trkpt>
      <trkpt lat="42.76738" lon="0.14766">
        <ele>2513.4</ele>
        <time>2021-01-29T14:20:36Z</time>
      </trkpt>
      <trkpt lat="42.76738" lon="0.14765">
        <ele>2513.6</ele>
        <time>2021-01-29T14:20:37Z</time>
      </trkpt>
      <trkpt lat="42.76738" lon="0.14764">
        <ele>2513.6</ele>
        <time>2021-01-29T14:20:38Z</time>
      </trkpt>
      <trkpt lat="42.76738" lon="0.14763">
        <ele>2513.6</ele>
        <time>2021-01-29T14:20:39Z</time>
      </trkpt>
      <trkpt lat="42.76739" lon="0.14762">
        <ele>2513.8</ele>
        <time>2021-01-29T14:20:40Z</time>
      </trkpt>
      <trkpt lat="42.76739" lon="0.14761">
        <ele>2514</ele>
        <time>2021-01-29T14:20:41Z</time>
      </trkpt>
      <trkpt lat="42.76739" lon="0.1476">
        <ele>2514</ele>
        <time>2021-01-29T14:20:42Z</time>
      </trkpt>
      <trkpt lat="42.76739" lon="0.14759">
        <ele>2514.2</ele>
        <time>2021-01-29T14:20:43Z</time>
      </trkpt>
      <trkpt lat="42.7674" lon="0.14758">
        <ele>2514.4</ele>
        <time>2021-01-29T14:20:44Z</time>
      </trkpt>
      <trkpt lat="42.7674" lon="0.14757">
        <ele>2514.2</ele>
        <time>2021-01-29T14:20:45Z</time>
      </trkpt>
      <trkpt lat="42.7674" lon="0.14756">
        <ele>2514.6</ele>
        <time>2021-01-29T14:20:46Z</time>
      </trkpt>
      <trkpt lat="42.7674" lon="0.14755">
        <ele>2514.6</ele>
        <time>2021-01-29T14:20:47Z</time>
      </trkpt>
      <trkpt lat="42.7674" lon="0.14755">
        <ele>2514.8</ele>
        <time>2021-01-29T14:20:48Z</time>
      </trkpt>
      <trkpt lat="42.76741" lon="0.14754">
        <ele>2515</ele>
        <time>2021-01-29T14:20:49Z</time>
      </trkpt>
      <trkpt lat="42.76741" lon="0.14753">
        <ele>2515.2</ele>
        <time>2021-01-29T14:20:50Z</time>
      </trkpt>
      <trkpt lat="42.76741" lon="0.14752">
        <ele>2515.2</ele>
        <time>2021-01-29T14:20:51Z</time>
      </trkpt>
      <trkpt lat="42.76742" lon="0.14751">
        <ele>2515.6</ele>
        <time>2021-01-29T14:20:52Z</time>
      </trkpt>
      <trkpt lat="42.76742" lon="0.1475">
        <ele>2515.6</ele>
        <time>2021-01-29T14:20:53Z</time>
      </trkpt>
      <trkpt lat="42.76742" lon="0.14749">
        <ele>2515.8</ele>
        <time>2021-01-29T14:20:54Z</time>
      </trkpt>
      <trkpt lat="42.76743" lon="0.14748">
        <ele>2516</ele>
        <time>2021-01-29T14:20:55Z</time>
      </trkpt>
      <trkpt lat="42.76743" lon="0.14747">
        <ele>2516</ele>
        <time>2021-01-29T14:20:56Z</time>
      </trkpt>
      <trkpt lat="42.76744" lon="0.14746">
        <ele>2516.2</ele>
        <time>2021-01-29T14:20:57Z</time>
      </trkpt>
      <trkpt lat="42.76744" lon="0.14745">
        <ele>2516.4</ele>
        <time>2021-01-29T14:20:58Z</time>
      </trkpt>
      <trkpt lat="42.76745" lon="0.14744">
        <ele>2516.2</ele>
        <time>2021-01-29T14:20:59Z</time>
      </trkpt>
      <trkpt lat="42.76745" lon="0.14743">
        <ele>2516.4</ele>
        <time>2021-01-29T14:21:00Z</time>
      </trkpt>
      <trkpt lat="42.76745" lon="0.14742">
        <ele>2516.6</ele>
        <time>2021-01-29T14:21:01Z</time>
      </trkpt>
      <trkpt lat="42.76746" lon="0.14741">
        <ele>2516.6</ele>
        <time>2021-01-29T14:21:02Z</time>
      </trkpt>
      <trkpt lat="42.76746" lon="0.1474">
        <ele>2516.6</ele>
        <time>2021-01-29T14:21:03Z</time>
      </trkpt>
      <trkpt lat="42.76747" lon="0.14739">
        <ele>2516.6</ele>
        <time>2021-01-29T14:21:04Z</time>
      </trkpt>
      <trkpt lat="42.76747" lon="0.14738">
        <ele>2516.8</ele>
        <time>2021-01-29T14:21:05Z</time>
      </trkpt>
      <trkpt lat="42.76748" lon="0.14737">
        <ele>2516.8</ele>
        <time>2021-01-29T14:21:06Z</time>
      </trkpt>
      <trkpt lat="42.76749" lon="0.14736">
        <ele>2516.8</ele>
        <time>2021-01-29T14:21:07Z</time>
      </trkpt>
      <trkpt lat="42.76749" lon="0.14736">
        <ele>2517</ele>
        <time>2021-01-29T14:21:08Z</time>
      </trkpt>
      <trkpt lat="42.76749" lon="0.14735">
        <ele>2517</ele>
        <time>2021-01-29T14:21:09Z</time>
      </trkpt>
      <trkpt lat="42.7675" lon="0.14734">
        <ele>2517</ele>
        <time>2021-01-29T14:21:10Z</time>
      </trkpt>
      <trkpt lat="42.7675" lon="0.14733">
        <ele>2517.2</ele>
        <time>2021-01-29T14:21:11Z</time>
      </trkpt>
      <trkpt lat="42.7675" lon="0.14733">
        <ele>2517.2</ele>
        <time>2021-01-29T14:21:12Z</time>
      </trkpt>
      <trkpt lat="42.76751" lon="0.14732">
        <ele>2517.2</ele>
        <time>2021-01-29T14:21:13Z</time>
      </trkpt>
      <trkpt lat="42.76752" lon="0.14731">
        <ele>2517.4</ele>
        <time>2021-01-29T14:21:14Z</time>
      </trkpt>
      <trkpt lat="42.76752" lon="0.1473">
        <ele>2517.4</ele>
        <time>2021-01-29T14:21:15Z</time>
      </trkpt>
      <trkpt lat="42.76753" lon="0.14729">
        <ele>2517.6</ele>
        <time>2021-01-29T14:21:16Z</time>
      </trkpt>
      <trkpt lat="42.76753" lon="0.14728">
        <ele>2517.6</ele>
        <time>2021-01-29T14:21:17Z</time>
      </trkpt>
      <trkpt lat="42.76754" lon="0.14728">
        <ele>2517.6</ele>
        <time>2021-01-29T14:21:18Z</time>
      </trkpt>
      <trkpt lat="42.76754" lon="0.14727">
        <ele>2517.4</ele>
        <time>2021-01-29T14:21:19Z</time>
      </trkpt>
      <trkpt lat="42.76755" lon="0.14726">
        <ele>2517.6</ele>
        <time>2021-01-29T14:21:20Z</time>
      </trkpt>
      <trkpt lat="42.76755" lon="0.14725">
        <ele>2517.6</ele>
        <time>2021-01-29T14:21:21Z</time>
      </trkpt>
      <trkpt lat="42.76755" lon="0.14724">
        <ele>2517.6</ele>
        <time>2021-01-29T14:21:22Z</time>
      </trkpt>
      <trkpt lat="42.76756" lon="0.14724">
        <ele>2517.6</ele>
        <time>2021-01-29T14:21:23Z</time>
      </trkpt>
      <trkpt lat="42.76756" lon="0.14723">
        <ele>2517.4</ele>
        <time>2021-01-29T14:21:24Z</time>
      </trkpt>
      <trkpt lat="42.76756" lon="0.14722">
        <ele>2517.6</ele>
        <time>2021-01-29T14:21:25Z</time>
      </trkpt>
      <trkpt lat="42.76757" lon="0.14721">
        <ele>2517.8</ele>
        <time>2021-01-29T14:21:26Z</time>
      </trkpt>
      <trkpt lat="42.76757" lon="0.1472">
        <ele>2517.8</ele>
        <time>2021-01-29T14:21:27Z</time>
      </trkpt>
      <trkpt lat="42.76758" lon="0.14719">
        <ele>2518</ele>
        <time>2021-01-29T14:21:28Z</time>
      </trkpt>
      <trkpt lat="42.76758" lon="0.14718">
        <ele>2518.2</ele>
        <time>2021-01-29T14:21:29Z</time>
      </trkpt>
      <trkpt lat="42.76759" lon="0.14718">
        <ele>2518.2</ele>
        <time>2021-01-29T14:21:30Z</time>
      </trkpt>
      <trkpt lat="42.7676" lon="0.14717">
        <ele>2518.6</ele>
        <time>2021-01-29T14:21:31Z</time>
      </trkpt>
      <trkpt lat="42.7676" lon="0.14716">
        <ele>2518.8</ele>
        <time>2021-01-29T14:21:32Z</time>
      </trkpt>
      <trkpt lat="42.76761" lon="0.14715">
        <ele>2519</ele>
        <time>2021-01-29T14:21:33Z</time>
      </trkpt>
      <trkpt lat="42.76762" lon="0.14714">
        <ele>2519.4</ele>
        <time>2021-01-29T14:21:34Z</time>
      </trkpt>
      <trkpt lat="42.76762" lon="0.14714">
        <ele>2519.6</ele>
        <time>2021-01-29T14:21:35Z</time>
      </trkpt>
      <trkpt lat="42.76763" lon="0.14713">
        <ele>2519.8</ele>
        <time>2021-01-29T14:21:36Z</time>
      </trkpt>
      <trkpt lat="42.76763" lon="0.14712">
        <ele>2519.8</ele>
        <time>2021-01-29T14:21:37Z</time>
      </trkpt>
      <trkpt lat="42.76764" lon="0.14711">
        <ele>2519.8</ele>
        <time>2021-01-29T14:21:38Z</time>
      </trkpt>
      <trkpt lat="42.76765" lon="0.14711">
        <ele>2519.8</ele>
        <time>2021-01-29T14:21:39Z</time>
      </trkpt>
      <trkpt lat="42.76765" lon="0.1471">
        <ele>2519.8</ele>
        <time>2021-01-29T14:21:40Z</time>
      </trkpt>
      <trkpt lat="42.76765" lon="0.14709">
        <ele>2519.8</ele>
        <time>2021-01-29T14:21:41Z</time>
      </trkpt>
      <trkpt lat="42.76766" lon="0.14709">
        <ele>2519.8</ele>
        <time>2021-01-29T14:21:42Z</time>
      </trkpt>
      <trkpt lat="42.76766" lon="0.14708">
        <ele>2519.8</ele>
        <time>2021-01-29T14:21:43Z</time>
      </trkpt>
      <trkpt lat="42.76767" lon="0.14707">
        <ele>2519.6</ele>
        <time>2021-01-29T14:21:44Z</time>
      </trkpt>
      <trkpt lat="42.76767" lon="0.14706">
        <ele>2519.8</ele>
        <time>2021-01-29T14:21:45Z</time>
      </trkpt>
      <trkpt lat="42.76768" lon="0.14705">
        <ele>2519.8</ele>
        <time>2021-01-29T14:21:46Z</time>
      </trkpt>
      <trkpt lat="42.76768" lon="0.14704">
        <ele>2520</ele>
        <time>2021-01-29T14:21:47Z</time>
      </trkpt>
      <trkpt lat="42.76769" lon="0.14703">
        <ele>2520</ele>
        <time>2021-01-29T14:21:48Z</time>
      </trkpt>
      <trkpt lat="42.76769" lon="0.14703">
        <ele>2520</ele>
        <time>2021-01-29T14:21:49Z</time>
      </trkpt>
      <trkpt lat="42.76769" lon="0.14702">
        <ele>2520.2</ele>
        <time>2021-01-29T14:21:50Z</time>
      </trkpt>
      <trkpt lat="42.7677" lon="0.14701">
        <ele>2520.2</ele>
        <time>2021-01-29T14:21:51Z</time>
      </trkpt>
      <trkpt lat="42.7677" lon="0.147">
        <ele>2520.4</ele>
        <time>2021-01-29T14:21:52Z</time>
      </trkpt>
      <trkpt lat="42.7677" lon="0.14699">
        <ele>2520.6</ele>
        <time>2021-01-29T14:21:53Z</time>
      </trkpt>
      <trkpt lat="42.76771" lon="0.14698">
        <ele>2520.8</ele>
        <time>2021-01-29T14:21:54Z</time>
      </trkpt>
      <trkpt lat="42.76771" lon="0.14697">
        <ele>2520.8</ele>
        <time>2021-01-29T14:21:55Z</time>
      </trkpt>
      <trkpt lat="42.76772" lon="0.14697">
        <ele>2521</ele>
        <time>2021-01-29T14:21:56Z</time>
      </trkpt>
      <trkpt lat="42.76772" lon="0.14696">
        <ele>2521</ele>
        <time>2021-01-29T14:21:57Z</time>
      </trkpt>
      <trkpt lat="42.76773" lon="0.14695">
        <ele>2521.2</ele>
        <time>2021-01-29T14:21:58Z</time>
      </trkpt>
      <trkpt lat="42.76773" lon="0.14694">
        <ele>2521.4</ele>
        <time>2021-01-29T14:21:59Z</time>
      </trkpt>
      <trkpt lat="42.76773" lon="0.14693">
        <ele>2521.2</ele>
        <time>2021-01-29T14:22:00Z</time>
      </trkpt>
      <trkpt lat="42.76774" lon="0.14693">
        <ele>2521.4</ele>
        <time>2021-01-29T14:22:01Z</time>
      </trkpt>
      <trkpt lat="42.76774" lon="0.14692">
        <ele>2521.6</ele>
        <time>2021-01-29T14:22:02Z</time>
      </trkpt>
      <trkpt lat="42.76774" lon="0.14691">
        <ele>2521.6</ele>
        <time>2021-01-29T14:22:03Z</time>
      </trkpt>
      <trkpt lat="42.76774" lon="0.1469">
        <ele>2521.8</ele>
        <time>2021-01-29T14:22:04Z</time>
      </trkpt>
      <trkpt lat="42.76775" lon="0.14689">
        <ele>2521.8</ele>
        <time>2021-01-29T14:22:05Z</time>
      </trkpt>
      <trkpt lat="42.76775" lon="0.14688">
        <ele>2521.8</ele>
        <time>2021-01-29T14:22:06Z</time>
      </trkpt>
      <trkpt lat="42.76776" lon="0.14687">
        <ele>2521.8</ele>
        <time>2021-01-29T14:22:07Z</time>
      </trkpt>
      <trkpt lat="42.76776" lon="0.14686">
        <ele>2521.8</ele>
        <time>2021-01-29T14:22:08Z</time>
      </trkpt>
      <trkpt lat="42.76777" lon="0.14685">
        <ele>2521.8</ele>
        <time>2021-01-29T14:22:09Z</time>
      </trkpt>
      <trkpt lat="42.76777" lon="0.14685">
        <ele>2522</ele>
        <time>2021-01-29T14:22:10Z</time>
      </trkpt>
      <trkpt lat="42.76777" lon="0.14684">
        <ele>2522</ele>
        <time>2021-01-29T14:22:11Z</time>
      </trkpt>
      <trkpt lat="42.76778" lon="0.14683">
        <ele>2522</ele>
        <time>2021-01-29T14:22:12Z</time>
      </trkpt>
      <trkpt lat="42.76778" lon="0.14682">
        <ele>2522.2</ele>
        <time>2021-01-29T14:22:13Z</time>
      </trkpt>
      <trkpt lat="42.76779" lon="0.14681">
        <ele>2522.2</ele>
        <time>2021-01-29T14:22:14Z</time>
      </trkpt>
      <trkpt lat="42.76779" lon="0.1468">
        <ele>2522.2</ele>
        <time>2021-01-29T14:22:15Z</time>
      </trkpt>
      <trkpt lat="42.7678" lon="0.14679">
        <ele>2522.4</ele>
        <time>2021-01-29T14:22:16Z</time>
      </trkpt>
      <trkpt lat="42.7678" lon="0.14678">
        <ele>2522.4</ele>
        <time>2021-01-29T14:22:17Z</time>
      </trkpt>
      <trkpt lat="42.7678" lon="0.14677">
        <ele>2522.6</ele>
        <time>2021-01-29T14:22:18Z</time>
      </trkpt>
      <trkpt lat="42.76781" lon="0.14677">
        <ele>2522.8</ele>
        <time>2021-01-29T14:22:19Z</time>
      </trkpt>
      <trkpt lat="42.76781" lon="0.14676">
        <ele>2522.6</ele>
        <time>2021-01-29T14:22:20Z</time>
      </trkpt>
      <trkpt lat="42.76781" lon="0.14675">
        <ele>2522.8</ele>
        <time>2021-01-29T14:22:21Z</time>
      </trkpt>
      <trkpt lat="42.76782" lon="0.14674">
        <ele>2523</ele>
        <time>2021-01-29T14:22:22Z</time>
      </trkpt>
      <trkpt lat="42.76783" lon="0.14673">
        <ele>2523.2</ele>
        <time>2021-01-29T14:22:23Z</time>
      </trkpt>
      <trkpt lat="42.76783" lon="0.14672">
        <ele>2523.4</ele>
        <time>2021-01-29T14:22:24Z</time>
      </trkpt>
      <trkpt lat="42.76784" lon="0.14671">
        <ele>2523.4</ele>
        <time>2021-01-29T14:22:25Z</time>
      </trkpt>
      <trkpt lat="42.76784" lon="0.1467">
        <ele>2523.6</ele>
        <time>2021-01-29T14:22:26Z</time>
      </trkpt>
      <trkpt lat="42.76785" lon="0.14669">
        <ele>2523.6</ele>
        <time>2021-01-29T14:22:27Z</time>
      </trkpt>
      <trkpt lat="42.76785" lon="0.14668">
        <ele>2523.8</ele>
        <time>2021-01-29T14:22:28Z</time>
      </trkpt>
      <trkpt lat="42.76786" lon="0.14668">
        <ele>2523.8</ele>
        <time>2021-01-29T14:22:29Z</time>
      </trkpt>
      <trkpt lat="42.76786" lon="0.14667">
        <ele>2523.8</ele>
        <time>2021-01-29T14:22:30Z</time>
      </trkpt>
      <trkpt lat="42.76787" lon="0.14666">
        <ele>2523.8</ele>
        <time>2021-01-29T14:22:31Z</time>
      </trkpt>
      <trkpt lat="42.76787" lon="0.14665">
        <ele>2523.8</ele>
        <time>2021-01-29T14:22:32Z</time>
      </trkpt>
      <trkpt lat="42.76788" lon="0.14664">
        <ele>2523.8</ele>
        <time>2021-01-29T14:22:33Z</time>
      </trkpt>
      <trkpt lat="42.76788" lon="0.14663">
        <ele>2523.8</ele>
        <time>2021-01-29T14:22:34Z</time>
      </trkpt>
      <trkpt lat="42.76789" lon="0.14663">
        <ele>2524</ele>
        <time>2021-01-29T14:22:35Z</time>
      </trkpt>
      <trkpt lat="42.76789" lon="0.14662">
        <ele>2524</ele>
        <time>2021-01-29T14:22:36Z</time>
      </trkpt>
      <trkpt lat="42.7679" lon="0.14661">
        <ele>2524.2</ele>
        <time>2021-01-29T14:22:37Z</time>
      </trkpt>
      <trkpt lat="42.7679" lon="0.1466">
        <ele>2524.2</ele>
        <time>2021-01-29T14:22:38Z</time>
      </trkpt>
      <trkpt lat="42.76791" lon="0.14659">
        <ele>2524.4</ele>
        <time>2021-01-29T14:22:39Z</time>
      </trkpt>
      <trkpt lat="42.76791" lon="0.14659">
        <ele>2524.4</ele>
        <time>2021-01-29T14:22:40Z</time>
      </trkpt>
      <trkpt lat="42.76791" lon="0.14658">
        <ele>2524.6</ele>
        <time>2021-01-29T14:22:41Z</time>
      </trkpt>
      <trkpt lat="42.76792" lon="0.14657">
        <ele>2524.6</ele>
        <time>2021-01-29T14:22:42Z</time>
      </trkpt>
      <trkpt lat="42.76792" lon="0.14656">
        <ele>2524.8</ele>
        <time>2021-01-29T14:22:43Z</time>
      </trkpt>
      <trkpt lat="42.76793" lon="0.14655">
        <ele>2524.8</ele>
        <time>2021-01-29T14:22:44Z</time>
      </trkpt>
      <trkpt lat="42.76794" lon="0.14654">
        <ele>2524.8</ele>
        <time>2021-01-29T14:22:45Z</time>
      </trkpt>
      <trkpt lat="42.76794" lon="0.14653">
        <ele>2524.8</ele>
        <time>2021-01-29T14:22:46Z</time>
      </trkpt>
      <trkpt lat="42.76795" lon="0.14652">
        <ele>2525</ele>
        <time>2021-01-29T14:22:47Z</time>
      </trkpt>
      <trkpt lat="42.76796" lon="0.14651">
        <ele>2524.8</ele>
        <time>2021-01-29T14:22:48Z</time>
      </trkpt>
      <trkpt lat="42.76796" lon="0.1465">
        <ele>2525</ele>
        <time>2021-01-29T14:22:49Z</time>
      </trkpt>
      <trkpt lat="42.76797" lon="0.14649">
        <ele>2525</ele>
        <time>2021-01-29T14:22:50Z</time>
      </trkpt>
      <trkpt lat="42.76797" lon="0.14648">
        <ele>2525.2</ele>
        <time>2021-01-29T14:22:51Z</time>
      </trkpt>
      <trkpt lat="42.76798" lon="0.14648">
        <ele>2525.2</ele>
        <time>2021-01-29T14:22:52Z</time>
      </trkpt>
      <trkpt lat="42.76798" lon="0.14647">
        <ele>2525.2</ele>
        <time>2021-01-29T14:22:53Z</time>
      </trkpt>
      <trkpt lat="42.76799" lon="0.14645">
        <ele>2525.2</ele>
        <time>2021-01-29T14:22:54Z</time>
      </trkpt>
      <trkpt lat="42.76799" lon="0.14645">
        <ele>2525.2</ele>
        <time>2021-01-29T14:22:55Z</time>
      </trkpt>
      <trkpt lat="42.768" lon="0.14644">
        <ele>2525.2</ele>
        <time>2021-01-29T14:22:56Z</time>
      </trkpt>
      <trkpt lat="42.768" lon="0.14643">
        <ele>2525.4</ele>
        <time>2021-01-29T14:22:57Z</time>
      </trkpt>
      <trkpt lat="42.76801" lon="0.14642">
        <ele>2525.6</ele>
        <time>2021-01-29T14:22:58Z</time>
      </trkpt>
      <trkpt lat="42.76801" lon="0.14641">
        <ele>2525.8</ele>
        <time>2021-01-29T14:22:59Z</time>
      </trkpt>
      <trkpt lat="42.76802" lon="0.1464">
        <ele>2526</ele>
        <time>2021-01-29T14:23:00Z</time>
      </trkpt>
      <trkpt lat="42.76802" lon="0.14639">
        <ele>2526.2</ele>
        <time>2021-01-29T14:23:01Z</time>
      </trkpt>
      <trkpt lat="42.76802" lon="0.14638">
        <ele>2526.2</ele>
        <time>2021-01-29T14:23:02Z</time>
      </trkpt>
      <trkpt lat="42.76803" lon="0.14637">
        <ele>2526.4</ele>
        <time>2021-01-29T14:23:03Z</time>
      </trkpt>
      <trkpt lat="42.76803" lon="0.14636">
        <ele>2526.4</ele>
        <time>2021-01-29T14:23:04Z</time>
      </trkpt>
      <trkpt lat="42.76803" lon="0.14636">
        <ele>2526.4</ele>
        <time>2021-01-29T14:23:05Z</time>
      </trkpt>
      <trkpt lat="42.76804" lon="0.14635">
        <ele>2526.4</ele>
        <time>2021-01-29T14:23:06Z</time>
      </trkpt>
      <trkpt lat="42.76804" lon="0.14634">
        <ele>2526.6</ele>
        <time>2021-01-29T14:23:07Z</time>
      </trkpt>
      <trkpt lat="42.76804" lon="0.14633">
        <ele>2526.6</ele>
        <time>2021-01-29T14:23:08Z</time>
      </trkpt>
      <trkpt lat="42.76805" lon="0.14632">
        <ele>2526.6</ele>
        <time>2021-01-29T14:23:09Z</time>
      </trkpt>
      <trkpt lat="42.76805" lon="0.14631">
        <ele>2526.6</ele>
        <time>2021-01-29T14:23:10Z</time>
      </trkpt>
      <trkpt lat="42.76806" lon="0.1463">
        <ele>2526.4</ele>
        <time>2021-01-29T14:23:11Z</time>
      </trkpt>
      <trkpt lat="42.76806" lon="0.14629">
        <ele>2526.6</ele>
        <time>2021-01-29T14:23:12Z</time>
      </trkpt>
      <trkpt lat="42.76806" lon="0.14627">
        <ele>2526.6</ele>
        <time>2021-01-29T14:23:13Z</time>
      </trkpt>
      <trkpt lat="42.76806" lon="0.14626">
        <ele>2526.4</ele>
        <time>2021-01-29T14:23:14Z</time>
      </trkpt>
      <trkpt lat="42.76806" lon="0.14625">
        <ele>2526.6</ele>
        <time>2021-01-29T14:23:15Z</time>
      </trkpt>
      <trkpt lat="42.76807" lon="0.14624">
        <ele>2526.8</ele>
        <time>2021-01-29T14:23:16Z</time>
      </trkpt>
      <trkpt lat="42.76807" lon="0.14623">
        <ele>2526.8</ele>
        <time>2021-01-29T14:23:17Z</time>
      </trkpt>
      <trkpt lat="42.76807" lon="0.14622">
        <ele>2526.8</ele>
        <time>2021-01-29T14:23:18Z</time>
      </trkpt>
      <trkpt lat="42.76807" lon="0.14621">
        <ele>2527</ele>
        <time>2021-01-29T14:23:19Z</time>
      </trkpt>
      <trkpt lat="42.76807" lon="0.1462">
        <ele>2527</ele>
        <time>2021-01-29T14:23:20Z</time>
      </trkpt>
      <trkpt lat="42.76807" lon="0.14619">
        <ele>2527.2</ele>
        <time>2021-01-29T14:23:21Z</time>
      </trkpt>
      <trkpt lat="42.76807" lon="0.14618">
        <ele>2527.4</ele>
        <time>2021-01-29T14:23:22Z</time>
      </trkpt>
      <trkpt lat="42.76807" lon="0.14617">
        <ele>2527.4</ele>
        <time>2021-01-29T14:23:23Z</time>
      </trkpt>
      <trkpt lat="42.76807" lon="0.14616">
        <ele>2527.6</ele>
        <time>2021-01-29T14:23:24Z</time>
      </trkpt>
      <trkpt lat="42.76807" lon="0.14615">
        <ele>2527.8</ele>
        <time>2021-01-29T14:23:25Z</time>
      </trkpt>
      <trkpt lat="42.76808" lon="0.14614">
        <ele>2527.8</ele>
        <time>2021-01-29T14:23:26Z</time>
      </trkpt>
      <trkpt lat="42.76808" lon="0.14613">
        <ele>2528</ele>
        <time>2021-01-29T14:23:27Z</time>
      </trkpt>
      <trkpt lat="42.76808" lon="0.14612">
        <ele>2528.2</ele>
        <time>2021-01-29T14:23:28Z</time>
      </trkpt>
      <trkpt lat="42.76808" lon="0.14611">
        <ele>2528.2</ele>
        <time>2021-01-29T14:23:29Z</time>
      </trkpt>
      <trkpt lat="42.76808" lon="0.1461">
        <ele>2528.4</ele>
        <time>2021-01-29T14:23:30Z</time>
      </trkpt>
      <trkpt lat="42.76809" lon="0.14609">
        <ele>2528.4</ele>
        <time>2021-01-29T14:23:31Z</time>
      </trkpt>
      <trkpt lat="42.76809" lon="0.14607">
        <ele>2528.4</ele>
        <time>2021-01-29T14:23:32Z</time>
      </trkpt>
      <trkpt lat="42.76809" lon="0.14606">
        <ele>2528.6</ele>
        <time>2021-01-29T14:23:33Z</time>
      </trkpt>
      <trkpt lat="42.76809" lon="0.14605">
        <ele>2528.6</ele>
        <time>2021-01-29T14:23:34Z</time>
      </trkpt>
      <trkpt lat="42.76809" lon="0.14604">
        <ele>2528.6</ele>
        <time>2021-01-29T14:23:35Z</time>
      </trkpt>
      <trkpt lat="42.76809" lon="0.14603">
        <ele>2528.6</ele>
        <time>2021-01-29T14:23:36Z</time>
      </trkpt>
      <trkpt lat="42.76809" lon="0.14602">
        <ele>2528.6</ele>
        <time>2021-01-29T14:23:37Z</time>
      </trkpt>
      <trkpt lat="42.76809" lon="0.146">
        <ele>2528.6</ele>
        <time>2021-01-29T14:23:38Z</time>
      </trkpt>
      <trkpt lat="42.76809" lon="0.14599">
        <ele>2528.6</ele>
        <time>2021-01-29T14:23:39Z</time>
      </trkpt>
      <trkpt lat="42.7681" lon="0.14598">
        <ele>2528.6</ele>
        <time>2021-01-29T14:23:40Z</time>
      </trkpt>
      <trkpt lat="42.7681" lon="0.14597">
        <ele>2528.6</ele>
        <time>2021-01-29T14:23:41Z</time>
      </trkpt>
      <trkpt lat="42.7681" lon="0.14596">
        <ele>2528.6</ele>
        <time>2021-01-29T14:23:42Z</time>
      </trkpt>
      <trkpt lat="42.7681" lon="0.14595">
        <ele>2528.6</ele>
        <time>2021-01-29T14:23:43Z</time>
      </trkpt>
      <trkpt lat="42.7681" lon="0.14593">
        <ele>2528.8</ele>
        <time>2021-01-29T14:23:44Z</time>
      </trkpt>
      <trkpt lat="42.76811" lon="0.14592">
        <ele>2528.8</ele>
        <time>2021-01-29T14:23:45Z</time>
      </trkpt>
      <trkpt lat="42.76811" lon="0.14591">
        <ele>2528.8</ele>
        <time>2021-01-29T14:23:46Z</time>
      </trkpt>
      <trkpt lat="42.76811" lon="0.1459">
        <ele>2528.8</ele>
        <time>2021-01-29T14:23:47Z</time>
      </trkpt>
      <trkpt lat="42.76811" lon="0.14589">
        <ele>2528.8</ele>
        <time>2021-01-29T14:23:48Z</time>
      </trkpt>
      <trkpt lat="42.76811" lon="0.14588">
        <ele>2529</ele>
        <time>2021-01-29T14:23:49Z</time>
      </trkpt>
      <trkpt lat="42.76811" lon="0.14587">
        <ele>2529</ele>
        <time>2021-01-29T14:23:50Z</time>
      </trkpt>
      <trkpt lat="42.76811" lon="0.14586">
        <ele>2529</ele>
        <time>2021-01-29T14:23:51Z</time>
      </trkpt>
      <trkpt lat="42.7681" lon="0.14585">
        <ele>2529.2</ele>
        <time>2021-01-29T14:23:52Z</time>
      </trkpt>
      <trkpt lat="42.7681" lon="0.14584">
        <ele>2529.2</ele>
        <time>2021-01-29T14:23:53Z</time>
      </trkpt>
      <trkpt lat="42.7681" lon="0.14583">
        <ele>2529.2</ele>
        <time>2021-01-29T14:23:54Z</time>
      </trkpt>
      <trkpt lat="42.7681" lon="0.14583">
        <ele>2529.2</ele>
        <time>2021-01-29T14:23:55Z</time>
      </trkpt>
      <trkpt lat="42.7681" lon="0.14582">
        <ele>2529.2</ele>
        <time>2021-01-29T14:23:56Z</time>
      </trkpt>
      <trkpt lat="42.76809" lon="0.14581">
        <ele>2529.4</ele>
        <time>2021-01-29T14:23:57Z</time>
      </trkpt>
      <trkpt lat="42.76809" lon="0.1458">
        <ele>2529.4</ele>
        <time>2021-01-29T14:23:58Z</time>
      </trkpt>
      <trkpt lat="42.76809" lon="0.14579">
        <ele>2529.6</ele>
        <time>2021-01-29T14:23:59Z</time>
      </trkpt>
      <trkpt lat="42.76809" lon="0.14579">
        <ele>2529.8</ele>
        <time>2021-01-29T14:24:00Z</time>
      </trkpt>
      <trkpt lat="42.76809" lon="0.14579">
        <ele>2529.8</ele>
        <time>2021-01-29T14:24:01Z</time>
      </trkpt>
      <trkpt lat="42.76809" lon="0.14579">
        <ele>2529.8</ele>
        <time>2021-01-29T14:24:02Z</time>
      </trkpt>
      <trkpt lat="42.76809" lon="0.14579">
        <ele>2530</ele>
        <time>2021-01-29T14:24:03Z</time>
      </trkpt>
      <trkpt lat="42.76809" lon="0.14579">
        <ele>2530</ele>
        <time>2021-01-29T14:24:04Z</time>
      </trkpt>
      <trkpt lat="42.76809" lon="0.14579">
        <ele>2530</ele>
        <time>2021-01-29T14:24:05Z</time>
      </trkpt>
      <trkpt lat="42.76809" lon="0.14579">
        <ele>2530</ele>
        <time>2021-01-29T14:24:06Z</time>
      </trkpt>
      <trkpt lat="42.76809" lon="0.14579">
        <ele>2530</ele>
        <time>2021-01-29T14:24:07Z</time>
      </trkpt>
      <trkpt lat="42.76809" lon="0.14579">
        <ele>2530</ele>
        <time>2021-01-29T14:24:08Z</time>
      </trkpt>
      <trkpt lat="42.76809" lon="0.14579">
        <ele>2530</ele>
        <time>2021-01-29T14:24:09Z</time>
      </trkpt>
      <trkpt lat="42.76809" lon="0.14579">
        <ele>2530</ele>
        <time>2021-01-29T14:24:10Z</time>
      </trkpt>
      <trkpt lat="42.76809" lon="0.14579">
        <ele>2530</ele>
        <time>2021-01-29T14:24:11Z</time>
      </trkpt>
      <trkpt lat="42.76809" lon="0.14578">
        <ele>2530</ele>
        <time>2021-01-29T14:24:12Z</time>
      </trkpt>
      <trkpt lat="42.76808" lon="0.14577">
        <ele>2530</ele>
        <time>2021-01-29T14:24:13Z</time>
      </trkpt>
      <trkpt lat="42.76808" lon="0.14577">
        <ele>2530</ele>
        <time>2021-01-29T14:24:14Z</time>
      </trkpt>
      <trkpt lat="42.76809" lon="0.14577">
        <ele>2530</ele>
        <time>2021-01-29T14:24:15Z</time>
      </trkpt>
      <trkpt lat="42.76809" lon="0.14577">
        <ele>2530</ele>
        <time>2021-01-29T14:24:16Z</time>
      </trkpt>
      <trkpt lat="42.76809" lon="0.14577">
        <ele>2530</ele>
        <time>2021-01-29T14:24:17Z</time>
      </trkpt>
      <trkpt lat="42.76809" lon="0.14577">
        <ele>2530</ele>
        <time>2021-01-29T14:24:18Z</time>
      </trkpt>
      <trkpt lat="42.7681" lon="0.14578">
        <ele>2530.2</ele>
        <time>2021-01-29T14:24:19Z</time>
      </trkpt>
      <trkpt lat="42.76811" lon="0.14578">
        <ele>2530.2</ele>
        <time>2021-01-29T14:24:20Z</time>
      </trkpt>
      <trkpt lat="42.76812" lon="0.14579">
        <ele>2530</ele>
        <time>2021-01-29T14:24:21Z</time>
      </trkpt>
      <trkpt lat="42.76813" lon="0.14579">
        <ele>2530</ele>
        <time>2021-01-29T14:24:22Z</time>
      </trkpt>
      <trkpt lat="42.76814" lon="0.1458">
        <ele>2530</ele>
        <time>2021-01-29T14:24:23Z</time>
      </trkpt>
      <trkpt lat="42.76814" lon="0.1458">
        <ele>2530</ele>
        <time>2021-01-29T14:24:24Z</time>
      </trkpt>
      <trkpt lat="42.76815" lon="0.14581">
        <ele>2530</ele>
        <time>2021-01-29T14:24:25Z</time>
      </trkpt>
      <trkpt lat="42.76816" lon="0.14582">
        <ele>2530</ele>
        <time>2021-01-29T14:24:26Z</time>
      </trkpt>
      <trkpt lat="42.76817" lon="0.14582">
        <ele>2530</ele>
        <time>2021-01-29T14:24:27Z</time>
      </trkpt>
      <trkpt lat="42.76818" lon="0.14583">
        <ele>2530</ele>
        <time>2021-01-29T14:24:28Z</time>
      </trkpt>
      <trkpt lat="42.76818" lon="0.14583">
        <ele>2530</ele>
        <time>2021-01-29T14:24:29Z</time>
      </trkpt>
      <trkpt lat="42.76818" lon="0.14584">
        <ele>2530</ele>
        <time>2021-01-29T14:24:30Z</time>
      </trkpt>
      <trkpt lat="42.76818" lon="0.14584">
        <ele>2530</ele>
        <time>2021-01-29T14:24:31Z</time>
      </trkpt>
      <trkpt lat="42.76818" lon="0.14583">
        <ele>2530</ele>
        <time>2021-01-29T14:24:32Z</time>
      </trkpt>
      <trkpt lat="42.76818" lon="0.14583">
        <ele>2530</ele>
        <time>2021-01-29T14:24:33Z</time>
      </trkpt>
      <trkpt lat="42.76818" lon="0.14583">
        <ele>2530.2</ele>
        <time>2021-01-29T14:24:34Z</time>
      </trkpt>
      <trkpt lat="42.76818" lon="0.14583">
        <ele>2530.2</ele>
        <time>2021-01-29T14:24:35Z</time>
      </trkpt>
      <trkpt lat="42.76818" lon="0.14583">
        <ele>2530.2</ele>
        <time>2021-01-29T14:24:36Z</time>
      </trkpt>
      <trkpt lat="42.76818" lon="0.14583">
        <ele>2530.2</ele>
        <time>2021-01-29T14:24:37Z</time>
      </trkpt>
      <trkpt lat="42.76818" lon="0.14583">
        <ele>2530</ele>
        <time>2021-01-29T14:24:38Z</time>
      </trkpt>
      <trkpt lat="42.76818" lon="0.14583">
        <ele>2530.2</ele>
        <time>2021-01-29T14:24:39Z</time>
      </trkpt>
      <trkpt lat="42.76818" lon="0.14583">
        <ele>2530.4</ele>
        <time>2021-01-29T14:24:40Z</time>
      </trkpt>
      <trkpt lat="42.76818" lon="0.14583">
        <ele>2530.4</ele>
        <time>2021-01-29T14:24:41Z</time>
      </trkpt>
      <trkpt lat="42.76818" lon="0.14583">
        <ele>2530.6</ele>
        <time>2021-01-29T14:24:42Z</time>
      </trkpt>
      <trkpt lat="42.76818" lon="0.14583">
        <ele>2530.6</ele>
        <time>2021-01-29T14:24:43Z</time>
      </trkpt>
      <trkpt lat="42.76818" lon="0.14583">
        <ele>2530.4</ele>
        <time>2021-01-29T14:24:44Z</time>
      </trkpt>
      <trkpt lat="42.76818" lon="0.14583">
        <ele>2530.4</ele>
        <time>2021-01-29T14:24:45Z</time>
      </trkpt>
      <trkpt lat="42.76818" lon="0.14583">
        <ele>2530.4</ele>
        <time>2021-01-29T14:24:46Z</time>
      </trkpt>
      <trkpt lat="42.76818" lon="0.14583">
        <ele>2530.4</ele>
        <time>2021-01-29T14:24:47Z</time>
      </trkpt>
      <trkpt lat="42.76818" lon="0.14583">
        <ele>2530.4</ele>
        <time>2021-01-29T14:24:48Z</time>
      </trkpt>
      <trkpt lat="42.76818" lon="0.14583">
        <ele>2530.4</ele>
        <time>2021-01-29T14:24:49Z</time>
      </trkpt>
      <trkpt lat="42.76818" lon="0.14583">
        <ele>2530.4</ele>
        <time>2021-01-29T14:24:50Z</time>
      </trkpt>
      <trkpt lat="42.76818" lon="0.14583">
        <ele>2530.6</ele>
        <time>2021-01-29T14:24:51Z</time>
      </trkpt>
      <trkpt lat="42.76818" lon="0.14583">
        <ele>2530.8</ele>
        <time>2021-01-29T14:24:52Z</time>
      </trkpt>
      <trkpt lat="42.76818" lon="0.14583">
        <ele>2530.8</ele>
        <time>2021-01-29T14:24:53Z</time>
      </trkpt>
      <trkpt lat="42.76818" lon="0.14583">
        <ele>2530.8</ele>
        <time>2021-01-29T14:24:54Z</time>
      </trkpt>
      <trkpt lat="42.76818" lon="0.14583">
        <ele>2531</ele>
        <time>2021-01-29T14:24:55Z</time>
      </trkpt>
      <trkpt lat="42.76818" lon="0.14583">
        <ele>2530.8</ele>
        <time>2021-01-29T14:24:56Z</time>
      </trkpt>
      <trkpt lat="42.76818" lon="0.14583">
        <ele>2530.8</ele>
        <time>2021-01-29T14:24:57Z</time>
      </trkpt>
      <trkpt lat="42.76818" lon="0.14583">
        <ele>2530.8</ele>
        <time>2021-01-29T14:24:58Z</time>
      </trkpt>
      <trkpt lat="42.76819" lon="0.14582">
        <ele>2530.8</ele>
        <time>2021-01-29T14:24:59Z</time>
      </trkpt>
      <trkpt lat="42.7682" lon="0.14582">
        <ele>2530.6</ele>
        <time>2021-01-29T14:25:00Z</time>
      </trkpt>
      <trkpt lat="42.7682" lon="0.14582">
        <ele>2530.6</ele>
        <time>2021-01-29T14:25:01Z</time>
      </trkpt>
      <trkpt lat="42.7682" lon="0.14582">
        <ele>2530.4</ele>
        <time>2021-01-29T14:25:02Z</time>
      </trkpt>
      <trkpt lat="42.76821" lon="0.14582">
        <ele>2530.4</ele>
        <time>2021-01-29T14:25:03Z</time>
      </trkpt>
      <trkpt lat="42.76821" lon="0.14582">
        <ele>2530.4</ele>
        <time>2021-01-29T14:25:04Z</time>
      </trkpt>
      <trkpt lat="42.76821" lon="0.14582">
        <ele>2530.4</ele>
        <time>2021-01-29T14:25:05Z</time>
      </trkpt>
      <trkpt lat="42.76821" lon="0.14582">
        <ele>2530.2</ele>
        <time>2021-01-29T14:25:06Z</time>
      </trkpt>
      <trkpt lat="42.76822" lon="0.14583">
        <ele>2530</ele>
        <time>2021-01-29T14:25:07Z</time>
      </trkpt>
      <trkpt lat="42.76823" lon="0.14584">
        <ele>2529.8</ele>
        <time>2021-01-29T14:25:08Z</time>
      </trkpt>
      <trkpt lat="42.76824" lon="0.14584">
        <ele>2529.8</ele>
        <time>2021-01-29T14:25:09Z</time>
      </trkpt>
      <trkpt lat="42.76824" lon="0.14584">
        <ele>2529.8</ele>
        <time>2021-01-29T14:25:10Z</time>
      </trkpt>
      <trkpt lat="42.76825" lon="0.14584">
        <ele>2529.6</ele>
        <time>2021-01-29T14:25:11Z</time>
      </trkpt>
      <trkpt lat="42.76825" lon="0.14583">
        <ele>2529.6</ele>
        <time>2021-01-29T14:25:12Z</time>
      </trkpt>
      <trkpt lat="42.76825" lon="0.14583">
        <ele>2529.6</ele>
        <time>2021-01-29T14:25:13Z</time>
      </trkpt>
      <trkpt lat="42.76825" lon="0.14582">
        <ele>2529.6</ele>
        <time>2021-01-29T14:25:14Z</time>
      </trkpt>
      <trkpt lat="42.76826" lon="0.14582">
        <ele>2529.4</ele>
        <time>2021-01-29T14:25:15Z</time>
      </trkpt>
      <trkpt lat="42.76826" lon="0.14582">
        <ele>2529.2</ele>
        <time>2021-01-29T14:25:16Z</time>
      </trkpt>
      <trkpt lat="42.76826" lon="0.14582">
        <ele>2529</ele>
        <time>2021-01-29T14:25:17Z</time>
      </trkpt>
      <trkpt lat="42.76826" lon="0.14582">
        <ele>2528.8</ele>
        <time>2021-01-29T14:25:18Z</time>
      </trkpt>
      <trkpt lat="42.76826" lon="0.14582">
        <ele>2528.8</ele>
        <time>2021-01-29T14:25:19Z</time>
      </trkpt>
      <trkpt lat="42.76826" lon="0.14582">
        <ele>2528.8</ele>
        <time>2021-01-29T14:25:20Z</time>
      </trkpt>
      <trkpt lat="42.76827" lon="0.14581">
        <ele>2528.8</ele>
        <time>2021-01-29T14:25:21Z</time>
      </trkpt>
      <trkpt lat="42.76829" lon="0.14579">
        <ele>2528.6</ele>
        <time>2021-01-29T14:25:22Z</time>
      </trkpt>
      <trkpt lat="42.7683" lon="0.14578">
        <ele>2528.8</ele>
        <time>2021-01-29T14:25:23Z</time>
      </trkpt>
      <trkpt lat="42.76831" lon="0.14577">
        <ele>2528.6</ele>
        <time>2021-01-29T14:25:24Z</time>
      </trkpt>
      <trkpt lat="42.76832" lon="0.14577">
        <ele>2528.6</ele>
        <time>2021-01-29T14:25:25Z</time>
      </trkpt>
      <trkpt lat="42.76833" lon="0.14576">
        <ele>2528.4</ele>
        <time>2021-01-29T14:25:26Z</time>
      </trkpt>
      <trkpt lat="42.76834" lon="0.14575">
        <ele>2528.4</ele>
        <time>2021-01-29T14:25:27Z</time>
      </trkpt>
      <trkpt lat="42.76835" lon="0.14574">
        <ele>2528.2</ele>
        <time>2021-01-29T14:25:28Z</time>
      </trkpt>
      <trkpt lat="42.76836" lon="0.14573">
        <ele>2528.4</ele>
        <time>2021-01-29T14:25:29Z</time>
      </trkpt>
      <trkpt lat="42.76836" lon="0.14573">
        <ele>2528.6</ele>
        <time>2021-01-29T14:25:30Z</time>
      </trkpt>
      <trkpt lat="42.76837" lon="0.14572">
        <ele>2528.6</ele>
        <time>2021-01-29T14:25:31Z</time>
      </trkpt>
      <trkpt lat="42.76838" lon="0.14572">
        <ele>2528.6</ele>
        <time>2021-01-29T14:25:32Z</time>
      </trkpt>
      <trkpt lat="42.76839" lon="0.14571">
        <ele>2528.6</ele>
        <time>2021-01-29T14:25:33Z</time>
      </trkpt>
      <trkpt lat="42.7684" lon="0.1457">
        <ele>2528.8</ele>
        <time>2021-01-29T14:25:34Z</time>
      </trkpt>
      <trkpt lat="42.76841" lon="0.1457">
        <ele>2528.8</ele>
        <time>2021-01-29T14:25:35Z</time>
      </trkpt>
      <trkpt lat="42.76841" lon="0.1457">
        <ele>2528.6</ele>
        <time>2021-01-29T14:25:36Z</time>
      </trkpt>
      <trkpt lat="42.76841" lon="0.1457">
        <ele>2528.6</ele>
        <time>2021-01-29T14:25:37Z</time>
      </trkpt>
      <trkpt lat="42.76841" lon="0.1457">
        <ele>2528.4</ele>
        <time>2021-01-29T14:25:38Z</time>
      </trkpt>
      <trkpt lat="42.76841" lon="0.1457">
        <ele>2528.6</ele>
        <time>2021-01-29T14:25:39Z</time>
      </trkpt>
      <trkpt lat="42.76841" lon="0.1457">
        <ele>2528.4</ele>
        <time>2021-01-29T14:25:40Z</time>
      </trkpt>
      <trkpt lat="42.76841" lon="0.1457">
        <ele>2528.2</ele>
        <time>2021-01-29T14:25:41Z</time>
      </trkpt>
      <trkpt lat="42.76841" lon="0.1457">
        <ele>2528</ele>
        <time>2021-01-29T14:25:42Z</time>
      </trkpt>
      <trkpt lat="42.76841" lon="0.1457">
        <ele>2528</ele>
        <time>2021-01-29T14:25:43Z</time>
      </trkpt>
      <trkpt lat="42.76841" lon="0.1457">
        <ele>2528.2</ele>
        <time>2021-01-29T14:25:44Z</time>
      </trkpt>
      <trkpt lat="42.76841" lon="0.1457">
        <ele>2528.4</ele>
        <time>2021-01-29T14:25:45Z</time>
      </trkpt>
      <trkpt lat="42.76841" lon="0.1457">
        <ele>2528.6</ele>
        <time>2021-01-29T14:25:46Z</time>
      </trkpt>
      <trkpt lat="42.76841" lon="0.1457">
        <ele>2528.8</ele>
        <time>2021-01-29T14:25:47Z</time>
      </trkpt>
      <trkpt lat="42.76841" lon="0.1457">
        <ele>2529</ele>
        <time>2021-01-29T14:25:48Z</time>
      </trkpt>
      <trkpt lat="42.76841" lon="0.1457">
        <ele>2529</ele>
        <time>2021-01-29T14:25:49Z</time>
      </trkpt>
      <trkpt lat="42.76841" lon="0.1457">
        <ele>2529</ele>
        <time>2021-01-29T14:25:50Z</time>
      </trkpt>
      <trkpt lat="42.76841" lon="0.1457">
        <ele>2529</ele>
        <time>2021-01-29T14:25:51Z</time>
      </trkpt>
      <trkpt lat="42.76841" lon="0.1457">
        <ele>2528.8</ele>
        <time>2021-01-29T14:25:52Z</time>
      </trkpt>
      <trkpt lat="42.76841" lon="0.1457">
        <ele>2528.8</ele>
        <time>2021-01-29T14:25:53Z</time>
      </trkpt>
      <trkpt lat="42.76841" lon="0.1457">
        <ele>2528.8</ele>
        <time>2021-01-29T14:25:54Z</time>
      </trkpt>
      <trkpt lat="42.76841" lon="0.1457">
        <ele>2528.8</ele>
        <time>2021-01-29T14:25:55Z</time>
      </trkpt>
      <trkpt lat="42.76841" lon="0.1457">
        <ele>2528.8</ele>
        <time>2021-01-29T14:25:56Z</time>
      </trkpt>
      <trkpt lat="42.76841" lon="0.1457">
        <ele>2528.6</ele>
        <time>2021-01-29T14:25:57Z</time>
      </trkpt>
      <trkpt lat="42.76841" lon="0.1457">
        <ele>2528.6</ele>
        <time>2021-01-29T14:25:58Z</time>
      </trkpt>
      <trkpt lat="42.76841" lon="0.1457">
        <ele>2528.8</ele>
        <time>2021-01-29T14:25:59Z</time>
      </trkpt>
      <trkpt lat="42.76841" lon="0.1457">
        <ele>2528.8</ele>
        <time>2021-01-29T14:26:00Z</time>
      </trkpt>
      <trkpt lat="42.76841" lon="0.1457">
        <ele>2528.8</ele>
        <time>2021-01-29T14:26:01Z</time>
      </trkpt>
      <trkpt lat="42.76841" lon="0.1457">
        <ele>2528.6</ele>
        <time>2021-01-29T14:26:02Z</time>
      </trkpt>
      <trkpt lat="42.76841" lon="0.1457">
        <ele>2528.6</ele>
        <time>2021-01-29T14:26:03Z</time>
      </trkpt>
      <trkpt lat="42.76841" lon="0.1457">
        <ele>2528.6</ele>
        <time>2021-01-29T14:26:04Z</time>
      </trkpt>
      <trkpt lat="42.76841" lon="0.1457">
        <ele>2528.6</ele>
        <time>2021-01-29T14:26:05Z</time>
      </trkpt>
      <trkpt lat="42.76841" lon="0.1457">
        <ele>2528.6</ele>
        <time>2021-01-29T14:26:06Z</time>
      </trkpt>
      <trkpt lat="42.76841" lon="0.1457">
        <ele>2528.6</ele>
        <time>2021-01-29T14:26:07Z</time>
      </trkpt>
      <trkpt lat="42.76841" lon="0.1457">
        <ele>2528.8</ele>
        <time>2021-01-29T14:26:08Z</time>
      </trkpt>
      <trkpt lat="42.76841" lon="0.1457">
        <ele>2529.2</ele>
        <time>2021-01-29T14:26:09Z</time>
      </trkpt>
      <trkpt lat="42.76842" lon="0.14569">
        <ele>2529.4</ele>
        <time>2021-01-29T14:26:10Z</time>
      </trkpt>
      <trkpt lat="42.76842" lon="0.14568">
        <ele>2529.4</ele>
        <time>2021-01-29T14:26:11Z</time>
      </trkpt>
      <trkpt lat="42.76843" lon="0.14568">
        <ele>2529.2</ele>
        <time>2021-01-29T14:26:12Z</time>
      </trkpt>
      <trkpt lat="42.76843" lon="0.14568">
        <ele>2529</ele>
        <time>2021-01-29T14:26:13Z</time>
      </trkpt>
      <trkpt lat="42.76844" lon="0.14568">
        <ele>2529</ele>
        <time>2021-01-29T14:26:14Z</time>
      </trkpt>
      <trkpt lat="42.76845" lon="0.14567">
        <ele>2529</ele>
        <time>2021-01-29T14:26:15Z</time>
      </trkpt>
      <trkpt lat="42.76846" lon="0.14567">
        <ele>2529.2</ele>
        <time>2021-01-29T14:26:16Z</time>
      </trkpt>
      <trkpt lat="42.76846" lon="0.14567">
        <ele>2529.6</ele>
        <time>2021-01-29T14:26:17Z</time>
      </trkpt>
      <trkpt lat="42.76847" lon="0.14567">
        <ele>2529.8</ele>
        <time>2021-01-29T14:26:18Z</time>
      </trkpt>
      <trkpt lat="42.76848" lon="0.14567">
        <ele>2529.8</ele>
        <time>2021-01-29T14:26:19Z</time>
      </trkpt>
      <trkpt lat="42.76848" lon="0.14567">
        <ele>2530</ele>
        <time>2021-01-29T14:26:20Z</time>
      </trkpt>
      <trkpt lat="42.76849" lon="0.14566">
        <ele>2530</ele>
        <time>2021-01-29T14:26:21Z</time>
      </trkpt>
      <trkpt lat="42.76849" lon="0.14566">
        <ele>2529.6</ele>
        <time>2021-01-29T14:26:22Z</time>
      </trkpt>
      <trkpt lat="42.7685" lon="0.14565">
        <ele>2529.6</ele>
        <time>2021-01-29T14:26:23Z</time>
      </trkpt>
      <trkpt lat="42.7685" lon="0.14565">
        <ele>2529.6</ele>
        <time>2021-01-29T14:26:24Z</time>
      </trkpt>
      <trkpt lat="42.7685" lon="0.14565">
        <ele>2529.6</ele>
        <time>2021-01-29T14:26:25Z</time>
      </trkpt>
      <trkpt lat="42.76851" lon="0.14565">
        <ele>2529.4</ele>
        <time>2021-01-29T14:26:26Z</time>
      </trkpt>
      <trkpt lat="42.76851" lon="0.14564">
        <ele>2529.2</ele>
        <time>2021-01-29T14:26:27Z</time>
      </trkpt>
      <trkpt lat="42.76852" lon="0.14564">
        <ele>2528.8</ele>
        <time>2021-01-29T14:26:28Z</time>
      </trkpt>
      <trkpt lat="42.76853" lon="0.14563">
        <ele>2528.6</ele>
        <time>2021-01-29T14:26:29Z</time>
      </trkpt>
      <trkpt lat="42.76853" lon="0.14563">
        <ele>2528.6</ele>
        <time>2021-01-29T14:26:30Z</time>
      </trkpt>
      <trkpt lat="42.76853" lon="0.14563">
        <ele>2528.6</ele>
        <time>2021-01-29T14:26:31Z</time>
      </trkpt>
      <trkpt lat="42.76853" lon="0.14563">
        <ele>2528.4</ele>
        <time>2021-01-29T14:26:32Z</time>
      </trkpt>
      <trkpt lat="42.76853" lon="0.14563">
        <ele>2528.4</ele>
        <time>2021-01-29T14:26:33Z</time>
      </trkpt>
      <trkpt lat="42.76853" lon="0.14563">
        <ele>2528.4</ele>
        <time>2021-01-29T14:26:34Z</time>
      </trkpt>
      <trkpt lat="42.76853" lon="0.14563">
        <ele>2528.2</ele>
        <time>2021-01-29T14:26:35Z</time>
      </trkpt>
      <trkpt lat="42.76853" lon="0.14563">
        <ele>2528.2</ele>
        <time>2021-01-29T14:26:36Z</time>
      </trkpt>
      <trkpt lat="42.76853" lon="0.14563">
        <ele>2528</ele>
        <time>2021-01-29T14:26:37Z</time>
      </trkpt>
      <trkpt lat="42.76853" lon="0.14563">
        <ele>2528</ele>
        <time>2021-01-29T14:26:38Z</time>
      </trkpt>
      <trkpt lat="42.76853" lon="0.14563">
        <ele>2527.8</ele>
        <time>2021-01-29T14:26:39Z</time>
      </trkpt>
      <trkpt lat="42.76853" lon="0.14563">
        <ele>2528</ele>
        <time>2021-01-29T14:26:40Z</time>
      </trkpt>
      <trkpt lat="42.76853" lon="0.14563">
        <ele>2528</ele>
        <time>2021-01-29T14:26:41Z</time>
      </trkpt>
      <trkpt lat="42.76853" lon="0.14563">
        <ele>2528</ele>
        <time>2021-01-29T14:26:42Z</time>
      </trkpt>
      <trkpt lat="42.76853" lon="0.14563">
        <ele>2528</ele>
        <time>2021-01-29T14:26:43Z</time>
      </trkpt>
      <trkpt lat="42.76853" lon="0.14563">
        <ele>2528.2</ele>
        <time>2021-01-29T14:26:44Z</time>
      </trkpt>
      <trkpt lat="42.76852" lon="0.14563">
        <ele>2528</ele>
        <time>2021-01-29T14:26:45Z</time>
      </trkpt>
      <trkpt lat="42.76852" lon="0.14564">
        <ele>2528</ele>
        <time>2021-01-29T14:26:46Z</time>
      </trkpt>
      <trkpt lat="42.76851" lon="0.14564">
        <ele>2527.8</ele>
        <time>2021-01-29T14:26:47Z</time>
      </trkpt>
      <trkpt lat="42.76851" lon="0.14564">
        <ele>2528</ele>
        <time>2021-01-29T14:26:48Z</time>
      </trkpt>
      <trkpt lat="42.76851" lon="0.14564">
        <ele>2528</ele>
        <time>2021-01-29T14:26:49Z</time>
      </trkpt>
      <trkpt lat="42.76851" lon="0.14564">
        <ele>2528</ele>
        <time>2021-01-29T14:26:50Z</time>
      </trkpt>
      <trkpt lat="42.76851" lon="0.14564">
        <ele>2528.2</ele>
        <time>2021-01-29T14:26:51Z</time>
      </trkpt>
      <trkpt lat="42.76851" lon="0.14564">
        <ele>2528.4</ele>
        <time>2021-01-29T14:26:52Z</time>
      </trkpt>
      <trkpt lat="42.76851" lon="0.14564">
        <ele>2528.6</ele>
        <time>2021-01-29T14:26:53Z</time>
      </trkpt>
      <trkpt lat="42.76851" lon="0.14564">
        <ele>2528.6</ele>
        <time>2021-01-29T14:26:54Z</time>
      </trkpt>
      <trkpt lat="42.76851" lon="0.14564">
        <ele>2528.6</ele>
        <time>2021-01-29T14:26:55Z</time>
      </trkpt>
      <trkpt lat="42.76851" lon="0.14564">
        <ele>2528.6</ele>
        <time>2021-01-29T14:26:56Z</time>
      </trkpt>
      <trkpt lat="42.76851" lon="0.14564">
        <ele>2528.6</ele>
        <time>2021-01-29T14:26:57Z</time>
      </trkpt>
      <trkpt lat="42.76851" lon="0.14564">
        <ele>2528.4</ele>
        <time>2021-01-29T14:26:58Z</time>
      </trkpt>
      <trkpt lat="42.76851" lon="0.14564">
        <ele>2528.2</ele>
        <time>2021-01-29T14:26:59Z</time>
      </trkpt>
      <trkpt lat="42.76851" lon="0.14564">
        <ele>2528.4</ele>
        <time>2021-01-29T14:27:00Z</time>
      </trkpt>
      <trkpt lat="42.76851" lon="0.14564">
        <ele>2528.2</ele>
        <time>2021-01-29T14:27:01Z</time>
      </trkpt>
      <trkpt lat="42.76851" lon="0.14564">
        <ele>2528.4</ele>
        <time>2021-01-29T14:27:02Z</time>
      </trkpt>
      <trkpt lat="42.76851" lon="0.14564">
        <ele>2528.2</ele>
        <time>2021-01-29T14:27:03Z</time>
      </trkpt>
      <trkpt lat="42.7685" lon="0.14565">
        <ele>2528.2</ele>
        <time>2021-01-29T14:27:04Z</time>
      </trkpt>
      <trkpt lat="42.76849" lon="0.14567">
        <ele>2528.4</ele>
        <time>2021-01-29T14:27:05Z</time>
      </trkpt>
      <trkpt lat="42.76849" lon="0.14568">
        <ele>2528.4</ele>
        <time>2021-01-29T14:27:06Z</time>
      </trkpt>
      <trkpt lat="42.76849" lon="0.14569">
        <ele>2528.4</ele>
        <time>2021-01-29T14:27:07Z</time>
      </trkpt>
      <trkpt lat="42.76849" lon="0.1457">
        <ele>2528.2</ele>
        <time>2021-01-29T14:27:08Z</time>
      </trkpt>
      <trkpt lat="42.76848" lon="0.14571">
        <ele>2528.2</ele>
        <time>2021-01-29T14:27:09Z</time>
      </trkpt>
      <trkpt lat="42.76848" lon="0.14571">
        <ele>2528.6</ele>
        <time>2021-01-29T14:27:10Z</time>
      </trkpt>
      <trkpt lat="42.76848" lon="0.14571">
        <ele>2529</ele>
        <time>2021-01-29T14:27:11Z</time>
      </trkpt>
      <trkpt lat="42.76848" lon="0.14571">
        <ele>2529.4</ele>
        <time>2021-01-29T14:27:12Z</time>
      </trkpt>
      <trkpt lat="42.76847" lon="0.14571">
        <ele>2529.2</ele>
        <time>2021-01-29T14:27:13Z</time>
      </trkpt>
      <trkpt lat="42.76846" lon="0.1457">
        <ele>2529.2</ele>
        <time>2021-01-29T14:27:14Z</time>
      </trkpt>
      <trkpt lat="42.76846" lon="0.1457">
        <ele>2529.2</ele>
        <time>2021-01-29T14:27:15Z</time>
      </trkpt>
      <trkpt lat="42.76845" lon="0.1457">
        <ele>2529.2</ele>
        <time>2021-01-29T14:27:16Z</time>
      </trkpt>
      <trkpt lat="42.76844" lon="0.1457">
        <ele>2529.4</ele>
        <time>2021-01-29T14:27:17Z</time>
      </trkpt>
      <trkpt lat="42.76843" lon="0.1457">
        <ele>2529.4</ele>
        <time>2021-01-29T14:27:18Z</time>
      </trkpt>
      <trkpt lat="42.76842" lon="0.1457">
        <ele>2529.4</ele>
        <time>2021-01-29T14:27:19Z</time>
      </trkpt>
      <trkpt lat="42.76841" lon="0.1457">
        <ele>2529.4</ele>
        <time>2021-01-29T14:27:20Z</time>
      </trkpt>
      <trkpt lat="42.76841" lon="0.14571">
        <ele>2529.6</ele>
        <time>2021-01-29T14:27:21Z</time>
      </trkpt>
      <trkpt lat="42.7684" lon="0.14571">
        <ele>2529.4</ele>
        <time>2021-01-29T14:27:22Z</time>
      </trkpt>
      <trkpt lat="42.76839" lon="0.14571">
        <ele>2529.2</ele>
        <time>2021-01-29T14:27:23Z</time>
      </trkpt>
      <trkpt lat="42.76838" lon="0.14571">
        <ele>2529.4</ele>
        <time>2021-01-29T14:27:24Z</time>
      </trkpt>
      <trkpt lat="42.76837" lon="0.1457">
        <ele>2529.4</ele>
        <time>2021-01-29T14:27:25Z</time>
      </trkpt>
      <trkpt lat="42.76836" lon="0.1457">
        <ele>2529.4</ele>
        <time>2021-01-29T14:27:26Z</time>
      </trkpt>
      <trkpt lat="42.76835" lon="0.14571">
        <ele>2529.6</ele>
        <time>2021-01-29T14:27:27Z</time>
      </trkpt>
      <trkpt lat="42.76835" lon="0.14571">
        <ele>2529.6</ele>
        <time>2021-01-29T14:27:28Z</time>
      </trkpt>
      <trkpt lat="42.76834" lon="0.14571">
        <ele>2529.4</ele>
        <time>2021-01-29T14:27:29Z</time>
      </trkpt>
      <trkpt lat="42.76834" lon="0.14572">
        <ele>2529.2</ele>
        <time>2021-01-29T14:27:30Z</time>
      </trkpt>
      <trkpt lat="42.76833" lon="0.14572">
        <ele>2529.2</ele>
        <time>2021-01-29T14:27:31Z</time>
      </trkpt>
      <trkpt lat="42.76832" lon="0.14572">
        <ele>2529.2</ele>
        <time>2021-01-29T14:27:32Z</time>
      </trkpt>
      <trkpt lat="42.76831" lon="0.14572">
        <ele>2529.2</ele>
        <time>2021-01-29T14:27:33Z</time>
      </trkpt>
      <trkpt lat="42.7683" lon="0.14573">
        <ele>2529.4</ele>
        <time>2021-01-29T14:27:34Z</time>
      </trkpt>
      <trkpt lat="42.7683" lon="0.14573">
        <ele>2529.2</ele>
        <time>2021-01-29T14:27:35Z</time>
      </trkpt>
      <trkpt lat="42.76829" lon="0.14573">
        <ele>2529</ele>
        <time>2021-01-29T14:27:36Z</time>
      </trkpt>
      <trkpt lat="42.76828" lon="0.14573">
        <ele>2528.8</ele>
        <time>2021-01-29T14:27:37Z</time>
      </trkpt>
      <trkpt lat="42.76828" lon="0.14574">
        <ele>2528.6</ele>
        <time>2021-01-29T14:27:38Z</time>
      </trkpt>
      <trkpt lat="42.76828" lon="0.14575">
        <ele>2528.6</ele>
        <time>2021-01-29T14:27:39Z</time>
      </trkpt>
      <trkpt lat="42.76827" lon="0.14576">
        <ele>2528.8</ele>
        <time>2021-01-29T14:27:40Z</time>
      </trkpt>
      <trkpt lat="42.76827" lon="0.14576">
        <ele>2528.8</ele>
        <time>2021-01-29T14:27:41Z</time>
      </trkpt>
      <trkpt lat="42.76826" lon="0.14577">
        <ele>2528.4</ele>
        <time>2021-01-29T14:27:42Z</time>
      </trkpt>
      <trkpt lat="42.76825" lon="0.14578">
        <ele>2528.2</ele>
        <time>2021-01-29T14:27:43Z</time>
      </trkpt>
      <trkpt lat="42.76824" lon="0.14579">
        <ele>2528</ele>
        <time>2021-01-29T14:27:44Z</time>
      </trkpt>
      <trkpt lat="42.76824" lon="0.1458">
        <ele>2528.2</ele>
        <time>2021-01-29T14:27:45Z</time>
      </trkpt>
      <trkpt lat="42.76824" lon="0.14581">
        <ele>2528.2</ele>
        <time>2021-01-29T14:27:46Z</time>
      </trkpt>
      <trkpt lat="42.76824" lon="0.14582">
        <ele>2528.2</ele>
        <time>2021-01-29T14:27:47Z</time>
      </trkpt>
      <trkpt lat="42.76824" lon="0.14583">
        <ele>2528.6</ele>
        <time>2021-01-29T14:27:48Z</time>
      </trkpt>
      <trkpt lat="42.76823" lon="0.14583">
        <ele>2528.8</ele>
        <time>2021-01-29T14:27:49Z</time>
      </trkpt>
      <trkpt lat="42.76823" lon="0.14583">
        <ele>2528.8</ele>
        <time>2021-01-29T14:27:50Z</time>
      </trkpt>
      <trkpt lat="42.76822" lon="0.14583">
        <ele>2528.6</ele>
        <time>2021-01-29T14:27:51Z</time>
      </trkpt>
      <trkpt lat="42.76822" lon="0.14583">
        <ele>2528.6</ele>
        <time>2021-01-29T14:27:52Z</time>
      </trkpt>
      <trkpt lat="42.76821" lon="0.14584">
        <ele>2528.6</ele>
        <time>2021-01-29T14:27:53Z</time>
      </trkpt>
      <trkpt lat="42.76821" lon="0.14584">
        <ele>2528.6</ele>
        <time>2021-01-29T14:27:54Z</time>
      </trkpt>
      <trkpt lat="42.7682" lon="0.14584">
        <ele>2528.6</ele>
        <time>2021-01-29T14:27:55Z</time>
      </trkpt>
      <trkpt lat="42.7682" lon="0.14584">
        <ele>2528.6</ele>
        <time>2021-01-29T14:27:56Z</time>
      </trkpt>
      <trkpt lat="42.76819" lon="0.14584">
        <ele>2528.6</ele>
        <time>2021-01-29T14:27:57Z</time>
      </trkpt>
      <trkpt lat="42.76819" lon="0.14584">
        <ele>2528.6</ele>
        <time>2021-01-29T14:27:58Z</time>
      </trkpt>
      <trkpt lat="42.76819" lon="0.14584">
        <ele>2528.6</ele>
        <time>2021-01-29T14:27:59Z</time>
      </trkpt>
      <trkpt lat="42.76818" lon="0.14584">
        <ele>2528.6</ele>
        <time>2021-01-29T14:28:00Z</time>
      </trkpt>
      <trkpt lat="42.76818" lon="0.14584">
        <ele>2528.4</ele>
        <time>2021-01-29T14:28:01Z</time>
      </trkpt>
      <trkpt lat="42.76818" lon="0.14584">
        <ele>2528.4</ele>
        <time>2021-01-29T14:28:02Z</time>
      </trkpt>
      <trkpt lat="42.76818" lon="0.14584">
        <ele>2528.6</ele>
        <time>2021-01-29T14:28:03Z</time>
      </trkpt>
      <trkpt lat="42.76818" lon="0.14584">
        <ele>2528.6</ele>
        <time>2021-01-29T14:28:04Z</time>
      </trkpt>
      <trkpt lat="42.76818" lon="0.14584">
        <ele>2528.6</ele>
        <time>2021-01-29T14:28:05Z</time>
      </trkpt>
      <trkpt lat="42.76818" lon="0.14584">
        <ele>2528.6</ele>
        <time>2021-01-29T14:28:06Z</time>
      </trkpt>
      <trkpt lat="42.76818" lon="0.14584">
        <ele>2528.6</ele>
        <time>2021-01-29T14:28:07Z</time>
      </trkpt>
      <trkpt lat="42.76818" lon="0.14584">
        <ele>2528.4</ele>
        <time>2021-01-29T14:28:08Z</time>
      </trkpt>
      <trkpt lat="42.76818" lon="0.14584">
        <ele>2528.4</ele>
        <time>2021-01-29T14:28:09Z</time>
      </trkpt>
      <trkpt lat="42.76818" lon="0.14584">
        <ele>2528.4</ele>
        <time>2021-01-29T14:28:10Z</time>
      </trkpt>
      <trkpt lat="42.76818" lon="0.14584">
        <ele>2528.4</ele>
        <time>2021-01-29T14:28:11Z</time>
      </trkpt>
      <trkpt lat="42.76818" lon="0.14584">
        <ele>2528.6</ele>
        <time>2021-01-29T14:28:12Z</time>
      </trkpt>
      <trkpt lat="42.76818" lon="0.14584">
        <ele>2528.6</ele>
        <time>2021-01-29T14:28:13Z</time>
      </trkpt>
      <trkpt lat="42.76818" lon="0.14584">
        <ele>2528.6</ele>
        <time>2021-01-29T14:28:14Z</time>
      </trkpt>
      <trkpt lat="42.76818" lon="0.14584">
        <ele>2528.6</ele>
        <time>2021-01-29T14:28:15Z</time>
      </trkpt>
      <trkpt lat="42.76816" lon="0.14584">
        <ele>2528.8</ele>
        <time>2021-01-29T14:28:16Z</time>
      </trkpt>
      <trkpt lat="42.76813" lon="0.14583">
        <ele>2528.8</ele>
        <time>2021-01-29T14:28:17Z</time>
      </trkpt>
      <trkpt lat="42.76813" lon="0.14583">
        <ele>2528.8</ele>
        <time>2021-01-29T14:28:18Z</time>
      </trkpt>
      <trkpt lat="42.76813" lon="0.14582">
        <ele>2529</ele>
        <time>2021-01-29T14:28:19Z</time>
      </trkpt>
      <trkpt lat="42.76813" lon="0.14582">
        <ele>2529.2</ele>
        <time>2021-01-29T14:28:20Z</time>
      </trkpt>
      <trkpt lat="42.76813" lon="0.14582">
        <ele>2529.2</ele>
        <time>2021-01-29T14:28:21Z</time>
      </trkpt>
      <trkpt lat="42.76813" lon="0.14582">
        <ele>2529.2</ele>
        <time>2021-01-29T14:28:22Z</time>
      </trkpt>
      <trkpt lat="42.76813" lon="0.14582">
        <ele>2529.2</ele>
        <time>2021-01-29T14:28:23Z</time>
      </trkpt>
      <trkpt lat="42.76813" lon="0.14582">
        <ele>2529.4</ele>
        <time>2021-01-29T14:28:24Z</time>
      </trkpt>
      <trkpt lat="42.76813" lon="0.14582">
        <ele>2529.6</ele>
        <time>2021-01-29T14:28:25Z</time>
      </trkpt>
      <trkpt lat="42.76813" lon="0.14582">
        <ele>2529.6</ele>
        <time>2021-01-29T14:28:26Z</time>
      </trkpt>
      <trkpt lat="42.76813" lon="0.14582">
        <ele>2529.8</ele>
        <time>2021-01-29T14:28:27Z</time>
      </trkpt>
      <trkpt lat="42.76813" lon="0.14582">
        <ele>2530</ele>
        <time>2021-01-29T14:28:28Z</time>
      </trkpt>
      <trkpt lat="42.76813" lon="0.14582">
        <ele>2530.2</ele>
        <time>2021-01-29T14:28:29Z</time>
      </trkpt>
      <trkpt lat="42.76814" lon="0.14582">
        <ele>2530.4</ele>
        <time>2021-01-29T14:28:30Z</time>
      </trkpt>
      <trkpt lat="42.76816" lon="0.1458">
        <ele>2530.4</ele>
        <time>2021-01-29T14:28:31Z</time>
      </trkpt>
      <trkpt lat="42.76816" lon="0.14579">
        <ele>2530.8</ele>
        <time>2021-01-29T14:28:32Z</time>
      </trkpt>
      <trkpt lat="42.76815" lon="0.14578">
        <ele>2531</ele>
        <time>2021-01-29T14:28:33Z</time>
      </trkpt>
      <trkpt lat="42.76815" lon="0.14577">
        <ele>2531</ele>
        <time>2021-01-29T14:28:34Z</time>
      </trkpt>
      <trkpt lat="42.76815" lon="0.14576">
        <ele>2531</ele>
        <time>2021-01-29T14:28:35Z</time>
      </trkpt>
      <trkpt lat="42.76816" lon="0.14575">
        <ele>2531</ele>
        <time>2021-01-29T14:28:36Z</time>
      </trkpt>
      <trkpt lat="42.76816" lon="0.14574">
        <ele>2530.8</ele>
        <time>2021-01-29T14:28:37Z</time>
      </trkpt>
      <trkpt lat="42.76817" lon="0.14574">
        <ele>2530.6</ele>
        <time>2021-01-29T14:28:38Z</time>
      </trkpt>
      <trkpt lat="42.76817" lon="0.14574">
        <ele>2530.6</ele>
        <time>2021-01-29T14:28:39Z</time>
      </trkpt>
      <trkpt lat="42.76818" lon="0.14574">
        <ele>2530.2</ele>
        <time>2021-01-29T14:28:40Z</time>
      </trkpt>
      <trkpt lat="42.76818" lon="0.14575">
        <ele>2530</ele>
        <time>2021-01-29T14:28:41Z</time>
      </trkpt>
      <trkpt lat="42.76818" lon="0.14575">
        <ele>2529.8</ele>
        <time>2021-01-29T14:28:42Z</time>
      </trkpt>
      <trkpt lat="42.76818" lon="0.14576">
        <ele>2529.6</ele>
        <time>2021-01-29T14:28:43Z</time>
      </trkpt>
      <trkpt lat="42.76817" lon="0.14577">
        <ele>2529.4</ele>
        <time>2021-01-29T14:28:44Z</time>
      </trkpt>
      <trkpt lat="42.76817" lon="0.14577">
        <ele>2529.6</ele>
        <time>2021-01-29T14:28:45Z</time>
      </trkpt>
      <trkpt lat="42.76817" lon="0.14578">
        <ele>2529.8</ele>
        <time>2021-01-29T14:28:46Z</time>
      </trkpt>
      <trkpt lat="42.76816" lon="0.14578">
        <ele>2529.8</ele>
        <time>2021-01-29T14:28:47Z</time>
      </trkpt>
      <trkpt lat="42.76815" lon="0.14579">
        <ele>2530</ele>
        <time>2021-01-29T14:28:48Z</time>
      </trkpt>
      <trkpt lat="42.76815" lon="0.14579">
        <ele>2530</ele>
        <time>2021-01-29T14:28:49Z</time>
      </trkpt>
      <trkpt lat="42.76815" lon="0.14579">
        <ele>2530</ele>
        <time>2021-01-29T14:28:50Z</time>
      </trkpt>
      <trkpt lat="42.76815" lon="0.14579">
        <ele>2530</ele>
        <time>2021-01-29T14:28:51Z</time>
      </trkpt>
      <trkpt lat="42.76814" lon="0.14579">
        <ele>2530</ele>
        <time>2021-01-29T14:28:52Z</time>
      </trkpt>
      <trkpt lat="42.76814" lon="0.14579">
        <ele>2530</ele>
        <time>2021-01-29T14:28:53Z</time>
      </trkpt>
      <trkpt lat="42.76814" lon="0.14579">
        <ele>2530</ele>
        <time>2021-01-29T14:28:54Z</time>
      </trkpt>
      <trkpt lat="42.76814" lon="0.14579">
        <ele>2529.8</ele>
        <time>2021-01-29T14:28:55Z</time>
      </trkpt>
      <trkpt lat="42.76814" lon="0.14579">
        <ele>2529.8</ele>
        <time>2021-01-29T14:28:56Z</time>
      </trkpt>
      <trkpt lat="42.76814" lon="0.14579">
        <ele>2529.8</ele>
        <time>2021-01-29T14:28:57Z</time>
      </trkpt>
      <trkpt lat="42.76814" lon="0.14579">
        <ele>2529.8</ele>
        <time>2021-01-29T14:28:58Z</time>
      </trkpt>
      <trkpt lat="42.76814" lon="0.14579">
        <ele>2530</ele>
        <time>2021-01-29T14:28:59Z</time>
      </trkpt>
      <trkpt lat="42.76814" lon="0.14579">
        <ele>2530.2</ele>
        <time>2021-01-29T14:29:00Z</time>
      </trkpt>
      <trkpt lat="42.76814" lon="0.14579">
        <ele>2530.2</ele>
        <time>2021-01-29T14:29:01Z</time>
      </trkpt>
      <trkpt lat="42.76814" lon="0.14579">
        <ele>2530.4</ele>
        <time>2021-01-29T14:29:02Z</time>
      </trkpt>
      <trkpt lat="42.76814" lon="0.14579">
        <ele>2530.4</ele>
        <time>2021-01-29T14:29:03Z</time>
      </trkpt>
      <trkpt lat="42.76814" lon="0.14579">
        <ele>2530.2</ele>
        <time>2021-01-29T14:29:04Z</time>
      </trkpt>
      <trkpt lat="42.76814" lon="0.14579">
        <ele>2530.2</ele>
        <time>2021-01-29T14:29:05Z</time>
      </trkpt>
      <trkpt lat="42.76814" lon="0.14579">
        <ele>2530.2</ele>
        <time>2021-01-29T14:29:06Z</time>
      </trkpt>
      <trkpt lat="42.76814" lon="0.14579">
        <ele>2530.2</ele>
        <time>2021-01-29T14:29:07Z</time>
      </trkpt>
      <trkpt lat="42.76814" lon="0.14579">
        <ele>2530</ele>
        <time>2021-01-29T14:29:08Z</time>
      </trkpt>
      <trkpt lat="42.76814" lon="0.14579">
        <ele>2529.8</ele>
        <time>2021-01-29T14:29:09Z</time>
      </trkpt>
      <trkpt lat="42.76814" lon="0.14579">
        <ele>2529.8</ele>
        <time>2021-01-29T14:29:10Z</time>
      </trkpt>
      <trkpt lat="42.76814" lon="0.14579">
        <ele>2529.6</ele>
        <time>2021-01-29T14:29:11Z</time>
      </trkpt>
      <trkpt lat="42.76814" lon="0.14579">
        <ele>2529.4</ele>
        <time>2021-01-29T14:29:12Z</time>
      </trkpt>
      <trkpt lat="42.76814" lon="0.14579">
        <ele>2529.2</ele>
        <time>2021-01-29T14:29:13Z</time>
      </trkpt>
      <trkpt lat="42.76814" lon="0.14579">
        <ele>2529.2</ele>
        <time>2021-01-29T14:29:14Z</time>
      </trkpt>
      <trkpt lat="42.76814" lon="0.14579">
        <ele>2529</ele>
        <time>2021-01-29T14:29:15Z</time>
      </trkpt>
      <trkpt lat="42.76814" lon="0.14579">
        <ele>2529</ele>
        <time>2021-01-29T14:29:16Z</time>
      </trkpt>
      <trkpt lat="42.76814" lon="0.14579">
        <ele>2528.8</ele>
        <time>2021-01-29T14:29:17Z</time>
      </trkpt>
      <trkpt lat="42.76814" lon="0.14579">
        <ele>2528.8</ele>
        <time>2021-01-29T14:29:18Z</time>
      </trkpt>
      <trkpt lat="42.76814" lon="0.14579">
        <ele>2528.8</ele>
        <time>2021-01-29T14:29:19Z</time>
      </trkpt>
      <trkpt lat="42.76814" lon="0.14579">
        <ele>2528.6</ele>
        <time>2021-01-29T14:29:20Z</time>
      </trkpt>
      <trkpt lat="42.76814" lon="0.14581">
        <ele>2528.6</ele>
        <time>2021-01-29T14:29:21Z</time>
      </trkpt>
      <trkpt lat="42.76814" lon="0.14584">
        <ele>2528.4</ele>
        <time>2021-01-29T14:29:22Z</time>
      </trkpt>
      <trkpt lat="42.76814" lon="0.14583">
        <ele>2528.4</ele>
        <time>2021-01-29T14:29:23Z</time>
      </trkpt>
      <trkpt lat="42.76815" lon="0.14584">
        <ele>2528.2</ele>
        <time>2021-01-29T14:29:24Z</time>
      </trkpt>
      <trkpt lat="42.76815" lon="0.14584">
        <ele>2528.4</ele>
        <time>2021-01-29T14:29:25Z</time>
      </trkpt>
      <trkpt lat="42.76815" lon="0.14584">
        <ele>2528.2</ele>
        <time>2021-01-29T14:29:26Z</time>
      </trkpt>
      <trkpt lat="42.76815" lon="0.14584">
        <ele>2528</ele>
        <time>2021-01-29T14:29:27Z</time>
      </trkpt>
      <trkpt lat="42.76815" lon="0.14584">
        <ele>2527.8</ele>
        <time>2021-01-29T14:29:28Z</time>
      </trkpt>
      <trkpt lat="42.76815" lon="0.14584">
        <ele>2527.8</ele>
        <time>2021-01-29T14:29:29Z</time>
      </trkpt>
      <trkpt lat="42.76815" lon="0.14584">
        <ele>2527.6</ele>
        <time>2021-01-29T14:29:30Z</time>
      </trkpt>
      <trkpt lat="42.76815" lon="0.14584">
        <ele>2527.6</ele>
        <time>2021-01-29T14:29:31Z</time>
      </trkpt>
      <trkpt lat="42.76815" lon="0.14584">
        <ele>2527.6</ele>
        <time>2021-01-29T14:29:32Z</time>
      </trkpt>
      <trkpt lat="42.76815" lon="0.14584">
        <ele>2527.4</ele>
        <time>2021-01-29T14:29:33Z</time>
      </trkpt>
      <trkpt lat="42.76815" lon="0.14584">
        <ele>2527.2</ele>
        <time>2021-01-29T14:29:34Z</time>
      </trkpt>
      <trkpt lat="42.76815" lon="0.14584">
        <ele>2527.2</ele>
        <time>2021-01-29T14:29:35Z</time>
      </trkpt>
      <trkpt lat="42.76815" lon="0.14584">
        <ele>2527.4</ele>
        <time>2021-01-29T14:29:36Z</time>
      </trkpt>
      <trkpt lat="42.76815" lon="0.14584">
        <ele>2527.4</ele>
        <time>2021-01-29T14:29:37Z</time>
      </trkpt>
      <trkpt lat="42.76815" lon="0.14584">
        <ele>2527.4</ele>
        <time>2021-01-29T14:29:38Z</time>
      </trkpt>
      <trkpt lat="42.76815" lon="0.14584">
        <ele>2527.2</ele>
        <time>2021-01-29T14:29:39Z</time>
      </trkpt>
      <trkpt lat="42.76815" lon="0.14584">
        <ele>2527.4</ele>
        <time>2021-01-29T14:29:40Z</time>
      </trkpt>
      <trkpt lat="42.76815" lon="0.14584">
        <ele>2527.6</ele>
        <time>2021-01-29T14:29:41Z</time>
      </trkpt>
      <trkpt lat="42.76815" lon="0.14584">
        <ele>2527.6</ele>
        <time>2021-01-29T14:29:42Z</time>
      </trkpt>
      <trkpt lat="42.76815" lon="0.14584">
        <ele>2527.6</ele>
        <time>2021-01-29T14:29:43Z</time>
      </trkpt>
      <trkpt lat="42.76815" lon="0.14584">
        <ele>2527.6</ele>
        <time>2021-01-29T14:29:44Z</time>
      </trkpt>
      <trkpt lat="42.76815" lon="0.14584">
        <ele>2527.8</ele>
        <time>2021-01-29T14:29:45Z</time>
      </trkpt>
      <trkpt lat="42.76815" lon="0.14584">
        <ele>2527.6</ele>
        <time>2021-01-29T14:29:46Z</time>
      </trkpt>
      <trkpt lat="42.76815" lon="0.14584">
        <ele>2527.6</ele>
        <time>2021-01-29T14:29:47Z</time>
      </trkpt>
      <trkpt lat="42.76815" lon="0.14584">
        <ele>2527.8</ele>
        <time>2021-01-29T14:29:48Z</time>
      </trkpt>
      <trkpt lat="42.76815" lon="0.14584">
        <ele>2527.6</ele>
        <time>2021-01-29T14:29:49Z</time>
      </trkpt>
      <trkpt lat="42.76815" lon="0.14584">
        <ele>2527.4</ele>
        <time>2021-01-29T14:29:50Z</time>
      </trkpt>
      <trkpt lat="42.76815" lon="0.14584">
        <ele>2527.2</ele>
        <time>2021-01-29T14:29:51Z</time>
      </trkpt>
      <trkpt lat="42.76815" lon="0.14584">
        <ele>2527.2</ele>
        <time>2021-01-29T14:29:52Z</time>
      </trkpt>
      <trkpt lat="42.76815" lon="0.14584">
        <ele>2527.2</ele>
        <time>2021-01-29T14:29:53Z</time>
      </trkpt>
      <trkpt lat="42.76815" lon="0.14584">
        <ele>2527.2</ele>
        <time>2021-01-29T14:29:54Z</time>
      </trkpt>
      <trkpt lat="42.76815" lon="0.14584">
        <ele>2527.4</ele>
        <time>2021-01-29T14:29:55Z</time>
      </trkpt>
      <trkpt lat="42.76815" lon="0.14584">
        <ele>2527.4</ele>
        <time>2021-01-29T14:29:56Z</time>
      </trkpt>
      <trkpt lat="42.76815" lon="0.14584">
        <ele>2527.6</ele>
        <time>2021-01-29T14:29:57Z</time>
      </trkpt>
      <trkpt lat="42.76815" lon="0.14584">
        <ele>2527.6</ele>
        <time>2021-01-29T14:29:58Z</time>
      </trkpt>
      <trkpt lat="42.76815" lon="0.14584">
        <ele>2527.8</ele>
        <time>2021-01-29T14:29:59Z</time>
      </trkpt>
      <trkpt lat="42.76815" lon="0.14584">
        <ele>2527.8</ele>
        <time>2021-01-29T14:30:00Z</time>
      </trkpt>
      <trkpt lat="42.76815" lon="0.14584">
        <ele>2527.8</ele>
        <time>2021-01-29T14:30:01Z</time>
      </trkpt>
      <trkpt lat="42.76815" lon="0.14584">
        <ele>2528</ele>
        <time>2021-01-29T14:30:02Z</time>
      </trkpt>
      <trkpt lat="42.76815" lon="0.14584">
        <ele>2527.8</ele>
        <time>2021-01-29T14:30:03Z</time>
      </trkpt>
      <trkpt lat="42.76815" lon="0.14584">
        <ele>2527.8</ele>
        <time>2021-01-29T14:30:04Z</time>
      </trkpt>
      <trkpt lat="42.76815" lon="0.14584">
        <ele>2527.8</ele>
        <time>2021-01-29T14:30:05Z</time>
      </trkpt>
      <trkpt lat="42.76815" lon="0.14584">
        <ele>2527.8</ele>
        <time>2021-01-29T14:30:06Z</time>
      </trkpt>
      <trkpt lat="42.76815" lon="0.14584">
        <ele>2527.8</ele>
        <time>2021-01-29T14:30:07Z</time>
      </trkpt>
      <trkpt lat="42.76815" lon="0.14584">
        <ele>2528</ele>
        <time>2021-01-29T14:30:08Z</time>
      </trkpt>
      <trkpt lat="42.76815" lon="0.14584">
        <ele>2528</ele>
        <time>2021-01-29T14:30:09Z</time>
      </trkpt>
      <trkpt lat="42.76815" lon="0.14584">
        <ele>2528</ele>
        <time>2021-01-29T14:30:10Z</time>
      </trkpt>
      <trkpt lat="42.76815" lon="0.14584">
        <ele>2527.8</ele>
        <time>2021-01-29T14:30:11Z</time>
      </trkpt>
      <trkpt lat="42.76815" lon="0.14584">
        <ele>2527.8</ele>
        <time>2021-01-29T14:30:12Z</time>
      </trkpt>
      <trkpt lat="42.76815" lon="0.14584">
        <ele>2527.8</ele>
        <time>2021-01-29T14:30:13Z</time>
      </trkpt>
      <trkpt lat="42.76815" lon="0.14584">
        <ele>2527.8</ele>
        <time>2021-01-29T14:30:14Z</time>
      </trkpt>
      <trkpt lat="42.76815" lon="0.14584">
        <ele>2527.8</ele>
        <time>2021-01-29T14:30:15Z</time>
      </trkpt>
      <trkpt lat="42.76815" lon="0.14584">
        <ele>2527.8</ele>
        <time>2021-01-29T14:30:16Z</time>
      </trkpt>
      <trkpt lat="42.76815" lon="0.14584">
        <ele>2528</ele>
        <time>2021-01-29T14:30:17Z</time>
      </trkpt>
      <trkpt lat="42.76815" lon="0.14584">
        <ele>2528</ele>
        <time>2021-01-29T14:30:18Z</time>
      </trkpt>
      <trkpt lat="42.76815" lon="0.14584">
        <ele>2528</ele>
        <time>2021-01-29T14:30:19Z</time>
      </trkpt>
      <trkpt lat="42.76815" lon="0.14584">
        <ele>2528</ele>
        <time>2021-01-29T14:30:20Z</time>
      </trkpt>
      <trkpt lat="42.76815" lon="0.14584">
        <ele>2528</ele>
        <time>2021-01-29T14:30:21Z</time>
      </trkpt>
      <trkpt lat="42.76815" lon="0.14584">
        <ele>2528</ele>
        <time>2021-01-29T14:30:22Z</time>
      </trkpt>
      <trkpt lat="42.76815" lon="0.14584">
        <ele>2528</ele>
        <time>2021-01-29T14:30:23Z</time>
      </trkpt>
      <trkpt lat="42.76815" lon="0.14584">
        <ele>2528</ele>
        <time>2021-01-29T14:30:24Z</time>
      </trkpt>
      <trkpt lat="42.76815" lon="0.14584">
        <ele>2528</ele>
        <time>2021-01-29T14:30:25Z</time>
      </trkpt>
      <trkpt lat="42.76815" lon="0.14584">
        <ele>2528</ele>
        <time>2021-01-29T14:30:26Z</time>
      </trkpt>
      <trkpt lat="42.76815" lon="0.14584">
        <ele>2528</ele>
        <time>2021-01-29T14:30:27Z</time>
      </trkpt>
      <trkpt lat="42.76815" lon="0.14584">
        <ele>2528</ele>
        <time>2021-01-29T14:30:28Z</time>
      </trkpt>
      <trkpt lat="42.76815" lon="0.14584">
        <ele>2528</ele>
        <time>2021-01-29T14:30:29Z</time>
      </trkpt>
      <trkpt lat="42.76815" lon="0.14584">
        <ele>2528.2</ele>
        <time>2021-01-29T14:30:30Z</time>
      </trkpt>
      <trkpt lat="42.76815" lon="0.14584">
        <ele>2528.2</ele>
        <time>2021-01-29T14:30:31Z</time>
      </trkpt>
      <trkpt lat="42.76815" lon="0.14584">
        <ele>2528.2</ele>
        <time>2021-01-29T14:30:32Z</time>
      </trkpt>
      <trkpt lat="42.76815" lon="0.14584">
        <ele>2528.2</ele>
        <time>2021-01-29T14:30:33Z</time>
      </trkpt>
      <trkpt lat="42.76815" lon="0.14584">
        <ele>2528.4</ele>
        <time>2021-01-29T14:30:34Z</time>
      </trkpt>
      <trkpt lat="42.76815" lon="0.14584">
        <ele>2528.4</ele>
        <time>2021-01-29T14:30:35Z</time>
      </trkpt>
      <trkpt lat="42.76815" lon="0.14584">
        <ele>2528.6</ele>
        <time>2021-01-29T14:30:36Z</time>
      </trkpt>
      <trkpt lat="42.76815" lon="0.14584">
        <ele>2528.8</ele>
        <time>2021-01-29T14:30:37Z</time>
      </trkpt>
      <trkpt lat="42.76815" lon="0.14584">
        <ele>2528.8</ele>
        <time>2021-01-29T14:30:38Z</time>
      </trkpt>
      <trkpt lat="42.76815" lon="0.14584">
        <ele>2528.8</ele>
        <time>2021-01-29T14:30:39Z</time>
      </trkpt>
      <trkpt lat="42.76815" lon="0.14584">
        <ele>2528.8</ele>
        <time>2021-01-29T14:30:40Z</time>
      </trkpt>
      <trkpt lat="42.76815" lon="0.14584">
        <ele>2528.8</ele>
        <time>2021-01-29T14:30:41Z</time>
      </trkpt>
      <trkpt lat="42.76815" lon="0.14584">
        <ele>2528.8</ele>
        <time>2021-01-29T14:30:42Z</time>
      </trkpt>
      <trkpt lat="42.76815" lon="0.14584">
        <ele>2529</ele>
        <time>2021-01-29T14:30:43Z</time>
      </trkpt>
      <trkpt lat="42.76815" lon="0.14584">
        <ele>2529</ele>
        <time>2021-01-29T14:30:44Z</time>
      </trkpt>
      <trkpt lat="42.76815" lon="0.14584">
        <ele>2529</ele>
        <time>2021-01-29T14:30:45Z</time>
      </trkpt>
      <trkpt lat="42.76815" lon="0.14584">
        <ele>2529.2</ele>
        <time>2021-01-29T14:30:46Z</time>
      </trkpt>
      <trkpt lat="42.76815" lon="0.14584">
        <ele>2529.4</ele>
        <time>2021-01-29T14:30:47Z</time>
      </trkpt>
      <trkpt lat="42.76815" lon="0.14584">
        <ele>2529.4</ele>
        <time>2021-01-29T14:30:48Z</time>
      </trkpt>
      <trkpt lat="42.76815" lon="0.14584">
        <ele>2529.4</ele>
        <time>2021-01-29T14:30:49Z</time>
      </trkpt>
      <trkpt lat="42.76815" lon="0.14584">
        <ele>2529.2</ele>
        <time>2021-01-29T14:30:50Z</time>
      </trkpt>
      <trkpt lat="42.76815" lon="0.14584">
        <ele>2529.2</ele>
        <time>2021-01-29T14:30:51Z</time>
      </trkpt>
      <trkpt lat="42.76815" lon="0.14584">
        <ele>2529.2</ele>
        <time>2021-01-29T14:30:52Z</time>
      </trkpt>
      <trkpt lat="42.76815" lon="0.14584">
        <ele>2529.2</ele>
        <time>2021-01-29T14:30:53Z</time>
      </trkpt>
      <trkpt lat="42.76815" lon="0.14584">
        <ele>2529</ele>
        <time>2021-01-29T14:30:54Z</time>
      </trkpt>
      <trkpt lat="42.76815" lon="0.14584">
        <ele>2528.8</ele>
        <time>2021-01-29T14:30:55Z</time>
      </trkpt>
      <trkpt lat="42.76815" lon="0.14584">
        <ele>2528.8</ele>
        <time>2021-01-29T14:30:56Z</time>
      </trkpt>
      <trkpt lat="42.76815" lon="0.14584">
        <ele>2528.8</ele>
        <time>2021-01-29T14:30:57Z</time>
      </trkpt>
      <trkpt lat="42.76815" lon="0.14584">
        <ele>2528.8</ele>
        <time>2021-01-29T14:30:58Z</time>
      </trkpt>
      <trkpt lat="42.76815" lon="0.14584">
        <ele>2529</ele>
        <time>2021-01-29T14:30:59Z</time>
      </trkpt>
      <trkpt lat="42.76815" lon="0.14584">
        <ele>2529</ele>
        <time>2021-01-29T14:31:00Z</time>
      </trkpt>
      <trkpt lat="42.76815" lon="0.14584">
        <ele>2529.2</ele>
        <time>2021-01-29T14:31:01Z</time>
      </trkpt>
      <trkpt lat="42.76815" lon="0.14584">
        <ele>2529.4</ele>
        <time>2021-01-29T14:31:02Z</time>
      </trkpt>
      <trkpt lat="42.76815" lon="0.14584">
        <ele>2529.4</ele>
        <time>2021-01-29T14:31:03Z</time>
      </trkpt>
      <trkpt lat="42.76815" lon="0.14584">
        <ele>2529.2</ele>
        <time>2021-01-29T14:31:04Z</time>
      </trkpt>
      <trkpt lat="42.76815" lon="0.14584">
        <ele>2529</ele>
        <time>2021-01-29T14:31:05Z</time>
      </trkpt>
      <trkpt lat="42.76815" lon="0.14584">
        <ele>2529</ele>
        <time>2021-01-29T14:31:06Z</time>
      </trkpt>
      <trkpt lat="42.76815" lon="0.14584">
        <ele>2529</ele>
        <time>2021-01-29T14:31:07Z</time>
      </trkpt>
      <trkpt lat="42.76815" lon="0.14584">
        <ele>2529</ele>
        <time>2021-01-29T14:31:08Z</time>
      </trkpt>
      <trkpt lat="42.76815" lon="0.14584">
        <ele>2529</ele>
        <time>2021-01-29T14:31:09Z</time>
      </trkpt>
      <trkpt lat="42.76815" lon="0.14584">
        <ele>2529</ele>
        <time>2021-01-29T14:31:10Z</time>
      </trkpt>
      <trkpt lat="42.76815" lon="0.14584">
        <ele>2529</ele>
        <time>2021-01-29T14:31:11Z</time>
      </trkpt>
      <trkpt lat="42.76815" lon="0.14584">
        <ele>2529</ele>
        <time>2021-01-29T14:31:12Z</time>
      </trkpt>
      <trkpt lat="42.76815" lon="0.14584">
        <ele>2529.2</ele>
        <time>2021-01-29T14:31:13Z</time>
      </trkpt>
      <trkpt lat="42.76815" lon="0.14584">
        <ele>2529.2</ele>
        <time>2021-01-29T14:31:14Z</time>
      </trkpt>
      <trkpt lat="42.76815" lon="0.14584">
        <ele>2529.2</ele>
        <time>2021-01-29T14:31:15Z</time>
      </trkpt>
      <trkpt lat="42.76815" lon="0.14584">
        <ele>2529</ele>
        <time>2021-01-29T14:31:16Z</time>
      </trkpt>
      <trkpt lat="42.76815" lon="0.14584">
        <ele>2529</ele>
        <time>2021-01-29T14:31:17Z</time>
      </trkpt>
      <trkpt lat="42.76815" lon="0.14584">
        <ele>2529</ele>
        <time>2021-01-29T14:31:18Z</time>
      </trkpt>
      <trkpt lat="42.76815" lon="0.14584">
        <ele>2528.8</ele>
        <time>2021-01-29T14:31:19Z</time>
      </trkpt>
      <trkpt lat="42.76815" lon="0.14584">
        <ele>2528.6</ele>
        <time>2021-01-29T14:31:20Z</time>
      </trkpt>
      <trkpt lat="42.76815" lon="0.14584">
        <ele>2528.6</ele>
        <time>2021-01-29T14:31:21Z</time>
      </trkpt>
      <trkpt lat="42.76815" lon="0.14584">
        <ele>2528.4</ele>
        <time>2021-01-29T14:31:22Z</time>
      </trkpt>
      <trkpt lat="42.76815" lon="0.14584">
        <ele>2528.2</ele>
        <time>2021-01-29T14:31:23Z</time>
      </trkpt>
      <trkpt lat="42.76815" lon="0.14584">
        <ele>2528.2</ele>
        <time>2021-01-29T14:31:24Z</time>
      </trkpt>
      <trkpt lat="42.76815" lon="0.14584">
        <ele>2528</ele>
        <time>2021-01-29T14:31:25Z</time>
      </trkpt>
      <trkpt lat="42.76815" lon="0.14584">
        <ele>2528</ele>
        <time>2021-01-29T14:31:26Z</time>
      </trkpt>
      <trkpt lat="42.76815" lon="0.14584">
        <ele>2528</ele>
        <time>2021-01-29T14:31:27Z</time>
      </trkpt>
      <trkpt lat="42.76815" lon="0.14584">
        <ele>2528.2</ele>
        <time>2021-01-29T14:31:28Z</time>
      </trkpt>
      <trkpt lat="42.76815" lon="0.14584">
        <ele>2528.2</ele>
        <time>2021-01-29T14:31:29Z</time>
      </trkpt>
      <trkpt lat="42.76815" lon="0.14584">
        <ele>2528.2</ele>
        <time>2021-01-29T14:31:30Z</time>
      </trkpt>
      <trkpt lat="42.76815" lon="0.14584">
        <ele>2528</ele>
        <time>2021-01-29T14:31:31Z</time>
      </trkpt>
      <trkpt lat="42.76815" lon="0.14584">
        <ele>2527.8</ele>
        <time>2021-01-29T14:31:32Z</time>
      </trkpt>
      <trkpt lat="42.76815" lon="0.14584">
        <ele>2527.6</ele>
        <time>2021-01-29T14:31:33Z</time>
      </trkpt>
      <trkpt lat="42.76815" lon="0.14584">
        <ele>2527.6</ele>
        <time>2021-01-29T14:31:34Z</time>
      </trkpt>
      <trkpt lat="42.76815" lon="0.14584">
        <ele>2527.6</ele>
        <time>2021-01-29T14:31:35Z</time>
      </trkpt>
      <trkpt lat="42.76815" lon="0.14584">
        <ele>2527.6</ele>
        <time>2021-01-29T14:31:36Z</time>
      </trkpt>
      <trkpt lat="42.76815" lon="0.14584">
        <ele>2527.6</ele>
        <time>2021-01-29T14:31:37Z</time>
      </trkpt>
      <trkpt lat="42.76815" lon="0.14584">
        <ele>2527.4</ele>
        <time>2021-01-29T14:31:38Z</time>
      </trkpt>
      <trkpt lat="42.76815" lon="0.14584">
        <ele>2527.2</ele>
        <time>2021-01-29T14:31:39Z</time>
      </trkpt>
      <trkpt lat="42.76815" lon="0.14584">
        <ele>2527</ele>
        <time>2021-01-29T14:31:40Z</time>
      </trkpt>
      <trkpt lat="42.76815" lon="0.14584">
        <ele>2527</ele>
        <time>2021-01-29T14:31:41Z</time>
      </trkpt>
      <trkpt lat="42.76815" lon="0.14584">
        <ele>2527</ele>
        <time>2021-01-29T14:31:42Z</time>
      </trkpt>
      <trkpt lat="42.76815" lon="0.14584">
        <ele>2527</ele>
        <time>2021-01-29T14:31:43Z</time>
      </trkpt>
      <trkpt lat="42.76815" lon="0.14584">
        <ele>2527</ele>
        <time>2021-01-29T14:31:44Z</time>
      </trkpt>
      <trkpt lat="42.76815" lon="0.14584">
        <ele>2527</ele>
        <time>2021-01-29T14:31:45Z</time>
      </trkpt>
      <trkpt lat="42.76815" lon="0.14584">
        <ele>2527</ele>
        <time>2021-01-29T14:31:46Z</time>
      </trkpt>
      <trkpt lat="42.76815" lon="0.14584">
        <ele>2527.2</ele>
        <time>2021-01-29T14:31:47Z</time>
      </trkpt>
      <trkpt lat="42.76815" lon="0.14584">
        <ele>2527.2</ele>
        <time>2021-01-29T14:31:48Z</time>
      </trkpt>
      <trkpt lat="42.76815" lon="0.14584">
        <ele>2527.2</ele>
        <time>2021-01-29T14:31:49Z</time>
      </trkpt>
      <trkpt lat="42.76815" lon="0.14584">
        <ele>2527</ele>
        <time>2021-01-29T14:31:50Z</time>
      </trkpt>
      <trkpt lat="42.76815" lon="0.14584">
        <ele>2527</ele>
        <time>2021-01-29T14:31:51Z</time>
      </trkpt>
      <trkpt lat="42.76815" lon="0.14584">
        <ele>2526.8</ele>
        <time>2021-01-29T14:31:52Z</time>
      </trkpt>
      <trkpt lat="42.76815" lon="0.14584">
        <ele>2526.8</ele>
        <time>2021-01-29T14:31:53Z</time>
      </trkpt>
      <trkpt lat="42.76815" lon="0.14584">
        <ele>2526.8</ele>
        <time>2021-01-29T14:31:54Z</time>
      </trkpt>
      <trkpt lat="42.76815" lon="0.14584">
        <ele>2526.8</ele>
        <time>2021-01-29T14:31:55Z</time>
      </trkpt>
      <trkpt lat="42.76815" lon="0.14584">
        <ele>2526.8</ele>
        <time>2021-01-29T14:31:56Z</time>
      </trkpt>
      <trkpt lat="42.76815" lon="0.14584">
        <ele>2526.8</ele>
        <time>2021-01-29T14:31:57Z</time>
      </trkpt>
      <trkpt lat="42.76815" lon="0.14584">
        <ele>2526.8</ele>
        <time>2021-01-29T14:31:58Z</time>
      </trkpt>
      <trkpt lat="42.76815" lon="0.14584">
        <ele>2526.8</ele>
        <time>2021-01-29T14:31:59Z</time>
      </trkpt>
      <trkpt lat="42.76815" lon="0.14584">
        <ele>2526.8</ele>
        <time>2021-01-29T14:32:00Z</time>
      </trkpt>
      <trkpt lat="42.76815" lon="0.14584">
        <ele>2526.8</ele>
        <time>2021-01-29T14:32:01Z</time>
      </trkpt>
      <trkpt lat="42.76815" lon="0.14584">
        <ele>2526.8</ele>
        <time>2021-01-29T14:32:02Z</time>
      </trkpt>
      <trkpt lat="42.76815" lon="0.14584">
        <ele>2527</ele>
        <time>2021-01-29T14:32:03Z</time>
      </trkpt>
      <trkpt lat="42.76815" lon="0.14584">
        <ele>2527</ele>
        <time>2021-01-29T14:32:04Z</time>
      </trkpt>
      <trkpt lat="42.76815" lon="0.14584">
        <ele>2527.2</ele>
        <time>2021-01-29T14:32:05Z</time>
      </trkpt>
      <trkpt lat="42.76815" lon="0.14584">
        <ele>2527.2</ele>
        <time>2021-01-29T14:32:06Z</time>
      </trkpt>
      <trkpt lat="42.76815" lon="0.14584">
        <ele>2527.2</ele>
        <time>2021-01-29T14:32:07Z</time>
      </trkpt>
      <trkpt lat="42.76815" lon="0.14584">
        <ele>2527.2</ele>
        <time>2021-01-29T14:32:08Z</time>
      </trkpt>
      <trkpt lat="42.76815" lon="0.14584">
        <ele>2527.2</ele>
        <time>2021-01-29T14:32:09Z</time>
      </trkpt>
      <trkpt lat="42.76815" lon="0.14584">
        <ele>2527.2</ele>
        <time>2021-01-29T14:32:10Z</time>
      </trkpt>
      <trkpt lat="42.76815" lon="0.14584">
        <ele>2527.2</ele>
        <time>2021-01-29T14:32:11Z</time>
      </trkpt>
      <trkpt lat="42.76815" lon="0.14584">
        <ele>2527.2</ele>
        <time>2021-01-29T14:32:12Z</time>
      </trkpt>
      <trkpt lat="42.76815" lon="0.14584">
        <ele>2527</ele>
        <time>2021-01-29T14:32:13Z</time>
      </trkpt>
      <trkpt lat="42.76815" lon="0.14584">
        <ele>2527</ele>
        <time>2021-01-29T14:32:14Z</time>
      </trkpt>
      <trkpt lat="42.76815" lon="0.14584">
        <ele>2527</ele>
        <time>2021-01-29T14:32:15Z</time>
      </trkpt>
      <trkpt lat="42.76815" lon="0.14584">
        <ele>2527</ele>
        <time>2021-01-29T14:32:16Z</time>
      </trkpt>
      <trkpt lat="42.76815" lon="0.14584">
        <ele>2527</ele>
        <time>2021-01-29T14:32:17Z</time>
      </trkpt>
      <trkpt lat="42.76815" lon="0.14584">
        <ele>2527</ele>
        <time>2021-01-29T14:32:18Z</time>
      </trkpt>
      <trkpt lat="42.76815" lon="0.14584">
        <ele>2527</ele>
        <time>2021-01-29T14:32:19Z</time>
      </trkpt>
      <trkpt lat="42.76815" lon="0.14584">
        <ele>2527.2</ele>
        <time>2021-01-29T14:32:20Z</time>
      </trkpt>
      <trkpt lat="42.76815" lon="0.14584">
        <ele>2527.2</ele>
        <time>2021-01-29T14:32:21Z</time>
      </trkpt>
      <trkpt lat="42.76815" lon="0.14584">
        <ele>2527.2</ele>
        <time>2021-01-29T14:32:22Z</time>
      </trkpt>
      <trkpt lat="42.76815" lon="0.14584">
        <ele>2527.2</ele>
        <time>2021-01-29T14:32:23Z</time>
      </trkpt>
      <trkpt lat="42.76815" lon="0.14584">
        <ele>2527.4</ele>
        <time>2021-01-29T14:32:24Z</time>
      </trkpt>
      <trkpt lat="42.76815" lon="0.14584">
        <ele>2527.4</ele>
        <time>2021-01-29T14:32:25Z</time>
      </trkpt>
      <trkpt lat="42.76815" lon="0.14584">
        <ele>2527.4</ele>
        <time>2021-01-29T14:32:26Z</time>
      </trkpt>
      <trkpt lat="42.76815" lon="0.14584">
        <ele>2527.2</ele>
        <time>2021-01-29T14:32:27Z</time>
      </trkpt>
      <trkpt lat="42.76815" lon="0.14584">
        <ele>2527.2</ele>
        <time>2021-01-29T14:32:28Z</time>
      </trkpt>
      <trkpt lat="42.76815" lon="0.14584">
        <ele>2527.2</ele>
        <time>2021-01-29T14:32:29Z</time>
      </trkpt>
      <trkpt lat="42.76815" lon="0.14584">
        <ele>2527.2</ele>
        <time>2021-01-29T14:32:30Z</time>
      </trkpt>
      <trkpt lat="42.76815" lon="0.14584">
        <ele>2527.2</ele>
        <time>2021-01-29T14:32:31Z</time>
      </trkpt>
      <trkpt lat="42.76815" lon="0.14584">
        <ele>2527.4</ele>
        <time>2021-01-29T14:32:32Z</time>
      </trkpt>
      <trkpt lat="42.76815" lon="0.14584">
        <ele>2527.4</ele>
        <time>2021-01-29T14:32:33Z</time>
      </trkpt>
      <trkpt lat="42.76815" lon="0.14584">
        <ele>2527.2</ele>
        <time>2021-01-29T14:32:34Z</time>
      </trkpt>
      <trkpt lat="42.76815" lon="0.14584">
        <ele>2527</ele>
        <time>2021-01-29T14:32:35Z</time>
      </trkpt>
      <trkpt lat="42.76815" lon="0.14584">
        <ele>2526.8</ele>
        <time>2021-01-29T14:32:36Z</time>
      </trkpt>
      <trkpt lat="42.76815" lon="0.14584">
        <ele>2526.6</ele>
        <time>2021-01-29T14:32:37Z</time>
      </trkpt>
      <trkpt lat="42.76815" lon="0.14584">
        <ele>2526.4</ele>
        <time>2021-01-29T14:32:38Z</time>
      </trkpt>
      <trkpt lat="42.76815" lon="0.14584">
        <ele>2526.4</ele>
        <time>2021-01-29T14:32:39Z</time>
      </trkpt>
      <trkpt lat="42.76815" lon="0.14584">
        <ele>2526.2</ele>
        <time>2021-01-29T14:32:40Z</time>
      </trkpt>
      <trkpt lat="42.76815" lon="0.14584">
        <ele>2526.4</ele>
        <time>2021-01-29T14:32:41Z</time>
      </trkpt>
      <trkpt lat="42.76815" lon="0.14584">
        <ele>2526.6</ele>
        <time>2021-01-29T14:32:42Z</time>
      </trkpt>
      <trkpt lat="42.76815" lon="0.14584">
        <ele>2526.8</ele>
        <time>2021-01-29T14:32:43Z</time>
      </trkpt>
      <trkpt lat="42.76815" lon="0.14584">
        <ele>2527</ele>
        <time>2021-01-29T14:32:44Z</time>
      </trkpt>
      <trkpt lat="42.76815" lon="0.14584">
        <ele>2527.2</ele>
        <time>2021-01-29T14:32:45Z</time>
      </trkpt>
      <trkpt lat="42.76815" lon="0.14584">
        <ele>2527.2</ele>
        <time>2021-01-29T14:32:46Z</time>
      </trkpt>
      <trkpt lat="42.76815" lon="0.14584">
        <ele>2527.2</ele>
        <time>2021-01-29T14:32:47Z</time>
      </trkpt>
      <trkpt lat="42.76815" lon="0.14584">
        <ele>2527.2</ele>
        <time>2021-01-29T14:32:48Z</time>
      </trkpt>
      <trkpt lat="42.76815" lon="0.14584">
        <ele>2527.2</ele>
        <time>2021-01-29T14:32:49Z</time>
      </trkpt>
      <trkpt lat="42.76815" lon="0.14584">
        <ele>2527.2</ele>
        <time>2021-01-29T14:32:50Z</time>
      </trkpt>
      <trkpt lat="42.76815" lon="0.14584">
        <ele>2527.2</ele>
        <time>2021-01-29T14:32:51Z</time>
      </trkpt>
      <trkpt lat="42.76815" lon="0.14584">
        <ele>2527.2</ele>
        <time>2021-01-29T14:32:52Z</time>
      </trkpt>
      <trkpt lat="42.76815" lon="0.14584">
        <ele>2527.2</ele>
        <time>2021-01-29T14:32:53Z</time>
      </trkpt>
      <trkpt lat="42.76815" lon="0.14584">
        <ele>2527.2</ele>
        <time>2021-01-29T14:32:54Z</time>
      </trkpt>
      <trkpt lat="42.76815" lon="0.14584">
        <ele>2527.2</ele>
        <time>2021-01-29T14:32:55Z</time>
      </trkpt>
      <trkpt lat="42.76815" lon="0.14584">
        <ele>2527.2</ele>
        <time>2021-01-29T14:32:56Z</time>
      </trkpt>
      <trkpt lat="42.76815" lon="0.14584">
        <ele>2527.2</ele>
        <time>2021-01-29T14:32:57Z</time>
      </trkpt>
      <trkpt lat="42.76815" lon="0.14584">
        <ele>2527.2</ele>
        <time>2021-01-29T14:32:58Z</time>
      </trkpt>
      <trkpt lat="42.76815" lon="0.14584">
        <ele>2527.2</ele>
        <time>2021-01-29T14:32:59Z</time>
      </trkpt>
      <trkpt lat="42.76815" lon="0.14584">
        <ele>2527.2</ele>
        <time>2021-01-29T14:33:00Z</time>
      </trkpt>
      <trkpt lat="42.76815" lon="0.14584">
        <ele>2527.2</ele>
        <time>2021-01-29T14:33:01Z</time>
      </trkpt>
      <trkpt lat="42.76815" lon="0.14584">
        <ele>2527</ele>
        <time>2021-01-29T14:33:02Z</time>
      </trkpt>
      <trkpt lat="42.76815" lon="0.14584">
        <ele>2527</ele>
        <time>2021-01-29T14:33:03Z</time>
      </trkpt>
      <trkpt lat="42.76815" lon="0.14584">
        <ele>2527</ele>
        <time>2021-01-29T14:33:04Z</time>
      </trkpt>
      <trkpt lat="42.76815" lon="0.14584">
        <ele>2527.2</ele>
        <time>2021-01-29T14:33:05Z</time>
      </trkpt>
      <trkpt lat="42.76815" lon="0.14584">
        <ele>2527.2</ele>
        <time>2021-01-29T14:33:06Z</time>
      </trkpt>
      <trkpt lat="42.76815" lon="0.14584">
        <ele>2527.2</ele>
        <time>2021-01-29T14:33:07Z</time>
      </trkpt>
      <trkpt lat="42.76815" lon="0.14584">
        <ele>2527.4</ele>
        <time>2021-01-29T14:33:08Z</time>
      </trkpt>
      <trkpt lat="42.76815" lon="0.14584">
        <ele>2527.4</ele>
        <time>2021-01-29T14:33:09Z</time>
      </trkpt>
      <trkpt lat="42.76815" lon="0.14584">
        <ele>2527.4</ele>
        <time>2021-01-29T14:33:10Z</time>
      </trkpt>
      <trkpt lat="42.76815" lon="0.14584">
        <ele>2527.4</ele>
        <time>2021-01-29T14:33:11Z</time>
      </trkpt>
      <trkpt lat="42.76815" lon="0.14584">
        <ele>2527.4</ele>
        <time>2021-01-29T14:33:12Z</time>
      </trkpt>
      <trkpt lat="42.76815" lon="0.14584">
        <ele>2527.4</ele>
        <time>2021-01-29T14:33:13Z</time>
      </trkpt>
      <trkpt lat="42.76815" lon="0.14584">
        <ele>2527.4</ele>
        <time>2021-01-29T14:33:14Z</time>
      </trkpt>
      <trkpt lat="42.76815" lon="0.14584">
        <ele>2527.4</ele>
        <time>2021-01-29T14:33:15Z</time>
      </trkpt>
      <trkpt lat="42.76815" lon="0.14584">
        <ele>2527.6</ele>
        <time>2021-01-29T14:33:16Z</time>
      </trkpt>
      <trkpt lat="42.76815" lon="0.14584">
        <ele>2527.8</ele>
        <time>2021-01-29T14:33:17Z</time>
      </trkpt>
      <trkpt lat="42.76815" lon="0.14584">
        <ele>2528</ele>
        <time>2021-01-29T14:33:18Z</time>
      </trkpt>
      <trkpt lat="42.76815" lon="0.14584">
        <ele>2528</ele>
        <time>2021-01-29T14:33:19Z</time>
      </trkpt>
      <trkpt lat="42.76815" lon="0.14584">
        <ele>2528</ele>
        <time>2021-01-29T14:33:20Z</time>
      </trkpt>
      <trkpt lat="42.76815" lon="0.14584">
        <ele>2528</ele>
        <time>2021-01-29T14:33:21Z</time>
      </trkpt>
      <trkpt lat="42.76815" lon="0.14584">
        <ele>2528</ele>
        <time>2021-01-29T14:33:22Z</time>
      </trkpt>
      <trkpt lat="42.76815" lon="0.14584">
        <ele>2528</ele>
        <time>2021-01-29T14:33:23Z</time>
      </trkpt>
      <trkpt lat="42.76815" lon="0.14584">
        <ele>2527.8</ele>
        <time>2021-01-29T14:33:24Z</time>
      </trkpt>
      <trkpt lat="42.76815" lon="0.14584">
        <ele>2527.6</ele>
        <time>2021-01-29T14:33:25Z</time>
      </trkpt>
      <trkpt lat="42.76815" lon="0.14584">
        <ele>2527.4</ele>
        <time>2021-01-29T14:33:26Z</time>
      </trkpt>
      <trkpt lat="42.76815" lon="0.14584">
        <ele>2527.4</ele>
        <time>2021-01-29T14:33:27Z</time>
      </trkpt>
      <trkpt lat="42.76815" lon="0.14584">
        <ele>2527.4</ele>
        <time>2021-01-29T14:33:28Z</time>
      </trkpt>
      <trkpt lat="42.76815" lon="0.14584">
        <ele>2527.4</ele>
        <time>2021-01-29T14:33:29Z</time>
      </trkpt>
      <trkpt lat="42.76815" lon="0.14584">
        <ele>2527.4</ele>
        <time>2021-01-29T14:33:30Z</time>
      </trkpt>
      <trkpt lat="42.76815" lon="0.14584">
        <ele>2527.2</ele>
        <time>2021-01-29T14:33:31Z</time>
      </trkpt>
      <trkpt lat="42.76815" lon="0.14584">
        <ele>2527</ele>
        <time>2021-01-29T14:33:32Z</time>
      </trkpt>
      <trkpt lat="42.76815" lon="0.14584">
        <ele>2527</ele>
        <time>2021-01-29T14:33:33Z</time>
      </trkpt>
      <trkpt lat="42.76815" lon="0.14584">
        <ele>2527</ele>
        <time>2021-01-29T14:33:34Z</time>
      </trkpt>
      <trkpt lat="42.76815" lon="0.14584">
        <ele>2527</ele>
        <time>2021-01-29T14:33:35Z</time>
      </trkpt>
      <trkpt lat="42.76815" lon="0.14584">
        <ele>2527</ele>
        <time>2021-01-29T14:33:36Z</time>
      </trkpt>
      <trkpt lat="42.76815" lon="0.14584">
        <ele>2527</ele>
        <time>2021-01-29T14:33:37Z</time>
      </trkpt>
      <trkpt lat="42.76815" lon="0.14584">
        <ele>2527</ele>
        <time>2021-01-29T14:33:38Z</time>
      </trkpt>
      <trkpt lat="42.76815" lon="0.14584">
        <ele>2527.2</ele>
        <time>2021-01-29T14:33:39Z</time>
      </trkpt>
      <trkpt lat="42.76815" lon="0.14584">
        <ele>2527.4</ele>
        <time>2021-01-29T14:33:40Z</time>
      </trkpt>
      <trkpt lat="42.76815" lon="0.14584">
        <ele>2527.4</ele>
        <time>2021-01-29T14:33:41Z</time>
      </trkpt>
      <trkpt lat="42.76815" lon="0.14584">
        <ele>2527.4</ele>
        <time>2021-01-29T14:33:42Z</time>
      </trkpt>
      <trkpt lat="42.76815" lon="0.14584">
        <ele>2527.4</ele>
        <time>2021-01-29T14:33:43Z</time>
      </trkpt>
      <trkpt lat="42.76815" lon="0.14584">
        <ele>2527.2</ele>
        <time>2021-01-29T14:33:44Z</time>
      </trkpt>
      <trkpt lat="42.76815" lon="0.14584">
        <ele>2527.2</ele>
        <time>2021-01-29T14:33:45Z</time>
      </trkpt>
      <trkpt lat="42.76815" lon="0.14584">
        <ele>2527</ele>
        <time>2021-01-29T14:33:46Z</time>
      </trkpt>
      <trkpt lat="42.76815" lon="0.14584">
        <ele>2527</ele>
        <time>2021-01-29T14:33:47Z</time>
      </trkpt>
      <trkpt lat="42.76815" lon="0.14584">
        <ele>2527</ele>
        <time>2021-01-29T14:33:48Z</time>
      </trkpt>
      <trkpt lat="42.76815" lon="0.14584">
        <ele>2526.8</ele>
        <time>2021-01-29T14:33:49Z</time>
      </trkpt>
      <trkpt lat="42.76815" lon="0.14584">
        <ele>2526.8</ele>
        <time>2021-01-29T14:33:50Z</time>
      </trkpt>
      <trkpt lat="42.76815" lon="0.14584">
        <ele>2526.8</ele>
        <time>2021-01-29T14:33:51Z</time>
      </trkpt>
      <trkpt lat="42.76815" lon="0.14584">
        <ele>2526.8</ele>
        <time>2021-01-29T14:33:52Z</time>
      </trkpt>
      <trkpt lat="42.76815" lon="0.14584">
        <ele>2526.6</ele>
        <time>2021-01-29T14:33:53Z</time>
      </trkpt>
      <trkpt lat="42.76815" lon="0.14584">
        <ele>2526.6</ele>
        <time>2021-01-29T14:33:54Z</time>
      </trkpt>
      <trkpt lat="42.76815" lon="0.14584">
        <ele>2526.6</ele>
        <time>2021-01-29T14:33:55Z</time>
      </trkpt>
      <trkpt lat="42.76815" lon="0.14584">
        <ele>2526.4</ele>
        <time>2021-01-29T14:33:56Z</time>
      </trkpt>
      <trkpt lat="42.76815" lon="0.14584">
        <ele>2526.4</ele>
        <time>2021-01-29T14:33:57Z</time>
      </trkpt>
      <trkpt lat="42.76815" lon="0.14584">
        <ele>2526.4</ele>
        <time>2021-01-29T14:33:58Z</time>
      </trkpt>
      <trkpt lat="42.76815" lon="0.14584">
        <ele>2526.4</ele>
        <time>2021-01-29T14:33:59Z</time>
      </trkpt>
      <trkpt lat="42.76815" lon="0.14584">
        <ele>2526.6</ele>
        <time>2021-01-29T14:34:00Z</time>
      </trkpt>
      <trkpt lat="42.76815" lon="0.14584">
        <ele>2526.8</ele>
        <time>2021-01-29T14:34:01Z</time>
      </trkpt>
      <trkpt lat="42.76815" lon="0.14584">
        <ele>2527</ele>
        <time>2021-01-29T14:34:02Z</time>
      </trkpt>
      <trkpt lat="42.76815" lon="0.14584">
        <ele>2527.4</ele>
        <time>2021-01-29T14:34:03Z</time>
      </trkpt>
      <trkpt lat="42.76815" lon="0.14584">
        <ele>2527.4</ele>
        <time>2021-01-29T14:34:04Z</time>
      </trkpt>
      <trkpt lat="42.76815" lon="0.14584">
        <ele>2527.6</ele>
        <time>2021-01-29T14:34:05Z</time>
      </trkpt>
      <trkpt lat="42.76815" lon="0.14584">
        <ele>2527.6</ele>
        <time>2021-01-29T14:34:06Z</time>
      </trkpt>
      <trkpt lat="42.76815" lon="0.14584">
        <ele>2527.6</ele>
        <time>2021-01-29T14:34:07Z</time>
      </trkpt>
      <trkpt lat="42.76815" lon="0.14584">
        <ele>2527.4</ele>
        <time>2021-01-29T14:34:08Z</time>
      </trkpt>
      <trkpt lat="42.76815" lon="0.14584">
        <ele>2527.4</ele>
        <time>2021-01-29T14:34:09Z</time>
      </trkpt>
      <trkpt lat="42.76815" lon="0.14584">
        <ele>2527.4</ele>
        <time>2021-01-29T14:34:10Z</time>
      </trkpt>
      <trkpt lat="42.76815" lon="0.14584">
        <ele>2527.4</ele>
        <time>2021-01-29T14:34:11Z</time>
      </trkpt>
      <trkpt lat="42.76815" lon="0.14584">
        <ele>2527.6</ele>
        <time>2021-01-29T14:34:12Z</time>
      </trkpt>
      <trkpt lat="42.76815" lon="0.14584">
        <ele>2527.6</ele>
        <time>2021-01-29T14:34:13Z</time>
      </trkpt>
      <trkpt lat="42.76815" lon="0.14584">
        <ele>2527.6</ele>
        <time>2021-01-29T14:34:14Z</time>
      </trkpt>
      <trkpt lat="42.76815" lon="0.14584">
        <ele>2527.8</ele>
        <time>2021-01-29T14:34:15Z</time>
      </trkpt>
      <trkpt lat="42.76815" lon="0.14584">
        <ele>2527.8</ele>
        <time>2021-01-29T14:34:16Z</time>
      </trkpt>
      <trkpt lat="42.76815" lon="0.14584">
        <ele>2527.8</ele>
        <time>2021-01-29T14:34:17Z</time>
      </trkpt>
      <trkpt lat="42.76815" lon="0.14584">
        <ele>2527.8</ele>
        <time>2021-01-29T14:34:18Z</time>
      </trkpt>
      <trkpt lat="42.76815" lon="0.14584">
        <ele>2527.6</ele>
        <time>2021-01-29T14:34:19Z</time>
      </trkpt>
      <trkpt lat="42.76815" lon="0.14584">
        <ele>2527.6</ele>
        <time>2021-01-29T14:34:20Z</time>
      </trkpt>
      <trkpt lat="42.76815" lon="0.14584">
        <ele>2527.6</ele>
        <time>2021-01-29T14:34:21Z</time>
      </trkpt>
      <trkpt lat="42.76815" lon="0.14584">
        <ele>2527.4</ele>
        <time>2021-01-29T14:34:22Z</time>
      </trkpt>
      <trkpt lat="42.76815" lon="0.14584">
        <ele>2527.4</ele>
        <time>2021-01-29T14:34:23Z</time>
      </trkpt>
      <trkpt lat="42.76815" lon="0.14584">
        <ele>2527.2</ele>
        <time>2021-01-29T14:34:24Z</time>
      </trkpt>
      <trkpt lat="42.76815" lon="0.14584">
        <ele>2527</ele>
        <time>2021-01-29T14:34:25Z</time>
      </trkpt>
      <trkpt lat="42.76815" lon="0.14584">
        <ele>2527</ele>
        <time>2021-01-29T14:34:26Z</time>
      </trkpt>
      <trkpt lat="42.76815" lon="0.14584">
        <ele>2527</ele>
        <time>2021-01-29T14:34:27Z</time>
      </trkpt>
      <trkpt lat="42.76815" lon="0.14584">
        <ele>2527.2</ele>
        <time>2021-01-29T14:34:28Z</time>
      </trkpt>
      <trkpt lat="42.76815" lon="0.14584">
        <ele>2527.2</ele>
        <time>2021-01-29T14:34:29Z</time>
      </trkpt>
      <trkpt lat="42.76815" lon="0.14584">
        <ele>2527.2</ele>
        <time>2021-01-29T14:34:30Z</time>
      </trkpt>
      <trkpt lat="42.76815" lon="0.14584">
        <ele>2527.2</ele>
        <time>2021-01-29T14:34:31Z</time>
      </trkpt>
      <trkpt lat="42.76815" lon="0.14584">
        <ele>2527</ele>
        <time>2021-01-29T14:34:32Z</time>
      </trkpt>
      <trkpt lat="42.76815" lon="0.14584">
        <ele>2527</ele>
        <time>2021-01-29T14:34:33Z</time>
      </trkpt>
      <trkpt lat="42.76815" lon="0.14584">
        <ele>2527.2</ele>
        <time>2021-01-29T14:34:34Z</time>
      </trkpt>
      <trkpt lat="42.76815" lon="0.14584">
        <ele>2527.4</ele>
        <time>2021-01-29T14:34:35Z</time>
      </trkpt>
      <trkpt lat="42.76815" lon="0.14584">
        <ele>2528</ele>
        <time>2021-01-29T14:34:36Z</time>
      </trkpt>
      <trkpt lat="42.76815" lon="0.14584">
        <ele>2528.2</ele>
        <time>2021-01-29T14:34:37Z</time>
      </trkpt>
      <trkpt lat="42.76815" lon="0.14584">
        <ele>2528.4</ele>
        <time>2021-01-29T14:34:38Z</time>
      </trkpt>
      <trkpt lat="42.76815" lon="0.14584">
        <ele>2528.2</ele>
        <time>2021-01-29T14:34:39Z</time>
      </trkpt>
      <trkpt lat="42.76815" lon="0.14584">
        <ele>2528.2</ele>
        <time>2021-01-29T14:34:40Z</time>
      </trkpt>
      <trkpt lat="42.76815" lon="0.14584">
        <ele>2528.2</ele>
        <time>2021-01-29T14:34:41Z</time>
      </trkpt>
      <trkpt lat="42.76815" lon="0.14584">
        <ele>2528.2</ele>
        <time>2021-01-29T14:34:42Z</time>
      </trkpt>
      <trkpt lat="42.76815" lon="0.14584">
        <ele>2528.2</ele>
        <time>2021-01-29T14:34:43Z</time>
      </trkpt>
      <trkpt lat="42.76815" lon="0.14584">
        <ele>2528.2</ele>
        <time>2021-01-29T14:34:44Z</time>
      </trkpt>
      <trkpt lat="42.76815" lon="0.14584">
        <ele>2528.2</ele>
        <time>2021-01-29T14:34:45Z</time>
      </trkpt>
      <trkpt lat="42.76815" lon="0.14584">
        <ele>2528.2</ele>
        <time>2021-01-29T14:34:46Z</time>
      </trkpt>
      <trkpt lat="42.76815" lon="0.14584">
        <ele>2528.2</ele>
        <time>2021-01-29T14:34:47Z</time>
      </trkpt>
      <trkpt lat="42.76815" lon="0.14584">
        <ele>2528</ele>
        <time>2021-01-29T14:34:48Z</time>
      </trkpt>
      <trkpt lat="42.76815" lon="0.14584">
        <ele>2528</ele>
        <time>2021-01-29T14:34:49Z</time>
      </trkpt>
      <trkpt lat="42.76815" lon="0.14584">
        <ele>2528.2</ele>
        <time>2021-01-29T14:34:50Z</time>
      </trkpt>
      <trkpt lat="42.76815" lon="0.14584">
        <ele>2528</ele>
        <time>2021-01-29T14:34:51Z</time>
      </trkpt>
      <trkpt lat="42.76815" lon="0.14584">
        <ele>2528.2</ele>
        <time>2021-01-29T14:34:52Z</time>
      </trkpt>
      <trkpt lat="42.76815" lon="0.14584">
        <ele>2528.2</ele>
        <time>2021-01-29T14:34:53Z</time>
      </trkpt>
      <trkpt lat="42.76815" lon="0.14584">
        <ele>2528.2</ele>
        <time>2021-01-29T14:34:54Z</time>
      </trkpt>
      <trkpt lat="42.76815" lon="0.14584">
        <ele>2528.2</ele>
        <time>2021-01-29T14:34:55Z</time>
      </trkpt>
      <trkpt lat="42.76815" lon="0.14584">
        <ele>2528</ele>
        <time>2021-01-29T14:34:56Z</time>
      </trkpt>
      <trkpt lat="42.76815" lon="0.14584">
        <ele>2527.8</ele>
        <time>2021-01-29T14:34:57Z</time>
      </trkpt>
      <trkpt lat="42.76815" lon="0.14584">
        <ele>2527.6</ele>
        <time>2021-01-29T14:34:58Z</time>
      </trkpt>
      <trkpt lat="42.76815" lon="0.14584">
        <ele>2527.6</ele>
        <time>2021-01-29T14:34:59Z</time>
      </trkpt>
      <trkpt lat="42.76815" lon="0.14584">
        <ele>2527.6</ele>
        <time>2021-01-29T14:35:00Z</time>
      </trkpt>
      <trkpt lat="42.76815" lon="0.14584">
        <ele>2527.8</ele>
        <time>2021-01-29T14:35:01Z</time>
      </trkpt>
      <trkpt lat="42.76815" lon="0.14584">
        <ele>2528</ele>
        <time>2021-01-29T14:35:02Z</time>
      </trkpt>
      <trkpt lat="42.76815" lon="0.14584">
        <ele>2528.2</ele>
        <time>2021-01-29T14:35:03Z</time>
      </trkpt>
      <trkpt lat="42.76816" lon="0.14584">
        <ele>2528.2</ele>
        <time>2021-01-29T14:35:04Z</time>
      </trkpt>
      <trkpt lat="42.76816" lon="0.14584">
        <ele>2528.2</ele>
        <time>2021-01-29T14:35:05Z</time>
      </trkpt>
      <trkpt lat="42.76816" lon="0.14583">
        <ele>2528.2</ele>
        <time>2021-01-29T14:35:06Z</time>
      </trkpt>
      <trkpt lat="42.76816" lon="0.14583">
        <ele>2528</ele>
        <time>2021-01-29T14:35:07Z</time>
      </trkpt>
      <trkpt lat="42.76816" lon="0.14583">
        <ele>2528</ele>
        <time>2021-01-29T14:35:08Z</time>
      </trkpt>
      <trkpt lat="42.76816" lon="0.14583">
        <ele>2527.8</ele>
        <time>2021-01-29T14:35:09Z</time>
      </trkpt>
      <trkpt lat="42.76816" lon="0.14583">
        <ele>2527.6</ele>
        <time>2021-01-29T14:35:10Z</time>
      </trkpt>
      <trkpt lat="42.76816" lon="0.14583">
        <ele>2527.4</ele>
        <time>2021-01-29T14:35:11Z</time>
      </trkpt>
      <trkpt lat="42.76816" lon="0.14583">
        <ele>2527.4</ele>
        <time>2021-01-29T14:35:12Z</time>
      </trkpt>
      <trkpt lat="42.76816" lon="0.14583">
        <ele>2527.6</ele>
        <time>2021-01-29T14:35:13Z</time>
      </trkpt>
      <trkpt lat="42.76816" lon="0.14583">
        <ele>2527.4</ele>
        <time>2021-01-29T14:35:14Z</time>
      </trkpt>
      <trkpt lat="42.76816" lon="0.14583">
        <ele>2527.2</ele>
        <time>2021-01-29T14:35:15Z</time>
      </trkpt>
      <trkpt lat="42.76816" lon="0.14583">
        <ele>2527</ele>
        <time>2021-01-29T14:35:16Z</time>
      </trkpt>
      <trkpt lat="42.76816" lon="0.14583">
        <ele>2527</ele>
        <time>2021-01-29T14:35:17Z</time>
      </trkpt>
      <trkpt lat="42.76816" lon="0.14583">
        <ele>2526.8</ele>
        <time>2021-01-29T14:35:18Z</time>
      </trkpt>
      <trkpt lat="42.76816" lon="0.14583">
        <ele>2526.6</ele>
        <time>2021-01-29T14:35:19Z</time>
      </trkpt>
      <trkpt lat="42.76816" lon="0.14583">
        <ele>2526.6</ele>
        <time>2021-01-29T14:35:20Z</time>
      </trkpt>
      <trkpt lat="42.76816" lon="0.14583">
        <ele>2526.8</ele>
        <time>2021-01-29T14:35:21Z</time>
      </trkpt>
      <trkpt lat="42.76816" lon="0.14583">
        <ele>2526.8</ele>
        <time>2021-01-29T14:35:22Z</time>
      </trkpt>
      <trkpt lat="42.76816" lon="0.14583">
        <ele>2526.6</ele>
        <time>2021-01-29T14:35:23Z</time>
      </trkpt>
      <trkpt lat="42.76816" lon="0.14583">
        <ele>2526.4</ele>
        <time>2021-01-29T14:35:24Z</time>
      </trkpt>
      <trkpt lat="42.76816" lon="0.14583">
        <ele>2526</ele>
        <time>2021-01-29T14:35:25Z</time>
      </trkpt>
      <trkpt lat="42.76816" lon="0.14583">
        <ele>2526</ele>
        <time>2021-01-29T14:35:26Z</time>
      </trkpt>
      <trkpt lat="42.76816" lon="0.14583">
        <ele>2525.8</ele>
        <time>2021-01-29T14:35:27Z</time>
      </trkpt>
      <trkpt lat="42.76816" lon="0.14583">
        <ele>2525.8</ele>
        <time>2021-01-29T14:35:28Z</time>
      </trkpt>
      <trkpt lat="42.76816" lon="0.14583">
        <ele>2525.8</ele>
        <time>2021-01-29T14:35:29Z</time>
      </trkpt>
      <trkpt lat="42.76816" lon="0.14583">
        <ele>2525.8</ele>
        <time>2021-01-29T14:35:30Z</time>
      </trkpt>
      <trkpt lat="42.76816" lon="0.14583">
        <ele>2525.8</ele>
        <time>2021-01-29T14:35:31Z</time>
      </trkpt>
      <trkpt lat="42.76816" lon="0.14583">
        <ele>2525.8</ele>
        <time>2021-01-29T14:35:32Z</time>
      </trkpt>
      <trkpt lat="42.76816" lon="0.14583">
        <ele>2525.8</ele>
        <time>2021-01-29T14:35:33Z</time>
      </trkpt>
      <trkpt lat="42.76816" lon="0.14583">
        <ele>2525.6</ele>
        <time>2021-01-29T14:35:34Z</time>
      </trkpt>
      <trkpt lat="42.76816" lon="0.14583">
        <ele>2525.6</ele>
        <time>2021-01-29T14:35:35Z</time>
      </trkpt>
      <trkpt lat="42.76816" lon="0.14583">
        <ele>2525.4</ele>
        <time>2021-01-29T14:35:36Z</time>
      </trkpt>
      <trkpt lat="42.76816" lon="0.14583">
        <ele>2525.4</ele>
        <time>2021-01-29T14:35:37Z</time>
      </trkpt>
      <trkpt lat="42.76816" lon="0.14583">
        <ele>2525.4</ele>
        <time>2021-01-29T14:35:38Z</time>
      </trkpt>
      <trkpt lat="42.76816" lon="0.14583">
        <ele>2525.4</ele>
        <time>2021-01-29T14:35:39Z</time>
      </trkpt>
      <trkpt lat="42.76816" lon="0.14583">
        <ele>2525.4</ele>
        <time>2021-01-29T14:35:40Z</time>
      </trkpt>
      <trkpt lat="42.76816" lon="0.14583">
        <ele>2525.4</ele>
        <time>2021-01-29T14:35:41Z</time>
      </trkpt>
      <trkpt lat="42.76816" lon="0.14583">
        <ele>2525.2</ele>
        <time>2021-01-29T14:35:42Z</time>
      </trkpt>
      <trkpt lat="42.76816" lon="0.14583">
        <ele>2525.2</ele>
        <time>2021-01-29T14:35:43Z</time>
      </trkpt>
      <trkpt lat="42.76816" lon="0.14583">
        <ele>2525</ele>
        <time>2021-01-29T14:35:44Z</time>
      </trkpt>
      <trkpt lat="42.76816" lon="0.14583">
        <ele>2524.8</ele>
        <time>2021-01-29T14:35:45Z</time>
      </trkpt>
      <trkpt lat="42.76816" lon="0.14583">
        <ele>2524.8</ele>
        <time>2021-01-29T14:35:46Z</time>
      </trkpt>
      <trkpt lat="42.76816" lon="0.14583">
        <ele>2524.8</ele>
        <time>2021-01-29T14:35:47Z</time>
      </trkpt>
      <trkpt lat="42.76816" lon="0.14583">
        <ele>2524.6</ele>
        <time>2021-01-29T14:35:48Z</time>
      </trkpt>
      <trkpt lat="42.76816" lon="0.14583">
        <ele>2524.6</ele>
        <time>2021-01-29T14:35:49Z</time>
      </trkpt>
      <trkpt lat="42.76816" lon="0.14583">
        <ele>2524.6</ele>
        <time>2021-01-29T14:35:50Z</time>
      </trkpt>
      <trkpt lat="42.76816" lon="0.14583">
        <ele>2524.6</ele>
        <time>2021-01-29T14:35:51Z</time>
      </trkpt>
      <trkpt lat="42.76816" lon="0.14583">
        <ele>2524.4</ele>
        <time>2021-01-29T14:35:52Z</time>
      </trkpt>
      <trkpt lat="42.76816" lon="0.14583">
        <ele>2524.4</ele>
        <time>2021-01-29T14:35:53Z</time>
      </trkpt>
      <trkpt lat="42.76816" lon="0.14583">
        <ele>2524.4</ele>
        <time>2021-01-29T14:35:54Z</time>
      </trkpt>
      <trkpt lat="42.76816" lon="0.14583">
        <ele>2524.2</ele>
        <time>2021-01-29T14:35:55Z</time>
      </trkpt>
      <trkpt lat="42.76816" lon="0.14583">
        <ele>2524.2</ele>
        <time>2021-01-29T14:35:56Z</time>
      </trkpt>
      <trkpt lat="42.76816" lon="0.14583">
        <ele>2524.2</ele>
        <time>2021-01-29T14:35:57Z</time>
      </trkpt>
      <trkpt lat="42.76816" lon="0.14583">
        <ele>2524.2</ele>
        <time>2021-01-29T14:35:58Z</time>
      </trkpt>
      <trkpt lat="42.76816" lon="0.14583">
        <ele>2524</ele>
        <time>2021-01-29T14:35:59Z</time>
      </trkpt>
      <trkpt lat="42.76816" lon="0.14583">
        <ele>2524</ele>
        <time>2021-01-29T14:36:00Z</time>
      </trkpt>
      <trkpt lat="42.76816" lon="0.14583">
        <ele>2523.8</ele>
        <time>2021-01-29T14:36:01Z</time>
      </trkpt>
      <trkpt lat="42.76816" lon="0.14583">
        <ele>2523.6</ele>
        <time>2021-01-29T14:36:02Z</time>
      </trkpt>
      <trkpt lat="42.76816" lon="0.14583">
        <ele>2523.6</ele>
        <time>2021-01-29T14:36:03Z</time>
      </trkpt>
      <trkpt lat="42.76816" lon="0.14583">
        <ele>2523.6</ele>
        <time>2021-01-29T14:36:04Z</time>
      </trkpt>
      <trkpt lat="42.76816" lon="0.14583">
        <ele>2523.4</ele>
        <time>2021-01-29T14:36:05Z</time>
      </trkpt>
      <trkpt lat="42.76816" lon="0.14583">
        <ele>2523.6</ele>
        <time>2021-01-29T14:36:06Z</time>
      </trkpt>
      <trkpt lat="42.76816" lon="0.14583">
        <ele>2523.6</ele>
        <time>2021-01-29T14:36:07Z</time>
      </trkpt>
      <trkpt lat="42.76816" lon="0.14583">
        <ele>2523.6</ele>
        <time>2021-01-29T14:36:08Z</time>
      </trkpt>
      <trkpt lat="42.76816" lon="0.14583">
        <ele>2523.6</ele>
        <time>2021-01-29T14:36:09Z</time>
      </trkpt>
      <trkpt lat="42.76816" lon="0.14583">
        <ele>2523.6</ele>
        <time>2021-01-29T14:36:10Z</time>
      </trkpt>
      <trkpt lat="42.76816" lon="0.14583">
        <ele>2523.6</ele>
        <time>2021-01-29T14:36:11Z</time>
      </trkpt>
      <trkpt lat="42.76816" lon="0.14583">
        <ele>2523.8</ele>
        <time>2021-01-29T14:36:12Z</time>
      </trkpt>
      <trkpt lat="42.76816" lon="0.14583">
        <ele>2524</ele>
        <time>2021-01-29T14:36:13Z</time>
      </trkpt>
      <trkpt lat="42.76816" lon="0.14583">
        <ele>2524.2</ele>
        <time>2021-01-29T14:36:14Z</time>
      </trkpt>
      <trkpt lat="42.76816" lon="0.14583">
        <ele>2524.2</ele>
        <time>2021-01-29T14:36:15Z</time>
      </trkpt>
      <trkpt lat="42.76816" lon="0.14583">
        <ele>2524.2</ele>
        <time>2021-01-29T14:36:16Z</time>
      </trkpt>
      <trkpt lat="42.76816" lon="0.14583">
        <ele>2524.4</ele>
        <time>2021-01-29T14:36:17Z</time>
      </trkpt>
      <trkpt lat="42.76816" lon="0.14583">
        <ele>2524.4</ele>
        <time>2021-01-29T14:36:18Z</time>
      </trkpt>
      <trkpt lat="42.76816" lon="0.14583">
        <ele>2524.6</ele>
        <time>2021-01-29T14:36:19Z</time>
      </trkpt>
      <trkpt lat="42.76816" lon="0.14584">
        <ele>2524.6</ele>
        <time>2021-01-29T14:36:20Z</time>
      </trkpt>
      <trkpt lat="42.76816" lon="0.14586">
        <ele>2524.6</ele>
        <time>2021-01-29T14:36:21Z</time>
      </trkpt>
      <trkpt lat="42.76817" lon="0.14586">
        <ele>2524.6</ele>
        <time>2021-01-29T14:36:22Z</time>
      </trkpt>
      <trkpt lat="42.76817" lon="0.14585">
        <ele>2524.6</ele>
        <time>2021-01-29T14:36:23Z</time>
      </trkpt>
      <trkpt lat="42.76817" lon="0.14585">
        <ele>2524.6</ele>
        <time>2021-01-29T14:36:24Z</time>
      </trkpt>
      <trkpt lat="42.76817" lon="0.14585">
        <ele>2524.6</ele>
        <time>2021-01-29T14:36:25Z</time>
      </trkpt>
      <trkpt lat="42.76817" lon="0.14585">
        <ele>2524.4</ele>
        <time>2021-01-29T14:36:26Z</time>
      </trkpt>
      <trkpt lat="42.76817" lon="0.14585">
        <ele>2524.4</ele>
        <time>2021-01-29T14:36:27Z</time>
      </trkpt>
      <trkpt lat="42.76817" lon="0.14585">
        <ele>2524.4</ele>
        <time>2021-01-29T14:36:28Z</time>
      </trkpt>
      <trkpt lat="42.76817" lon="0.14585">
        <ele>2524.4</ele>
        <time>2021-01-29T14:36:29Z</time>
      </trkpt>
      <trkpt lat="42.76817" lon="0.14585">
        <ele>2524.2</ele>
        <time>2021-01-29T14:36:30Z</time>
      </trkpt>
      <trkpt lat="42.76817" lon="0.14585">
        <ele>2524.2</ele>
        <time>2021-01-29T14:36:31Z</time>
      </trkpt>
      <trkpt lat="42.76817" lon="0.14585">
        <ele>2524.4</ele>
        <time>2021-01-29T14:36:32Z</time>
      </trkpt>
      <trkpt lat="42.76817" lon="0.14585">
        <ele>2524.4</ele>
        <time>2021-01-29T14:36:33Z</time>
      </trkpt>
      <trkpt lat="42.76817" lon="0.14585">
        <ele>2524.6</ele>
        <time>2021-01-29T14:36:34Z</time>
      </trkpt>
      <trkpt lat="42.76817" lon="0.14585">
        <ele>2524.8</ele>
        <time>2021-01-29T14:36:35Z</time>
      </trkpt>
      <trkpt lat="42.76817" lon="0.14585">
        <ele>2525</ele>
        <time>2021-01-29T14:36:36Z</time>
      </trkpt>
      <trkpt lat="42.76817" lon="0.14585">
        <ele>2525</ele>
        <time>2021-01-29T14:36:37Z</time>
      </trkpt>
      <trkpt lat="42.76817" lon="0.14585">
        <ele>2525.2</ele>
        <time>2021-01-29T14:36:38Z</time>
      </trkpt>
      <trkpt lat="42.76817" lon="0.14585">
        <ele>2525.2</ele>
        <time>2021-01-29T14:36:39Z</time>
      </trkpt>
      <trkpt lat="42.76817" lon="0.14585">
        <ele>2525.4</ele>
        <time>2021-01-29T14:36:40Z</time>
      </trkpt>
      <trkpt lat="42.76817" lon="0.14585">
        <ele>2525.4</ele>
        <time>2021-01-29T14:36:41Z</time>
      </trkpt>
      <trkpt lat="42.76817" lon="0.14585">
        <ele>2525.4</ele>
        <time>2021-01-29T14:36:42Z</time>
      </trkpt>
      <trkpt lat="42.76817" lon="0.14585">
        <ele>2525.4</ele>
        <time>2021-01-29T14:36:43Z</time>
      </trkpt>
      <trkpt lat="42.76817" lon="0.14585">
        <ele>2525.6</ele>
        <time>2021-01-29T14:36:44Z</time>
      </trkpt>
      <trkpt lat="42.76817" lon="0.14585">
        <ele>2525.6</ele>
        <time>2021-01-29T14:36:45Z</time>
      </trkpt>
      <trkpt lat="42.76817" lon="0.14585">
        <ele>2525.6</ele>
        <time>2021-01-29T14:36:46Z</time>
      </trkpt>
      <trkpt lat="42.76817" lon="0.14585">
        <ele>2525.6</ele>
        <time>2021-01-29T14:36:47Z</time>
      </trkpt>
      <trkpt lat="42.76817" lon="0.14585">
        <ele>2525.6</ele>
        <time>2021-01-29T14:36:48Z</time>
      </trkpt>
      <trkpt lat="42.76817" lon="0.14585">
        <ele>2525.6</ele>
        <time>2021-01-29T14:36:49Z</time>
      </trkpt>
      <trkpt lat="42.76817" lon="0.14585">
        <ele>2525.6</ele>
        <time>2021-01-29T14:36:50Z</time>
      </trkpt>
      <trkpt lat="42.76817" lon="0.14585">
        <ele>2525.8</ele>
        <time>2021-01-29T14:36:51Z</time>
      </trkpt>
      <trkpt lat="42.76817" lon="0.14585">
        <ele>2525.6</ele>
        <time>2021-01-29T14:36:52Z</time>
      </trkpt>
      <trkpt lat="42.76817" lon="0.14585">
        <ele>2525.8</ele>
        <time>2021-01-29T14:36:53Z</time>
      </trkpt>
      <trkpt lat="42.76817" lon="0.14585">
        <ele>2525.8</ele>
        <time>2021-01-29T14:36:54Z</time>
      </trkpt>
      <trkpt lat="42.76817" lon="0.14585">
        <ele>2525.8</ele>
        <time>2021-01-29T14:36:55Z</time>
      </trkpt>
      <trkpt lat="42.76817" lon="0.14585">
        <ele>2525.8</ele>
        <time>2021-01-29T14:36:56Z</time>
      </trkpt>
      <trkpt lat="42.76817" lon="0.14585">
        <ele>2525.8</ele>
        <time>2021-01-29T14:36:57Z</time>
      </trkpt>
      <trkpt lat="42.76817" lon="0.14585">
        <ele>2526</ele>
        <time>2021-01-29T14:36:58Z</time>
      </trkpt>
      <trkpt lat="42.76817" lon="0.14585">
        <ele>2526</ele>
        <time>2021-01-29T14:36:59Z</time>
      </trkpt>
      <trkpt lat="42.76817" lon="0.14585">
        <ele>2526</ele>
        <time>2021-01-29T14:37:00Z</time>
      </trkpt>
      <trkpt lat="42.76817" lon="0.14585">
        <ele>2526</ele>
        <time>2021-01-29T14:37:01Z</time>
      </trkpt>
      <trkpt lat="42.76817" lon="0.14585">
        <ele>2526</ele>
        <time>2021-01-29T14:37:02Z</time>
      </trkpt>
      <trkpt lat="42.76817" lon="0.14585">
        <ele>2526</ele>
        <time>2021-01-29T14:37:03Z</time>
      </trkpt>
      <trkpt lat="42.76817" lon="0.14585">
        <ele>2525.8</ele>
        <time>2021-01-29T14:37:04Z</time>
      </trkpt>
      <trkpt lat="42.76817" lon="0.14585">
        <ele>2525.8</ele>
        <time>2021-01-29T14:37:05Z</time>
      </trkpt>
      <trkpt lat="42.76817" lon="0.14585">
        <ele>2525.8</ele>
        <time>2021-01-29T14:37:06Z</time>
      </trkpt>
      <trkpt lat="42.76817" lon="0.14585">
        <ele>2525.8</ele>
        <time>2021-01-29T14:37:07Z</time>
      </trkpt>
      <trkpt lat="42.76817" lon="0.14585">
        <ele>2526</ele>
        <time>2021-01-29T14:37:08Z</time>
      </trkpt>
      <trkpt lat="42.76817" lon="0.14585">
        <ele>2526</ele>
        <time>2021-01-29T14:37:09Z</time>
      </trkpt>
      <trkpt lat="42.76817" lon="0.14585">
        <ele>2526.2</ele>
        <time>2021-01-29T14:37:10Z</time>
      </trkpt>
      <trkpt lat="42.76817" lon="0.14585">
        <ele>2526.4</ele>
        <time>2021-01-29T14:37:11Z</time>
      </trkpt>
      <trkpt lat="42.76817" lon="0.14585">
        <ele>2526.6</ele>
        <time>2021-01-29T14:37:12Z</time>
      </trkpt>
      <trkpt lat="42.76817" lon="0.14585">
        <ele>2526.6</ele>
        <time>2021-01-29T14:37:13Z</time>
      </trkpt>
      <trkpt lat="42.76817" lon="0.14586">
        <ele>2526.8</ele>
        <time>2021-01-29T14:37:14Z</time>
      </trkpt>
      <trkpt lat="42.76819" lon="0.14586">
        <ele>2526.6</ele>
        <time>2021-01-29T14:37:15Z</time>
      </trkpt>
      <trkpt lat="42.76819" lon="0.14586">
        <ele>2526.8</ele>
        <time>2021-01-29T14:37:16Z</time>
      </trkpt>
      <trkpt lat="42.76819" lon="0.14586">
        <ele>2526.8</ele>
        <time>2021-01-29T14:37:17Z</time>
      </trkpt>
      <trkpt lat="42.76819" lon="0.14587">
        <ele>2527</ele>
        <time>2021-01-29T14:37:18Z</time>
      </trkpt>
      <trkpt lat="42.76819" lon="0.14587">
        <ele>2527</ele>
        <time>2021-01-29T14:37:19Z</time>
      </trkpt>
      <trkpt lat="42.76819" lon="0.14587">
        <ele>2526.8</ele>
        <time>2021-01-29T14:37:20Z</time>
      </trkpt>
      <trkpt lat="42.76819" lon="0.14587">
        <ele>2526.8</ele>
        <time>2021-01-29T14:37:21Z</time>
      </trkpt>
      <trkpt lat="42.76819" lon="0.14587">
        <ele>2526.8</ele>
        <time>2021-01-29T14:37:22Z</time>
      </trkpt>
      <trkpt lat="42.76819" lon="0.14587">
        <ele>2526.8</ele>
        <time>2021-01-29T14:37:23Z</time>
      </trkpt>
      <trkpt lat="42.76819" lon="0.14587">
        <ele>2527</ele>
        <time>2021-01-29T14:37:24Z</time>
      </trkpt>
      <trkpt lat="42.76819" lon="0.14587">
        <ele>2527</ele>
        <time>2021-01-29T14:37:25Z</time>
      </trkpt>
      <trkpt lat="42.76819" lon="0.14587">
        <ele>2527.2</ele>
        <time>2021-01-29T14:37:26Z</time>
      </trkpt>
      <trkpt lat="42.76819" lon="0.14587">
        <ele>2527.2</ele>
        <time>2021-01-29T14:37:27Z</time>
      </trkpt>
      <trkpt lat="42.76819" lon="0.14587">
        <ele>2527.2</ele>
        <time>2021-01-29T14:37:28Z</time>
      </trkpt>
      <trkpt lat="42.76819" lon="0.14587">
        <ele>2527.2</ele>
        <time>2021-01-29T14:37:29Z</time>
      </trkpt>
      <trkpt lat="42.76819" lon="0.14587">
        <ele>2527</ele>
        <time>2021-01-29T14:37:30Z</time>
      </trkpt>
      <trkpt lat="42.76819" lon="0.14587">
        <ele>2527</ele>
        <time>2021-01-29T14:37:31Z</time>
      </trkpt>
      <trkpt lat="42.76819" lon="0.14587">
        <ele>2527</ele>
        <time>2021-01-29T14:37:32Z</time>
      </trkpt>
      <trkpt lat="42.76819" lon="0.14587">
        <ele>2526.8</ele>
        <time>2021-01-29T14:37:33Z</time>
      </trkpt>
      <trkpt lat="42.76819" lon="0.14587">
        <ele>2526.6</ele>
        <time>2021-01-29T14:37:34Z</time>
      </trkpt>
      <trkpt lat="42.76819" lon="0.14587">
        <ele>2526.4</ele>
        <time>2021-01-29T14:37:35Z</time>
      </trkpt>
      <trkpt lat="42.76819" lon="0.14587">
        <ele>2526.4</ele>
        <time>2021-01-29T14:37:36Z</time>
      </trkpt>
      <trkpt lat="42.76819" lon="0.14587">
        <ele>2526.2</ele>
        <time>2021-01-29T14:37:37Z</time>
      </trkpt>
      <trkpt lat="42.76819" lon="0.14587">
        <ele>2526.2</ele>
        <time>2021-01-29T14:37:38Z</time>
      </trkpt>
      <trkpt lat="42.76819" lon="0.14587">
        <ele>2526.2</ele>
        <time>2021-01-29T14:37:39Z</time>
      </trkpt>
      <trkpt lat="42.76819" lon="0.14587">
        <ele>2526</ele>
        <time>2021-01-29T14:37:40Z</time>
      </trkpt>
      <trkpt lat="42.76819" lon="0.14587">
        <ele>2526</ele>
        <time>2021-01-29T14:37:41Z</time>
      </trkpt>
      <trkpt lat="42.76819" lon="0.14587">
        <ele>2526</ele>
        <time>2021-01-29T14:37:42Z</time>
      </trkpt>
      <trkpt lat="42.76819" lon="0.14587">
        <ele>2526</ele>
        <time>2021-01-29T14:37:43Z</time>
      </trkpt>
      <trkpt lat="42.76819" lon="0.14587">
        <ele>2526</ele>
        <time>2021-01-29T14:37:44Z</time>
      </trkpt>
      <trkpt lat="42.76819" lon="0.14587">
        <ele>2526.2</ele>
        <time>2021-01-29T14:37:45Z</time>
      </trkpt>
      <trkpt lat="42.76819" lon="0.14587">
        <ele>2526.2</ele>
        <time>2021-01-29T14:37:46Z</time>
      </trkpt>
      <trkpt lat="42.76819" lon="0.14587">
        <ele>2526.2</ele>
        <time>2021-01-29T14:37:47Z</time>
      </trkpt>
      <trkpt lat="42.76819" lon="0.14587">
        <ele>2526.2</ele>
        <time>2021-01-29T14:37:48Z</time>
      </trkpt>
      <trkpt lat="42.76819" lon="0.14587">
        <ele>2526</ele>
        <time>2021-01-29T14:37:49Z</time>
      </trkpt>
      <trkpt lat="42.76819" lon="0.14587">
        <ele>2525.8</ele>
        <time>2021-01-29T14:37:50Z</time>
      </trkpt>
      <trkpt lat="42.76819" lon="0.14587">
        <ele>2525.8</ele>
        <time>2021-01-29T14:37:51Z</time>
      </trkpt>
      <trkpt lat="42.76819" lon="0.14587">
        <ele>2525.6</ele>
        <time>2021-01-29T14:37:52Z</time>
      </trkpt>
      <trkpt lat="42.76819" lon="0.14587">
        <ele>2525.6</ele>
        <time>2021-01-29T14:37:53Z</time>
      </trkpt>
      <trkpt lat="42.76819" lon="0.14587">
        <ele>2525.4</ele>
        <time>2021-01-29T14:37:54Z</time>
      </trkpt>
      <trkpt lat="42.76819" lon="0.14587">
        <ele>2525.4</ele>
        <time>2021-01-29T14:37:55Z</time>
      </trkpt>
      <trkpt lat="42.76819" lon="0.14587">
        <ele>2525.2</ele>
        <time>2021-01-29T14:37:56Z</time>
      </trkpt>
      <trkpt lat="42.76819" lon="0.14587">
        <ele>2525.2</ele>
        <time>2021-01-29T14:37:57Z</time>
      </trkpt>
      <trkpt lat="42.76819" lon="0.14587">
        <ele>2525.2</ele>
        <time>2021-01-29T14:37:58Z</time>
      </trkpt>
      <trkpt lat="42.76819" lon="0.14587">
        <ele>2525.4</ele>
        <time>2021-01-29T14:37:59Z</time>
      </trkpt>
      <trkpt lat="42.76819" lon="0.14587">
        <ele>2525.6</ele>
        <time>2021-01-29T14:38:00Z</time>
      </trkpt>
      <trkpt lat="42.76819" lon="0.14587">
        <ele>2525.8</ele>
        <time>2021-01-29T14:38:01Z</time>
      </trkpt>
      <trkpt lat="42.76819" lon="0.14587">
        <ele>2526</ele>
        <time>2021-01-29T14:38:02Z</time>
      </trkpt>
      <trkpt lat="42.76819" lon="0.14587">
        <ele>2526.2</ele>
        <time>2021-01-29T14:38:03Z</time>
      </trkpt>
      <trkpt lat="42.76819" lon="0.14587">
        <ele>2526.4</ele>
        <time>2021-01-29T14:38:04Z</time>
      </trkpt>
      <trkpt lat="42.76819" lon="0.14587">
        <ele>2526.2</ele>
        <time>2021-01-29T14:38:05Z</time>
      </trkpt>
      <trkpt lat="42.76819" lon="0.14587">
        <ele>2526</ele>
        <time>2021-01-29T14:38:06Z</time>
      </trkpt>
      <trkpt lat="42.76819" lon="0.14587">
        <ele>2525.8</ele>
        <time>2021-01-29T14:38:07Z</time>
      </trkpt>
      <trkpt lat="42.76819" lon="0.14587">
        <ele>2525.6</ele>
        <time>2021-01-29T14:38:08Z</time>
      </trkpt>
      <trkpt lat="42.76819" lon="0.14587">
        <ele>2525.4</ele>
        <time>2021-01-29T14:38:09Z</time>
      </trkpt>
      <trkpt lat="42.76819" lon="0.14587">
        <ele>2525.4</ele>
        <time>2021-01-29T14:38:10Z</time>
      </trkpt>
      <trkpt lat="42.76819" lon="0.14587">
        <ele>2525.6</ele>
        <time>2021-01-29T14:38:11Z</time>
      </trkpt>
      <trkpt lat="42.76819" lon="0.14587">
        <ele>2525.8</ele>
        <time>2021-01-29T14:38:12Z</time>
      </trkpt>
      <trkpt lat="42.76819" lon="0.14587">
        <ele>2525.8</ele>
        <time>2021-01-29T14:38:13Z</time>
      </trkpt>
      <trkpt lat="42.76819" lon="0.14587">
        <ele>2525.8</ele>
        <time>2021-01-29T14:38:14Z</time>
      </trkpt>
      <trkpt lat="42.76819" lon="0.14587">
        <ele>2526</ele>
        <time>2021-01-29T14:38:15Z</time>
      </trkpt>
      <trkpt lat="42.76819" lon="0.14587">
        <ele>2526.2</ele>
        <time>2021-01-29T14:38:16Z</time>
      </trkpt>
      <trkpt lat="42.76819" lon="0.14587">
        <ele>2526.4</ele>
        <time>2021-01-29T14:38:17Z</time>
      </trkpt>
      <trkpt lat="42.76819" lon="0.14587">
        <ele>2526.4</ele>
        <time>2021-01-29T14:38:18Z</time>
      </trkpt>
      <trkpt lat="42.76819" lon="0.14587">
        <ele>2526.4</ele>
        <time>2021-01-29T14:38:19Z</time>
      </trkpt>
      <trkpt lat="42.76819" lon="0.14587">
        <ele>2526.4</ele>
        <time>2021-01-29T14:38:20Z</time>
      </trkpt>
      <trkpt lat="42.76819" lon="0.14587">
        <ele>2526.4</ele>
        <time>2021-01-29T14:38:21Z</time>
      </trkpt>
      <trkpt lat="42.76819" lon="0.14587">
        <ele>2526.6</ele>
        <time>2021-01-29T14:38:22Z</time>
      </trkpt>
      <trkpt lat="42.76819" lon="0.14587">
        <ele>2526.6</ele>
        <time>2021-01-29T14:38:23Z</time>
      </trkpt>
      <trkpt lat="42.76819" lon="0.14587">
        <ele>2526.6</ele>
        <time>2021-01-29T14:38:24Z</time>
      </trkpt>
      <trkpt lat="42.76819" lon="0.14587">
        <ele>2526.8</ele>
        <time>2021-01-29T14:38:25Z</time>
      </trkpt>
      <trkpt lat="42.76819" lon="0.14587">
        <ele>2527</ele>
        <time>2021-01-29T14:38:26Z</time>
      </trkpt>
      <trkpt lat="42.76819" lon="0.14587">
        <ele>2527</ele>
        <time>2021-01-29T14:38:27Z</time>
      </trkpt>
      <trkpt lat="42.76819" lon="0.14587">
        <ele>2527</ele>
        <time>2021-01-29T14:38:28Z</time>
      </trkpt>
      <trkpt lat="42.76819" lon="0.14587">
        <ele>2527</ele>
        <time>2021-01-29T14:38:29Z</time>
      </trkpt>
      <trkpt lat="42.76819" lon="0.14587">
        <ele>2527</ele>
        <time>2021-01-29T14:38:30Z</time>
      </trkpt>
      <trkpt lat="42.76819" lon="0.14587">
        <ele>2527.2</ele>
        <time>2021-01-29T14:38:31Z</time>
      </trkpt>
      <trkpt lat="42.76819" lon="0.14587">
        <ele>2527.4</ele>
        <time>2021-01-29T14:38:32Z</time>
      </trkpt>
      <trkpt lat="42.76819" lon="0.14587">
        <ele>2527.4</ele>
        <time>2021-01-29T14:38:33Z</time>
      </trkpt>
      <trkpt lat="42.76819" lon="0.14587">
        <ele>2527.4</ele>
        <time>2021-01-29T14:38:34Z</time>
      </trkpt>
      <trkpt lat="42.76819" lon="0.14587">
        <ele>2527.4</ele>
        <time>2021-01-29T14:38:35Z</time>
      </trkpt>
      <trkpt lat="42.76819" lon="0.14587">
        <ele>2527.2</ele>
        <time>2021-01-29T14:38:36Z</time>
      </trkpt>
      <trkpt lat="42.76819" lon="0.14587">
        <ele>2527</ele>
        <time>2021-01-29T14:38:37Z</time>
      </trkpt>
      <trkpt lat="42.76819" lon="0.14587">
        <ele>2526.8</ele>
        <time>2021-01-29T14:38:38Z</time>
      </trkpt>
      <trkpt lat="42.76819" lon="0.14587">
        <ele>2526.4</ele>
        <time>2021-01-29T14:38:39Z</time>
      </trkpt>
      <trkpt lat="42.76819" lon="0.14587">
        <ele>2526.4</ele>
        <time>2021-01-29T14:38:40Z</time>
      </trkpt>
      <trkpt lat="42.76819" lon="0.14587">
        <ele>2526.4</ele>
        <time>2021-01-29T14:38:41Z</time>
      </trkpt>
      <trkpt lat="42.76819" lon="0.14587">
        <ele>2526.2</ele>
        <time>2021-01-29T14:38:42Z</time>
      </trkpt>
      <trkpt lat="42.76819" lon="0.14587">
        <ele>2525.8</ele>
        <time>2021-01-29T14:38:43Z</time>
      </trkpt>
      <trkpt lat="42.76819" lon="0.14587">
        <ele>2525.4</ele>
        <time>2021-01-29T14:38:44Z</time>
      </trkpt>
      <trkpt lat="42.76819" lon="0.14587">
        <ele>2525</ele>
        <time>2021-01-29T14:38:45Z</time>
      </trkpt>
      <trkpt lat="42.76819" lon="0.14587">
        <ele>2524.8</ele>
        <time>2021-01-29T14:38:46Z</time>
      </trkpt>
      <trkpt lat="42.76819" lon="0.14587">
        <ele>2525</ele>
        <time>2021-01-29T14:38:47Z</time>
      </trkpt>
      <trkpt lat="42.76819" lon="0.14587">
        <ele>2525.2</ele>
        <time>2021-01-29T14:38:48Z</time>
      </trkpt>
      <trkpt lat="42.76819" lon="0.14587">
        <ele>2525.2</ele>
        <time>2021-01-29T14:38:49Z</time>
      </trkpt>
      <trkpt lat="42.76819" lon="0.14587">
        <ele>2525.4</ele>
        <time>2021-01-29T14:38:50Z</time>
      </trkpt>
      <trkpt lat="42.76819" lon="0.14587">
        <ele>2525.4</ele>
        <time>2021-01-29T14:38:51Z</time>
      </trkpt>
      <trkpt lat="42.76819" lon="0.14587">
        <ele>2525.4</ele>
        <time>2021-01-29T14:38:52Z</time>
      </trkpt>
      <trkpt lat="42.76819" lon="0.14587">
        <ele>2525.6</ele>
        <time>2021-01-29T14:38:53Z</time>
      </trkpt>
      <trkpt lat="42.76819" lon="0.14587">
        <ele>2525.6</ele>
        <time>2021-01-29T14:38:54Z</time>
      </trkpt>
      <trkpt lat="42.76819" lon="0.14587">
        <ele>2525.6</ele>
        <time>2021-01-29T14:38:55Z</time>
      </trkpt>
      <trkpt lat="42.76819" lon="0.14587">
        <ele>2525.6</ele>
        <time>2021-01-29T14:38:56Z</time>
      </trkpt>
      <trkpt lat="42.76819" lon="0.14587">
        <ele>2525.6</ele>
        <time>2021-01-29T14:38:57Z</time>
      </trkpt>
      <trkpt lat="42.76819" lon="0.14587">
        <ele>2525.6</ele>
        <time>2021-01-29T14:38:58Z</time>
      </trkpt>
      <trkpt lat="42.76819" lon="0.14587">
        <ele>2525.4</ele>
        <time>2021-01-29T14:38:59Z</time>
      </trkpt>
      <trkpt lat="42.76819" lon="0.14587">
        <ele>2525.4</ele>
        <time>2021-01-29T14:39:00Z</time>
      </trkpt>
      <trkpt lat="42.76819" lon="0.14587">
        <ele>2525.4</ele>
        <time>2021-01-29T14:39:01Z</time>
      </trkpt>
      <trkpt lat="42.76819" lon="0.14587">
        <ele>2525.4</ele>
        <time>2021-01-29T14:39:02Z</time>
      </trkpt>
      <trkpt lat="42.76819" lon="0.14587">
        <ele>2525</ele>
        <time>2021-01-29T14:39:03Z</time>
      </trkpt>
      <trkpt lat="42.76819" lon="0.14587">
        <ele>2525</ele>
        <time>2021-01-29T14:39:04Z</time>
      </trkpt>
      <trkpt lat="42.76819" lon="0.14587">
        <ele>2525</ele>
        <time>2021-01-29T14:39:05Z</time>
      </trkpt>
      <trkpt lat="42.76819" lon="0.14587">
        <ele>2524.8</ele>
        <time>2021-01-29T14:39:06Z</time>
      </trkpt>
      <trkpt lat="42.76819" lon="0.14587">
        <ele>2524.6</ele>
        <time>2021-01-29T14:39:07Z</time>
      </trkpt>
      <trkpt lat="42.76819" lon="0.14587">
        <ele>2524.4</ele>
        <time>2021-01-29T14:39:08Z</time>
      </trkpt>
      <trkpt lat="42.76819" lon="0.14587">
        <ele>2524.2</ele>
        <time>2021-01-29T14:39:09Z</time>
      </trkpt>
      <trkpt lat="42.76819" lon="0.14587">
        <ele>2524.2</ele>
        <time>2021-01-29T14:39:10Z</time>
      </trkpt>
      <trkpt lat="42.76819" lon="0.14587">
        <ele>2524.4</ele>
        <time>2021-01-29T14:39:11Z</time>
      </trkpt>
      <trkpt lat="42.76819" lon="0.14587">
        <ele>2524.6</ele>
        <time>2021-01-29T14:39:12Z</time>
      </trkpt>
      <trkpt lat="42.76819" lon="0.14587">
        <ele>2524.8</ele>
        <time>2021-01-29T14:39:13Z</time>
      </trkpt>
      <trkpt lat="42.76819" lon="0.14587">
        <ele>2525.2</ele>
        <time>2021-01-29T14:39:14Z</time>
      </trkpt>
      <trkpt lat="42.76819" lon="0.14587">
        <ele>2525.4</ele>
        <time>2021-01-29T14:39:15Z</time>
      </trkpt>
      <trkpt lat="42.76819" lon="0.14587">
        <ele>2525.6</ele>
        <time>2021-01-29T14:39:16Z</time>
      </trkpt>
      <trkpt lat="42.76819" lon="0.14587">
        <ele>2525.6</ele>
        <time>2021-01-29T14:39:17Z</time>
      </trkpt>
      <trkpt lat="42.76819" lon="0.14587">
        <ele>2525.6</ele>
        <time>2021-01-29T14:39:18Z</time>
      </trkpt>
      <trkpt lat="42.76819" lon="0.14587">
        <ele>2525.6</ele>
        <time>2021-01-29T14:39:19Z</time>
      </trkpt>
      <trkpt lat="42.76819" lon="0.14587">
        <ele>2525.6</ele>
        <time>2021-01-29T14:39:20Z</time>
      </trkpt>
      <trkpt lat="42.76819" lon="0.14587">
        <ele>2525.4</ele>
        <time>2021-01-29T14:39:21Z</time>
      </trkpt>
      <trkpt lat="42.76819" lon="0.14587">
        <ele>2525.2</ele>
        <time>2021-01-29T14:39:22Z</time>
      </trkpt>
      <trkpt lat="42.76819" lon="0.14587">
        <ele>2525.2</ele>
        <time>2021-01-29T14:39:23Z</time>
      </trkpt>
      <trkpt lat="42.76819" lon="0.14587">
        <ele>2525.2</ele>
        <time>2021-01-29T14:39:24Z</time>
      </trkpt>
      <trkpt lat="42.76819" lon="0.14587">
        <ele>2525.2</ele>
        <time>2021-01-29T14:39:25Z</time>
      </trkpt>
      <trkpt lat="42.76819" lon="0.14587">
        <ele>2525.2</ele>
        <time>2021-01-29T14:39:26Z</time>
      </trkpt>
      <trkpt lat="42.76819" lon="0.14587">
        <ele>2525</ele>
        <time>2021-01-29T14:39:27Z</time>
      </trkpt>
      <trkpt lat="42.76819" lon="0.14587">
        <ele>2525.2</ele>
        <time>2021-01-29T14:39:28Z</time>
      </trkpt>
      <trkpt lat="42.76819" lon="0.14587">
        <ele>2525.2</ele>
        <time>2021-01-29T14:39:29Z</time>
      </trkpt>
      <trkpt lat="42.76819" lon="0.14587">
        <ele>2525</ele>
        <time>2021-01-29T14:39:30Z</time>
      </trkpt>
      <trkpt lat="42.76819" lon="0.14587">
        <ele>2525.2</ele>
        <time>2021-01-29T14:39:31Z</time>
      </trkpt>
      <trkpt lat="42.76819" lon="0.14587">
        <ele>2525.2</ele>
        <time>2021-01-29T14:39:32Z</time>
      </trkpt>
      <trkpt lat="42.76819" lon="0.14587">
        <ele>2525.4</ele>
        <time>2021-01-29T14:39:33Z</time>
      </trkpt>
      <trkpt lat="42.76819" lon="0.14587">
        <ele>2525.4</ele>
        <time>2021-01-29T14:39:34Z</time>
      </trkpt>
      <trkpt lat="42.76819" lon="0.14587">
        <ele>2525.4</ele>
        <time>2021-01-29T14:39:35Z</time>
      </trkpt>
      <trkpt lat="42.76819" lon="0.14587">
        <ele>2525.4</ele>
        <time>2021-01-29T14:39:36Z</time>
      </trkpt>
      <trkpt lat="42.76819" lon="0.14587">
        <ele>2525.2</ele>
        <time>2021-01-29T14:39:37Z</time>
      </trkpt>
      <trkpt lat="42.76819" lon="0.14587">
        <ele>2525</ele>
        <time>2021-01-29T14:39:38Z</time>
      </trkpt>
      <trkpt lat="42.76819" lon="0.14587">
        <ele>2524.6</ele>
        <time>2021-01-29T14:39:39Z</time>
      </trkpt>
      <trkpt lat="42.76819" lon="0.14587">
        <ele>2524.4</ele>
        <time>2021-01-29T14:39:40Z</time>
      </trkpt>
      <trkpt lat="42.76819" lon="0.14587">
        <ele>2524.6</ele>
        <time>2021-01-29T14:39:41Z</time>
      </trkpt>
      <trkpt lat="42.76819" lon="0.14587">
        <ele>2525</ele>
        <time>2021-01-29T14:39:42Z</time>
      </trkpt>
      <trkpt lat="42.76819" lon="0.14587">
        <ele>2525.2</ele>
        <time>2021-01-29T14:39:43Z</time>
      </trkpt>
      <trkpt lat="42.76819" lon="0.14587">
        <ele>2525.2</ele>
        <time>2021-01-29T14:39:44Z</time>
      </trkpt>
      <trkpt lat="42.76819" lon="0.14587">
        <ele>2525.2</ele>
        <time>2021-01-29T14:39:45Z</time>
      </trkpt>
      <trkpt lat="42.76819" lon="0.14587">
        <ele>2525.2</ele>
        <time>2021-01-29T14:39:46Z</time>
      </trkpt>
      <trkpt lat="42.76819" lon="0.14587">
        <ele>2525.2</ele>
        <time>2021-01-29T14:39:47Z</time>
      </trkpt>
      <trkpt lat="42.76819" lon="0.14587">
        <ele>2525.2</ele>
        <time>2021-01-29T14:39:48Z</time>
      </trkpt>
      <trkpt lat="42.76819" lon="0.14587">
        <ele>2525.4</ele>
        <time>2021-01-29T14:39:49Z</time>
      </trkpt>
      <trkpt lat="42.76819" lon="0.14587">
        <ele>2525.2</ele>
        <time>2021-01-29T14:39:50Z</time>
      </trkpt>
      <trkpt lat="42.76819" lon="0.14587">
        <ele>2525.4</ele>
        <time>2021-01-29T14:39:51Z</time>
      </trkpt>
      <trkpt lat="42.76819" lon="0.14587">
        <ele>2525.6</ele>
        <time>2021-01-29T14:39:52Z</time>
      </trkpt>
      <trkpt lat="42.76819" lon="0.14587">
        <ele>2526</ele>
        <time>2021-01-29T14:39:53Z</time>
      </trkpt>
      <trkpt lat="42.76819" lon="0.14587">
        <ele>2525.6</ele>
        <time>2021-01-29T14:39:54Z</time>
      </trkpt>
      <trkpt lat="42.76819" lon="0.14587">
        <ele>2525.6</ele>
        <time>2021-01-29T14:39:55Z</time>
      </trkpt>
      <trkpt lat="42.76819" lon="0.14587">
        <ele>2525.6</ele>
        <time>2021-01-29T14:39:56Z</time>
      </trkpt>
      <trkpt lat="42.76819" lon="0.14587">
        <ele>2525.8</ele>
        <time>2021-01-29T14:39:57Z</time>
      </trkpt>
      <trkpt lat="42.76819" lon="0.14587">
        <ele>2526</ele>
        <time>2021-01-29T14:39:58Z</time>
      </trkpt>
      <trkpt lat="42.76819" lon="0.14587">
        <ele>2526</ele>
        <time>2021-01-29T14:39:59Z</time>
      </trkpt>
      <trkpt lat="42.76819" lon="0.14587">
        <ele>2526</ele>
        <time>2021-01-29T14:40:00Z</time>
      </trkpt>
      <trkpt lat="42.76819" lon="0.14587">
        <ele>2526.2</ele>
        <time>2021-01-29T14:40:01Z</time>
      </trkpt>
      <trkpt lat="42.76819" lon="0.14587">
        <ele>2526.2</ele>
        <time>2021-01-29T14:40:02Z</time>
      </trkpt>
      <trkpt lat="42.76819" lon="0.14587">
        <ele>2526.2</ele>
        <time>2021-01-29T14:40:03Z</time>
      </trkpt>
      <trkpt lat="42.76819" lon="0.14587">
        <ele>2526.2</ele>
        <time>2021-01-29T14:40:04Z</time>
      </trkpt>
      <trkpt lat="42.76819" lon="0.14587">
        <ele>2526</ele>
        <time>2021-01-29T14:40:05Z</time>
      </trkpt>
      <trkpt lat="42.76819" lon="0.14587">
        <ele>2526</ele>
        <time>2021-01-29T14:40:06Z</time>
      </trkpt>
      <trkpt lat="42.76819" lon="0.14587">
        <ele>2526.2</ele>
        <time>2021-01-29T14:40:07Z</time>
      </trkpt>
      <trkpt lat="42.76819" lon="0.14587">
        <ele>2526.4</ele>
        <time>2021-01-29T14:40:08Z</time>
      </trkpt>
      <trkpt lat="42.76819" lon="0.14587">
        <ele>2526.4</ele>
        <time>2021-01-29T14:40:09Z</time>
      </trkpt>
      <trkpt lat="42.76819" lon="0.14587">
        <ele>2526.2</ele>
        <time>2021-01-29T14:40:10Z</time>
      </trkpt>
      <trkpt lat="42.76819" lon="0.14587">
        <ele>2526</ele>
        <time>2021-01-29T14:40:11Z</time>
      </trkpt>
      <trkpt lat="42.76819" lon="0.14587">
        <ele>2526</ele>
        <time>2021-01-29T14:40:12Z</time>
      </trkpt>
      <trkpt lat="42.76819" lon="0.14587">
        <ele>2526</ele>
        <time>2021-01-29T14:40:13Z</time>
      </trkpt>
      <trkpt lat="42.76819" lon="0.14587">
        <ele>2526</ele>
        <time>2021-01-29T14:40:14Z</time>
      </trkpt>
      <trkpt lat="42.76819" lon="0.14587">
        <ele>2525.8</ele>
        <time>2021-01-29T14:40:15Z</time>
      </trkpt>
      <trkpt lat="42.76819" lon="0.14587">
        <ele>2525.8</ele>
        <time>2021-01-29T14:40:16Z</time>
      </trkpt>
      <trkpt lat="42.76819" lon="0.14587">
        <ele>2526</ele>
        <time>2021-01-29T14:40:17Z</time>
      </trkpt>
      <trkpt lat="42.76819" lon="0.14587">
        <ele>2526.2</ele>
        <time>2021-01-29T14:40:18Z</time>
      </trkpt>
      <trkpt lat="42.76819" lon="0.14587">
        <ele>2526.2</ele>
        <time>2021-01-29T14:40:19Z</time>
      </trkpt>
      <trkpt lat="42.76819" lon="0.14587">
        <ele>2526.4</ele>
        <time>2021-01-29T14:40:20Z</time>
      </trkpt>
      <trkpt lat="42.76819" lon="0.14587">
        <ele>2526.6</ele>
        <time>2021-01-29T14:40:21Z</time>
      </trkpt>
      <trkpt lat="42.76819" lon="0.14587">
        <ele>2526.8</ele>
        <time>2021-01-29T14:40:22Z</time>
      </trkpt>
      <trkpt lat="42.76819" lon="0.14587">
        <ele>2526.8</ele>
        <time>2021-01-29T14:40:23Z</time>
      </trkpt>
      <trkpt lat="42.76819" lon="0.14587">
        <ele>2526.8</ele>
        <time>2021-01-29T14:40:24Z</time>
      </trkpt>
      <trkpt lat="42.76819" lon="0.14587">
        <ele>2526.8</ele>
        <time>2021-01-29T14:40:25Z</time>
      </trkpt>
      <trkpt lat="42.76819" lon="0.14587">
        <ele>2526.8</ele>
        <time>2021-01-29T14:40:26Z</time>
      </trkpt>
      <trkpt lat="42.76819" lon="0.14587">
        <ele>2526.4</ele>
        <time>2021-01-29T14:40:27Z</time>
      </trkpt>
      <trkpt lat="42.76819" lon="0.14587">
        <ele>2526.8</ele>
        <time>2021-01-29T14:40:28Z</time>
      </trkpt>
      <trkpt lat="42.76819" lon="0.14587">
        <ele>2527.2</ele>
        <time>2021-01-29T14:40:29Z</time>
      </trkpt>
      <trkpt lat="42.76819" lon="0.14587">
        <ele>2527.2</ele>
        <time>2021-01-29T14:40:30Z</time>
      </trkpt>
      <trkpt lat="42.76819" lon="0.14587">
        <ele>2527.2</ele>
        <time>2021-01-29T14:40:31Z</time>
      </trkpt>
      <trkpt lat="42.76819" lon="0.14587">
        <ele>2527.2</ele>
        <time>2021-01-29T14:40:32Z</time>
      </trkpt>
      <trkpt lat="42.76819" lon="0.14587">
        <ele>2527.4</ele>
        <time>2021-01-29T14:40:33Z</time>
      </trkpt>
      <trkpt lat="42.76819" lon="0.14587">
        <ele>2527.6</ele>
        <time>2021-01-29T14:40:34Z</time>
      </trkpt>
      <trkpt lat="42.76819" lon="0.14587">
        <ele>2527.8</ele>
        <time>2021-01-29T14:40:35Z</time>
      </trkpt>
      <trkpt lat="42.76819" lon="0.14587">
        <ele>2527.8</ele>
        <time>2021-01-29T14:40:36Z</time>
      </trkpt>
      <trkpt lat="42.76819" lon="0.14587">
        <ele>2527.6</ele>
        <time>2021-01-29T14:40:37Z</time>
      </trkpt>
      <trkpt lat="42.76819" lon="0.14587">
        <ele>2527.6</ele>
        <time>2021-01-29T14:40:38Z</time>
      </trkpt>
      <trkpt lat="42.76819" lon="0.14587">
        <ele>2527.4</ele>
        <time>2021-01-29T14:40:39Z</time>
      </trkpt>
      <trkpt lat="42.76819" lon="0.14587">
        <ele>2527.2</ele>
        <time>2021-01-29T14:40:40Z</time>
      </trkpt>
      <trkpt lat="42.76819" lon="0.14587">
        <ele>2527.2</ele>
        <time>2021-01-29T14:40:41Z</time>
      </trkpt>
      <trkpt lat="42.76819" lon="0.14587">
        <ele>2527.2</ele>
        <time>2021-01-29T14:40:42Z</time>
      </trkpt>
      <trkpt lat="42.76819" lon="0.14587">
        <ele>2527</ele>
        <time>2021-01-29T14:40:43Z</time>
      </trkpt>
      <trkpt lat="42.76819" lon="0.14587">
        <ele>2527</ele>
        <time>2021-01-29T14:40:44Z</time>
      </trkpt>
      <trkpt lat="42.76819" lon="0.14587">
        <ele>2526.8</ele>
        <time>2021-01-29T14:40:45Z</time>
      </trkpt>
      <trkpt lat="42.76819" lon="0.14587">
        <ele>2526.6</ele>
        <time>2021-01-29T14:40:46Z</time>
      </trkpt>
      <trkpt lat="42.76819" lon="0.14587">
        <ele>2526.6</ele>
        <time>2021-01-29T14:40:47Z</time>
      </trkpt>
      <trkpt lat="42.76819" lon="0.14587">
        <ele>2526.6</ele>
        <time>2021-01-29T14:40:48Z</time>
      </trkpt>
      <trkpt lat="42.76819" lon="0.14587">
        <ele>2526.6</ele>
        <time>2021-01-29T14:40:49Z</time>
      </trkpt>
      <trkpt lat="42.76819" lon="0.14587">
        <ele>2526.6</ele>
        <time>2021-01-29T14:40:50Z</time>
      </trkpt>
      <trkpt lat="42.76819" lon="0.14587">
        <ele>2526.8</ele>
        <time>2021-01-29T14:40:51Z</time>
      </trkpt>
      <trkpt lat="42.76819" lon="0.14587">
        <ele>2526.8</ele>
        <time>2021-01-29T14:40:52Z</time>
      </trkpt>
      <trkpt lat="42.76819" lon="0.14587">
        <ele>2526.8</ele>
        <time>2021-01-29T14:40:53Z</time>
      </trkpt>
      <trkpt lat="42.76819" lon="0.14587">
        <ele>2526.8</ele>
        <time>2021-01-29T14:40:54Z</time>
      </trkpt>
      <trkpt lat="42.76819" lon="0.14587">
        <ele>2526.8</ele>
        <time>2021-01-29T14:40:55Z</time>
      </trkpt>
      <trkpt lat="42.76819" lon="0.14587">
        <ele>2526.8</ele>
        <time>2021-01-29T14:40:56Z</time>
      </trkpt>
      <trkpt lat="42.76819" lon="0.14587">
        <ele>2526.8</ele>
        <time>2021-01-29T14:40:57Z</time>
      </trkpt>
      <trkpt lat="42.76819" lon="0.14587">
        <ele>2526.8</ele>
        <time>2021-01-29T14:40:58Z</time>
      </trkpt>
      <trkpt lat="42.76819" lon="0.14587">
        <ele>2526.8</ele>
        <time>2021-01-29T14:40:59Z</time>
      </trkpt>
      <trkpt lat="42.76819" lon="0.14587">
        <ele>2527</ele>
        <time>2021-01-29T14:41:00Z</time>
      </trkpt>
      <trkpt lat="42.76819" lon="0.14587">
        <ele>2527.4</ele>
        <time>2021-01-29T14:41:01Z</time>
      </trkpt>
      <trkpt lat="42.76819" lon="0.14587">
        <ele>2527.8</ele>
        <time>2021-01-29T14:41:02Z</time>
      </trkpt>
      <trkpt lat="42.76819" lon="0.14587">
        <ele>2527.6</ele>
        <time>2021-01-29T14:41:03Z</time>
      </trkpt>
      <trkpt lat="42.76819" lon="0.14587">
        <ele>2527.4</ele>
        <time>2021-01-29T14:41:04Z</time>
      </trkpt>
      <trkpt lat="42.76819" lon="0.14587">
        <ele>2527.2</ele>
        <time>2021-01-29T14:41:05Z</time>
      </trkpt>
      <trkpt lat="42.76819" lon="0.14587">
        <ele>2527</ele>
        <time>2021-01-29T14:41:06Z</time>
      </trkpt>
      <trkpt lat="42.76819" lon="0.14587">
        <ele>2526.8</ele>
        <time>2021-01-29T14:41:07Z</time>
      </trkpt>
      <trkpt lat="42.76819" lon="0.14587">
        <ele>2526.8</ele>
        <time>2021-01-29T14:41:08Z</time>
      </trkpt>
      <trkpt lat="42.76819" lon="0.14587">
        <ele>2526.6</ele>
        <time>2021-01-29T14:41:09Z</time>
      </trkpt>
      <trkpt lat="42.76819" lon="0.14587">
        <ele>2526.4</ele>
        <time>2021-01-29T14:41:10Z</time>
      </trkpt>
      <trkpt lat="42.76819" lon="0.14587">
        <ele>2526.2</ele>
        <time>2021-01-29T14:41:11Z</time>
      </trkpt>
      <trkpt lat="42.76819" lon="0.14587">
        <ele>2526</ele>
        <time>2021-01-29T14:41:12Z</time>
      </trkpt>
      <trkpt lat="42.76819" lon="0.14587">
        <ele>2526</ele>
        <time>2021-01-29T14:41:13Z</time>
      </trkpt>
      <trkpt lat="42.76819" lon="0.14587">
        <ele>2525.8</ele>
        <time>2021-01-29T14:41:14Z</time>
      </trkpt>
      <trkpt lat="42.76819" lon="0.14587">
        <ele>2525.8</ele>
        <time>2021-01-29T14:41:15Z</time>
      </trkpt>
      <trkpt lat="42.76819" lon="0.14587">
        <ele>2525.6</ele>
        <time>2021-01-29T14:41:16Z</time>
      </trkpt>
      <trkpt lat="42.76819" lon="0.14587">
        <ele>2525.6</ele>
        <time>2021-01-29T14:41:17Z</time>
      </trkpt>
      <trkpt lat="42.76819" lon="0.14587">
        <ele>2525.4</ele>
        <time>2021-01-29T14:41:18Z</time>
      </trkpt>
      <trkpt lat="42.76819" lon="0.14587">
        <ele>2525.4</ele>
        <time>2021-01-29T14:41:19Z</time>
      </trkpt>
      <trkpt lat="42.76819" lon="0.14587">
        <ele>2525.2</ele>
        <time>2021-01-29T14:41:20Z</time>
      </trkpt>
      <trkpt lat="42.76819" lon="0.14587">
        <ele>2525.2</ele>
        <time>2021-01-29T14:41:21Z</time>
      </trkpt>
      <trkpt lat="42.76819" lon="0.14587">
        <ele>2525.2</ele>
        <time>2021-01-29T14:41:22Z</time>
      </trkpt>
      <trkpt lat="42.76819" lon="0.14587">
        <ele>2525</ele>
        <time>2021-01-29T14:41:23Z</time>
      </trkpt>
      <trkpt lat="42.76819" lon="0.14587">
        <ele>2525</ele>
        <time>2021-01-29T14:41:24Z</time>
      </trkpt>
      <trkpt lat="42.76819" lon="0.14587">
        <ele>2525</ele>
        <time>2021-01-29T14:41:25Z</time>
      </trkpt>
      <trkpt lat="42.76819" lon="0.14586">
        <ele>2525</ele>
        <time>2021-01-29T14:41:26Z</time>
      </trkpt>
      <trkpt lat="42.7682" lon="0.14585">
        <ele>2525</ele>
        <time>2021-01-29T14:41:27Z</time>
      </trkpt>
      <trkpt lat="42.7682" lon="0.14585">
        <ele>2525</ele>
        <time>2021-01-29T14:41:28Z</time>
      </trkpt>
      <trkpt lat="42.7682" lon="0.14585">
        <ele>2524.8</ele>
        <time>2021-01-29T14:41:29Z</time>
      </trkpt>
      <trkpt lat="42.7682" lon="0.14585">
        <ele>2524.8</ele>
        <time>2021-01-29T14:41:30Z</time>
      </trkpt>
      <trkpt lat="42.7682" lon="0.14585">
        <ele>2524.8</ele>
        <time>2021-01-29T14:41:31Z</time>
      </trkpt>
      <trkpt lat="42.7682" lon="0.14585">
        <ele>2525</ele>
        <time>2021-01-29T14:41:32Z</time>
      </trkpt>
      <trkpt lat="42.7682" lon="0.14585">
        <ele>2525</ele>
        <time>2021-01-29T14:41:33Z</time>
      </trkpt>
      <trkpt lat="42.7682" lon="0.14585">
        <ele>2525</ele>
        <time>2021-01-29T14:41:34Z</time>
      </trkpt>
      <trkpt lat="42.7682" lon="0.14585">
        <ele>2525</ele>
        <time>2021-01-29T14:41:35Z</time>
      </trkpt>
      <trkpt lat="42.7682" lon="0.14585">
        <ele>2524.8</ele>
        <time>2021-01-29T14:41:36Z</time>
      </trkpt>
      <trkpt lat="42.7682" lon="0.14585">
        <ele>2524.8</ele>
        <time>2021-01-29T14:41:37Z</time>
      </trkpt>
      <trkpt lat="42.7682" lon="0.14585">
        <ele>2524.8</ele>
        <time>2021-01-29T14:41:38Z</time>
      </trkpt>
      <trkpt lat="42.7682" lon="0.14585">
        <ele>2525</ele>
        <time>2021-01-29T14:41:39Z</time>
      </trkpt>
      <trkpt lat="42.7682" lon="0.14585">
        <ele>2525</ele>
        <time>2021-01-29T14:41:40Z</time>
      </trkpt>
      <trkpt lat="42.7682" lon="0.14585">
        <ele>2525.2</ele>
        <time>2021-01-29T14:41:41Z</time>
      </trkpt>
      <trkpt lat="42.7682" lon="0.14585">
        <ele>2525.2</ele>
        <time>2021-01-29T14:41:42Z</time>
      </trkpt>
      <trkpt lat="42.7682" lon="0.14585">
        <ele>2525.2</ele>
        <time>2021-01-29T14:41:43Z</time>
      </trkpt>
      <trkpt lat="42.7682" lon="0.14585">
        <ele>2525</ele>
        <time>2021-01-29T14:41:44Z</time>
      </trkpt>
      <trkpt lat="42.7682" lon="0.14585">
        <ele>2525</ele>
        <time>2021-01-29T14:41:45Z</time>
      </trkpt>
      <trkpt lat="42.7682" lon="0.14585">
        <ele>2524.8</ele>
        <time>2021-01-29T14:41:46Z</time>
      </trkpt>
      <trkpt lat="42.7682" lon="0.14585">
        <ele>2524.8</ele>
        <time>2021-01-29T14:41:47Z</time>
      </trkpt>
      <trkpt lat="42.7682" lon="0.14585">
        <ele>2524.6</ele>
        <time>2021-01-29T14:41:48Z</time>
      </trkpt>
      <trkpt lat="42.7682" lon="0.14585">
        <ele>2524.6</ele>
        <time>2021-01-29T14:41:49Z</time>
      </trkpt>
      <trkpt lat="42.7682" lon="0.14585">
        <ele>2524.4</ele>
        <time>2021-01-29T14:41:50Z</time>
      </trkpt>
      <trkpt lat="42.7682" lon="0.14585">
        <ele>2524.2</ele>
        <time>2021-01-29T14:41:51Z</time>
      </trkpt>
      <trkpt lat="42.7682" lon="0.14585">
        <ele>2524</ele>
        <time>2021-01-29T14:41:52Z</time>
      </trkpt>
      <trkpt lat="42.7682" lon="0.14585">
        <ele>2524</ele>
        <time>2021-01-29T14:41:53Z</time>
      </trkpt>
      <trkpt lat="42.7682" lon="0.14585">
        <ele>2524</ele>
        <time>2021-01-29T14:41:54Z</time>
      </trkpt>
      <trkpt lat="42.7682" lon="0.14585">
        <ele>2524</ele>
        <time>2021-01-29T14:41:55Z</time>
      </trkpt>
      <trkpt lat="42.7682" lon="0.14585">
        <ele>2524</ele>
        <time>2021-01-29T14:41:56Z</time>
      </trkpt>
      <trkpt lat="42.7682" lon="0.14585">
        <ele>2524</ele>
        <time>2021-01-29T14:41:57Z</time>
      </trkpt>
      <trkpt lat="42.7682" lon="0.14585">
        <ele>2524.2</ele>
        <time>2021-01-29T14:41:58Z</time>
      </trkpt>
      <trkpt lat="42.7682" lon="0.14585">
        <ele>2524.4</ele>
        <time>2021-01-29T14:41:59Z</time>
      </trkpt>
      <trkpt lat="42.7682" lon="0.14585">
        <ele>2524.4</ele>
        <time>2021-01-29T14:42:00Z</time>
      </trkpt>
      <trkpt lat="42.7682" lon="0.14585">
        <ele>2524.4</ele>
        <time>2021-01-29T14:42:01Z</time>
      </trkpt>
      <trkpt lat="42.7682" lon="0.14585">
        <ele>2524.6</ele>
        <time>2021-01-29T14:42:02Z</time>
      </trkpt>
      <trkpt lat="42.7682" lon="0.14585">
        <ele>2524.6</ele>
        <time>2021-01-29T14:42:03Z</time>
      </trkpt>
      <trkpt lat="42.7682" lon="0.14585">
        <ele>2524.4</ele>
        <time>2021-01-29T14:42:04Z</time>
      </trkpt>
      <trkpt lat="42.7682" lon="0.14585">
        <ele>2524.4</ele>
        <time>2021-01-29T14:42:05Z</time>
      </trkpt>
      <trkpt lat="42.7682" lon="0.14585">
        <ele>2524.4</ele>
        <time>2021-01-29T14:42:06Z</time>
      </trkpt>
      <trkpt lat="42.7682" lon="0.14585">
        <ele>2524.4</ele>
        <time>2021-01-29T14:42:07Z</time>
      </trkpt>
      <trkpt lat="42.7682" lon="0.14585">
        <ele>2524.4</ele>
        <time>2021-01-29T14:42:08Z</time>
      </trkpt>
      <trkpt lat="42.7682" lon="0.14585">
        <ele>2524.6</ele>
        <time>2021-01-29T14:42:09Z</time>
      </trkpt>
      <trkpt lat="42.7682" lon="0.14585">
        <ele>2524.6</ele>
        <time>2021-01-29T14:42:10Z</time>
      </trkpt>
      <trkpt lat="42.7682" lon="0.14585">
        <ele>2524.6</ele>
        <time>2021-01-29T14:42:11Z</time>
      </trkpt>
      <trkpt lat="42.7682" lon="0.14585">
        <ele>2524.6</ele>
        <time>2021-01-29T14:42:12Z</time>
      </trkpt>
      <trkpt lat="42.7682" lon="0.14585">
        <ele>2524.4</ele>
        <time>2021-01-29T14:42:13Z</time>
      </trkpt>
      <trkpt lat="42.7682" lon="0.14585">
        <ele>2524.2</ele>
        <time>2021-01-29T14:42:14Z</time>
      </trkpt>
      <trkpt lat="42.7682" lon="0.14585">
        <ele>2524.2</ele>
        <time>2021-01-29T14:42:15Z</time>
      </trkpt>
      <trkpt lat="42.7682" lon="0.14585">
        <ele>2524.2</ele>
        <time>2021-01-29T14:42:16Z</time>
      </trkpt>
      <trkpt lat="42.7682" lon="0.14585">
        <ele>2524.2</ele>
        <time>2021-01-29T14:42:17Z</time>
      </trkpt>
      <trkpt lat="42.7682" lon="0.14585">
        <ele>2524.2</ele>
        <time>2021-01-29T14:42:18Z</time>
      </trkpt>
      <trkpt lat="42.7682" lon="0.14585">
        <ele>2524.2</ele>
        <time>2021-01-29T14:42:19Z</time>
      </trkpt>
      <trkpt lat="42.7682" lon="0.14585">
        <ele>2524.2</ele>
        <time>2021-01-29T14:42:20Z</time>
      </trkpt>
      <trkpt lat="42.7682" lon="0.14585">
        <ele>2524.2</ele>
        <time>2021-01-29T14:42:21Z</time>
      </trkpt>
      <trkpt lat="42.7682" lon="0.14585">
        <ele>2524</ele>
        <time>2021-01-29T14:42:22Z</time>
      </trkpt>
      <trkpt lat="42.7682" lon="0.14585">
        <ele>2524</ele>
        <time>2021-01-29T14:42:23Z</time>
      </trkpt>
      <trkpt lat="42.7682" lon="0.14585">
        <ele>2524</ele>
        <time>2021-01-29T14:42:24Z</time>
      </trkpt>
      <trkpt lat="42.7682" lon="0.14585">
        <ele>2524</ele>
        <time>2021-01-29T14:42:25Z</time>
      </trkpt>
      <trkpt lat="42.7682" lon="0.14585">
        <ele>2524.4</ele>
        <time>2021-01-29T14:42:26Z</time>
      </trkpt>
      <trkpt lat="42.7682" lon="0.14585">
        <ele>2524.6</ele>
        <time>2021-01-29T14:42:27Z</time>
      </trkpt>
      <trkpt lat="42.7682" lon="0.14585">
        <ele>2524.6</ele>
        <time>2021-01-29T14:42:28Z</time>
      </trkpt>
      <trkpt lat="42.7682" lon="0.14585">
        <ele>2524.8</ele>
        <time>2021-01-29T14:42:29Z</time>
      </trkpt>
      <trkpt lat="42.7682" lon="0.14585">
        <ele>2524.8</ele>
        <time>2021-01-29T14:42:30Z</time>
      </trkpt>
      <trkpt lat="42.7682" lon="0.14585">
        <ele>2524.8</ele>
        <time>2021-01-29T14:42:31Z</time>
      </trkpt>
      <trkpt lat="42.7682" lon="0.14585">
        <ele>2525</ele>
        <time>2021-01-29T14:42:32Z</time>
      </trkpt>
      <trkpt lat="42.7682" lon="0.14585">
        <ele>2525</ele>
        <time>2021-01-29T14:42:33Z</time>
      </trkpt>
      <trkpt lat="42.7682" lon="0.14585">
        <ele>2525</ele>
        <time>2021-01-29T14:42:34Z</time>
      </trkpt>
      <trkpt lat="42.7682" lon="0.14585">
        <ele>2525</ele>
        <time>2021-01-29T14:42:35Z</time>
      </trkpt>
      <trkpt lat="42.7682" lon="0.14585">
        <ele>2525</ele>
        <time>2021-01-29T14:42:36Z</time>
      </trkpt>
      <trkpt lat="42.7682" lon="0.14585">
        <ele>2524.8</ele>
        <time>2021-01-29T14:42:37Z</time>
      </trkpt>
      <trkpt lat="42.7682" lon="0.14585">
        <ele>2524.6</ele>
        <time>2021-01-29T14:42:38Z</time>
      </trkpt>
      <trkpt lat="42.7682" lon="0.14585">
        <ele>2524.6</ele>
        <time>2021-01-29T14:42:39Z</time>
      </trkpt>
      <trkpt lat="42.7682" lon="0.14585">
        <ele>2524.6</ele>
        <time>2021-01-29T14:42:40Z</time>
      </trkpt>
      <trkpt lat="42.7682" lon="0.14585">
        <ele>2524.6</ele>
        <time>2021-01-29T14:42:41Z</time>
      </trkpt>
      <trkpt lat="42.7682" lon="0.14585">
        <ele>2524.6</ele>
        <time>2021-01-29T14:42:42Z</time>
      </trkpt>
      <trkpt lat="42.7682" lon="0.14585">
        <ele>2524.6</ele>
        <time>2021-01-29T14:42:43Z</time>
      </trkpt>
      <trkpt lat="42.7682" lon="0.14585">
        <ele>2524.6</ele>
        <time>2021-01-29T14:42:44Z</time>
      </trkpt>
      <trkpt lat="42.7682" lon="0.14585">
        <ele>2524.6</ele>
        <time>2021-01-29T14:42:45Z</time>
      </trkpt>
      <trkpt lat="42.7682" lon="0.14585">
        <ele>2524.4</ele>
        <time>2021-01-29T14:42:46Z</time>
      </trkpt>
      <trkpt lat="42.7682" lon="0.14585">
        <ele>2524.4</ele>
        <time>2021-01-29T14:42:47Z</time>
      </trkpt>
      <trkpt lat="42.7682" lon="0.14585">
        <ele>2524.6</ele>
        <time>2021-01-29T14:42:48Z</time>
      </trkpt>
      <trkpt lat="42.7682" lon="0.14585">
        <ele>2524.8</ele>
        <time>2021-01-29T14:42:49Z</time>
      </trkpt>
      <trkpt lat="42.7682" lon="0.14585">
        <ele>2524.8</ele>
        <time>2021-01-29T14:42:50Z</time>
      </trkpt>
      <trkpt lat="42.7682" lon="0.14585">
        <ele>2525</ele>
        <time>2021-01-29T14:42:51Z</time>
      </trkpt>
      <trkpt lat="42.7682" lon="0.14585">
        <ele>2525</ele>
        <time>2021-01-29T14:42:52Z</time>
      </trkpt>
      <trkpt lat="42.7682" lon="0.14585">
        <ele>2525</ele>
        <time>2021-01-29T14:42:53Z</time>
      </trkpt>
      <trkpt lat="42.7682" lon="0.14585">
        <ele>2525</ele>
        <time>2021-01-29T14:42:54Z</time>
      </trkpt>
      <trkpt lat="42.7682" lon="0.14585">
        <ele>2525</ele>
        <time>2021-01-29T14:42:55Z</time>
      </trkpt>
      <trkpt lat="42.7682" lon="0.14585">
        <ele>2524.8</ele>
        <time>2021-01-29T14:42:56Z</time>
      </trkpt>
      <trkpt lat="42.7682" lon="0.14585">
        <ele>2524.8</ele>
        <time>2021-01-29T14:42:57Z</time>
      </trkpt>
      <trkpt lat="42.7682" lon="0.14585">
        <ele>2524.8</ele>
        <time>2021-01-29T14:42:58Z</time>
      </trkpt>
      <trkpt lat="42.7682" lon="0.14585">
        <ele>2524.6</ele>
        <time>2021-01-29T14:42:59Z</time>
      </trkpt>
      <trkpt lat="42.7682" lon="0.14585">
        <ele>2524.6</ele>
        <time>2021-01-29T14:43:00Z</time>
      </trkpt>
      <trkpt lat="42.7682" lon="0.14585">
        <ele>2524.4</ele>
        <time>2021-01-29T14:43:01Z</time>
      </trkpt>
      <trkpt lat="42.7682" lon="0.14585">
        <ele>2524.4</ele>
        <time>2021-01-29T14:43:02Z</time>
      </trkpt>
      <trkpt lat="42.7682" lon="0.14585">
        <ele>2524.2</ele>
        <time>2021-01-29T14:43:03Z</time>
      </trkpt>
      <trkpt lat="42.7682" lon="0.14585">
        <ele>2524.2</ele>
        <time>2021-01-29T14:43:04Z</time>
      </trkpt>
      <trkpt lat="42.7682" lon="0.14585">
        <ele>2524</ele>
        <time>2021-01-29T14:43:05Z</time>
      </trkpt>
      <trkpt lat="42.7682" lon="0.14585">
        <ele>2524</ele>
        <time>2021-01-29T14:43:06Z</time>
      </trkpt>
      <trkpt lat="42.7682" lon="0.14585">
        <ele>2523.8</ele>
        <time>2021-01-29T14:43:07Z</time>
      </trkpt>
      <trkpt lat="42.7682" lon="0.14585">
        <ele>2523.8</ele>
        <time>2021-01-29T14:43:08Z</time>
      </trkpt>
      <trkpt lat="42.7682" lon="0.14585">
        <ele>2523.8</ele>
        <time>2021-01-29T14:43:09Z</time>
      </trkpt>
      <trkpt lat="42.7682" lon="0.14585">
        <ele>2523.8</ele>
        <time>2021-01-29T14:43:10Z</time>
      </trkpt>
      <trkpt lat="42.7682" lon="0.14585">
        <ele>2523.6</ele>
        <time>2021-01-29T14:43:11Z</time>
      </trkpt>
      <trkpt lat="42.7682" lon="0.14585">
        <ele>2523.6</ele>
        <time>2021-01-29T14:43:12Z</time>
      </trkpt>
      <trkpt lat="42.7682" lon="0.14585">
        <ele>2523.8</ele>
        <time>2021-01-29T14:43:13Z</time>
      </trkpt>
      <trkpt lat="42.7682" lon="0.14585">
        <ele>2523.8</ele>
        <time>2021-01-29T14:43:14Z</time>
      </trkpt>
      <trkpt lat="42.7682" lon="0.14585">
        <ele>2524</ele>
        <time>2021-01-29T14:43:15Z</time>
      </trkpt>
      <trkpt lat="42.7682" lon="0.14585">
        <ele>2524.2</ele>
        <time>2021-01-29T14:43:16Z</time>
      </trkpt>
      <trkpt lat="42.7682" lon="0.14585">
        <ele>2524.4</ele>
        <time>2021-01-29T14:43:17Z</time>
      </trkpt>
      <trkpt lat="42.7682" lon="0.14585">
        <ele>2524.4</ele>
        <time>2021-01-29T14:43:18Z</time>
      </trkpt>
      <trkpt lat="42.7682" lon="0.14585">
        <ele>2524.8</ele>
        <time>2021-01-29T14:43:19Z</time>
      </trkpt>
      <trkpt lat="42.7682" lon="0.14585">
        <ele>2525</ele>
        <time>2021-01-29T14:43:20Z</time>
      </trkpt>
      <trkpt lat="42.7682" lon="0.14585">
        <ele>2525.2</ele>
        <time>2021-01-29T14:43:21Z</time>
      </trkpt>
      <trkpt lat="42.7682" lon="0.14585">
        <ele>2525.4</ele>
        <time>2021-01-29T14:43:22Z</time>
      </trkpt>
      <trkpt lat="42.7682" lon="0.14585">
        <ele>2525.4</ele>
        <time>2021-01-29T14:43:23Z</time>
      </trkpt>
      <trkpt lat="42.7682" lon="0.14585">
        <ele>2525.6</ele>
        <time>2021-01-29T14:43:24Z</time>
      </trkpt>
      <trkpt lat="42.7682" lon="0.14585">
        <ele>2525.6</ele>
        <time>2021-01-29T14:43:25Z</time>
      </trkpt>
      <trkpt lat="42.7682" lon="0.14585">
        <ele>2525.8</ele>
        <time>2021-01-29T14:43:26Z</time>
      </trkpt>
      <trkpt lat="42.7682" lon="0.14585">
        <ele>2525.6</ele>
        <time>2021-01-29T14:43:27Z</time>
      </trkpt>
      <trkpt lat="42.7682" lon="0.14585">
        <ele>2525.4</ele>
        <time>2021-01-29T14:43:28Z</time>
      </trkpt>
      <trkpt lat="42.7682" lon="0.14585">
        <ele>2525.4</ele>
        <time>2021-01-29T14:43:29Z</time>
      </trkpt>
      <trkpt lat="42.7682" lon="0.14585">
        <ele>2525.2</ele>
        <time>2021-01-29T14:43:30Z</time>
      </trkpt>
      <trkpt lat="42.7682" lon="0.14585">
        <ele>2525</ele>
        <time>2021-01-29T14:43:31Z</time>
      </trkpt>
      <trkpt lat="42.7682" lon="0.14585">
        <ele>2524.8</ele>
        <time>2021-01-29T14:43:32Z</time>
      </trkpt>
      <trkpt lat="42.7682" lon="0.14585">
        <ele>2524.8</ele>
        <time>2021-01-29T14:43:33Z</time>
      </trkpt>
      <trkpt lat="42.7682" lon="0.14585">
        <ele>2524.8</ele>
        <time>2021-01-29T14:43:34Z</time>
      </trkpt>
      <trkpt lat="42.7682" lon="0.14585">
        <ele>2524.8</ele>
        <time>2021-01-29T14:43:35Z</time>
      </trkpt>
      <trkpt lat="42.7682" lon="0.14585">
        <ele>2525</ele>
        <time>2021-01-29T14:43:36Z</time>
      </trkpt>
      <trkpt lat="42.7682" lon="0.14585">
        <ele>2525</ele>
        <time>2021-01-29T14:43:37Z</time>
      </trkpt>
      <trkpt lat="42.7682" lon="0.14585">
        <ele>2524.8</ele>
        <time>2021-01-29T14:43:38Z</time>
      </trkpt>
      <trkpt lat="42.7682" lon="0.14585">
        <ele>2524.8</ele>
        <time>2021-01-29T14:43:39Z</time>
      </trkpt>
      <trkpt lat="42.7682" lon="0.14585">
        <ele>2524.6</ele>
        <time>2021-01-29T14:43:40Z</time>
      </trkpt>
      <trkpt lat="42.7682" lon="0.14585">
        <ele>2524.4</ele>
        <time>2021-01-29T14:43:41Z</time>
      </trkpt>
      <trkpt lat="42.7682" lon="0.14585">
        <ele>2524.2</ele>
        <time>2021-01-29T14:43:42Z</time>
      </trkpt>
      <trkpt lat="42.7682" lon="0.14585">
        <ele>2524</ele>
        <time>2021-01-29T14:43:43Z</time>
      </trkpt>
      <trkpt lat="42.7682" lon="0.14585">
        <ele>2523.8</ele>
        <time>2021-01-29T14:43:44Z</time>
      </trkpt>
      <trkpt lat="42.76819" lon="0.14585">
        <ele>2523.6</ele>
        <time>2021-01-29T14:43:45Z</time>
      </trkpt>
      <trkpt lat="42.76819" lon="0.14584">
        <ele>2523.4</ele>
        <time>2021-01-29T14:43:46Z</time>
      </trkpt>
      <trkpt lat="42.7682" lon="0.14585">
        <ele>2523.6</ele>
        <time>2021-01-29T14:43:47Z</time>
      </trkpt>
      <trkpt lat="42.7682" lon="0.14585">
        <ele>2524</ele>
        <time>2021-01-29T14:43:48Z</time>
      </trkpt>
      <trkpt lat="42.7682" lon="0.14585">
        <ele>2524.2</ele>
        <time>2021-01-29T14:43:49Z</time>
      </trkpt>
      <trkpt lat="42.7682" lon="0.14585">
        <ele>2524.2</ele>
        <time>2021-01-29T14:43:50Z</time>
      </trkpt>
      <trkpt lat="42.7682" lon="0.14585">
        <ele>2524.2</ele>
        <time>2021-01-29T14:43:51Z</time>
      </trkpt>
      <trkpt lat="42.7682" lon="0.14585">
        <ele>2524.4</ele>
        <time>2021-01-29T14:43:52Z</time>
      </trkpt>
      <trkpt lat="42.7682" lon="0.14585">
        <ele>2524.4</ele>
        <time>2021-01-29T14:43:53Z</time>
      </trkpt>
      <trkpt lat="42.7682" lon="0.14585">
        <ele>2524.2</ele>
        <time>2021-01-29T14:43:54Z</time>
      </trkpt>
      <trkpt lat="42.7682" lon="0.14585">
        <ele>2524.2</ele>
        <time>2021-01-29T14:43:55Z</time>
      </trkpt>
      <trkpt lat="42.7682" lon="0.14585">
        <ele>2524</ele>
        <time>2021-01-29T14:43:56Z</time>
      </trkpt>
      <trkpt lat="42.7682" lon="0.14585">
        <ele>2524</ele>
        <time>2021-01-29T14:43:57Z</time>
      </trkpt>
      <trkpt lat="42.7682" lon="0.14585">
        <ele>2523.8</ele>
        <time>2021-01-29T14:43:58Z</time>
      </trkpt>
      <trkpt lat="42.7682" lon="0.14585">
        <ele>2523.8</ele>
        <time>2021-01-29T14:43:59Z</time>
      </trkpt>
      <trkpt lat="42.7682" lon="0.14585">
        <ele>2523.8</ele>
        <time>2021-01-29T14:44:00Z</time>
      </trkpt>
      <trkpt lat="42.7682" lon="0.14585">
        <ele>2523.8</ele>
        <time>2021-01-29T14:44:01Z</time>
      </trkpt>
      <trkpt lat="42.7682" lon="0.14585">
        <ele>2523.8</ele>
        <time>2021-01-29T14:44:02Z</time>
      </trkpt>
      <trkpt lat="42.7682" lon="0.14585">
        <ele>2523.8</ele>
        <time>2021-01-29T14:44:03Z</time>
      </trkpt>
      <trkpt lat="42.7682" lon="0.14585">
        <ele>2524</ele>
        <time>2021-01-29T14:44:04Z</time>
      </trkpt>
      <trkpt lat="42.7682" lon="0.14585">
        <ele>2523.8</ele>
        <time>2021-01-29T14:44:05Z</time>
      </trkpt>
      <trkpt lat="42.7682" lon="0.14585">
        <ele>2523.6</ele>
        <time>2021-01-29T14:44:06Z</time>
      </trkpt>
      <trkpt lat="42.7682" lon="0.14585">
        <ele>2523.4</ele>
        <time>2021-01-29T14:44:07Z</time>
      </trkpt>
      <trkpt lat="42.7682" lon="0.14585">
        <ele>2523.4</ele>
        <time>2021-01-29T14:44:08Z</time>
      </trkpt>
      <trkpt lat="42.7682" lon="0.14585">
        <ele>2523.4</ele>
        <time>2021-01-29T14:44:09Z</time>
      </trkpt>
      <trkpt lat="42.7682" lon="0.14585">
        <ele>2523.4</ele>
        <time>2021-01-29T14:44:10Z</time>
      </trkpt>
      <trkpt lat="42.7682" lon="0.14585">
        <ele>2523.6</ele>
        <time>2021-01-29T14:44:11Z</time>
      </trkpt>
      <trkpt lat="42.7682" lon="0.14585">
        <ele>2523.6</ele>
        <time>2021-01-29T14:44:12Z</time>
      </trkpt>
      <trkpt lat="42.7682" lon="0.14585">
        <ele>2523.6</ele>
        <time>2021-01-29T14:44:13Z</time>
      </trkpt>
      <trkpt lat="42.7682" lon="0.14585">
        <ele>2523.6</ele>
        <time>2021-01-29T14:44:14Z</time>
      </trkpt>
      <trkpt lat="42.7682" lon="0.14585">
        <ele>2523.6</ele>
        <time>2021-01-29T14:44:15Z</time>
      </trkpt>
      <trkpt lat="42.7682" lon="0.14585">
        <ele>2523.6</ele>
        <time>2021-01-29T14:44:16Z</time>
      </trkpt>
      <trkpt lat="42.7682" lon="0.14585">
        <ele>2523.2</ele>
        <time>2021-01-29T14:44:17Z</time>
      </trkpt>
      <trkpt lat="42.7682" lon="0.14585">
        <ele>2523.2</ele>
        <time>2021-01-29T14:44:18Z</time>
      </trkpt>
      <trkpt lat="42.7682" lon="0.14585">
        <ele>2523.4</ele>
        <time>2021-01-29T14:44:19Z</time>
      </trkpt>
      <trkpt lat="42.7682" lon="0.14585">
        <ele>2523.4</ele>
        <time>2021-01-29T14:44:20Z</time>
      </trkpt>
      <trkpt lat="42.7682" lon="0.14585">
        <ele>2523.4</ele>
        <time>2021-01-29T14:44:21Z</time>
      </trkpt>
      <trkpt lat="42.7682" lon="0.14583">
        <ele>2523.4</ele>
        <time>2021-01-29T14:44:22Z</time>
      </trkpt>
      <trkpt lat="42.76819" lon="0.1458">
        <ele>2523.6</ele>
        <time>2021-01-29T14:44:23Z</time>
      </trkpt>
      <trkpt lat="42.76819" lon="0.14579">
        <ele>2523.8</ele>
        <time>2021-01-29T14:44:24Z</time>
      </trkpt>
      <trkpt lat="42.76819" lon="0.14579">
        <ele>2523.8</ele>
        <time>2021-01-29T14:44:25Z</time>
      </trkpt>
      <trkpt lat="42.76819" lon="0.14578">
        <ele>2523.8</ele>
        <time>2021-01-29T14:44:26Z</time>
      </trkpt>
      <trkpt lat="42.76819" lon="0.14578">
        <ele>2523.8</ele>
        <time>2021-01-29T14:44:27Z</time>
      </trkpt>
      <trkpt lat="42.76819" lon="0.14577">
        <ele>2523.8</ele>
        <time>2021-01-29T14:44:28Z</time>
      </trkpt>
      <trkpt lat="42.7682" lon="0.14576">
        <ele>2523.6</ele>
        <time>2021-01-29T14:44:29Z</time>
      </trkpt>
      <trkpt lat="42.7682" lon="0.14575">
        <ele>2523.6</ele>
        <time>2021-01-29T14:44:30Z</time>
      </trkpt>
      <trkpt lat="42.7682" lon="0.14574">
        <ele>2523.6</ele>
        <time>2021-01-29T14:44:31Z</time>
      </trkpt>
      <trkpt lat="42.7682" lon="0.14573">
        <ele>2523.6</ele>
        <time>2021-01-29T14:44:32Z</time>
      </trkpt>
      <trkpt lat="42.7682" lon="0.14572">
        <ele>2523.6</ele>
        <time>2021-01-29T14:44:33Z</time>
      </trkpt>
      <trkpt lat="42.7682" lon="0.14571">
        <ele>2523.4</ele>
        <time>2021-01-29T14:44:34Z</time>
      </trkpt>
      <trkpt lat="42.7682" lon="0.14569">
        <ele>2523.4</ele>
        <time>2021-01-29T14:44:35Z</time>
      </trkpt>
      <trkpt lat="42.7682" lon="0.14567">
        <ele>2523.4</ele>
        <time>2021-01-29T14:44:36Z</time>
      </trkpt>
      <trkpt lat="42.7682" lon="0.14566">
        <ele>2523.4</ele>
        <time>2021-01-29T14:44:37Z</time>
      </trkpt>
      <trkpt lat="42.7682" lon="0.14565">
        <ele>2523.4</ele>
        <time>2021-01-29T14:44:38Z</time>
      </trkpt>
      <trkpt lat="42.76821" lon="0.14563">
        <ele>2523.4</ele>
        <time>2021-01-29T14:44:39Z</time>
      </trkpt>
      <trkpt lat="42.76821" lon="0.14562">
        <ele>2523.4</ele>
        <time>2021-01-29T14:44:40Z</time>
      </trkpt>
      <trkpt lat="42.76821" lon="0.14561">
        <ele>2523.6</ele>
        <time>2021-01-29T14:44:41Z</time>
      </trkpt>
      <trkpt lat="42.76822" lon="0.1456">
        <ele>2523.8</ele>
        <time>2021-01-29T14:44:42Z</time>
      </trkpt>
      <trkpt lat="42.76822" lon="0.14559">
        <ele>2524</ele>
        <time>2021-01-29T14:44:43Z</time>
      </trkpt>
      <trkpt lat="42.76823" lon="0.14558">
        <ele>2524</ele>
        <time>2021-01-29T14:44:44Z</time>
      </trkpt>
      <trkpt lat="42.76824" lon="0.14557">
        <ele>2523.8</ele>
        <time>2021-01-29T14:44:45Z</time>
      </trkpt>
      <trkpt lat="42.76824" lon="0.14557">
        <ele>2523.4</ele>
        <time>2021-01-29T14:44:46Z</time>
      </trkpt>
      <trkpt lat="42.76824" lon="0.14557">
        <ele>2523.2</ele>
        <time>2021-01-29T14:44:47Z</time>
      </trkpt>
      <trkpt lat="42.76824" lon="0.14556">
        <ele>2523.2</ele>
        <time>2021-01-29T14:44:48Z</time>
      </trkpt>
      <trkpt lat="42.76824" lon="0.14556">
        <ele>2523</ele>
        <time>2021-01-29T14:44:49Z</time>
      </trkpt>
      <trkpt lat="42.76824" lon="0.14555">
        <ele>2523</ele>
        <time>2021-01-29T14:44:50Z</time>
      </trkpt>
      <trkpt lat="42.76823" lon="0.14554">
        <ele>2523</ele>
        <time>2021-01-29T14:44:51Z</time>
      </trkpt>
      <trkpt lat="42.76823" lon="0.14552">
        <ele>2523.2</ele>
        <time>2021-01-29T14:44:52Z</time>
      </trkpt>
      <trkpt lat="42.76823" lon="0.14551">
        <ele>2523.2</ele>
        <time>2021-01-29T14:44:53Z</time>
      </trkpt>
      <trkpt lat="42.76824" lon="0.14549">
        <ele>2523</ele>
        <time>2021-01-29T14:44:54Z</time>
      </trkpt>
      <trkpt lat="42.76824" lon="0.14548">
        <ele>2523</ele>
        <time>2021-01-29T14:44:55Z</time>
      </trkpt>
      <trkpt lat="42.76825" lon="0.14546">
        <ele>2523.2</ele>
        <time>2021-01-29T14:44:56Z</time>
      </trkpt>
      <trkpt lat="42.76825" lon="0.14544">
        <ele>2523.4</ele>
        <time>2021-01-29T14:44:57Z</time>
      </trkpt>
      <trkpt lat="42.76824" lon="0.14541">
        <ele>2523.8</ele>
        <time>2021-01-29T14:44:58Z</time>
      </trkpt>
      <trkpt lat="42.76824" lon="0.14539">
        <ele>2524.2</ele>
        <time>2021-01-29T14:44:59Z</time>
      </trkpt>
      <trkpt lat="42.76824" lon="0.14538">
        <ele>2524.4</ele>
        <time>2021-01-29T14:45:00Z</time>
      </trkpt>
      <trkpt lat="42.76823" lon="0.14537">
        <ele>2524.8</ele>
        <time>2021-01-29T14:45:01Z</time>
      </trkpt>
      <trkpt lat="42.76823" lon="0.14537">
        <ele>2525</ele>
        <time>2021-01-29T14:45:02Z</time>
      </trkpt>
      <trkpt lat="42.76823" lon="0.14537">
        <ele>2525.2</ele>
        <time>2021-01-29T14:45:03Z</time>
      </trkpt>
      <trkpt lat="42.76823" lon="0.14537">
        <ele>2525.4</ele>
        <time>2021-01-29T14:45:04Z</time>
      </trkpt>
      <trkpt lat="42.76823" lon="0.14537">
        <ele>2525.4</ele>
        <time>2021-01-29T14:45:05Z</time>
      </trkpt>
      <trkpt lat="42.76823" lon="0.14537">
        <ele>2525.6</ele>
        <time>2021-01-29T14:45:06Z</time>
      </trkpt>
      <trkpt lat="42.76823" lon="0.14537">
        <ele>2525.6</ele>
        <time>2021-01-29T14:45:07Z</time>
      </trkpt>
      <trkpt lat="42.76823" lon="0.14537">
        <ele>2525.6</ele>
        <time>2021-01-29T14:45:08Z</time>
      </trkpt>
      <trkpt lat="42.76823" lon="0.14537">
        <ele>2525.6</ele>
        <time>2021-01-29T14:45:09Z</time>
      </trkpt>
      <trkpt lat="42.76823" lon="0.14537">
        <ele>2525.4</ele>
        <time>2021-01-29T14:45:10Z</time>
      </trkpt>
      <trkpt lat="42.76823" lon="0.14538">
        <ele>2525.2</ele>
        <time>2021-01-29T14:45:11Z</time>
      </trkpt>
      <trkpt lat="42.76823" lon="0.14539">
        <ele>2525.2</ele>
        <time>2021-01-29T14:45:12Z</time>
      </trkpt>
      <trkpt lat="42.76823" lon="0.1454">
        <ele>2525.2</ele>
        <time>2021-01-29T14:45:13Z</time>
      </trkpt>
      <trkpt lat="42.76823" lon="0.14541">
        <ele>2525.2</ele>
        <time>2021-01-29T14:45:14Z</time>
      </trkpt>
      <trkpt lat="42.76823" lon="0.14542">
        <ele>2525</ele>
        <time>2021-01-29T14:45:15Z</time>
      </trkpt>
      <trkpt lat="42.76823" lon="0.14544">
        <ele>2524.8</ele>
        <time>2021-01-29T14:45:16Z</time>
      </trkpt>
      <trkpt lat="42.76823" lon="0.14545">
        <ele>2524.4</ele>
        <time>2021-01-29T14:45:17Z</time>
      </trkpt>
      <trkpt lat="42.76824" lon="0.14546">
        <ele>2524.2</ele>
        <time>2021-01-29T14:45:18Z</time>
      </trkpt>
      <trkpt lat="42.76824" lon="0.14547">
        <ele>2524.2</ele>
        <time>2021-01-29T14:45:19Z</time>
      </trkpt>
      <trkpt lat="42.76824" lon="0.14547">
        <ele>2524</ele>
        <time>2021-01-29T14:45:20Z</time>
      </trkpt>
      <trkpt lat="42.76825" lon="0.14547">
        <ele>2523.8</ele>
        <time>2021-01-29T14:45:21Z</time>
      </trkpt>
      <trkpt lat="42.76825" lon="0.14547">
        <ele>2523.8</ele>
        <time>2021-01-29T14:45:22Z</time>
      </trkpt>
      <trkpt lat="42.76824" lon="0.14547">
        <ele>2523.8</ele>
        <time>2021-01-29T14:45:23Z</time>
      </trkpt>
      <trkpt lat="42.76824" lon="0.14548">
        <ele>2523.8</ele>
        <time>2021-01-29T14:45:24Z</time>
      </trkpt>
      <trkpt lat="42.76823" lon="0.14549">
        <ele>2523.8</ele>
        <time>2021-01-29T14:45:25Z</time>
      </trkpt>
      <trkpt lat="42.76822" lon="0.1455">
        <ele>2523.8</ele>
        <time>2021-01-29T14:45:26Z</time>
      </trkpt>
      <trkpt lat="42.76822" lon="0.14551">
        <ele>2523.8</ele>
        <time>2021-01-29T14:45:27Z</time>
      </trkpt>
      <trkpt lat="42.76822" lon="0.14552">
        <ele>2523.8</ele>
        <time>2021-01-29T14:45:28Z</time>
      </trkpt>
      <trkpt lat="42.76821" lon="0.14553">
        <ele>2524</ele>
        <time>2021-01-29T14:45:29Z</time>
      </trkpt>
      <trkpt lat="42.7682" lon="0.14554">
        <ele>2524</ele>
        <time>2021-01-29T14:45:30Z</time>
      </trkpt>
      <trkpt lat="42.7682" lon="0.14555">
        <ele>2524</ele>
        <time>2021-01-29T14:45:31Z</time>
      </trkpt>
      <trkpt lat="42.7682" lon="0.14556">
        <ele>2524</ele>
        <time>2021-01-29T14:45:32Z</time>
      </trkpt>
      <trkpt lat="42.76819" lon="0.14557">
        <ele>2524</ele>
        <time>2021-01-29T14:45:33Z</time>
      </trkpt>
      <trkpt lat="42.76819" lon="0.14558">
        <ele>2524</ele>
        <time>2021-01-29T14:45:34Z</time>
      </trkpt>
      <trkpt lat="42.76819" lon="0.14559">
        <ele>2524</ele>
        <time>2021-01-29T14:45:35Z</time>
      </trkpt>
      <trkpt lat="42.76818" lon="0.1456">
        <ele>2524</ele>
        <time>2021-01-29T14:45:36Z</time>
      </trkpt>
      <trkpt lat="42.76818" lon="0.14561">
        <ele>2524.2</ele>
        <time>2021-01-29T14:45:37Z</time>
      </trkpt>
      <trkpt lat="42.76818" lon="0.14562">
        <ele>2524.2</ele>
        <time>2021-01-29T14:45:38Z</time>
      </trkpt>
      <trkpt lat="42.76818" lon="0.14562">
        <ele>2524.2</ele>
        <time>2021-01-29T14:45:39Z</time>
      </trkpt>
      <trkpt lat="42.76818" lon="0.14562">
        <ele>2524.2</ele>
        <time>2021-01-29T14:45:40Z</time>
      </trkpt>
      <trkpt lat="42.76817" lon="0.14563">
        <ele>2524.2</ele>
        <time>2021-01-29T14:45:41Z</time>
      </trkpt>
      <trkpt lat="42.76817" lon="0.14564">
        <ele>2524.2</ele>
        <time>2021-01-29T14:45:42Z</time>
      </trkpt>
      <trkpt lat="42.76817" lon="0.14565">
        <ele>2524</ele>
        <time>2021-01-29T14:45:43Z</time>
      </trkpt>
      <trkpt lat="42.76816" lon="0.14566">
        <ele>2523.8</ele>
        <time>2021-01-29T14:45:44Z</time>
      </trkpt>
      <trkpt lat="42.76816" lon="0.14567">
        <ele>2523.8</ele>
        <time>2021-01-29T14:45:45Z</time>
      </trkpt>
      <trkpt lat="42.76816" lon="0.14568">
        <ele>2523.6</ele>
        <time>2021-01-29T14:45:46Z</time>
      </trkpt>
      <trkpt lat="42.76815" lon="0.14569">
        <ele>2523.6</ele>
        <time>2021-01-29T14:45:47Z</time>
      </trkpt>
      <trkpt lat="42.76815" lon="0.1457">
        <ele>2523.6</ele>
        <time>2021-01-29T14:45:48Z</time>
      </trkpt>
      <trkpt lat="42.76814" lon="0.14571">
        <ele>2523.6</ele>
        <time>2021-01-29T14:45:49Z</time>
      </trkpt>
      <trkpt lat="42.76814" lon="0.14571">
        <ele>2523.6</ele>
        <time>2021-01-29T14:45:50Z</time>
      </trkpt>
      <trkpt lat="42.76814" lon="0.14572">
        <ele>2523.6</ele>
        <time>2021-01-29T14:45:51Z</time>
      </trkpt>
      <trkpt lat="42.76814" lon="0.14573">
        <ele>2523.6</ele>
        <time>2021-01-29T14:45:52Z</time>
      </trkpt>
      <trkpt lat="42.76814" lon="0.14574">
        <ele>2523.4</ele>
        <time>2021-01-29T14:45:53Z</time>
      </trkpt>
      <trkpt lat="42.76814" lon="0.14575">
        <ele>2523.4</ele>
        <time>2021-01-29T14:45:54Z</time>
      </trkpt>
      <trkpt lat="42.76815" lon="0.14576">
        <ele>2523.4</ele>
        <time>2021-01-29T14:45:55Z</time>
      </trkpt>
      <trkpt lat="42.76815" lon="0.14576">
        <ele>2523.6</ele>
        <time>2021-01-29T14:45:56Z</time>
      </trkpt>
      <trkpt lat="42.76814" lon="0.14577">
        <ele>2523.6</ele>
        <time>2021-01-29T14:45:57Z</time>
      </trkpt>
      <trkpt lat="42.76814" lon="0.14578">
        <ele>2523.4</ele>
        <time>2021-01-29T14:45:58Z</time>
      </trkpt>
      <trkpt lat="42.76814" lon="0.14579">
        <ele>2523.4</ele>
        <time>2021-01-29T14:45:59Z</time>
      </trkpt>
      <trkpt lat="42.76814" lon="0.1458">
        <ele>2523.4</ele>
        <time>2021-01-29T14:46:00Z</time>
      </trkpt>
      <trkpt lat="42.76813" lon="0.14581">
        <ele>2523.2</ele>
        <time>2021-01-29T14:46:01Z</time>
      </trkpt>
      <trkpt lat="42.76813" lon="0.14581">
        <ele>2523.2</ele>
        <time>2021-01-29T14:46:02Z</time>
      </trkpt>
      <trkpt lat="42.76813" lon="0.14581">
        <ele>2523</ele>
        <time>2021-01-29T14:46:03Z</time>
      </trkpt>
      <trkpt lat="42.76812" lon="0.14581">
        <ele>2523</ele>
        <time>2021-01-29T14:46:04Z</time>
      </trkpt>
      <trkpt lat="42.76812" lon="0.14581">
        <ele>2523</ele>
        <time>2021-01-29T14:46:05Z</time>
      </trkpt>
      <trkpt lat="42.76812" lon="0.14581">
        <ele>2523</ele>
        <time>2021-01-29T14:46:06Z</time>
      </trkpt>
      <trkpt lat="42.76812" lon="0.14581">
        <ele>2523.2</ele>
        <time>2021-01-29T14:46:07Z</time>
      </trkpt>
      <trkpt lat="42.76812" lon="0.14581">
        <ele>2523.2</ele>
        <time>2021-01-29T14:46:08Z</time>
      </trkpt>
      <trkpt lat="42.76812" lon="0.14581">
        <ele>2523.2</ele>
        <time>2021-01-29T14:46:09Z</time>
      </trkpt>
      <trkpt lat="42.76812" lon="0.14581">
        <ele>2523.4</ele>
        <time>2021-01-29T14:46:10Z</time>
      </trkpt>
      <trkpt lat="42.76812" lon="0.14581">
        <ele>2523.4</ele>
        <time>2021-01-29T14:46:11Z</time>
      </trkpt>
      <trkpt lat="42.76812" lon="0.14581">
        <ele>2523.4</ele>
        <time>2021-01-29T14:46:12Z</time>
      </trkpt>
      <trkpt lat="42.76812" lon="0.14581">
        <ele>2523.4</ele>
        <time>2021-01-29T14:46:13Z</time>
      </trkpt>
      <trkpt lat="42.76812" lon="0.14581">
        <ele>2523.4</ele>
        <time>2021-01-29T14:46:14Z</time>
      </trkpt>
      <trkpt lat="42.76812" lon="0.14581">
        <ele>2523.4</ele>
        <time>2021-01-29T14:46:15Z</time>
      </trkpt>
      <trkpt lat="42.76812" lon="0.14581">
        <ele>2523.4</ele>
        <time>2021-01-29T14:46:16Z</time>
      </trkpt>
      <trkpt lat="42.76812" lon="0.14581">
        <ele>2523.2</ele>
        <time>2021-01-29T14:46:17Z</time>
      </trkpt>
      <trkpt lat="42.76812" lon="0.14581">
        <ele>2523.4</ele>
        <time>2021-01-29T14:46:18Z</time>
      </trkpt>
      <trkpt lat="42.76812" lon="0.14581">
        <ele>2523.4</ele>
        <time>2021-01-29T14:46:19Z</time>
      </trkpt>
      <trkpt lat="42.76812" lon="0.14581">
        <ele>2523.4</ele>
        <time>2021-01-29T14:46:20Z</time>
      </trkpt>
      <trkpt lat="42.76812" lon="0.14581">
        <ele>2523.4</ele>
        <time>2021-01-29T14:46:21Z</time>
      </trkpt>
      <trkpt lat="42.76812" lon="0.14581">
        <ele>2523.2</ele>
        <time>2021-01-29T14:46:22Z</time>
      </trkpt>
      <trkpt lat="42.76812" lon="0.14581">
        <ele>2523.2</ele>
        <time>2021-01-29T14:46:23Z</time>
      </trkpt>
      <trkpt lat="42.76812" lon="0.14581">
        <ele>2523.2</ele>
        <time>2021-01-29T14:46:24Z</time>
      </trkpt>
      <trkpt lat="42.76812" lon="0.14581">
        <ele>2523</ele>
        <time>2021-01-29T14:46:25Z</time>
      </trkpt>
      <trkpt lat="42.76812" lon="0.14581">
        <ele>2523</ele>
        <time>2021-01-29T14:46:26Z</time>
      </trkpt>
      <trkpt lat="42.76812" lon="0.14581">
        <ele>2523</ele>
        <time>2021-01-29T14:46:27Z</time>
      </trkpt>
      <trkpt lat="42.76812" lon="0.14581">
        <ele>2523</ele>
        <time>2021-01-29T14:46:28Z</time>
      </trkpt>
      <trkpt lat="42.76812" lon="0.14581">
        <ele>2523</ele>
        <time>2021-01-29T14:46:29Z</time>
      </trkpt>
      <trkpt lat="42.76812" lon="0.14581">
        <ele>2523</ele>
        <time>2021-01-29T14:46:30Z</time>
      </trkpt>
      <trkpt lat="42.76812" lon="0.14581">
        <ele>2522.8</ele>
        <time>2021-01-29T14:46:31Z</time>
      </trkpt>
      <trkpt lat="42.76812" lon="0.14581">
        <ele>2522.8</ele>
        <time>2021-01-29T14:46:32Z</time>
      </trkpt>
      <trkpt lat="42.76812" lon="0.14581">
        <ele>2522.8</ele>
        <time>2021-01-29T14:46:33Z</time>
      </trkpt>
      <trkpt lat="42.76812" lon="0.14581">
        <ele>2522.6</ele>
        <time>2021-01-29T14:46:34Z</time>
      </trkpt>
      <trkpt lat="42.76812" lon="0.14581">
        <ele>2522.6</ele>
        <time>2021-01-29T14:46:35Z</time>
      </trkpt>
      <trkpt lat="42.76812" lon="0.14581">
        <ele>2522.6</ele>
        <time>2021-01-29T14:46:36Z</time>
      </trkpt>
      <trkpt lat="42.76812" lon="0.14581">
        <ele>2522.6</ele>
        <time>2021-01-29T14:46:37Z</time>
      </trkpt>
      <trkpt lat="42.76812" lon="0.14581">
        <ele>2522.6</ele>
        <time>2021-01-29T14:46:38Z</time>
      </trkpt>
      <trkpt lat="42.76812" lon="0.14581">
        <ele>2522.6</ele>
        <time>2021-01-29T14:46:39Z</time>
      </trkpt>
      <trkpt lat="42.76812" lon="0.14581">
        <ele>2522.6</ele>
        <time>2021-01-29T14:46:40Z</time>
      </trkpt>
      <trkpt lat="42.76812" lon="0.14581">
        <ele>2522.6</ele>
        <time>2021-01-29T14:46:41Z</time>
      </trkpt>
      <trkpt lat="42.76812" lon="0.14581">
        <ele>2522.6</ele>
        <time>2021-01-29T14:46:42Z</time>
      </trkpt>
      <trkpt lat="42.76812" lon="0.14581">
        <ele>2522.8</ele>
        <time>2021-01-29T14:46:43Z</time>
      </trkpt>
      <trkpt lat="42.76812" lon="0.14581">
        <ele>2522.8</ele>
        <time>2021-01-29T14:46:44Z</time>
      </trkpt>
      <trkpt lat="42.76812" lon="0.14581">
        <ele>2523</ele>
        <time>2021-01-29T14:46:45Z</time>
      </trkpt>
      <trkpt lat="42.76812" lon="0.14581">
        <ele>2522.8</ele>
        <time>2021-01-29T14:46:46Z</time>
      </trkpt>
      <trkpt lat="42.76812" lon="0.14581">
        <ele>2522.8</ele>
        <time>2021-01-29T14:46:47Z</time>
      </trkpt>
      <trkpt lat="42.76812" lon="0.14581">
        <ele>2522.8</ele>
        <time>2021-01-29T14:46:48Z</time>
      </trkpt>
      <trkpt lat="42.76812" lon="0.14581">
        <ele>2523</ele>
        <time>2021-01-29T14:46:49Z</time>
      </trkpt>
      <trkpt lat="42.76812" lon="0.14581">
        <ele>2523</ele>
        <time>2021-01-29T14:46:50Z</time>
      </trkpt>
      <trkpt lat="42.76812" lon="0.14581">
        <ele>2523</ele>
        <time>2021-01-29T14:46:51Z</time>
      </trkpt>
      <trkpt lat="42.76812" lon="0.14581">
        <ele>2523.2</ele>
        <time>2021-01-29T14:46:52Z</time>
      </trkpt>
      <trkpt lat="42.76812" lon="0.14581">
        <ele>2523.2</ele>
        <time>2021-01-29T14:46:53Z</time>
      </trkpt>
      <trkpt lat="42.76812" lon="0.14581">
        <ele>2523.4</ele>
        <time>2021-01-29T14:46:54Z</time>
      </trkpt>
      <trkpt lat="42.76812" lon="0.14581">
        <ele>2523.4</ele>
        <time>2021-01-29T14:46:55Z</time>
      </trkpt>
      <trkpt lat="42.76812" lon="0.14581">
        <ele>2523.4</ele>
        <time>2021-01-29T14:46:56Z</time>
      </trkpt>
      <trkpt lat="42.76812" lon="0.14581">
        <ele>2523.4</ele>
        <time>2021-01-29T14:46:57Z</time>
      </trkpt>
      <trkpt lat="42.76812" lon="0.14581">
        <ele>2523.4</ele>
        <time>2021-01-29T14:46:58Z</time>
      </trkpt>
      <trkpt lat="42.76812" lon="0.14581">
        <ele>2523.2</ele>
        <time>2021-01-29T14:46:59Z</time>
      </trkpt>
      <trkpt lat="42.76812" lon="0.14581">
        <ele>2523</ele>
        <time>2021-01-29T14:47:00Z</time>
      </trkpt>
      <trkpt lat="42.76812" lon="0.14581">
        <ele>2522.8</ele>
        <time>2021-01-29T14:47:01Z</time>
      </trkpt>
      <trkpt lat="42.76812" lon="0.14581">
        <ele>2522.6</ele>
        <time>2021-01-29T14:47:02Z</time>
      </trkpt>
      <trkpt lat="42.76812" lon="0.14581">
        <ele>2522.6</ele>
        <time>2021-01-29T14:47:03Z</time>
      </trkpt>
      <trkpt lat="42.76812" lon="0.14581">
        <ele>2522.6</ele>
        <time>2021-01-29T14:47:04Z</time>
      </trkpt>
      <trkpt lat="42.76812" lon="0.14581">
        <ele>2522.6</ele>
        <time>2021-01-29T14:47:05Z</time>
      </trkpt>
      <trkpt lat="42.76812" lon="0.14581">
        <ele>2522.6</ele>
        <time>2021-01-29T14:47:06Z</time>
      </trkpt>
      <trkpt lat="42.76812" lon="0.14581">
        <ele>2522.6</ele>
        <time>2021-01-29T14:47:07Z</time>
      </trkpt>
      <trkpt lat="42.76812" lon="0.14581">
        <ele>2522.6</ele>
        <time>2021-01-29T14:47:08Z</time>
      </trkpt>
      <trkpt lat="42.76812" lon="0.14581">
        <ele>2522.6</ele>
        <time>2021-01-29T14:47:09Z</time>
      </trkpt>
      <trkpt lat="42.76812" lon="0.14581">
        <ele>2522.6</ele>
        <time>2021-01-29T14:47:10Z</time>
      </trkpt>
      <trkpt lat="42.76812" lon="0.14581">
        <ele>2522.6</ele>
        <time>2021-01-29T14:47:11Z</time>
      </trkpt>
      <trkpt lat="42.76812" lon="0.14581">
        <ele>2522.8</ele>
        <time>2021-01-29T14:47:12Z</time>
      </trkpt>
      <trkpt lat="42.76812" lon="0.14581">
        <ele>2523</ele>
        <time>2021-01-29T14:47:13Z</time>
      </trkpt>
      <trkpt lat="42.76812" lon="0.14581">
        <ele>2523</ele>
        <time>2021-01-29T14:47:14Z</time>
      </trkpt>
      <trkpt lat="42.76812" lon="0.14581">
        <ele>2523.2</ele>
        <time>2021-01-29T14:47:15Z</time>
      </trkpt>
      <trkpt lat="42.76812" lon="0.14581">
        <ele>2523.4</ele>
        <time>2021-01-29T14:47:16Z</time>
      </trkpt>
      <trkpt lat="42.76812" lon="0.14581">
        <ele>2523.2</ele>
        <time>2021-01-29T14:47:17Z</time>
      </trkpt>
      <trkpt lat="42.76812" lon="0.14581">
        <ele>2523.2</ele>
        <time>2021-01-29T14:47:18Z</time>
      </trkpt>
      <trkpt lat="42.76812" lon="0.14581">
        <ele>2523</ele>
        <time>2021-01-29T14:47:19Z</time>
      </trkpt>
      <trkpt lat="42.76812" lon="0.14581">
        <ele>2522.6</ele>
        <time>2021-01-29T14:47:20Z</time>
      </trkpt>
      <trkpt lat="42.76812" lon="0.14581">
        <ele>2522.4</ele>
        <time>2021-01-29T14:47:21Z</time>
      </trkpt>
      <trkpt lat="42.76812" lon="0.14581">
        <ele>2522.2</ele>
        <time>2021-01-29T14:47:22Z</time>
      </trkpt>
      <trkpt lat="42.76812" lon="0.14581">
        <ele>2522.2</ele>
        <time>2021-01-29T14:47:23Z</time>
      </trkpt>
      <trkpt lat="42.76812" lon="0.14581">
        <ele>2522.2</ele>
        <time>2021-01-29T14:47:24Z</time>
      </trkpt>
      <trkpt lat="42.76812" lon="0.14581">
        <ele>2522.2</ele>
        <time>2021-01-29T14:47:25Z</time>
      </trkpt>
      <trkpt lat="42.76812" lon="0.14581">
        <ele>2522.4</ele>
        <time>2021-01-29T14:47:26Z</time>
      </trkpt>
      <trkpt lat="42.76812" lon="0.14581">
        <ele>2522.6</ele>
        <time>2021-01-29T14:47:27Z</time>
      </trkpt>
      <trkpt lat="42.76812" lon="0.14581">
        <ele>2522.8</ele>
        <time>2021-01-29T14:47:28Z</time>
      </trkpt>
      <trkpt lat="42.76812" lon="0.14581">
        <ele>2523</ele>
        <time>2021-01-29T14:47:29Z</time>
      </trkpt>
      <trkpt lat="42.76812" lon="0.14581">
        <ele>2523.2</ele>
        <time>2021-01-29T14:47:30Z</time>
      </trkpt>
      <trkpt lat="42.76812" lon="0.14581">
        <ele>2523.2</ele>
        <time>2021-01-29T14:47:31Z</time>
      </trkpt>
      <trkpt lat="42.76812" lon="0.14581">
        <ele>2523.4</ele>
        <time>2021-01-29T14:47:32Z</time>
      </trkpt>
      <trkpt lat="42.76812" lon="0.14581">
        <ele>2523.4</ele>
        <time>2021-01-29T14:47:33Z</time>
      </trkpt>
      <trkpt lat="42.76812" lon="0.14581">
        <ele>2523.4</ele>
        <time>2021-01-29T14:47:34Z</time>
      </trkpt>
      <trkpt lat="42.76812" lon="0.14581">
        <ele>2523.2</ele>
        <time>2021-01-29T14:47:35Z</time>
      </trkpt>
      <trkpt lat="42.76812" lon="0.14581">
        <ele>2523.2</ele>
        <time>2021-01-29T14:47:36Z</time>
      </trkpt>
      <trkpt lat="42.76812" lon="0.14581">
        <ele>2523</ele>
        <time>2021-01-29T14:47:37Z</time>
      </trkpt>
      <trkpt lat="42.76812" lon="0.14581">
        <ele>2522.8</ele>
        <time>2021-01-29T14:47:38Z</time>
      </trkpt>
      <trkpt lat="42.76812" lon="0.14581">
        <ele>2522.4</ele>
        <time>2021-01-29T14:47:39Z</time>
      </trkpt>
      <trkpt lat="42.76812" lon="0.14581">
        <ele>2522.2</ele>
        <time>2021-01-29T14:47:40Z</time>
      </trkpt>
      <trkpt lat="42.76812" lon="0.14581">
        <ele>2522</ele>
        <time>2021-01-29T14:47:41Z</time>
      </trkpt>
      <trkpt lat="42.76812" lon="0.14581">
        <ele>2522</ele>
        <time>2021-01-29T14:47:42Z</time>
      </trkpt>
      <trkpt lat="42.76812" lon="0.14581">
        <ele>2522.2</ele>
        <time>2021-01-29T14:47:43Z</time>
      </trkpt>
      <trkpt lat="42.76812" lon="0.14581">
        <ele>2522.4</ele>
        <time>2021-01-29T14:47:44Z</time>
      </trkpt>
      <trkpt lat="42.76812" lon="0.14581">
        <ele>2522.4</ele>
        <time>2021-01-29T14:47:45Z</time>
      </trkpt>
      <trkpt lat="42.76813" lon="0.14583">
        <ele>2522.6</ele>
        <time>2021-01-29T14:47:46Z</time>
      </trkpt>
      <trkpt lat="42.76814" lon="0.14584">
        <ele>2522.8</ele>
        <time>2021-01-29T14:47:47Z</time>
      </trkpt>
      <trkpt lat="42.76814" lon="0.14584">
        <ele>2523</ele>
        <time>2021-01-29T14:47:48Z</time>
      </trkpt>
      <trkpt lat="42.76814" lon="0.14584">
        <ele>2523</ele>
        <time>2021-01-29T14:47:49Z</time>
      </trkpt>
      <trkpt lat="42.76814" lon="0.14585">
        <ele>2522.8</ele>
        <time>2021-01-29T14:47:50Z</time>
      </trkpt>
      <trkpt lat="42.76814" lon="0.14585">
        <ele>2522.6</ele>
        <time>2021-01-29T14:47:51Z</time>
      </trkpt>
      <trkpt lat="42.76815" lon="0.14586">
        <ele>2522.4</ele>
        <time>2021-01-29T14:47:52Z</time>
      </trkpt>
      <trkpt lat="42.76815" lon="0.14586">
        <ele>2522.2</ele>
        <time>2021-01-29T14:47:53Z</time>
      </trkpt>
      <trkpt lat="42.76815" lon="0.14586">
        <ele>2522</ele>
        <time>2021-01-29T14:47:54Z</time>
      </trkpt>
      <trkpt lat="42.76815" lon="0.14586">
        <ele>2521.8</ele>
        <time>2021-01-29T14:47:55Z</time>
      </trkpt>
      <trkpt lat="42.76815" lon="0.14586">
        <ele>2521.6</ele>
        <time>2021-01-29T14:47:56Z</time>
      </trkpt>
      <trkpt lat="42.76815" lon="0.14586">
        <ele>2521.4</ele>
        <time>2021-01-29T14:47:57Z</time>
      </trkpt>
      <trkpt lat="42.76815" lon="0.14586">
        <ele>2521.2</ele>
        <time>2021-01-29T14:47:58Z</time>
      </trkpt>
      <trkpt lat="42.76815" lon="0.14586">
        <ele>2521.2</ele>
        <time>2021-01-29T14:47:59Z</time>
      </trkpt>
      <trkpt lat="42.76815" lon="0.14586">
        <ele>2521.2</ele>
        <time>2021-01-29T14:48:00Z</time>
      </trkpt>
      <trkpt lat="42.76815" lon="0.14586">
        <ele>2521.2</ele>
        <time>2021-01-29T14:48:01Z</time>
      </trkpt>
      <trkpt lat="42.76815" lon="0.14586">
        <ele>2521.6</ele>
        <time>2021-01-29T14:48:02Z</time>
      </trkpt>
      <trkpt lat="42.76815" lon="0.14586">
        <ele>2521.8</ele>
        <time>2021-01-29T14:48:03Z</time>
      </trkpt>
      <trkpt lat="42.76815" lon="0.14586">
        <ele>2522.2</ele>
        <time>2021-01-29T14:48:04Z</time>
      </trkpt>
      <trkpt lat="42.76815" lon="0.14586">
        <ele>2522.4</ele>
        <time>2021-01-29T14:48:05Z</time>
      </trkpt>
      <trkpt lat="42.76815" lon="0.14586">
        <ele>2522.4</ele>
        <time>2021-01-29T14:48:06Z</time>
      </trkpt>
      <trkpt lat="42.76815" lon="0.14586">
        <ele>2522.6</ele>
        <time>2021-01-29T14:48:07Z</time>
      </trkpt>
      <trkpt lat="42.76815" lon="0.14586">
        <ele>2522.6</ele>
        <time>2021-01-29T14:48:08Z</time>
      </trkpt>
      <trkpt lat="42.76815" lon="0.14586">
        <ele>2522.8</ele>
        <time>2021-01-29T14:48:09Z</time>
      </trkpt>
      <trkpt lat="42.76815" lon="0.14586">
        <ele>2522.8</ele>
        <time>2021-01-29T14:48:10Z</time>
      </trkpt>
      <trkpt lat="42.76815" lon="0.14586">
        <ele>2522.8</ele>
        <time>2021-01-29T14:48:11Z</time>
      </trkpt>
      <trkpt lat="42.76815" lon="0.14586">
        <ele>2522.6</ele>
        <time>2021-01-29T14:48:12Z</time>
      </trkpt>
      <trkpt lat="42.76815" lon="0.14586">
        <ele>2522.4</ele>
        <time>2021-01-29T14:48:13Z</time>
      </trkpt>
      <trkpt lat="42.76815" lon="0.14586">
        <ele>2522.2</ele>
        <time>2021-01-29T14:48:14Z</time>
      </trkpt>
      <trkpt lat="42.76815" lon="0.14586">
        <ele>2521.8</ele>
        <time>2021-01-29T14:48:15Z</time>
      </trkpt>
      <trkpt lat="42.76815" lon="0.14586">
        <ele>2521.6</ele>
        <time>2021-01-29T14:48:16Z</time>
      </trkpt>
      <trkpt lat="42.76815" lon="0.14586">
        <ele>2521.4</ele>
        <time>2021-01-29T14:48:17Z</time>
      </trkpt>
      <trkpt lat="42.76815" lon="0.14586">
        <ele>2521.4</ele>
        <time>2021-01-29T14:48:18Z</time>
      </trkpt>
      <trkpt lat="42.76815" lon="0.14586">
        <ele>2521.4</ele>
        <time>2021-01-29T14:48:19Z</time>
      </trkpt>
      <trkpt lat="42.76815" lon="0.14586">
        <ele>2521.6</ele>
        <time>2021-01-29T14:48:20Z</time>
      </trkpt>
      <trkpt lat="42.76815" lon="0.14586">
        <ele>2521.8</ele>
        <time>2021-01-29T14:48:21Z</time>
      </trkpt>
      <trkpt lat="42.76815" lon="0.14586">
        <ele>2521.8</ele>
        <time>2021-01-29T14:48:22Z</time>
      </trkpt>
      <trkpt lat="42.76815" lon="0.14586">
        <ele>2521.8</ele>
        <time>2021-01-29T14:48:23Z</time>
      </trkpt>
      <trkpt lat="42.76815" lon="0.14586">
        <ele>2521.6</ele>
        <time>2021-01-29T14:48:24Z</time>
      </trkpt>
      <trkpt lat="42.76815" lon="0.14586">
        <ele>2521.8</ele>
        <time>2021-01-29T14:48:25Z</time>
      </trkpt>
      <trkpt lat="42.76815" lon="0.14586">
        <ele>2521.8</ele>
        <time>2021-01-29T14:48:26Z</time>
      </trkpt>
      <trkpt lat="42.76815" lon="0.14586">
        <ele>2521.6</ele>
        <time>2021-01-29T14:48:27Z</time>
      </trkpt>
      <trkpt lat="42.76815" lon="0.14586">
        <ele>2521.4</ele>
        <time>2021-01-29T14:48:28Z</time>
      </trkpt>
      <trkpt lat="42.76815" lon="0.14586">
        <ele>2521.2</ele>
        <time>2021-01-29T14:48:29Z</time>
      </trkpt>
      <trkpt lat="42.76815" lon="0.14586">
        <ele>2521</ele>
        <time>2021-01-29T14:48:30Z</time>
      </trkpt>
      <trkpt lat="42.76815" lon="0.14586">
        <ele>2521</ele>
        <time>2021-01-29T14:48:31Z</time>
      </trkpt>
      <trkpt lat="42.76815" lon="0.14586">
        <ele>2521.2</ele>
        <time>2021-01-29T14:48:32Z</time>
      </trkpt>
      <trkpt lat="42.76815" lon="0.14586">
        <ele>2521.2</ele>
        <time>2021-01-29T14:48:33Z</time>
      </trkpt>
      <trkpt lat="42.76815" lon="0.14586">
        <ele>2521.4</ele>
        <time>2021-01-29T14:48:34Z</time>
      </trkpt>
      <trkpt lat="42.76815" lon="0.14586">
        <ele>2521.2</ele>
        <time>2021-01-29T14:48:35Z</time>
      </trkpt>
      <trkpt lat="42.76815" lon="0.14586">
        <ele>2521.4</ele>
        <time>2021-01-29T14:48:36Z</time>
      </trkpt>
      <trkpt lat="42.76815" lon="0.14586">
        <ele>2521.4</ele>
        <time>2021-01-29T14:48:37Z</time>
      </trkpt>
      <trkpt lat="42.76815" lon="0.14586">
        <ele>2521.2</ele>
        <time>2021-01-29T14:48:38Z</time>
      </trkpt>
      <trkpt lat="42.76815" lon="0.14586">
        <ele>2521.4</ele>
        <time>2021-01-29T14:48:39Z</time>
      </trkpt>
      <trkpt lat="42.76815" lon="0.14586">
        <ele>2521.4</ele>
        <time>2021-01-29T14:48:40Z</time>
      </trkpt>
      <trkpt lat="42.76815" lon="0.14586">
        <ele>2521.6</ele>
        <time>2021-01-29T14:48:41Z</time>
      </trkpt>
      <trkpt lat="42.76815" lon="0.14586">
        <ele>2521.6</ele>
        <time>2021-01-29T14:48:42Z</time>
      </trkpt>
      <trkpt lat="42.76815" lon="0.14586">
        <ele>2521.4</ele>
        <time>2021-01-29T14:48:43Z</time>
      </trkpt>
      <trkpt lat="42.76815" lon="0.14586">
        <ele>2521.4</ele>
        <time>2021-01-29T14:48:44Z</time>
      </trkpt>
      <trkpt lat="42.76815" lon="0.14586">
        <ele>2521.2</ele>
        <time>2021-01-29T14:48:45Z</time>
      </trkpt>
      <trkpt lat="42.76815" lon="0.14586">
        <ele>2521</ele>
        <time>2021-01-29T14:48:46Z</time>
      </trkpt>
      <trkpt lat="42.76815" lon="0.14586">
        <ele>2521</ele>
        <time>2021-01-29T14:48:47Z</time>
      </trkpt>
      <trkpt lat="42.76815" lon="0.14586">
        <ele>2521</ele>
        <time>2021-01-29T14:48:48Z</time>
      </trkpt>
      <trkpt lat="42.76815" lon="0.14586">
        <ele>2521</ele>
        <time>2021-01-29T14:48:49Z</time>
      </trkpt>
      <trkpt lat="42.76815" lon="0.14586">
        <ele>2521.2</ele>
        <time>2021-01-29T14:48:50Z</time>
      </trkpt>
      <trkpt lat="42.76815" lon="0.14586">
        <ele>2521.2</ele>
        <time>2021-01-29T14:48:51Z</time>
      </trkpt>
      <trkpt lat="42.76815" lon="0.14586">
        <ele>2521.4</ele>
        <time>2021-01-29T14:48:52Z</time>
      </trkpt>
      <trkpt lat="42.76815" lon="0.14586">
        <ele>2521.4</ele>
        <time>2021-01-29T14:48:53Z</time>
      </trkpt>
      <trkpt lat="42.76815" lon="0.14586">
        <ele>2521.6</ele>
        <time>2021-01-29T14:48:54Z</time>
      </trkpt>
      <trkpt lat="42.76815" lon="0.14586">
        <ele>2521.6</ele>
        <time>2021-01-29T14:48:55Z</time>
      </trkpt>
      <trkpt lat="42.76815" lon="0.14586">
        <ele>2521.6</ele>
        <time>2021-01-29T14:48:56Z</time>
      </trkpt>
      <trkpt lat="42.76815" lon="0.14586">
        <ele>2521.8</ele>
        <time>2021-01-29T14:48:57Z</time>
      </trkpt>
      <trkpt lat="42.76815" lon="0.14586">
        <ele>2522</ele>
        <time>2021-01-29T14:48:58Z</time>
      </trkpt>
      <trkpt lat="42.76815" lon="0.14586">
        <ele>2522.2</ele>
        <time>2021-01-29T14:48:59Z</time>
      </trkpt>
      <trkpt lat="42.76815" lon="0.14586">
        <ele>2522.2</ele>
        <time>2021-01-29T14:49:00Z</time>
      </trkpt>
      <trkpt lat="42.76815" lon="0.14586">
        <ele>2522.2</ele>
        <time>2021-01-29T14:49:01Z</time>
      </trkpt>
      <trkpt lat="42.76815" lon="0.14586">
        <ele>2522.2</ele>
        <time>2021-01-29T14:49:02Z</time>
      </trkpt>
      <trkpt lat="42.76815" lon="0.14586">
        <ele>2522.2</ele>
        <time>2021-01-29T14:49:03Z</time>
      </trkpt>
      <trkpt lat="42.76815" lon="0.14586">
        <ele>2522.2</ele>
        <time>2021-01-29T14:49:04Z</time>
      </trkpt>
      <trkpt lat="42.76815" lon="0.14586">
        <ele>2522.2</ele>
        <time>2021-01-29T14:49:05Z</time>
      </trkpt>
      <trkpt lat="42.76815" lon="0.14586">
        <ele>2522.2</ele>
        <time>2021-01-29T14:49:06Z</time>
      </trkpt>
      <trkpt lat="42.76815" lon="0.14586">
        <ele>2522.4</ele>
        <time>2021-01-29T14:49:07Z</time>
      </trkpt>
      <trkpt lat="42.76815" lon="0.14586">
        <ele>2522.4</ele>
        <time>2021-01-29T14:49:08Z</time>
      </trkpt>
      <trkpt lat="42.76815" lon="0.14586">
        <ele>2522.4</ele>
        <time>2021-01-29T14:49:09Z</time>
      </trkpt>
      <trkpt lat="42.76815" lon="0.14586">
        <ele>2522.4</ele>
        <time>2021-01-29T14:49:10Z</time>
      </trkpt>
      <trkpt lat="42.76815" lon="0.14586">
        <ele>2522.4</ele>
        <time>2021-01-29T14:49:11Z</time>
      </trkpt>
      <trkpt lat="42.76815" lon="0.14586">
        <ele>2522.6</ele>
        <time>2021-01-29T14:49:12Z</time>
      </trkpt>
      <trkpt lat="42.76815" lon="0.14586">
        <ele>2522.6</ele>
        <time>2021-01-29T14:49:13Z</time>
      </trkpt>
      <trkpt lat="42.76815" lon="0.14586">
        <ele>2522.6</ele>
        <time>2021-01-29T14:49:14Z</time>
      </trkpt>
      <trkpt lat="42.76815" lon="0.14586">
        <ele>2522.6</ele>
        <time>2021-01-29T14:49:15Z</time>
      </trkpt>
      <trkpt lat="42.76815" lon="0.14586">
        <ele>2522.6</ele>
        <time>2021-01-29T14:49:16Z</time>
      </trkpt>
      <trkpt lat="42.76815" lon="0.14586">
        <ele>2522.4</ele>
        <time>2021-01-29T14:49:17Z</time>
      </trkpt>
      <trkpt lat="42.76815" lon="0.14586">
        <ele>2522.2</ele>
        <time>2021-01-29T14:49:18Z</time>
      </trkpt>
      <trkpt lat="42.76815" lon="0.14586">
        <ele>2522.2</ele>
        <time>2021-01-29T14:49:19Z</time>
      </trkpt>
      <trkpt lat="42.76815" lon="0.14586">
        <ele>2522</ele>
        <time>2021-01-29T14:49:20Z</time>
      </trkpt>
      <trkpt lat="42.76815" lon="0.14586">
        <ele>2522</ele>
        <time>2021-01-29T14:49:21Z</time>
      </trkpt>
      <trkpt lat="42.76815" lon="0.14586">
        <ele>2521.8</ele>
        <time>2021-01-29T14:49:22Z</time>
      </trkpt>
      <trkpt lat="42.76815" lon="0.14586">
        <ele>2521.8</ele>
        <time>2021-01-29T14:49:23Z</time>
      </trkpt>
      <trkpt lat="42.76815" lon="0.14586">
        <ele>2521.8</ele>
        <time>2021-01-29T14:49:24Z</time>
      </trkpt>
      <trkpt lat="42.76815" lon="0.14586">
        <ele>2521.6</ele>
        <time>2021-01-29T14:49:25Z</time>
      </trkpt>
      <trkpt lat="42.76815" lon="0.14586">
        <ele>2521.4</ele>
        <time>2021-01-29T14:49:26Z</time>
      </trkpt>
      <trkpt lat="42.76815" lon="0.14586">
        <ele>2521.2</ele>
        <time>2021-01-29T14:49:27Z</time>
      </trkpt>
      <trkpt lat="42.76815" lon="0.14586">
        <ele>2521</ele>
        <time>2021-01-29T14:49:28Z</time>
      </trkpt>
      <trkpt lat="42.76815" lon="0.14586">
        <ele>2521</ele>
        <time>2021-01-29T14:49:29Z</time>
      </trkpt>
      <trkpt lat="42.76815" lon="0.14586">
        <ele>2520.8</ele>
        <time>2021-01-29T14:49:30Z</time>
      </trkpt>
      <trkpt lat="42.76815" lon="0.14586">
        <ele>2520.8</ele>
        <time>2021-01-29T14:49:31Z</time>
      </trkpt>
      <trkpt lat="42.76815" lon="0.14586">
        <ele>2520.8</ele>
        <time>2021-01-29T14:49:32Z</time>
      </trkpt>
      <trkpt lat="42.76815" lon="0.14586">
        <ele>2520.8</ele>
        <time>2021-01-29T14:49:33Z</time>
      </trkpt>
      <trkpt lat="42.76815" lon="0.14586">
        <ele>2520.8</ele>
        <time>2021-01-29T14:49:34Z</time>
      </trkpt>
      <trkpt lat="42.76815" lon="0.14586">
        <ele>2520.8</ele>
        <time>2021-01-29T14:49:35Z</time>
      </trkpt>
      <trkpt lat="42.76815" lon="0.14586">
        <ele>2520.8</ele>
        <time>2021-01-29T14:49:36Z</time>
      </trkpt>
      <trkpt lat="42.76815" lon="0.14586">
        <ele>2520.8</ele>
        <time>2021-01-29T14:49:37Z</time>
      </trkpt>
      <trkpt lat="42.76815" lon="0.14586">
        <ele>2521</ele>
        <time>2021-01-29T14:49:38Z</time>
      </trkpt>
      <trkpt lat="42.76815" lon="0.14586">
        <ele>2521</ele>
        <time>2021-01-29T14:49:39Z</time>
      </trkpt>
      <trkpt lat="42.76815" lon="0.14586">
        <ele>2521</ele>
        <time>2021-01-29T14:49:40Z</time>
      </trkpt>
      <trkpt lat="42.76815" lon="0.14586">
        <ele>2521</ele>
        <time>2021-01-29T14:49:41Z</time>
      </trkpt>
      <trkpt lat="42.76815" lon="0.14586">
        <ele>2521</ele>
        <time>2021-01-29T14:49:42Z</time>
      </trkpt>
      <trkpt lat="42.76815" lon="0.14586">
        <ele>2521</ele>
        <time>2021-01-29T14:49:43Z</time>
      </trkpt>
      <trkpt lat="42.76815" lon="0.14586">
        <ele>2521.2</ele>
        <time>2021-01-29T14:49:44Z</time>
      </trkpt>
      <trkpt lat="42.76815" lon="0.14586">
        <ele>2521.2</ele>
        <time>2021-01-29T14:49:45Z</time>
      </trkpt>
      <trkpt lat="42.76815" lon="0.14586">
        <ele>2521.2</ele>
        <time>2021-01-29T14:49:46Z</time>
      </trkpt>
      <trkpt lat="42.76815" lon="0.14586">
        <ele>2521.2</ele>
        <time>2021-01-29T14:49:47Z</time>
      </trkpt>
      <trkpt lat="42.76815" lon="0.14586">
        <ele>2521.2</ele>
        <time>2021-01-29T14:49:48Z</time>
      </trkpt>
      <trkpt lat="42.76815" lon="0.14586">
        <ele>2521.2</ele>
        <time>2021-01-29T14:49:49Z</time>
      </trkpt>
      <trkpt lat="42.76815" lon="0.14586">
        <ele>2521</ele>
        <time>2021-01-29T14:49:50Z</time>
      </trkpt>
      <trkpt lat="42.76815" lon="0.14586">
        <ele>2521</ele>
        <time>2021-01-29T14:49:51Z</time>
      </trkpt>
      <trkpt lat="42.76815" lon="0.14587">
        <ele>2520.8</ele>
        <time>2021-01-29T14:49:52Z</time>
      </trkpt>
      <trkpt lat="42.76814" lon="0.14587">
        <ele>2521</ele>
        <time>2021-01-29T14:49:53Z</time>
      </trkpt>
      <trkpt lat="42.76814" lon="0.14587">
        <ele>2520.8</ele>
        <time>2021-01-29T14:49:54Z</time>
      </trkpt>
      <trkpt lat="42.76813" lon="0.14586">
        <ele>2520.8</ele>
        <time>2021-01-29T14:49:55Z</time>
      </trkpt>
      <trkpt lat="42.76813" lon="0.14586">
        <ele>2521</ele>
        <time>2021-01-29T14:49:56Z</time>
      </trkpt>
      <trkpt lat="42.76813" lon="0.14586">
        <ele>2520.8</ele>
        <time>2021-01-29T14:49:57Z</time>
      </trkpt>
      <trkpt lat="42.76813" lon="0.14586">
        <ele>2520.8</ele>
        <time>2021-01-29T14:49:58Z</time>
      </trkpt>
      <trkpt lat="42.76813" lon="0.14586">
        <ele>2520.6</ele>
        <time>2021-01-29T14:49:59Z</time>
      </trkpt>
      <trkpt lat="42.76813" lon="0.14586">
        <ele>2520.6</ele>
        <time>2021-01-29T14:50:00Z</time>
      </trkpt>
      <trkpt lat="42.76813" lon="0.14586">
        <ele>2520.6</ele>
        <time>2021-01-29T14:50:01Z</time>
      </trkpt>
      <trkpt lat="42.76813" lon="0.14586">
        <ele>2520.4</ele>
        <time>2021-01-29T14:50:02Z</time>
      </trkpt>
      <trkpt lat="42.76813" lon="0.14586">
        <ele>2520.2</ele>
        <time>2021-01-29T14:50:03Z</time>
      </trkpt>
      <trkpt lat="42.76813" lon="0.14586">
        <ele>2520</ele>
        <time>2021-01-29T14:50:04Z</time>
      </trkpt>
      <trkpt lat="42.76813" lon="0.14586">
        <ele>2520</ele>
        <time>2021-01-29T14:50:05Z</time>
      </trkpt>
      <trkpt lat="42.76813" lon="0.14586">
        <ele>2519.8</ele>
        <time>2021-01-29T14:50:06Z</time>
      </trkpt>
      <trkpt lat="42.76813" lon="0.14586">
        <ele>2519.8</ele>
        <time>2021-01-29T14:50:07Z</time>
      </trkpt>
      <trkpt lat="42.76813" lon="0.14586">
        <ele>2519.8</ele>
        <time>2021-01-29T14:50:08Z</time>
      </trkpt>
      <trkpt lat="42.76813" lon="0.14586">
        <ele>2519.6</ele>
        <time>2021-01-29T14:50:09Z</time>
      </trkpt>
      <trkpt lat="42.76813" lon="0.14586">
        <ele>2519.6</ele>
        <time>2021-01-29T14:50:10Z</time>
      </trkpt>
      <trkpt lat="42.76813" lon="0.14586">
        <ele>2519.8</ele>
        <time>2021-01-29T14:50:11Z</time>
      </trkpt>
      <trkpt lat="42.76813" lon="0.14586">
        <ele>2519.6</ele>
        <time>2021-01-29T14:50:12Z</time>
      </trkpt>
      <trkpt lat="42.76813" lon="0.14586">
        <ele>2519.6</ele>
        <time>2021-01-29T14:50:13Z</time>
      </trkpt>
      <trkpt lat="42.76813" lon="0.14586">
        <ele>2519.6</ele>
        <time>2021-01-29T14:50:14Z</time>
      </trkpt>
      <trkpt lat="42.76813" lon="0.14586">
        <ele>2519.8</ele>
        <time>2021-01-29T14:50:15Z</time>
      </trkpt>
      <trkpt lat="42.76813" lon="0.14586">
        <ele>2519.6</ele>
        <time>2021-01-29T14:50:16Z</time>
      </trkpt>
      <trkpt lat="42.76813" lon="0.14586">
        <ele>2519.8</ele>
        <time>2021-01-29T14:50:17Z</time>
      </trkpt>
      <trkpt lat="42.76813" lon="0.14586">
        <ele>2519.8</ele>
        <time>2021-01-29T14:50:18Z</time>
      </trkpt>
      <trkpt lat="42.76813" lon="0.14586">
        <ele>2519.8</ele>
        <time>2021-01-29T14:50:19Z</time>
      </trkpt>
      <trkpt lat="42.76813" lon="0.14586">
        <ele>2519.8</ele>
        <time>2021-01-29T14:50:20Z</time>
      </trkpt>
      <trkpt lat="42.76813" lon="0.14586">
        <ele>2519.8</ele>
        <time>2021-01-29T14:50:21Z</time>
      </trkpt>
      <trkpt lat="42.76813" lon="0.14586">
        <ele>2519.8</ele>
        <time>2021-01-29T14:50:22Z</time>
      </trkpt>
      <trkpt lat="42.76813" lon="0.14586">
        <ele>2520</ele>
        <time>2021-01-29T14:50:23Z</time>
      </trkpt>
      <trkpt lat="42.76813" lon="0.14586">
        <ele>2520</ele>
        <time>2021-01-29T14:50:24Z</time>
      </trkpt>
      <trkpt lat="42.76813" lon="0.14586">
        <ele>2520</ele>
        <time>2021-01-29T14:50:25Z</time>
      </trkpt>
      <trkpt lat="42.76813" lon="0.14586">
        <ele>2520</ele>
        <time>2021-01-29T14:50:26Z</time>
      </trkpt>
      <trkpt lat="42.76813" lon="0.14586">
        <ele>2520</ele>
        <time>2021-01-29T14:50:27Z</time>
      </trkpt>
      <trkpt lat="42.76813" lon="0.14586">
        <ele>2520.2</ele>
        <time>2021-01-29T14:50:28Z</time>
      </trkpt>
      <trkpt lat="42.76813" lon="0.14586">
        <ele>2520.2</ele>
        <time>2021-01-29T14:50:29Z</time>
      </trkpt>
      <trkpt lat="42.76813" lon="0.14586">
        <ele>2520.2</ele>
        <time>2021-01-29T14:50:30Z</time>
      </trkpt>
      <trkpt lat="42.76813" lon="0.14586">
        <ele>2520.4</ele>
        <time>2021-01-29T14:50:31Z</time>
      </trkpt>
      <trkpt lat="42.76813" lon="0.14586">
        <ele>2520.4</ele>
        <time>2021-01-29T14:50:32Z</time>
      </trkpt>
      <trkpt lat="42.76813" lon="0.14586">
        <ele>2520.6</ele>
        <time>2021-01-29T14:50:33Z</time>
      </trkpt>
      <trkpt lat="42.76813" lon="0.14586">
        <ele>2520.6</ele>
        <time>2021-01-29T14:50:34Z</time>
      </trkpt>
      <trkpt lat="42.76813" lon="0.14586">
        <ele>2520.6</ele>
        <time>2021-01-29T14:50:35Z</time>
      </trkpt>
      <trkpt lat="42.76813" lon="0.14586">
        <ele>2520.8</ele>
        <time>2021-01-29T14:50:36Z</time>
      </trkpt>
      <trkpt lat="42.76813" lon="0.14586">
        <ele>2520.8</ele>
        <time>2021-01-29T14:50:37Z</time>
      </trkpt>
      <trkpt lat="42.76813" lon="0.14586">
        <ele>2521</ele>
        <time>2021-01-29T14:50:38Z</time>
      </trkpt>
      <trkpt lat="42.76813" lon="0.14586">
        <ele>2521</ele>
        <time>2021-01-29T14:50:39Z</time>
      </trkpt>
      <trkpt lat="42.76813" lon="0.14586">
        <ele>2521</ele>
        <time>2021-01-29T14:50:40Z</time>
      </trkpt>
      <trkpt lat="42.76813" lon="0.14586">
        <ele>2521</ele>
        <time>2021-01-29T14:50:41Z</time>
      </trkpt>
      <trkpt lat="42.76813" lon="0.14586">
        <ele>2521</ele>
        <time>2021-01-29T14:50:42Z</time>
      </trkpt>
      <trkpt lat="42.76813" lon="0.14586">
        <ele>2521.2</ele>
        <time>2021-01-29T14:50:43Z</time>
      </trkpt>
      <trkpt lat="42.76813" lon="0.14586">
        <ele>2521.2</ele>
        <time>2021-01-29T14:50:44Z</time>
      </trkpt>
      <trkpt lat="42.76813" lon="0.14586">
        <ele>2521.2</ele>
        <time>2021-01-29T14:50:45Z</time>
      </trkpt>
      <trkpt lat="42.76813" lon="0.14586">
        <ele>2521</ele>
        <time>2021-01-29T14:50:46Z</time>
      </trkpt>
      <trkpt lat="42.76813" lon="0.14586">
        <ele>2521</ele>
        <time>2021-01-29T14:50:47Z</time>
      </trkpt>
      <trkpt lat="42.76813" lon="0.14586">
        <ele>2521</ele>
        <time>2021-01-29T14:50:48Z</time>
      </trkpt>
      <trkpt lat="42.76813" lon="0.14586">
        <ele>2521</ele>
        <time>2021-01-29T14:50:49Z</time>
      </trkpt>
      <trkpt lat="42.76813" lon="0.14586">
        <ele>2521</ele>
        <time>2021-01-29T14:50:50Z</time>
      </trkpt>
      <trkpt lat="42.76813" lon="0.14586">
        <ele>2521</ele>
        <time>2021-01-29T14:50:51Z</time>
      </trkpt>
      <trkpt lat="42.76813" lon="0.14586">
        <ele>2521</ele>
        <time>2021-01-29T14:50:52Z</time>
      </trkpt>
      <trkpt lat="42.76813" lon="0.14586">
        <ele>2521</ele>
        <time>2021-01-29T14:50:53Z</time>
      </trkpt>
      <trkpt lat="42.76813" lon="0.14586">
        <ele>2521</ele>
        <time>2021-01-29T14:50:54Z</time>
      </trkpt>
      <trkpt lat="42.76813" lon="0.14586">
        <ele>2521</ele>
        <time>2021-01-29T14:50:55Z</time>
      </trkpt>
      <trkpt lat="42.76813" lon="0.14586">
        <ele>2521</ele>
        <time>2021-01-29T14:50:56Z</time>
      </trkpt>
      <trkpt lat="42.76813" lon="0.14586">
        <ele>2521</ele>
        <time>2021-01-29T14:50:57Z</time>
      </trkpt>
      <trkpt lat="42.76813" lon="0.14586">
        <ele>2521</ele>
        <time>2021-01-29T14:50:58Z</time>
      </trkpt>
      <trkpt lat="42.76813" lon="0.14586">
        <ele>2521</ele>
        <time>2021-01-29T14:50:59Z</time>
      </trkpt>
      <trkpt lat="42.76813" lon="0.14586">
        <ele>2520.8</ele>
        <time>2021-01-29T14:51:00Z</time>
      </trkpt>
      <trkpt lat="42.76813" lon="0.14586">
        <ele>2520.8</ele>
        <time>2021-01-29T14:51:01Z</time>
      </trkpt>
      <trkpt lat="42.76813" lon="0.14586">
        <ele>2521</ele>
        <time>2021-01-29T14:51:02Z</time>
      </trkpt>
      <trkpt lat="42.76813" lon="0.14586">
        <ele>2521</ele>
        <time>2021-01-29T14:51:03Z</time>
      </trkpt>
      <trkpt lat="42.76813" lon="0.14586">
        <ele>2521</ele>
        <time>2021-01-29T14:51:04Z</time>
      </trkpt>
      <trkpt lat="42.76813" lon="0.14586">
        <ele>2521</ele>
        <time>2021-01-29T14:51:05Z</time>
      </trkpt>
      <trkpt lat="42.76813" lon="0.14586">
        <ele>2521</ele>
        <time>2021-01-29T14:51:06Z</time>
      </trkpt>
      <trkpt lat="42.76813" lon="0.14586">
        <ele>2521</ele>
        <time>2021-01-29T14:51:07Z</time>
      </trkpt>
      <trkpt lat="42.76813" lon="0.14586">
        <ele>2521</ele>
        <time>2021-01-29T14:51:08Z</time>
      </trkpt>
      <trkpt lat="42.76813" lon="0.14586">
        <ele>2520.8</ele>
        <time>2021-01-29T14:51:09Z</time>
      </trkpt>
      <trkpt lat="42.76813" lon="0.14586">
        <ele>2520.8</ele>
        <time>2021-01-29T14:51:10Z</time>
      </trkpt>
      <trkpt lat="42.76813" lon="0.14586">
        <ele>2520.8</ele>
        <time>2021-01-29T14:51:11Z</time>
      </trkpt>
      <trkpt lat="42.76813" lon="0.14586">
        <ele>2520.8</ele>
        <time>2021-01-29T14:51:12Z</time>
      </trkpt>
      <trkpt lat="42.76813" lon="0.14586">
        <ele>2520.8</ele>
        <time>2021-01-29T14:51:13Z</time>
      </trkpt>
      <trkpt lat="42.76813" lon="0.14586">
        <ele>2520.8</ele>
        <time>2021-01-29T14:51:14Z</time>
      </trkpt>
      <trkpt lat="42.76813" lon="0.14586">
        <ele>2520.8</ele>
        <time>2021-01-29T14:51:15Z</time>
      </trkpt>
      <trkpt lat="42.76813" lon="0.14586">
        <ele>2520.8</ele>
        <time>2021-01-29T14:51:16Z</time>
      </trkpt>
      <trkpt lat="42.76813" lon="0.14586">
        <ele>2520.8</ele>
        <time>2021-01-29T14:51:17Z</time>
      </trkpt>
      <trkpt lat="42.76813" lon="0.14586">
        <ele>2520.8</ele>
        <time>2021-01-29T14:51:18Z</time>
      </trkpt>
      <trkpt lat="42.76813" lon="0.14586">
        <ele>2521</ele>
        <time>2021-01-29T14:51:19Z</time>
      </trkpt>
      <trkpt lat="42.76813" lon="0.14586">
        <ele>2521</ele>
        <time>2021-01-29T14:51:20Z</time>
      </trkpt>
      <trkpt lat="42.76813" lon="0.14586">
        <ele>2521</ele>
        <time>2021-01-29T14:51:21Z</time>
      </trkpt>
      <trkpt lat="42.76813" lon="0.14586">
        <ele>2521</ele>
        <time>2021-01-29T14:51:22Z</time>
      </trkpt>
      <trkpt lat="42.76813" lon="0.14586">
        <ele>2521</ele>
        <time>2021-01-29T14:51:23Z</time>
      </trkpt>
      <trkpt lat="42.76813" lon="0.14586">
        <ele>2521</ele>
        <time>2021-01-29T14:51:24Z</time>
      </trkpt>
      <trkpt lat="42.76813" lon="0.14586">
        <ele>2521</ele>
        <time>2021-01-29T14:51:25Z</time>
      </trkpt>
      <trkpt lat="42.76813" lon="0.14586">
        <ele>2521</ele>
        <time>2021-01-29T14:51:26Z</time>
      </trkpt>
      <trkpt lat="42.76813" lon="0.14586">
        <ele>2521.2</ele>
        <time>2021-01-29T14:51:27Z</time>
      </trkpt>
      <trkpt lat="42.76813" lon="0.14586">
        <ele>2521.2</ele>
        <time>2021-01-29T14:51:28Z</time>
      </trkpt>
      <trkpt lat="42.76813" lon="0.14586">
        <ele>2521</ele>
        <time>2021-01-29T14:51:29Z</time>
      </trkpt>
      <trkpt lat="42.76813" lon="0.14586">
        <ele>2521.2</ele>
        <time>2021-01-29T14:51:30Z</time>
      </trkpt>
      <trkpt lat="42.76813" lon="0.14586">
        <ele>2521.2</ele>
        <time>2021-01-29T14:51:31Z</time>
      </trkpt>
      <trkpt lat="42.76814" lon="0.14586">
        <ele>2521</ele>
        <time>2021-01-29T14:51:32Z</time>
      </trkpt>
      <trkpt lat="42.76814" lon="0.14587">
        <ele>2521</ele>
        <time>2021-01-29T14:51:33Z</time>
      </trkpt>
      <trkpt lat="42.76813" lon="0.14589">
        <ele>2521</ele>
        <time>2021-01-29T14:51:34Z</time>
      </trkpt>
      <trkpt lat="42.76813" lon="0.1459">
        <ele>2521</ele>
        <time>2021-01-29T14:51:35Z</time>
      </trkpt>
      <trkpt lat="42.76812" lon="0.14592">
        <ele>2521</ele>
        <time>2021-01-29T14:51:36Z</time>
      </trkpt>
      <trkpt lat="42.76812" lon="0.14594">
        <ele>2521</ele>
        <time>2021-01-29T14:51:37Z</time>
      </trkpt>
      <trkpt lat="42.76812" lon="0.14596">
        <ele>2520.8</ele>
        <time>2021-01-29T14:51:38Z</time>
      </trkpt>
      <trkpt lat="42.76811" lon="0.14597">
        <ele>2520.8</ele>
        <time>2021-01-29T14:51:39Z</time>
      </trkpt>
      <trkpt lat="42.76811" lon="0.14599">
        <ele>2520.8</ele>
        <time>2021-01-29T14:51:40Z</time>
      </trkpt>
      <trkpt lat="42.76811" lon="0.14601">
        <ele>2520.6</ele>
        <time>2021-01-29T14:51:41Z</time>
      </trkpt>
      <trkpt lat="42.76811" lon="0.14603">
        <ele>2520.6</ele>
        <time>2021-01-29T14:51:42Z</time>
      </trkpt>
      <trkpt lat="42.76811" lon="0.14605">
        <ele>2520.6</ele>
        <time>2021-01-29T14:51:43Z</time>
      </trkpt>
      <trkpt lat="42.76811" lon="0.14607">
        <ele>2520.6</ele>
        <time>2021-01-29T14:51:44Z</time>
      </trkpt>
      <trkpt lat="42.7681" lon="0.14609">
        <ele>2520.6</ele>
        <time>2021-01-29T14:51:45Z</time>
      </trkpt>
      <trkpt lat="42.7681" lon="0.14611">
        <ele>2520.4</ele>
        <time>2021-01-29T14:51:46Z</time>
      </trkpt>
      <trkpt lat="42.7681" lon="0.14613">
        <ele>2520.4</ele>
        <time>2021-01-29T14:51:47Z</time>
      </trkpt>
      <trkpt lat="42.7681" lon="0.14615">
        <ele>2520.4</ele>
        <time>2021-01-29T14:51:48Z</time>
      </trkpt>
      <trkpt lat="42.76809" lon="0.14618">
        <ele>2520.2</ele>
        <time>2021-01-29T14:51:49Z</time>
      </trkpt>
      <trkpt lat="42.76808" lon="0.14621">
        <ele>2520</ele>
        <time>2021-01-29T14:51:50Z</time>
      </trkpt>
      <trkpt lat="42.76807" lon="0.14624">
        <ele>2520</ele>
        <time>2021-01-29T14:51:51Z</time>
      </trkpt>
      <trkpt lat="42.76806" lon="0.14627">
        <ele>2519.8</ele>
        <time>2021-01-29T14:51:52Z</time>
      </trkpt>
      <trkpt lat="42.76804" lon="0.1463">
        <ele>2519.6</ele>
        <time>2021-01-29T14:51:53Z</time>
      </trkpt>
      <trkpt lat="42.76803" lon="0.14633">
        <ele>2519.6</ele>
        <time>2021-01-29T14:51:54Z</time>
      </trkpt>
      <trkpt lat="42.76801" lon="0.14637">
        <ele>2519.4</ele>
        <time>2021-01-29T14:51:55Z</time>
      </trkpt>
      <trkpt lat="42.768" lon="0.14641">
        <ele>2519.2</ele>
        <time>2021-01-29T14:51:56Z</time>
      </trkpt>
      <trkpt lat="42.76798" lon="0.14645">
        <ele>2518.8</ele>
        <time>2021-01-29T14:51:57Z</time>
      </trkpt>
      <trkpt lat="42.76796" lon="0.1465">
        <ele>2518.4</ele>
        <time>2021-01-29T14:51:58Z</time>
      </trkpt>
      <trkpt lat="42.76794" lon="0.14655">
        <ele>2517.8</ele>
        <time>2021-01-29T14:51:59Z</time>
      </trkpt>
      <trkpt lat="42.76792" lon="0.14659">
        <ele>2517.4</ele>
        <time>2021-01-29T14:52:00Z</time>
      </trkpt>
      <trkpt lat="42.76789" lon="0.14664">
        <ele>2517</ele>
        <time>2021-01-29T14:52:01Z</time>
      </trkpt>
      <trkpt lat="42.76785" lon="0.14668">
        <ele>2516.6</ele>
        <time>2021-01-29T14:52:02Z</time>
      </trkpt>
      <trkpt lat="42.76782" lon="0.14673">
        <ele>2516</ele>
        <time>2021-01-29T14:52:03Z</time>
      </trkpt>
      <trkpt lat="42.76779" lon="0.14677">
        <ele>2515.6</ele>
        <time>2021-01-29T14:52:04Z</time>
      </trkpt>
      <trkpt lat="42.76776" lon="0.14683">
        <ele>2515.2</ele>
        <time>2021-01-29T14:52:05Z</time>
      </trkpt>
      <trkpt lat="42.76774" lon="0.14689">
        <ele>2514.6</ele>
        <time>2021-01-29T14:52:06Z</time>
      </trkpt>
      <trkpt lat="42.76771" lon="0.14695">
        <ele>2514.2</ele>
        <time>2021-01-29T14:52:07Z</time>
      </trkpt>
      <trkpt lat="42.76767" lon="0.14701">
        <ele>2513.8</ele>
        <time>2021-01-29T14:52:08Z</time>
      </trkpt>
      <trkpt lat="42.76764" lon="0.14707">
        <ele>2513.2</ele>
        <time>2021-01-29T14:52:09Z</time>
      </trkpt>
      <trkpt lat="42.76762" lon="0.14713">
        <ele>2512.8</ele>
        <time>2021-01-29T14:52:10Z</time>
      </trkpt>
      <trkpt lat="42.76759" lon="0.14719">
        <ele>2512.2</ele>
        <time>2021-01-29T14:52:11Z</time>
      </trkpt>
      <trkpt lat="42.76755" lon="0.14724">
        <ele>2511.6</ele>
        <time>2021-01-29T14:52:12Z</time>
      </trkpt>
      <trkpt lat="42.76753" lon="0.14729">
        <ele>2511</ele>
        <time>2021-01-29T14:52:13Z</time>
      </trkpt>
      <trkpt lat="42.76751" lon="0.14735">
        <ele>2510.6</ele>
        <time>2021-01-29T14:52:14Z</time>
      </trkpt>
      <trkpt lat="42.76749" lon="0.1474">
        <ele>2510.2</ele>
        <time>2021-01-29T14:52:15Z</time>
      </trkpt>
      <trkpt lat="42.76745" lon="0.14745">
        <ele>2509.6</ele>
        <time>2021-01-29T14:52:16Z</time>
      </trkpt>
      <trkpt lat="42.76742" lon="0.14749">
        <ele>2509</ele>
        <time>2021-01-29T14:52:17Z</time>
      </trkpt>
      <trkpt lat="42.76739" lon="0.14753">
        <ele>2508.6</ele>
        <time>2021-01-29T14:52:18Z</time>
      </trkpt>
      <trkpt lat="42.76737" lon="0.14757">
        <ele>2508.2</ele>
        <time>2021-01-29T14:52:19Z</time>
      </trkpt>
      <trkpt lat="42.76735" lon="0.14763">
        <ele>2508</ele>
        <time>2021-01-29T14:52:20Z</time>
      </trkpt>
      <trkpt lat="42.76734" lon="0.14769">
        <ele>2507.4</ele>
        <time>2021-01-29T14:52:21Z</time>
      </trkpt>
      <trkpt lat="42.76733" lon="0.14775">
        <ele>2506.8</ele>
        <time>2021-01-29T14:52:22Z</time>
      </trkpt>
      <trkpt lat="42.76731" lon="0.14781">
        <ele>2506.4</ele>
        <time>2021-01-29T14:52:23Z</time>
      </trkpt>
      <trkpt lat="42.76729" lon="0.14786">
        <ele>2505.8</ele>
        <time>2021-01-29T14:52:24Z</time>
      </trkpt>
      <trkpt lat="42.76728" lon="0.14792">
        <ele>2505.2</ele>
        <time>2021-01-29T14:52:25Z</time>
      </trkpt>
      <trkpt lat="42.76727" lon="0.14798">
        <ele>2504.8</ele>
        <time>2021-01-29T14:52:26Z</time>
      </trkpt>
      <trkpt lat="42.76726" lon="0.14805">
        <ele>2504.2</ele>
        <time>2021-01-29T14:52:27Z</time>
      </trkpt>
      <trkpt lat="42.76725" lon="0.14812">
        <ele>2503.6</ele>
        <time>2021-01-29T14:52:28Z</time>
      </trkpt>
      <trkpt lat="42.76724" lon="0.14818">
        <ele>2503.2</ele>
        <time>2021-01-29T14:52:29Z</time>
      </trkpt>
      <trkpt lat="42.76722" lon="0.14824">
        <ele>2502.8</ele>
        <time>2021-01-29T14:52:30Z</time>
      </trkpt>
      <trkpt lat="42.76722" lon="0.1483">
        <ele>2502.2</ele>
        <time>2021-01-29T14:52:31Z</time>
      </trkpt>
      <trkpt lat="42.76721" lon="0.14836">
        <ele>2501.6</ele>
        <time>2021-01-29T14:52:32Z</time>
      </trkpt>
      <trkpt lat="42.7672" lon="0.14841">
        <ele>2501.2</ele>
        <time>2021-01-29T14:52:33Z</time>
      </trkpt>
      <trkpt lat="42.76718" lon="0.14847">
        <ele>2500.6</ele>
        <time>2021-01-29T14:52:34Z</time>
      </trkpt>
      <trkpt lat="42.76717" lon="0.14853">
        <ele>2500</ele>
        <time>2021-01-29T14:52:35Z</time>
      </trkpt>
      <trkpt lat="42.76717" lon="0.14859">
        <ele>2499.6</ele>
        <time>2021-01-29T14:52:36Z</time>
      </trkpt>
      <trkpt lat="42.76715" lon="0.14863">
        <ele>2499.2</ele>
        <time>2021-01-29T14:52:37Z</time>
      </trkpt>
      <trkpt lat="42.76713" lon="0.14868">
        <ele>2498.8</ele>
        <time>2021-01-29T14:52:38Z</time>
      </trkpt>
      <trkpt lat="42.76711" lon="0.14873">
        <ele>2498.2</ele>
        <time>2021-01-29T14:52:39Z</time>
      </trkpt>
      <trkpt lat="42.76709" lon="0.14879">
        <ele>2497.8</ele>
        <time>2021-01-29T14:52:40Z</time>
      </trkpt>
      <trkpt lat="42.76708" lon="0.14884">
        <ele>2497.2</ele>
        <time>2021-01-29T14:52:41Z</time>
      </trkpt>
      <trkpt lat="42.76706" lon="0.1489">
        <ele>2496.8</ele>
        <time>2021-01-29T14:52:42Z</time>
      </trkpt>
      <trkpt lat="42.76705" lon="0.14896">
        <ele>2496.2</ele>
        <time>2021-01-29T14:52:43Z</time>
      </trkpt>
      <trkpt lat="42.76703" lon="0.14902">
        <ele>2495.8</ele>
        <time>2021-01-29T14:52:44Z</time>
      </trkpt>
      <trkpt lat="42.76701" lon="0.14908">
        <ele>2495</ele>
        <time>2021-01-29T14:52:45Z</time>
      </trkpt>
      <trkpt lat="42.76699" lon="0.14915">
        <ele>2494.6</ele>
        <time>2021-01-29T14:52:46Z</time>
      </trkpt>
      <trkpt lat="42.76697" lon="0.14921">
        <ele>2493.8</ele>
        <time>2021-01-29T14:52:47Z</time>
      </trkpt>
      <trkpt lat="42.76695" lon="0.14928">
        <ele>2493.2</ele>
        <time>2021-01-29T14:52:48Z</time>
      </trkpt>
      <trkpt lat="42.76692" lon="0.14933">
        <ele>2492.6</ele>
        <time>2021-01-29T14:52:49Z</time>
      </trkpt>
      <trkpt lat="42.76691" lon="0.14939">
        <ele>2492.2</ele>
        <time>2021-01-29T14:52:50Z</time>
      </trkpt>
      <trkpt lat="42.7669" lon="0.14945">
        <ele>2491.6</ele>
        <time>2021-01-29T14:52:51Z</time>
      </trkpt>
      <trkpt lat="42.76689" lon="0.14951">
        <ele>2491.2</ele>
        <time>2021-01-29T14:52:52Z</time>
      </trkpt>
      <trkpt lat="42.76687" lon="0.14957">
        <ele>2490.6</ele>
        <time>2021-01-29T14:52:53Z</time>
      </trkpt>
      <trkpt lat="42.76684" lon="0.14964">
        <ele>2490</ele>
        <time>2021-01-29T14:52:54Z</time>
      </trkpt>
      <trkpt lat="42.76681" lon="0.1497">
        <ele>2489.6</ele>
        <time>2021-01-29T14:52:55Z</time>
      </trkpt>
      <trkpt lat="42.76679" lon="0.14976">
        <ele>2489.2</ele>
        <time>2021-01-29T14:52:56Z</time>
      </trkpt>
      <trkpt lat="42.76678" lon="0.14983">
        <ele>2488.8</ele>
        <time>2021-01-29T14:52:57Z</time>
      </trkpt>
      <trkpt lat="42.76677" lon="0.1499">
        <ele>2488.4</ele>
        <time>2021-01-29T14:52:58Z</time>
      </trkpt>
      <trkpt lat="42.76676" lon="0.14997">
        <ele>2487.6</ele>
        <time>2021-01-29T14:52:59Z</time>
      </trkpt>
      <trkpt lat="42.76674" lon="0.15004">
        <ele>2487</ele>
        <time>2021-01-29T14:53:00Z</time>
      </trkpt>
      <trkpt lat="42.76672" lon="0.15011">
        <ele>2486.4</ele>
        <time>2021-01-29T14:53:01Z</time>
      </trkpt>
      <trkpt lat="42.7667" lon="0.15016">
        <ele>2486</ele>
        <time>2021-01-29T14:53:02Z</time>
      </trkpt>
      <trkpt lat="42.76669" lon="0.15022">
        <ele>2485.6</ele>
        <time>2021-01-29T14:53:03Z</time>
      </trkpt>
      <trkpt lat="42.76668" lon="0.15028">
        <ele>2485</ele>
        <time>2021-01-29T14:53:04Z</time>
      </trkpt>
      <trkpt lat="42.76666" lon="0.15033">
        <ele>2484.6</ele>
        <time>2021-01-29T14:53:05Z</time>
      </trkpt>
      <trkpt lat="42.76665" lon="0.15038">
        <ele>2484.2</ele>
        <time>2021-01-29T14:53:06Z</time>
      </trkpt>
      <trkpt lat="42.76664" lon="0.15042">
        <ele>2483.8</ele>
        <time>2021-01-29T14:53:07Z</time>
      </trkpt>
      <trkpt lat="42.76664" lon="0.15047">
        <ele>2483.6</ele>
        <time>2021-01-29T14:53:08Z</time>
      </trkpt>
      <trkpt lat="42.76664" lon="0.15052">
        <ele>2483.2</ele>
        <time>2021-01-29T14:53:09Z</time>
      </trkpt>
      <trkpt lat="42.76664" lon="0.15056">
        <ele>2482.8</ele>
        <time>2021-01-29T14:53:10Z</time>
      </trkpt>
      <trkpt lat="42.76664" lon="0.15062">
        <ele>2482.4</ele>
        <time>2021-01-29T14:53:11Z</time>
      </trkpt>
      <trkpt lat="42.76665" lon="0.15067">
        <ele>2482</ele>
        <time>2021-01-29T14:53:12Z</time>
      </trkpt>
      <trkpt lat="42.76665" lon="0.15072">
        <ele>2481.8</ele>
        <time>2021-01-29T14:53:13Z</time>
      </trkpt>
      <trkpt lat="42.76666" lon="0.15077">
        <ele>2481.4</ele>
        <time>2021-01-29T14:53:14Z</time>
      </trkpt>
      <trkpt lat="42.76668" lon="0.15081">
        <ele>2480.8</ele>
        <time>2021-01-29T14:53:15Z</time>
      </trkpt>
      <trkpt lat="42.76669" lon="0.15085">
        <ele>2480.4</ele>
        <time>2021-01-29T14:53:16Z</time>
      </trkpt>
      <trkpt lat="42.76671" lon="0.1509">
        <ele>2480</ele>
        <time>2021-01-29T14:53:17Z</time>
      </trkpt>
      <trkpt lat="42.76674" lon="0.15093">
        <ele>2479.6</ele>
        <time>2021-01-29T14:53:18Z</time>
      </trkpt>
      <trkpt lat="42.76676" lon="0.15093">
        <ele>2479.4</ele>
        <time>2021-01-29T14:53:19Z</time>
      </trkpt>
      <trkpt lat="42.76676" lon="0.15093">
        <ele>2479</ele>
        <time>2021-01-29T14:53:20Z</time>
      </trkpt>
      <trkpt lat="42.76677" lon="0.15093">
        <ele>2478.8</ele>
        <time>2021-01-29T14:53:21Z</time>
      </trkpt>
      <trkpt lat="42.76677" lon="0.15093">
        <ele>2478.6</ele>
        <time>2021-01-29T14:53:22Z</time>
      </trkpt>
      <trkpt lat="42.76677" lon="0.15093">
        <ele>2478.4</ele>
        <time>2021-01-29T14:53:23Z</time>
      </trkpt>
      <trkpt lat="42.76677" lon="0.15093">
        <ele>2478.4</ele>
        <time>2021-01-29T14:53:24Z</time>
      </trkpt>
      <trkpt lat="42.76677" lon="0.15093">
        <ele>2478.2</ele>
        <time>2021-01-29T14:53:25Z</time>
      </trkpt>
      <trkpt lat="42.76677" lon="0.15093">
        <ele>2478.2</ele>
        <time>2021-01-29T14:53:26Z</time>
      </trkpt>
      <trkpt lat="42.76677" lon="0.15093">
        <ele>2478.2</ele>
        <time>2021-01-29T14:53:27Z</time>
      </trkpt>
      <trkpt lat="42.76677" lon="0.15093">
        <ele>2478.2</ele>
        <time>2021-01-29T14:53:28Z</time>
      </trkpt>
      <trkpt lat="42.76677" lon="0.15093">
        <ele>2478.2</ele>
        <time>2021-01-29T14:53:29Z</time>
      </trkpt>
      <trkpt lat="42.76677" lon="0.15093">
        <ele>2478.2</ele>
        <time>2021-01-29T14:53:30Z</time>
      </trkpt>
      <trkpt lat="42.76677" lon="0.15093">
        <ele>2478.2</ele>
        <time>2021-01-29T14:53:31Z</time>
      </trkpt>
      <trkpt lat="42.76677" lon="0.15093">
        <ele>2478</ele>
        <time>2021-01-29T14:53:32Z</time>
      </trkpt>
      <trkpt lat="42.76677" lon="0.15093">
        <ele>2478</ele>
        <time>2021-01-29T14:53:33Z</time>
      </trkpt>
      <trkpt lat="42.76677" lon="0.15093">
        <ele>2478</ele>
        <time>2021-01-29T14:53:34Z</time>
      </trkpt>
      <trkpt lat="42.76677" lon="0.15093">
        <ele>2478</ele>
        <time>2021-01-29T14:53:35Z</time>
      </trkpt>
      <trkpt lat="42.76677" lon="0.15093">
        <ele>2478</ele>
        <time>2021-01-29T14:53:36Z</time>
      </trkpt>
      <trkpt lat="42.76677" lon="0.15093">
        <ele>2478</ele>
        <time>2021-01-29T14:53:37Z</time>
      </trkpt>
      <trkpt lat="42.76677" lon="0.15093">
        <ele>2478</ele>
        <time>2021-01-29T14:53:38Z</time>
      </trkpt>
      <trkpt lat="42.76677" lon="0.15093">
        <ele>2478</ele>
        <time>2021-01-29T14:53:39Z</time>
      </trkpt>
      <trkpt lat="42.76677" lon="0.15093">
        <ele>2478</ele>
        <time>2021-01-29T14:53:40Z</time>
      </trkpt>
      <trkpt lat="42.76677" lon="0.15093">
        <ele>2478</ele>
        <time>2021-01-29T14:53:41Z</time>
      </trkpt>
      <trkpt lat="42.76677" lon="0.15093">
        <ele>2477.8</ele>
        <time>2021-01-29T14:53:42Z</time>
      </trkpt>
      <trkpt lat="42.76677" lon="0.15093">
        <ele>2477.8</ele>
        <time>2021-01-29T14:53:43Z</time>
      </trkpt>
      <trkpt lat="42.76677" lon="0.15093">
        <ele>2477.8</ele>
        <time>2021-01-29T14:53:44Z</time>
      </trkpt>
      <trkpt lat="42.76677" lon="0.15093">
        <ele>2477.8</ele>
        <time>2021-01-29T14:53:45Z</time>
      </trkpt>
      <trkpt lat="42.76677" lon="0.15093">
        <ele>2477.8</ele>
        <time>2021-01-29T14:53:46Z</time>
      </trkpt>
      <trkpt lat="42.76678" lon="0.15094">
        <ele>2477.8</ele>
        <time>2021-01-29T14:53:47Z</time>
      </trkpt>
      <trkpt lat="42.76679" lon="0.15095">
        <ele>2477.6</ele>
        <time>2021-01-29T14:53:48Z</time>
      </trkpt>
      <trkpt lat="42.7668" lon="0.15097">
        <ele>2477.4</ele>
        <time>2021-01-29T14:53:49Z</time>
      </trkpt>
      <trkpt lat="42.76681" lon="0.15102">
        <ele>2477</ele>
        <time>2021-01-29T14:53:50Z</time>
      </trkpt>
      <trkpt lat="42.76681" lon="0.15107">
        <ele>2476.4</ele>
        <time>2021-01-29T14:53:51Z</time>
      </trkpt>
      <trkpt lat="42.76681" lon="0.15114">
        <ele>2475.6</ele>
        <time>2021-01-29T14:53:52Z</time>
      </trkpt>
      <trkpt lat="42.76681" lon="0.1512">
        <ele>2474.6</ele>
        <time>2021-01-29T14:53:53Z</time>
      </trkpt>
      <trkpt lat="42.7668" lon="0.15127">
        <ele>2473.6</ele>
        <time>2021-01-29T14:53:54Z</time>
      </trkpt>
      <trkpt lat="42.76679" lon="0.15133">
        <ele>2472.6</ele>
        <time>2021-01-29T14:53:55Z</time>
      </trkpt>
      <trkpt lat="42.76679" lon="0.15139">
        <ele>2471.4</ele>
        <time>2021-01-29T14:53:56Z</time>
      </trkpt>
      <trkpt lat="42.76679" lon="0.15145">
        <ele>2470.4</ele>
        <time>2021-01-29T14:53:57Z</time>
      </trkpt>
      <trkpt lat="42.76679" lon="0.15151">
        <ele>2469.6</ele>
        <time>2021-01-29T14:53:58Z</time>
      </trkpt>
      <trkpt lat="42.76681" lon="0.15157">
        <ele>2468.6</ele>
        <time>2021-01-29T14:53:59Z</time>
      </trkpt>
      <trkpt lat="42.76682" lon="0.15162">
        <ele>2467.4</ele>
        <time>2021-01-29T14:54:00Z</time>
      </trkpt>
      <trkpt lat="42.76683" lon="0.15167">
        <ele>2466.4</ele>
        <time>2021-01-29T14:54:01Z</time>
      </trkpt>
      <trkpt lat="42.76685" lon="0.15171">
        <ele>2465.4</ele>
        <time>2021-01-29T14:54:02Z</time>
      </trkpt>
      <trkpt lat="42.76687" lon="0.15175">
        <ele>2464.4</ele>
        <time>2021-01-29T14:54:03Z</time>
      </trkpt>
      <trkpt lat="42.7669" lon="0.15179">
        <ele>2463.2</ele>
        <time>2021-01-29T14:54:04Z</time>
      </trkpt>
      <trkpt lat="42.76693" lon="0.15184">
        <ele>2462</ele>
        <time>2021-01-29T14:54:05Z</time>
      </trkpt>
      <trkpt lat="42.76695" lon="0.15189">
        <ele>2460.6</ele>
        <time>2021-01-29T14:54:06Z</time>
      </trkpt>
      <trkpt lat="42.76697" lon="0.15195">
        <ele>2459.6</ele>
        <time>2021-01-29T14:54:07Z</time>
      </trkpt>
      <trkpt lat="42.76699" lon="0.152">
        <ele>2458.4</ele>
        <time>2021-01-29T14:54:08Z</time>
      </trkpt>
      <trkpt lat="42.767" lon="0.15206">
        <ele>2457.2</ele>
        <time>2021-01-29T14:54:09Z</time>
      </trkpt>
      <trkpt lat="42.76701" lon="0.15213">
        <ele>2456</ele>
        <time>2021-01-29T14:54:10Z</time>
      </trkpt>
      <trkpt lat="42.76702" lon="0.15219">
        <ele>2454.8</ele>
        <time>2021-01-29T14:54:11Z</time>
      </trkpt>
      <trkpt lat="42.76703" lon="0.15225">
        <ele>2453.6</ele>
        <time>2021-01-29T14:54:12Z</time>
      </trkpt>
      <trkpt lat="42.76703" lon="0.15231">
        <ele>2452.6</ele>
        <time>2021-01-29T14:54:13Z</time>
      </trkpt>
      <trkpt lat="42.76704" lon="0.15237">
        <ele>2451.6</ele>
        <time>2021-01-29T14:54:14Z</time>
      </trkpt>
      <trkpt lat="42.76704" lon="0.15242">
        <ele>2450.4</ele>
        <time>2021-01-29T14:54:15Z</time>
      </trkpt>
      <trkpt lat="42.76705" lon="0.15247">
        <ele>2449.4</ele>
        <time>2021-01-29T14:54:16Z</time>
      </trkpt>
      <trkpt lat="42.76709" lon="0.1525">
        <ele>2448.6</ele>
        <time>2021-01-29T14:54:17Z</time>
      </trkpt>
      <trkpt lat="42.76713" lon="0.15253">
        <ele>2447.6</ele>
        <time>2021-01-29T14:54:18Z</time>
      </trkpt>
      <trkpt lat="42.76716" lon="0.15257">
        <ele>2446.4</ele>
        <time>2021-01-29T14:54:19Z</time>
      </trkpt>
      <trkpt lat="42.76716" lon="0.15263">
        <ele>2445.2</ele>
        <time>2021-01-29T14:54:20Z</time>
      </trkpt>
      <trkpt lat="42.76716" lon="0.15269">
        <ele>2444</ele>
        <time>2021-01-29T14:54:21Z</time>
      </trkpt>
      <trkpt lat="42.76718" lon="0.15276">
        <ele>2442.8</ele>
        <time>2021-01-29T14:54:22Z</time>
      </trkpt>
      <trkpt lat="42.76719" lon="0.15284">
        <ele>2441.6</ele>
        <time>2021-01-29T14:54:23Z</time>
      </trkpt>
      <trkpt lat="42.76722" lon="0.15291">
        <ele>2440.2</ele>
        <time>2021-01-29T14:54:24Z</time>
      </trkpt>
      <trkpt lat="42.76725" lon="0.15298">
        <ele>2439</ele>
        <time>2021-01-29T14:54:25Z</time>
      </trkpt>
      <trkpt lat="42.76727" lon="0.15306">
        <ele>2437.6</ele>
        <time>2021-01-29T14:54:26Z</time>
      </trkpt>
      <trkpt lat="42.76728" lon="0.15315">
        <ele>2436.2</ele>
        <time>2021-01-29T14:54:27Z</time>
      </trkpt>
      <trkpt lat="42.76732" lon="0.15321">
        <ele>2434.6</ele>
        <time>2021-01-29T14:54:28Z</time>
      </trkpt>
      <trkpt lat="42.76737" lon="0.15325">
        <ele>2433</ele>
        <time>2021-01-29T14:54:29Z</time>
      </trkpt>
      <trkpt lat="42.76739" lon="0.15331">
        <ele>2431.6</ele>
        <time>2021-01-29T14:54:30Z</time>
      </trkpt>
      <trkpt lat="42.7674" lon="0.15339">
        <ele>2430</ele>
        <time>2021-01-29T14:54:31Z</time>
      </trkpt>
      <trkpt lat="42.76743" lon="0.15345">
        <ele>2428.6</ele>
        <time>2021-01-29T14:54:32Z</time>
      </trkpt>
      <trkpt lat="42.76749" lon="0.15349">
        <ele>2427.4</ele>
        <time>2021-01-29T14:54:33Z</time>
      </trkpt>
      <trkpt lat="42.76753" lon="0.15353">
        <ele>2426.4</ele>
        <time>2021-01-29T14:54:34Z</time>
      </trkpt>
      <trkpt lat="42.76755" lon="0.15359">
        <ele>2425.2</ele>
        <time>2021-01-29T14:54:35Z</time>
      </trkpt>
      <trkpt lat="42.76756" lon="0.15365">
        <ele>2424</ele>
        <time>2021-01-29T14:54:36Z</time>
      </trkpt>
      <trkpt lat="42.76758" lon="0.15372">
        <ele>2423</ele>
        <time>2021-01-29T14:54:37Z</time>
      </trkpt>
      <trkpt lat="42.76759" lon="0.15378">
        <ele>2421.8</ele>
        <time>2021-01-29T14:54:38Z</time>
      </trkpt>
      <trkpt lat="42.7676" lon="0.15386">
        <ele>2420.8</ele>
        <time>2021-01-29T14:54:39Z</time>
      </trkpt>
      <trkpt lat="42.76762" lon="0.15392">
        <ele>2419.6</ele>
        <time>2021-01-29T14:54:40Z</time>
      </trkpt>
      <trkpt lat="42.76765" lon="0.15396">
        <ele>2418.4</ele>
        <time>2021-01-29T14:54:41Z</time>
      </trkpt>
      <trkpt lat="42.76767" lon="0.15402">
        <ele>2417.4</ele>
        <time>2021-01-29T14:54:42Z</time>
      </trkpt>
      <trkpt lat="42.76769" lon="0.15408">
        <ele>2416.4</ele>
        <time>2021-01-29T14:54:43Z</time>
      </trkpt>
      <trkpt lat="42.76771" lon="0.15415">
        <ele>2415.4</ele>
        <time>2021-01-29T14:54:44Z</time>
      </trkpt>
      <trkpt lat="42.76773" lon="0.15423">
        <ele>2414</ele>
        <time>2021-01-29T14:54:45Z</time>
      </trkpt>
      <trkpt lat="42.76777" lon="0.15429">
        <ele>2412.8</ele>
        <time>2021-01-29T14:54:46Z</time>
      </trkpt>
      <trkpt lat="42.7678" lon="0.15434">
        <ele>2411.6</ele>
        <time>2021-01-29T14:54:47Z</time>
      </trkpt>
      <trkpt lat="42.76783" lon="0.1544">
        <ele>2410.2</ele>
        <time>2021-01-29T14:54:48Z</time>
      </trkpt>
      <trkpt lat="42.76786" lon="0.15444">
        <ele>2408.8</ele>
        <time>2021-01-29T14:54:49Z</time>
      </trkpt>
      <trkpt lat="42.76789" lon="0.1545">
        <ele>2407.6</ele>
        <time>2021-01-29T14:54:50Z</time>
      </trkpt>
      <trkpt lat="42.76791" lon="0.15456">
        <ele>2406.4</ele>
        <time>2021-01-29T14:54:51Z</time>
      </trkpt>
      <trkpt lat="42.76794" lon="0.1546">
        <ele>2405.2</ele>
        <time>2021-01-29T14:54:52Z</time>
      </trkpt>
      <trkpt lat="42.76797" lon="0.15464">
        <ele>2404.2</ele>
        <time>2021-01-29T14:54:53Z</time>
      </trkpt>
      <trkpt lat="42.768" lon="0.15467">
        <ele>2403</ele>
        <time>2021-01-29T14:54:54Z</time>
      </trkpt>
      <trkpt lat="42.76802" lon="0.15472">
        <ele>2402</ele>
        <time>2021-01-29T14:54:55Z</time>
      </trkpt>
      <trkpt lat="42.76801" lon="0.15475">
        <ele>2401.2</ele>
        <time>2021-01-29T14:54:56Z</time>
      </trkpt>
      <trkpt lat="42.76799" lon="0.15476">
        <ele>2400.4</ele>
        <time>2021-01-29T14:54:57Z</time>
      </trkpt>
      <trkpt lat="42.76798" lon="0.15477">
        <ele>2399.8</ele>
        <time>2021-01-29T14:54:58Z</time>
      </trkpt>
      <trkpt lat="42.76797" lon="0.15478">
        <ele>2399.2</ele>
        <time>2021-01-29T14:54:59Z</time>
      </trkpt>
      <trkpt lat="42.76797" lon="0.15478">
        <ele>2398.8</ele>
        <time>2021-01-29T14:55:00Z</time>
      </trkpt>
      <trkpt lat="42.76797" lon="0.15478">
        <ele>2398.6</ele>
        <time>2021-01-29T14:55:01Z</time>
      </trkpt>
      <trkpt lat="42.76797" lon="0.15478">
        <ele>2398.4</ele>
        <time>2021-01-29T14:55:02Z</time>
      </trkpt>
      <trkpt lat="42.76797" lon="0.15478">
        <ele>2398.2</ele>
        <time>2021-01-29T14:55:03Z</time>
      </trkpt>
      <trkpt lat="42.76797" lon="0.15478">
        <ele>2398.2</ele>
        <time>2021-01-29T14:55:04Z</time>
      </trkpt>
      <trkpt lat="42.76797" lon="0.15478">
        <ele>2398</ele>
        <time>2021-01-29T14:55:05Z</time>
      </trkpt>
      <trkpt lat="42.76797" lon="0.15478">
        <ele>2398</ele>
        <time>2021-01-29T14:55:06Z</time>
      </trkpt>
      <trkpt lat="42.76797" lon="0.15478">
        <ele>2398</ele>
        <time>2021-01-29T14:55:07Z</time>
      </trkpt>
      <trkpt lat="42.76797" lon="0.15478">
        <ele>2398</ele>
        <time>2021-01-29T14:55:08Z</time>
      </trkpt>
      <trkpt lat="42.76797" lon="0.15478">
        <ele>2398</ele>
        <time>2021-01-29T14:55:09Z</time>
      </trkpt>
      <trkpt lat="42.76797" lon="0.15478">
        <ele>2398</ele>
        <time>2021-01-29T14:55:10Z</time>
      </trkpt>
      <trkpt lat="42.76797" lon="0.15478">
        <ele>2398</ele>
        <time>2021-01-29T14:55:11Z</time>
      </trkpt>
      <trkpt lat="42.76797" lon="0.15478">
        <ele>2398</ele>
        <time>2021-01-29T14:55:12Z</time>
      </trkpt>
      <trkpt lat="42.76797" lon="0.15478">
        <ele>2398</ele>
        <time>2021-01-29T14:55:13Z</time>
      </trkpt>
      <trkpt lat="42.76797" lon="0.15478">
        <ele>2398</ele>
        <time>2021-01-29T14:55:14Z</time>
      </trkpt>
      <trkpt lat="42.76797" lon="0.15478">
        <ele>2398</ele>
        <time>2021-01-29T14:55:15Z</time>
      </trkpt>
      <trkpt lat="42.76797" lon="0.15478">
        <ele>2398</ele>
        <time>2021-01-29T14:55:16Z</time>
      </trkpt>
      <trkpt lat="42.76797" lon="0.15478">
        <ele>2398</ele>
        <time>2021-01-29T14:55:17Z</time>
      </trkpt>
      <trkpt lat="42.76797" lon="0.15478">
        <ele>2398</ele>
        <time>2021-01-29T14:55:18Z</time>
      </trkpt>
      <trkpt lat="42.76797" lon="0.15478">
        <ele>2398</ele>
        <time>2021-01-29T14:55:19Z</time>
      </trkpt>
      <trkpt lat="42.76797" lon="0.15478">
        <ele>2398</ele>
        <time>2021-01-29T14:55:20Z</time>
      </trkpt>
      <trkpt lat="42.76797" lon="0.15478">
        <ele>2398</ele>
        <time>2021-01-29T14:55:21Z</time>
      </trkpt>
      <trkpt lat="42.76797" lon="0.15478">
        <ele>2398</ele>
        <time>2021-01-29T14:55:22Z</time>
      </trkpt>
      <trkpt lat="42.76797" lon="0.15478">
        <ele>2398</ele>
        <time>2021-01-29T14:55:23Z</time>
      </trkpt>
      <trkpt lat="42.76797" lon="0.15478">
        <ele>2398.2</ele>
        <time>2021-01-29T14:55:24Z</time>
      </trkpt>
      <trkpt lat="42.76797" lon="0.15478">
        <ele>2398.2</ele>
        <time>2021-01-29T14:55:25Z</time>
      </trkpt>
      <trkpt lat="42.76797" lon="0.15478">
        <ele>2398</ele>
        <time>2021-01-29T14:55:26Z</time>
      </trkpt>
      <trkpt lat="42.76797" lon="0.1548">
        <ele>2398</ele>
        <time>2021-01-29T14:55:27Z</time>
      </trkpt>
      <trkpt lat="42.76796" lon="0.15484">
        <ele>2397.8</ele>
        <time>2021-01-29T14:55:28Z</time>
      </trkpt>
      <trkpt lat="42.76797" lon="0.15489">
        <ele>2397.4</ele>
        <time>2021-01-29T14:55:29Z</time>
      </trkpt>
      <trkpt lat="42.76798" lon="0.15495">
        <ele>2397</ele>
        <time>2021-01-29T14:55:30Z</time>
      </trkpt>
      <trkpt lat="42.76798" lon="0.155">
        <ele>2396.4</ele>
        <time>2021-01-29T14:55:31Z</time>
      </trkpt>
      <trkpt lat="42.76799" lon="0.15505">
        <ele>2395.8</ele>
        <time>2021-01-29T14:55:32Z</time>
      </trkpt>
      <trkpt lat="42.76802" lon="0.15509">
        <ele>2395.2</ele>
        <time>2021-01-29T14:55:33Z</time>
      </trkpt>
      <trkpt lat="42.76807" lon="0.15511">
        <ele>2394.4</ele>
        <time>2021-01-29T14:55:34Z</time>
      </trkpt>
      <trkpt lat="42.76813" lon="0.15514">
        <ele>2393.6</ele>
        <time>2021-01-29T14:55:35Z</time>
      </trkpt>
      <trkpt lat="42.76818" lon="0.15518">
        <ele>2392.6</ele>
        <time>2021-01-29T14:55:36Z</time>
      </trkpt>
      <trkpt lat="42.76819" lon="0.15525">
        <ele>2392</ele>
        <time>2021-01-29T14:55:37Z</time>
      </trkpt>
      <trkpt lat="42.76819" lon="0.15532">
        <ele>2391.2</ele>
        <time>2021-01-29T14:55:38Z</time>
      </trkpt>
      <trkpt lat="42.7682" lon="0.15539">
        <ele>2390.2</ele>
        <time>2021-01-29T14:55:39Z</time>
      </trkpt>
      <trkpt lat="42.76821" lon="0.15547">
        <ele>2389</ele>
        <time>2021-01-29T14:55:40Z</time>
      </trkpt>
      <trkpt lat="42.7682" lon="0.15555">
        <ele>2388</ele>
        <time>2021-01-29T14:55:41Z</time>
      </trkpt>
      <trkpt lat="42.76819" lon="0.15564">
        <ele>2387.2</ele>
        <time>2021-01-29T14:55:42Z</time>
      </trkpt>
      <trkpt lat="42.76817" lon="0.15573">
        <ele>2386.4</ele>
        <time>2021-01-29T14:55:43Z</time>
      </trkpt>
      <trkpt lat="42.76818" lon="0.15581">
        <ele>2385.6</ele>
        <time>2021-01-29T14:55:44Z</time>
      </trkpt>
      <trkpt lat="42.76821" lon="0.15589">
        <ele>2384.6</ele>
        <time>2021-01-29T14:55:45Z</time>
      </trkpt>
      <trkpt lat="42.76821" lon="0.15598">
        <ele>2384</ele>
        <time>2021-01-29T14:55:46Z</time>
      </trkpt>
      <trkpt lat="42.76821" lon="0.15606">
        <ele>2383.2</ele>
        <time>2021-01-29T14:55:47Z</time>
      </trkpt>
      <trkpt lat="42.76823" lon="0.15614">
        <ele>2382.2</ele>
        <time>2021-01-29T14:55:48Z</time>
      </trkpt>
      <trkpt lat="42.76826" lon="0.15621">
        <ele>2381.4</ele>
        <time>2021-01-29T14:55:49Z</time>
      </trkpt>
      <trkpt lat="42.76826" lon="0.15628">
        <ele>2380.8</ele>
        <time>2021-01-29T14:55:50Z</time>
      </trkpt>
      <trkpt lat="42.76828" lon="0.15635">
        <ele>2380.4</ele>
        <time>2021-01-29T14:55:51Z</time>
      </trkpt>
      <trkpt lat="42.76831" lon="0.15641">
        <ele>2379.6</ele>
        <time>2021-01-29T14:55:52Z</time>
      </trkpt>
      <trkpt lat="42.76833" lon="0.15648">
        <ele>2378.8</ele>
        <time>2021-01-29T14:55:53Z</time>
      </trkpt>
      <trkpt lat="42.76833" lon="0.15654">
        <ele>2377.8</ele>
        <time>2021-01-29T14:55:54Z</time>
      </trkpt>
      <trkpt lat="42.76833" lon="0.15661">
        <ele>2377</ele>
        <time>2021-01-29T14:55:55Z</time>
      </trkpt>
      <trkpt lat="42.76834" lon="0.15666">
        <ele>2376.4</ele>
        <time>2021-01-29T14:55:56Z</time>
      </trkpt>
      <trkpt lat="42.76835" lon="0.15672">
        <ele>2375.4</ele>
        <time>2021-01-29T14:55:57Z</time>
      </trkpt>
      <trkpt lat="42.76837" lon="0.15678">
        <ele>2374.4</ele>
        <time>2021-01-29T14:55:58Z</time>
      </trkpt>
      <trkpt lat="42.7684" lon="0.15682">
        <ele>2373.2</ele>
        <time>2021-01-29T14:55:59Z</time>
      </trkpt>
      <trkpt lat="42.76844" lon="0.15685">
        <ele>2372.4</ele>
        <time>2021-01-29T14:56:00Z</time>
      </trkpt>
      <trkpt lat="42.76846" lon="0.15689">
        <ele>2371.2</ele>
        <time>2021-01-29T14:56:01Z</time>
      </trkpt>
      <trkpt lat="42.76848" lon="0.15693">
        <ele>2370</ele>
        <time>2021-01-29T14:56:02Z</time>
      </trkpt>
      <trkpt lat="42.76847" lon="0.15696">
        <ele>2368.8</ele>
        <time>2021-01-29T14:56:03Z</time>
      </trkpt>
      <trkpt lat="42.76846" lon="0.15698">
        <ele>2367.8</ele>
        <time>2021-01-29T14:56:04Z</time>
      </trkpt>
      <trkpt lat="42.76845" lon="0.15699">
        <ele>2367.2</ele>
        <time>2021-01-29T14:56:05Z</time>
      </trkpt>
      <trkpt lat="42.76845" lon="0.157">
        <ele>2366.6</ele>
        <time>2021-01-29T14:56:06Z</time>
      </trkpt>
      <trkpt lat="42.76845" lon="0.157">
        <ele>2366.2</ele>
        <time>2021-01-29T14:56:07Z</time>
      </trkpt>
      <trkpt lat="42.76846" lon="0.157">
        <ele>2365.8</ele>
        <time>2021-01-29T14:56:08Z</time>
      </trkpt>
      <trkpt lat="42.76846" lon="0.157">
        <ele>2365.8</ele>
        <time>2021-01-29T14:56:09Z</time>
      </trkpt>
      <trkpt lat="42.76846" lon="0.157">
        <ele>2365.8</ele>
        <time>2021-01-29T14:56:10Z</time>
      </trkpt>
      <trkpt lat="42.76846" lon="0.157">
        <ele>2365.6</ele>
        <time>2021-01-29T14:56:11Z</time>
      </trkpt>
      <trkpt lat="42.76846" lon="0.157">
        <ele>2365.6</ele>
        <time>2021-01-29T14:56:12Z</time>
      </trkpt>
      <trkpt lat="42.76846" lon="0.157">
        <ele>2365.6</ele>
        <time>2021-01-29T14:56:13Z</time>
      </trkpt>
      <trkpt lat="42.76846" lon="0.157">
        <ele>2365.8</ele>
        <time>2021-01-29T14:56:14Z</time>
      </trkpt>
      <trkpt lat="42.76846" lon="0.157">
        <ele>2365.8</ele>
        <time>2021-01-29T14:56:15Z</time>
      </trkpt>
      <trkpt lat="42.76846" lon="0.157">
        <ele>2365.8</ele>
        <time>2021-01-29T14:56:16Z</time>
      </trkpt>
      <trkpt lat="42.76846" lon="0.157">
        <ele>2365.8</ele>
        <time>2021-01-29T14:56:17Z</time>
      </trkpt>
      <trkpt lat="42.76846" lon="0.157">
        <ele>2365.8</ele>
        <time>2021-01-29T14:56:18Z</time>
      </trkpt>
      <trkpt lat="42.76846" lon="0.157">
        <ele>2365.8</ele>
        <time>2021-01-29T14:56:19Z</time>
      </trkpt>
      <trkpt lat="42.76847" lon="0.15702">
        <ele>2365.8</ele>
        <time>2021-01-29T14:56:20Z</time>
      </trkpt>
      <trkpt lat="42.76849" lon="0.15706">
        <ele>2365.6</ele>
        <time>2021-01-29T14:56:21Z</time>
      </trkpt>
      <trkpt lat="42.76852" lon="0.1571">
        <ele>2365.4</ele>
        <time>2021-01-29T14:56:22Z</time>
      </trkpt>
      <trkpt lat="42.76854" lon="0.15715">
        <ele>2364.8</ele>
        <time>2021-01-29T14:56:23Z</time>
      </trkpt>
      <trkpt lat="42.76855" lon="0.15721">
        <ele>2364.2</ele>
        <time>2021-01-29T14:56:24Z</time>
      </trkpt>
      <trkpt lat="42.76854" lon="0.15728">
        <ele>2363</ele>
        <time>2021-01-29T14:56:25Z</time>
      </trkpt>
      <trkpt lat="42.76853" lon="0.15736">
        <ele>2362</ele>
        <time>2021-01-29T14:56:26Z</time>
      </trkpt>
      <trkpt lat="42.76853" lon="0.15742">
        <ele>2361</ele>
        <time>2021-01-29T14:56:27Z</time>
      </trkpt>
      <trkpt lat="42.76856" lon="0.15746">
        <ele>2360</ele>
        <time>2021-01-29T14:56:28Z</time>
      </trkpt>
      <trkpt lat="42.76859" lon="0.1575">
        <ele>2358.8</ele>
        <time>2021-01-29T14:56:29Z</time>
      </trkpt>
      <trkpt lat="42.76862" lon="0.15755">
        <ele>2357.6</ele>
        <time>2021-01-29T14:56:30Z</time>
      </trkpt>
      <trkpt lat="42.76864" lon="0.1576">
        <ele>2356.2</ele>
        <time>2021-01-29T14:56:31Z</time>
      </trkpt>
      <trkpt lat="42.76867" lon="0.15766">
        <ele>2354.6</ele>
        <time>2021-01-29T14:56:32Z</time>
      </trkpt>
      <trkpt lat="42.7687" lon="0.15773">
        <ele>2353</ele>
        <time>2021-01-29T14:56:33Z</time>
      </trkpt>
      <trkpt lat="42.76873" lon="0.15779">
        <ele>2351.2</ele>
        <time>2021-01-29T14:56:34Z</time>
      </trkpt>
      <trkpt lat="42.76876" lon="0.15785">
        <ele>2349.6</ele>
        <time>2021-01-29T14:56:35Z</time>
      </trkpt>
      <trkpt lat="42.76879" lon="0.15791">
        <ele>2348.2</ele>
        <time>2021-01-29T14:56:36Z</time>
      </trkpt>
      <trkpt lat="42.76883" lon="0.15797">
        <ele>2346.6</ele>
        <time>2021-01-29T14:56:37Z</time>
      </trkpt>
      <trkpt lat="42.76886" lon="0.15802">
        <ele>2344.8</ele>
        <time>2021-01-29T14:56:38Z</time>
      </trkpt>
      <trkpt lat="42.7689" lon="0.15808">
        <ele>2343.2</ele>
        <time>2021-01-29T14:56:39Z</time>
      </trkpt>
      <trkpt lat="42.76894" lon="0.15812">
        <ele>2341.6</ele>
        <time>2021-01-29T14:56:40Z</time>
      </trkpt>
      <trkpt lat="42.76898" lon="0.15815">
        <ele>2340</ele>
        <time>2021-01-29T14:56:41Z</time>
      </trkpt>
      <trkpt lat="42.76902" lon="0.15819">
        <ele>2338.4</ele>
        <time>2021-01-29T14:56:42Z</time>
      </trkpt>
      <trkpt lat="42.76906" lon="0.15823">
        <ele>2337</ele>
        <time>2021-01-29T14:56:43Z</time>
      </trkpt>
      <trkpt lat="42.76909" lon="0.15823">
        <ele>2335.6</ele>
        <time>2021-01-29T14:56:44Z</time>
      </trkpt>
      <trkpt lat="42.76914" lon="0.15823">
        <ele>2334.6</ele>
        <time>2021-01-29T14:56:45Z</time>
      </trkpt>
      <trkpt lat="42.76918" lon="0.15826">
        <ele>2333.6</ele>
        <time>2021-01-29T14:56:46Z</time>
      </trkpt>
      <trkpt lat="42.76922" lon="0.15829">
        <ele>2333</ele>
        <time>2021-01-29T14:56:47Z</time>
      </trkpt>
      <trkpt lat="42.76924" lon="0.15833">
        <ele>2332.2</ele>
        <time>2021-01-29T14:56:48Z</time>
      </trkpt>
      <trkpt lat="42.76926" lon="0.15834">
        <ele>2331.8</ele>
        <time>2021-01-29T14:56:49Z</time>
      </trkpt>
      <trkpt lat="42.7693" lon="0.15834">
        <ele>2331.2</ele>
        <time>2021-01-29T14:56:50Z</time>
      </trkpt>
      <trkpt lat="42.76933" lon="0.15834">
        <ele>2330.6</ele>
        <time>2021-01-29T14:56:51Z</time>
      </trkpt>
      <trkpt lat="42.76935" lon="0.15837">
        <ele>2329.8</ele>
        <time>2021-01-29T14:56:52Z</time>
      </trkpt>
      <trkpt lat="42.76937" lon="0.1584">
        <ele>2329</ele>
        <time>2021-01-29T14:56:53Z</time>
      </trkpt>
      <trkpt lat="42.76937" lon="0.15843">
        <ele>2328</ele>
        <time>2021-01-29T14:56:54Z</time>
      </trkpt>
      <trkpt lat="42.76937" lon="0.15844">
        <ele>2327.4</ele>
        <time>2021-01-29T14:56:55Z</time>
      </trkpt>
      <trkpt lat="42.76937" lon="0.15845">
        <ele>2326.8</ele>
        <time>2021-01-29T14:56:56Z</time>
      </trkpt>
      <trkpt lat="42.76936" lon="0.15845">
        <ele>2326.4</ele>
        <time>2021-01-29T14:56:57Z</time>
      </trkpt>
      <trkpt lat="42.76936" lon="0.15845">
        <ele>2326</ele>
        <time>2021-01-29T14:56:58Z</time>
      </trkpt>
      <trkpt lat="42.76936" lon="0.15845">
        <ele>2325.8</ele>
        <time>2021-01-29T14:56:59Z</time>
      </trkpt>
      <trkpt lat="42.76936" lon="0.15845">
        <ele>2325.4</ele>
        <time>2021-01-29T14:57:00Z</time>
      </trkpt>
      <trkpt lat="42.76936" lon="0.15845">
        <ele>2325</ele>
        <time>2021-01-29T14:57:01Z</time>
      </trkpt>
      <trkpt lat="42.76936" lon="0.15845">
        <ele>2324.8</ele>
        <time>2021-01-29T14:57:02Z</time>
      </trkpt>
      <trkpt lat="42.76936" lon="0.15845">
        <ele>2324.6</ele>
        <time>2021-01-29T14:57:03Z</time>
      </trkpt>
      <trkpt lat="42.76936" lon="0.15845">
        <ele>2324.4</ele>
        <time>2021-01-29T14:57:04Z</time>
      </trkpt>
      <trkpt lat="42.76936" lon="0.15845">
        <ele>2324.2</ele>
        <time>2021-01-29T14:57:05Z</time>
      </trkpt>
      <trkpt lat="42.76936" lon="0.15845">
        <ele>2324.2</ele>
        <time>2021-01-29T14:57:06Z</time>
      </trkpt>
      <trkpt lat="42.76936" lon="0.15845">
        <ele>2324</ele>
        <time>2021-01-29T14:57:07Z</time>
      </trkpt>
      <trkpt lat="42.76936" lon="0.15845">
        <ele>2324</ele>
        <time>2021-01-29T14:57:08Z</time>
      </trkpt>
      <trkpt lat="42.76936" lon="0.15845">
        <ele>2324</ele>
        <time>2021-01-29T14:57:09Z</time>
      </trkpt>
      <trkpt lat="42.76936" lon="0.15845">
        <ele>2323.8</ele>
        <time>2021-01-29T14:57:10Z</time>
      </trkpt>
      <trkpt lat="42.76936" lon="0.15845">
        <ele>2323.8</ele>
        <time>2021-01-29T14:57:11Z</time>
      </trkpt>
      <trkpt lat="42.76936" lon="0.15845">
        <ele>2323.8</ele>
        <time>2021-01-29T14:57:12Z</time>
      </trkpt>
      <trkpt lat="42.76936" lon="0.15845">
        <ele>2323.8</ele>
        <time>2021-01-29T14:57:13Z</time>
      </trkpt>
      <trkpt lat="42.76936" lon="0.15845">
        <ele>2323.6</ele>
        <time>2021-01-29T14:57:14Z</time>
      </trkpt>
      <trkpt lat="42.76936" lon="0.15845">
        <ele>2323.6</ele>
        <time>2021-01-29T14:57:15Z</time>
      </trkpt>
      <trkpt lat="42.76936" lon="0.15845">
        <ele>2323.8</ele>
        <time>2021-01-29T14:57:16Z</time>
      </trkpt>
      <trkpt lat="42.76936" lon="0.15845">
        <ele>2323.6</ele>
        <time>2021-01-29T14:57:17Z</time>
      </trkpt>
      <trkpt lat="42.76936" lon="0.15845">
        <ele>2323.4</ele>
        <time>2021-01-29T14:57:18Z</time>
      </trkpt>
      <trkpt lat="42.76936" lon="0.15845">
        <ele>2323.2</ele>
        <time>2021-01-29T14:57:19Z</time>
      </trkpt>
      <trkpt lat="42.76936" lon="0.15845">
        <ele>2323</ele>
        <time>2021-01-29T14:57:20Z</time>
      </trkpt>
      <trkpt lat="42.76936" lon="0.15845">
        <ele>2323</ele>
        <time>2021-01-29T14:57:21Z</time>
      </trkpt>
      <trkpt lat="42.76937" lon="0.15846">
        <ele>2323</ele>
        <time>2021-01-29T14:57:22Z</time>
      </trkpt>
      <trkpt lat="42.76938" lon="0.15848">
        <ele>2322.8</ele>
        <time>2021-01-29T14:57:23Z</time>
      </trkpt>
      <trkpt lat="42.7694" lon="0.1585">
        <ele>2322.2</ele>
        <time>2021-01-29T14:57:24Z</time>
      </trkpt>
      <trkpt lat="42.76943" lon="0.15853">
        <ele>2321.6</ele>
        <time>2021-01-29T14:57:25Z</time>
      </trkpt>
      <trkpt lat="42.76947" lon="0.15856">
        <ele>2320.8</ele>
        <time>2021-01-29T14:57:26Z</time>
      </trkpt>
      <trkpt lat="42.76951" lon="0.1586">
        <ele>2320</ele>
        <time>2021-01-29T14:57:27Z</time>
      </trkpt>
      <trkpt lat="42.76955" lon="0.15863">
        <ele>2319.2</ele>
        <time>2021-01-29T14:57:28Z</time>
      </trkpt>
      <trkpt lat="42.76958" lon="0.15866">
        <ele>2318.4</ele>
        <time>2021-01-29T14:57:29Z</time>
      </trkpt>
      <trkpt lat="42.7696" lon="0.15866">
        <ele>2317.4</ele>
        <time>2021-01-29T14:57:30Z</time>
      </trkpt>
      <trkpt lat="42.7696" lon="0.15866">
        <ele>2316.8</ele>
        <time>2021-01-29T14:57:31Z</time>
      </trkpt>
      <trkpt lat="42.7696" lon="0.15866">
        <ele>2316</ele>
        <time>2021-01-29T14:57:32Z</time>
      </trkpt>
      <trkpt lat="42.7696" lon="0.15867">
        <ele>2315.6</ele>
        <time>2021-01-29T14:57:33Z</time>
      </trkpt>
      <trkpt lat="42.7696" lon="0.15867">
        <ele>2315.2</ele>
        <time>2021-01-29T14:57:34Z</time>
      </trkpt>
      <trkpt lat="42.7696" lon="0.15867">
        <ele>2314.8</ele>
        <time>2021-01-29T14:57:35Z</time>
      </trkpt>
      <trkpt lat="42.7696" lon="0.15867">
        <ele>2314.6</ele>
        <time>2021-01-29T14:57:36Z</time>
      </trkpt>
      <trkpt lat="42.7696" lon="0.15867">
        <ele>2314.4</ele>
        <time>2021-01-29T14:57:37Z</time>
      </trkpt>
      <trkpt lat="42.7696" lon="0.15867">
        <ele>2314.4</ele>
        <time>2021-01-29T14:57:38Z</time>
      </trkpt>
      <trkpt lat="42.7696" lon="0.15867">
        <ele>2314.2</ele>
        <time>2021-01-29T14:57:39Z</time>
      </trkpt>
      <trkpt lat="42.7696" lon="0.15867">
        <ele>2314.2</ele>
        <time>2021-01-29T14:57:40Z</time>
      </trkpt>
      <trkpt lat="42.7696" lon="0.15867">
        <ele>2314</ele>
        <time>2021-01-29T14:57:41Z</time>
      </trkpt>
      <trkpt lat="42.7696" lon="0.15867">
        <ele>2314</ele>
        <time>2021-01-29T14:57:42Z</time>
      </trkpt>
      <trkpt lat="42.7696" lon="0.15867">
        <ele>2314</ele>
        <time>2021-01-29T14:57:43Z</time>
      </trkpt>
      <trkpt lat="42.7696" lon="0.15867">
        <ele>2313.8</ele>
        <time>2021-01-29T14:57:44Z</time>
      </trkpt>
      <trkpt lat="42.7696" lon="0.15867">
        <ele>2313.8</ele>
        <time>2021-01-29T14:57:45Z</time>
      </trkpt>
      <trkpt lat="42.7696" lon="0.15867">
        <ele>2313.8</ele>
        <time>2021-01-29T14:57:46Z</time>
      </trkpt>
      <trkpt lat="42.7696" lon="0.15867">
        <ele>2313.8</ele>
        <time>2021-01-29T14:57:47Z</time>
      </trkpt>
      <trkpt lat="42.7696" lon="0.15867">
        <ele>2313.8</ele>
        <time>2021-01-29T14:57:48Z</time>
      </trkpt>
      <trkpt lat="42.7696" lon="0.15867">
        <ele>2314</ele>
        <time>2021-01-29T14:57:49Z</time>
      </trkpt>
      <trkpt lat="42.7696" lon="0.15867">
        <ele>2314</ele>
        <time>2021-01-29T14:57:50Z</time>
      </trkpt>
      <trkpt lat="42.7696" lon="0.15867">
        <ele>2314</ele>
        <time>2021-01-29T14:57:51Z</time>
      </trkpt>
      <trkpt lat="42.7696" lon="0.15867">
        <ele>2314</ele>
        <time>2021-01-29T14:57:52Z</time>
      </trkpt>
      <trkpt lat="42.7696" lon="0.15867">
        <ele>2314</ele>
        <time>2021-01-29T14:57:53Z</time>
      </trkpt>
      <trkpt lat="42.7696" lon="0.15867">
        <ele>2314</ele>
        <time>2021-01-29T14:57:54Z</time>
      </trkpt>
      <trkpt lat="42.7696" lon="0.15867">
        <ele>2314.2</ele>
        <time>2021-01-29T14:57:55Z</time>
      </trkpt>
      <trkpt lat="42.7696" lon="0.15867">
        <ele>2314.2</ele>
        <time>2021-01-29T14:57:56Z</time>
      </trkpt>
      <trkpt lat="42.7696" lon="0.15867">
        <ele>2314.2</ele>
        <time>2021-01-29T14:57:57Z</time>
      </trkpt>
      <trkpt lat="42.7696" lon="0.15867">
        <ele>2314.2</ele>
        <time>2021-01-29T14:57:58Z</time>
      </trkpt>
      <trkpt lat="42.7696" lon="0.15867">
        <ele>2314.2</ele>
        <time>2021-01-29T14:57:59Z</time>
      </trkpt>
      <trkpt lat="42.7696" lon="0.15867">
        <ele>2314.2</ele>
        <time>2021-01-29T14:58:00Z</time>
      </trkpt>
      <trkpt lat="42.7696" lon="0.15867">
        <ele>2314.2</ele>
        <time>2021-01-29T14:58:01Z</time>
      </trkpt>
      <trkpt lat="42.7696" lon="0.15867">
        <ele>2314.2</ele>
        <time>2021-01-29T14:58:02Z</time>
      </trkpt>
      <trkpt lat="42.7696" lon="0.15867">
        <ele>2314.2</ele>
        <time>2021-01-29T14:58:03Z</time>
      </trkpt>
      <trkpt lat="42.7696" lon="0.15867">
        <ele>2314.2</ele>
        <time>2021-01-29T14:58:04Z</time>
      </trkpt>
      <trkpt lat="42.7696" lon="0.15867">
        <ele>2314.2</ele>
        <time>2021-01-29T14:58:05Z</time>
      </trkpt>
      <trkpt lat="42.7696" lon="0.15867">
        <ele>2314.2</ele>
        <time>2021-01-29T14:58:06Z</time>
      </trkpt>
      <trkpt lat="42.7696" lon="0.15867">
        <ele>2314.2</ele>
        <time>2021-01-29T14:58:07Z</time>
      </trkpt>
      <trkpt lat="42.7696" lon="0.15867">
        <ele>2314.2</ele>
        <time>2021-01-29T14:58:08Z</time>
      </trkpt>
      <trkpt lat="42.7696" lon="0.15867">
        <ele>2314.2</ele>
        <time>2021-01-29T14:58:09Z</time>
      </trkpt>
      <trkpt lat="42.7696" lon="0.15867">
        <ele>2314.2</ele>
        <time>2021-01-29T14:58:10Z</time>
      </trkpt>
      <trkpt lat="42.7696" lon="0.15867">
        <ele>2314.2</ele>
        <time>2021-01-29T14:58:11Z</time>
      </trkpt>
      <trkpt lat="42.7696" lon="0.15867">
        <ele>2314.4</ele>
        <time>2021-01-29T14:58:12Z</time>
      </trkpt>
      <trkpt lat="42.7696" lon="0.15867">
        <ele>2314.2</ele>
        <time>2021-01-29T14:58:13Z</time>
      </trkpt>
      <trkpt lat="42.7696" lon="0.15867">
        <ele>2314.2</ele>
        <time>2021-01-29T14:58:14Z</time>
      </trkpt>
      <trkpt lat="42.7696" lon="0.15867">
        <ele>2314.2</ele>
        <time>2021-01-29T14:58:15Z</time>
      </trkpt>
      <trkpt lat="42.7696" lon="0.15867">
        <ele>2314.2</ele>
        <time>2021-01-29T14:58:16Z</time>
      </trkpt>
      <trkpt lat="42.7696" lon="0.15867">
        <ele>2314.2</ele>
        <time>2021-01-29T14:58:17Z</time>
      </trkpt>
      <trkpt lat="42.7696" lon="0.15867">
        <ele>2314.2</ele>
        <time>2021-01-29T14:58:18Z</time>
      </trkpt>
      <trkpt lat="42.7696" lon="0.15867">
        <ele>2314.4</ele>
        <time>2021-01-29T14:58:19Z</time>
      </trkpt>
      <trkpt lat="42.7696" lon="0.15867">
        <ele>2314.4</ele>
        <time>2021-01-29T14:58:20Z</time>
      </trkpt>
      <trkpt lat="42.7696" lon="0.15867">
        <ele>2314.4</ele>
        <time>2021-01-29T14:58:21Z</time>
      </trkpt>
      <trkpt lat="42.7696" lon="0.15867">
        <ele>2314.4</ele>
        <time>2021-01-29T14:58:22Z</time>
      </trkpt>
      <trkpt lat="42.7696" lon="0.15867">
        <ele>2314.2</ele>
        <time>2021-01-29T14:58:23Z</time>
      </trkpt>
      <trkpt lat="42.7696" lon="0.15867">
        <ele>2314.4</ele>
        <time>2021-01-29T14:58:24Z</time>
      </trkpt>
      <trkpt lat="42.7696" lon="0.15867">
        <ele>2314.4</ele>
        <time>2021-01-29T14:58:25Z</time>
      </trkpt>
      <trkpt lat="42.7696" lon="0.15867">
        <ele>2314.4</ele>
        <time>2021-01-29T14:58:26Z</time>
      </trkpt>
      <trkpt lat="42.7696" lon="0.15867">
        <ele>2314.4</ele>
        <time>2021-01-29T14:58:27Z</time>
      </trkpt>
      <trkpt lat="42.7696" lon="0.15867">
        <ele>2314.4</ele>
        <time>2021-01-29T14:58:28Z</time>
      </trkpt>
      <trkpt lat="42.7696" lon="0.15867">
        <ele>2314.4</ele>
        <time>2021-01-29T14:58:29Z</time>
      </trkpt>
      <trkpt lat="42.7696" lon="0.15867">
        <ele>2314.4</ele>
        <time>2021-01-29T14:58:30Z</time>
      </trkpt>
      <trkpt lat="42.7696" lon="0.15867">
        <ele>2314.4</ele>
        <time>2021-01-29T14:58:31Z</time>
      </trkpt>
      <trkpt lat="42.7696" lon="0.15867">
        <ele>2314.4</ele>
        <time>2021-01-29T14:58:32Z</time>
      </trkpt>
      <trkpt lat="42.7696" lon="0.15867">
        <ele>2314.4</ele>
        <time>2021-01-29T14:58:33Z</time>
      </trkpt>
      <trkpt lat="42.7696" lon="0.15867">
        <ele>2314.4</ele>
        <time>2021-01-29T14:58:34Z</time>
      </trkpt>
      <trkpt lat="42.7696" lon="0.15867">
        <ele>2314.4</ele>
        <time>2021-01-29T14:58:35Z</time>
      </trkpt>
      <trkpt lat="42.7696" lon="0.15867">
        <ele>2314.4</ele>
        <time>2021-01-29T14:58:36Z</time>
      </trkpt>
      <trkpt lat="42.7696" lon="0.15867">
        <ele>2314.4</ele>
        <time>2021-01-29T14:58:37Z</time>
      </trkpt>
      <trkpt lat="42.7696" lon="0.15867">
        <ele>2314.4</ele>
        <time>2021-01-29T14:58:38Z</time>
      </trkpt>
      <trkpt lat="42.7696" lon="0.15867">
        <ele>2314.4</ele>
        <time>2021-01-29T14:58:39Z</time>
      </trkpt>
      <trkpt lat="42.7696" lon="0.15867">
        <ele>2314.4</ele>
        <time>2021-01-29T14:58:40Z</time>
      </trkpt>
      <trkpt lat="42.7696" lon="0.15867">
        <ele>2314.4</ele>
        <time>2021-01-29T14:58:41Z</time>
      </trkpt>
      <trkpt lat="42.7696" lon="0.15867">
        <ele>2314.4</ele>
        <time>2021-01-29T14:58:42Z</time>
      </trkpt>
      <trkpt lat="42.7696" lon="0.15867">
        <ele>2314.4</ele>
        <time>2021-01-29T14:58:43Z</time>
      </trkpt>
      <trkpt lat="42.7696" lon="0.15867">
        <ele>2314.4</ele>
        <time>2021-01-29T14:58:44Z</time>
      </trkpt>
      <trkpt lat="42.7696" lon="0.15867">
        <ele>2314.4</ele>
        <time>2021-01-29T14:58:45Z</time>
      </trkpt>
      <trkpt lat="42.7696" lon="0.15867">
        <ele>2314.4</ele>
        <time>2021-01-29T14:58:46Z</time>
      </trkpt>
      <trkpt lat="42.7696" lon="0.15867">
        <ele>2314.4</ele>
        <time>2021-01-29T14:58:47Z</time>
      </trkpt>
      <trkpt lat="42.7696" lon="0.15867">
        <ele>2314.4</ele>
        <time>2021-01-29T14:58:48Z</time>
      </trkpt>
      <trkpt lat="42.7696" lon="0.15867">
        <ele>2314.4</ele>
        <time>2021-01-29T14:58:49Z</time>
      </trkpt>
      <trkpt lat="42.7696" lon="0.15867">
        <ele>2314.4</ele>
        <time>2021-01-29T14:58:50Z</time>
      </trkpt>
      <trkpt lat="42.7696" lon="0.15867">
        <ele>2314.4</ele>
        <time>2021-01-29T14:58:51Z</time>
      </trkpt>
      <trkpt lat="42.7696" lon="0.15867">
        <ele>2314.4</ele>
        <time>2021-01-29T14:58:52Z</time>
      </trkpt>
      <trkpt lat="42.7696" lon="0.15867">
        <ele>2314.4</ele>
        <time>2021-01-29T14:58:53Z</time>
      </trkpt>
      <trkpt lat="42.7696" lon="0.15867">
        <ele>2314.4</ele>
        <time>2021-01-29T14:58:54Z</time>
      </trkpt>
      <trkpt lat="42.7696" lon="0.15867">
        <ele>2314.4</ele>
        <time>2021-01-29T14:58:55Z</time>
      </trkpt>
      <trkpt lat="42.7696" lon="0.15867">
        <ele>2314.4</ele>
        <time>2021-01-29T14:58:56Z</time>
      </trkpt>
      <trkpt lat="42.76961" lon="0.15865">
        <ele>2314.4</ele>
        <time>2021-01-29T14:58:57Z</time>
      </trkpt>
      <trkpt lat="42.76965" lon="0.15861">
        <ele>2314.2</ele>
        <time>2021-01-29T14:58:58Z</time>
      </trkpt>
      <trkpt lat="42.76969" lon="0.15859">
        <ele>2313.4</ele>
        <time>2021-01-29T14:58:59Z</time>
      </trkpt>
      <trkpt lat="42.76972" lon="0.15861">
        <ele>2312.6</ele>
        <time>2021-01-29T14:59:00Z</time>
      </trkpt>
      <trkpt lat="42.76974" lon="0.15866">
        <ele>2311.6</ele>
        <time>2021-01-29T14:59:01Z</time>
      </trkpt>
      <trkpt lat="42.76976" lon="0.15871">
        <ele>2310.8</ele>
        <time>2021-01-29T14:59:02Z</time>
      </trkpt>
      <trkpt lat="42.76978" lon="0.15876">
        <ele>2310</ele>
        <time>2021-01-29T14:59:03Z</time>
      </trkpt>
      <trkpt lat="42.76982" lon="0.1588">
        <ele>2309.4</ele>
        <time>2021-01-29T14:59:04Z</time>
      </trkpt>
      <trkpt lat="42.76986" lon="0.1588">
        <ele>2308.6</ele>
        <time>2021-01-29T14:59:05Z</time>
      </trkpt>
      <trkpt lat="42.76991" lon="0.15879">
        <ele>2307.8</ele>
        <time>2021-01-29T14:59:06Z</time>
      </trkpt>
      <trkpt lat="42.76995" lon="0.1588">
        <ele>2306.6</ele>
        <time>2021-01-29T14:59:07Z</time>
      </trkpt>
      <trkpt lat="42.76999" lon="0.15885">
        <ele>2305.6</ele>
        <time>2021-01-29T14:59:08Z</time>
      </trkpt>
      <trkpt lat="42.77004" lon="0.15887">
        <ele>2304.4</ele>
        <time>2021-01-29T14:59:09Z</time>
      </trkpt>
      <trkpt lat="42.7701" lon="0.15886">
        <ele>2303.2</ele>
        <time>2021-01-29T14:59:10Z</time>
      </trkpt>
      <trkpt lat="42.77015" lon="0.15889">
        <ele>2301.8</ele>
        <time>2021-01-29T14:59:11Z</time>
      </trkpt>
      <trkpt lat="42.77018" lon="0.15894">
        <ele>2300.6</ele>
        <time>2021-01-29T14:59:12Z</time>
      </trkpt>
      <trkpt lat="42.77023" lon="0.15896">
        <ele>2299.2</ele>
        <time>2021-01-29T14:59:13Z</time>
      </trkpt>
      <trkpt lat="42.77028" lon="0.15896">
        <ele>2297.8</ele>
        <time>2021-01-29T14:59:14Z</time>
      </trkpt>
      <trkpt lat="42.77033" lon="0.15898">
        <ele>2296.6</ele>
        <time>2021-01-29T14:59:15Z</time>
      </trkpt>
      <trkpt lat="42.77038" lon="0.15902">
        <ele>2295.2</ele>
        <time>2021-01-29T14:59:16Z</time>
      </trkpt>
      <trkpt lat="42.77042" lon="0.15904">
        <ele>2293.8</ele>
        <time>2021-01-29T14:59:17Z</time>
      </trkpt>
      <trkpt lat="42.77047" lon="0.15908">
        <ele>2292.2</ele>
        <time>2021-01-29T14:59:18Z</time>
      </trkpt>
      <trkpt lat="42.7705" lon="0.15912">
        <ele>2291</ele>
        <time>2021-01-29T14:59:19Z</time>
      </trkpt>
      <trkpt lat="42.77055" lon="0.15913">
        <ele>2289.6</ele>
        <time>2021-01-29T14:59:20Z</time>
      </trkpt>
      <trkpt lat="42.77059" lon="0.15916">
        <ele>2288.2</ele>
        <time>2021-01-29T14:59:21Z</time>
      </trkpt>
      <trkpt lat="42.77063" lon="0.15921">
        <ele>2286.8</ele>
        <time>2021-01-29T14:59:22Z</time>
      </trkpt>
      <trkpt lat="42.77067" lon="0.15922">
        <ele>2285.6</ele>
        <time>2021-01-29T14:59:23Z</time>
      </trkpt>
      <trkpt lat="42.77072" lon="0.15923">
        <ele>2284.2</ele>
        <time>2021-01-29T14:59:24Z</time>
      </trkpt>
      <trkpt lat="42.77076" lon="0.15927">
        <ele>2282.8</ele>
        <time>2021-01-29T14:59:25Z</time>
      </trkpt>
      <trkpt lat="42.77078" lon="0.15933">
        <ele>2281.6</ele>
        <time>2021-01-29T14:59:26Z</time>
      </trkpt>
      <trkpt lat="42.77082" lon="0.15935">
        <ele>2280.2</ele>
        <time>2021-01-29T14:59:27Z</time>
      </trkpt>
      <trkpt lat="42.77086" lon="0.15936">
        <ele>2278.8</ele>
        <time>2021-01-29T14:59:28Z</time>
      </trkpt>
      <trkpt lat="42.77091" lon="0.1594">
        <ele>2277.2</ele>
        <time>2021-01-29T14:59:29Z</time>
      </trkpt>
      <trkpt lat="42.77094" lon="0.15945">
        <ele>2276</ele>
        <time>2021-01-29T14:59:30Z</time>
      </trkpt>
      <trkpt lat="42.77099" lon="0.15947">
        <ele>2274.4</ele>
        <time>2021-01-29T14:59:31Z</time>
      </trkpt>
      <trkpt lat="42.77104" lon="0.1595">
        <ele>2273</ele>
        <time>2021-01-29T14:59:32Z</time>
      </trkpt>
      <trkpt lat="42.77106" lon="0.15956">
        <ele>2271.6</ele>
        <time>2021-01-29T14:59:33Z</time>
      </trkpt>
      <trkpt lat="42.77108" lon="0.15962">
        <ele>2270.4</ele>
        <time>2021-01-29T14:59:34Z</time>
      </trkpt>
      <trkpt lat="42.77112" lon="0.15965">
        <ele>2268.8</ele>
        <time>2021-01-29T14:59:35Z</time>
      </trkpt>
      <trkpt lat="42.77116" lon="0.15967">
        <ele>2267.4</ele>
        <time>2021-01-29T14:59:36Z</time>
      </trkpt>
      <trkpt lat="42.77118" lon="0.1597">
        <ele>2266</ele>
        <time>2021-01-29T14:59:37Z</time>
      </trkpt>
      <trkpt lat="42.7712" lon="0.15976">
        <ele>2264.8</ele>
        <time>2021-01-29T14:59:38Z</time>
      </trkpt>
      <trkpt lat="42.7712" lon="0.1598">
        <ele>2263.6</ele>
        <time>2021-01-29T14:59:39Z</time>
      </trkpt>
      <trkpt lat="42.7712" lon="0.15984">
        <ele>2262.4</ele>
        <time>2021-01-29T14:59:40Z</time>
      </trkpt>
      <trkpt lat="42.77122" lon="0.15986">
        <ele>2261.2</ele>
        <time>2021-01-29T14:59:41Z</time>
      </trkpt>
      <trkpt lat="42.77124" lon="0.15988">
        <ele>2260</ele>
        <time>2021-01-29T14:59:42Z</time>
      </trkpt>
      <trkpt lat="42.77126" lon="0.15992">
        <ele>2259</ele>
        <time>2021-01-29T14:59:43Z</time>
      </trkpt>
      <trkpt lat="42.77127" lon="0.15994">
        <ele>2257.8</ele>
        <time>2021-01-29T14:59:44Z</time>
      </trkpt>
      <trkpt lat="42.77128" lon="0.15996">
        <ele>2257</ele>
        <time>2021-01-29T14:59:45Z</time>
      </trkpt>
      <trkpt lat="42.77128" lon="0.15996">
        <ele>2256.2</ele>
        <time>2021-01-29T14:59:46Z</time>
      </trkpt>
      <trkpt lat="42.77128" lon="0.15996">
        <ele>2255.6</ele>
        <time>2021-01-29T14:59:47Z</time>
      </trkpt>
      <trkpt lat="42.77128" lon="0.15996">
        <ele>2255.2</ele>
        <time>2021-01-29T14:59:48Z</time>
      </trkpt>
      <trkpt lat="42.77128" lon="0.15996">
        <ele>2255</ele>
        <time>2021-01-29T14:59:49Z</time>
      </trkpt>
      <trkpt lat="42.77128" lon="0.15996">
        <ele>2254.6</ele>
        <time>2021-01-29T14:59:50Z</time>
      </trkpt>
      <trkpt lat="42.77128" lon="0.15996">
        <ele>2254.4</ele>
        <time>2021-01-29T14:59:51Z</time>
      </trkpt>
      <trkpt lat="42.77128" lon="0.15996">
        <ele>2254.2</ele>
        <time>2021-01-29T14:59:52Z</time>
      </trkpt>
      <trkpt lat="42.77128" lon="0.15996">
        <ele>2254.2</ele>
        <time>2021-01-29T14:59:53Z</time>
      </trkpt>
      <trkpt lat="42.77128" lon="0.15996">
        <ele>2254</ele>
        <time>2021-01-29T14:59:54Z</time>
      </trkpt>
      <trkpt lat="42.77128" lon="0.15996">
        <ele>2254</ele>
        <time>2021-01-29T14:59:55Z</time>
      </trkpt>
      <trkpt lat="42.77128" lon="0.15996">
        <ele>2254</ele>
        <time>2021-01-29T14:59:56Z</time>
      </trkpt>
      <trkpt lat="42.77128" lon="0.15996">
        <ele>2253.8</ele>
        <time>2021-01-29T14:59:57Z</time>
      </trkpt>
      <trkpt lat="42.77128" lon="0.15996">
        <ele>2253.8</ele>
        <time>2021-01-29T14:59:58Z</time>
      </trkpt>
      <trkpt lat="42.77128" lon="0.15996">
        <ele>2253.8</ele>
        <time>2021-01-29T14:59:59Z</time>
      </trkpt>
      <trkpt lat="42.77128" lon="0.15996">
        <ele>2253.8</ele>
        <time>2021-01-29T15:00:00Z</time>
      </trkpt>
      <trkpt lat="42.77128" lon="0.15996">
        <ele>2253.8</ele>
        <time>2021-01-29T15:00:01Z</time>
      </trkpt>
      <trkpt lat="42.77128" lon="0.15996">
        <ele>2253.8</ele>
        <time>2021-01-29T15:00:02Z</time>
      </trkpt>
      <trkpt lat="42.77128" lon="0.15996">
        <ele>2253.8</ele>
        <time>2021-01-29T15:00:03Z</time>
      </trkpt>
      <trkpt lat="42.77128" lon="0.15996">
        <ele>2253.8</ele>
        <time>2021-01-29T15:00:04Z</time>
      </trkpt>
      <trkpt lat="42.77128" lon="0.15996">
        <ele>2253.8</ele>
        <time>2021-01-29T15:00:05Z</time>
      </trkpt>
      <trkpt lat="42.77128" lon="0.15996">
        <ele>2253.6</ele>
        <time>2021-01-29T15:00:06Z</time>
      </trkpt>
      <trkpt lat="42.77128" lon="0.15996">
        <ele>2253.6</ele>
        <time>2021-01-29T15:00:07Z</time>
      </trkpt>
      <trkpt lat="42.77128" lon="0.15996">
        <ele>2253.6</ele>
        <time>2021-01-29T15:00:08Z</time>
      </trkpt>
      <trkpt lat="42.77128" lon="0.15996">
        <ele>2253.6</ele>
        <time>2021-01-29T15:00:09Z</time>
      </trkpt>
      <trkpt lat="42.77128" lon="0.15996">
        <ele>2253.6</ele>
        <time>2021-01-29T15:00:10Z</time>
      </trkpt>
      <trkpt lat="42.77128" lon="0.15996">
        <ele>2253.6</ele>
        <time>2021-01-29T15:00:11Z</time>
      </trkpt>
      <trkpt lat="42.77128" lon="0.15996">
        <ele>2253.6</ele>
        <time>2021-01-29T15:00:12Z</time>
      </trkpt>
      <trkpt lat="42.77128" lon="0.15996">
        <ele>2253.6</ele>
        <time>2021-01-29T15:00:13Z</time>
      </trkpt>
      <trkpt lat="42.77128" lon="0.15996">
        <ele>2253.6</ele>
        <time>2021-01-29T15:00:14Z</time>
      </trkpt>
      <trkpt lat="42.77128" lon="0.15996">
        <ele>2253.6</ele>
        <time>2021-01-29T15:00:15Z</time>
      </trkpt>
      <trkpt lat="42.77128" lon="0.15996">
        <ele>2253.6</ele>
        <time>2021-01-29T15:00:16Z</time>
      </trkpt>
      <trkpt lat="42.77128" lon="0.15996">
        <ele>2253.6</ele>
        <time>2021-01-29T15:00:17Z</time>
      </trkpt>
      <trkpt lat="42.77128" lon="0.15996">
        <ele>2253.4</ele>
        <time>2021-01-29T15:00:18Z</time>
      </trkpt>
      <trkpt lat="42.77128" lon="0.15996">
        <ele>2253.4</ele>
        <time>2021-01-29T15:00:19Z</time>
      </trkpt>
      <trkpt lat="42.77128" lon="0.15996">
        <ele>2253.6</ele>
        <time>2021-01-29T15:00:20Z</time>
      </trkpt>
      <trkpt lat="42.77128" lon="0.15996">
        <ele>2253.6</ele>
        <time>2021-01-29T15:00:21Z</time>
      </trkpt>
      <trkpt lat="42.77128" lon="0.15996">
        <ele>2253.6</ele>
        <time>2021-01-29T15:00:22Z</time>
      </trkpt>
      <trkpt lat="42.77128" lon="0.15996">
        <ele>2253.6</ele>
        <time>2021-01-29T15:00:23Z</time>
      </trkpt>
      <trkpt lat="42.77128" lon="0.15996">
        <ele>2253.6</ele>
        <time>2021-01-29T15:00:24Z</time>
      </trkpt>
      <trkpt lat="42.77128" lon="0.15996">
        <ele>2253.6</ele>
        <time>2021-01-29T15:00:25Z</time>
      </trkpt>
      <trkpt lat="42.77128" lon="0.15996">
        <ele>2253.6</ele>
        <time>2021-01-29T15:00:26Z</time>
      </trkpt>
      <trkpt lat="42.77129" lon="0.15998">
        <ele>2253.4</ele>
        <time>2021-01-29T15:00:27Z</time>
      </trkpt>
      <trkpt lat="42.7713" lon="0.16002">
        <ele>2253</ele>
        <time>2021-01-29T15:00:28Z</time>
      </trkpt>
      <trkpt lat="42.77132" lon="0.16002">
        <ele>2252.8</ele>
        <time>2021-01-29T15:00:29Z</time>
      </trkpt>
      <trkpt lat="42.77134" lon="0.16001">
        <ele>2252.4</ele>
        <time>2021-01-29T15:00:30Z</time>
      </trkpt>
      <trkpt lat="42.77134" lon="0.16001">
        <ele>2252.2</ele>
        <time>2021-01-29T15:00:31Z</time>
      </trkpt>
      <trkpt lat="42.77134" lon="0.16001">
        <ele>2252</ele>
        <time>2021-01-29T15:00:32Z</time>
      </trkpt>
      <trkpt lat="42.77134" lon="0.16001">
        <ele>2251.8</ele>
        <time>2021-01-29T15:00:33Z</time>
      </trkpt>
      <trkpt lat="42.77134" lon="0.16001">
        <ele>2251.8</ele>
        <time>2021-01-29T15:00:34Z</time>
      </trkpt>
      <trkpt lat="42.77134" lon="0.16001">
        <ele>2251.6</ele>
        <time>2021-01-29T15:00:35Z</time>
      </trkpt>
      <trkpt lat="42.77134" lon="0.16001">
        <ele>2251.6</ele>
        <time>2021-01-29T15:00:36Z</time>
      </trkpt>
      <trkpt lat="42.77134" lon="0.16001">
        <ele>2251.6</ele>
        <time>2021-01-29T15:00:37Z</time>
      </trkpt>
      <trkpt lat="42.77134" lon="0.16001">
        <ele>2251.6</ele>
        <time>2021-01-29T15:00:38Z</time>
      </trkpt>
      <trkpt lat="42.77134" lon="0.16001">
        <ele>2251.6</ele>
        <time>2021-01-29T15:00:39Z</time>
      </trkpt>
      <trkpt lat="42.77134" lon="0.16001">
        <ele>2251.6</ele>
        <time>2021-01-29T15:00:40Z</time>
      </trkpt>
      <trkpt lat="42.77134" lon="0.16001">
        <ele>2251.6</ele>
        <time>2021-01-29T15:00:41Z</time>
      </trkpt>
      <trkpt lat="42.77134" lon="0.16001">
        <ele>2251.6</ele>
        <time>2021-01-29T15:00:42Z</time>
      </trkpt>
      <trkpt lat="42.77134" lon="0.16001">
        <ele>2251.6</ele>
        <time>2021-01-29T15:00:43Z</time>
      </trkpt>
      <trkpt lat="42.77134" lon="0.16001">
        <ele>2251.6</ele>
        <time>2021-01-29T15:00:44Z</time>
      </trkpt>
      <trkpt lat="42.77134" lon="0.16001">
        <ele>2251.6</ele>
        <time>2021-01-29T15:00:45Z</time>
      </trkpt>
      <trkpt lat="42.77134" lon="0.16001">
        <ele>2251.6</ele>
        <time>2021-01-29T15:00:46Z</time>
      </trkpt>
      <trkpt lat="42.77134" lon="0.16001">
        <ele>2251.6</ele>
        <time>2021-01-29T15:00:47Z</time>
      </trkpt>
      <trkpt lat="42.77134" lon="0.16001">
        <ele>2251.6</ele>
        <time>2021-01-29T15:00:48Z</time>
      </trkpt>
      <trkpt lat="42.77134" lon="0.16001">
        <ele>2251.6</ele>
        <time>2021-01-29T15:00:49Z</time>
      </trkpt>
      <trkpt lat="42.77136" lon="0.16002">
        <ele>2251.4</ele>
        <time>2021-01-29T15:00:50Z</time>
      </trkpt>
      <trkpt lat="42.77139" lon="0.16004">
        <ele>2251.2</ele>
        <time>2021-01-29T15:00:51Z</time>
      </trkpt>
      <trkpt lat="42.77141" lon="0.16007">
        <ele>2251</ele>
        <time>2021-01-29T15:00:52Z</time>
      </trkpt>
      <trkpt lat="42.77143" lon="0.16011">
        <ele>2250.6</ele>
        <time>2021-01-29T15:00:53Z</time>
      </trkpt>
      <trkpt lat="42.77144" lon="0.16015">
        <ele>2250</ele>
        <time>2021-01-29T15:00:54Z</time>
      </trkpt>
      <trkpt lat="42.77146" lon="0.1602">
        <ele>2249.2</ele>
        <time>2021-01-29T15:00:55Z</time>
      </trkpt>
      <trkpt lat="42.77147" lon="0.16024">
        <ele>2248.6</ele>
        <time>2021-01-29T15:00:56Z</time>
      </trkpt>
      <trkpt lat="42.77149" lon="0.16029">
        <ele>2247.8</ele>
        <time>2021-01-29T15:00:57Z</time>
      </trkpt>
      <trkpt lat="42.7715" lon="0.16033">
        <ele>2247.2</ele>
        <time>2021-01-29T15:00:58Z</time>
      </trkpt>
      <trkpt lat="42.77153" lon="0.16037">
        <ele>2246.2</ele>
        <time>2021-01-29T15:00:59Z</time>
      </trkpt>
      <trkpt lat="42.77156" lon="0.16038">
        <ele>2245.2</ele>
        <time>2021-01-29T15:01:00Z</time>
      </trkpt>
      <trkpt lat="42.7716" lon="0.16037">
        <ele>2244</ele>
        <time>2021-01-29T15:01:01Z</time>
      </trkpt>
      <trkpt lat="42.77163" lon="0.16037">
        <ele>2243</ele>
        <time>2021-01-29T15:01:02Z</time>
      </trkpt>
      <trkpt lat="42.77166" lon="0.16039">
        <ele>2241.8</ele>
        <time>2021-01-29T15:01:03Z</time>
      </trkpt>
      <trkpt lat="42.77168" lon="0.16041">
        <ele>2240.8</ele>
        <time>2021-01-29T15:01:04Z</time>
      </trkpt>
      <trkpt lat="42.77171" lon="0.16042">
        <ele>2239.6</ele>
        <time>2021-01-29T15:01:05Z</time>
      </trkpt>
      <trkpt lat="42.77173" lon="0.16043">
        <ele>2238.4</ele>
        <time>2021-01-29T15:01:06Z</time>
      </trkpt>
      <trkpt lat="42.77175" lon="0.16044">
        <ele>2237</ele>
        <time>2021-01-29T15:01:07Z</time>
      </trkpt>
      <trkpt lat="42.77177" lon="0.16043">
        <ele>2235.6</ele>
        <time>2021-01-29T15:01:08Z</time>
      </trkpt>
      <trkpt lat="42.77178" lon="0.16043">
        <ele>2234.4</ele>
        <time>2021-01-29T15:01:09Z</time>
      </trkpt>
      <trkpt lat="42.77178" lon="0.16043">
        <ele>2233.8</ele>
        <time>2021-01-29T15:01:10Z</time>
      </trkpt>
      <trkpt lat="42.77179" lon="0.16043">
        <ele>2233</ele>
        <time>2021-01-29T15:01:11Z</time>
      </trkpt>
      <trkpt lat="42.77179" lon="0.16041">
        <ele>2232.6</ele>
        <time>2021-01-29T15:01:12Z</time>
      </trkpt>
      <trkpt lat="42.7718" lon="0.16037">
        <ele>2232</ele>
        <time>2021-01-29T15:01:13Z</time>
      </trkpt>
      <trkpt lat="42.77182" lon="0.16033">
        <ele>2231.4</ele>
        <time>2021-01-29T15:01:14Z</time>
      </trkpt>
      <trkpt lat="42.77183" lon="0.16029">
        <ele>2230.8</ele>
        <time>2021-01-29T15:01:15Z</time>
      </trkpt>
      <trkpt lat="42.77185" lon="0.16024">
        <ele>2230.2</ele>
        <time>2021-01-29T15:01:16Z</time>
      </trkpt>
      <trkpt lat="42.77186" lon="0.1602">
        <ele>2229.4</ele>
        <time>2021-01-29T15:01:17Z</time>
      </trkpt>
      <trkpt lat="42.77186" lon="0.16016">
        <ele>2228.8</ele>
        <time>2021-01-29T15:01:18Z</time>
      </trkpt>
      <trkpt lat="42.77187" lon="0.16015">
        <ele>2228.2</ele>
        <time>2021-01-29T15:01:19Z</time>
      </trkpt>
      <trkpt lat="42.77187" lon="0.16014">
        <ele>2227.8</ele>
        <time>2021-01-29T15:01:20Z</time>
      </trkpt>
      <trkpt lat="42.77187" lon="0.16014">
        <ele>2227.6</ele>
        <time>2021-01-29T15:01:21Z</time>
      </trkpt>
      <trkpt lat="42.77187" lon="0.16014">
        <ele>2227</ele>
        <time>2021-01-29T15:01:22Z</time>
      </trkpt>
      <trkpt lat="42.77187" lon="0.16014">
        <ele>2226.6</ele>
        <time>2021-01-29T15:01:23Z</time>
      </trkpt>
      <trkpt lat="42.77189" lon="0.16015">
        <ele>2226</ele>
        <time>2021-01-29T15:01:24Z</time>
      </trkpt>
      <trkpt lat="42.77191" lon="0.16016">
        <ele>2225.6</ele>
        <time>2021-01-29T15:01:25Z</time>
      </trkpt>
      <trkpt lat="42.77194" lon="0.16016">
        <ele>2224.8</ele>
        <time>2021-01-29T15:01:26Z</time>
      </trkpt>
      <trkpt lat="42.77196" lon="0.16016">
        <ele>2223.8</ele>
        <time>2021-01-29T15:01:27Z</time>
      </trkpt>
      <trkpt lat="42.77197" lon="0.16019">
        <ele>2223.2</ele>
        <time>2021-01-29T15:01:28Z</time>
      </trkpt>
      <trkpt lat="42.77199" lon="0.16023">
        <ele>2222.4</ele>
        <time>2021-01-29T15:01:29Z</time>
      </trkpt>
      <trkpt lat="42.77201" lon="0.16026">
        <ele>2221.8</ele>
        <time>2021-01-29T15:01:30Z</time>
      </trkpt>
      <trkpt lat="42.77203" lon="0.16028">
        <ele>2221.2</ele>
        <time>2021-01-29T15:01:31Z</time>
      </trkpt>
      <trkpt lat="42.77205" lon="0.16029">
        <ele>2220.6</ele>
        <time>2021-01-29T15:01:32Z</time>
      </trkpt>
      <trkpt lat="42.77207" lon="0.16027">
        <ele>2220</ele>
        <time>2021-01-29T15:01:33Z</time>
      </trkpt>
      <trkpt lat="42.77208" lon="0.16023">
        <ele>2219.2</ele>
        <time>2021-01-29T15:01:34Z</time>
      </trkpt>
      <trkpt lat="42.77207" lon="0.16019">
        <ele>2218.4</ele>
        <time>2021-01-29T15:01:35Z</time>
      </trkpt>
      <trkpt lat="42.77209" lon="0.16016">
        <ele>2217.6</ele>
        <time>2021-01-29T15:01:36Z</time>
      </trkpt>
      <trkpt lat="42.77212" lon="0.16013">
        <ele>2216.8</ele>
        <time>2021-01-29T15:01:37Z</time>
      </trkpt>
      <trkpt lat="42.77215" lon="0.1601">
        <ele>2215.8</ele>
        <time>2021-01-29T15:01:38Z</time>
      </trkpt>
      <trkpt lat="42.77215" lon="0.16004">
        <ele>2214.6</ele>
        <time>2021-01-29T15:01:39Z</time>
      </trkpt>
      <trkpt lat="42.77215" lon="0.15998">
        <ele>2213.6</ele>
        <time>2021-01-29T15:01:40Z</time>
      </trkpt>
      <trkpt lat="42.77216" lon="0.15993">
        <ele>2212.4</ele>
        <time>2021-01-29T15:01:41Z</time>
      </trkpt>
      <trkpt lat="42.7722" lon="0.1599">
        <ele>2211.4</ele>
        <time>2021-01-29T15:01:42Z</time>
      </trkpt>
      <trkpt lat="42.77223" lon="0.15987">
        <ele>2210.2</ele>
        <time>2021-01-29T15:01:43Z</time>
      </trkpt>
      <trkpt lat="42.77225" lon="0.15983">
        <ele>2209</ele>
        <time>2021-01-29T15:01:44Z</time>
      </trkpt>
      <trkpt lat="42.77226" lon="0.15977">
        <ele>2207.6</ele>
        <time>2021-01-29T15:01:45Z</time>
      </trkpt>
      <trkpt lat="42.77229" lon="0.15973">
        <ele>2206.2</ele>
        <time>2021-01-29T15:01:46Z</time>
      </trkpt>
      <trkpt lat="42.77233" lon="0.1597">
        <ele>2205</ele>
        <time>2021-01-29T15:01:47Z</time>
      </trkpt>
      <trkpt lat="42.77234" lon="0.15965">
        <ele>2203.6</ele>
        <time>2021-01-29T15:01:48Z</time>
      </trkpt>
      <trkpt lat="42.77235" lon="0.1596">
        <ele>2202.2</ele>
        <time>2021-01-29T15:01:49Z</time>
      </trkpt>
      <trkpt lat="42.77237" lon="0.15957">
        <ele>2200.8</ele>
        <time>2021-01-29T15:01:50Z</time>
      </trkpt>
      <trkpt lat="42.7724" lon="0.15952">
        <ele>2199.6</ele>
        <time>2021-01-29T15:01:51Z</time>
      </trkpt>
      <trkpt lat="42.77242" lon="0.15948">
        <ele>2198.2</ele>
        <time>2021-01-29T15:01:52Z</time>
      </trkpt>
      <trkpt lat="42.77244" lon="0.15943">
        <ele>2197</ele>
        <time>2021-01-29T15:01:53Z</time>
      </trkpt>
      <trkpt lat="42.77246" lon="0.15938">
        <ele>2195.6</ele>
        <time>2021-01-29T15:01:54Z</time>
      </trkpt>
      <trkpt lat="42.77247" lon="0.15933">
        <ele>2194.4</ele>
        <time>2021-01-29T15:01:55Z</time>
      </trkpt>
      <trkpt lat="42.77248" lon="0.15927">
        <ele>2193.2</ele>
        <time>2021-01-29T15:01:56Z</time>
      </trkpt>
      <trkpt lat="42.7725" lon="0.15922">
        <ele>2192</ele>
        <time>2021-01-29T15:01:57Z</time>
      </trkpt>
      <trkpt lat="42.77252" lon="0.15917">
        <ele>2190.8</ele>
        <time>2021-01-29T15:01:58Z</time>
      </trkpt>
      <trkpt lat="42.77253" lon="0.15912">
        <ele>2189.6</ele>
        <time>2021-01-29T15:01:59Z</time>
      </trkpt>
      <trkpt lat="42.77254" lon="0.15908">
        <ele>2188.4</ele>
        <time>2021-01-29T15:02:00Z</time>
      </trkpt>
      <trkpt lat="42.77254" lon="0.15903">
        <ele>2187.4</ele>
        <time>2021-01-29T15:02:01Z</time>
      </trkpt>
      <trkpt lat="42.77255" lon="0.15899">
        <ele>2186.2</ele>
        <time>2021-01-29T15:02:02Z</time>
      </trkpt>
      <trkpt lat="42.77255" lon="0.15894">
        <ele>2185.2</ele>
        <time>2021-01-29T15:02:03Z</time>
      </trkpt>
      <trkpt lat="42.77254" lon="0.15889">
        <ele>2184</ele>
        <time>2021-01-29T15:02:04Z</time>
      </trkpt>
      <trkpt lat="42.77253" lon="0.15884">
        <ele>2182.8</ele>
        <time>2021-01-29T15:02:05Z</time>
      </trkpt>
      <trkpt lat="42.77252" lon="0.15878">
        <ele>2181.6</ele>
        <time>2021-01-29T15:02:06Z</time>
      </trkpt>
      <trkpt lat="42.77252" lon="0.15872">
        <ele>2180.6</ele>
        <time>2021-01-29T15:02:07Z</time>
      </trkpt>
      <trkpt lat="42.77251" lon="0.15866">
        <ele>2179.4</ele>
        <time>2021-01-29T15:02:08Z</time>
      </trkpt>
      <trkpt lat="42.7725" lon="0.15861">
        <ele>2178.2</ele>
        <time>2021-01-29T15:02:09Z</time>
      </trkpt>
      <trkpt lat="42.77249" lon="0.15855">
        <ele>2177</ele>
        <time>2021-01-29T15:02:10Z</time>
      </trkpt>
      <trkpt lat="42.77247" lon="0.1585">
        <ele>2175.8</ele>
        <time>2021-01-29T15:02:11Z</time>
      </trkpt>
      <trkpt lat="42.77245" lon="0.15844">
        <ele>2174.8</ele>
        <time>2021-01-29T15:02:12Z</time>
      </trkpt>
      <trkpt lat="42.77244" lon="0.15838">
        <ele>2173.6</ele>
        <time>2021-01-29T15:02:13Z</time>
      </trkpt>
      <trkpt lat="42.77241" lon="0.15833">
        <ele>2172.6</ele>
        <time>2021-01-29T15:02:14Z</time>
      </trkpt>
      <trkpt lat="42.77239" lon="0.15829">
        <ele>2171.4</ele>
        <time>2021-01-29T15:02:15Z</time>
      </trkpt>
      <trkpt lat="42.77237" lon="0.15824">
        <ele>2170.4</ele>
        <time>2021-01-29T15:02:16Z</time>
      </trkpt>
      <trkpt lat="42.77233" lon="0.1582">
        <ele>2169.6</ele>
        <time>2021-01-29T15:02:17Z</time>
      </trkpt>
      <trkpt lat="42.77231" lon="0.15815">
        <ele>2168.8</ele>
        <time>2021-01-29T15:02:18Z</time>
      </trkpt>
      <trkpt lat="42.7723" lon="0.1581">
        <ele>2168</ele>
        <time>2021-01-29T15:02:19Z</time>
      </trkpt>
      <trkpt lat="42.77228" lon="0.15805">
        <ele>2167</ele>
        <time>2021-01-29T15:02:20Z</time>
      </trkpt>
      <trkpt lat="42.77227" lon="0.15799">
        <ele>2165.8</ele>
        <time>2021-01-29T15:02:21Z</time>
      </trkpt>
      <trkpt lat="42.77226" lon="0.15794">
        <ele>2165</ele>
        <time>2021-01-29T15:02:22Z</time>
      </trkpt>
      <trkpt lat="42.77226" lon="0.15788">
        <ele>2164</ele>
        <time>2021-01-29T15:02:23Z</time>
      </trkpt>
      <trkpt lat="42.77227" lon="0.15783">
        <ele>2163</ele>
        <time>2021-01-29T15:02:24Z</time>
      </trkpt>
      <trkpt lat="42.77229" lon="0.15779">
        <ele>2162</ele>
        <time>2021-01-29T15:02:25Z</time>
      </trkpt>
      <trkpt lat="42.7723" lon="0.15774">
        <ele>2161</ele>
        <time>2021-01-29T15:02:26Z</time>
      </trkpt>
      <trkpt lat="42.77232" lon="0.15769">
        <ele>2160</ele>
        <time>2021-01-29T15:02:27Z</time>
      </trkpt>
      <trkpt lat="42.77233" lon="0.15768">
        <ele>2159</ele>
        <time>2021-01-29T15:02:28Z</time>
      </trkpt>
      <trkpt lat="42.77234" lon="0.15769">
        <ele>2158.4</ele>
        <time>2021-01-29T15:02:29Z</time>
      </trkpt>
      <trkpt lat="42.77234" lon="0.15769">
        <ele>2157.6</ele>
        <time>2021-01-29T15:02:30Z</time>
      </trkpt>
      <trkpt lat="42.77235" lon="0.15769">
        <ele>2157.2</ele>
        <time>2021-01-29T15:02:31Z</time>
      </trkpt>
      <trkpt lat="42.77235" lon="0.15769">
        <ele>2156.8</ele>
        <time>2021-01-29T15:02:32Z</time>
      </trkpt>
      <trkpt lat="42.77235" lon="0.15769">
        <ele>2156.4</ele>
        <time>2021-01-29T15:02:33Z</time>
      </trkpt>
      <trkpt lat="42.77235" lon="0.15769">
        <ele>2156.2</ele>
        <time>2021-01-29T15:02:34Z</time>
      </trkpt>
      <trkpt lat="42.77235" lon="0.15769">
        <ele>2156.2</ele>
        <time>2021-01-29T15:02:35Z</time>
      </trkpt>
      <trkpt lat="42.77235" lon="0.15769">
        <ele>2156</ele>
        <time>2021-01-29T15:02:36Z</time>
      </trkpt>
      <trkpt lat="42.77235" lon="0.15769">
        <ele>2156</ele>
        <time>2021-01-29T15:02:37Z</time>
      </trkpt>
      <trkpt lat="42.77235" lon="0.15769">
        <ele>2155.8</ele>
        <time>2021-01-29T15:02:38Z</time>
      </trkpt>
      <trkpt lat="42.77235" lon="0.15769">
        <ele>2155.8</ele>
        <time>2021-01-29T15:02:39Z</time>
      </trkpt>
      <trkpt lat="42.77235" lon="0.15769">
        <ele>2155.8</ele>
        <time>2021-01-29T15:02:40Z</time>
      </trkpt>
      <trkpt lat="42.77235" lon="0.15769">
        <ele>2155.8</ele>
        <time>2021-01-29T15:02:41Z</time>
      </trkpt>
      <trkpt lat="42.77235" lon="0.15769">
        <ele>2155.8</ele>
        <time>2021-01-29T15:02:42Z</time>
      </trkpt>
      <trkpt lat="42.77235" lon="0.15769">
        <ele>2155.8</ele>
        <time>2021-01-29T15:02:43Z</time>
      </trkpt>
      <trkpt lat="42.77235" lon="0.15769">
        <ele>2155.6</ele>
        <time>2021-01-29T15:02:44Z</time>
      </trkpt>
      <trkpt lat="42.77235" lon="0.15769">
        <ele>2155.8</ele>
        <time>2021-01-29T15:02:45Z</time>
      </trkpt>
      <trkpt lat="42.77235" lon="0.15769">
        <ele>2155.6</ele>
        <time>2021-01-29T15:02:46Z</time>
      </trkpt>
      <trkpt lat="42.77235" lon="0.15769">
        <ele>2155.8</ele>
        <time>2021-01-29T15:02:47Z</time>
      </trkpt>
      <trkpt lat="42.77235" lon="0.15769">
        <ele>2155.8</ele>
        <time>2021-01-29T15:02:48Z</time>
      </trkpt>
      <trkpt lat="42.77235" lon="0.15769">
        <ele>2155.8</ele>
        <time>2021-01-29T15:02:49Z</time>
      </trkpt>
      <trkpt lat="42.77235" lon="0.15769">
        <ele>2155.8</ele>
        <time>2021-01-29T15:02:50Z</time>
      </trkpt>
      <trkpt lat="42.77235" lon="0.15769">
        <ele>2155.8</ele>
        <time>2021-01-29T15:02:51Z</time>
      </trkpt>
      <trkpt lat="42.77235" lon="0.15769">
        <ele>2155.8</ele>
        <time>2021-01-29T15:02:52Z</time>
      </trkpt>
      <trkpt lat="42.77235" lon="0.15769">
        <ele>2155.8</ele>
        <time>2021-01-29T15:02:53Z</time>
      </trkpt>
      <trkpt lat="42.77235" lon="0.15769">
        <ele>2155.8</ele>
        <time>2021-01-29T15:02:54Z</time>
      </trkpt>
      <trkpt lat="42.77235" lon="0.15769">
        <ele>2155.8</ele>
        <time>2021-01-29T15:02:55Z</time>
      </trkpt>
      <trkpt lat="42.77235" lon="0.15769">
        <ele>2155.8</ele>
        <time>2021-01-29T15:02:56Z</time>
      </trkpt>
      <trkpt lat="42.77235" lon="0.15769">
        <ele>2155.8</ele>
        <time>2021-01-29T15:02:57Z</time>
      </trkpt>
      <trkpt lat="42.77235" lon="0.15769">
        <ele>2155.8</ele>
        <time>2021-01-29T15:02:58Z</time>
      </trkpt>
      <trkpt lat="42.77235" lon="0.15769">
        <ele>2155.8</ele>
        <time>2021-01-29T15:02:59Z</time>
      </trkpt>
      <trkpt lat="42.77235" lon="0.15769">
        <ele>2156</ele>
        <time>2021-01-29T15:03:00Z</time>
      </trkpt>
      <trkpt lat="42.77235" lon="0.15769">
        <ele>2156</ele>
        <time>2021-01-29T15:03:01Z</time>
      </trkpt>
      <trkpt lat="42.77235" lon="0.15769">
        <ele>2156</ele>
        <time>2021-01-29T15:03:02Z</time>
      </trkpt>
      <trkpt lat="42.77235" lon="0.15769">
        <ele>2156</ele>
        <time>2021-01-29T15:03:03Z</time>
      </trkpt>
      <trkpt lat="42.77235" lon="0.15769">
        <ele>2156</ele>
        <time>2021-01-29T15:03:04Z</time>
      </trkpt>
      <trkpt lat="42.77235" lon="0.15769">
        <ele>2156</ele>
        <time>2021-01-29T15:03:05Z</time>
      </trkpt>
      <trkpt lat="42.77235" lon="0.15769">
        <ele>2156</ele>
        <time>2021-01-29T15:03:06Z</time>
      </trkpt>
      <trkpt lat="42.77235" lon="0.15769">
        <ele>2156</ele>
        <time>2021-01-29T15:03:07Z</time>
      </trkpt>
      <trkpt lat="42.77235" lon="0.15769">
        <ele>2156</ele>
        <time>2021-01-29T15:03:08Z</time>
      </trkpt>
      <trkpt lat="42.77235" lon="0.15769">
        <ele>2156</ele>
        <time>2021-01-29T15:03:09Z</time>
      </trkpt>
      <trkpt lat="42.77235" lon="0.15769">
        <ele>2156</ele>
        <time>2021-01-29T15:03:10Z</time>
      </trkpt>
      <trkpt lat="42.77235" lon="0.15769">
        <ele>2156.2</ele>
        <time>2021-01-29T15:03:11Z</time>
      </trkpt>
      <trkpt lat="42.77235" lon="0.15769">
        <ele>2156</ele>
        <time>2021-01-29T15:03:12Z</time>
      </trkpt>
      <trkpt lat="42.77235" lon="0.15769">
        <ele>2156</ele>
        <time>2021-01-29T15:03:13Z</time>
      </trkpt>
      <trkpt lat="42.77235" lon="0.15769">
        <ele>2156.2</ele>
        <time>2021-01-29T15:03:14Z</time>
      </trkpt>
      <trkpt lat="42.77235" lon="0.15769">
        <ele>2156</ele>
        <time>2021-01-29T15:03:15Z</time>
      </trkpt>
      <trkpt lat="42.77235" lon="0.15769">
        <ele>2156</ele>
        <time>2021-01-29T15:03:16Z</time>
      </trkpt>
      <trkpt lat="42.77235" lon="0.15769">
        <ele>2156</ele>
        <time>2021-01-29T15:03:17Z</time>
      </trkpt>
      <trkpt lat="42.77235" lon="0.15769">
        <ele>2156</ele>
        <time>2021-01-29T15:03:18Z</time>
      </trkpt>
      <trkpt lat="42.77235" lon="0.15769">
        <ele>2156</ele>
        <time>2021-01-29T15:03:19Z</time>
      </trkpt>
      <trkpt lat="42.77235" lon="0.15769">
        <ele>2156.2</ele>
        <time>2021-01-29T15:03:20Z</time>
      </trkpt>
      <trkpt lat="42.77235" lon="0.15769">
        <ele>2156</ele>
        <time>2021-01-29T15:03:21Z</time>
      </trkpt>
      <trkpt lat="42.77235" lon="0.15769">
        <ele>2156.2</ele>
        <time>2021-01-29T15:03:22Z</time>
      </trkpt>
      <trkpt lat="42.77235" lon="0.15769">
        <ele>2156</ele>
        <time>2021-01-29T15:03:23Z</time>
      </trkpt>
      <trkpt lat="42.77235" lon="0.15769">
        <ele>2156.2</ele>
        <time>2021-01-29T15:03:24Z</time>
      </trkpt>
      <trkpt lat="42.77235" lon="0.15769">
        <ele>2156.2</ele>
        <time>2021-01-29T15:03:25Z</time>
      </trkpt>
      <trkpt lat="42.77235" lon="0.15769">
        <ele>2156.2</ele>
        <time>2021-01-29T15:03:26Z</time>
      </trkpt>
      <trkpt lat="42.77235" lon="0.15769">
        <ele>2156.2</ele>
        <time>2021-01-29T15:03:27Z</time>
      </trkpt>
      <trkpt lat="42.77235" lon="0.15769">
        <ele>2156.2</ele>
        <time>2021-01-29T15:03:28Z</time>
      </trkpt>
      <trkpt lat="42.77235" lon="0.15769">
        <ele>2156.2</ele>
        <time>2021-01-29T15:03:29Z</time>
      </trkpt>
      <trkpt lat="42.77235" lon="0.15769">
        <ele>2156.2</ele>
        <time>2021-01-29T15:03:30Z</time>
      </trkpt>
      <trkpt lat="42.77235" lon="0.15769">
        <ele>2156.2</ele>
        <time>2021-01-29T15:03:31Z</time>
      </trkpt>
      <trkpt lat="42.77235" lon="0.15769">
        <ele>2156.2</ele>
        <time>2021-01-29T15:03:32Z</time>
      </trkpt>
      <trkpt lat="42.77235" lon="0.15769">
        <ele>2156.2</ele>
        <time>2021-01-29T15:03:33Z</time>
      </trkpt>
      <trkpt lat="42.77235" lon="0.15769">
        <ele>2156.2</ele>
        <time>2021-01-29T15:03:34Z</time>
      </trkpt>
      <trkpt lat="42.77235" lon="0.15769">
        <ele>2156.2</ele>
        <time>2021-01-29T15:03:35Z</time>
      </trkpt>
      <trkpt lat="42.77235" lon="0.15769">
        <ele>2156.2</ele>
        <time>2021-01-29T15:03:36Z</time>
      </trkpt>
      <trkpt lat="42.77235" lon="0.15769">
        <ele>2156.2</ele>
        <time>2021-01-29T15:03:37Z</time>
      </trkpt>
      <trkpt lat="42.77235" lon="0.15769">
        <ele>2156.2</ele>
        <time>2021-01-29T15:03:38Z</time>
      </trkpt>
      <trkpt lat="42.77235" lon="0.15769">
        <ele>2156.2</ele>
        <time>2021-01-29T15:03:39Z</time>
      </trkpt>
      <trkpt lat="42.77235" lon="0.15769">
        <ele>2156.2</ele>
        <time>2021-01-29T15:03:40Z</time>
      </trkpt>
      <trkpt lat="42.77235" lon="0.15769">
        <ele>2156.2</ele>
        <time>2021-01-29T15:03:41Z</time>
      </trkpt>
      <trkpt lat="42.77235" lon="0.15769">
        <ele>2156.2</ele>
        <time>2021-01-29T15:03:42Z</time>
      </trkpt>
      <trkpt lat="42.77235" lon="0.15769">
        <ele>2156.2</ele>
        <time>2021-01-29T15:03:43Z</time>
      </trkpt>
      <trkpt lat="42.77235" lon="0.15769">
        <ele>2156.2</ele>
        <time>2021-01-29T15:03:44Z</time>
      </trkpt>
      <trkpt lat="42.77235" lon="0.15769">
        <ele>2156.4</ele>
        <time>2021-01-29T15:03:45Z</time>
      </trkpt>
      <trkpt lat="42.77235" lon="0.15769">
        <ele>2156.2</ele>
        <time>2021-01-29T15:03:46Z</time>
      </trkpt>
      <trkpt lat="42.77235" lon="0.15769">
        <ele>2156.2</ele>
        <time>2021-01-29T15:03:47Z</time>
      </trkpt>
      <trkpt lat="42.77235" lon="0.15769">
        <ele>2156.2</ele>
        <time>2021-01-29T15:03:48Z</time>
      </trkpt>
      <trkpt lat="42.77235" lon="0.15769">
        <ele>2156.4</ele>
        <time>2021-01-29T15:03:49Z</time>
      </trkpt>
      <trkpt lat="42.77235" lon="0.15769">
        <ele>2156.4</ele>
        <time>2021-01-29T15:03:50Z</time>
      </trkpt>
      <trkpt lat="42.77235" lon="0.15769">
        <ele>2156.4</ele>
        <time>2021-01-29T15:03:51Z</time>
      </trkpt>
      <trkpt lat="42.77235" lon="0.15769">
        <ele>2156.4</ele>
        <time>2021-01-29T15:03:52Z</time>
      </trkpt>
      <trkpt lat="42.77235" lon="0.15769">
        <ele>2156.4</ele>
        <time>2021-01-29T15:03:53Z</time>
      </trkpt>
      <trkpt lat="42.77235" lon="0.15769">
        <ele>2156.2</ele>
        <time>2021-01-29T15:03:54Z</time>
      </trkpt>
      <trkpt lat="42.77235" lon="0.15769">
        <ele>2156.2</ele>
        <time>2021-01-29T15:03:55Z</time>
      </trkpt>
      <trkpt lat="42.77235" lon="0.15769">
        <ele>2156.4</ele>
        <time>2021-01-29T15:03:56Z</time>
      </trkpt>
      <trkpt lat="42.77235" lon="0.15769">
        <ele>2156.4</ele>
        <time>2021-01-29T15:03:57Z</time>
      </trkpt>
      <trkpt lat="42.77235" lon="0.15769">
        <ele>2156.4</ele>
        <time>2021-01-29T15:03:58Z</time>
      </trkpt>
      <trkpt lat="42.77235" lon="0.15769">
        <ele>2156.4</ele>
        <time>2021-01-29T15:03:59Z</time>
      </trkpt>
      <trkpt lat="42.77235" lon="0.15769">
        <ele>2156.2</ele>
        <time>2021-01-29T15:04:00Z</time>
      </trkpt>
      <trkpt lat="42.77235" lon="0.15769">
        <ele>2156.2</ele>
        <time>2021-01-29T15:04:01Z</time>
      </trkpt>
      <trkpt lat="42.77235" lon="0.15769">
        <ele>2156.4</ele>
        <time>2021-01-29T15:04:02Z</time>
      </trkpt>
      <trkpt lat="42.77235" lon="0.15769">
        <ele>2156.4</ele>
        <time>2021-01-29T15:04:03Z</time>
      </trkpt>
      <trkpt lat="42.77235" lon="0.15769">
        <ele>2156.4</ele>
        <time>2021-01-29T15:04:04Z</time>
      </trkpt>
      <trkpt lat="42.77235" lon="0.15769">
        <ele>2156.4</ele>
        <time>2021-01-29T15:04:05Z</time>
      </trkpt>
      <trkpt lat="42.77235" lon="0.15769">
        <ele>2156.4</ele>
        <time>2021-01-29T15:04:06Z</time>
      </trkpt>
      <trkpt lat="42.77235" lon="0.15769">
        <ele>2156.4</ele>
        <time>2021-01-29T15:04:07Z</time>
      </trkpt>
      <trkpt lat="42.77235" lon="0.15769">
        <ele>2156.4</ele>
        <time>2021-01-29T15:04:08Z</time>
      </trkpt>
      <trkpt lat="42.77235" lon="0.15769">
        <ele>2156.4</ele>
        <time>2021-01-29T15:04:09Z</time>
      </trkpt>
      <trkpt lat="42.77235" lon="0.15769">
        <ele>2156.4</ele>
        <time>2021-01-29T15:04:10Z</time>
      </trkpt>
      <trkpt lat="42.77235" lon="0.15769">
        <ele>2156.4</ele>
        <time>2021-01-29T15:04:11Z</time>
      </trkpt>
      <trkpt lat="42.77235" lon="0.15769">
        <ele>2156.4</ele>
        <time>2021-01-29T15:04:12Z</time>
      </trkpt>
      <trkpt lat="42.77235" lon="0.15769">
        <ele>2156.4</ele>
        <time>2021-01-29T15:04:13Z</time>
      </trkpt>
      <trkpt lat="42.77235" lon="0.15769">
        <ele>2156.4</ele>
        <time>2021-01-29T15:04:14Z</time>
      </trkpt>
      <trkpt lat="42.77235" lon="0.15769">
        <ele>2156.4</ele>
        <time>2021-01-29T15:04:15Z</time>
      </trkpt>
      <trkpt lat="42.77235" lon="0.15769">
        <ele>2156.4</ele>
        <time>2021-01-29T15:04:16Z</time>
      </trkpt>
      <trkpt lat="42.77235" lon="0.15769">
        <ele>2156.4</ele>
        <time>2021-01-29T15:04:17Z</time>
      </trkpt>
      <trkpt lat="42.77235" lon="0.15769">
        <ele>2156.4</ele>
        <time>2021-01-29T15:04:18Z</time>
      </trkpt>
      <trkpt lat="42.77235" lon="0.15769">
        <ele>2156.4</ele>
        <time>2021-01-29T15:04:19Z</time>
      </trkpt>
      <trkpt lat="42.77235" lon="0.15769">
        <ele>2156.6</ele>
        <time>2021-01-29T15:04:20Z</time>
      </trkpt>
      <trkpt lat="42.77235" lon="0.15769">
        <ele>2156.4</ele>
        <time>2021-01-29T15:04:21Z</time>
      </trkpt>
      <trkpt lat="42.77236" lon="0.15769">
        <ele>2156.2</ele>
        <time>2021-01-29T15:04:22Z</time>
      </trkpt>
      <trkpt lat="42.77238" lon="0.15767">
        <ele>2156</ele>
        <time>2021-01-29T15:04:23Z</time>
      </trkpt>
      <trkpt lat="42.7724" lon="0.15764">
        <ele>2155.8</ele>
        <time>2021-01-29T15:04:24Z</time>
      </trkpt>
      <trkpt lat="42.77242" lon="0.15761">
        <ele>2155.4</ele>
        <time>2021-01-29T15:04:25Z</time>
      </trkpt>
      <trkpt lat="42.77245" lon="0.15759">
        <ele>2155</ele>
        <time>2021-01-29T15:04:26Z</time>
      </trkpt>
      <trkpt lat="42.77248" lon="0.15758">
        <ele>2154.6</ele>
        <time>2021-01-29T15:04:27Z</time>
      </trkpt>
      <trkpt lat="42.77251" lon="0.1576">
        <ele>2154</ele>
        <time>2021-01-29T15:04:28Z</time>
      </trkpt>
      <trkpt lat="42.77254" lon="0.15761">
        <ele>2153.4</ele>
        <time>2021-01-29T15:04:29Z</time>
      </trkpt>
      <trkpt lat="42.77257" lon="0.15762">
        <ele>2152.8</ele>
        <time>2021-01-29T15:04:30Z</time>
      </trkpt>
      <trkpt lat="42.77261" lon="0.15763">
        <ele>2152.2</ele>
        <time>2021-01-29T15:04:31Z</time>
      </trkpt>
      <trkpt lat="42.77266" lon="0.15765">
        <ele>2151.6</ele>
        <time>2021-01-29T15:04:32Z</time>
      </trkpt>
      <trkpt lat="42.7727" lon="0.15769">
        <ele>2151</ele>
        <time>2021-01-29T15:04:33Z</time>
      </trkpt>
      <trkpt lat="42.77274" lon="0.15773">
        <ele>2150.4</ele>
        <time>2021-01-29T15:04:34Z</time>
      </trkpt>
      <trkpt lat="42.77279" lon="0.15776">
        <ele>2149.8</ele>
        <time>2021-01-29T15:04:35Z</time>
      </trkpt>
      <trkpt lat="42.77283" lon="0.15776">
        <ele>2148.8</ele>
        <time>2021-01-29T15:04:36Z</time>
      </trkpt>
      <trkpt lat="42.77287" lon="0.15773">
        <ele>2147.6</ele>
        <time>2021-01-29T15:04:37Z</time>
      </trkpt>
      <trkpt lat="42.77292" lon="0.15773">
        <ele>2146.8</ele>
        <time>2021-01-29T15:04:38Z</time>
      </trkpt>
      <trkpt lat="42.77296" lon="0.15776">
        <ele>2145.8</ele>
        <time>2021-01-29T15:04:39Z</time>
      </trkpt>
      <trkpt lat="42.77301" lon="0.15779">
        <ele>2145</ele>
        <time>2021-01-29T15:04:40Z</time>
      </trkpt>
      <trkpt lat="42.77306" lon="0.15779">
        <ele>2143.8</ele>
        <time>2021-01-29T15:04:41Z</time>
      </trkpt>
      <trkpt lat="42.7731" lon="0.15777">
        <ele>2142.8</ele>
        <time>2021-01-29T15:04:42Z</time>
      </trkpt>
      <trkpt lat="42.77314" lon="0.15776">
        <ele>2142</ele>
        <time>2021-01-29T15:04:43Z</time>
      </trkpt>
      <trkpt lat="42.77318" lon="0.15778">
        <ele>2141.2</ele>
        <time>2021-01-29T15:04:44Z</time>
      </trkpt>
      <trkpt lat="42.77321" lon="0.15779">
        <ele>2140.2</ele>
        <time>2021-01-29T15:04:45Z</time>
      </trkpt>
      <trkpt lat="42.77325" lon="0.15779">
        <ele>2139.4</ele>
        <time>2021-01-29T15:04:46Z</time>
      </trkpt>
      <trkpt lat="42.77328" lon="0.15777">
        <ele>2138.6</ele>
        <time>2021-01-29T15:04:47Z</time>
      </trkpt>
      <trkpt lat="42.77332" lon="0.15774">
        <ele>2137.6</ele>
        <time>2021-01-29T15:04:48Z</time>
      </trkpt>
      <trkpt lat="42.77336" lon="0.15772">
        <ele>2136.6</ele>
        <time>2021-01-29T15:04:49Z</time>
      </trkpt>
      <trkpt lat="42.77341" lon="0.15772">
        <ele>2135.8</ele>
        <time>2021-01-29T15:04:50Z</time>
      </trkpt>
      <trkpt lat="42.77346" lon="0.15774">
        <ele>2135</ele>
        <time>2021-01-29T15:04:51Z</time>
      </trkpt>
      <trkpt lat="42.7735" lon="0.15778">
        <ele>2134</ele>
        <time>2021-01-29T15:04:52Z</time>
      </trkpt>
      <trkpt lat="42.77354" lon="0.15782">
        <ele>2132.8</ele>
        <time>2021-01-29T15:04:53Z</time>
      </trkpt>
      <trkpt lat="42.77359" lon="0.15784">
        <ele>2131.8</ele>
        <time>2021-01-29T15:04:54Z</time>
      </trkpt>
      <trkpt lat="42.77363" lon="0.15786">
        <ele>2131</ele>
        <time>2021-01-29T15:04:55Z</time>
      </trkpt>
      <trkpt lat="42.77366" lon="0.15785">
        <ele>2130.2</ele>
        <time>2021-01-29T15:04:56Z</time>
      </trkpt>
      <trkpt lat="42.7737" lon="0.15783">
        <ele>2129.4</ele>
        <time>2021-01-29T15:04:57Z</time>
      </trkpt>
      <trkpt lat="42.77373" lon="0.15779">
        <ele>2128.4</ele>
        <time>2021-01-29T15:04:58Z</time>
      </trkpt>
      <trkpt lat="42.77376" lon="0.15775">
        <ele>2127.6</ele>
        <time>2021-01-29T15:04:59Z</time>
      </trkpt>
      <trkpt lat="42.77378" lon="0.15771">
        <ele>2127</ele>
        <time>2021-01-29T15:05:00Z</time>
      </trkpt>
      <trkpt lat="42.77381" lon="0.15769">
        <ele>2126.4</ele>
        <time>2021-01-29T15:05:01Z</time>
      </trkpt>
      <trkpt lat="42.77382" lon="0.15768">
        <ele>2126</ele>
        <time>2021-01-29T15:05:02Z</time>
      </trkpt>
      <trkpt lat="42.77384" lon="0.15767">
        <ele>2125.4</ele>
        <time>2021-01-29T15:05:03Z</time>
      </trkpt>
      <trkpt lat="42.77387" lon="0.15768">
        <ele>2125</ele>
        <time>2021-01-29T15:05:04Z</time>
      </trkpt>
      <trkpt lat="42.77389" lon="0.15768">
        <ele>2124.4</ele>
        <time>2021-01-29T15:05:05Z</time>
      </trkpt>
      <trkpt lat="42.77393" lon="0.15769">
        <ele>2124</ele>
        <time>2021-01-29T15:05:06Z</time>
      </trkpt>
      <trkpt lat="42.77396" lon="0.1577">
        <ele>2123.4</ele>
        <time>2021-01-29T15:05:07Z</time>
      </trkpt>
      <trkpt lat="42.77401" lon="0.15771">
        <ele>2122.8</ele>
        <time>2021-01-29T15:05:08Z</time>
      </trkpt>
      <trkpt lat="42.77405" lon="0.15773">
        <ele>2122</ele>
        <time>2021-01-29T15:05:09Z</time>
      </trkpt>
      <trkpt lat="42.7741" lon="0.15775">
        <ele>2121.2</ele>
        <time>2021-01-29T15:05:10Z</time>
      </trkpt>
      <trkpt lat="42.77414" lon="0.15778">
        <ele>2120.4</ele>
        <time>2021-01-29T15:05:11Z</time>
      </trkpt>
      <trkpt lat="42.77417" lon="0.15783">
        <ele>2119.6</ele>
        <time>2021-01-29T15:05:12Z</time>
      </trkpt>
      <trkpt lat="42.77419" lon="0.15788">
        <ele>2118.8</ele>
        <time>2021-01-29T15:05:13Z</time>
      </trkpt>
      <trkpt lat="42.77422" lon="0.15793">
        <ele>2117.8</ele>
        <time>2021-01-29T15:05:14Z</time>
      </trkpt>
      <trkpt lat="42.77424" lon="0.15799">
        <ele>2117</ele>
        <time>2021-01-29T15:05:15Z</time>
      </trkpt>
      <trkpt lat="42.77425" lon="0.15805">
        <ele>2116</ele>
        <time>2021-01-29T15:05:16Z</time>
      </trkpt>
      <trkpt lat="42.77427" lon="0.1581">
        <ele>2115</ele>
        <time>2021-01-29T15:05:17Z</time>
      </trkpt>
      <trkpt lat="42.77428" lon="0.15815">
        <ele>2114</ele>
        <time>2021-01-29T15:05:18Z</time>
      </trkpt>
      <trkpt lat="42.77428" lon="0.15821">
        <ele>2113.2</ele>
        <time>2021-01-29T15:05:19Z</time>
      </trkpt>
      <trkpt lat="42.77429" lon="0.15825">
        <ele>2112.4</ele>
        <time>2021-01-29T15:05:20Z</time>
      </trkpt>
      <trkpt lat="42.77431" lon="0.15829">
        <ele>2111.4</ele>
        <time>2021-01-29T15:05:21Z</time>
      </trkpt>
      <trkpt lat="42.77432" lon="0.15833">
        <ele>2110.6</ele>
        <time>2021-01-29T15:05:22Z</time>
      </trkpt>
      <trkpt lat="42.77432" lon="0.15836">
        <ele>2109.8</ele>
        <time>2021-01-29T15:05:23Z</time>
      </trkpt>
      <trkpt lat="42.77432" lon="0.15838">
        <ele>2109.2</ele>
        <time>2021-01-29T15:05:24Z</time>
      </trkpt>
      <trkpt lat="42.77431" lon="0.15838">
        <ele>2108.6</ele>
        <time>2021-01-29T15:05:25Z</time>
      </trkpt>
      <trkpt lat="42.7743" lon="0.1584">
        <ele>2108</ele>
        <time>2021-01-29T15:05:26Z</time>
      </trkpt>
      <trkpt lat="42.77428" lon="0.15843">
        <ele>2107.4</ele>
        <time>2021-01-29T15:05:27Z</time>
      </trkpt>
      <trkpt lat="42.77427" lon="0.15848">
        <ele>2106.6</ele>
        <time>2021-01-29T15:05:28Z</time>
      </trkpt>
      <trkpt lat="42.77425" lon="0.15854">
        <ele>2105.8</ele>
        <time>2021-01-29T15:05:29Z</time>
      </trkpt>
      <trkpt lat="42.77422" lon="0.1586">
        <ele>2105</ele>
        <time>2021-01-29T15:05:30Z</time>
      </trkpt>
      <trkpt lat="42.7742" lon="0.15865">
        <ele>2103.8</ele>
        <time>2021-01-29T15:05:31Z</time>
      </trkpt>
      <trkpt lat="42.7742" lon="0.15871">
        <ele>2102.6</ele>
        <time>2021-01-29T15:05:32Z</time>
      </trkpt>
      <trkpt lat="42.77421" lon="0.15877">
        <ele>2101.6</ele>
        <time>2021-01-29T15:05:33Z</time>
      </trkpt>
      <trkpt lat="42.77421" lon="0.15882">
        <ele>2100.6</ele>
        <time>2021-01-29T15:05:34Z</time>
      </trkpt>
      <trkpt lat="42.77421" lon="0.15887">
        <ele>2099.4</ele>
        <time>2021-01-29T15:05:35Z</time>
      </trkpt>
      <trkpt lat="42.77421" lon="0.15892">
        <ele>2098.2</ele>
        <time>2021-01-29T15:05:36Z</time>
      </trkpt>
      <trkpt lat="42.77421" lon="0.15897">
        <ele>2097.2</ele>
        <time>2021-01-29T15:05:37Z</time>
      </trkpt>
      <trkpt lat="42.7742" lon="0.15901">
        <ele>2096.2</ele>
        <time>2021-01-29T15:05:38Z</time>
      </trkpt>
      <trkpt lat="42.7742" lon="0.15904">
        <ele>2095.2</ele>
        <time>2021-01-29T15:05:39Z</time>
      </trkpt>
      <trkpt lat="42.7742" lon="0.15906">
        <ele>2094.2</ele>
        <time>2021-01-29T15:05:40Z</time>
      </trkpt>
      <trkpt lat="42.77422" lon="0.15907">
        <ele>2093.2</ele>
        <time>2021-01-29T15:05:41Z</time>
      </trkpt>
      <trkpt lat="42.77425" lon="0.15908">
        <ele>2092.4</ele>
        <time>2021-01-29T15:05:42Z</time>
      </trkpt>
      <trkpt lat="42.77428" lon="0.15911">
        <ele>2091.4</ele>
        <time>2021-01-29T15:05:43Z</time>
      </trkpt>
      <trkpt lat="42.7743" lon="0.15913">
        <ele>2090.4</ele>
        <time>2021-01-29T15:05:44Z</time>
      </trkpt>
      <trkpt lat="42.77433" lon="0.15915">
        <ele>2089</ele>
        <time>2021-01-29T15:05:45Z</time>
      </trkpt>
      <trkpt lat="42.77436" lon="0.15918">
        <ele>2088</ele>
        <time>2021-01-29T15:05:46Z</time>
      </trkpt>
      <trkpt lat="42.77438" lon="0.15923">
        <ele>2086.8</ele>
        <time>2021-01-29T15:05:47Z</time>
      </trkpt>
      <trkpt lat="42.77439" lon="0.15928">
        <ele>2085.8</ele>
        <time>2021-01-29T15:05:48Z</time>
      </trkpt>
      <trkpt lat="42.77438" lon="0.1593">
        <ele>2085</ele>
        <time>2021-01-29T15:05:49Z</time>
      </trkpt>
      <trkpt lat="42.77437" lon="0.15931">
        <ele>2084.4</ele>
        <time>2021-01-29T15:05:50Z</time>
      </trkpt>
      <trkpt lat="42.77437" lon="0.15932">
        <ele>2083.8</ele>
        <time>2021-01-29T15:05:51Z</time>
      </trkpt>
      <trkpt lat="42.77437" lon="0.15931">
        <ele>2083.4</ele>
        <time>2021-01-29T15:05:52Z</time>
      </trkpt>
      <trkpt lat="42.77437" lon="0.15931">
        <ele>2083.2</ele>
        <time>2021-01-29T15:05:53Z</time>
      </trkpt>
      <trkpt lat="42.77437" lon="0.15931">
        <ele>2082.8</ele>
        <time>2021-01-29T15:05:54Z</time>
      </trkpt>
      <trkpt lat="42.77437" lon="0.15931">
        <ele>2082.6</ele>
        <time>2021-01-29T15:05:55Z</time>
      </trkpt>
      <trkpt lat="42.77437" lon="0.15931">
        <ele>2082.6</ele>
        <time>2021-01-29T15:05:56Z</time>
      </trkpt>
      <trkpt lat="42.77437" lon="0.15931">
        <ele>2082.4</ele>
        <time>2021-01-29T15:05:57Z</time>
      </trkpt>
      <trkpt lat="42.77437" lon="0.15931">
        <ele>2082.4</ele>
        <time>2021-01-29T15:05:58Z</time>
      </trkpt>
      <trkpt lat="42.77437" lon="0.15931">
        <ele>2082.2</ele>
        <time>2021-01-29T15:05:59Z</time>
      </trkpt>
      <trkpt lat="42.77437" lon="0.15931">
        <ele>2082.2</ele>
        <time>2021-01-29T15:06:00Z</time>
      </trkpt>
      <trkpt lat="42.77437" lon="0.15931">
        <ele>2082</ele>
        <time>2021-01-29T15:06:01Z</time>
      </trkpt>
      <trkpt lat="42.77437" lon="0.15931">
        <ele>2082</ele>
        <time>2021-01-29T15:06:02Z</time>
      </trkpt>
      <trkpt lat="42.77437" lon="0.15931">
        <ele>2082</ele>
        <time>2021-01-29T15:06:03Z</time>
      </trkpt>
      <trkpt lat="42.77437" lon="0.15931">
        <ele>2082</ele>
        <time>2021-01-29T15:06:04Z</time>
      </trkpt>
      <trkpt lat="42.77437" lon="0.15931">
        <ele>2081.8</ele>
        <time>2021-01-29T15:06:05Z</time>
      </trkpt>
      <trkpt lat="42.77437" lon="0.15931">
        <ele>2081.8</ele>
        <time>2021-01-29T15:06:06Z</time>
      </trkpt>
      <trkpt lat="42.77437" lon="0.15931">
        <ele>2081.8</ele>
        <time>2021-01-29T15:06:07Z</time>
      </trkpt>
      <trkpt lat="42.77437" lon="0.15931">
        <ele>2081.8</ele>
        <time>2021-01-29T15:06:08Z</time>
      </trkpt>
      <trkpt lat="42.77437" lon="0.15931">
        <ele>2081.8</ele>
        <time>2021-01-29T15:06:09Z</time>
      </trkpt>
      <trkpt lat="42.77437" lon="0.15931">
        <ele>2081.8</ele>
        <time>2021-01-29T15:06:10Z</time>
      </trkpt>
      <trkpt lat="42.77437" lon="0.15931">
        <ele>2081.8</ele>
        <time>2021-01-29T15:06:11Z</time>
      </trkpt>
      <trkpt lat="42.77437" lon="0.15931">
        <ele>2081.8</ele>
        <time>2021-01-29T15:06:12Z</time>
      </trkpt>
      <trkpt lat="42.77437" lon="0.15931">
        <ele>2081.8</ele>
        <time>2021-01-29T15:06:13Z</time>
      </trkpt>
      <trkpt lat="42.77437" lon="0.15931">
        <ele>2081.8</ele>
        <time>2021-01-29T15:06:14Z</time>
      </trkpt>
      <trkpt lat="42.77437" lon="0.15931">
        <ele>2081.6</ele>
        <time>2021-01-29T15:06:15Z</time>
      </trkpt>
      <trkpt lat="42.77437" lon="0.15931">
        <ele>2081.6</ele>
        <time>2021-01-29T15:06:16Z</time>
      </trkpt>
      <trkpt lat="42.77437" lon="0.15931">
        <ele>2081.6</ele>
        <time>2021-01-29T15:06:17Z</time>
      </trkpt>
      <trkpt lat="42.77437" lon="0.15931">
        <ele>2081.6</ele>
        <time>2021-01-29T15:06:18Z</time>
      </trkpt>
      <trkpt lat="42.77437" lon="0.15931">
        <ele>2081.6</ele>
        <time>2021-01-29T15:06:19Z</time>
      </trkpt>
      <trkpt lat="42.77437" lon="0.15931">
        <ele>2081.6</ele>
        <time>2021-01-29T15:06:20Z</time>
      </trkpt>
      <trkpt lat="42.77437" lon="0.15931">
        <ele>2081.6</ele>
        <time>2021-01-29T15:06:21Z</time>
      </trkpt>
      <trkpt lat="42.77437" lon="0.15931">
        <ele>2081.6</ele>
        <time>2021-01-29T15:06:22Z</time>
      </trkpt>
      <trkpt lat="42.77437" lon="0.15931">
        <ele>2081.8</ele>
        <time>2021-01-29T15:06:23Z</time>
      </trkpt>
      <trkpt lat="42.77437" lon="0.15931">
        <ele>2081.6</ele>
        <time>2021-01-29T15:06:24Z</time>
      </trkpt>
      <trkpt lat="42.77437" lon="0.15931">
        <ele>2081.6</ele>
        <time>2021-01-29T15:06:25Z</time>
      </trkpt>
      <trkpt lat="42.77437" lon="0.15931">
        <ele>2081.6</ele>
        <time>2021-01-29T15:06:26Z</time>
      </trkpt>
      <trkpt lat="42.77437" lon="0.15931">
        <ele>2081.6</ele>
        <time>2021-01-29T15:06:27Z</time>
      </trkpt>
      <trkpt lat="42.77437" lon="0.15931">
        <ele>2081.6</ele>
        <time>2021-01-29T15:06:28Z</time>
      </trkpt>
      <trkpt lat="42.77437" lon="0.15931">
        <ele>2081.6</ele>
        <time>2021-01-29T15:06:29Z</time>
      </trkpt>
      <trkpt lat="42.77437" lon="0.15931">
        <ele>2081.6</ele>
        <time>2021-01-29T15:06:30Z</time>
      </trkpt>
      <trkpt lat="42.77437" lon="0.15931">
        <ele>2081.6</ele>
        <time>2021-01-29T15:06:31Z</time>
      </trkpt>
      <trkpt lat="42.77437" lon="0.15931">
        <ele>2081.6</ele>
        <time>2021-01-29T15:06:32Z</time>
      </trkpt>
      <trkpt lat="42.77437" lon="0.15931">
        <ele>2081.6</ele>
        <time>2021-01-29T15:06:33Z</time>
      </trkpt>
      <trkpt lat="42.77437" lon="0.15931">
        <ele>2081.6</ele>
        <time>2021-01-29T15:06:34Z</time>
      </trkpt>
      <trkpt lat="42.77437" lon="0.15931">
        <ele>2081.6</ele>
        <time>2021-01-29T15:06:35Z</time>
      </trkpt>
      <trkpt lat="42.77437" lon="0.15931">
        <ele>2081.6</ele>
        <time>2021-01-29T15:06:36Z</time>
      </trkpt>
      <trkpt lat="42.77437" lon="0.15931">
        <ele>2081.6</ele>
        <time>2021-01-29T15:06:37Z</time>
      </trkpt>
      <trkpt lat="42.77437" lon="0.15931">
        <ele>2081.6</ele>
        <time>2021-01-29T15:06:38Z</time>
      </trkpt>
      <trkpt lat="42.77437" lon="0.15931">
        <ele>2081.6</ele>
        <time>2021-01-29T15:06:39Z</time>
      </trkpt>
      <trkpt lat="42.77437" lon="0.15931">
        <ele>2081.6</ele>
        <time>2021-01-29T15:06:40Z</time>
      </trkpt>
      <trkpt lat="42.77437" lon="0.15931">
        <ele>2081.6</ele>
        <time>2021-01-29T15:06:41Z</time>
      </trkpt>
      <trkpt lat="42.77437" lon="0.15931">
        <ele>2081.6</ele>
        <time>2021-01-29T15:06:42Z</time>
      </trkpt>
      <trkpt lat="42.77437" lon="0.15931">
        <ele>2081.6</ele>
        <time>2021-01-29T15:06:43Z</time>
      </trkpt>
      <trkpt lat="42.77437" lon="0.15931">
        <ele>2081.6</ele>
        <time>2021-01-29T15:06:44Z</time>
      </trkpt>
      <trkpt lat="42.77437" lon="0.15931">
        <ele>2081.6</ele>
        <time>2021-01-29T15:06:45Z</time>
      </trkpt>
      <trkpt lat="42.77437" lon="0.15931">
        <ele>2081.6</ele>
        <time>2021-01-29T15:06:46Z</time>
      </trkpt>
      <trkpt lat="42.77437" lon="0.15931">
        <ele>2081.6</ele>
        <time>2021-01-29T15:06:47Z</time>
      </trkpt>
      <trkpt lat="42.77437" lon="0.15931">
        <ele>2081.6</ele>
        <time>2021-01-29T15:06:48Z</time>
      </trkpt>
      <trkpt lat="42.77437" lon="0.15931">
        <ele>2081.6</ele>
        <time>2021-01-29T15:06:49Z</time>
      </trkpt>
      <trkpt lat="42.77437" lon="0.15931">
        <ele>2081.6</ele>
        <time>2021-01-29T15:06:50Z</time>
      </trkpt>
      <trkpt lat="42.77437" lon="0.15931">
        <ele>2081.6</ele>
        <time>2021-01-29T15:06:51Z</time>
      </trkpt>
      <trkpt lat="42.77437" lon="0.15931">
        <ele>2081.6</ele>
        <time>2021-01-29T15:06:52Z</time>
      </trkpt>
      <trkpt lat="42.77437" lon="0.15931">
        <ele>2081.6</ele>
        <time>2021-01-29T15:06:53Z</time>
      </trkpt>
      <trkpt lat="42.77437" lon="0.15931">
        <ele>2081.6</ele>
        <time>2021-01-29T15:06:54Z</time>
      </trkpt>
      <trkpt lat="42.77437" lon="0.15931">
        <ele>2081.6</ele>
        <time>2021-01-29T15:06:55Z</time>
      </trkpt>
      <trkpt lat="42.77437" lon="0.15931">
        <ele>2081.6</ele>
        <time>2021-01-29T15:06:56Z</time>
      </trkpt>
      <trkpt lat="42.77437" lon="0.15931">
        <ele>2081.6</ele>
        <time>2021-01-29T15:06:57Z</time>
      </trkpt>
      <trkpt lat="42.77437" lon="0.15931">
        <ele>2081.6</ele>
        <time>2021-01-29T15:06:58Z</time>
      </trkpt>
      <trkpt lat="42.77437" lon="0.15931">
        <ele>2081.6</ele>
        <time>2021-01-29T15:06:59Z</time>
      </trkpt>
      <trkpt lat="42.77437" lon="0.15931">
        <ele>2081.6</ele>
        <time>2021-01-29T15:07:00Z</time>
      </trkpt>
      <trkpt lat="42.77437" lon="0.15931">
        <ele>2081.6</ele>
        <time>2021-01-29T15:07:01Z</time>
      </trkpt>
      <trkpt lat="42.77437" lon="0.15931">
        <ele>2081.6</ele>
        <time>2021-01-29T15:07:02Z</time>
      </trkpt>
      <trkpt lat="42.77437" lon="0.15931">
        <ele>2081.6</ele>
        <time>2021-01-29T15:07:03Z</time>
      </trkpt>
      <trkpt lat="42.77437" lon="0.15931">
        <ele>2081.6</ele>
        <time>2021-01-29T15:07:04Z</time>
      </trkpt>
      <trkpt lat="42.77437" lon="0.15931">
        <ele>2081.6</ele>
        <time>2021-01-29T15:07:05Z</time>
      </trkpt>
      <trkpt lat="42.77437" lon="0.15931">
        <ele>2081.6</ele>
        <time>2021-01-29T15:07:06Z</time>
      </trkpt>
      <trkpt lat="42.77437" lon="0.15931">
        <ele>2081.6</ele>
        <time>2021-01-29T15:07:07Z</time>
      </trkpt>
      <trkpt lat="42.77437" lon="0.15931">
        <ele>2081.6</ele>
        <time>2021-01-29T15:07:08Z</time>
      </trkpt>
      <trkpt lat="42.77437" lon="0.15931">
        <ele>2081.6</ele>
        <time>2021-01-29T15:07:09Z</time>
      </trkpt>
      <trkpt lat="42.77437" lon="0.15931">
        <ele>2081.6</ele>
        <time>2021-01-29T15:07:10Z</time>
      </trkpt>
      <trkpt lat="42.77437" lon="0.15931">
        <ele>2081.6</ele>
        <time>2021-01-29T15:07:11Z</time>
      </trkpt>
      <trkpt lat="42.77437" lon="0.15931">
        <ele>2081.6</ele>
        <time>2021-01-29T15:07:12Z</time>
      </trkpt>
      <trkpt lat="42.77437" lon="0.15931">
        <ele>2081.6</ele>
        <time>2021-01-29T15:07:13Z</time>
      </trkpt>
      <trkpt lat="42.77437" lon="0.15931">
        <ele>2081.6</ele>
        <time>2021-01-29T15:07:14Z</time>
      </trkpt>
      <trkpt lat="42.77437" lon="0.15931">
        <ele>2081.6</ele>
        <time>2021-01-29T15:07:15Z</time>
      </trkpt>
      <trkpt lat="42.77437" lon="0.15931">
        <ele>2081.6</ele>
        <time>2021-01-29T15:07:16Z</time>
      </trkpt>
      <trkpt lat="42.77437" lon="0.15931">
        <ele>2081.4</ele>
        <time>2021-01-29T15:07:17Z</time>
      </trkpt>
      <trkpt lat="42.77437" lon="0.15931">
        <ele>2081.4</ele>
        <time>2021-01-29T15:07:18Z</time>
      </trkpt>
      <trkpt lat="42.77438" lon="0.15933">
        <ele>2081.4</ele>
        <time>2021-01-29T15:07:19Z</time>
      </trkpt>
      <trkpt lat="42.7744" lon="0.15937">
        <ele>2081.2</ele>
        <time>2021-01-29T15:07:20Z</time>
      </trkpt>
      <trkpt lat="42.7744" lon="0.15941">
        <ele>2080.8</ele>
        <time>2021-01-29T15:07:21Z</time>
      </trkpt>
      <trkpt lat="42.77441" lon="0.15945">
        <ele>2080.4</ele>
        <time>2021-01-29T15:07:22Z</time>
      </trkpt>
      <trkpt lat="42.77443" lon="0.1595">
        <ele>2080</ele>
        <time>2021-01-29T15:07:23Z</time>
      </trkpt>
      <trkpt lat="42.77444" lon="0.15954">
        <ele>2079.6</ele>
        <time>2021-01-29T15:07:24Z</time>
      </trkpt>
      <trkpt lat="42.77446" lon="0.15958">
        <ele>2079</ele>
        <time>2021-01-29T15:07:25Z</time>
      </trkpt>
      <trkpt lat="42.77449" lon="0.1596">
        <ele>2078.4</ele>
        <time>2021-01-29T15:07:26Z</time>
      </trkpt>
      <trkpt lat="42.77453" lon="0.15958">
        <ele>2077.6</ele>
        <time>2021-01-29T15:07:27Z</time>
      </trkpt>
      <trkpt lat="42.77457" lon="0.15953">
        <ele>2076.6</ele>
        <time>2021-01-29T15:07:28Z</time>
      </trkpt>
      <trkpt lat="42.77461" lon="0.15949">
        <ele>2075.4</ele>
        <time>2021-01-29T15:07:29Z</time>
      </trkpt>
      <trkpt lat="42.77465" lon="0.15943">
        <ele>2074.4</ele>
        <time>2021-01-29T15:07:30Z</time>
      </trkpt>
      <trkpt lat="42.77468" lon="0.15937">
        <ele>2073.2</ele>
        <time>2021-01-29T15:07:31Z</time>
      </trkpt>
      <trkpt lat="42.77472" lon="0.15931">
        <ele>2072</ele>
        <time>2021-01-29T15:07:32Z</time>
      </trkpt>
      <trkpt lat="42.77477" lon="0.15929">
        <ele>2070.8</ele>
        <time>2021-01-29T15:07:33Z</time>
      </trkpt>
      <trkpt lat="42.77484" lon="0.15928">
        <ele>2069.4</ele>
        <time>2021-01-29T15:07:34Z</time>
      </trkpt>
      <trkpt lat="42.77492" lon="0.15927">
        <ele>2068</ele>
        <time>2021-01-29T15:07:35Z</time>
      </trkpt>
      <trkpt lat="42.775" lon="0.15927">
        <ele>2066.6</ele>
        <time>2021-01-29T15:07:36Z</time>
      </trkpt>
      <trkpt lat="42.77508" lon="0.15926">
        <ele>2065.4</ele>
        <time>2021-01-29T15:07:37Z</time>
      </trkpt>
      <trkpt lat="42.77517" lon="0.15925">
        <ele>2064.2</ele>
        <time>2021-01-29T15:07:38Z</time>
      </trkpt>
      <trkpt lat="42.77524" lon="0.15924">
        <ele>2063</ele>
        <time>2021-01-29T15:07:39Z</time>
      </trkpt>
      <trkpt lat="42.77531" lon="0.15921">
        <ele>2061.8</ele>
        <time>2021-01-29T15:07:40Z</time>
      </trkpt>
      <trkpt lat="42.77536" lon="0.1592">
        <ele>2061</ele>
        <time>2021-01-29T15:07:41Z</time>
      </trkpt>
      <trkpt lat="42.77541" lon="0.15918">
        <ele>2060</ele>
        <time>2021-01-29T15:07:42Z</time>
      </trkpt>
      <trkpt lat="42.77546" lon="0.15917">
        <ele>2059</ele>
        <time>2021-01-29T15:07:43Z</time>
      </trkpt>
      <trkpt lat="42.7755" lon="0.15915">
        <ele>2058.2</ele>
        <time>2021-01-29T15:07:44Z</time>
      </trkpt>
      <trkpt lat="42.77553" lon="0.15912">
        <ele>2057.2</ele>
        <time>2021-01-29T15:07:45Z</time>
      </trkpt>
      <trkpt lat="42.77556" lon="0.15909">
        <ele>2056.4</ele>
        <time>2021-01-29T15:07:46Z</time>
      </trkpt>
      <trkpt lat="42.77559" lon="0.15907">
        <ele>2055.6</ele>
        <time>2021-01-29T15:07:47Z</time>
      </trkpt>
      <trkpt lat="42.77562" lon="0.15906">
        <ele>2054.8</ele>
        <time>2021-01-29T15:07:48Z</time>
      </trkpt>
      <trkpt lat="42.77565" lon="0.15904">
        <ele>2054.2</ele>
        <time>2021-01-29T15:07:49Z</time>
      </trkpt>
      <trkpt lat="42.77568" lon="0.15901">
        <ele>2053.4</ele>
        <time>2021-01-29T15:07:50Z</time>
      </trkpt>
      <trkpt lat="42.7757" lon="0.15897">
        <ele>2052.8</ele>
        <time>2021-01-29T15:07:51Z</time>
      </trkpt>
      <trkpt lat="42.77571" lon="0.15892">
        <ele>2052.2</ele>
        <time>2021-01-29T15:07:52Z</time>
      </trkpt>
      <trkpt lat="42.7757" lon="0.15888">
        <ele>2051.6</ele>
        <time>2021-01-29T15:07:53Z</time>
      </trkpt>
      <trkpt lat="42.77571" lon="0.15884">
        <ele>2051</ele>
        <time>2021-01-29T15:07:54Z</time>
      </trkpt>
      <trkpt lat="42.77572" lon="0.1588">
        <ele>2050.4</ele>
        <time>2021-01-29T15:07:55Z</time>
      </trkpt>
      <trkpt lat="42.77573" lon="0.15875">
        <ele>2050</ele>
        <time>2021-01-29T15:07:56Z</time>
      </trkpt>
      <trkpt lat="42.77573" lon="0.1587">
        <ele>2049.4</ele>
        <time>2021-01-29T15:07:57Z</time>
      </trkpt>
      <trkpt lat="42.77574" lon="0.15866">
        <ele>2048.8</ele>
        <time>2021-01-29T15:07:58Z</time>
      </trkpt>
      <trkpt lat="42.77575" lon="0.15861">
        <ele>2048.2</ele>
        <time>2021-01-29T15:07:59Z</time>
      </trkpt>
      <trkpt lat="42.77575" lon="0.15856">
        <ele>2047.4</ele>
        <time>2021-01-29T15:08:00Z</time>
      </trkpt>
      <trkpt lat="42.77576" lon="0.15851">
        <ele>2046.8</ele>
        <time>2021-01-29T15:08:01Z</time>
      </trkpt>
      <trkpt lat="42.77578" lon="0.15846">
        <ele>2046</ele>
        <time>2021-01-29T15:08:02Z</time>
      </trkpt>
      <trkpt lat="42.77579" lon="0.1584">
        <ele>2045</ele>
        <time>2021-01-29T15:08:03Z</time>
      </trkpt>
      <trkpt lat="42.7758" lon="0.15834">
        <ele>2044</ele>
        <time>2021-01-29T15:08:04Z</time>
      </trkpt>
      <trkpt lat="42.77582" lon="0.1583">
        <ele>2043</ele>
        <time>2021-01-29T15:08:05Z</time>
      </trkpt>
      <trkpt lat="42.77584" lon="0.15825">
        <ele>2042</ele>
        <time>2021-01-29T15:08:06Z</time>
      </trkpt>
      <trkpt lat="42.77585" lon="0.1582">
        <ele>2040.8</ele>
        <time>2021-01-29T15:08:07Z</time>
      </trkpt>
      <trkpt lat="42.77587" lon="0.15815">
        <ele>2039.8</ele>
        <time>2021-01-29T15:08:08Z</time>
      </trkpt>
      <trkpt lat="42.77589" lon="0.1581">
        <ele>2038.8</ele>
        <time>2021-01-29T15:08:09Z</time>
      </trkpt>
      <trkpt lat="42.7759" lon="0.15804">
        <ele>2037.6</ele>
        <time>2021-01-29T15:08:10Z</time>
      </trkpt>
      <trkpt lat="42.77593" lon="0.158">
        <ele>2036.6</ele>
        <time>2021-01-29T15:08:11Z</time>
      </trkpt>
      <trkpt lat="42.77595" lon="0.15794">
        <ele>2035.4</ele>
        <time>2021-01-29T15:08:12Z</time>
      </trkpt>
      <trkpt lat="42.77597" lon="0.15789">
        <ele>2034.2</ele>
        <time>2021-01-29T15:08:13Z</time>
      </trkpt>
      <trkpt lat="42.77599" lon="0.15783">
        <ele>2033</ele>
        <time>2021-01-29T15:08:14Z</time>
      </trkpt>
      <trkpt lat="42.77601" lon="0.15778">
        <ele>2031.6</ele>
        <time>2021-01-29T15:08:15Z</time>
      </trkpt>
      <trkpt lat="42.77604" lon="0.15774">
        <ele>2030.4</ele>
        <time>2021-01-29T15:08:16Z</time>
      </trkpt>
      <trkpt lat="42.77605" lon="0.15769">
        <ele>2029.2</ele>
        <time>2021-01-29T15:08:17Z</time>
      </trkpt>
      <trkpt lat="42.77607" lon="0.15764">
        <ele>2028</ele>
        <time>2021-01-29T15:08:18Z</time>
      </trkpt>
      <trkpt lat="42.7761" lon="0.15758">
        <ele>2026.8</ele>
        <time>2021-01-29T15:08:19Z</time>
      </trkpt>
      <trkpt lat="42.77612" lon="0.15752">
        <ele>2025.4</ele>
        <time>2021-01-29T15:08:20Z</time>
      </trkpt>
      <trkpt lat="42.77614" lon="0.15746">
        <ele>2024.2</ele>
        <time>2021-01-29T15:08:21Z</time>
      </trkpt>
      <trkpt lat="42.77616" lon="0.15742">
        <ele>2023</ele>
        <time>2021-01-29T15:08:22Z</time>
      </trkpt>
      <trkpt lat="42.77619" lon="0.15737">
        <ele>2021.8</ele>
        <time>2021-01-29T15:08:23Z</time>
      </trkpt>
      <trkpt lat="42.7762" lon="0.15732">
        <ele>2020.4</ele>
        <time>2021-01-29T15:08:24Z</time>
      </trkpt>
      <trkpt lat="42.77622" lon="0.15727">
        <ele>2019.2</ele>
        <time>2021-01-29T15:08:25Z</time>
      </trkpt>
      <trkpt lat="42.77625" lon="0.15723">
        <ele>2018</ele>
        <time>2021-01-29T15:08:26Z</time>
      </trkpt>
      <trkpt lat="42.77628" lon="0.15719">
        <ele>2016.8</ele>
        <time>2021-01-29T15:08:27Z</time>
      </trkpt>
      <trkpt lat="42.7763" lon="0.15714">
        <ele>2015.4</ele>
        <time>2021-01-29T15:08:28Z</time>
      </trkpt>
      <trkpt lat="42.77632" lon="0.1571">
        <ele>2014.2</ele>
        <time>2021-01-29T15:08:29Z</time>
      </trkpt>
      <trkpt lat="42.77635" lon="0.15706">
        <ele>2013</ele>
        <time>2021-01-29T15:08:30Z</time>
      </trkpt>
      <trkpt lat="42.77637" lon="0.15701">
        <ele>2011.8</ele>
        <time>2021-01-29T15:08:31Z</time>
      </trkpt>
      <trkpt lat="42.7764" lon="0.15695">
        <ele>2010.8</ele>
        <time>2021-01-29T15:08:32Z</time>
      </trkpt>
      <trkpt lat="42.77643" lon="0.15688">
        <ele>2009.6</ele>
        <time>2021-01-29T15:08:33Z</time>
      </trkpt>
      <trkpt lat="42.77645" lon="0.15682">
        <ele>2008.2</ele>
        <time>2021-01-29T15:08:34Z</time>
      </trkpt>
      <trkpt lat="42.77647" lon="0.15676">
        <ele>2007</ele>
        <time>2021-01-29T15:08:35Z</time>
      </trkpt>
      <trkpt lat="42.7765" lon="0.1567">
        <ele>2005.8</ele>
        <time>2021-01-29T15:08:36Z</time>
      </trkpt>
      <trkpt lat="42.77652" lon="0.15664">
        <ele>2004.6</ele>
        <time>2021-01-29T15:08:37Z</time>
      </trkpt>
      <trkpt lat="42.77653" lon="0.1566">
        <ele>2003.6</ele>
        <time>2021-01-29T15:08:38Z</time>
      </trkpt>
      <trkpt lat="42.77653" lon="0.15656">
        <ele>2002.8</ele>
        <time>2021-01-29T15:08:39Z</time>
      </trkpt>
      <trkpt lat="42.77656" lon="0.15652">
        <ele>2002</ele>
        <time>2021-01-29T15:08:40Z</time>
      </trkpt>
      <trkpt lat="42.77658" lon="0.15648">
        <ele>2001</ele>
        <time>2021-01-29T15:08:41Z</time>
      </trkpt>
      <trkpt lat="42.77661" lon="0.15643">
        <ele>2000</ele>
        <time>2021-01-29T15:08:42Z</time>
      </trkpt>
      <trkpt lat="42.77663" lon="0.15637">
        <ele>1999</ele>
        <time>2021-01-29T15:08:43Z</time>
      </trkpt>
      <trkpt lat="42.77665" lon="0.15631">
        <ele>1998</ele>
        <time>2021-01-29T15:08:44Z</time>
      </trkpt>
      <trkpt lat="42.77666" lon="0.15626">
        <ele>1997.2</ele>
        <time>2021-01-29T15:08:45Z</time>
      </trkpt>
      <trkpt lat="42.77669" lon="0.15622">
        <ele>1996.2</ele>
        <time>2021-01-29T15:08:46Z</time>
      </trkpt>
      <trkpt lat="42.77673" lon="0.15618">
        <ele>1995.2</ele>
        <time>2021-01-29T15:08:47Z</time>
      </trkpt>
      <trkpt lat="42.77677" lon="0.15614">
        <ele>1994</ele>
        <time>2021-01-29T15:08:48Z</time>
      </trkpt>
      <trkpt lat="42.77681" lon="0.15608">
        <ele>1992.8</ele>
        <time>2021-01-29T15:08:49Z</time>
      </trkpt>
      <trkpt lat="42.77686" lon="0.15601">
        <ele>1991.6</ele>
        <time>2021-01-29T15:08:50Z</time>
      </trkpt>
      <trkpt lat="42.77691" lon="0.15594">
        <ele>1990.4</ele>
        <time>2021-01-29T15:08:51Z</time>
      </trkpt>
      <trkpt lat="42.77698" lon="0.15589">
        <ele>1989.4</ele>
        <time>2021-01-29T15:08:52Z</time>
      </trkpt>
      <trkpt lat="42.77705" lon="0.15586">
        <ele>1988</ele>
        <time>2021-01-29T15:08:53Z</time>
      </trkpt>
      <trkpt lat="42.77712" lon="0.15584">
        <ele>1986.6</ele>
        <time>2021-01-29T15:08:54Z</time>
      </trkpt>
      <trkpt lat="42.77718" lon="0.15583">
        <ele>1985.4</ele>
        <time>2021-01-29T15:08:55Z</time>
      </trkpt>
      <trkpt lat="42.77724" lon="0.15583">
        <ele>1984.4</ele>
        <time>2021-01-29T15:08:56Z</time>
      </trkpt>
      <trkpt lat="42.77728" lon="0.15583">
        <ele>1983.4</ele>
        <time>2021-01-29T15:08:57Z</time>
      </trkpt>
      <trkpt lat="42.77731" lon="0.15584">
        <ele>1982.6</ele>
        <time>2021-01-29T15:08:58Z</time>
      </trkpt>
      <trkpt lat="42.77734" lon="0.15585">
        <ele>1982</ele>
        <time>2021-01-29T15:08:59Z</time>
      </trkpt>
      <trkpt lat="42.77737" lon="0.15586">
        <ele>1981.4</ele>
        <time>2021-01-29T15:09:00Z</time>
      </trkpt>
      <trkpt lat="42.77739" lon="0.15588">
        <ele>1980.8</ele>
        <time>2021-01-29T15:09:01Z</time>
      </trkpt>
      <trkpt lat="42.77742" lon="0.15589">
        <ele>1980.4</ele>
        <time>2021-01-29T15:09:02Z</time>
      </trkpt>
      <trkpt lat="42.77744" lon="0.15591">
        <ele>1980</ele>
        <time>2021-01-29T15:09:03Z</time>
      </trkpt>
      <trkpt lat="42.77747" lon="0.15591">
        <ele>1979.8</ele>
        <time>2021-01-29T15:09:04Z</time>
      </trkpt>
      <trkpt lat="42.77749" lon="0.15592">
        <ele>1979.6</ele>
        <time>2021-01-29T15:09:05Z</time>
      </trkpt>
      <trkpt lat="42.77751" lon="0.15593">
        <ele>1979.2</ele>
        <time>2021-01-29T15:09:06Z</time>
      </trkpt>
      <trkpt lat="42.77753" lon="0.15593">
        <ele>1979.2</ele>
        <time>2021-01-29T15:09:07Z</time>
      </trkpt>
      <trkpt lat="42.77755" lon="0.15594">
        <ele>1979</ele>
        <time>2021-01-29T15:09:08Z</time>
      </trkpt>
      <trkpt lat="42.77757" lon="0.15595">
        <ele>1978.8</ele>
        <time>2021-01-29T15:09:09Z</time>
      </trkpt>
      <trkpt lat="42.77759" lon="0.15596">
        <ele>1978.8</ele>
        <time>2021-01-29T15:09:10Z</time>
      </trkpt>
      <trkpt lat="42.77761" lon="0.15597">
        <ele>1978.6</ele>
        <time>2021-01-29T15:09:11Z</time>
      </trkpt>
      <trkpt lat="42.77764" lon="0.15597">
        <ele>1978.4</ele>
        <time>2021-01-29T15:09:12Z</time>
      </trkpt>
      <trkpt lat="42.77766" lon="0.15598">
        <ele>1978.4</ele>
        <time>2021-01-29T15:09:13Z</time>
      </trkpt>
      <trkpt lat="42.77768" lon="0.156">
        <ele>1978.2</ele>
        <time>2021-01-29T15:09:14Z</time>
      </trkpt>
      <trkpt lat="42.77771" lon="0.15601">
        <ele>1978</ele>
        <time>2021-01-29T15:09:15Z</time>
      </trkpt>
      <trkpt lat="42.77773" lon="0.15603">
        <ele>1977.8</ele>
        <time>2021-01-29T15:09:16Z</time>
      </trkpt>
      <trkpt lat="42.77776" lon="0.15605">
        <ele>1977.6</ele>
        <time>2021-01-29T15:09:17Z</time>
      </trkpt>
      <trkpt lat="42.77779" lon="0.15607">
        <ele>1977.6</ele>
        <time>2021-01-29T15:09:18Z</time>
      </trkpt>
      <trkpt lat="42.77782" lon="0.15609">
        <ele>1977.4</ele>
        <time>2021-01-29T15:09:19Z</time>
      </trkpt>
      <trkpt lat="42.77785" lon="0.15611">
        <ele>1977</ele>
        <time>2021-01-29T15:09:20Z</time>
      </trkpt>
      <trkpt lat="42.77788" lon="0.15613">
        <ele>1976.8</ele>
        <time>2021-01-29T15:09:21Z</time>
      </trkpt>
      <trkpt lat="42.7779" lon="0.15615">
        <ele>1976.8</ele>
        <time>2021-01-29T15:09:22Z</time>
      </trkpt>
      <trkpt lat="42.77793" lon="0.15616">
        <ele>1976.4</ele>
        <time>2021-01-29T15:09:23Z</time>
      </trkpt>
      <trkpt lat="42.77795" lon="0.15618">
        <ele>1976.2</ele>
        <time>2021-01-29T15:09:24Z</time>
      </trkpt>
      <trkpt lat="42.77798" lon="0.15618">
        <ele>1976</ele>
        <time>2021-01-29T15:09:25Z</time>
      </trkpt>
      <trkpt lat="42.778" lon="0.15618">
        <ele>1975.8</ele>
        <time>2021-01-29T15:09:26Z</time>
      </trkpt>
      <trkpt lat="42.77801" lon="0.15617">
        <ele>1975.6</ele>
        <time>2021-01-29T15:09:27Z</time>
      </trkpt>
      <trkpt lat="42.77802" lon="0.15617">
        <ele>1975.4</ele>
        <time>2021-01-29T15:09:28Z</time>
      </trkpt>
      <trkpt lat="42.77803" lon="0.15617">
        <ele>1975.4</ele>
        <time>2021-01-29T15:09:29Z</time>
      </trkpt>
      <trkpt lat="42.77803" lon="0.15617">
        <ele>1975.2</ele>
        <time>2021-01-29T15:09:30Z</time>
      </trkpt>
      <trkpt lat="42.77803" lon="0.15617">
        <ele>1975.2</ele>
        <time>2021-01-29T15:09:31Z</time>
      </trkpt>
      <trkpt lat="42.77803" lon="0.15617">
        <ele>1975.2</ele>
        <time>2021-01-29T15:09:32Z</time>
      </trkpt>
      <trkpt lat="42.77803" lon="0.15617">
        <ele>1975.2</ele>
        <time>2021-01-29T15:09:33Z</time>
      </trkpt>
      <trkpt lat="42.77803" lon="0.15617">
        <ele>1975.2</ele>
        <time>2021-01-29T15:09:34Z</time>
      </trkpt>
      <trkpt lat="42.77803" lon="0.15617">
        <ele>1975</ele>
        <time>2021-01-29T15:09:35Z</time>
      </trkpt>
      <trkpt lat="42.77803" lon="0.15617">
        <ele>1975</ele>
        <time>2021-01-29T15:09:36Z</time>
      </trkpt>
      <trkpt lat="42.77803" lon="0.15617">
        <ele>1975</ele>
        <time>2021-01-29T15:09:37Z</time>
      </trkpt>
      <trkpt lat="42.77803" lon="0.15617">
        <ele>1975</ele>
        <time>2021-01-29T15:09:38Z</time>
      </trkpt>
      <trkpt lat="42.77803" lon="0.15617">
        <ele>1975</ele>
        <time>2021-01-29T15:09:39Z</time>
      </trkpt>
      <trkpt lat="42.77803" lon="0.15617">
        <ele>1975</ele>
        <time>2021-01-29T15:09:40Z</time>
      </trkpt>
      <trkpt lat="42.77803" lon="0.15617">
        <ele>1975</ele>
        <time>2021-01-29T15:09:41Z</time>
      </trkpt>
      <trkpt lat="42.77803" lon="0.15617">
        <ele>1975</ele>
        <time>2021-01-29T15:09:42Z</time>
      </trkpt>
      <trkpt lat="42.77803" lon="0.15617">
        <ele>1975</ele>
        <time>2021-01-29T15:09:43Z</time>
      </trkpt>
      <trkpt lat="42.77803" lon="0.15617">
        <ele>1975</ele>
        <time>2021-01-29T15:09:44Z</time>
      </trkpt>
      <trkpt lat="42.77803" lon="0.15617">
        <ele>1975</ele>
        <time>2021-01-29T15:09:45Z</time>
      </trkpt>
      <trkpt lat="42.77803" lon="0.15617">
        <ele>1975</ele>
        <time>2021-01-29T15:09:46Z</time>
      </trkpt>
      <trkpt lat="42.77803" lon="0.15617">
        <ele>1975</ele>
        <time>2021-01-29T15:09:47Z</time>
      </trkpt>
      <trkpt lat="42.77803" lon="0.15617">
        <ele>1975</ele>
        <time>2021-01-29T15:09:48Z</time>
      </trkpt>
      <trkpt lat="42.77803" lon="0.15617">
        <ele>1975</ele>
        <time>2021-01-29T15:09:49Z</time>
      </trkpt>
      <trkpt lat="42.77803" lon="0.15617">
        <ele>1975</ele>
        <time>2021-01-29T15:09:50Z</time>
      </trkpt>
      <trkpt lat="42.77803" lon="0.15617">
        <ele>1975</ele>
        <time>2021-01-29T15:09:51Z</time>
      </trkpt>
      <trkpt lat="42.77803" lon="0.15619">
        <ele>1974.8</ele>
        <time>2021-01-29T15:09:52Z</time>
      </trkpt>
      <trkpt lat="42.77803" lon="0.15624">
        <ele>1974.6</ele>
        <time>2021-01-29T15:09:53Z</time>
      </trkpt>
      <trkpt lat="42.77802" lon="0.15629">
        <ele>1974.4</ele>
        <time>2021-01-29T15:09:54Z</time>
      </trkpt>
      <trkpt lat="42.77803" lon="0.15633">
        <ele>1974</ele>
        <time>2021-01-29T15:09:55Z</time>
      </trkpt>
      <trkpt lat="42.77806" lon="0.15634">
        <ele>1973.6</ele>
        <time>2021-01-29T15:09:56Z</time>
      </trkpt>
      <trkpt lat="42.77809" lon="0.15635">
        <ele>1973.2</ele>
        <time>2021-01-29T15:09:57Z</time>
      </trkpt>
      <trkpt lat="42.77813" lon="0.15635">
        <ele>1972.8</ele>
        <time>2021-01-29T15:09:58Z</time>
      </trkpt>
      <trkpt lat="42.77817" lon="0.15634">
        <ele>1972.2</ele>
        <time>2021-01-29T15:09:59Z</time>
      </trkpt>
      <trkpt lat="42.77821" lon="0.15634">
        <ele>1971.4</ele>
        <time>2021-01-29T15:10:00Z</time>
      </trkpt>
      <trkpt lat="42.77825" lon="0.15635">
        <ele>1970.6</ele>
        <time>2021-01-29T15:10:01Z</time>
      </trkpt>
      <trkpt lat="42.77829" lon="0.15637">
        <ele>1969.8</ele>
        <time>2021-01-29T15:10:02Z</time>
      </trkpt>
      <trkpt lat="42.77832" lon="0.1564">
        <ele>1968.8</ele>
        <time>2021-01-29T15:10:03Z</time>
      </trkpt>
      <trkpt lat="42.77833" lon="0.15646">
        <ele>1968</ele>
        <time>2021-01-29T15:10:04Z</time>
      </trkpt>
      <trkpt lat="42.77832" lon="0.15653">
        <ele>1967.2</ele>
        <time>2021-01-29T15:10:05Z</time>
      </trkpt>
      <trkpt lat="42.77833" lon="0.15659">
        <ele>1966.4</ele>
        <time>2021-01-29T15:10:06Z</time>
      </trkpt>
      <trkpt lat="42.77834" lon="0.15665">
        <ele>1965.6</ele>
        <time>2021-01-29T15:10:07Z</time>
      </trkpt>
      <trkpt lat="42.77836" lon="0.15671">
        <ele>1964.8</ele>
        <time>2021-01-29T15:10:08Z</time>
      </trkpt>
      <trkpt lat="42.77838" lon="0.15675">
        <ele>1964.4</ele>
        <time>2021-01-29T15:10:09Z</time>
      </trkpt>
      <trkpt lat="42.77841" lon="0.15676">
        <ele>1963.8</ele>
        <time>2021-01-29T15:10:10Z</time>
      </trkpt>
      <trkpt lat="42.77845" lon="0.15677">
        <ele>1963</ele>
        <time>2021-01-29T15:10:11Z</time>
      </trkpt>
      <trkpt lat="42.77848" lon="0.15681">
        <ele>1962</ele>
        <time>2021-01-29T15:10:12Z</time>
      </trkpt>
      <trkpt lat="42.7785" lon="0.15686">
        <ele>1961.2</ele>
        <time>2021-01-29T15:10:13Z</time>
      </trkpt>
      <trkpt lat="42.77853" lon="0.1569">
        <ele>1960.2</ele>
        <time>2021-01-29T15:10:14Z</time>
      </trkpt>
      <trkpt lat="42.77857" lon="0.15692">
        <ele>1959.2</ele>
        <time>2021-01-29T15:10:15Z</time>
      </trkpt>
      <trkpt lat="42.77861" lon="0.15693">
        <ele>1958.2</ele>
        <time>2021-01-29T15:10:16Z</time>
      </trkpt>
      <trkpt lat="42.77864" lon="0.15698">
        <ele>1957.2</ele>
        <time>2021-01-29T15:10:17Z</time>
      </trkpt>
      <trkpt lat="42.77865" lon="0.15703">
        <ele>1956</ele>
        <time>2021-01-29T15:10:18Z</time>
      </trkpt>
      <trkpt lat="42.77866" lon="0.15707">
        <ele>1955.2</ele>
        <time>2021-01-29T15:10:19Z</time>
      </trkpt>
      <trkpt lat="42.7787" lon="0.15709">
        <ele>1954</ele>
        <time>2021-01-29T15:10:20Z</time>
      </trkpt>
      <trkpt lat="42.77874" lon="0.15706">
        <ele>1952.8</ele>
        <time>2021-01-29T15:10:21Z</time>
      </trkpt>
      <trkpt lat="42.77878" lon="0.15703">
        <ele>1951.8</ele>
        <time>2021-01-29T15:10:22Z</time>
      </trkpt>
      <trkpt lat="42.77882" lon="0.157">
        <ele>1950.8</ele>
        <time>2021-01-29T15:10:23Z</time>
      </trkpt>
      <trkpt lat="42.77886" lon="0.15697">
        <ele>1949.8</ele>
        <time>2021-01-29T15:10:24Z</time>
      </trkpt>
      <trkpt lat="42.7789" lon="0.15696">
        <ele>1948.8</ele>
        <time>2021-01-29T15:10:25Z</time>
      </trkpt>
      <trkpt lat="42.77894" lon="0.15696">
        <ele>1948.2</ele>
        <time>2021-01-29T15:10:26Z</time>
      </trkpt>
      <trkpt lat="42.77895" lon="0.157">
        <ele>1947.2</ele>
        <time>2021-01-29T15:10:27Z</time>
      </trkpt>
      <trkpt lat="42.77895" lon="0.15705">
        <ele>1946.2</ele>
        <time>2021-01-29T15:10:28Z</time>
      </trkpt>
      <trkpt lat="42.77894" lon="0.15712">
        <ele>1945.4</ele>
        <time>2021-01-29T15:10:29Z</time>
      </trkpt>
      <trkpt lat="42.77893" lon="0.15719">
        <ele>1944.4</ele>
        <time>2021-01-29T15:10:30Z</time>
      </trkpt>
      <trkpt lat="42.77893" lon="0.15725">
        <ele>1943.6</ele>
        <time>2021-01-29T15:10:31Z</time>
      </trkpt>
      <trkpt lat="42.77893" lon="0.1573">
        <ele>1942.8</ele>
        <time>2021-01-29T15:10:32Z</time>
      </trkpt>
      <trkpt lat="42.77893" lon="0.15734">
        <ele>1942.2</ele>
        <time>2021-01-29T15:10:33Z</time>
      </trkpt>
      <trkpt lat="42.77894" lon="0.15737">
        <ele>1941.8</ele>
        <time>2021-01-29T15:10:34Z</time>
      </trkpt>
      <trkpt lat="42.77896" lon="0.15737">
        <ele>1941</ele>
        <time>2021-01-29T15:10:35Z</time>
      </trkpt>
      <trkpt lat="42.77899" lon="0.15736">
        <ele>1940.2</ele>
        <time>2021-01-29T15:10:36Z</time>
      </trkpt>
      <trkpt lat="42.77902" lon="0.15738">
        <ele>1939.4</ele>
        <time>2021-01-29T15:10:37Z</time>
      </trkpt>
      <trkpt lat="42.77904" lon="0.15743">
        <ele>1938.4</ele>
        <time>2021-01-29T15:10:38Z</time>
      </trkpt>
      <trkpt lat="42.77905" lon="0.15746">
        <ele>1937.6</ele>
        <time>2021-01-29T15:10:39Z</time>
      </trkpt>
      <trkpt lat="42.77908" lon="0.15747">
        <ele>1936.8</ele>
        <time>2021-01-29T15:10:40Z</time>
      </trkpt>
      <trkpt lat="42.77912" lon="0.15746">
        <ele>1935.6</ele>
        <time>2021-01-29T15:10:41Z</time>
      </trkpt>
      <trkpt lat="42.77915" lon="0.15747">
        <ele>1934.4</ele>
        <time>2021-01-29T15:10:42Z</time>
      </trkpt>
      <trkpt lat="42.77917" lon="0.15751">
        <ele>1933.4</ele>
        <time>2021-01-29T15:10:43Z</time>
      </trkpt>
      <trkpt lat="42.77918" lon="0.15756">
        <ele>1932.4</ele>
        <time>2021-01-29T15:10:44Z</time>
      </trkpt>
      <trkpt lat="42.77918" lon="0.1576">
        <ele>1931.6</ele>
        <time>2021-01-29T15:10:45Z</time>
      </trkpt>
      <trkpt lat="42.77918" lon="0.15763">
        <ele>1930.8</ele>
        <time>2021-01-29T15:10:46Z</time>
      </trkpt>
      <trkpt lat="42.77918" lon="0.15764">
        <ele>1930.4</ele>
        <time>2021-01-29T15:10:47Z</time>
      </trkpt>
      <trkpt lat="42.77918" lon="0.15765">
        <ele>1929.8</ele>
        <time>2021-01-29T15:10:48Z</time>
      </trkpt>
      <trkpt lat="42.77918" lon="0.15766">
        <ele>1929.6</ele>
        <time>2021-01-29T15:10:49Z</time>
      </trkpt>
      <trkpt lat="42.77919" lon="0.15767">
        <ele>1929.2</ele>
        <time>2021-01-29T15:10:50Z</time>
      </trkpt>
      <trkpt lat="42.77921" lon="0.15769">
        <ele>1928.8</ele>
        <time>2021-01-29T15:10:51Z</time>
      </trkpt>
      <trkpt lat="42.77923" lon="0.1577">
        <ele>1928.4</ele>
        <time>2021-01-29T15:10:52Z</time>
      </trkpt>
      <trkpt lat="42.77926" lon="0.15772">
        <ele>1927.8</ele>
        <time>2021-01-29T15:10:53Z</time>
      </trkpt>
      <trkpt lat="42.77929" lon="0.15774">
        <ele>1927</ele>
        <time>2021-01-29T15:10:54Z</time>
      </trkpt>
      <trkpt lat="42.77932" lon="0.15778">
        <ele>1926</ele>
        <time>2021-01-29T15:10:55Z</time>
      </trkpt>
      <trkpt lat="42.77934" lon="0.15783">
        <ele>1925.2</ele>
        <time>2021-01-29T15:10:56Z</time>
      </trkpt>
      <trkpt lat="42.77935" lon="0.15788">
        <ele>1924.4</ele>
        <time>2021-01-29T15:10:57Z</time>
      </trkpt>
      <trkpt lat="42.77936" lon="0.15793">
        <ele>1923.8</ele>
        <time>2021-01-29T15:10:58Z</time>
      </trkpt>
      <trkpt lat="42.77937" lon="0.15797">
        <ele>1923</ele>
        <time>2021-01-29T15:10:59Z</time>
      </trkpt>
      <trkpt lat="42.77939" lon="0.15801">
        <ele>1922.2</ele>
        <time>2021-01-29T15:11:00Z</time>
      </trkpt>
      <trkpt lat="42.77942" lon="0.15805">
        <ele>1921.6</ele>
        <time>2021-01-29T15:11:01Z</time>
      </trkpt>
      <trkpt lat="42.77945" lon="0.1581">
        <ele>1920.6</ele>
        <time>2021-01-29T15:11:02Z</time>
      </trkpt>
      <trkpt lat="42.77948" lon="0.15814">
        <ele>1919.6</ele>
        <time>2021-01-29T15:11:03Z</time>
      </trkpt>
      <trkpt lat="42.77952" lon="0.15819">
        <ele>1918.6</ele>
        <time>2021-01-29T15:11:04Z</time>
      </trkpt>
      <trkpt lat="42.77956" lon="0.15824">
        <ele>1917.6</ele>
        <time>2021-01-29T15:11:05Z</time>
      </trkpt>
      <trkpt lat="42.77961" lon="0.15828">
        <ele>1916.6</ele>
        <time>2021-01-29T15:11:06Z</time>
      </trkpt>
      <trkpt lat="42.77966" lon="0.15832">
        <ele>1915.4</ele>
        <time>2021-01-29T15:11:07Z</time>
      </trkpt>
      <trkpt lat="42.77971" lon="0.15836">
        <ele>1914.4</ele>
        <time>2021-01-29T15:11:08Z</time>
      </trkpt>
      <trkpt lat="42.77976" lon="0.1584">
        <ele>1913.2</ele>
        <time>2021-01-29T15:11:09Z</time>
      </trkpt>
      <trkpt lat="42.77981" lon="0.15842">
        <ele>1912</ele>
        <time>2021-01-29T15:11:10Z</time>
      </trkpt>
      <trkpt lat="42.77986" lon="0.15844">
        <ele>1911</ele>
        <time>2021-01-29T15:11:11Z</time>
      </trkpt>
      <trkpt lat="42.77991" lon="0.15845">
        <ele>1910</ele>
        <time>2021-01-29T15:11:12Z</time>
      </trkpt>
      <trkpt lat="42.77995" lon="0.15846">
        <ele>1909</ele>
        <time>2021-01-29T15:11:13Z</time>
      </trkpt>
      <trkpt lat="42.77999" lon="0.15847">
        <ele>1908.2</ele>
        <time>2021-01-29T15:11:14Z</time>
      </trkpt>
      <trkpt lat="42.78004" lon="0.15848">
        <ele>1907.4</ele>
        <time>2021-01-29T15:11:15Z</time>
      </trkpt>
      <trkpt lat="42.78008" lon="0.15849">
        <ele>1906.6</ele>
        <time>2021-01-29T15:11:16Z</time>
      </trkpt>
      <trkpt lat="42.78013" lon="0.1585">
        <ele>1905.8</ele>
        <time>2021-01-29T15:11:17Z</time>
      </trkpt>
      <trkpt lat="42.78017" lon="0.15851">
        <ele>1905</ele>
        <time>2021-01-29T15:11:18Z</time>
      </trkpt>
      <trkpt lat="42.78021" lon="0.15852">
        <ele>1904.2</ele>
        <time>2021-01-29T15:11:19Z</time>
      </trkpt>
      <trkpt lat="42.78024" lon="0.15853">
        <ele>1903.6</ele>
        <time>2021-01-29T15:11:20Z</time>
      </trkpt>
      <trkpt lat="42.78027" lon="0.15853">
        <ele>1903</ele>
        <time>2021-01-29T15:11:21Z</time>
      </trkpt>
      <trkpt lat="42.7803" lon="0.15854">
        <ele>1902.6</ele>
        <time>2021-01-29T15:11:22Z</time>
      </trkpt>
      <trkpt lat="42.78032" lon="0.15854">
        <ele>1902.2</ele>
        <time>2021-01-29T15:11:23Z</time>
      </trkpt>
      <trkpt lat="42.78035" lon="0.15855">
        <ele>1901.6</ele>
        <time>2021-01-29T15:11:24Z</time>
      </trkpt>
      <trkpt lat="42.78038" lon="0.15855">
        <ele>1901.2</ele>
        <time>2021-01-29T15:11:25Z</time>
      </trkpt>
      <trkpt lat="42.7804" lon="0.15856">
        <ele>1901</ele>
        <time>2021-01-29T15:11:26Z</time>
      </trkpt>
      <trkpt lat="42.78043" lon="0.15857">
        <ele>1900.6</ele>
        <time>2021-01-29T15:11:27Z</time>
      </trkpt>
      <trkpt lat="42.78045" lon="0.15858">
        <ele>1900.4</ele>
        <time>2021-01-29T15:11:28Z</time>
      </trkpt>
      <trkpt lat="42.78047" lon="0.15859">
        <ele>1900</ele>
        <time>2021-01-29T15:11:29Z</time>
      </trkpt>
      <trkpt lat="42.78049" lon="0.1586">
        <ele>1899.8</ele>
        <time>2021-01-29T15:11:30Z</time>
      </trkpt>
      <trkpt lat="42.78051" lon="0.15861">
        <ele>1899.6</ele>
        <time>2021-01-29T15:11:31Z</time>
      </trkpt>
      <trkpt lat="42.78054" lon="0.15861">
        <ele>1899.2</ele>
        <time>2021-01-29T15:11:32Z</time>
      </trkpt>
      <trkpt lat="42.78056" lon="0.15862">
        <ele>1899</ele>
        <time>2021-01-29T15:11:33Z</time>
      </trkpt>
      <trkpt lat="42.78058" lon="0.15863">
        <ele>1898.8</ele>
        <time>2021-01-29T15:11:34Z</time>
      </trkpt>
      <trkpt lat="42.78061" lon="0.15864">
        <ele>1898.4</ele>
        <time>2021-01-29T15:11:35Z</time>
      </trkpt>
      <trkpt lat="42.78064" lon="0.15864">
        <ele>1898</ele>
        <time>2021-01-29T15:11:36Z</time>
      </trkpt>
      <trkpt lat="42.78067" lon="0.15864">
        <ele>1897.8</ele>
        <time>2021-01-29T15:11:37Z</time>
      </trkpt>
      <trkpt lat="42.7807" lon="0.15864">
        <ele>1897.4</ele>
        <time>2021-01-29T15:11:38Z</time>
      </trkpt>
      <trkpt lat="42.78073" lon="0.15864">
        <ele>1897</ele>
        <time>2021-01-29T15:11:39Z</time>
      </trkpt>
      <trkpt lat="42.78076" lon="0.15862">
        <ele>1896.6</ele>
        <time>2021-01-29T15:11:40Z</time>
      </trkpt>
      <trkpt lat="42.78078" lon="0.15861">
        <ele>1896.4</ele>
        <time>2021-01-29T15:11:41Z</time>
      </trkpt>
      <trkpt lat="42.78081" lon="0.1586">
        <ele>1896.2</ele>
        <time>2021-01-29T15:11:42Z</time>
      </trkpt>
      <trkpt lat="42.78082" lon="0.15859">
        <ele>1895.8</ele>
        <time>2021-01-29T15:11:43Z</time>
      </trkpt>
      <trkpt lat="42.78084" lon="0.15858">
        <ele>1895.6</ele>
        <time>2021-01-29T15:11:44Z</time>
      </trkpt>
      <trkpt lat="42.78086" lon="0.15858">
        <ele>1895.4</ele>
        <time>2021-01-29T15:11:45Z</time>
      </trkpt>
      <trkpt lat="42.78087" lon="0.15857">
        <ele>1895.4</ele>
        <time>2021-01-29T15:11:46Z</time>
      </trkpt>
      <trkpt lat="42.78088" lon="0.15856">
        <ele>1895.2</ele>
        <time>2021-01-29T15:11:47Z</time>
      </trkpt>
      <trkpt lat="42.78088" lon="0.15856">
        <ele>1895</ele>
        <time>2021-01-29T15:11:48Z</time>
      </trkpt>
      <trkpt lat="42.78088" lon="0.15856">
        <ele>1895</ele>
        <time>2021-01-29T15:11:49Z</time>
      </trkpt>
      <trkpt lat="42.78088" lon="0.15856">
        <ele>1895</ele>
        <time>2021-01-29T15:11:50Z</time>
      </trkpt>
      <trkpt lat="42.78088" lon="0.15856">
        <ele>1895</ele>
        <time>2021-01-29T15:11:51Z</time>
      </trkpt>
      <trkpt lat="42.78088" lon="0.15856">
        <ele>1895</ele>
        <time>2021-01-29T15:11:52Z</time>
      </trkpt>
      <trkpt lat="42.78088" lon="0.15856">
        <ele>1895</ele>
        <time>2021-01-29T15:11:53Z</time>
      </trkpt>
      <trkpt lat="42.78088" lon="0.15856">
        <ele>1895</ele>
        <time>2021-01-29T15:11:54Z</time>
      </trkpt>
      <trkpt lat="42.78088" lon="0.15856">
        <ele>1895</ele>
        <time>2021-01-29T15:11:55Z</time>
      </trkpt>
      <trkpt lat="42.78088" lon="0.15856">
        <ele>1895</ele>
        <time>2021-01-29T15:11:56Z</time>
      </trkpt>
      <trkpt lat="42.78088" lon="0.15856">
        <ele>1895</ele>
        <time>2021-01-29T15:11:57Z</time>
      </trkpt>
      <trkpt lat="42.78088" lon="0.15856">
        <ele>1895</ele>
        <time>2021-01-29T15:11:58Z</time>
      </trkpt>
      <trkpt lat="42.78088" lon="0.15856">
        <ele>1895</ele>
        <time>2021-01-29T15:11:59Z</time>
      </trkpt>
      <trkpt lat="42.78088" lon="0.15856">
        <ele>1894.8</ele>
        <time>2021-01-29T15:12:00Z</time>
      </trkpt>
      <trkpt lat="42.78089" lon="0.15856">
        <ele>1894.8</ele>
        <time>2021-01-29T15:12:01Z</time>
      </trkpt>
      <trkpt lat="42.78091" lon="0.15857">
        <ele>1894.6</ele>
        <time>2021-01-29T15:12:02Z</time>
      </trkpt>
      <trkpt lat="42.78094" lon="0.15857">
        <ele>1894.2</ele>
        <time>2021-01-29T15:12:03Z</time>
      </trkpt>
      <trkpt lat="42.78098" lon="0.15857">
        <ele>1893.8</ele>
        <time>2021-01-29T15:12:04Z</time>
      </trkpt>
      <trkpt lat="42.78101" lon="0.15855">
        <ele>1893.2</ele>
        <time>2021-01-29T15:12:05Z</time>
      </trkpt>
      <trkpt lat="42.78104" lon="0.15856">
        <ele>1892.6</ele>
        <time>2021-01-29T15:12:06Z</time>
      </trkpt>
      <trkpt lat="42.78106" lon="0.15858">
        <ele>1891.8</ele>
        <time>2021-01-29T15:12:07Z</time>
      </trkpt>
      <trkpt lat="42.78109" lon="0.1586">
        <ele>1891.2</ele>
        <time>2021-01-29T15:12:08Z</time>
      </trkpt>
      <trkpt lat="42.78113" lon="0.1586">
        <ele>1890.2</ele>
        <time>2021-01-29T15:12:09Z</time>
      </trkpt>
      <trkpt lat="42.78116" lon="0.1586">
        <ele>1889.4</ele>
        <time>2021-01-29T15:12:10Z</time>
      </trkpt>
      <trkpt lat="42.78119" lon="0.15861">
        <ele>1888.6</ele>
        <time>2021-01-29T15:12:11Z</time>
      </trkpt>
      <trkpt lat="42.78122" lon="0.15863">
        <ele>1887.6</ele>
        <time>2021-01-29T15:12:12Z</time>
      </trkpt>
      <trkpt lat="42.78126" lon="0.15864">
        <ele>1886.4</ele>
        <time>2021-01-29T15:12:13Z</time>
      </trkpt>
      <trkpt lat="42.7813" lon="0.15865">
        <ele>1885.6</ele>
        <time>2021-01-29T15:12:14Z</time>
      </trkpt>
      <trkpt lat="42.78133" lon="0.15867">
        <ele>1884.6</ele>
        <time>2021-01-29T15:12:15Z</time>
      </trkpt>
      <trkpt lat="42.78136" lon="0.15869">
        <ele>1883.4</ele>
        <time>2021-01-29T15:12:16Z</time>
      </trkpt>
      <trkpt lat="42.7814" lon="0.15869">
        <ele>1882.4</ele>
        <time>2021-01-29T15:12:17Z</time>
      </trkpt>
      <trkpt lat="42.78143" lon="0.15872">
        <ele>1881.2</ele>
        <time>2021-01-29T15:12:18Z</time>
      </trkpt>
      <trkpt lat="42.78146" lon="0.15876">
        <ele>1880.2</ele>
        <time>2021-01-29T15:12:19Z</time>
      </trkpt>
      <trkpt lat="42.7815" lon="0.15881">
        <ele>1879</ele>
        <time>2021-01-29T15:12:20Z</time>
      </trkpt>
      <trkpt lat="42.78154" lon="0.15887">
        <ele>1877.8</ele>
        <time>2021-01-29T15:12:21Z</time>
      </trkpt>
      <trkpt lat="42.78158" lon="0.1589">
        <ele>1876.6</ele>
        <time>2021-01-29T15:12:22Z</time>
      </trkpt>
      <trkpt lat="42.78162" lon="0.1589">
        <ele>1875.4</ele>
        <time>2021-01-29T15:12:23Z</time>
      </trkpt>
      <trkpt lat="42.78166" lon="0.15889">
        <ele>1874.4</ele>
        <time>2021-01-29T15:12:24Z</time>
      </trkpt>
      <trkpt lat="42.7817" lon="0.15887">
        <ele>1873.6</ele>
        <time>2021-01-29T15:12:25Z</time>
      </trkpt>
      <trkpt lat="42.78174" lon="0.15888">
        <ele>1872.8</ele>
        <time>2021-01-29T15:12:26Z</time>
      </trkpt>
      <trkpt lat="42.78177" lon="0.1589">
        <ele>1872.2</ele>
        <time>2021-01-29T15:12:27Z</time>
      </trkpt>
      <trkpt lat="42.78181" lon="0.15891">
        <ele>1871.6</ele>
        <time>2021-01-29T15:12:28Z</time>
      </trkpt>
      <trkpt lat="42.78184" lon="0.15892">
        <ele>1871</ele>
        <time>2021-01-29T15:12:29Z</time>
      </trkpt>
      <trkpt lat="42.78188" lon="0.15892">
        <ele>1870.4</ele>
        <time>2021-01-29T15:12:30Z</time>
      </trkpt>
      <trkpt lat="42.78192" lon="0.15893">
        <ele>1870</ele>
        <time>2021-01-29T15:12:31Z</time>
      </trkpt>
      <trkpt lat="42.78195" lon="0.15892">
        <ele>1869.6</ele>
        <time>2021-01-29T15:12:32Z</time>
      </trkpt>
      <trkpt lat="42.78198" lon="0.15892">
        <ele>1869.2</ele>
        <time>2021-01-29T15:12:33Z</time>
      </trkpt>
      <trkpt lat="42.782" lon="0.15892">
        <ele>1868.6</ele>
        <time>2021-01-29T15:12:34Z</time>
      </trkpt>
      <trkpt lat="42.78203" lon="0.15891">
        <ele>1867.8</ele>
        <time>2021-01-29T15:12:35Z</time>
      </trkpt>
      <trkpt lat="42.78207" lon="0.1589">
        <ele>1867.2</ele>
        <time>2021-01-29T15:12:36Z</time>
      </trkpt>
      <trkpt lat="42.78211" lon="0.15891">
        <ele>1866.4</ele>
        <time>2021-01-29T15:12:37Z</time>
      </trkpt>
      <trkpt lat="42.78215" lon="0.15891">
        <ele>1865.2</ele>
        <time>2021-01-29T15:12:38Z</time>
      </trkpt>
      <trkpt lat="42.78219" lon="0.15892">
        <ele>1864.4</ele>
        <time>2021-01-29T15:12:39Z</time>
      </trkpt>
      <trkpt lat="42.78224" lon="0.15892">
        <ele>1863.2</ele>
        <time>2021-01-29T15:12:40Z</time>
      </trkpt>
      <trkpt lat="42.78229" lon="0.15891">
        <ele>1862</ele>
        <time>2021-01-29T15:12:41Z</time>
      </trkpt>
      <trkpt lat="42.78233" lon="0.15892">
        <ele>1861</ele>
        <time>2021-01-29T15:12:42Z</time>
      </trkpt>
      <trkpt lat="42.78237" lon="0.15893">
        <ele>1859.8</ele>
        <time>2021-01-29T15:12:43Z</time>
      </trkpt>
      <trkpt lat="42.78241" lon="0.15894">
        <ele>1858.8</ele>
        <time>2021-01-29T15:12:44Z</time>
      </trkpt>
      <trkpt lat="42.78245" lon="0.15894">
        <ele>1857.8</ele>
        <time>2021-01-29T15:12:45Z</time>
      </trkpt>
      <trkpt lat="42.7825" lon="0.15894">
        <ele>1857</ele>
        <time>2021-01-29T15:12:46Z</time>
      </trkpt>
      <trkpt lat="42.78253" lon="0.15895">
        <ele>1856.4</ele>
        <time>2021-01-29T15:12:47Z</time>
      </trkpt>
      <trkpt lat="42.78257" lon="0.15896">
        <ele>1856</ele>
        <time>2021-01-29T15:12:48Z</time>
      </trkpt>
      <trkpt lat="42.7826" lon="0.15898">
        <ele>1855.4</ele>
        <time>2021-01-29T15:12:49Z</time>
      </trkpt>
      <trkpt lat="42.78262" lon="0.159">
        <ele>1855</ele>
        <time>2021-01-29T15:12:50Z</time>
      </trkpt>
      <trkpt lat="42.78265" lon="0.15902">
        <ele>1854.8</ele>
        <time>2021-01-29T15:12:51Z</time>
      </trkpt>
      <trkpt lat="42.78267" lon="0.15903">
        <ele>1854.4</ele>
        <time>2021-01-29T15:12:52Z</time>
      </trkpt>
      <trkpt lat="42.78269" lon="0.15904">
        <ele>1854.2</ele>
        <time>2021-01-29T15:12:53Z</time>
      </trkpt>
      <trkpt lat="42.78271" lon="0.15906">
        <ele>1854</ele>
        <time>2021-01-29T15:12:54Z</time>
      </trkpt>
      <trkpt lat="42.78272" lon="0.15908">
        <ele>1853.8</ele>
        <time>2021-01-29T15:12:55Z</time>
      </trkpt>
      <trkpt lat="42.78273" lon="0.1591">
        <ele>1853.6</ele>
        <time>2021-01-29T15:12:56Z</time>
      </trkpt>
      <trkpt lat="42.78273" lon="0.15911">
        <ele>1853.4</ele>
        <time>2021-01-29T15:12:57Z</time>
      </trkpt>
      <trkpt lat="42.78273" lon="0.15912">
        <ele>1853.2</ele>
        <time>2021-01-29T15:12:58Z</time>
      </trkpt>
      <trkpt lat="42.78273" lon="0.15913">
        <ele>1853</ele>
        <time>2021-01-29T15:12:59Z</time>
      </trkpt>
      <trkpt lat="42.78273" lon="0.15913">
        <ele>1852.8</ele>
        <time>2021-01-29T15:13:00Z</time>
      </trkpt>
      <trkpt lat="42.78273" lon="0.15913">
        <ele>1852.6</ele>
        <time>2021-01-29T15:13:01Z</time>
      </trkpt>
      <trkpt lat="42.78273" lon="0.15913">
        <ele>1852.6</ele>
        <time>2021-01-29T15:13:02Z</time>
      </trkpt>
      <trkpt lat="42.78273" lon="0.15913">
        <ele>1852.4</ele>
        <time>2021-01-29T15:13:03Z</time>
      </trkpt>
      <trkpt lat="42.78273" lon="0.15913">
        <ele>1852.4</ele>
        <time>2021-01-29T15:13:04Z</time>
      </trkpt>
      <trkpt lat="42.78273" lon="0.15913">
        <ele>1852.4</ele>
        <time>2021-01-29T15:13:05Z</time>
      </trkpt>
      <trkpt lat="42.78273" lon="0.15913">
        <ele>1852.4</ele>
        <time>2021-01-29T15:13:06Z</time>
      </trkpt>
      <trkpt lat="42.78273" lon="0.15913">
        <ele>1852.4</ele>
        <time>2021-01-29T15:13:07Z</time>
      </trkpt>
      <trkpt lat="42.78273" lon="0.15913">
        <ele>1852.2</ele>
        <time>2021-01-29T15:13:08Z</time>
      </trkpt>
      <trkpt lat="42.78273" lon="0.15913">
        <ele>1852.2</ele>
        <time>2021-01-29T15:13:09Z</time>
      </trkpt>
      <trkpt lat="42.78273" lon="0.15913">
        <ele>1852.2</ele>
        <time>2021-01-29T15:13:10Z</time>
      </trkpt>
      <trkpt lat="42.78273" lon="0.15913">
        <ele>1852.2</ele>
        <time>2021-01-29T15:13:11Z</time>
      </trkpt>
      <trkpt lat="42.78273" lon="0.15913">
        <ele>1852.4</ele>
        <time>2021-01-29T15:13:12Z</time>
      </trkpt>
      <trkpt lat="42.78273" lon="0.15913">
        <ele>1852.4</ele>
        <time>2021-01-29T15:13:13Z</time>
      </trkpt>
      <trkpt lat="42.78273" lon="0.15913">
        <ele>1852.4</ele>
        <time>2021-01-29T15:13:14Z</time>
      </trkpt>
      <trkpt lat="42.78273" lon="0.15913">
        <ele>1852.4</ele>
        <time>2021-01-29T15:13:15Z</time>
      </trkpt>
      <trkpt lat="42.78273" lon="0.15913">
        <ele>1852.2</ele>
        <time>2021-01-29T15:13:16Z</time>
      </trkpt>
      <trkpt lat="42.78273" lon="0.15915">
        <ele>1852.2</ele>
        <time>2021-01-29T15:13:17Z</time>
      </trkpt>
      <trkpt lat="42.78273" lon="0.15919">
        <ele>1852</ele>
        <time>2021-01-29T15:13:18Z</time>
      </trkpt>
      <trkpt lat="42.78274" lon="0.15922">
        <ele>1851.6</ele>
        <time>2021-01-29T15:13:19Z</time>
      </trkpt>
      <trkpt lat="42.78274" lon="0.15926">
        <ele>1851.4</ele>
        <time>2021-01-29T15:13:20Z</time>
      </trkpt>
      <trkpt lat="42.78273" lon="0.1593">
        <ele>1851</ele>
        <time>2021-01-29T15:13:21Z</time>
      </trkpt>
      <trkpt lat="42.78273" lon="0.15934">
        <ele>1850.8</ele>
        <time>2021-01-29T15:13:22Z</time>
      </trkpt>
      <trkpt lat="42.78272" lon="0.15938">
        <ele>1850.4</ele>
        <time>2021-01-29T15:13:23Z</time>
      </trkpt>
      <trkpt lat="42.78271" lon="0.15942">
        <ele>1850.2</ele>
        <time>2021-01-29T15:13:24Z</time>
      </trkpt>
      <trkpt lat="42.7827" lon="0.15946">
        <ele>1849.6</ele>
        <time>2021-01-29T15:13:25Z</time>
      </trkpt>
      <trkpt lat="42.78269" lon="0.1595">
        <ele>1849.2</ele>
        <time>2021-01-29T15:13:26Z</time>
      </trkpt>
      <trkpt lat="42.78268" lon="0.15954">
        <ele>1848.8</ele>
        <time>2021-01-29T15:13:27Z</time>
      </trkpt>
      <trkpt lat="42.78268" lon="0.15958">
        <ele>1848.4</ele>
        <time>2021-01-29T15:13:28Z</time>
      </trkpt>
      <trkpt lat="42.78268" lon="0.15963">
        <ele>1848</ele>
        <time>2021-01-29T15:13:29Z</time>
      </trkpt>
      <trkpt lat="42.78268" lon="0.15967">
        <ele>1847.6</ele>
        <time>2021-01-29T15:13:30Z</time>
      </trkpt>
      <trkpt lat="42.78268" lon="0.15971">
        <ele>1847</ele>
        <time>2021-01-29T15:13:31Z</time>
      </trkpt>
      <trkpt lat="42.78268" lon="0.15975">
        <ele>1846.6</ele>
        <time>2021-01-29T15:13:32Z</time>
      </trkpt>
      <trkpt lat="42.78268" lon="0.15979">
        <ele>1846</ele>
        <time>2021-01-29T15:13:33Z</time>
      </trkpt>
      <trkpt lat="42.78268" lon="0.15982">
        <ele>1845.6</ele>
        <time>2021-01-29T15:13:34Z</time>
      </trkpt>
      <trkpt lat="42.78268" lon="0.15986">
        <ele>1845</ele>
        <time>2021-01-29T15:13:35Z</time>
      </trkpt>
      <trkpt lat="42.78268" lon="0.15991">
        <ele>1844.6</ele>
        <time>2021-01-29T15:13:36Z</time>
      </trkpt>
      <trkpt lat="42.78268" lon="0.15995">
        <ele>1844</ele>
        <time>2021-01-29T15:13:37Z</time>
      </trkpt>
      <trkpt lat="42.78268" lon="0.16">
        <ele>1843.4</ele>
        <time>2021-01-29T15:13:38Z</time>
      </trkpt>
      <trkpt lat="42.78268" lon="0.16004">
        <ele>1842.8</ele>
        <time>2021-01-29T15:13:39Z</time>
      </trkpt>
      <trkpt lat="42.78267" lon="0.16009">
        <ele>1842.2</ele>
        <time>2021-01-29T15:13:40Z</time>
      </trkpt>
      <trkpt lat="42.78267" lon="0.16013">
        <ele>1841.8</ele>
        <time>2021-01-29T15:13:41Z</time>
      </trkpt>
      <trkpt lat="42.78267" lon="0.16017">
        <ele>1841.4</ele>
        <time>2021-01-29T15:13:42Z</time>
      </trkpt>
      <trkpt lat="42.78266" lon="0.16022">
        <ele>1840.8</ele>
        <time>2021-01-29T15:13:43Z</time>
      </trkpt>
      <trkpt lat="42.78266" lon="0.16026">
        <ele>1840.4</ele>
        <time>2021-01-29T15:13:44Z</time>
      </trkpt>
      <trkpt lat="42.78266" lon="0.16031">
        <ele>1839.8</ele>
        <time>2021-01-29T15:13:45Z</time>
      </trkpt>
      <trkpt lat="42.78265" lon="0.16036">
        <ele>1839.4</ele>
        <time>2021-01-29T15:13:46Z</time>
      </trkpt>
      <trkpt lat="42.78265" lon="0.1604">
        <ele>1839</ele>
        <time>2021-01-29T15:13:47Z</time>
      </trkpt>
      <trkpt lat="42.78264" lon="0.16044">
        <ele>1838.4</ele>
        <time>2021-01-29T15:13:48Z</time>
      </trkpt>
      <trkpt lat="42.78263" lon="0.16048">
        <ele>1838</ele>
        <time>2021-01-29T15:13:49Z</time>
      </trkpt>
      <trkpt lat="42.78262" lon="0.16053">
        <ele>1837.6</ele>
        <time>2021-01-29T15:13:50Z</time>
      </trkpt>
      <trkpt lat="42.78262" lon="0.16058">
        <ele>1837</ele>
        <time>2021-01-29T15:13:51Z</time>
      </trkpt>
      <trkpt lat="42.78262" lon="0.16063">
        <ele>1836.6</ele>
        <time>2021-01-29T15:13:52Z</time>
      </trkpt>
      <trkpt lat="42.78261" lon="0.16069">
        <ele>1836</ele>
        <time>2021-01-29T15:13:53Z</time>
      </trkpt>
      <trkpt lat="42.78261" lon="0.16076">
        <ele>1835.4</ele>
        <time>2021-01-29T15:13:54Z</time>
      </trkpt>
      <trkpt lat="42.7826" lon="0.16083">
        <ele>1834.8</ele>
        <time>2021-01-29T15:13:55Z</time>
      </trkpt>
      <trkpt lat="42.78258" lon="0.16091">
        <ele>1833.8</ele>
        <time>2021-01-29T15:13:56Z</time>
      </trkpt>
      <trkpt lat="42.78258" lon="0.16099">
        <ele>1832.6</ele>
        <time>2021-01-29T15:13:57Z</time>
      </trkpt>
      <trkpt lat="42.78257" lon="0.16108">
        <ele>1831.4</ele>
        <time>2021-01-29T15:13:58Z</time>
      </trkpt>
      <trkpt lat="42.78256" lon="0.16117">
        <ele>1830.6</ele>
        <time>2021-01-29T15:13:59Z</time>
      </trkpt>
      <trkpt lat="42.78256" lon="0.16125">
        <ele>1829.2</ele>
        <time>2021-01-29T15:14:00Z</time>
      </trkpt>
      <trkpt lat="42.78258" lon="0.16134">
        <ele>1827.6</ele>
        <time>2021-01-29T15:14:01Z</time>
      </trkpt>
      <trkpt lat="42.78259" lon="0.16142">
        <ele>1826.4</ele>
        <time>2021-01-29T15:14:02Z</time>
      </trkpt>
      <trkpt lat="42.78261" lon="0.1615">
        <ele>1824.6</ele>
        <time>2021-01-29T15:14:03Z</time>
      </trkpt>
      <trkpt lat="42.78264" lon="0.16158">
        <ele>1823.2</ele>
        <time>2021-01-29T15:14:04Z</time>
      </trkpt>
      <trkpt lat="42.78265" lon="0.16166">
        <ele>1821.8</ele>
        <time>2021-01-29T15:14:05Z</time>
      </trkpt>
      <trkpt lat="42.78266" lon="0.16175">
        <ele>1820.2</ele>
        <time>2021-01-29T15:14:06Z</time>
      </trkpt>
      <trkpt lat="42.78268" lon="0.16184">
        <ele>1818.4</ele>
        <time>2021-01-29T15:14:07Z</time>
      </trkpt>
      <trkpt lat="42.78268" lon="0.16192">
        <ele>1816.6</ele>
        <time>2021-01-29T15:14:08Z</time>
      </trkpt>
      <trkpt lat="42.78266" lon="0.16201">
        <ele>1815</ele>
        <time>2021-01-29T15:14:09Z</time>
      </trkpt>
      <trkpt lat="42.78267" lon="0.16209">
        <ele>1813.4</ele>
        <time>2021-01-29T15:14:10Z</time>
      </trkpt>
      <trkpt lat="42.78267" lon="0.16218">
        <ele>1811.8</ele>
        <time>2021-01-29T15:14:11Z</time>
      </trkpt>
      <trkpt lat="42.78268" lon="0.16226">
        <ele>1810.4</ele>
        <time>2021-01-29T15:14:12Z</time>
      </trkpt>
      <trkpt lat="42.78271" lon="0.16233">
        <ele>1808.6</ele>
        <time>2021-01-29T15:14:13Z</time>
      </trkpt>
      <trkpt lat="42.78273" lon="0.1624">
        <ele>1807.2</ele>
        <time>2021-01-29T15:14:14Z</time>
      </trkpt>
      <trkpt lat="42.78274" lon="0.16248">
        <ele>1806.2</ele>
        <time>2021-01-29T15:14:15Z</time>
      </trkpt>
      <trkpt lat="42.78275" lon="0.16255">
        <ele>1804.8</ele>
        <time>2021-01-29T15:14:16Z</time>
      </trkpt>
      <trkpt lat="42.78278" lon="0.16262">
        <ele>1803.4</ele>
        <time>2021-01-29T15:14:17Z</time>
      </trkpt>
      <trkpt lat="42.78278" lon="0.1627">
        <ele>1802.2</ele>
        <time>2021-01-29T15:14:18Z</time>
      </trkpt>
      <trkpt lat="42.78279" lon="0.16277">
        <ele>1800.8</ele>
        <time>2021-01-29T15:14:19Z</time>
      </trkpt>
      <trkpt lat="42.78282" lon="0.16281">
        <ele>1799.6</ele>
        <time>2021-01-29T15:14:20Z</time>
      </trkpt>
      <trkpt lat="42.78284" lon="0.16282">
        <ele>1798.4</ele>
        <time>2021-01-29T15:14:21Z</time>
      </trkpt>
      <trkpt lat="42.78286" lon="0.16281">
        <ele>1797.6</ele>
        <time>2021-01-29T15:14:22Z</time>
      </trkpt>
      <trkpt lat="42.78286" lon="0.16281">
        <ele>1796.8</ele>
        <time>2021-01-29T15:14:23Z</time>
      </trkpt>
      <trkpt lat="42.78286" lon="0.16281">
        <ele>1796.4</ele>
        <time>2021-01-29T15:14:24Z</time>
      </trkpt>
      <trkpt lat="42.78286" lon="0.16282">
        <ele>1796</ele>
        <time>2021-01-29T15:14:25Z</time>
      </trkpt>
      <trkpt lat="42.78286" lon="0.16282">
        <ele>1795.6</ele>
        <time>2021-01-29T15:14:26Z</time>
      </trkpt>
      <trkpt lat="42.78286" lon="0.16282">
        <ele>1795.2</ele>
        <time>2021-01-29T15:14:27Z</time>
      </trkpt>
      <trkpt lat="42.78286" lon="0.16282">
        <ele>1795</ele>
        <time>2021-01-29T15:14:28Z</time>
      </trkpt>
      <trkpt lat="42.78286" lon="0.16282">
        <ele>1794.8</ele>
        <time>2021-01-29T15:14:29Z</time>
      </trkpt>
      <trkpt lat="42.78286" lon="0.16282">
        <ele>1794.8</ele>
        <time>2021-01-29T15:14:30Z</time>
      </trkpt>
      <trkpt lat="42.78286" lon="0.16282">
        <ele>1794.6</ele>
        <time>2021-01-29T15:14:31Z</time>
      </trkpt>
      <trkpt lat="42.78286" lon="0.16282">
        <ele>1794.4</ele>
        <time>2021-01-29T15:14:32Z</time>
      </trkpt>
      <trkpt lat="42.78286" lon="0.16282">
        <ele>1794.4</ele>
        <time>2021-01-29T15:14:33Z</time>
      </trkpt>
      <trkpt lat="42.78286" lon="0.16282">
        <ele>1794.4</ele>
        <time>2021-01-29T15:14:34Z</time>
      </trkpt>
      <trkpt lat="42.78286" lon="0.16282">
        <ele>1794.4</ele>
        <time>2021-01-29T15:14:35Z</time>
      </trkpt>
      <trkpt lat="42.78286" lon="0.16282">
        <ele>1794.4</ele>
        <time>2021-01-29T15:14:36Z</time>
      </trkpt>
      <trkpt lat="42.78286" lon="0.16282">
        <ele>1794.4</ele>
        <time>2021-01-29T15:14:37Z</time>
      </trkpt>
      <trkpt lat="42.78286" lon="0.16282">
        <ele>1794.4</ele>
        <time>2021-01-29T15:14:38Z</time>
      </trkpt>
      <trkpt lat="42.78286" lon="0.16282">
        <ele>1794.2</ele>
        <time>2021-01-29T15:14:39Z</time>
      </trkpt>
      <trkpt lat="42.78286" lon="0.16282">
        <ele>1794.2</ele>
        <time>2021-01-29T15:14:40Z</time>
      </trkpt>
      <trkpt lat="42.78288" lon="0.16281">
        <ele>1794</ele>
        <time>2021-01-29T15:14:41Z</time>
      </trkpt>
      <trkpt lat="42.7829" lon="0.16279">
        <ele>1793.8</ele>
        <time>2021-01-29T15:14:42Z</time>
      </trkpt>
      <trkpt lat="42.7829" lon="0.16278">
        <ele>1793.6</ele>
        <time>2021-01-29T15:14:43Z</time>
      </trkpt>
      <trkpt lat="42.78291" lon="0.16277">
        <ele>1793.6</ele>
        <time>2021-01-29T15:14:44Z</time>
      </trkpt>
      <trkpt lat="42.78291" lon="0.16277">
        <ele>1793.4</ele>
        <time>2021-01-29T15:14:45Z</time>
      </trkpt>
      <trkpt lat="42.78291" lon="0.16277">
        <ele>1793.4</ele>
        <time>2021-01-29T15:14:46Z</time>
      </trkpt>
      <trkpt lat="42.78291" lon="0.16277">
        <ele>1793.4</ele>
        <time>2021-01-29T15:14:47Z</time>
      </trkpt>
      <trkpt lat="42.78291" lon="0.16277">
        <ele>1793.2</ele>
        <time>2021-01-29T15:14:48Z</time>
      </trkpt>
      <trkpt lat="42.78291" lon="0.16277">
        <ele>1793.2</ele>
        <time>2021-01-29T15:14:49Z</time>
      </trkpt>
      <trkpt lat="42.78291" lon="0.16277">
        <ele>1793.2</ele>
        <time>2021-01-29T15:14:50Z</time>
      </trkpt>
      <trkpt lat="42.78291" lon="0.16277">
        <ele>1793.2</ele>
        <time>2021-01-29T15:14:51Z</time>
      </trkpt>
      <trkpt lat="42.78291" lon="0.16277">
        <ele>1793</ele>
        <time>2021-01-29T15:14:52Z</time>
      </trkpt>
      <trkpt lat="42.78291" lon="0.16277">
        <ele>1793</ele>
        <time>2021-01-29T15:14:53Z</time>
      </trkpt>
      <trkpt lat="42.78291" lon="0.16277">
        <ele>1793</ele>
        <time>2021-01-29T15:14:54Z</time>
      </trkpt>
      <trkpt lat="42.78291" lon="0.16277">
        <ele>1793</ele>
        <time>2021-01-29T15:14:55Z</time>
      </trkpt>
      <trkpt lat="42.78291" lon="0.16277">
        <ele>1793</ele>
        <time>2021-01-29T15:14:56Z</time>
      </trkpt>
      <trkpt lat="42.78291" lon="0.16277">
        <ele>1792.8</ele>
        <time>2021-01-29T15:14:57Z</time>
      </trkpt>
      <trkpt lat="42.78291" lon="0.16277">
        <ele>1792.6</ele>
        <time>2021-01-29T15:14:58Z</time>
      </trkpt>
      <trkpt lat="42.78291" lon="0.16277">
        <ele>1792.4</ele>
        <time>2021-01-29T15:14:59Z</time>
      </trkpt>
      <trkpt lat="42.78291" lon="0.16277">
        <ele>1792.4</ele>
        <time>2021-01-29T15:15:00Z</time>
      </trkpt>
      <trkpt lat="42.78291" lon="0.16277">
        <ele>1792.4</ele>
        <time>2021-01-29T15:15:01Z</time>
      </trkpt>
      <trkpt lat="42.78291" lon="0.16277">
        <ele>1792.6</ele>
        <time>2021-01-29T15:15:02Z</time>
      </trkpt>
      <trkpt lat="42.78291" lon="0.16277">
        <ele>1792.6</ele>
        <time>2021-01-29T15:15:03Z</time>
      </trkpt>
      <trkpt lat="42.78291" lon="0.16277">
        <ele>1792.6</ele>
        <time>2021-01-29T15:15:04Z</time>
      </trkpt>
      <trkpt lat="42.78291" lon="0.16277">
        <ele>1792.6</ele>
        <time>2021-01-29T15:15:05Z</time>
      </trkpt>
      <trkpt lat="42.78291" lon="0.16277">
        <ele>1792.4</ele>
        <time>2021-01-29T15:15:06Z</time>
      </trkpt>
      <trkpt lat="42.78292" lon="0.16279">
        <ele>1792.2</ele>
        <time>2021-01-29T15:15:07Z</time>
      </trkpt>
      <trkpt lat="42.78294" lon="0.16282">
        <ele>1792</ele>
        <time>2021-01-29T15:15:08Z</time>
      </trkpt>
      <trkpt lat="42.78294" lon="0.16284">
        <ele>1791.8</ele>
        <time>2021-01-29T15:15:09Z</time>
      </trkpt>
      <trkpt lat="42.78294" lon="0.16286">
        <ele>1791.6</ele>
        <time>2021-01-29T15:15:10Z</time>
      </trkpt>
      <trkpt lat="42.78294" lon="0.16288">
        <ele>1791.4</ele>
        <time>2021-01-29T15:15:11Z</time>
      </trkpt>
      <trkpt lat="42.78294" lon="0.1629">
        <ele>1791.2</ele>
        <time>2021-01-29T15:15:12Z</time>
      </trkpt>
      <trkpt lat="42.78294" lon="0.1629">
        <ele>1791.2</ele>
        <time>2021-01-29T15:15:13Z</time>
      </trkpt>
      <trkpt lat="42.78294" lon="0.1629">
        <ele>1791</ele>
        <time>2021-01-29T15:15:14Z</time>
      </trkpt>
      <trkpt lat="42.78294" lon="0.16289">
        <ele>1790.8</ele>
        <time>2021-01-29T15:15:15Z</time>
      </trkpt>
      <trkpt lat="42.78294" lon="0.16289">
        <ele>1790.8</ele>
        <time>2021-01-29T15:15:16Z</time>
      </trkpt>
      <trkpt lat="42.78294" lon="0.16289">
        <ele>1790.8</ele>
        <time>2021-01-29T15:15:17Z</time>
      </trkpt>
      <trkpt lat="42.78294" lon="0.16289">
        <ele>1790.8</ele>
        <time>2021-01-29T15:15:18Z</time>
      </trkpt>
      <trkpt lat="42.78294" lon="0.16289">
        <ele>1790.8</ele>
        <time>2021-01-29T15:15:19Z</time>
      </trkpt>
      <trkpt lat="42.78294" lon="0.16289">
        <ele>1790.6</ele>
        <time>2021-01-29T15:15:20Z</time>
      </trkpt>
      <trkpt lat="42.78294" lon="0.16289">
        <ele>1790.6</ele>
        <time>2021-01-29T15:15:21Z</time>
      </trkpt>
      <trkpt lat="42.78294" lon="0.16289">
        <ele>1790.8</ele>
        <time>2021-01-29T15:15:22Z</time>
      </trkpt>
      <trkpt lat="42.78294" lon="0.16289">
        <ele>1790.8</ele>
        <time>2021-01-29T15:15:23Z</time>
      </trkpt>
      <trkpt lat="42.78294" lon="0.16289">
        <ele>1790.8</ele>
        <time>2021-01-29T15:15:24Z</time>
      </trkpt>
      <trkpt lat="42.78294" lon="0.16289">
        <ele>1790.8</ele>
        <time>2021-01-29T15:15:25Z</time>
      </trkpt>
      <trkpt lat="42.78294" lon="0.16289">
        <ele>1791</ele>
        <time>2021-01-29T15:15:26Z</time>
      </trkpt>
      <trkpt lat="42.78294" lon="0.16289">
        <ele>1791</ele>
        <time>2021-01-29T15:15:27Z</time>
      </trkpt>
      <trkpt lat="42.78294" lon="0.16289">
        <ele>1791</ele>
        <time>2021-01-29T15:15:28Z</time>
      </trkpt>
      <trkpt lat="42.78294" lon="0.16289">
        <ele>1791</ele>
        <time>2021-01-29T15:15:29Z</time>
      </trkpt>
      <trkpt lat="42.78294" lon="0.16289">
        <ele>1791</ele>
        <time>2021-01-29T15:15:30Z</time>
      </trkpt>
      <trkpt lat="42.78294" lon="0.16289">
        <ele>1791</ele>
        <time>2021-01-29T15:15:31Z</time>
      </trkpt>
      <trkpt lat="42.78294" lon="0.16289">
        <ele>1791</ele>
        <time>2021-01-29T15:15:32Z</time>
      </trkpt>
      <trkpt lat="42.78294" lon="0.16289">
        <ele>1791</ele>
        <time>2021-01-29T15:15:33Z</time>
      </trkpt>
      <trkpt lat="42.78294" lon="0.16289">
        <ele>1791</ele>
        <time>2021-01-29T15:15:34Z</time>
      </trkpt>
      <trkpt lat="42.78294" lon="0.16289">
        <ele>1791</ele>
        <time>2021-01-29T15:15:35Z</time>
      </trkpt>
      <trkpt lat="42.78294" lon="0.16289">
        <ele>1791.2</ele>
        <time>2021-01-29T15:15:36Z</time>
      </trkpt>
      <trkpt lat="42.78294" lon="0.16289">
        <ele>1791.2</ele>
        <time>2021-01-29T15:15:37Z</time>
      </trkpt>
      <trkpt lat="42.78294" lon="0.16289">
        <ele>1791.2</ele>
        <time>2021-01-29T15:15:38Z</time>
      </trkpt>
      <trkpt lat="42.78294" lon="0.16289">
        <ele>1791</ele>
        <time>2021-01-29T15:15:39Z</time>
      </trkpt>
      <trkpt lat="42.78294" lon="0.16289">
        <ele>1791</ele>
        <time>2021-01-29T15:15:40Z</time>
      </trkpt>
      <trkpt lat="42.78294" lon="0.16289">
        <ele>1791.2</ele>
        <time>2021-01-29T15:15:41Z</time>
      </trkpt>
      <trkpt lat="42.78294" lon="0.16289">
        <ele>1791</ele>
        <time>2021-01-29T15:15:42Z</time>
      </trkpt>
      <trkpt lat="42.78294" lon="0.16289">
        <ele>1791</ele>
        <time>2021-01-29T15:15:43Z</time>
      </trkpt>
      <trkpt lat="42.78294" lon="0.16289">
        <ele>1790.8</ele>
        <time>2021-01-29T15:15:44Z</time>
      </trkpt>
      <trkpt lat="42.78294" lon="0.16289">
        <ele>1790.8</ele>
        <time>2021-01-29T15:15:45Z</time>
      </trkpt>
      <trkpt lat="42.78294" lon="0.16289">
        <ele>1790.6</ele>
        <time>2021-01-29T15:15:46Z</time>
      </trkpt>
      <trkpt lat="42.78294" lon="0.16289">
        <ele>1790.6</ele>
        <time>2021-01-29T15:15:47Z</time>
      </trkpt>
      <trkpt lat="42.78295" lon="0.16287">
        <ele>1790.4</ele>
        <time>2021-01-29T15:15:48Z</time>
      </trkpt>
      <trkpt lat="42.78297" lon="0.16282">
        <ele>1790</ele>
        <time>2021-01-29T15:15:49Z</time>
      </trkpt>
      <trkpt lat="42.78298" lon="0.1628">
        <ele>1789.8</ele>
        <time>2021-01-29T15:15:50Z</time>
      </trkpt>
      <trkpt lat="42.783" lon="0.16277">
        <ele>1789.4</ele>
        <time>2021-01-29T15:15:51Z</time>
      </trkpt>
      <trkpt lat="42.783" lon="0.16275">
        <ele>1789.2</ele>
        <time>2021-01-29T15:15:52Z</time>
      </trkpt>
      <trkpt lat="42.78301" lon="0.16274">
        <ele>1789</ele>
        <time>2021-01-29T15:15:53Z</time>
      </trkpt>
      <trkpt lat="42.78301" lon="0.16274">
        <ele>1788.8</ele>
        <time>2021-01-29T15:15:54Z</time>
      </trkpt>
      <trkpt lat="42.78301" lon="0.16275">
        <ele>1788.6</ele>
        <time>2021-01-29T15:15:55Z</time>
      </trkpt>
      <trkpt lat="42.78301" lon="0.16275">
        <ele>1788.6</ele>
        <time>2021-01-29T15:15:56Z</time>
      </trkpt>
      <trkpt lat="42.78301" lon="0.16275">
        <ele>1788.6</ele>
        <time>2021-01-29T15:15:57Z</time>
      </trkpt>
      <trkpt lat="42.78301" lon="0.16275">
        <ele>1788.4</ele>
        <time>2021-01-29T15:15:58Z</time>
      </trkpt>
      <trkpt lat="42.78301" lon="0.16275">
        <ele>1788.4</ele>
        <time>2021-01-29T15:15:59Z</time>
      </trkpt>
      <trkpt lat="42.78301" lon="0.16275">
        <ele>1788.4</ele>
        <time>2021-01-29T15:16:00Z</time>
      </trkpt>
      <trkpt lat="42.78301" lon="0.16275">
        <ele>1788.4</ele>
        <time>2021-01-29T15:16:01Z</time>
      </trkpt>
      <trkpt lat="42.78301" lon="0.16275">
        <ele>1788.2</ele>
        <time>2021-01-29T15:16:02Z</time>
      </trkpt>
      <trkpt lat="42.78301" lon="0.16275">
        <ele>1788.2</ele>
        <time>2021-01-29T15:16:03Z</time>
      </trkpt>
      <trkpt lat="42.78301" lon="0.16275">
        <ele>1788.2</ele>
        <time>2021-01-29T15:16:04Z</time>
      </trkpt>
      <trkpt lat="42.78301" lon="0.16275">
        <ele>1788.2</ele>
        <time>2021-01-29T15:16:05Z</time>
      </trkpt>
      <trkpt lat="42.78301" lon="0.16277">
        <ele>1788.2</ele>
        <time>2021-01-29T15:16:06Z</time>
      </trkpt>
      <trkpt lat="42.783" lon="0.16281">
        <ele>1788</ele>
        <time>2021-01-29T15:16:07Z</time>
      </trkpt>
      <trkpt lat="42.783" lon="0.16283">
        <ele>1788</ele>
        <time>2021-01-29T15:16:08Z</time>
      </trkpt>
      <trkpt lat="42.783" lon="0.16286">
        <ele>1787.6</ele>
        <time>2021-01-29T15:16:09Z</time>
      </trkpt>
      <trkpt lat="42.783" lon="0.16289">
        <ele>1787.4</ele>
        <time>2021-01-29T15:16:10Z</time>
      </trkpt>
      <trkpt lat="42.78301" lon="0.16293">
        <ele>1787</ele>
        <time>2021-01-29T15:16:11Z</time>
      </trkpt>
      <trkpt lat="42.78303" lon="0.16297">
        <ele>1786.8</ele>
        <time>2021-01-29T15:16:12Z</time>
      </trkpt>
      <trkpt lat="42.78304" lon="0.16298">
        <ele>1786.4</ele>
        <time>2021-01-29T15:16:13Z</time>
      </trkpt>
      <trkpt lat="42.78304" lon="0.16297">
        <ele>1786</ele>
        <time>2021-01-29T15:16:14Z</time>
      </trkpt>
      <trkpt lat="42.78304" lon="0.16297">
        <ele>1785.8</ele>
        <time>2021-01-29T15:16:15Z</time>
      </trkpt>
      <trkpt lat="42.78304" lon="0.16297">
        <ele>1785.6</ele>
        <time>2021-01-29T15:16:16Z</time>
      </trkpt>
      <trkpt lat="42.78304" lon="0.16297">
        <ele>1785.4</ele>
        <time>2021-01-29T15:16:17Z</time>
      </trkpt>
      <trkpt lat="42.78304" lon="0.16297">
        <ele>1785.2</ele>
        <time>2021-01-29T15:16:18Z</time>
      </trkpt>
      <trkpt lat="42.78304" lon="0.16296">
        <ele>1785.2</ele>
        <time>2021-01-29T15:16:19Z</time>
      </trkpt>
      <trkpt lat="42.78305" lon="0.16296">
        <ele>1785</ele>
        <time>2021-01-29T15:16:20Z</time>
      </trkpt>
      <trkpt lat="42.78305" lon="0.16296">
        <ele>1785</ele>
        <time>2021-01-29T15:16:21Z</time>
      </trkpt>
      <trkpt lat="42.78305" lon="0.16296">
        <ele>1784.8</ele>
        <time>2021-01-29T15:16:22Z</time>
      </trkpt>
      <trkpt lat="42.78305" lon="0.16296">
        <ele>1784.8</ele>
        <time>2021-01-29T15:16:23Z</time>
      </trkpt>
      <trkpt lat="42.78305" lon="0.16296">
        <ele>1784.8</ele>
        <time>2021-01-29T15:16:24Z</time>
      </trkpt>
      <trkpt lat="42.78305" lon="0.16295">
        <ele>1784.8</ele>
        <time>2021-01-29T15:16:25Z</time>
      </trkpt>
      <trkpt lat="42.78305" lon="0.16295">
        <ele>1784.8</ele>
        <time>2021-01-29T15:16:26Z</time>
      </trkpt>
      <trkpt lat="42.78306" lon="0.16295">
        <ele>1784.8</ele>
        <time>2021-01-29T15:16:27Z</time>
      </trkpt>
      <trkpt lat="42.78306" lon="0.16295">
        <ele>1784.8</ele>
        <time>2021-01-29T15:16:28Z</time>
      </trkpt>
      <trkpt lat="42.78306" lon="0.16295">
        <ele>1784.8</ele>
        <time>2021-01-29T15:16:29Z</time>
      </trkpt>
      <trkpt lat="42.78306" lon="0.16295">
        <ele>1784.8</ele>
        <time>2021-01-29T15:16:30Z</time>
      </trkpt>
      <trkpt lat="42.78306" lon="0.16294">
        <ele>1784.8</ele>
        <time>2021-01-29T15:16:31Z</time>
      </trkpt>
      <trkpt lat="42.78306" lon="0.16294">
        <ele>1784.8</ele>
        <time>2021-01-29T15:16:32Z</time>
      </trkpt>
      <trkpt lat="42.78306" lon="0.16294">
        <ele>1784.8</ele>
        <time>2021-01-29T15:16:33Z</time>
      </trkpt>
      <trkpt lat="42.78306" lon="0.16294">
        <ele>1784.8</ele>
        <time>2021-01-29T15:16:34Z</time>
      </trkpt>
      <trkpt lat="42.78307" lon="0.16294">
        <ele>1784.8</ele>
        <time>2021-01-29T15:16:35Z</time>
      </trkpt>
      <trkpt lat="42.78307" lon="0.16293">
        <ele>1784.8</ele>
        <time>2021-01-29T15:16:36Z</time>
      </trkpt>
      <trkpt lat="42.78307" lon="0.16293">
        <ele>1784.8</ele>
        <time>2021-01-29T15:16:37Z</time>
      </trkpt>
      <trkpt lat="42.78307" lon="0.16293">
        <ele>1784.8</ele>
        <time>2021-01-29T15:16:38Z</time>
      </trkpt>
      <trkpt lat="42.78307" lon="0.16293">
        <ele>1785</ele>
        <time>2021-01-29T15:16:39Z</time>
      </trkpt>
      <trkpt lat="42.78307" lon="0.16293">
        <ele>1785</ele>
        <time>2021-01-29T15:16:40Z</time>
      </trkpt>
      <trkpt lat="42.78307" lon="0.16293">
        <ele>1785</ele>
        <time>2021-01-29T15:16:41Z</time>
      </trkpt>
      <trkpt lat="42.78308" lon="0.16292">
        <ele>1785</ele>
        <time>2021-01-29T15:16:42Z</time>
      </trkpt>
      <trkpt lat="42.78308" lon="0.16292">
        <ele>1785</ele>
        <time>2021-01-29T15:16:43Z</time>
      </trkpt>
      <trkpt lat="42.78308" lon="0.16292">
        <ele>1785</ele>
        <time>2021-01-29T15:16:44Z</time>
      </trkpt>
      <trkpt lat="42.78308" lon="0.16292">
        <ele>1785</ele>
        <time>2021-01-29T15:16:45Z</time>
      </trkpt>
      <trkpt lat="42.78308" lon="0.16292">
        <ele>1785</ele>
        <time>2021-01-29T15:16:46Z</time>
      </trkpt>
      <trkpt lat="42.78308" lon="0.16291">
        <ele>1785</ele>
        <time>2021-01-29T15:16:47Z</time>
      </trkpt>
      <trkpt lat="42.78308" lon="0.16291">
        <ele>1785</ele>
        <time>2021-01-29T15:16:48Z</time>
      </trkpt>
      <trkpt lat="42.78308" lon="0.16291">
        <ele>1785</ele>
        <time>2021-01-29T15:16:49Z</time>
      </trkpt>
      <trkpt lat="42.78309" lon="0.16291">
        <ele>1785</ele>
        <time>2021-01-29T15:16:50Z</time>
      </trkpt>
      <trkpt lat="42.78309" lon="0.16291">
        <ele>1785</ele>
        <time>2021-01-29T15:16:51Z</time>
      </trkpt>
      <trkpt lat="42.78309" lon="0.16291">
        <ele>1785</ele>
        <time>2021-01-29T15:16:52Z</time>
      </trkpt>
      <trkpt lat="42.78309" lon="0.1629">
        <ele>1785</ele>
        <time>2021-01-29T15:16:53Z</time>
      </trkpt>
      <trkpt lat="42.78309" lon="0.1629">
        <ele>1785</ele>
        <time>2021-01-29T15:16:54Z</time>
      </trkpt>
      <trkpt lat="42.78309" lon="0.1629">
        <ele>1784.8</ele>
        <time>2021-01-29T15:16:55Z</time>
      </trkpt>
      <trkpt lat="42.78309" lon="0.1629">
        <ele>1784.8</ele>
        <time>2021-01-29T15:16:56Z</time>
      </trkpt>
      <trkpt lat="42.7831" lon="0.1629">
        <ele>1784.8</ele>
        <time>2021-01-29T15:16:57Z</time>
      </trkpt>
      <trkpt lat="42.7831" lon="0.16289">
        <ele>1784.6</ele>
        <time>2021-01-29T15:16:58Z</time>
      </trkpt>
      <trkpt lat="42.78314" lon="0.16286">
        <ele>1784.6</ele>
        <time>2021-01-29T15:16:59Z</time>
      </trkpt>
      <trkpt lat="42.78314" lon="0.16286">
        <ele>1784.4</ele>
        <time>2021-01-29T15:17:00Z</time>
      </trkpt>
      <trkpt lat="42.78315" lon="0.16286">
        <ele>1784.2</ele>
        <time>2021-01-29T15:17:01Z</time>
      </trkpt>
      <trkpt lat="42.78315" lon="0.16286">
        <ele>1784.2</ele>
        <time>2021-01-29T15:17:02Z</time>
      </trkpt>
      <trkpt lat="42.78315" lon="0.16286">
        <ele>1784</ele>
        <time>2021-01-29T15:17:03Z</time>
      </trkpt>
      <trkpt lat="42.78315" lon="0.16286">
        <ele>1784</ele>
        <time>2021-01-29T15:17:04Z</time>
      </trkpt>
      <trkpt lat="42.78315" lon="0.16286">
        <ele>1784</ele>
        <time>2021-01-29T15:17:05Z</time>
      </trkpt>
      <trkpt lat="42.78315" lon="0.16286">
        <ele>1784</ele>
        <time>2021-01-29T15:17:06Z</time>
      </trkpt>
      <trkpt lat="42.78315" lon="0.16286">
        <ele>1783.8</ele>
        <time>2021-01-29T15:17:07Z</time>
      </trkpt>
      <trkpt lat="42.78315" lon="0.16286">
        <ele>1783.8</ele>
        <time>2021-01-29T15:17:08Z</time>
      </trkpt>
      <trkpt lat="42.78315" lon="0.16286">
        <ele>1783.6</ele>
        <time>2021-01-29T15:17:09Z</time>
      </trkpt>
      <trkpt lat="42.78315" lon="0.16286">
        <ele>1783.6</ele>
        <time>2021-01-29T15:17:10Z</time>
      </trkpt>
      <trkpt lat="42.78319" lon="0.16285">
        <ele>1783.6</ele>
        <time>2021-01-29T15:17:11Z</time>
      </trkpt>
      <trkpt lat="42.78323" lon="0.16284">
        <ele>1783.4</ele>
        <time>2021-01-29T15:17:12Z</time>
      </trkpt>
      <trkpt lat="42.78324" lon="0.16284">
        <ele>1783.4</ele>
        <time>2021-01-29T15:17:13Z</time>
      </trkpt>
      <trkpt lat="42.78325" lon="0.16284">
        <ele>1783.2</ele>
        <time>2021-01-29T15:17:14Z</time>
      </trkpt>
      <trkpt lat="42.78325" lon="0.16284">
        <ele>1783.2</ele>
        <time>2021-01-29T15:17:15Z</time>
      </trkpt>
      <trkpt lat="42.78326" lon="0.16285">
        <ele>1783.2</ele>
        <time>2021-01-29T15:17:16Z</time>
      </trkpt>
      <trkpt lat="42.78329" lon="0.16285">
        <ele>1783.2</ele>
        <time>2021-01-29T15:17:17Z</time>
      </trkpt>
      <trkpt lat="42.78329" lon="0.16285">
        <ele>1783.2</ele>
        <time>2021-01-29T15:17:18Z</time>
      </trkpt>
      <trkpt lat="42.7833" lon="0.16286">
        <ele>1783</ele>
        <time>2021-01-29T15:17:19Z</time>
      </trkpt>
      <trkpt lat="42.7833" lon="0.16286">
        <ele>1783</ele>
        <time>2021-01-29T15:17:20Z</time>
      </trkpt>
      <trkpt lat="42.7833" lon="0.16286">
        <ele>1783</ele>
        <time>2021-01-29T15:17:21Z</time>
      </trkpt>
      <trkpt lat="42.7833" lon="0.16286">
        <ele>1782.8</ele>
        <time>2021-01-29T15:17:22Z</time>
      </trkpt>
      <trkpt lat="42.7833" lon="0.16286">
        <ele>1782.8</ele>
        <time>2021-01-29T15:17:23Z</time>
      </trkpt>
      <trkpt lat="42.7833" lon="0.16286">
        <ele>1782.8</ele>
        <time>2021-01-29T15:17:24Z</time>
      </trkpt>
      <trkpt lat="42.7833" lon="0.16286">
        <ele>1782.6</ele>
        <time>2021-01-29T15:17:25Z</time>
      </trkpt>
      <trkpt lat="42.7833" lon="0.16286">
        <ele>1782.6</ele>
        <time>2021-01-29T15:17:26Z</time>
      </trkpt>
      <trkpt lat="42.7833" lon="0.16286">
        <ele>1782.8</ele>
        <time>2021-01-29T15:17:27Z</time>
      </trkpt>
      <trkpt lat="42.7833" lon="0.16286">
        <ele>1782.8</ele>
        <time>2021-01-29T15:17:28Z</time>
      </trkpt>
      <trkpt lat="42.7833" lon="0.16286">
        <ele>1782.6</ele>
        <time>2021-01-29T15:17:29Z</time>
      </trkpt>
      <trkpt lat="42.7833" lon="0.16286">
        <ele>1782.6</ele>
        <time>2021-01-29T15:17:30Z</time>
      </trkpt>
      <trkpt lat="42.7833" lon="0.16286">
        <ele>1782.6</ele>
        <time>2021-01-29T15:17:31Z</time>
      </trkpt>
      <trkpt lat="42.7833" lon="0.16286">
        <ele>1782.6</ele>
        <time>2021-01-29T15:17:32Z</time>
      </trkpt>
      <trkpt lat="42.7833" lon="0.16286">
        <ele>1782.6</ele>
        <time>2021-01-29T15:17:33Z</time>
      </trkpt>
      <trkpt lat="42.7833" lon="0.16286">
        <ele>1782.6</ele>
        <time>2021-01-29T15:17:34Z</time>
      </trkpt>
      <trkpt lat="42.7833" lon="0.16286">
        <ele>1782.8</ele>
        <time>2021-01-29T15:17:35Z</time>
      </trkpt>
      <trkpt lat="42.7833" lon="0.16286">
        <ele>1782.8</ele>
        <time>2021-01-29T15:17:36Z</time>
      </trkpt>
      <trkpt lat="42.7833" lon="0.16286">
        <ele>1782.6</ele>
        <time>2021-01-29T15:17:37Z</time>
      </trkpt>
      <trkpt lat="42.7833" lon="0.16286">
        <ele>1782.8</ele>
        <time>2021-01-29T15:17:38Z</time>
      </trkpt>
      <trkpt lat="42.7833" lon="0.16286">
        <ele>1782.8</ele>
        <time>2021-01-29T15:17:39Z</time>
      </trkpt>
      <trkpt lat="42.7833" lon="0.16286">
        <ele>1782.8</ele>
        <time>2021-01-29T15:17:40Z</time>
      </trkpt>
      <trkpt lat="42.7833" lon="0.16286">
        <ele>1782.8</ele>
        <time>2021-01-29T15:17:41Z</time>
      </trkpt>
      <trkpt lat="42.7833" lon="0.16286">
        <ele>1782.8</ele>
        <time>2021-01-29T15:17:42Z</time>
      </trkpt>
      <trkpt lat="42.78332" lon="0.16286">
        <ele>1782.8</ele>
        <time>2021-01-29T15:17:43Z</time>
      </trkpt>
      <trkpt lat="42.78333" lon="0.16286">
        <ele>1782.8</ele>
        <time>2021-01-29T15:17:44Z</time>
      </trkpt>
      <trkpt lat="42.78333" lon="0.16286">
        <ele>1782.8</ele>
        <time>2021-01-29T15:17:45Z</time>
      </trkpt>
      <trkpt lat="42.78332" lon="0.16287">
        <ele>1782.8</ele>
        <time>2021-01-29T15:17:46Z</time>
      </trkpt>
      <trkpt lat="42.78332" lon="0.16287">
        <ele>1782.8</ele>
        <time>2021-01-29T15:17:47Z</time>
      </trkpt>
      <trkpt lat="42.78331" lon="0.16287">
        <ele>1782.8</ele>
        <time>2021-01-29T15:17:48Z</time>
      </trkpt>
      <trkpt lat="42.78331" lon="0.16286">
        <ele>1782.8</ele>
        <time>2021-01-29T15:17:49Z</time>
      </trkpt>
      <trkpt lat="42.7833" lon="0.16286">
        <ele>1782.8</ele>
        <time>2021-01-29T15:17:50Z</time>
      </trkpt>
      <trkpt lat="42.7833" lon="0.16287">
        <ele>1782.8</ele>
        <time>2021-01-29T15:17:51Z</time>
      </trkpt>
      <trkpt lat="42.7833" lon="0.16287">
        <ele>1782.8</ele>
        <time>2021-01-29T15:17:52Z</time>
      </trkpt>
      <trkpt lat="42.7833" lon="0.16286">
        <ele>1783</ele>
        <time>2021-01-29T15:17:53Z</time>
      </trkpt>
      <trkpt lat="42.7833" lon="0.16286">
        <ele>1783</ele>
        <time>2021-01-29T15:17:54Z</time>
      </trkpt>
      <trkpt lat="42.7833" lon="0.16286">
        <ele>1783</ele>
        <time>2021-01-29T15:17:55Z</time>
      </trkpt>
      <trkpt lat="42.78329" lon="0.16286">
        <ele>1783</ele>
        <time>2021-01-29T15:17:56Z</time>
      </trkpt>
      <trkpt lat="42.78329" lon="0.16286">
        <ele>1783</ele>
        <time>2021-01-29T15:17:57Z</time>
      </trkpt>
      <trkpt lat="42.78329" lon="0.16286">
        <ele>1783</ele>
        <time>2021-01-29T15:17:58Z</time>
      </trkpt>
      <trkpt lat="42.78329" lon="0.16286">
        <ele>1783</ele>
        <time>2021-01-29T15:17:59Z</time>
      </trkpt>
      <trkpt lat="42.78329" lon="0.16285">
        <ele>1783</ele>
        <time>2021-01-29T15:18:00Z</time>
      </trkpt>
      <trkpt lat="42.78328" lon="0.16285">
        <ele>1783</ele>
        <time>2021-01-29T15:18:01Z</time>
      </trkpt>
      <trkpt lat="42.78328" lon="0.16285">
        <ele>1783</ele>
        <time>2021-01-29T15:18:02Z</time>
      </trkpt>
      <trkpt lat="42.78328" lon="0.16285">
        <ele>1782.8</ele>
        <time>2021-01-29T15:18:03Z</time>
      </trkpt>
      <trkpt lat="42.78328" lon="0.16285">
        <ele>1782.8</ele>
        <time>2021-01-29T15:18:04Z</time>
      </trkpt>
      <trkpt lat="42.78328" lon="0.16285">
        <ele>1783</ele>
        <time>2021-01-29T15:18:05Z</time>
      </trkpt>
      <trkpt lat="42.78328" lon="0.16285">
        <ele>1783</ele>
        <time>2021-01-29T15:18:06Z</time>
      </trkpt>
      <trkpt lat="42.78329" lon="0.16285">
        <ele>1783.2</ele>
        <time>2021-01-29T15:18:07Z</time>
      </trkpt>
      <trkpt lat="42.78329" lon="0.16284">
        <ele>1783.2</ele>
        <time>2021-01-29T15:18:08Z</time>
      </trkpt>
      <trkpt lat="42.78329" lon="0.16284">
        <ele>1783.2</ele>
        <time>2021-01-29T15:18:09Z</time>
      </trkpt>
      <trkpt lat="42.78329" lon="0.16284">
        <ele>1783.2</ele>
        <time>2021-01-29T15:18:10Z</time>
      </trkpt>
      <trkpt lat="42.7833" lon="0.16284">
        <ele>1783.2</ele>
        <time>2021-01-29T15:18:11Z</time>
      </trkpt>
      <trkpt lat="42.7833" lon="0.16285">
        <ele>1783.2</ele>
        <time>2021-01-29T15:18:12Z</time>
      </trkpt>
      <trkpt lat="42.7833" lon="0.16285">
        <ele>1783.4</ele>
        <time>2021-01-29T15:18:13Z</time>
      </trkpt>
      <trkpt lat="42.7833" lon="0.16285">
        <ele>1783.2</ele>
        <time>2021-01-29T15:18:14Z</time>
      </trkpt>
      <trkpt lat="42.7833" lon="0.16285">
        <ele>1783.4</ele>
        <time>2021-01-29T15:18:15Z</time>
      </trkpt>
      <trkpt lat="42.78329" lon="0.16286">
        <ele>1783.4</ele>
        <time>2021-01-29T15:18:16Z</time>
      </trkpt>
      <trkpt lat="42.78328" lon="0.16286">
        <ele>1783.4</ele>
        <time>2021-01-29T15:18:17Z</time>
      </trkpt>
      <trkpt lat="42.78327" lon="0.16286">
        <ele>1783.4</ele>
        <time>2021-01-29T15:18:18Z</time>
      </trkpt>
      <trkpt lat="42.78327" lon="0.16285">
        <ele>1783.4</ele>
        <time>2021-01-29T15:18:19Z</time>
      </trkpt>
      <trkpt lat="42.78326" lon="0.16286">
        <ele>1783.4</ele>
        <time>2021-01-29T15:18:20Z</time>
      </trkpt>
      <trkpt lat="42.78326" lon="0.16286">
        <ele>1783.4</ele>
        <time>2021-01-29T15:18:21Z</time>
      </trkpt>
      <trkpt lat="42.78326" lon="0.16286">
        <ele>1783.6</ele>
        <time>2021-01-29T15:18:22Z</time>
      </trkpt>
      <trkpt lat="42.78326" lon="0.16286">
        <ele>1783.6</ele>
        <time>2021-01-29T15:18:23Z</time>
      </trkpt>
      <trkpt lat="42.78326" lon="0.16286">
        <ele>1783.6</ele>
        <time>2021-01-29T15:18:24Z</time>
      </trkpt>
      <trkpt lat="42.78326" lon="0.16286">
        <ele>1783.6</ele>
        <time>2021-01-29T15:18:25Z</time>
      </trkpt>
      <trkpt lat="42.78326" lon="0.16286">
        <ele>1783.6</ele>
        <time>2021-01-29T15:18:26Z</time>
      </trkpt>
      <trkpt lat="42.78326" lon="0.16286">
        <ele>1783.6</ele>
        <time>2021-01-29T15:18:27Z</time>
      </trkpt>
      <trkpt lat="42.78326" lon="0.16286">
        <ele>1783.6</ele>
        <time>2021-01-29T15:18:28Z</time>
      </trkpt>
      <trkpt lat="42.78326" lon="0.16286">
        <ele>1783.6</ele>
        <time>2021-01-29T15:18:29Z</time>
      </trkpt>
      <trkpt lat="42.78326" lon="0.16286">
        <ele>1783.6</ele>
        <time>2021-01-29T15:18:30Z</time>
      </trkpt>
      <trkpt lat="42.78326" lon="0.16286">
        <ele>1783.6</ele>
        <time>2021-01-29T15:18:31Z</time>
      </trkpt>
      <trkpt lat="42.78326" lon="0.16286">
        <ele>1783.6</ele>
        <time>2021-01-29T15:18:32Z</time>
      </trkpt>
      <trkpt lat="42.78326" lon="0.16286">
        <ele>1783.8</ele>
        <time>2021-01-29T15:18:33Z</time>
      </trkpt>
      <trkpt lat="42.78326" lon="0.16286">
        <ele>1783.8</ele>
        <time>2021-01-29T15:18:34Z</time>
      </trkpt>
      <trkpt lat="42.78326" lon="0.16286">
        <ele>1783.8</ele>
        <time>2021-01-29T15:18:35Z</time>
      </trkpt>
      <trkpt lat="42.78326" lon="0.16286">
        <ele>1783.8</ele>
        <time>2021-01-29T15:18:36Z</time>
      </trkpt>
      <trkpt lat="42.78326" lon="0.16286">
        <ele>1783.8</ele>
        <time>2021-01-29T15:18:37Z</time>
      </trkpt>
      <trkpt lat="42.78326" lon="0.16286">
        <ele>1783.8</ele>
        <time>2021-01-29T15:18:38Z</time>
      </trkpt>
      <trkpt lat="42.78326" lon="0.16286">
        <ele>1783.8</ele>
        <time>2021-01-29T15:18:39Z</time>
      </trkpt>
      <trkpt lat="42.78327" lon="0.16287">
        <ele>1783.8</ele>
        <time>2021-01-29T15:18:40Z</time>
      </trkpt>
      <trkpt lat="42.78329" lon="0.16289">
        <ele>1783.8</ele>
        <time>2021-01-29T15:18:41Z</time>
      </trkpt>
      <trkpt lat="42.78329" lon="0.16289">
        <ele>1783.8</ele>
        <time>2021-01-29T15:18:42Z</time>
      </trkpt>
      <trkpt lat="42.7833" lon="0.16289">
        <ele>1783.8</ele>
        <time>2021-01-29T15:18:43Z</time>
      </trkpt>
      <trkpt lat="42.7833" lon="0.16289">
        <ele>1783.8</ele>
        <time>2021-01-29T15:18:44Z</time>
      </trkpt>
      <trkpt lat="42.7833" lon="0.16288">
        <ele>1783.8</ele>
        <time>2021-01-29T15:18:45Z</time>
      </trkpt>
      <trkpt lat="42.78331" lon="0.16288">
        <ele>1784</ele>
        <time>2021-01-29T15:18:46Z</time>
      </trkpt>
      <trkpt lat="42.78331" lon="0.16288">
        <ele>1784</ele>
        <time>2021-01-29T15:18:47Z</time>
      </trkpt>
      <trkpt lat="42.78331" lon="0.16288">
        <ele>1784</ele>
        <time>2021-01-29T15:18:48Z</time>
      </trkpt>
      <trkpt lat="42.78331" lon="0.16288">
        <ele>1784</ele>
        <time>2021-01-29T15:18:49Z</time>
      </trkpt>
      <trkpt lat="42.78331" lon="0.16288">
        <ele>1784.2</ele>
        <time>2021-01-29T15:18:50Z</time>
      </trkpt>
      <trkpt lat="42.78331" lon="0.16288">
        <ele>1784.2</ele>
        <time>2021-01-29T15:18:51Z</time>
      </trkpt>
      <trkpt lat="42.78331" lon="0.16288">
        <ele>1784.2</ele>
        <time>2021-01-29T15:18:52Z</time>
      </trkpt>
      <trkpt lat="42.78331" lon="0.16288">
        <ele>1784.2</ele>
        <time>2021-01-29T15:18:53Z</time>
      </trkpt>
      <trkpt lat="42.78332" lon="0.16289">
        <ele>1784.2</ele>
        <time>2021-01-29T15:18:54Z</time>
      </trkpt>
      <trkpt lat="42.78333" lon="0.16289">
        <ele>1784.2</ele>
        <time>2021-01-29T15:18:55Z</time>
      </trkpt>
      <trkpt lat="42.78333" lon="0.16289">
        <ele>1784.2</ele>
        <time>2021-01-29T15:18:56Z</time>
      </trkpt>
      <trkpt lat="42.78333" lon="0.1629">
        <ele>1784.2</ele>
        <time>2021-01-29T15:18:57Z</time>
      </trkpt>
      <trkpt lat="42.78333" lon="0.1629">
        <ele>1784.2</ele>
        <time>2021-01-29T15:18:58Z</time>
      </trkpt>
      <trkpt lat="42.78333" lon="0.1629">
        <ele>1784.2</ele>
        <time>2021-01-29T15:18:59Z</time>
      </trkpt>
      <trkpt lat="42.78333" lon="0.1629">
        <ele>1784.2</ele>
        <time>2021-01-29T15:19:00Z</time>
      </trkpt>
      <trkpt lat="42.78333" lon="0.1629">
        <ele>1784.2</ele>
        <time>2021-01-29T15:19:01Z</time>
      </trkpt>
      <trkpt lat="42.78333" lon="0.1629">
        <ele>1784.2</ele>
        <time>2021-01-29T15:19:02Z</time>
      </trkpt>
      <trkpt lat="42.78333" lon="0.1629">
        <ele>1784.2</ele>
        <time>2021-01-29T15:19:03Z</time>
      </trkpt>
      <trkpt lat="42.78333" lon="0.1629">
        <ele>1784.2</ele>
        <time>2021-01-29T15:19:04Z</time>
      </trkpt>
      <trkpt lat="42.78333" lon="0.1629">
        <ele>1784.2</ele>
        <time>2021-01-29T15:19:05Z</time>
      </trkpt>
      <trkpt lat="42.78333" lon="0.1629">
        <ele>1784.4</ele>
        <time>2021-01-29T15:19:06Z</time>
      </trkpt>
      <trkpt lat="42.78333" lon="0.1629">
        <ele>1784.4</ele>
        <time>2021-01-29T15:19:07Z</time>
      </trkpt>
      <trkpt lat="42.78333" lon="0.1629">
        <ele>1784.4</ele>
        <time>2021-01-29T15:19:08Z</time>
      </trkpt>
      <trkpt lat="42.78333" lon="0.1629">
        <ele>1784.4</ele>
        <time>2021-01-29T15:19:09Z</time>
      </trkpt>
      <trkpt lat="42.78333" lon="0.1629">
        <ele>1784.4</ele>
        <time>2021-01-29T15:19:10Z</time>
      </trkpt>
      <trkpt lat="42.78333" lon="0.1629">
        <ele>1784.4</ele>
        <time>2021-01-29T15:19:11Z</time>
      </trkpt>
      <trkpt lat="42.78333" lon="0.1629">
        <ele>1784.4</ele>
        <time>2021-01-29T15:19:12Z</time>
      </trkpt>
      <trkpt lat="42.78333" lon="0.1629">
        <ele>1784.4</ele>
        <time>2021-01-29T15:19:13Z</time>
      </trkpt>
      <trkpt lat="42.78333" lon="0.1629">
        <ele>1784.4</ele>
        <time>2021-01-29T15:19:14Z</time>
      </trkpt>
      <trkpt lat="42.78333" lon="0.1629">
        <ele>1784.6</ele>
        <time>2021-01-29T15:19:15Z</time>
      </trkpt>
      <trkpt lat="42.78333" lon="0.1629">
        <ele>1784.6</ele>
        <time>2021-01-29T15:19:16Z</time>
      </trkpt>
      <trkpt lat="42.78333" lon="0.1629">
        <ele>1784.6</ele>
        <time>2021-01-29T15:19:17Z</time>
      </trkpt>
      <trkpt lat="42.78333" lon="0.1629">
        <ele>1784.6</ele>
        <time>2021-01-29T15:19:18Z</time>
      </trkpt>
      <trkpt lat="42.78333" lon="0.1629">
        <ele>1784.6</ele>
        <time>2021-01-29T15:19:19Z</time>
      </trkpt>
      <trkpt lat="42.78333" lon="0.1629">
        <ele>1784.6</ele>
        <time>2021-01-29T15:19:20Z</time>
      </trkpt>
      <trkpt lat="42.78333" lon="0.1629">
        <ele>1784.6</ele>
        <time>2021-01-29T15:19:21Z</time>
      </trkpt>
      <trkpt lat="42.78333" lon="0.1629">
        <ele>1784.6</ele>
        <time>2021-01-29T15:19:22Z</time>
      </trkpt>
      <trkpt lat="42.78333" lon="0.1629">
        <ele>1784.6</ele>
        <time>2021-01-29T15:19:23Z</time>
      </trkpt>
      <trkpt lat="42.78333" lon="0.1629">
        <ele>1784.6</ele>
        <time>2021-01-29T15:19:24Z</time>
      </trkpt>
      <trkpt lat="42.78333" lon="0.1629">
        <ele>1784.6</ele>
        <time>2021-01-29T15:19:25Z</time>
      </trkpt>
      <trkpt lat="42.78333" lon="0.1629">
        <ele>1784.8</ele>
        <time>2021-01-29T15:19:26Z</time>
      </trkpt>
      <trkpt lat="42.78333" lon="0.1629">
        <ele>1784.6</ele>
        <time>2021-01-29T15:19:27Z</time>
      </trkpt>
      <trkpt lat="42.78333" lon="0.1629">
        <ele>1784.6</ele>
        <time>2021-01-29T15:19:28Z</time>
      </trkpt>
      <trkpt lat="42.78333" lon="0.1629">
        <ele>1784.6</ele>
        <time>2021-01-29T15:19:29Z</time>
      </trkpt>
      <trkpt lat="42.78333" lon="0.1629">
        <ele>1784.6</ele>
        <time>2021-01-29T15:19:30Z</time>
      </trkpt>
      <trkpt lat="42.78333" lon="0.1629">
        <ele>1784.8</ele>
        <time>2021-01-29T15:19:31Z</time>
      </trkpt>
      <trkpt lat="42.78333" lon="0.1629">
        <ele>1784.8</ele>
        <time>2021-01-29T15:19:32Z</time>
      </trkpt>
      <trkpt lat="42.78333" lon="0.1629">
        <ele>1785</ele>
        <time>2021-01-29T15:19:33Z</time>
      </trkpt>
      <trkpt lat="42.78333" lon="0.1629">
        <ele>1785</ele>
        <time>2021-01-29T15:19:34Z</time>
      </trkpt>
      <trkpt lat="42.78333" lon="0.1629">
        <ele>1785</ele>
        <time>2021-01-29T15:19:35Z</time>
      </trkpt>
      <trkpt lat="42.78333" lon="0.1629">
        <ele>1785</ele>
        <time>2021-01-29T15:19:36Z</time>
      </trkpt>
      <trkpt lat="42.78333" lon="0.1629">
        <ele>1785</ele>
        <time>2021-01-29T15:19:37Z</time>
      </trkpt>
      <trkpt lat="42.78333" lon="0.1629">
        <ele>1785</ele>
        <time>2021-01-29T15:19:38Z</time>
      </trkpt>
      <trkpt lat="42.78333" lon="0.1629">
        <ele>1785</ele>
        <time>2021-01-29T15:19:39Z</time>
      </trkpt>
      <trkpt lat="42.78333" lon="0.1629">
        <ele>1785</ele>
        <time>2021-01-29T15:19:40Z</time>
      </trkpt>
      <trkpt lat="42.78333" lon="0.1629">
        <ele>1785</ele>
        <time>2021-01-29T15:19:41Z</time>
      </trkpt>
      <trkpt lat="42.78333" lon="0.1629">
        <ele>1785</ele>
        <time>2021-01-29T15:19:42Z</time>
      </trkpt>
      <trkpt lat="42.78333" lon="0.1629">
        <ele>1785</ele>
        <time>2021-01-29T15:19:43Z</time>
      </trkpt>
      <trkpt lat="42.78333" lon="0.1629">
        <ele>1785</ele>
        <time>2021-01-29T15:19:44Z</time>
      </trkpt>
      <trkpt lat="42.78333" lon="0.1629">
        <ele>1785.2</ele>
        <time>2021-01-29T15:19:45Z</time>
      </trkpt>
      <trkpt lat="42.78333" lon="0.1629">
        <ele>1785.2</ele>
        <time>2021-01-29T15:19:46Z</time>
      </trkpt>
      <trkpt lat="42.78333" lon="0.1629">
        <ele>1785.2</ele>
        <time>2021-01-29T15:19:47Z</time>
      </trkpt>
      <trkpt lat="42.78333" lon="0.1629">
        <ele>1785.2</ele>
        <time>2021-01-29T15:19:48Z</time>
      </trkpt>
      <trkpt lat="42.78333" lon="0.1629">
        <ele>1785.2</ele>
        <time>2021-01-29T15:19:49Z</time>
      </trkpt>
      <trkpt lat="42.78333" lon="0.1629">
        <ele>1785.2</ele>
        <time>2021-01-29T15:19:50Z</time>
      </trkpt>
      <trkpt lat="42.78333" lon="0.1629">
        <ele>1785.2</ele>
        <time>2021-01-29T15:19:51Z</time>
      </trkpt>
      <trkpt lat="42.78333" lon="0.1629">
        <ele>1785.2</ele>
        <time>2021-01-29T15:19:52Z</time>
      </trkpt>
      <trkpt lat="42.78333" lon="0.1629">
        <ele>1785.2</ele>
        <time>2021-01-29T15:19:53Z</time>
      </trkpt>
      <trkpt lat="42.78333" lon="0.1629">
        <ele>1785.2</ele>
        <time>2021-01-29T15:19:54Z</time>
      </trkpt>
      <trkpt lat="42.78333" lon="0.1629">
        <ele>1785.2</ele>
        <time>2021-01-29T15:19:55Z</time>
      </trkpt>
      <trkpt lat="42.78333" lon="0.1629">
        <ele>1785.2</ele>
        <time>2021-01-29T15:19:56Z</time>
      </trkpt>
      <trkpt lat="42.78333" lon="0.1629">
        <ele>1785.2</ele>
        <time>2021-01-29T15:19:57Z</time>
      </trkpt>
      <trkpt lat="42.78333" lon="0.1629">
        <ele>1785.2</ele>
        <time>2021-01-29T15:19:58Z</time>
      </trkpt>
      <trkpt lat="42.78333" lon="0.1629">
        <ele>1785.2</ele>
        <time>2021-01-29T15:19:59Z</time>
      </trkpt>
      <trkpt lat="42.78333" lon="0.1629">
        <ele>1785.2</ele>
        <time>2021-01-29T15:20:00Z</time>
      </trkpt>
      <trkpt lat="42.78333" lon="0.1629">
        <ele>1785.2</ele>
        <time>2021-01-29T15:20:01Z</time>
      </trkpt>
      <trkpt lat="42.78333" lon="0.1629">
        <ele>1785.2</ele>
        <time>2021-01-29T15:20:02Z</time>
      </trkpt>
      <trkpt lat="42.78333" lon="0.1629">
        <ele>1785.2</ele>
        <time>2021-01-29T15:20:03Z</time>
      </trkpt>
      <trkpt lat="42.78333" lon="0.1629">
        <ele>1785.2</ele>
        <time>2021-01-29T15:20:04Z</time>
      </trkpt>
      <trkpt lat="42.78333" lon="0.1629">
        <ele>1785.4</ele>
        <time>2021-01-29T15:20:05Z</time>
      </trkpt>
      <trkpt lat="42.78333" lon="0.1629">
        <ele>1785.4</ele>
        <time>2021-01-29T15:20:06Z</time>
      </trkpt>
      <trkpt lat="42.78333" lon="0.1629">
        <ele>1785.2</ele>
        <time>2021-01-29T15:20:07Z</time>
      </trkpt>
      <trkpt lat="42.78333" lon="0.1629">
        <ele>1785.2</ele>
        <time>2021-01-29T15:20:08Z</time>
      </trkpt>
      <trkpt lat="42.78333" lon="0.1629">
        <ele>1785.4</ele>
        <time>2021-01-29T15:20:09Z</time>
      </trkpt>
      <trkpt lat="42.78333" lon="0.1629">
        <ele>1785.2</ele>
        <time>2021-01-29T15:20:10Z</time>
      </trkpt>
      <trkpt lat="42.78333" lon="0.1629">
        <ele>1785.2</ele>
        <time>2021-01-29T15:20:11Z</time>
      </trkpt>
      <trkpt lat="42.78333" lon="0.1629">
        <ele>1785.2</ele>
        <time>2021-01-29T15:20:12Z</time>
      </trkpt>
      <trkpt lat="42.78333" lon="0.1629">
        <ele>1785.2</ele>
        <time>2021-01-29T15:20:13Z</time>
      </trkpt>
      <trkpt lat="42.78333" lon="0.1629">
        <ele>1785.2</ele>
        <time>2021-01-29T15:20:14Z</time>
      </trkpt>
      <trkpt lat="42.78333" lon="0.1629">
        <ele>1785.2</ele>
        <time>2021-01-29T15:20:15Z</time>
      </trkpt>
      <trkpt lat="42.78333" lon="0.1629">
        <ele>1785.4</ele>
        <time>2021-01-29T15:20:16Z</time>
      </trkpt>
      <trkpt lat="42.78333" lon="0.1629">
        <ele>1785.4</ele>
        <time>2021-01-29T15:20:17Z</time>
      </trkpt>
      <trkpt lat="42.78333" lon="0.1629">
        <ele>1785.4</ele>
        <time>2021-01-29T15:20:18Z</time>
      </trkpt>
      <trkpt lat="42.78333" lon="0.1629">
        <ele>1785.4</ele>
        <time>2021-01-29T15:20:19Z</time>
      </trkpt>
      <trkpt lat="42.78333" lon="0.1629">
        <ele>1785.4</ele>
        <time>2021-01-29T15:20:20Z</time>
      </trkpt>
      <trkpt lat="42.78333" lon="0.1629">
        <ele>1785.4</ele>
        <time>2021-01-29T15:20:21Z</time>
      </trkpt>
      <trkpt lat="42.78333" lon="0.1629">
        <ele>1785.4</ele>
        <time>2021-01-29T15:20:22Z</time>
      </trkpt>
      <trkpt lat="42.78333" lon="0.1629">
        <ele>1785.4</ele>
        <time>2021-01-29T15:20:23Z</time>
      </trkpt>
      <trkpt lat="42.78333" lon="0.1629">
        <ele>1785.4</ele>
        <time>2021-01-29T15:20:24Z</time>
      </trkpt>
      <trkpt lat="42.78333" lon="0.1629">
        <ele>1785.4</ele>
        <time>2021-01-29T15:20:25Z</time>
      </trkpt>
      <trkpt lat="42.78333" lon="0.1629">
        <ele>1785.2</ele>
        <time>2021-01-29T15:20:26Z</time>
      </trkpt>
      <trkpt lat="42.78333" lon="0.1629">
        <ele>1785.4</ele>
        <time>2021-01-29T15:20:27Z</time>
      </trkpt>
      <trkpt lat="42.78333" lon="0.1629">
        <ele>1785.4</ele>
        <time>2021-01-29T15:20:28Z</time>
      </trkpt>
      <trkpt lat="42.78333" lon="0.1629">
        <ele>1785.4</ele>
        <time>2021-01-29T15:20:29Z</time>
      </trkpt>
      <trkpt lat="42.78333" lon="0.1629">
        <ele>1785.4</ele>
        <time>2021-01-29T15:20:30Z</time>
      </trkpt>
      <trkpt lat="42.78333" lon="0.1629">
        <ele>1785.4</ele>
        <time>2021-01-29T15:20:31Z</time>
      </trkpt>
      <trkpt lat="42.78333" lon="0.1629">
        <ele>1785.4</ele>
        <time>2021-01-29T15:20:32Z</time>
      </trkpt>
      <trkpt lat="42.78333" lon="0.1629">
        <ele>1785.4</ele>
        <time>2021-01-29T15:20:33Z</time>
      </trkpt>
      <trkpt lat="42.78333" lon="0.1629">
        <ele>1785.4</ele>
        <time>2021-01-29T15:20:34Z</time>
      </trkpt>
      <trkpt lat="42.78333" lon="0.1629">
        <ele>1785.4</ele>
        <time>2021-01-29T15:20:35Z</time>
      </trkpt>
      <trkpt lat="42.78333" lon="0.1629">
        <ele>1785.4</ele>
        <time>2021-01-29T15:20:36Z</time>
      </trkpt>
      <trkpt lat="42.78333" lon="0.1629">
        <ele>1785.4</ele>
        <time>2021-01-29T15:20:37Z</time>
      </trkpt>
      <trkpt lat="42.78333" lon="0.1629">
        <ele>1785.4</ele>
        <time>2021-01-29T15:20:38Z</time>
      </trkpt>
      <trkpt lat="42.78333" lon="0.1629">
        <ele>1785.4</ele>
        <time>2021-01-29T15:20:39Z</time>
      </trkpt>
      <trkpt lat="42.78333" lon="0.1629">
        <ele>1785.4</ele>
        <time>2021-01-29T15:20:40Z</time>
      </trkpt>
      <trkpt lat="42.78333" lon="0.1629">
        <ele>1785.4</ele>
        <time>2021-01-29T15:20:41Z</time>
      </trkpt>
      <trkpt lat="42.78333" lon="0.1629">
        <ele>1785.4</ele>
        <time>2021-01-29T15:20:42Z</time>
      </trkpt>
      <trkpt lat="42.78333" lon="0.1629">
        <ele>1785.4</ele>
        <time>2021-01-29T15:20:43Z</time>
      </trkpt>
      <trkpt lat="42.78333" lon="0.1629">
        <ele>1785.4</ele>
        <time>2021-01-29T15:20:44Z</time>
      </trkpt>
      <trkpt lat="42.78333" lon="0.1629">
        <ele>1785.4</ele>
        <time>2021-01-29T15:20:45Z</time>
      </trkpt>
      <trkpt lat="42.78333" lon="0.1629">
        <ele>1785.4</ele>
        <time>2021-01-29T15:20:46Z</time>
      </trkpt>
      <trkpt lat="42.78333" lon="0.1629">
        <ele>1785.4</ele>
        <time>2021-01-29T15:20:47Z</time>
      </trkpt>
      <trkpt lat="42.78333" lon="0.1629">
        <ele>1785.4</ele>
        <time>2021-01-29T15:20:48Z</time>
      </trkpt>
      <trkpt lat="42.78333" lon="0.1629">
        <ele>1785.4</ele>
        <time>2021-01-29T15:20:49Z</time>
      </trkpt>
      <trkpt lat="42.78333" lon="0.1629">
        <ele>1785.4</ele>
        <time>2021-01-29T15:20:50Z</time>
      </trkpt>
      <trkpt lat="42.78333" lon="0.1629">
        <ele>1785.4</ele>
        <time>2021-01-29T15:20:51Z</time>
      </trkpt>
      <trkpt lat="42.78333" lon="0.1629">
        <ele>1785.4</ele>
        <time>2021-01-29T15:20:52Z</time>
      </trkpt>
      <trkpt lat="42.78333" lon="0.1629">
        <ele>1785.4</ele>
        <time>2021-01-29T15:20:53Z</time>
      </trkpt>
      <trkpt lat="42.78333" lon="0.1629">
        <ele>1785.4</ele>
        <time>2021-01-29T15:20:54Z</time>
      </trkpt>
      <trkpt lat="42.78333" lon="0.1629">
        <ele>1785.4</ele>
        <time>2021-01-29T15:20:55Z</time>
      </trkpt>
      <trkpt lat="42.78333" lon="0.1629">
        <ele>1785.4</ele>
        <time>2021-01-29T15:20:56Z</time>
      </trkpt>
      <trkpt lat="42.78333" lon="0.1629">
        <ele>1785.4</ele>
        <time>2021-01-29T15:20:57Z</time>
      </trkpt>
      <trkpt lat="42.78333" lon="0.1629">
        <ele>1785.4</ele>
        <time>2021-01-29T15:20:58Z</time>
      </trkpt>
      <trkpt lat="42.78333" lon="0.1629">
        <ele>1785.4</ele>
        <time>2021-01-29T15:20:59Z</time>
      </trkpt>
      <trkpt lat="42.78333" lon="0.1629">
        <ele>1785.4</ele>
        <time>2021-01-29T15:21:00Z</time>
      </trkpt>
      <trkpt lat="42.78333" lon="0.1629">
        <ele>1785.4</ele>
        <time>2021-01-29T15:21:01Z</time>
      </trkpt>
      <trkpt lat="42.78333" lon="0.1629">
        <ele>1785.2</ele>
        <time>2021-01-29T15:21:02Z</time>
      </trkpt>
      <trkpt lat="42.78333" lon="0.1629">
        <ele>1785.4</ele>
        <time>2021-01-29T15:21:03Z</time>
      </trkpt>
      <trkpt lat="42.78333" lon="0.1629">
        <ele>1785.4</ele>
        <time>2021-01-29T15:21:04Z</time>
      </trkpt>
      <trkpt lat="42.78333" lon="0.1629">
        <ele>1785.4</ele>
        <time>2021-01-29T15:21:05Z</time>
      </trkpt>
      <trkpt lat="42.78333" lon="0.1629">
        <ele>1785.4</ele>
        <time>2021-01-29T15:21:06Z</time>
      </trkpt>
      <trkpt lat="42.78333" lon="0.1629">
        <ele>1785.4</ele>
        <time>2021-01-29T15:21:07Z</time>
      </trkpt>
      <trkpt lat="42.78333" lon="0.1629">
        <ele>1785.4</ele>
        <time>2021-01-29T15:21:08Z</time>
      </trkpt>
      <trkpt lat="42.78333" lon="0.1629">
        <ele>1785.4</ele>
        <time>2021-01-29T15:21:09Z</time>
      </trkpt>
      <trkpt lat="42.78333" lon="0.1629">
        <ele>1785.4</ele>
        <time>2021-01-29T15:21:10Z</time>
      </trkpt>
      <trkpt lat="42.78333" lon="0.1629">
        <ele>1785.4</ele>
        <time>2021-01-29T15:21:11Z</time>
      </trkpt>
      <trkpt lat="42.78333" lon="0.1629">
        <ele>1785.4</ele>
        <time>2021-01-29T15:21:12Z</time>
      </trkpt>
      <trkpt lat="42.78333" lon="0.1629">
        <ele>1785.4</ele>
        <time>2021-01-29T15:21:13Z</time>
      </trkpt>
      <trkpt lat="42.78333" lon="0.1629">
        <ele>1785.4</ele>
        <time>2021-01-29T15:21:14Z</time>
      </trkpt>
      <trkpt lat="42.78333" lon="0.1629">
        <ele>1785.4</ele>
        <time>2021-01-29T15:21:15Z</time>
      </trkpt>
      <trkpt lat="42.78333" lon="0.1629">
        <ele>1785.4</ele>
        <time>2021-01-29T15:21:16Z</time>
      </trkpt>
      <trkpt lat="42.78333" lon="0.1629">
        <ele>1785.4</ele>
        <time>2021-01-29T15:21:17Z</time>
      </trkpt>
      <trkpt lat="42.78333" lon="0.1629">
        <ele>1785.4</ele>
        <time>2021-01-29T15:21:18Z</time>
      </trkpt>
      <trkpt lat="42.78333" lon="0.1629">
        <ele>1785.4</ele>
        <time>2021-01-29T15:21:19Z</time>
      </trkpt>
      <trkpt lat="42.78333" lon="0.1629">
        <ele>1785.4</ele>
        <time>2021-01-29T15:21:20Z</time>
      </trkpt>
      <trkpt lat="42.78333" lon="0.1629">
        <ele>1785.4</ele>
        <time>2021-01-29T15:21:21Z</time>
      </trkpt>
      <trkpt lat="42.78333" lon="0.1629">
        <ele>1785.4</ele>
        <time>2021-01-29T15:21:22Z</time>
      </trkpt>
      <trkpt lat="42.78333" lon="0.1629">
        <ele>1785.4</ele>
        <time>2021-01-29T15:21:23Z</time>
      </trkpt>
      <trkpt lat="42.78333" lon="0.1629">
        <ele>1785.4</ele>
        <time>2021-01-29T15:21:24Z</time>
      </trkpt>
      <trkpt lat="42.78333" lon="0.1629">
        <ele>1785.4</ele>
        <time>2021-01-29T15:21:25Z</time>
      </trkpt>
      <trkpt lat="42.78333" lon="0.1629">
        <ele>1785.4</ele>
        <time>2021-01-29T15:21:26Z</time>
      </trkpt>
      <trkpt lat="42.78333" lon="0.1629">
        <ele>1785.4</ele>
        <time>2021-01-29T15:21:27Z</time>
      </trkpt>
      <trkpt lat="42.78333" lon="0.1629">
        <ele>1785.4</ele>
        <time>2021-01-29T15:21:28Z</time>
      </trkpt>
      <trkpt lat="42.78333" lon="0.1629">
        <ele>1785.4</ele>
        <time>2021-01-29T15:21:29Z</time>
      </trkpt>
      <trkpt lat="42.78333" lon="0.1629">
        <ele>1785.4</ele>
        <time>2021-01-29T15:21:30Z</time>
      </trkpt>
      <trkpt lat="42.78333" lon="0.1629">
        <ele>1785.2</ele>
        <time>2021-01-29T15:21:31Z</time>
      </trkpt>
      <trkpt lat="42.78333" lon="0.1629">
        <ele>1785.2</ele>
        <time>2021-01-29T15:21:32Z</time>
      </trkpt>
      <trkpt lat="42.78333" lon="0.1629">
        <ele>1785.2</ele>
        <time>2021-01-29T15:21:33Z</time>
      </trkpt>
      <trkpt lat="42.78333" lon="0.1629">
        <ele>1785</ele>
        <time>2021-01-29T15:21:34Z</time>
      </trkpt>
      <trkpt lat="42.78333" lon="0.1629">
        <ele>1785.2</ele>
        <time>2021-01-29T15:21:35Z</time>
      </trkpt>
      <trkpt lat="42.78333" lon="0.1629">
        <ele>1785.2</ele>
        <time>2021-01-29T15:21:36Z</time>
      </trkpt>
      <trkpt lat="42.78333" lon="0.1629">
        <ele>1785.2</ele>
        <time>2021-01-29T15:21:37Z</time>
      </trkpt>
      <trkpt lat="42.78333" lon="0.1629">
        <ele>1785.4</ele>
        <time>2021-01-29T15:21:38Z</time>
      </trkpt>
      <trkpt lat="42.78333" lon="0.1629">
        <ele>1785.4</ele>
        <time>2021-01-29T15:21:39Z</time>
      </trkpt>
      <trkpt lat="42.78333" lon="0.1629">
        <ele>1785.4</ele>
        <time>2021-01-29T15:21:40Z</time>
      </trkpt>
      <trkpt lat="42.78333" lon="0.1629">
        <ele>1785.4</ele>
        <time>2021-01-29T15:21:41Z</time>
      </trkpt>
      <trkpt lat="42.78333" lon="0.1629">
        <ele>1785.4</ele>
        <time>2021-01-29T15:21:42Z</time>
      </trkpt>
      <trkpt lat="42.78333" lon="0.1629">
        <ele>1785.4</ele>
        <time>2021-01-29T15:21:43Z</time>
      </trkpt>
      <trkpt lat="42.78333" lon="0.1629">
        <ele>1785.4</ele>
        <time>2021-01-29T15:21:44Z</time>
      </trkpt>
      <trkpt lat="42.78333" lon="0.1629">
        <ele>1785.4</ele>
        <time>2021-01-29T15:21:45Z</time>
      </trkpt>
      <trkpt lat="42.78333" lon="0.1629">
        <ele>1785.4</ele>
        <time>2021-01-29T15:21:46Z</time>
      </trkpt>
      <trkpt lat="42.78333" lon="0.1629">
        <ele>1785.4</ele>
        <time>2021-01-29T15:21:47Z</time>
      </trkpt>
      <trkpt lat="42.78333" lon="0.1629">
        <ele>1785.4</ele>
        <time>2021-01-29T15:21:48Z</time>
      </trkpt>
      <trkpt lat="42.78333" lon="0.1629">
        <ele>1785.4</ele>
        <time>2021-01-29T15:21:49Z</time>
      </trkpt>
      <trkpt lat="42.78333" lon="0.1629">
        <ele>1785.4</ele>
        <time>2021-01-29T15:21:50Z</time>
      </trkpt>
      <trkpt lat="42.78333" lon="0.1629">
        <ele>1785.4</ele>
        <time>2021-01-29T15:21:51Z</time>
      </trkpt>
      <trkpt lat="42.78333" lon="0.1629">
        <ele>1785.4</ele>
        <time>2021-01-29T15:21:52Z</time>
      </trkpt>
      <trkpt lat="42.78333" lon="0.1629">
        <ele>1785.6</ele>
        <time>2021-01-29T15:21:53Z</time>
      </trkpt>
      <trkpt lat="42.78333" lon="0.1629">
        <ele>1785.6</ele>
        <time>2021-01-29T15:21:54Z</time>
      </trkpt>
      <trkpt lat="42.78333" lon="0.1629">
        <ele>1785.6</ele>
        <time>2021-01-29T15:21:55Z</time>
      </trkpt>
      <trkpt lat="42.78333" lon="0.1629">
        <ele>1785.6</ele>
        <time>2021-01-29T15:21:56Z</time>
      </trkpt>
      <trkpt lat="42.78333" lon="0.1629">
        <ele>1785.6</ele>
        <time>2021-01-29T15:21:57Z</time>
      </trkpt>
      <trkpt lat="42.78333" lon="0.1629">
        <ele>1785.6</ele>
        <time>2021-01-29T15:21:58Z</time>
      </trkpt>
      <trkpt lat="42.78333" lon="0.1629">
        <ele>1785.6</ele>
        <time>2021-01-29T15:21:59Z</time>
      </trkpt>
      <trkpt lat="42.78333" lon="0.1629">
        <ele>1785.6</ele>
        <time>2021-01-29T15:22:00Z</time>
      </trkpt>
      <trkpt lat="42.78333" lon="0.1629">
        <ele>1785.6</ele>
        <time>2021-01-29T15:22:01Z</time>
      </trkpt>
      <trkpt lat="42.78333" lon="0.1629">
        <ele>1785.6</ele>
        <time>2021-01-29T15:22:02Z</time>
      </trkpt>
      <trkpt lat="42.78333" lon="0.1629">
        <ele>1785.6</ele>
        <time>2021-01-29T15:22:03Z</time>
      </trkpt>
      <trkpt lat="42.78333" lon="0.1629">
        <ele>1785.6</ele>
        <time>2021-01-29T15:22:04Z</time>
      </trkpt>
      <trkpt lat="42.78333" lon="0.1629">
        <ele>1785.6</ele>
        <time>2021-01-29T15:22:05Z</time>
      </trkpt>
      <trkpt lat="42.78333" lon="0.1629">
        <ele>1785.6</ele>
        <time>2021-01-29T15:22:06Z</time>
      </trkpt>
      <trkpt lat="42.78333" lon="0.1629">
        <ele>1785.6</ele>
        <time>2021-01-29T15:22:07Z</time>
      </trkpt>
      <trkpt lat="42.78333" lon="0.1629">
        <ele>1785.6</ele>
        <time>2021-01-29T15:22:08Z</time>
      </trkpt>
      <trkpt lat="42.78333" lon="0.1629">
        <ele>1785.6</ele>
        <time>2021-01-29T15:22:09Z</time>
      </trkpt>
      <trkpt lat="42.78333" lon="0.1629">
        <ele>1785.6</ele>
        <time>2021-01-29T15:22:10Z</time>
      </trkpt>
      <trkpt lat="42.78333" lon="0.1629">
        <ele>1785.6</ele>
        <time>2021-01-29T15:22:11Z</time>
      </trkpt>
      <trkpt lat="42.78333" lon="0.1629">
        <ele>1785.6</ele>
        <time>2021-01-29T15:22:12Z</time>
      </trkpt>
      <trkpt lat="42.78333" lon="0.1629">
        <ele>1785.6</ele>
        <time>2021-01-29T15:22:13Z</time>
      </trkpt>
      <trkpt lat="42.78333" lon="0.1629">
        <ele>1785.6</ele>
        <time>2021-01-29T15:22:14Z</time>
      </trkpt>
      <trkpt lat="42.78333" lon="0.1629">
        <ele>1785.6</ele>
        <time>2021-01-29T15:22:15Z</time>
      </trkpt>
      <trkpt lat="42.78333" lon="0.1629">
        <ele>1785.6</ele>
        <time>2021-01-29T15:22:16Z</time>
      </trkpt>
      <trkpt lat="42.78333" lon="0.1629">
        <ele>1785.6</ele>
        <time>2021-01-29T15:22:17Z</time>
      </trkpt>
      <trkpt lat="42.78333" lon="0.1629">
        <ele>1785.6</ele>
        <time>2021-01-29T15:22:18Z</time>
      </trkpt>
      <trkpt lat="42.78333" lon="0.1629">
        <ele>1785.6</ele>
        <time>2021-01-29T15:22:19Z</time>
      </trkpt>
      <trkpt lat="42.78333" lon="0.1629">
        <ele>1785.6</ele>
        <time>2021-01-29T15:22:20Z</time>
      </trkpt>
      <trkpt lat="42.78333" lon="0.1629">
        <ele>1785.6</ele>
        <time>2021-01-29T15:22:21Z</time>
      </trkpt>
      <trkpt lat="42.78333" lon="0.1629">
        <ele>1785.8</ele>
        <time>2021-01-29T15:22:22Z</time>
      </trkpt>
      <trkpt lat="42.78333" lon="0.1629">
        <ele>1785.8</ele>
        <time>2021-01-29T15:22:23Z</time>
      </trkpt>
      <trkpt lat="42.78333" lon="0.1629">
        <ele>1785.8</ele>
        <time>2021-01-29T15:22:24Z</time>
      </trkpt>
      <trkpt lat="42.78333" lon="0.1629">
        <ele>1785.8</ele>
        <time>2021-01-29T15:22:25Z</time>
      </trkpt>
      <trkpt lat="42.78333" lon="0.1629">
        <ele>1785.8</ele>
        <time>2021-01-29T15:22:26Z</time>
      </trkpt>
      <trkpt lat="42.78333" lon="0.1629">
        <ele>1785.8</ele>
        <time>2021-01-29T15:22:27Z</time>
      </trkpt>
      <trkpt lat="42.78333" lon="0.1629">
        <ele>1785.8</ele>
        <time>2021-01-29T15:22:28Z</time>
      </trkpt>
      <trkpt lat="42.78333" lon="0.1629">
        <ele>1785.8</ele>
        <time>2021-01-29T15:22:29Z</time>
      </trkpt>
      <trkpt lat="42.78333" lon="0.1629">
        <ele>1785.8</ele>
        <time>2021-01-29T15:22:30Z</time>
      </trkpt>
      <trkpt lat="42.78333" lon="0.1629">
        <ele>1785.8</ele>
        <time>2021-01-29T15:22:31Z</time>
      </trkpt>
      <trkpt lat="42.78333" lon="0.1629">
        <ele>1786</ele>
        <time>2021-01-29T15:22:32Z</time>
      </trkpt>
      <trkpt lat="42.78333" lon="0.1629">
        <ele>1786</ele>
        <time>2021-01-29T15:22:33Z</time>
      </trkpt>
      <trkpt lat="42.78333" lon="0.1629">
        <ele>1786</ele>
        <time>2021-01-29T15:22:34Z</time>
      </trkpt>
      <trkpt lat="42.78333" lon="0.1629">
        <ele>1786</ele>
        <time>2021-01-29T15:22:35Z</time>
      </trkpt>
      <trkpt lat="42.78333" lon="0.1629">
        <ele>1786</ele>
        <time>2021-01-29T15:22:36Z</time>
      </trkpt>
      <trkpt lat="42.78333" lon="0.1629">
        <ele>1786</ele>
        <time>2021-01-29T15:22:37Z</time>
      </trkpt>
      <trkpt lat="42.78333" lon="0.1629">
        <ele>1786</ele>
        <time>2021-01-29T15:22:38Z</time>
      </trkpt>
      <trkpt lat="42.78333" lon="0.1629">
        <ele>1786</ele>
        <time>2021-01-29T15:22:39Z</time>
      </trkpt>
      <trkpt lat="42.78333" lon="0.1629">
        <ele>1786.2</ele>
        <time>2021-01-29T15:22:40Z</time>
      </trkpt>
      <trkpt lat="42.78333" lon="0.1629">
        <ele>1786.2</ele>
        <time>2021-01-29T15:22:41Z</time>
      </trkpt>
      <trkpt lat="42.78333" lon="0.1629">
        <ele>1786.2</ele>
        <time>2021-01-29T15:22:42Z</time>
      </trkpt>
      <trkpt lat="42.78333" lon="0.1629">
        <ele>1786.2</ele>
        <time>2021-01-29T15:22:43Z</time>
      </trkpt>
      <trkpt lat="42.78333" lon="0.1629">
        <ele>1786.2</ele>
        <time>2021-01-29T15:22:44Z</time>
      </trkpt>
      <trkpt lat="42.78333" lon="0.1629">
        <ele>1786.2</ele>
        <time>2021-01-29T15:22:45Z</time>
      </trkpt>
      <trkpt lat="42.78333" lon="0.1629">
        <ele>1786.2</ele>
        <time>2021-01-29T15:22:46Z</time>
      </trkpt>
      <trkpt lat="42.78333" lon="0.1629">
        <ele>1786.2</ele>
        <time>2021-01-29T15:22:47Z</time>
      </trkpt>
      <trkpt lat="42.78333" lon="0.1629">
        <ele>1786.2</ele>
        <time>2021-01-29T15:22:48Z</time>
      </trkpt>
      <trkpt lat="42.78333" lon="0.1629">
        <ele>1786.2</ele>
        <time>2021-01-29T15:22:49Z</time>
      </trkpt>
      <trkpt lat="42.78333" lon="0.1629">
        <ele>1786.2</ele>
        <time>2021-01-29T15:22:50Z</time>
      </trkpt>
      <trkpt lat="42.78333" lon="0.1629">
        <ele>1786.2</ele>
        <time>2021-01-29T15:22:51Z</time>
      </trkpt>
      <trkpt lat="42.78333" lon="0.1629">
        <ele>1786.2</ele>
        <time>2021-01-29T15:22:52Z</time>
      </trkpt>
      <trkpt lat="42.78333" lon="0.1629">
        <ele>1786.4</ele>
        <time>2021-01-29T15:22:53Z</time>
      </trkpt>
      <trkpt lat="42.78333" lon="0.1629">
        <ele>1786.4</ele>
        <time>2021-01-29T15:22:54Z</time>
      </trkpt>
      <trkpt lat="42.78333" lon="0.1629">
        <ele>1786.4</ele>
        <time>2021-01-29T15:22:55Z</time>
      </trkpt>
      <trkpt lat="42.78333" lon="0.1629">
        <ele>1786.4</ele>
        <time>2021-01-29T15:22:56Z</time>
      </trkpt>
      <trkpt lat="42.78333" lon="0.1629">
        <ele>1786.4</ele>
        <time>2021-01-29T15:22:57Z</time>
      </trkpt>
      <trkpt lat="42.78333" lon="0.1629">
        <ele>1786.4</ele>
        <time>2021-01-29T15:22:58Z</time>
      </trkpt>
      <trkpt lat="42.78333" lon="0.1629">
        <ele>1786.4</ele>
        <time>2021-01-29T15:22:59Z</time>
      </trkpt>
      <trkpt lat="42.78333" lon="0.1629">
        <ele>1786.4</ele>
        <time>2021-01-29T15:23:00Z</time>
      </trkpt>
      <trkpt lat="42.78333" lon="0.1629">
        <ele>1786.4</ele>
        <time>2021-01-29T15:23:01Z</time>
      </trkpt>
      <trkpt lat="42.78333" lon="0.1629">
        <ele>1786.4</ele>
        <time>2021-01-29T15:23:02Z</time>
      </trkpt>
      <trkpt lat="42.78333" lon="0.1629">
        <ele>1786.6</ele>
        <time>2021-01-29T15:23:03Z</time>
      </trkpt>
      <trkpt lat="42.78333" lon="0.1629">
        <ele>1786.6</ele>
        <time>2021-01-29T15:23:04Z</time>
      </trkpt>
      <trkpt lat="42.78333" lon="0.1629">
        <ele>1786.6</ele>
        <time>2021-01-29T15:23:05Z</time>
      </trkpt>
      <trkpt lat="42.78333" lon="0.1629">
        <ele>1786.6</ele>
        <time>2021-01-29T15:23:06Z</time>
      </trkpt>
      <trkpt lat="42.78333" lon="0.1629">
        <ele>1786.6</ele>
        <time>2021-01-29T15:23:07Z</time>
      </trkpt>
      <trkpt lat="42.78333" lon="0.1629">
        <ele>1786.6</ele>
        <time>2021-01-29T15:23:08Z</time>
      </trkpt>
      <trkpt lat="42.78333" lon="0.1629">
        <ele>1786.6</ele>
        <time>2021-01-29T15:23:09Z</time>
      </trkpt>
      <trkpt lat="42.78333" lon="0.1629">
        <ele>1786.8</ele>
        <time>2021-01-29T15:23:10Z</time>
      </trkpt>
      <trkpt lat="42.78333" lon="0.1629">
        <ele>1786.8</ele>
        <time>2021-01-29T15:23:11Z</time>
      </trkpt>
      <trkpt lat="42.78333" lon="0.1629">
        <ele>1786.8</ele>
        <time>2021-01-29T15:23:12Z</time>
      </trkpt>
      <trkpt lat="42.78333" lon="0.1629">
        <ele>1786.8</ele>
        <time>2021-01-29T15:23:13Z</time>
      </trkpt>
      <trkpt lat="42.78333" lon="0.1629">
        <ele>1786.8</ele>
        <time>2021-01-29T15:23:14Z</time>
      </trkpt>
      <trkpt lat="42.78333" lon="0.1629">
        <ele>1786.8</ele>
        <time>2021-01-29T15:23:15Z</time>
      </trkpt>
      <trkpt lat="42.78333" lon="0.1629">
        <ele>1786.8</ele>
        <time>2021-01-29T15:23:16Z</time>
      </trkpt>
      <trkpt lat="42.78333" lon="0.1629">
        <ele>1786.8</ele>
        <time>2021-01-29T15:23:17Z</time>
      </trkpt>
      <trkpt lat="42.78333" lon="0.1629">
        <ele>1787</ele>
        <time>2021-01-29T15:23:18Z</time>
      </trkpt>
      <trkpt lat="42.78333" lon="0.1629">
        <ele>1787</ele>
        <time>2021-01-29T15:23:19Z</time>
      </trkpt>
      <trkpt lat="42.78333" lon="0.1629">
        <ele>1787</ele>
        <time>2021-01-29T15:23:20Z</time>
      </trkpt>
      <trkpt lat="42.78333" lon="0.1629">
        <ele>1787</ele>
        <time>2021-01-29T15:23:21Z</time>
      </trkpt>
      <trkpt lat="42.78333" lon="0.1629">
        <ele>1787</ele>
        <time>2021-01-29T15:23:22Z</time>
      </trkpt>
      <trkpt lat="42.78333" lon="0.1629">
        <ele>1787</ele>
        <time>2021-01-29T15:23:23Z</time>
      </trkpt>
      <trkpt lat="42.78333" lon="0.1629">
        <ele>1787</ele>
        <time>2021-01-29T15:23:24Z</time>
      </trkpt>
      <trkpt lat="42.78333" lon="0.1629">
        <ele>1787.2</ele>
        <time>2021-01-29T15:23:25Z</time>
      </trkpt>
      <trkpt lat="42.78333" lon="0.1629">
        <ele>1787.2</ele>
        <time>2021-01-29T15:23:26Z</time>
      </trkpt>
      <trkpt lat="42.78333" lon="0.1629">
        <ele>1787.2</ele>
        <time>2021-01-29T15:23:27Z</time>
      </trkpt>
      <trkpt lat="42.78333" lon="0.1629">
        <ele>1787.2</ele>
        <time>2021-01-29T15:23:28Z</time>
      </trkpt>
      <trkpt lat="42.78333" lon="0.1629">
        <ele>1787.2</ele>
        <time>2021-01-29T15:23:29Z</time>
      </trkpt>
      <trkpt lat="42.78333" lon="0.1629">
        <ele>1787.2</ele>
        <time>2021-01-29T15:23:30Z</time>
      </trkpt>
      <trkpt lat="42.78333" lon="0.1629">
        <ele>1787.2</ele>
        <time>2021-01-29T15:23:31Z</time>
      </trkpt>
      <trkpt lat="42.78333" lon="0.1629">
        <ele>1787.2</ele>
        <time>2021-01-29T15:23:32Z</time>
      </trkpt>
      <trkpt lat="42.78333" lon="0.1629">
        <ele>1787.2</ele>
        <time>2021-01-29T15:23:33Z</time>
      </trkpt>
      <trkpt lat="42.78333" lon="0.1629">
        <ele>1787.2</ele>
        <time>2021-01-29T15:23:34Z</time>
      </trkpt>
      <trkpt lat="42.78333" lon="0.1629">
        <ele>1787.2</ele>
        <time>2021-01-29T15:23:35Z</time>
      </trkpt>
      <trkpt lat="42.78333" lon="0.1629">
        <ele>1787.4</ele>
        <time>2021-01-29T15:23:36Z</time>
      </trkpt>
      <trkpt lat="42.78333" lon="0.1629">
        <ele>1787.4</ele>
        <time>2021-01-29T15:23:37Z</time>
      </trkpt>
      <trkpt lat="42.78333" lon="0.1629">
        <ele>1787.4</ele>
        <time>2021-01-29T15:23:38Z</time>
      </trkpt>
      <trkpt lat="42.78333" lon="0.1629">
        <ele>1787.4</ele>
        <time>2021-01-29T15:23:39Z</time>
      </trkpt>
      <trkpt lat="42.78333" lon="0.1629">
        <ele>1787.4</ele>
        <time>2021-01-29T15:23:40Z</time>
      </trkpt>
      <trkpt lat="42.78333" lon="0.1629">
        <ele>1787.4</ele>
        <time>2021-01-29T15:23:41Z</time>
      </trkpt>
      <trkpt lat="42.78333" lon="0.1629">
        <ele>1787.4</ele>
        <time>2021-01-29T15:23:42Z</time>
      </trkpt>
      <trkpt lat="42.78333" lon="0.1629">
        <ele>1787.4</ele>
        <time>2021-01-29T15:23:43Z</time>
      </trkpt>
      <trkpt lat="42.78333" lon="0.1629">
        <ele>1787.6</ele>
        <time>2021-01-29T15:23:44Z</time>
      </trkpt>
      <trkpt lat="42.78333" lon="0.1629">
        <ele>1787.6</ele>
        <time>2021-01-29T15:23:45Z</time>
      </trkpt>
      <trkpt lat="42.78333" lon="0.1629">
        <ele>1787.6</ele>
        <time>2021-01-29T15:23:46Z</time>
      </trkpt>
      <trkpt lat="42.78333" lon="0.1629">
        <ele>1787.6</ele>
        <time>2021-01-29T15:23:47Z</time>
      </trkpt>
      <trkpt lat="42.78333" lon="0.1629">
        <ele>1787.6</ele>
        <time>2021-01-29T15:23:48Z</time>
      </trkpt>
      <trkpt lat="42.78333" lon="0.1629">
        <ele>1787.6</ele>
        <time>2021-01-29T15:23:49Z</time>
      </trkpt>
      <trkpt lat="42.78333" lon="0.1629">
        <ele>1787.6</ele>
        <time>2021-01-29T15:23:50Z</time>
      </trkpt>
      <trkpt lat="42.78333" lon="0.1629">
        <ele>1787.6</ele>
        <time>2021-01-29T15:23:51Z</time>
      </trkpt>
      <trkpt lat="42.78333" lon="0.1629">
        <ele>1787.6</ele>
        <time>2021-01-29T15:23:52Z</time>
      </trkpt>
      <trkpt lat="42.78333" lon="0.1629">
        <ele>1787.6</ele>
        <time>2021-01-29T15:23:53Z</time>
      </trkpt>
      <trkpt lat="42.78333" lon="0.1629">
        <ele>1787.8</ele>
        <time>2021-01-29T15:23:54Z</time>
      </trkpt>
      <trkpt lat="42.78333" lon="0.1629">
        <ele>1787.8</ele>
        <time>2021-01-29T15:23:55Z</time>
      </trkpt>
      <trkpt lat="42.78333" lon="0.1629">
        <ele>1787.8</ele>
        <time>2021-01-29T15:23:56Z</time>
      </trkpt>
      <trkpt lat="42.78333" lon="0.1629">
        <ele>1787.8</ele>
        <time>2021-01-29T15:23:57Z</time>
      </trkpt>
      <trkpt lat="42.78333" lon="0.1629">
        <ele>1787.8</ele>
        <time>2021-01-29T15:23:58Z</time>
      </trkpt>
      <trkpt lat="42.78333" lon="0.1629">
        <ele>1787.8</ele>
        <time>2021-01-29T15:23:59Z</time>
      </trkpt>
      <trkpt lat="42.78333" lon="0.1629">
        <ele>1787.8</ele>
        <time>2021-01-29T15:24:00Z</time>
      </trkpt>
      <trkpt lat="42.78333" lon="0.1629">
        <ele>1787.8</ele>
        <time>2021-01-29T15:24:01Z</time>
      </trkpt>
      <trkpt lat="42.78333" lon="0.1629">
        <ele>1787.8</ele>
        <time>2021-01-29T15:24:02Z</time>
      </trkpt>
      <trkpt lat="42.78333" lon="0.1629">
        <ele>1787.8</ele>
        <time>2021-01-29T15:24:03Z</time>
      </trkpt>
      <trkpt lat="42.78333" lon="0.1629">
        <ele>1787.8</ele>
        <time>2021-01-29T15:24:04Z</time>
      </trkpt>
      <trkpt lat="42.78332" lon="0.16288">
        <ele>1787.8</ele>
        <time>2021-01-29T15:24:05Z</time>
      </trkpt>
      <trkpt lat="42.78331" lon="0.16286">
        <ele>1787.8</ele>
        <time>2021-01-29T15:24:06Z</time>
      </trkpt>
      <trkpt lat="42.78331" lon="0.16285">
        <ele>1787.8</ele>
        <time>2021-01-29T15:24:07Z</time>
      </trkpt>
      <trkpt lat="42.78331" lon="0.16285">
        <ele>1788</ele>
        <time>2021-01-29T15:24:08Z</time>
      </trkpt>
      <trkpt lat="42.78331" lon="0.16285">
        <ele>1788</ele>
        <time>2021-01-29T15:24:09Z</time>
      </trkpt>
      <trkpt lat="42.78331" lon="0.16285">
        <ele>1788</ele>
        <time>2021-01-29T15:24:10Z</time>
      </trkpt>
      <trkpt lat="42.78331" lon="0.16285">
        <ele>1788</ele>
        <time>2021-01-29T15:24:11Z</time>
      </trkpt>
      <trkpt lat="42.78331" lon="0.16285">
        <ele>1788</ele>
        <time>2021-01-29T15:24:12Z</time>
      </trkpt>
      <trkpt lat="42.78331" lon="0.16285">
        <ele>1788</ele>
        <time>2021-01-29T15:24:13Z</time>
      </trkpt>
      <trkpt lat="42.78331" lon="0.16285">
        <ele>1788</ele>
        <time>2021-01-29T15:24:14Z</time>
      </trkpt>
      <trkpt lat="42.78331" lon="0.16285">
        <ele>1788</ele>
        <time>2021-01-29T15:24:15Z</time>
      </trkpt>
      <trkpt lat="42.78331" lon="0.16285">
        <ele>1788</ele>
        <time>2021-01-29T15:24:16Z</time>
      </trkpt>
      <trkpt lat="42.78331" lon="0.16285">
        <ele>1788</ele>
        <time>2021-01-29T15:24:17Z</time>
      </trkpt>
      <trkpt lat="42.78331" lon="0.16285">
        <ele>1788</ele>
        <time>2021-01-29T15:24:18Z</time>
      </trkpt>
      <trkpt lat="42.78331" lon="0.16285">
        <ele>1788</ele>
        <time>2021-01-29T15:24:19Z</time>
      </trkpt>
      <trkpt lat="42.78331" lon="0.16285">
        <ele>1788</ele>
        <time>2021-01-29T15:24:20Z</time>
      </trkpt>
      <trkpt lat="42.78331" lon="0.16285">
        <ele>1788</ele>
        <time>2021-01-29T15:24:21Z</time>
      </trkpt>
      <trkpt lat="42.78331" lon="0.16285">
        <ele>1788</ele>
        <time>2021-01-29T15:24:22Z</time>
      </trkpt>
      <trkpt lat="42.78331" lon="0.16285">
        <ele>1788</ele>
        <time>2021-01-29T15:24:23Z</time>
      </trkpt>
      <trkpt lat="42.78331" lon="0.16285">
        <ele>1788</ele>
        <time>2021-01-29T15:24:24Z</time>
      </trkpt>
      <trkpt lat="42.78331" lon="0.16285">
        <ele>1788.2</ele>
        <time>2021-01-29T15:24:25Z</time>
      </trkpt>
      <trkpt lat="42.78331" lon="0.16285">
        <ele>1788.2</ele>
        <time>2021-01-29T15:24:26Z</time>
      </trkpt>
      <trkpt lat="42.78331" lon="0.16285">
        <ele>1788.2</ele>
        <time>2021-01-29T15:24:27Z</time>
      </trkpt>
      <trkpt lat="42.78331" lon="0.16285">
        <ele>1788</ele>
        <time>2021-01-29T15:24:28Z</time>
      </trkpt>
      <trkpt lat="42.78331" lon="0.16285">
        <ele>1788</ele>
        <time>2021-01-29T15:24:29Z</time>
      </trkpt>
      <trkpt lat="42.78331" lon="0.16285">
        <ele>1788</ele>
        <time>2021-01-29T15:24:30Z</time>
      </trkpt>
      <trkpt lat="42.78331" lon="0.16285">
        <ele>1788</ele>
        <time>2021-01-29T15:24:31Z</time>
      </trkpt>
      <trkpt lat="42.78331" lon="0.16285">
        <ele>1788</ele>
        <time>2021-01-29T15:24:32Z</time>
      </trkpt>
      <trkpt lat="42.78331" lon="0.16285">
        <ele>1788.2</ele>
        <time>2021-01-29T15:24:33Z</time>
      </trkpt>
      <trkpt lat="42.78331" lon="0.16285">
        <ele>1788.2</ele>
        <time>2021-01-29T15:24:34Z</time>
      </trkpt>
      <trkpt lat="42.78331" lon="0.16285">
        <ele>1788.2</ele>
        <time>2021-01-29T15:24:35Z</time>
      </trkpt>
      <trkpt lat="42.78331" lon="0.16285">
        <ele>1788.2</ele>
        <time>2021-01-29T15:24:36Z</time>
      </trkpt>
      <trkpt lat="42.78331" lon="0.16285">
        <ele>1788.2</ele>
        <time>2021-01-29T15:24:37Z</time>
      </trkpt>
      <trkpt lat="42.78331" lon="0.16285">
        <ele>1788.2</ele>
        <time>2021-01-29T15:24:38Z</time>
      </trkpt>
      <trkpt lat="42.78331" lon="0.16285">
        <ele>1788.2</ele>
        <time>2021-01-29T15:24:39Z</time>
      </trkpt>
      <trkpt lat="42.78331" lon="0.16285">
        <ele>1788.2</ele>
        <time>2021-01-29T15:24:40Z</time>
      </trkpt>
      <trkpt lat="42.78331" lon="0.16285">
        <ele>1788.2</ele>
        <time>2021-01-29T15:24:41Z</time>
      </trkpt>
      <trkpt lat="42.78331" lon="0.16285">
        <ele>1788.2</ele>
        <time>2021-01-29T15:24:42Z</time>
      </trkpt>
      <trkpt lat="42.78331" lon="0.16285">
        <ele>1788.2</ele>
        <time>2021-01-29T15:24:43Z</time>
      </trkpt>
      <trkpt lat="42.78331" lon="0.16285">
        <ele>1788.2</ele>
        <time>2021-01-29T15:24:44Z</time>
      </trkpt>
      <trkpt lat="42.78331" lon="0.16285">
        <ele>1788.2</ele>
        <time>2021-01-29T15:24:45Z</time>
      </trkpt>
      <trkpt lat="42.78331" lon="0.16285">
        <ele>1788.2</ele>
        <time>2021-01-29T15:24:46Z</time>
      </trkpt>
      <trkpt lat="42.78331" lon="0.16285">
        <ele>1788.2</ele>
        <time>2021-01-29T15:24:47Z</time>
      </trkpt>
      <trkpt lat="42.78331" lon="0.16285">
        <ele>1788.2</ele>
        <time>2021-01-29T15:24:48Z</time>
      </trkpt>
      <trkpt lat="42.78331" lon="0.16285">
        <ele>1788.2</ele>
        <time>2021-01-29T15:24:49Z</time>
      </trkpt>
      <trkpt lat="42.78331" lon="0.16285">
        <ele>1788.2</ele>
        <time>2021-01-29T15:24:50Z</time>
      </trkpt>
      <trkpt lat="42.78331" lon="0.16285">
        <ele>1788.2</ele>
        <time>2021-01-29T15:24:51Z</time>
      </trkpt>
      <trkpt lat="42.78331" lon="0.16285">
        <ele>1788.2</ele>
        <time>2021-01-29T15:24:52Z</time>
      </trkpt>
      <trkpt lat="42.78331" lon="0.16285">
        <ele>1788.2</ele>
        <time>2021-01-29T15:24:53Z</time>
      </trkpt>
      <trkpt lat="42.78331" lon="0.16285">
        <ele>1788.2</ele>
        <time>2021-01-29T15:24:54Z</time>
      </trkpt>
      <trkpt lat="42.78331" lon="0.16285">
        <ele>1788.2</ele>
        <time>2021-01-29T15:24:55Z</time>
      </trkpt>
      <trkpt lat="42.78331" lon="0.16285">
        <ele>1788.2</ele>
        <time>2021-01-29T15:24:56Z</time>
      </trkpt>
      <trkpt lat="42.78331" lon="0.16285">
        <ele>1788.2</ele>
        <time>2021-01-29T15:24:57Z</time>
      </trkpt>
      <trkpt lat="42.78331" lon="0.16285">
        <ele>1788.2</ele>
        <time>2021-01-29T15:24:58Z</time>
      </trkpt>
      <trkpt lat="42.78331" lon="0.16286">
        <ele>1788.2</ele>
        <time>2021-01-29T15:24:59Z</time>
      </trkpt>
      <trkpt lat="42.7833" lon="0.16286">
        <ele>1788.2</ele>
        <time>2021-01-29T15:25:00Z</time>
      </trkpt>
      <trkpt lat="42.78329" lon="0.16286">
        <ele>1788.2</ele>
        <time>2021-01-29T15:25:01Z</time>
      </trkpt>
      <trkpt lat="42.78329" lon="0.16286">
        <ele>1788.4</ele>
        <time>2021-01-29T15:25:02Z</time>
      </trkpt>
      <trkpt lat="42.78328" lon="0.16286">
        <ele>1788.4</ele>
        <time>2021-01-29T15:25:03Z</time>
      </trkpt>
      <trkpt lat="42.78328" lon="0.16286">
        <ele>1788.4</ele>
        <time>2021-01-29T15:25:04Z</time>
      </trkpt>
      <trkpt lat="42.78328" lon="0.16286">
        <ele>1788.4</ele>
        <time>2021-01-29T15:25:05Z</time>
      </trkpt>
      <trkpt lat="42.78328" lon="0.16286">
        <ele>1788.4</ele>
        <time>2021-01-29T15:25:06Z</time>
      </trkpt>
      <trkpt lat="42.78328" lon="0.16286">
        <ele>1788.4</ele>
        <time>2021-01-29T15:25:07Z</time>
      </trkpt>
      <trkpt lat="42.78328" lon="0.16286">
        <ele>1788.4</ele>
        <time>2021-01-29T15:25:08Z</time>
      </trkpt>
      <trkpt lat="42.78328" lon="0.16286">
        <ele>1788.4</ele>
        <time>2021-01-29T15:25:09Z</time>
      </trkpt>
      <trkpt lat="42.78328" lon="0.16286">
        <ele>1788.4</ele>
        <time>2021-01-29T15:25:10Z</time>
      </trkpt>
      <trkpt lat="42.78328" lon="0.16286">
        <ele>1788.4</ele>
        <time>2021-01-29T15:25:11Z</time>
      </trkpt>
      <trkpt lat="42.78328" lon="0.16286">
        <ele>1788.4</ele>
        <time>2021-01-29T15:25:12Z</time>
      </trkpt>
      <trkpt lat="42.78328" lon="0.16286">
        <ele>1788.4</ele>
        <time>2021-01-29T15:25:13Z</time>
      </trkpt>
      <trkpt lat="42.78328" lon="0.16286">
        <ele>1788.4</ele>
        <time>2021-01-29T15:25:14Z</time>
      </trkpt>
      <trkpt lat="42.78328" lon="0.16286">
        <ele>1788.4</ele>
        <time>2021-01-29T15:25:15Z</time>
      </trkpt>
      <trkpt lat="42.78328" lon="0.16286">
        <ele>1788.4</ele>
        <time>2021-01-29T15:25:16Z</time>
      </trkpt>
      <trkpt lat="42.78328" lon="0.16286">
        <ele>1788.4</ele>
        <time>2021-01-29T15:25:17Z</time>
      </trkpt>
      <trkpt lat="42.78328" lon="0.16286">
        <ele>1788.4</ele>
        <time>2021-01-29T15:25:18Z</time>
      </trkpt>
      <trkpt lat="42.78328" lon="0.16286">
        <ele>1788.4</ele>
        <time>2021-01-29T15:25:19Z</time>
      </trkpt>
      <trkpt lat="42.78328" lon="0.16286">
        <ele>1788.6</ele>
        <time>2021-01-29T15:25:20Z</time>
      </trkpt>
      <trkpt lat="42.78328" lon="0.16286">
        <ele>1788.4</ele>
        <time>2021-01-29T15:25:21Z</time>
      </trkpt>
      <trkpt lat="42.78328" lon="0.16286">
        <ele>1788.4</ele>
        <time>2021-01-29T15:25:22Z</time>
      </trkpt>
      <trkpt lat="42.78328" lon="0.16286">
        <ele>1788.6</ele>
        <time>2021-01-29T15:25:23Z</time>
      </trkpt>
      <trkpt lat="42.78328" lon="0.16286">
        <ele>1788.6</ele>
        <time>2021-01-29T15:25:24Z</time>
      </trkpt>
      <trkpt lat="42.78328" lon="0.16286">
        <ele>1788.6</ele>
        <time>2021-01-29T15:25:25Z</time>
      </trkpt>
    </trkseg>
  </trk>
</gpx>